Files
intotheeast-com-content/pages/01.trips/denmark-2026/alrum-strand-to-lodbjwrg-shelterplads.gpx
T

73282 lines
2.4 MiB
Plaintext

<?xml version='1.0' encoding='UTF-8'?>
<gpx version="1.1" creator="https://www.komoot.de" xmlns="http://www.topografix.com/GPX/1/1" xmlns:xsi="http://www.w3.org/2001/XMLSchema-instance" xsi:schemaLocation="http://www.topografix.com/GPX/1/1 http://www.topografix.com/GPX/1/1/gpx.xsd">
<metadata>
<name>Alrum Strand to Lodbjwrg Shelterplads</name>
<author>
<link href="https://www.komoot.de">
<text>komoot</text>
<type>text/html</type>
</link>
</author>
</metadata>
<trk>
<name>Alrum Strand to Lodbjwrg Shelterplads</name>
<type>racebike</type>
<trkseg>
<trkpt lat="56.143154" lon="8.176044">
<ele>4.000000</ele>
<time>2026-07-13T08:08:04.000Z</time>
</trkpt>
<trkpt lat="56.143150" lon="8.176043">
<ele>4.000000</ele>
<time>2026-07-13T08:08:08.000Z</time>
</trkpt>
<trkpt lat="56.143074" lon="8.175975">
<ele>4.000000</ele>
<time>2026-07-13T08:08:26.000Z</time>
</trkpt>
<trkpt lat="56.143055" lon="8.175953">
<ele>4.000000</ele>
<time>2026-07-13T08:08:27.000Z</time>
</trkpt>
<trkpt lat="56.143040" lon="8.175934">
<ele>4.000000</ele>
<time>2026-07-13T08:08:28.000Z</time>
</trkpt>
<trkpt lat="56.143021" lon="8.175909">
<ele>4.000000</ele>
<time>2026-07-13T08:08:29.000Z</time>
</trkpt>
<trkpt lat="56.143009" lon="8.175894">
<ele>4.000000</ele>
<time>2026-07-13T08:08:30.000Z</time>
</trkpt>
<trkpt lat="56.142986" lon="8.175867">
<ele>4.000000</ele>
<time>2026-07-13T08:08:31.000Z</time>
</trkpt>
<trkpt lat="56.142971" lon="8.175846">
<ele>4.000000</ele>
<time>2026-07-13T08:08:32.000Z</time>
</trkpt>
<trkpt lat="56.142948" lon="8.175818">
<ele>4.000000</ele>
<time>2026-07-13T08:08:33.000Z</time>
</trkpt>
<trkpt lat="56.142929" lon="8.175794">
<ele>4.000000</ele>
<time>2026-07-13T08:08:34.000Z</time>
</trkpt>
<trkpt lat="56.142902" lon="8.175763">
<ele>4.000000</ele>
<time>2026-07-13T08:08:35.000Z</time>
</trkpt>
<trkpt lat="56.142876" lon="8.175742">
<ele>4.000000</ele>
<time>2026-07-13T08:08:36.000Z</time>
</trkpt>
<trkpt lat="56.142845" lon="8.175722">
<ele>4.000000</ele>
<time>2026-07-13T08:08:37.000Z</time>
</trkpt>
<trkpt lat="56.142811" lon="8.175698">
<ele>4.000000</ele>
<time>2026-07-13T08:08:38.000Z</time>
</trkpt>
<trkpt lat="56.142773" lon="8.175679">
<ele>4.000000</ele>
<time>2026-07-13T08:08:39.000Z</time>
</trkpt>
<trkpt lat="56.142742" lon="8.175663">
<ele>4.000000</ele>
<time>2026-07-13T08:08:40.000Z</time>
</trkpt>
<trkpt lat="56.142704" lon="8.175651">
<ele>4.000000</ele>
<time>2026-07-13T08:08:41.000Z</time>
</trkpt>
<trkpt lat="56.142670" lon="8.175640">
<ele>4.000000</ele>
<time>2026-07-13T08:08:42.000Z</time>
</trkpt>
<trkpt lat="56.142632" lon="8.175624">
<ele>4.000000</ele>
<time>2026-07-13T08:08:43.000Z</time>
</trkpt>
<trkpt lat="56.142597" lon="8.175608">
<ele>4.000000</ele>
<time>2026-07-13T08:08:44.000Z</time>
</trkpt>
<trkpt lat="56.142559" lon="8.175592">
<ele>4.000000</ele>
<time>2026-07-13T08:08:45.000Z</time>
</trkpt>
<trkpt lat="56.142528" lon="8.175579">
<ele>4.000000</ele>
<time>2026-07-13T08:08:46.000Z</time>
</trkpt>
<trkpt lat="56.142483" lon="8.175568">
<ele>4.000000</ele>
<time>2026-07-13T08:08:47.000Z</time>
</trkpt>
<trkpt lat="56.142452" lon="8.175555">
<ele>4.000000</ele>
<time>2026-07-13T08:08:48.000Z</time>
</trkpt>
<trkpt lat="56.142410" lon="8.175539">
<ele>4.000000</ele>
<time>2026-07-13T08:08:49.000Z</time>
</trkpt>
<trkpt lat="56.142376" lon="8.175528">
<ele>4.000000</ele>
<time>2026-07-13T08:08:50.000Z</time>
</trkpt>
<trkpt lat="56.142342" lon="8.175515">
<ele>4.000000</ele>
<time>2026-07-13T08:08:51.000Z</time>
</trkpt>
<trkpt lat="56.142307" lon="8.175502">
<ele>4.006042</ele>
<time>2026-07-13T08:08:52.000Z</time>
</trkpt>
<trkpt lat="56.142269" lon="8.175486">
<ele>4.024995</ele>
<time>2026-07-13T08:08:53.000Z</time>
</trkpt>
<trkpt lat="56.142231" lon="8.175471">
<ele>4.043889</ele>
<time>2026-07-13T08:08:54.000Z</time>
</trkpt>
<trkpt lat="56.142197" lon="8.175454">
<ele>4.061028</ele>
<time>2026-07-13T08:08:55.000Z</time>
</trkpt>
<trkpt lat="56.142159" lon="8.175438">
<ele>4.079981</ele>
<time>2026-07-13T08:08:56.000Z</time>
</trkpt>
<trkpt lat="56.142117" lon="8.175421">
<ele>4.100888</ele>
<time>2026-07-13T08:08:57.000Z</time>
</trkpt>
<trkpt lat="56.142067" lon="8.175398">
<ele>4.125952</ele>
<time>2026-07-13T08:08:58.000Z</time>
</trkpt>
<trkpt lat="56.142029" lon="8.175380">
<ele>4.145037</ele>
<time>2026-07-13T08:08:59.000Z</time>
</trkpt>
<trkpt lat="56.142006" lon="8.175371">
<ele>4.156468</ele>
<time>2026-07-13T08:09:00.000Z</time>
</trkpt>
<trkpt lat="56.141972" lon="8.175359">
<ele>4.173294</ele>
<time>2026-07-13T08:09:01.000Z</time>
</trkpt>
<trkpt lat="56.141941" lon="8.175345">
<ele>4.188816</ele>
<time>2026-07-13T08:09:02.000Z</time>
</trkpt>
<trkpt lat="56.141911" lon="8.175331">
<ele>4.203869</ele>
<time>2026-07-13T08:09:03.000Z</time>
</trkpt>
<trkpt lat="56.141872" lon="8.175312">
<ele>4.223492</ele>
<time>2026-07-13T08:09:04.000Z</time>
</trkpt>
<trkpt lat="56.141819" lon="8.175285">
<ele>4.250245</ele>
<time>2026-07-13T08:09:05.000Z</time>
</trkpt>
<trkpt lat="56.141781" lon="8.175269">
<ele>4.269198</ele>
<time>2026-07-13T08:09:06.000Z</time>
</trkpt>
<trkpt lat="56.141750" lon="8.175257">
<ele>4.284598</ele>
<time>2026-07-13T08:09:07.000Z</time>
</trkpt>
<trkpt lat="56.141720" lon="8.175244">
<ele>4.299584</ele>
<time>2026-07-13T08:09:08.000Z</time>
</trkpt>
<trkpt lat="56.141686" lon="8.175228">
<ele>4.316652</ele>
<time>2026-07-13T08:09:09.000Z</time>
</trkpt>
<trkpt lat="56.141628" lon="8.175200">
<ele>4.345818</ele>
<time>2026-07-13T08:09:10.000Z</time>
</trkpt>
<trkpt lat="56.141594" lon="8.175180">
<ele>4.363192</ele>
<time>2026-07-13T08:09:11.000Z</time>
</trkpt>
<trkpt lat="56.141560" lon="8.175162">
<ele>4.380405</ele>
<time>2026-07-13T08:09:12.000Z</time>
</trkpt>
<trkpt lat="56.141529" lon="8.175144">
<ele>4.396227</ele>
<time>2026-07-13T08:09:13.000Z</time>
</trkpt>
<trkpt lat="56.141499" lon="8.175128">
<ele>4.411424</ele>
<time>2026-07-13T08:09:14.000Z</time>
</trkpt>
<trkpt lat="56.141430" lon="8.175100">
<ele>4.445775</ele>
<time>2026-07-13T08:09:15.000Z</time>
</trkpt>
<trkpt lat="56.141399" lon="8.175087">
<ele>4.461234</ele>
<time>2026-07-13T08:09:16.000Z</time>
</trkpt>
<trkpt lat="56.141354" lon="8.175070">
<ele>4.483565</ele>
<time>2026-07-13T08:09:17.000Z</time>
</trkpt>
<trkpt lat="56.141293" lon="8.175043">
<ele>4.514073</ele>
<time>2026-07-13T08:09:18.000Z</time>
</trkpt>
<trkpt lat="56.141254" lon="8.175024">
<ele>4.533697</ele>
<time>2026-07-13T08:09:19.000Z</time>
</trkpt>
<trkpt lat="56.141216" lon="8.175003">
<ele>4.553004</ele>
<time>2026-07-13T08:09:20.000Z</time>
</trkpt>
<trkpt lat="56.141186" lon="8.174986">
<ele>4.568280</ele>
<time>2026-07-13T08:09:21.000Z</time>
</trkpt>
<trkpt lat="56.141144" lon="8.174968">
<ele>4.589249</ele>
<time>2026-07-13T08:09:22.000Z</time>
</trkpt>
<trkpt lat="56.141109" lon="8.174950">
<ele>4.606928</ele>
<time>2026-07-13T08:09:23.000Z</time>
</trkpt>
<trkpt lat="56.141071" lon="8.174930">
<ele>4.626158</ele>
<time>2026-07-13T08:09:24.000Z</time>
</trkpt>
<trkpt lat="56.141041" lon="8.174914">
<ele>4.641355</ele>
<time>2026-07-13T08:09:25.000Z</time>
</trkpt>
<trkpt lat="56.141003" lon="8.174897">
<ele>4.660372</ele>
<time>2026-07-13T08:09:26.000Z</time>
</trkpt>
<trkpt lat="56.140976" lon="8.174884">
<ele>4.673947</ele>
<time>2026-07-13T08:09:27.000Z</time>
</trkpt>
<trkpt lat="56.140934" lon="8.174864">
<ele>4.695047</ele>
<time>2026-07-13T08:09:28.000Z</time>
</trkpt>
<trkpt lat="56.140900" lon="8.174851">
<ele>4.711928</ele>
<time>2026-07-13T08:09:29.000Z</time>
</trkpt>
<trkpt lat="56.140862" lon="8.174834">
<ele>4.730945</ele>
<time>2026-07-13T08:09:30.000Z</time>
</trkpt>
<trkpt lat="56.140827" lon="8.174814">
<ele>4.748781</ele>
<time>2026-07-13T08:09:31.000Z</time>
</trkpt>
<trkpt lat="56.140789" lon="8.174795">
<ele>4.767936</ele>
<time>2026-07-13T08:09:32.000Z</time>
</trkpt>
<trkpt lat="56.140751" lon="8.174778">
<ele>4.786954</ele>
<time>2026-07-13T08:09:33.000Z</time>
</trkpt>
<trkpt lat="56.140713" lon="8.174764">
<ele>4.805791</ele>
<time>2026-07-13T08:09:34.000Z</time>
</trkpt>
<trkpt lat="56.140678" lon="8.174749">
<ele>4.823264</ele>
<time>2026-07-13T08:09:35.000Z</time>
</trkpt>
<trkpt lat="56.140644" lon="8.174736">
<ele>4.840145</ele>
<time>2026-07-13T08:09:36.000Z</time>
</trkpt>
<trkpt lat="56.140598" lon="8.174713">
<ele>4.863333</ele>
<time>2026-07-13T08:09:37.000Z</time>
</trkpt>
<trkpt lat="56.140541" lon="8.174681">
<ele>4.902712</ele>
<time>2026-07-13T08:09:38.000Z</time>
</trkpt>
<trkpt lat="56.140503" lon="8.174660">
<ele>4.932606</ele>
<time>2026-07-13T08:09:39.000Z</time>
</trkpt>
<trkpt lat="56.140465" lon="8.174642">
<ele>4.962155</ele>
<time>2026-07-13T08:09:40.000Z</time>
</trkpt>
<trkpt lat="56.140423" lon="8.174624">
<ele>4.994621</ele>
<time>2026-07-13T08:09:41.000Z</time>
</trkpt>
<trkpt lat="56.140385" lon="8.174606">
<ele>5.024171</ele>
<time>2026-07-13T08:09:42.000Z</time>
</trkpt>
<trkpt lat="56.140347" lon="8.174586">
<ele>5.053944</ele>
<time>2026-07-13T08:09:43.000Z</time>
</trkpt>
<trkpt lat="56.140308" lon="8.174567">
<ele>5.084328</ele>
<time>2026-07-13T08:09:44.000Z</time>
</trkpt>
<trkpt lat="56.140266" lon="8.174548">
<ele>5.116894</ele>
<time>2026-07-13T08:09:45.000Z</time>
</trkpt>
<trkpt lat="56.140228" lon="8.174531">
<ele>5.146339</ele>
<time>2026-07-13T08:09:46.000Z</time>
</trkpt>
<trkpt lat="56.140194" lon="8.174514">
<ele>5.172876</ele>
<time>2026-07-13T08:09:47.000Z</time>
</trkpt>
<trkpt lat="56.140163" lon="8.174497">
<ele>5.197247</ele>
<time>2026-07-13T08:09:48.000Z</time>
</trkpt>
<trkpt lat="56.140125" lon="8.174474">
<ele>5.227399</ele>
<time>2026-07-13T08:09:49.000Z</time>
</trkpt>
<trkpt lat="56.140102" lon="8.174459">
<ele>5.245798</ele>
<time>2026-07-13T08:09:50.000Z</time>
</trkpt>
<trkpt lat="56.140060" lon="8.174431">
<ele>5.279484</ele>
<time>2026-07-13T08:09:51.000Z</time>
</trkpt>
<trkpt lat="56.140026" lon="8.174403">
<ele>5.307610</ele>
<time>2026-07-13T08:09:52.000Z</time>
</trkpt>
<trkpt lat="56.139992" lon="8.174376">
<ele>5.335564</ele>
<time>2026-07-13T08:09:53.000Z</time>
</trkpt>
<trkpt lat="56.139950" lon="8.174341">
<ele>5.370380</ele>
<time>2026-07-13T08:09:54.000Z</time>
</trkpt>
<trkpt lat="56.139912" lon="8.174310">
<ele>5.401764</ele>
<time>2026-07-13T08:09:55.000Z</time>
</trkpt>
<trkpt lat="56.139877" lon="8.174274">
<ele>5.432094</ele>
<time>2026-07-13T08:09:56.000Z</time>
</trkpt>
<trkpt lat="56.139839" lon="8.174237">
<ele>5.464598</ele>
<time>2026-07-13T08:09:57.000Z</time>
</trkpt>
<trkpt lat="56.139809" lon="8.174201">
<ele>5.491731</ele>
<time>2026-07-13T08:09:58.000Z</time>
</trkpt>
<trkpt lat="56.139763" lon="8.174159">
<ele>5.530535</ele>
<time>2026-07-13T08:09:59.000Z</time>
</trkpt>
<trkpt lat="56.139729" lon="8.174123">
<ele>5.560215</ele>
<time>2026-07-13T08:10:00.000Z</time>
</trkpt>
<trkpt lat="56.139698" lon="8.174085">
<ele>5.588440</ele>
<time>2026-07-13T08:10:01.000Z</time>
</trkpt>
<trkpt lat="56.139664" lon="8.174035">
<ele>5.621489</ele>
<time>2026-07-13T08:10:02.000Z</time>
</trkpt>
<trkpt lat="56.139614" lon="8.173965">
<ele>5.669166</ele>
<time>2026-07-13T08:10:03.000Z</time>
</trkpt>
<trkpt lat="56.139564" lon="8.173894">
<ele>5.717103</ele>
<time>2026-07-13T08:10:04.000Z</time>
</trkpt>
<trkpt lat="56.139530" lon="8.173845">
<ele>5.749888</ele>
<time>2026-07-13T08:10:05.000Z</time>
</trkpt>
<trkpt lat="56.139496" lon="8.173799">
<ele>5.781900</ele>
<time>2026-07-13T08:10:06.000Z</time>
</trkpt>
<trkpt lat="56.139458" lon="8.173748">
<ele>5.817576</ele>
<time>2026-07-13T08:10:07.000Z</time>
</trkpt>
<trkpt lat="56.139423" lon="8.173705">
<ele>5.849466</ele>
<time>2026-07-13T08:10:08.000Z</time>
</trkpt>
<trkpt lat="56.139393" lon="8.173663">
<ele>5.878073</ele>
<time>2026-07-13T08:10:09.000Z</time>
</trkpt>
<trkpt lat="56.139362" lon="8.173618">
<ele>5.908050</ele>
<time>2026-07-13T08:10:10.000Z</time>
</trkpt>
<trkpt lat="56.139324" lon="8.173572">
<ele>5.942512</ele>
<time>2026-07-13T08:10:11.000Z</time>
</trkpt>
<trkpt lat="56.139294" lon="8.173530">
<ele>5.971118</ele>
<time>2026-07-13T08:10:12.000Z</time>
</trkpt>
<trkpt lat="56.139263" lon="8.173489">
<ele>6.000071</ele>
<time>2026-07-13T08:10:13.000Z</time>
</trkpt>
<trkpt lat="56.139233" lon="8.173450">
<ele>6.027922</ele>
<time>2026-07-13T08:10:14.000Z</time>
</trkpt>
<trkpt lat="56.139198" lon="8.173410">
<ele>6.059120</ele>
<time>2026-07-13T08:10:15.000Z</time>
</trkpt>
<trkpt lat="56.139168" lon="8.173373">
<ele>6.086488</ele>
<time>2026-07-13T08:10:16.000Z</time>
</trkpt>
<trkpt lat="56.139137" lon="8.173326">
<ele>6.116999</ele>
<time>2026-07-13T08:10:17.000Z</time>
</trkpt>
<trkpt lat="56.139099" lon="8.173279">
<ele>6.151697</ele>
<time>2026-07-13T08:10:18.000Z</time>
</trkpt>
<trkpt lat="56.139069" lon="8.173236">
<ele>6.180563</ele>
<time>2026-07-13T08:10:19.000Z</time>
</trkpt>
<trkpt lat="56.139030" lon="8.173193">
<ele>6.214977</ele>
<time>2026-07-13T08:10:20.000Z</time>
</trkpt>
<trkpt lat="56.138992" lon="8.173148">
<ele>6.229177</ele>
<time>2026-07-13T08:10:21.000Z</time>
</trkpt>
<trkpt lat="56.138954" lon="8.173103">
<ele>6.234190</ele>
<time>2026-07-13T08:10:22.000Z</time>
</trkpt>
<trkpt lat="56.138912" lon="8.173053">
<ele>6.239739</ele>
<time>2026-07-13T08:10:23.000Z</time>
</trkpt>
<trkpt lat="56.138874" lon="8.173013">
<ele>6.244590</ele>
<time>2026-07-13T08:10:24.000Z</time>
</trkpt>
<trkpt lat="56.138840" lon="8.172973">
<ele>6.249066</ele>
<time>2026-07-13T08:10:25.000Z</time>
</trkpt>
<trkpt lat="56.138798" lon="8.172927">
<ele>6.254483</ele>
<time>2026-07-13T08:10:26.000Z</time>
</trkpt>
<trkpt lat="56.138756" lon="8.172883">
<ele>6.259838</ele>
<time>2026-07-13T08:10:27.000Z</time>
</trkpt>
<trkpt lat="56.138721" lon="8.172846">
<ele>6.264310</ele>
<time>2026-07-13T08:10:28.000Z</time>
</trkpt>
<trkpt lat="56.138683" lon="8.172801">
<ele>6.269323</ele>
<time>2026-07-13T08:10:29.000Z</time>
</trkpt>
<trkpt lat="56.138619" lon="8.172730">
<ele>6.277607</ele>
<time>2026-07-13T08:10:30.000Z</time>
</trkpt>
<trkpt lat="56.138584" lon="8.172688">
<ele>6.282243</ele>
<time>2026-07-13T08:10:31.000Z</time>
</trkpt>
<trkpt lat="56.138542" lon="8.172643">
<ele>6.287629</ele>
<time>2026-07-13T08:10:32.000Z</time>
</trkpt>
<trkpt lat="56.138508" lon="8.172604">
<ele>6.292071</ele>
<time>2026-07-13T08:10:33.000Z</time>
</trkpt>
<trkpt lat="56.138473" lon="8.172563">
<ele>6.296673</ele>
<time>2026-07-13T08:10:34.000Z</time>
</trkpt>
<trkpt lat="56.138439" lon="8.172510">
<ele>6.301632</ele>
<time>2026-07-13T08:10:35.000Z</time>
</trkpt>
<trkpt lat="56.138401" lon="8.172452">
<ele>6.307124</ele>
<time>2026-07-13T08:10:36.000Z</time>
</trkpt>
<trkpt lat="56.138374" lon="8.172393">
<ele>6.311808</ele>
<time>2026-07-13T08:10:37.000Z</time>
</trkpt>
<trkpt lat="56.138351" lon="8.172341">
<ele>6.315881</ele>
<time>2026-07-13T08:10:38.000Z</time>
</trkpt>
<trkpt lat="56.138325" lon="8.172280">
<ele>6.320593</ele>
<time>2026-07-13T08:10:39.000Z</time>
</trkpt>
<trkpt lat="56.138294" lon="8.172231">
<ele>6.325141</ele>
<time>2026-07-13T08:10:40.000Z</time>
</trkpt>
<trkpt lat="56.138271" lon="8.172175">
<ele>6.329409</ele>
<time>2026-07-13T08:10:41.000Z</time>
</trkpt>
<trkpt lat="56.138252" lon="8.172121">
<ele>6.333327</ele>
<time>2026-07-13T08:10:42.000Z</time>
</trkpt>
<trkpt lat="56.138229" lon="8.172060">
<ele>6.337846</ele>
<time>2026-07-13T08:10:43.000Z</time>
</trkpt>
<trkpt lat="56.138206" lon="8.172010">
<ele>6.341824</ele>
<time>2026-07-13T08:10:44.000Z</time>
</trkpt>
<trkpt lat="56.138180" lon="8.171951">
<ele>6.346438</ele>
<time>2026-07-13T08:10:45.000Z</time>
</trkpt>
<trkpt lat="56.138157" lon="8.171900">
<ele>6.350464</ele>
<time>2026-07-13T08:10:46.000Z</time>
</trkpt>
<trkpt lat="56.138123" lon="8.171847">
<ele>6.355422</ele>
<time>2026-07-13T08:10:47.000Z</time>
</trkpt>
<trkpt lat="56.138092" lon="8.171818">
<ele>6.359271</ele>
<time>2026-07-13T08:10:48.000Z</time>
</trkpt>
<trkpt lat="56.138054" lon="8.171782">
<ele>6.364002</ele>
<time>2026-07-13T08:10:49.000Z</time>
</trkpt>
<trkpt lat="56.138020" lon="8.171750">
<ele>6.368230</ele>
<time>2026-07-13T08:10:50.000Z</time>
</trkpt>
<trkpt lat="56.137981" lon="8.171705">
<ele>6.373334</ele>
<time>2026-07-13T08:10:51.000Z</time>
</trkpt>
<trkpt lat="56.137951" lon="8.171671">
<ele>6.377241</ele>
<time>2026-07-13T08:10:52.000Z</time>
</trkpt>
<trkpt lat="56.137913" lon="8.171630">
<ele>6.382123</ele>
<time>2026-07-13T08:10:53.000Z</time>
</trkpt>
<trkpt lat="56.137882" lon="8.171601">
<ele>6.385972</ele>
<time>2026-07-13T08:10:54.000Z</time>
</trkpt>
<trkpt lat="56.137848" lon="8.171575">
<ele>6.390041</ele>
<time>2026-07-13T08:10:55.000Z</time>
</trkpt>
<trkpt lat="56.137810" lon="8.171550">
<ele>6.394498</ele>
<time>2026-07-13T08:10:56.000Z</time>
</trkpt>
<trkpt lat="56.137775" lon="8.171533">
<ele>6.398490</ele>
<time>2026-07-13T08:10:57.000Z</time>
</trkpt>
<trkpt lat="56.137737" lon="8.171518">
<ele>6.402774</ele>
<time>2026-07-13T08:10:58.000Z</time>
</trkpt>
<trkpt lat="56.137699" lon="8.171508">
<ele>6.407002</ele>
<time>2026-07-13T08:10:59.000Z</time>
</trkpt>
<trkpt lat="56.137657" lon="8.171502">
<ele>6.411642</ele>
<time>2026-07-13T08:11:00.000Z</time>
</trkpt>
<trkpt lat="56.137615" lon="8.171494">
<ele>6.416292</ele>
<time>2026-07-13T08:11:01.000Z</time>
</trkpt>
<trkpt lat="56.137569" lon="8.171485">
<ele>6.421387</ele>
<time>2026-07-13T08:11:02.000Z</time>
</trkpt>
<trkpt lat="56.137524" lon="8.171476">
<ele>6.424910</ele>
<time>2026-07-13T08:11:03.000Z</time>
</trkpt>
<trkpt lat="56.137478" lon="8.171463">
<ele>6.427145</ele>
<time>2026-07-13T08:11:04.000Z</time>
</trkpt>
<trkpt lat="56.137440" lon="8.171444">
<ele>6.429039</ele>
<time>2026-07-13T08:11:05.000Z</time>
</trkpt>
<trkpt lat="56.137386" lon="8.171410">
<ele>6.431786</ele>
<time>2026-07-13T08:11:06.000Z</time>
</trkpt>
<trkpt lat="56.137321" lon="8.171359">
<ele>6.435192</ele>
<time>2026-07-13T08:11:07.000Z</time>
</trkpt>
<trkpt lat="56.137279" lon="8.171323">
<ele>6.437426</ele>
<time>2026-07-13T08:11:08.000Z</time>
</trkpt>
<trkpt lat="56.137245" lon="8.171291">
<ele>6.439269</ele>
<time>2026-07-13T08:11:09.000Z</time>
</trkpt>
<trkpt lat="56.137203" lon="8.171252">
<ele>6.441539</ele>
<time>2026-07-13T08:11:10.000Z</time>
</trkpt>
<trkpt lat="56.137169" lon="8.171220">
<ele>6.443382</ele>
<time>2026-07-13T08:11:11.000Z</time>
</trkpt>
<trkpt lat="56.137131" lon="8.171186">
<ele>6.445420</ele>
<time>2026-07-13T08:11:12.000Z</time>
</trkpt>
<trkpt lat="56.137096" lon="8.171153">
<ele>6.447318</ele>
<time>2026-07-13T08:11:13.000Z</time>
</trkpt>
<trkpt lat="56.137058" lon="8.171118">
<ele>6.449369</ele>
<time>2026-07-13T08:11:14.000Z</time>
</trkpt>
<trkpt lat="56.137016" lon="8.171082">
<ele>6.451603</ele>
<time>2026-07-13T08:11:15.000Z</time>
</trkpt>
<trkpt lat="56.136978" lon="8.171047">
<ele>6.453653</ele>
<time>2026-07-13T08:11:16.000Z</time>
</trkpt>
<trkpt lat="56.136936" lon="8.171005">
<ele>6.455962</ele>
<time>2026-07-13T08:11:17.000Z</time>
</trkpt>
<trkpt lat="56.136898" lon="8.170969">
<ele>6.458024</ele>
<time>2026-07-13T08:11:18.000Z</time>
</trkpt>
<trkpt lat="56.136860" lon="8.170936">
<ele>6.460051</ele>
<time>2026-07-13T08:11:19.000Z</time>
</trkpt>
<trkpt lat="56.136822" lon="8.170900">
<ele>6.462114</ele>
<time>2026-07-13T08:11:20.000Z</time>
</trkpt>
<trkpt lat="56.136780" lon="8.170866">
<ele>6.464325</ele>
<time>2026-07-13T08:11:21.000Z</time>
</trkpt>
<trkpt lat="56.136742" lon="8.170828">
<ele>6.466414</ele>
<time>2026-07-13T08:11:22.000Z</time>
</trkpt>
<trkpt lat="56.136703" lon="8.170789">
<ele>6.468557</ele>
<time>2026-07-13T08:11:23.000Z</time>
</trkpt>
<trkpt lat="56.136665" lon="8.170755">
<ele>6.470595</ele>
<time>2026-07-13T08:11:24.000Z</time>
</trkpt>
<trkpt lat="56.136620" lon="8.170720">
<ele>6.472950</ele>
<time>2026-07-13T08:11:25.000Z</time>
</trkpt>
<trkpt lat="56.136585" lon="8.170691">
<ele>6.474800</ele>
<time>2026-07-13T08:11:26.000Z</time>
</trkpt>
<trkpt lat="56.136551" lon="8.170659">
<ele>6.476643</ele>
<time>2026-07-13T08:11:27.000Z</time>
</trkpt>
<trkpt lat="56.136494" lon="8.170608">
<ele>6.479701</ele>
<time>2026-07-13T08:11:28.000Z</time>
</trkpt>
<trkpt lat="56.136436" lon="8.170555">
<ele>6.482825</ele>
<time>2026-07-13T08:11:29.000Z</time>
</trkpt>
<trkpt lat="56.136395" lon="8.170517">
<ele>6.485040</ele>
<time>2026-07-13T08:11:30.000Z</time>
</trkpt>
<trkpt lat="56.136360" lon="8.170482">
<ele>6.486964</ele>
<time>2026-07-13T08:11:31.000Z</time>
</trkpt>
<trkpt lat="56.136322" lon="8.170446">
<ele>6.489027</ele>
<time>2026-07-13T08:11:32.000Z</time>
</trkpt>
<trkpt lat="56.136280" lon="8.170410">
<ele>6.491261</ele>
<time>2026-07-13T08:11:33.000Z</time>
</trkpt>
<trkpt lat="56.136242" lon="8.170378">
<ele>6.493276</ele>
<time>2026-07-13T08:11:34.000Z</time>
</trkpt>
<trkpt lat="56.136211" lon="8.170353">
<ele>6.494907</ele>
<time>2026-07-13T08:11:35.000Z</time>
</trkpt>
<trkpt lat="56.136173" lon="8.170322">
<ele>6.496911</ele>
<time>2026-07-13T08:11:36.000Z</time>
</trkpt>
<trkpt lat="56.136131" lon="8.170281">
<ele>6.499206</ele>
<time>2026-07-13T08:11:37.000Z</time>
</trkpt>
<trkpt lat="56.136101" lon="8.170254">
<ele>6.500818</ele>
<time>2026-07-13T08:11:38.000Z</time>
</trkpt>
<trkpt lat="56.136059" lon="8.170213">
<ele>6.503113</ele>
<time>2026-07-13T08:11:39.000Z</time>
</trkpt>
<trkpt lat="56.136024" lon="8.170185">
<ele>6.504952</ele>
<time>2026-07-13T08:11:40.000Z</time>
</trkpt>
<trkpt lat="56.135986" lon="8.170154">
<ele>6.506956</ele>
<time>2026-07-13T08:11:41.000Z</time>
</trkpt>
<trkpt lat="56.135956" lon="8.170127">
<ele>6.508567</ele>
<time>2026-07-13T08:11:42.000Z</time>
</trkpt>
<trkpt lat="56.135918" lon="8.170094">
<ele>6.509488</ele>
<time>2026-07-13T08:11:43.000Z</time>
</trkpt>
<trkpt lat="56.135880" lon="8.170062">
<ele>6.506767</ele>
<time>2026-07-13T08:11:44.000Z</time>
</trkpt>
<trkpt lat="56.135841" lon="8.170029">
<ele>6.503971</ele>
<time>2026-07-13T08:11:45.000Z</time>
</trkpt>
<trkpt lat="56.135799" lon="8.169992">
<ele>6.500938</ele>
<time>2026-07-13T08:11:46.000Z</time>
</trkpt>
<trkpt lat="56.135765" lon="8.169959">
<ele>6.498432</ele>
<time>2026-07-13T08:11:47.000Z</time>
</trkpt>
<trkpt lat="56.135731" lon="8.169930">
<ele>6.495991</ele>
<time>2026-07-13T08:11:48.000Z</time>
</trkpt>
<trkpt lat="56.135696" lon="8.169901">
<ele>6.493492</ele>
<time>2026-07-13T08:11:49.000Z</time>
</trkpt>
<trkpt lat="56.135662" lon="8.169873">
<ele>6.491067</ele>
<time>2026-07-13T08:11:50.000Z</time>
</trkpt>
<trkpt lat="56.135632" lon="8.169850">
<ele>6.488952</ele>
<time>2026-07-13T08:11:51.000Z</time>
</trkpt>
<trkpt lat="56.135601" lon="8.169815">
<ele>6.486578</ele>
<time>2026-07-13T08:11:52.000Z</time>
</trkpt>
<trkpt lat="56.135578" lon="8.169768">
<ele>6.484318</ele>
<time>2026-07-13T08:11:53.000Z</time>
</trkpt>
<trkpt lat="56.135578" lon="8.169718">
<ele>6.482512</ele>
<time>2026-07-13T08:11:54.000Z</time>
</trkpt>
<trkpt lat="56.135586" lon="8.169661">
<ele>6.480388</ele>
<time>2026-07-13T08:11:55.000Z</time>
</trkpt>
<trkpt lat="56.135605" lon="8.169605">
<ele>6.478020</ele>
<time>2026-07-13T08:11:56.000Z</time>
</trkpt>
<trkpt lat="56.135624" lon="8.169550">
<ele>6.475682</ele>
<time>2026-07-13T08:11:57.000Z</time>
</trkpt>
<trkpt lat="56.135643" lon="8.169485">
<ele>6.473030</ele>
<time>2026-07-13T08:11:58.000Z</time>
</trkpt>
<trkpt lat="56.135662" lon="8.169412">
<ele>6.470120</ele>
<time>2026-07-13T08:11:59.000Z</time>
</trkpt>
<trkpt lat="56.135689" lon="8.169332">
<ele>6.466741</ele>
<time>2026-07-13T08:12:00.000Z</time>
</trkpt>
<trkpt lat="56.135704" lon="8.169263">
<ele>6.464065</ele>
<time>2026-07-13T08:12:01.000Z</time>
</trkpt>
<trkpt lat="56.135727" lon="8.169188">
<ele>6.460973</ele>
<time>2026-07-13T08:12:02.000Z</time>
</trkpt>
<trkpt lat="56.135746" lon="8.169111">
<ele>6.457930</ele>
<time>2026-07-13T08:12:03.000Z</time>
</trkpt>
<trkpt lat="56.135769" lon="8.169014">
<ele>6.454122</ele>
<time>2026-07-13T08:12:04.000Z</time>
</trkpt>
<trkpt lat="56.135784" lon="8.168946">
<ele>6.451480</ele>
<time>2026-07-13T08:12:05.000Z</time>
</trkpt>
<trkpt lat="56.135807" lon="8.168866">
<ele>6.448228</ele>
<time>2026-07-13T08:12:06.000Z</time>
</trkpt>
<trkpt lat="56.135826" lon="8.168789">
<ele>6.445186</ele>
<time>2026-07-13T08:12:07.000Z</time>
</trkpt>
<trkpt lat="56.135845" lon="8.168709">
<ele>6.442044</ele>
<time>2026-07-13T08:12:08.000Z</time>
</trkpt>
<trkpt lat="56.135864" lon="8.168626">
<ele>6.438803</ele>
<time>2026-07-13T08:12:09.000Z</time>
</trkpt>
<trkpt lat="56.135895" lon="8.168515">
<ele>6.434318</ele>
<time>2026-07-13T08:12:10.000Z</time>
</trkpt>
<trkpt lat="56.135929" lon="8.168365">
<ele>6.428468</ele>
<time>2026-07-13T08:12:11.000Z</time>
</trkpt>
<trkpt lat="56.135952" lon="8.168270">
<ele>6.424726</ele>
<time>2026-07-13T08:12:12.000Z</time>
</trkpt>
<trkpt lat="56.135975" lon="8.168179">
<ele>6.421116</ele>
<time>2026-07-13T08:12:13.000Z</time>
</trkpt>
<trkpt lat="56.136002" lon="8.168090">
<ele>6.417455</ele>
<time>2026-07-13T08:12:14.000Z</time>
</trkpt>
<trkpt lat="56.136021" lon="8.168006">
<ele>6.414180</ele>
<time>2026-07-13T08:12:15.000Z</time>
</trkpt>
<trkpt lat="56.136047" lon="8.167906">
<ele>6.410194</ele>
<time>2026-07-13T08:12:16.000Z</time>
</trkpt>
<trkpt lat="56.136066" lon="8.167829">
<ele>6.407152</ele>
<time>2026-07-13T08:12:17.000Z</time>
</trkpt>
<trkpt lat="56.136089" lon="8.167732">
<ele>6.403344</ele>
<time>2026-07-13T08:12:18.000Z</time>
</trkpt>
<trkpt lat="56.136108" lon="8.167657">
<ele>6.400367</ele>
<time>2026-07-13T08:12:19.000Z</time>
</trkpt>
<trkpt lat="56.136131" lon="8.167569">
<ele>6.396856</ele>
<time>2026-07-13T08:12:20.000Z</time>
</trkpt>
<trkpt lat="56.136154" lon="8.167481">
<ele>6.393699</ele>
<time>2026-07-13T08:12:21.000Z</time>
</trkpt>
<trkpt lat="56.136177" lon="8.167391">
<ele>6.397507</ele>
<time>2026-07-13T08:12:22.000Z</time>
</trkpt>
<trkpt lat="56.136204" lon="8.167304">
<ele>6.401337</ele>
<time>2026-07-13T08:12:23.000Z</time>
</trkpt>
<trkpt lat="56.136227" lon="8.167215">
<ele>6.405110</ele>
<time>2026-07-13T08:12:24.000Z</time>
</trkpt>
<trkpt lat="56.136246" lon="8.167121">
<ele>6.408955</ele>
<time>2026-07-13T08:12:25.000Z</time>
</trkpt>
<trkpt lat="56.136269" lon="8.167026">
<ele>6.412938</ele>
<time>2026-07-13T08:12:26.000Z</time>
</trkpt>
<trkpt lat="56.136292" lon="8.166940">
<ele>6.416607</ele>
<time>2026-07-13T08:12:27.000Z</time>
</trkpt>
<trkpt lat="56.136314" lon="8.166854">
<ele>6.420246</ele>
<time>2026-07-13T08:12:28.000Z</time>
</trkpt>
<trkpt lat="56.136345" lon="8.166732">
<ele>6.425403</ele>
<time>2026-07-13T08:12:29.000Z</time>
</trkpt>
<trkpt lat="56.136379" lon="8.166589">
<ele>6.431382</ele>
<time>2026-07-13T08:12:30.000Z</time>
</trkpt>
<trkpt lat="56.136402" lon="8.166494">
<ele>6.435365</ele>
<time>2026-07-13T08:12:31.000Z</time>
</trkpt>
<trkpt lat="56.136425" lon="8.166421">
<ele>6.438591</ele>
<time>2026-07-13T08:12:32.000Z</time>
</trkpt>
<trkpt lat="56.136448" lon="8.166339">
<ele>6.442121</ele>
<time>2026-07-13T08:12:33.000Z</time>
</trkpt>
<trkpt lat="56.136467" lon="8.166250">
<ele>6.445786</ele>
<time>2026-07-13T08:12:34.000Z</time>
</trkpt>
<trkpt lat="56.136490" lon="8.166158">
<ele>6.449664</ele>
<time>2026-07-13T08:12:35.000Z</time>
</trkpt>
<trkpt lat="56.136513" lon="8.166068">
<ele>6.453472</ele>
<time>2026-07-13T08:12:36.000Z</time>
</trkpt>
<trkpt lat="56.136532" lon="8.165982">
<ele>6.457030</ele>
<time>2026-07-13T08:12:37.000Z</time>
</trkpt>
<trkpt lat="56.136555" lon="8.165895">
<ele>6.460733</ele>
<time>2026-07-13T08:12:38.000Z</time>
</trkpt>
<trkpt lat="56.136589" lon="8.165773">
<ele>6.465979</ele>
<time>2026-07-13T08:12:39.000Z</time>
</trkpt>
<trkpt lat="56.136627" lon="8.165622">
<ele>6.472351</ele>
<time>2026-07-13T08:12:40.000Z</time>
</trkpt>
<trkpt lat="56.136650" lon="8.165531">
<ele>6.476194</ele>
<time>2026-07-13T08:12:41.000Z</time>
</trkpt>
<trkpt lat="56.136669" lon="8.165445">
<ele>6.479751</ele>
<time>2026-07-13T08:12:42.000Z</time>
</trkpt>
<trkpt lat="56.136692" lon="8.165349">
<ele>6.483770</ele>
<time>2026-07-13T08:12:43.000Z</time>
</trkpt>
<trkpt lat="56.136715" lon="8.165259">
<ele>6.487578</ele>
<time>2026-07-13T08:12:44.000Z</time>
</trkpt>
<trkpt lat="56.136738" lon="8.165165">
<ele>6.491526</ele>
<time>2026-07-13T08:12:45.000Z</time>
</trkpt>
<trkpt lat="56.136757" lon="8.165084">
<ele>6.494906</ele>
<time>2026-07-13T08:12:46.000Z</time>
</trkpt>
<trkpt lat="56.136780" lon="8.164991">
<ele>6.498819</ele>
<time>2026-07-13T08:12:47.000Z</time>
</trkpt>
<trkpt lat="56.136803" lon="8.164880">
<ele>6.503373</ele>
<time>2026-07-13T08:12:48.000Z</time>
</trkpt>
<trkpt lat="56.136829" lon="8.164784">
<ele>6.507478</ele>
<time>2026-07-13T08:12:49.000Z</time>
</trkpt>
<trkpt lat="56.136852" lon="8.164700">
<ele>6.511077</ele>
<time>2026-07-13T08:12:50.000Z</time>
</trkpt>
<trkpt lat="56.136875" lon="8.164610">
<ele>6.514885</ele>
<time>2026-07-13T08:12:51.000Z</time>
</trkpt>
<trkpt lat="56.136898" lon="8.164517">
<ele>6.508137</ele>
<time>2026-07-13T08:12:52.000Z</time>
</trkpt>
<trkpt lat="56.136921" lon="8.164434">
<ele>6.478505</ele>
<time>2026-07-13T08:12:53.000Z</time>
</trkpt>
<trkpt lat="56.136944" lon="8.164339">
<ele>6.445394</ele>
<time>2026-07-13T08:12:54.000Z</time>
</trkpt>
<trkpt lat="56.136967" lon="8.164251">
<ele>6.414323</ele>
<time>2026-07-13T08:12:55.000Z</time>
</trkpt>
<trkpt lat="56.136990" lon="8.164163">
<ele>6.383252</ele>
<time>2026-07-13T08:12:56.000Z</time>
</trkpt>
<trkpt lat="56.137016" lon="8.164066">
<ele>6.348843</ele>
<time>2026-07-13T08:12:57.000Z</time>
</trkpt>
<trkpt lat="56.137039" lon="8.163978">
<ele>6.317772</ele>
<time>2026-07-13T08:12:58.000Z</time>
</trkpt>
<trkpt lat="56.137066" lon="8.163859">
<ele>6.276700</ele>
<time>2026-07-13T08:12:59.000Z</time>
</trkpt>
<trkpt lat="56.137112" lon="8.163698">
<ele>6.218863</ele>
<time>2026-07-13T08:13:00.000Z</time>
</trkpt>
<trkpt lat="56.137138" lon="8.163597">
<ele>6.183298</ele>
<time>2026-07-13T08:13:01.000Z</time>
</trkpt>
<trkpt lat="56.137165" lon="8.163503">
<ele>6.149492</ele>
<time>2026-07-13T08:13:02.000Z</time>
</trkpt>
<trkpt lat="56.137188" lon="8.163416">
<ele>6.118710</ele>
<time>2026-07-13T08:13:03.000Z</time>
</trkpt>
<trkpt lat="56.137211" lon="8.163320">
<ele>6.085306</ele>
<time>2026-07-13T08:13:04.000Z</time>
</trkpt>
<trkpt lat="56.137234" lon="8.163225">
<ele>6.052196</ele>
<time>2026-07-13T08:13:05.000Z</time>
</trkpt>
<trkpt lat="56.137257" lon="8.163127">
<ele>6.018204</ele>
<time>2026-07-13T08:13:06.000Z</time>
</trkpt>
<trkpt lat="56.137287" lon="8.163016">
<ele>5.978767</ele>
<time>2026-07-13T08:13:07.000Z</time>
</trkpt>
<trkpt lat="56.137306" lon="8.162935">
<ele>5.950674</ele>
<time>2026-07-13T08:13:08.000Z</time>
</trkpt>
<trkpt lat="56.137333" lon="8.162838">
<ele>5.916013</ele>
<time>2026-07-13T08:13:09.000Z</time>
</trkpt>
<trkpt lat="56.137356" lon="8.162730">
<ele>5.879055</ele>
<time>2026-07-13T08:13:10.000Z</time>
</trkpt>
<trkpt lat="56.137375" lon="8.162648">
<ele>5.850666</ele>
<time>2026-07-13T08:13:11.000Z</time>
</trkpt>
<trkpt lat="56.137398" lon="8.162550">
<ele>5.816674</ele>
<time>2026-07-13T08:13:12.000Z</time>
</trkpt>
<trkpt lat="56.137421" lon="8.162474">
<ele>5.789028</ele>
<time>2026-07-13T08:13:13.000Z</time>
</trkpt>
<trkpt lat="56.137444" lon="8.162389">
<ele>5.758823</ele>
<time>2026-07-13T08:13:14.000Z</time>
</trkpt>
<trkpt lat="56.137470" lon="8.162295">
<ele>5.725276</ele>
<time>2026-07-13T08:13:15.000Z</time>
</trkpt>
<trkpt lat="56.137489" lon="8.162206">
<ele>5.694810</ele>
<time>2026-07-13T08:13:16.000Z</time>
</trkpt>
<trkpt lat="56.137520" lon="8.162080">
<ele>5.650781</ele>
<time>2026-07-13T08:13:17.000Z</time>
</trkpt>
<trkpt lat="56.137562" lon="8.161913">
<ele>5.592213</ele>
<time>2026-07-13T08:13:18.000Z</time>
</trkpt>
<trkpt lat="56.137585" lon="8.161816">
<ele>5.558515</ele>
<time>2026-07-13T08:13:19.000Z</time>
</trkpt>
<trkpt lat="56.137611" lon="8.161716">
<ele>5.523241</ele>
<time>2026-07-13T08:13:20.000Z</time>
</trkpt>
<trkpt lat="56.137630" lon="8.161627">
<ele>5.492774</ele>
<time>2026-07-13T08:13:21.000Z</time>
</trkpt>
<trkpt lat="56.137657" lon="8.161531">
<ele>5.489565</ele>
<time>2026-07-13T08:13:22.000Z</time>
</trkpt>
<trkpt lat="56.137680" lon="8.161432">
<ele>5.494281</ele>
<time>2026-07-13T08:13:23.000Z</time>
</trkpt>
<trkpt lat="56.137699" lon="8.161341">
<ele>5.498555</ele>
<time>2026-07-13T08:13:24.000Z</time>
</trkpt>
<trkpt lat="56.137726" lon="8.161248">
<ele>5.503166</ele>
<time>2026-07-13T08:13:25.000Z</time>
</trkpt>
<trkpt lat="56.137753" lon="8.161146">
<ele>5.508131</ele>
<time>2026-07-13T08:13:26.000Z</time>
</trkpt>
<trkpt lat="56.137772" lon="8.161063">
<ele>5.512077</ele>
<time>2026-07-13T08:13:27.000Z</time>
</trkpt>
<trkpt lat="56.137794" lon="8.160975">
<ele>5.516318</ele>
<time>2026-07-13T08:13:28.000Z</time>
</trkpt>
<trkpt lat="56.137817" lon="8.160884">
<ele>5.520711</ele>
<time>2026-07-13T08:13:29.000Z</time>
</trkpt>
<trkpt lat="56.137840" lon="8.160793">
<ele>5.525105</ele>
<time>2026-07-13T08:13:30.000Z</time>
</trkpt>
<trkpt lat="56.137863" lon="8.160694">
<ele>5.529821</ele>
<time>2026-07-13T08:13:31.000Z</time>
</trkpt>
<trkpt lat="56.137886" lon="8.160596">
<ele>5.534497</ele>
<time>2026-07-13T08:13:32.000Z</time>
</trkpt>
<trkpt lat="56.137909" lon="8.160501">
<ele>5.539052</ele>
<time>2026-07-13T08:13:33.000Z</time>
</trkpt>
<trkpt lat="56.137939" lon="8.160370">
<ele>5.545279</ele>
<time>2026-07-13T08:13:34.000Z</time>
</trkpt>
<trkpt lat="56.137978" lon="8.160222">
<ele>5.552478</ele>
<time>2026-07-13T08:13:35.000Z</time>
</trkpt>
<trkpt lat="56.138004" lon="8.160124">
<ele>5.557251</ele>
<time>2026-07-13T08:13:36.000Z</time>
</trkpt>
<trkpt lat="56.138031" lon="8.160032">
<ele>5.561823</ele>
<time>2026-07-13T08:13:37.000Z</time>
</trkpt>
<trkpt lat="56.138050" lon="8.159940">
<ele>5.566137</ele>
<time>2026-07-13T08:13:38.000Z</time>
</trkpt>
<trkpt lat="56.138077" lon="8.159850">
<ele>5.570631</ele>
<time>2026-07-13T08:13:39.000Z</time>
</trkpt>
<trkpt lat="56.138096" lon="8.159761">
<ele>5.574822</ele>
<time>2026-07-13T08:13:40.000Z</time>
</trkpt>
<trkpt lat="56.138119" lon="8.159671">
<ele>5.579176</ele>
<time>2026-07-13T08:13:41.000Z</time>
</trkpt>
<trkpt lat="56.138142" lon="8.159570">
<ele>5.583973</ele>
<time>2026-07-13T08:13:42.000Z</time>
</trkpt>
<trkpt lat="56.138165" lon="8.159477">
<ele>5.588447</ele>
<time>2026-07-13T08:13:43.000Z</time>
</trkpt>
<trkpt lat="56.138187" lon="8.159389">
<ele>5.592688</ele>
<time>2026-07-13T08:13:44.000Z</time>
</trkpt>
<trkpt lat="56.138210" lon="8.159293">
<ele>5.597283</ele>
<time>2026-07-13T08:13:45.000Z</time>
</trkpt>
<trkpt lat="56.138233" lon="8.159200">
<ele>5.601757</ele>
<time>2026-07-13T08:13:46.000Z</time>
</trkpt>
<trkpt lat="56.138260" lon="8.159099">
<ele>5.606683</ele>
<time>2026-07-13T08:13:47.000Z</time>
</trkpt>
<trkpt lat="56.138283" lon="8.158999">
<ele>5.611440</ele>
<time>2026-07-13T08:13:48.000Z</time>
</trkpt>
<trkpt lat="56.138306" lon="8.158915">
<ele>5.615555</ele>
<time>2026-07-13T08:13:49.000Z</time>
</trkpt>
<trkpt lat="56.138329" lon="8.158825">
<ele>5.619909</ele>
<time>2026-07-13T08:13:50.000Z</time>
</trkpt>
<trkpt lat="56.138363" lon="8.158690">
<ele>5.626423</ele>
<time>2026-07-13T08:13:51.000Z</time>
</trkpt>
<trkpt lat="56.138401" lon="8.158536">
<ele>5.686978</ele>
<time>2026-07-13T08:13:52.000Z</time>
</trkpt>
<trkpt lat="56.138428" lon="8.158430">
<ele>5.736799</ele>
<time>2026-07-13T08:13:53.000Z</time>
</trkpt>
<trkpt lat="56.138451" lon="8.158339">
<ele>5.779512</ele>
<time>2026-07-13T08:13:54.000Z</time>
</trkpt>
<trkpt lat="56.138470" lon="8.158247">
<ele>5.821453</ele>
<time>2026-07-13T08:13:55.000Z</time>
</trkpt>
<trkpt lat="56.138493" lon="8.158163">
<ele>5.861461</ele>
<time>2026-07-13T08:13:56.000Z</time>
</trkpt>
<trkpt lat="56.138515" lon="8.158071">
<ele>5.904255</ele>
<time>2026-07-13T08:13:57.000Z</time>
</trkpt>
<trkpt lat="56.138538" lon="8.157969">
<ele>5.951291</ele>
<time>2026-07-13T08:13:58.000Z</time>
</trkpt>
<trkpt lat="56.138565" lon="8.157881">
<ele>5.994233</ele>
<time>2026-07-13T08:13:59.000Z</time>
</trkpt>
<trkpt lat="56.138588" lon="8.157794">
<ele>6.035396</ele>
<time>2026-07-13T08:14:00.000Z</time>
</trkpt>
<trkpt lat="56.138607" lon="8.157701">
<ele>6.077737</ele>
<time>2026-07-13T08:14:01.000Z</time>
</trkpt>
<trkpt lat="56.138630" lon="8.157613">
<ele>6.119286</ele>
<time>2026-07-13T08:14:02.000Z</time>
</trkpt>
<trkpt lat="56.138653" lon="8.157523">
<ele>6.161611</ele>
<time>2026-07-13T08:14:03.000Z</time>
</trkpt>
<trkpt lat="56.138676" lon="8.157433">
<ele>6.203935</ele>
<time>2026-07-13T08:14:04.000Z</time>
</trkpt>
<trkpt lat="56.138699" lon="8.157342">
<ele>6.246649</ele>
<time>2026-07-13T08:14:05.000Z</time>
</trkpt>
<trkpt lat="56.138725" lon="8.157247">
<ele>6.291891</ele>
<time>2026-07-13T08:14:06.000Z</time>
</trkpt>
<trkpt lat="56.138748" lon="8.157150">
<ele>6.336953</ele>
<time>2026-07-13T08:14:07.000Z</time>
</trkpt>
<trkpt lat="56.138767" lon="8.157070">
<ele>6.374126</ele>
<time>2026-07-13T08:14:08.000Z</time>
</trkpt>
<trkpt lat="56.138790" lon="8.156984">
<ele>6.414903</ele>
<time>2026-07-13T08:14:09.000Z</time>
</trkpt>
<trkpt lat="56.138813" lon="8.156885">
<ele>6.460752</ele>
<time>2026-07-13T08:14:10.000Z</time>
</trkpt>
<trkpt lat="56.138836" lon="8.156800">
<ele>6.501144</ele>
<time>2026-07-13T08:14:11.000Z</time>
</trkpt>
<trkpt lat="56.138859" lon="8.156716">
<ele>6.541151</ele>
<time>2026-07-13T08:14:12.000Z</time>
</trkpt>
<trkpt lat="56.138878" lon="8.156632">
<ele>6.579903</ele>
<time>2026-07-13T08:14:13.000Z</time>
</trkpt>
<trkpt lat="56.138901" lon="8.156531">
<ele>6.626542</ele>
<time>2026-07-13T08:14:14.000Z</time>
</trkpt>
<trkpt lat="56.138939" lon="8.156372">
<ele>6.700496</ele>
<time>2026-07-13T08:14:15.000Z</time>
</trkpt>
<trkpt lat="56.138966" lon="8.156277">
<ele>6.746082</ele>
<time>2026-07-13T08:14:16.000Z</time>
</trkpt>
<trkpt lat="56.138985" lon="8.156189">
<ele>6.786423</ele>
<time>2026-07-13T08:14:17.000Z</time>
</trkpt>
<trkpt lat="56.139011" lon="8.156089">
<ele>6.833593</ele>
<time>2026-07-13T08:14:18.000Z</time>
</trkpt>
<trkpt lat="56.139030" lon="8.155996">
<ele>6.875934</ele>
<time>2026-07-13T08:14:19.000Z</time>
</trkpt>
<trkpt lat="56.139053" lon="8.155906">
<ele>6.918258</ele>
<time>2026-07-13T08:14:20.000Z</time>
</trkpt>
<trkpt lat="56.139080" lon="8.155813">
<ele>6.963084</ele>
<time>2026-07-13T08:14:21.000Z</time>
</trkpt>
<trkpt lat="56.139103" lon="8.155709">
<ele>7.005854</ele>
<time>2026-07-13T08:14:22.000Z</time>
</trkpt>
<trkpt lat="56.139126" lon="8.155626">
<ele>6.984948</ele>
<time>2026-07-13T08:14:23.000Z</time>
</trkpt>
<trkpt lat="56.139145" lon="8.155538">
<ele>6.963665</ele>
<time>2026-07-13T08:14:24.000Z</time>
</trkpt>
<trkpt lat="56.139175" lon="8.155427">
<ele>6.935842</ele>
<time>2026-07-13T08:14:25.000Z</time>
</trkpt>
<trkpt lat="56.139195" lon="8.155353">
<ele>6.917294</ele>
<time>2026-07-13T08:14:26.000Z</time>
</trkpt>
<trkpt lat="56.139217" lon="8.155274">
<ele>6.897376</ele>
<time>2026-07-13T08:14:27.000Z</time>
</trkpt>
<trkpt lat="56.139240" lon="8.155175">
<ele>6.873186</ele>
<time>2026-07-13T08:14:28.000Z</time>
</trkpt>
<trkpt lat="56.139267" lon="8.155079">
<ele>6.848934</ele>
<time>2026-07-13T08:14:29.000Z</time>
</trkpt>
<trkpt lat="56.139290" lon="8.154983">
<ele>6.825368</ele>
<time>2026-07-13T08:14:30.000Z</time>
</trkpt>
<trkpt lat="56.139309" lon="8.154900">
<ele>6.805131</ele>
<time>2026-07-13T08:14:31.000Z</time>
</trkpt>
<trkpt lat="56.139332" lon="8.154795">
<ele>6.779687</ele>
<time>2026-07-13T08:14:32.000Z</time>
</trkpt>
<trkpt lat="56.139378" lon="8.154632">
<ele>6.738481</ele>
<time>2026-07-13T08:14:33.000Z</time>
</trkpt>
<trkpt lat="56.139400" lon="8.154542">
<ele>6.716317</ele>
<time>2026-07-13T08:14:34.000Z</time>
</trkpt>
<trkpt lat="56.139423" lon="8.154446">
<ele>6.692750</ele>
<time>2026-07-13T08:14:35.000Z</time>
</trkpt>
<trkpt lat="56.139450" lon="8.154337">
<ele>6.665849</ele>
<time>2026-07-13T08:14:36.000Z</time>
</trkpt>
<trkpt lat="56.139473" lon="8.154252">
<ele>6.644539</ele>
<time>2026-07-13T08:14:37.000Z</time>
</trkpt>
<trkpt lat="56.139492" lon="8.154163">
<ele>6.623044</ele>
<time>2026-07-13T08:14:38.000Z</time>
</trkpt>
<trkpt lat="56.139515" lon="8.154057">
<ele>6.597391</ele>
<time>2026-07-13T08:14:39.000Z</time>
</trkpt>
<trkpt lat="56.139538" lon="8.153976">
<ele>6.576888</ele>
<time>2026-07-13T08:14:40.000Z</time>
</trkpt>
<trkpt lat="56.139561" lon="8.153883">
<ele>6.553942</ele>
<time>2026-07-13T08:14:41.000Z</time>
</trkpt>
<trkpt lat="56.139587" lon="8.153789">
<ele>6.530274</ele>
<time>2026-07-13T08:14:42.000Z</time>
</trkpt>
<trkpt lat="56.139614" lon="8.153688">
<ele>6.505011</ele>
<time>2026-07-13T08:14:43.000Z</time>
</trkpt>
<trkpt lat="56.139637" lon="8.153595">
<ele>6.482064</ele>
<time>2026-07-13T08:14:44.000Z</time>
</trkpt>
<trkpt lat="56.139660" lon="8.153498">
<ele>6.458290</ele>
<time>2026-07-13T08:14:45.000Z</time>
</trkpt>
<trkpt lat="56.139683" lon="8.153406">
<ele>6.435550</ele>
<time>2026-07-13T08:14:46.000Z</time>
</trkpt>
<trkpt lat="56.139706" lon="8.153316">
<ele>6.413220</ele>
<time>2026-07-13T08:14:47.000Z</time>
</trkpt>
<trkpt lat="56.139736" lon="8.153188">
<ele>6.381904</ele>
<time>2026-07-13T08:14:48.000Z</time>
</trkpt>
<trkpt lat="56.139774" lon="8.153019">
<ele>6.340805</ele>
<time>2026-07-13T08:14:49.000Z</time>
</trkpt>
<trkpt lat="56.139801" lon="8.152915">
<ele>6.314930</ele>
<time>2026-07-13T08:14:50.000Z</time>
</trkpt>
<trkpt lat="56.139828" lon="8.152813">
<ele>6.289463</ele>
<time>2026-07-13T08:14:51.000Z</time>
</trkpt>
<trkpt lat="56.139854" lon="8.152710">
<ele>6.266856</ele>
<time>2026-07-13T08:14:52.000Z</time>
</trkpt>
<trkpt lat="56.139881" lon="8.152603">
<ele>6.245272</ele>
<time>2026-07-13T08:14:53.000Z</time>
</trkpt>
<trkpt lat="56.139904" lon="8.152500">
<ele>6.224882</ele>
<time>2026-07-13T08:14:54.000Z</time>
</trkpt>
<trkpt lat="56.139931" lon="8.152402">
<ele>6.204794</ele>
<time>2026-07-13T08:14:55.000Z</time>
</trkpt>
<trkpt lat="56.139950" lon="8.152310">
<ele>6.186765</ele>
<time>2026-07-13T08:14:56.000Z</time>
</trkpt>
<trkpt lat="56.139980" lon="8.152192">
<ele>6.162932</ele>
<time>2026-07-13T08:14:57.000Z</time>
</trkpt>
<trkpt lat="56.139999" lon="8.152122">
<ele>6.148625</ele>
<time>2026-07-13T08:14:58.000Z</time>
</trkpt>
<trkpt lat="56.140026" lon="8.152010">
<ele>6.126201</ele>
<time>2026-07-13T08:14:59.000Z</time>
</trkpt>
<trkpt lat="56.140049" lon="8.151912">
<ele>6.106661</ele>
<time>2026-07-13T08:15:00.000Z</time>
</trkpt>
<trkpt lat="56.140076" lon="8.151811">
<ele>6.086077</ele>
<time>2026-07-13T08:15:01.000Z</time>
</trkpt>
<trkpt lat="56.140095" lon="8.151726">
<ele>6.069248</ele>
<time>2026-07-13T08:15:02.000Z</time>
</trkpt>
<trkpt lat="56.140118" lon="8.151633">
<ele>6.050552</ele>
<time>2026-07-13T08:15:03.000Z</time>
</trkpt>
<trkpt lat="56.140144" lon="8.151536">
<ele>6.030773</ele>
<time>2026-07-13T08:15:04.000Z</time>
</trkpt>
<trkpt lat="56.140171" lon="8.151434">
<ele>6.010023</ele>
<time>2026-07-13T08:15:05.000Z</time>
</trkpt>
<trkpt lat="56.140194" lon="8.151343">
<ele>5.991662</ele>
<time>2026-07-13T08:15:06.000Z</time>
</trkpt>
<trkpt lat="56.140224" lon="8.151227">
<ele>5.968163</ele>
<time>2026-07-13T08:15:07.000Z</time>
</trkpt>
<trkpt lat="56.140266" lon="8.151073">
<ele>5.936658</ele>
<time>2026-07-13T08:15:08.000Z</time>
</trkpt>
<trkpt lat="56.140293" lon="8.150977">
<ele>5.916898</ele>
<time>2026-07-13T08:15:09.000Z</time>
</trkpt>
<trkpt lat="56.140320" lon="8.150887">
<ele>5.898116</ele>
<time>2026-07-13T08:15:10.000Z</time>
</trkpt>
<trkpt lat="56.140347" lon="8.150797">
<ele>5.879334</ele>
<time>2026-07-13T08:15:11.000Z</time>
</trkpt>
<trkpt lat="56.140373" lon="8.150714">
<ele>5.861838</ele>
<time>2026-07-13T08:15:12.000Z</time>
</trkpt>
<trkpt lat="56.140404" lon="8.150618">
<ele>5.841449</ele>
<time>2026-07-13T08:15:13.000Z</time>
</trkpt>
<trkpt lat="56.140434" lon="8.150522">
<ele>5.821225</ele>
<time>2026-07-13T08:15:14.000Z</time>
</trkpt>
<trkpt lat="56.140461" lon="8.150442">
<ele>5.804038</ele>
<time>2026-07-13T08:15:15.000Z</time>
</trkpt>
<trkpt lat="56.140492" lon="8.150347">
<ele>5.783809</ele>
<time>2026-07-13T08:15:16.000Z</time>
</trkpt>
<trkpt lat="56.140514" lon="8.150258">
<ele>5.765918</ele>
<time>2026-07-13T08:15:17.000Z</time>
</trkpt>
<trkpt lat="56.140545" lon="8.150166">
<ele>5.746162</ele>
<time>2026-07-13T08:15:18.000Z</time>
</trkpt>
<trkpt lat="56.140575" lon="8.150082">
<ele>5.727829</ele>
<time>2026-07-13T08:15:19.000Z</time>
</trkpt>
<trkpt lat="56.140606" lon="8.149995">
<ele>5.708854</ele>
<time>2026-07-13T08:15:20.000Z</time>
</trkpt>
<trkpt lat="56.140633" lon="8.149917">
<ele>5.691981</ele>
<time>2026-07-13T08:15:21.000Z</time>
</trkpt>
<trkpt lat="56.140671" lon="8.149806">
<ele>5.692532</ele>
<time>2026-07-13T08:15:22.000Z</time>
</trkpt>
<trkpt lat="56.140724" lon="8.149656">
<ele>5.703411</ele>
<time>2026-07-13T08:15:23.000Z</time>
</trkpt>
<trkpt lat="56.140755" lon="8.149569">
<ele>5.709736</ele>
<time>2026-07-13T08:15:24.000Z</time>
</trkpt>
<trkpt lat="56.140785" lon="8.149481">
<ele>5.716055</ele>
<time>2026-07-13T08:15:25.000Z</time>
</trkpt>
<trkpt lat="56.140820" lon="8.149391">
<ele>5.722777</ele>
<time>2026-07-13T08:15:26.000Z</time>
</trkpt>
<trkpt lat="56.140854" lon="8.149304">
<ele>5.729286</ele>
<time>2026-07-13T08:15:27.000Z</time>
</trkpt>
<trkpt lat="56.140888" lon="8.149220">
<ele>5.735645</ele>
<time>2026-07-13T08:15:28.000Z</time>
</trkpt>
<trkpt lat="56.140919" lon="8.149138">
<ele>5.741715</ele>
<time>2026-07-13T08:15:29.000Z</time>
</trkpt>
<trkpt lat="56.140945" lon="8.149059">
<ele>5.747334</ele>
<time>2026-07-13T08:15:30.000Z</time>
</trkpt>
<trkpt lat="56.140980" lon="8.148963">
<ele>5.754361</ele>
<time>2026-07-13T08:15:31.000Z</time>
</trkpt>
<trkpt lat="56.141014" lon="8.148880">
<ele>5.760671</ele>
<time>2026-07-13T08:15:32.000Z</time>
</trkpt>
<trkpt lat="56.141037" lon="8.148808">
<ele>5.765754</ele>
<time>2026-07-13T08:15:33.000Z</time>
</trkpt>
<trkpt lat="56.141071" lon="8.148714">
<ele>5.772619</ele>
<time>2026-07-13T08:15:34.000Z</time>
</trkpt>
<trkpt lat="56.141109" lon="8.148618">
<ele>5.779831</ele>
<time>2026-07-13T08:15:35.000Z</time>
</trkpt>
<trkpt lat="56.141132" lon="8.148550">
<ele>5.784704</ele>
<time>2026-07-13T08:15:36.000Z</time>
</trkpt>
<trkpt lat="56.141159" lon="8.148478">
<ele>5.790019</ele>
<time>2026-07-13T08:15:37.000Z</time>
</trkpt>
<trkpt lat="56.141190" lon="8.148395">
<ele>5.796139</ele>
<time>2026-07-13T08:15:38.000Z</time>
</trkpt>
<trkpt lat="56.141239" lon="8.148273">
<ele>5.805351</ele>
<time>2026-07-13T08:15:39.000Z</time>
</trkpt>
<trkpt lat="56.141293" lon="8.148139">
<ele>5.815480</ele>
<time>2026-07-13T08:15:40.000Z</time>
</trkpt>
<trkpt lat="56.141331" lon="8.148044">
<ele>5.822643</ele>
<time>2026-07-13T08:15:41.000Z</time>
</trkpt>
<trkpt lat="56.141365" lon="8.147955">
<ele>5.829252</ele>
<time>2026-07-13T08:15:42.000Z</time>
</trkpt>
<trkpt lat="56.141396" lon="8.147881">
<ele>5.834923</ele>
<time>2026-07-13T08:15:43.000Z</time>
</trkpt>
<trkpt lat="56.141430" lon="8.147783">
<ele>5.841994</ele>
<time>2026-07-13T08:15:44.000Z</time>
</trkpt>
<trkpt lat="56.141464" lon="8.147694">
<ele>5.848603</ele>
<time>2026-07-13T08:15:45.000Z</time>
</trkpt>
<trkpt lat="56.141487" lon="8.147621">
<ele>5.853740</ele>
<time>2026-07-13T08:15:46.000Z</time>
</trkpt>
<trkpt lat="56.141521" lon="8.147530">
<ele>5.860450</ele>
<time>2026-07-13T08:15:47.000Z</time>
</trkpt>
<trkpt lat="56.141548" lon="8.147455">
<ele>5.865920</ele>
<time>2026-07-13T08:15:48.000Z</time>
</trkpt>
<trkpt lat="56.141571" lon="8.147380">
<ele>5.871163</ele>
<time>2026-07-13T08:15:49.000Z</time>
</trkpt>
<trkpt lat="56.141602" lon="8.147297">
<ele>5.877283</ele>
<time>2026-07-13T08:15:50.000Z</time>
</trkpt>
<trkpt lat="56.141628" lon="8.147221">
<ele>5.882745</ele>
<time>2026-07-13T08:15:51.000Z</time>
</trkpt>
<trkpt lat="56.141659" lon="8.147140">
<ele>5.883384</ele>
<time>2026-07-13T08:15:52.000Z</time>
</trkpt>
<trkpt lat="56.141689" lon="8.147048">
<ele>5.882321</ele>
<time>2026-07-13T08:15:53.000Z</time>
</trkpt>
<trkpt lat="56.141720" lon="8.146967">
<ele>5.881341</ele>
<time>2026-07-13T08:15:54.000Z</time>
</trkpt>
<trkpt lat="56.141754" lon="8.146861">
<ele>5.880122</ele>
<time>2026-07-13T08:15:55.000Z</time>
</trkpt>
<trkpt lat="56.141815" lon="8.146702">
<ele>5.878197</ele>
<time>2026-07-13T08:15:56.000Z</time>
</trkpt>
<trkpt lat="56.141846" lon="8.146620">
<ele>5.877209</ele>
<time>2026-07-13T08:15:57.000Z</time>
</trkpt>
<trkpt lat="56.141872" lon="8.146544">
<ele>5.876320</ele>
<time>2026-07-13T08:15:58.000Z</time>
</trkpt>
<trkpt lat="56.141911" lon="8.146454">
<ele>5.875183</ele>
<time>2026-07-13T08:15:59.000Z</time>
</trkpt>
<trkpt lat="56.141949" lon="8.146364">
<ele>5.874057</ele>
<time>2026-07-13T08:16:00.000Z</time>
</trkpt>
<trkpt lat="56.141979" lon="8.146285">
<ele>5.873104</ele>
<time>2026-07-13T08:16:01.000Z</time>
</trkpt>
<trkpt lat="56.142006" lon="8.146208">
<ele>5.872197</ele>
<time>2026-07-13T08:16:02.000Z</time>
</trkpt>
<trkpt lat="56.142040" lon="8.146117">
<ele>5.871104</ele>
<time>2026-07-13T08:16:03.000Z</time>
</trkpt>
<trkpt lat="56.142067" lon="8.146036">
<ele>5.870163</ele>
<time>2026-07-13T08:16:04.000Z</time>
</trkpt>
<trkpt lat="56.142097" lon="8.145945">
<ele>5.869109</ele>
<time>2026-07-13T08:16:05.000Z</time>
</trkpt>
<trkpt lat="56.142132" lon="8.145862">
<ele>5.868071</ele>
<time>2026-07-13T08:16:06.000Z</time>
</trkpt>
<trkpt lat="56.142159" lon="8.145788">
<ele>5.867189</ele>
<time>2026-07-13T08:16:07.000Z</time>
</trkpt>
<trkpt lat="56.142185" lon="8.145713">
<ele>5.866308</ele>
<time>2026-07-13T08:16:08.000Z</time>
</trkpt>
<trkpt lat="56.142216" lon="8.145629">
<ele>5.865304</ele>
<time>2026-07-13T08:16:09.000Z</time>
</trkpt>
<trkpt lat="56.142262" lon="8.145512">
<ele>5.863876</ele>
<time>2026-07-13T08:16:10.000Z</time>
</trkpt>
<trkpt lat="56.142315" lon="8.145381">
<ele>5.862262</ele>
<time>2026-07-13T08:16:11.000Z</time>
</trkpt>
<trkpt lat="56.142345" lon="8.145295">
<ele>5.861250</ele>
<time>2026-07-13T08:16:12.000Z</time>
</trkpt>
<trkpt lat="56.142376" lon="8.145206">
<ele>5.860204</ele>
<time>2026-07-13T08:16:13.000Z</time>
</trkpt>
<trkpt lat="56.142406" lon="8.145125">
<ele>5.859234</ele>
<time>2026-07-13T08:16:14.000Z</time>
</trkpt>
<trkpt lat="56.142441" lon="8.145042">
<ele>5.858196</ele>
<time>2026-07-13T08:16:15.000Z</time>
</trkpt>
<trkpt lat="56.142467" lon="8.144961">
<ele>5.857264</ele>
<time>2026-07-13T08:16:16.000Z</time>
</trkpt>
<trkpt lat="56.142506" lon="8.144872">
<ele>5.856135</ele>
<time>2026-07-13T08:16:17.000Z</time>
</trkpt>
<trkpt lat="56.142536" lon="8.144796">
<ele>5.855207</ele>
<time>2026-07-13T08:16:18.000Z</time>
</trkpt>
<trkpt lat="56.142563" lon="8.144727">
<ele>5.854366</ele>
<time>2026-07-13T08:16:19.000Z</time>
</trkpt>
<trkpt lat="56.142601" lon="8.144639">
<ele>5.853256</ele>
<time>2026-07-13T08:16:20.000Z</time>
</trkpt>
<trkpt lat="56.142628" lon="8.144573">
<ele>5.852440</ele>
<time>2026-07-13T08:16:21.000Z</time>
</trkpt>
<trkpt lat="56.142658" lon="8.144488">
<ele>5.851035</ele>
<time>2026-07-13T08:16:22.000Z</time>
</trkpt>
<trkpt lat="56.142689" lon="8.144409">
<ele>5.849318</ele>
<time>2026-07-13T08:16:23.000Z</time>
</trkpt>
<trkpt lat="56.142719" lon="8.144333">
<ele>5.847663</ele>
<time>2026-07-13T08:16:24.000Z</time>
</trkpt>
<trkpt lat="56.142746" lon="8.144258">
<ele>5.846076</ele>
<time>2026-07-13T08:16:25.000Z</time>
</trkpt>
<trkpt lat="56.142777" lon="8.144172">
<ele>5.844256</ele>
<time>2026-07-13T08:16:26.000Z</time>
</trkpt>
<trkpt lat="56.142799" lon="8.144090">
<ele>5.842639</ele>
<time>2026-07-13T08:16:27.000Z</time>
</trkpt>
<trkpt lat="56.142834" lon="8.143986">
<ele>5.840480</ele>
<time>2026-07-13T08:16:28.000Z</time>
</trkpt>
<trkpt lat="56.142879" lon="8.143841">
<ele>5.837530</ele>
<time>2026-07-13T08:16:29.000Z</time>
</trkpt>
<trkpt lat="56.142906" lon="8.143763">
<ele>5.835898</ele>
<time>2026-07-13T08:16:30.000Z</time>
</trkpt>
<trkpt lat="56.142933" lon="8.143680">
<ele>5.834190</ele>
<time>2026-07-13T08:16:31.000Z</time>
</trkpt>
<trkpt lat="56.142963" lon="8.143589">
<ele>5.832311</ele>
<time>2026-07-13T08:16:32.000Z</time>
</trkpt>
<trkpt lat="56.142998" lon="8.143485">
<ele>5.830152</ele>
<time>2026-07-13T08:16:33.000Z</time>
</trkpt>
<trkpt lat="56.143024" lon="8.143394">
<ele>5.828335</ele>
<time>2026-07-13T08:16:34.000Z</time>
</trkpt>
<trkpt lat="56.143055" lon="8.143303">
<ele>5.826440</ele>
<time>2026-07-13T08:16:35.000Z</time>
</trkpt>
<trkpt lat="56.143082" lon="8.143214">
<ele>5.824639</ele>
<time>2026-07-13T08:16:36.000Z</time>
</trkpt>
<trkpt lat="56.143105" lon="8.143130">
<ele>5.822976</ele>
<time>2026-07-13T08:16:37.000Z</time>
</trkpt>
<trkpt lat="56.143131" lon="8.143021">
<ele>5.820869</ele>
<time>2026-07-13T08:16:38.000Z</time>
</trkpt>
<trkpt lat="56.143154" lon="8.142945">
<ele>5.819332</ele>
<time>2026-07-13T08:16:39.000Z</time>
</trkpt>
<trkpt lat="56.143173" lon="8.142862">
<ele>5.817737</ele>
<time>2026-07-13T08:16:40.000Z</time>
</trkpt>
<trkpt lat="56.143200" lon="8.142773">
<ele>5.815936</ele>
<time>2026-07-13T08:16:41.000Z</time>
</trkpt>
<trkpt lat="56.143234" lon="8.142648">
<ele>5.813465</ele>
<time>2026-07-13T08:16:42.000Z</time>
</trkpt>
<trkpt lat="56.143276" lon="8.142479">
<ele>5.810176</ele>
<time>2026-07-13T08:16:43.000Z</time>
</trkpt>
<trkpt lat="56.143303" lon="8.142388">
<ele>5.808344</ele>
<time>2026-07-13T08:16:44.000Z</time>
</trkpt>
<trkpt lat="56.143330" lon="8.142298">
<ele>5.806528</ele>
<time>2026-07-13T08:16:45.000Z</time>
</trkpt>
<trkpt lat="56.143356" lon="8.142191">
<ele>5.804454</ele>
<time>2026-07-13T08:16:46.000Z</time>
</trkpt>
<trkpt lat="56.143387" lon="8.142088">
<ele>5.802373</ele>
<time>2026-07-13T08:16:47.000Z</time>
</trkpt>
<trkpt lat="56.143406" lon="8.142014">
<ele>5.800925</ele>
<time>2026-07-13T08:16:48.000Z</time>
</trkpt>
<trkpt lat="56.143433" lon="8.141915">
<ele>5.798967</ele>
<time>2026-07-13T08:16:49.000Z</time>
</trkpt>
<trkpt lat="56.143456" lon="8.141829">
<ele>5.797272</ele>
<time>2026-07-13T08:16:50.000Z</time>
</trkpt>
<trkpt lat="56.143486" lon="8.141709">
<ele>5.794934</ele>
<time>2026-07-13T08:16:51.000Z</time>
</trkpt>
<trkpt lat="56.143513" lon="8.141610">
<ele>5.774662</ele>
<time>2026-07-13T08:16:52.000Z</time>
</trkpt>
<trkpt lat="56.143532" lon="8.141541">
<ele>5.757683</ele>
<time>2026-07-13T08:16:53.000Z</time>
</trkpt>
<trkpt lat="56.143555" lon="8.141446">
<ele>5.734834</ele>
<time>2026-07-13T08:16:54.000Z</time>
</trkpt>
<trkpt lat="56.143604" lon="8.141257">
<ele>5.688850</ele>
<time>2026-07-13T08:16:55.000Z</time>
</trkpt>
<trkpt lat="56.143631" lon="8.141153">
<ele>5.663540</ele>
<time>2026-07-13T08:16:56.000Z</time>
</trkpt>
<trkpt lat="56.143650" lon="8.141068">
<ele>5.643337</ele>
<time>2026-07-13T08:16:57.000Z</time>
</trkpt>
<trkpt lat="56.143681" lon="8.140965">
<ele>5.617513</ele>
<time>2026-07-13T08:16:58.000Z</time>
</trkpt>
<trkpt lat="56.143707" lon="8.140877">
<ele>5.595540</ele>
<time>2026-07-13T08:16:59.000Z</time>
</trkpt>
<trkpt lat="56.143730" lon="8.140784">
<ele>5.573095</ele>
<time>2026-07-13T08:17:00.000Z</time>
</trkpt>
<trkpt lat="56.143761" lon="8.140691">
<ele>5.549188</ele>
<time>2026-07-13T08:17:01.000Z</time>
</trkpt>
<trkpt lat="56.143784" lon="8.140621">
<ele>5.531262</ele>
<time>2026-07-13T08:17:02.000Z</time>
</trkpt>
<trkpt lat="56.143810" lon="8.140536">
<ele>5.509871</ele>
<time>2026-07-13T08:17:03.000Z</time>
</trkpt>
<trkpt lat="56.143837" lon="8.140444">
<ele>5.486934</ele>
<time>2026-07-13T08:17:04.000Z</time>
</trkpt>
<trkpt lat="56.143864" lon="8.140352">
<ele>5.463996</ele>
<time>2026-07-13T08:17:05.000Z</time>
</trkpt>
<trkpt lat="56.143890" lon="8.140257">
<ele>5.440648</ele>
<time>2026-07-13T08:17:06.000Z</time>
</trkpt>
<trkpt lat="56.143925" lon="8.140139">
<ele>5.411160</ele>
<time>2026-07-13T08:17:07.000Z</time>
</trkpt>
<trkpt lat="56.143967" lon="8.139999">
<ele>5.376084</ele>
<time>2026-07-13T08:17:08.000Z</time>
</trkpt>
<trkpt lat="56.143993" lon="8.139911">
<ele>5.354112</ele>
<time>2026-07-13T08:17:09.000Z</time>
</trkpt>
<trkpt lat="56.144016" lon="8.139830">
<ele>5.334057</ele>
<time>2026-07-13T08:17:10.000Z</time>
</trkpt>
<trkpt lat="56.144039" lon="8.139732">
<ele>5.310600</ele>
<time>2026-07-13T08:17:11.000Z</time>
</trkpt>
<trkpt lat="56.144062" lon="8.139641">
<ele>5.288557</ele>
<time>2026-07-13T08:17:12.000Z</time>
</trkpt>
<trkpt lat="56.144081" lon="8.139550">
<ele>5.267121</ele>
<time>2026-07-13T08:17:13.000Z</time>
</trkpt>
<trkpt lat="56.144108" lon="8.139439">
<ele>5.240403</ele>
<time>2026-07-13T08:17:14.000Z</time>
</trkpt>
<trkpt lat="56.144131" lon="8.139341">
<ele>5.216946</ele>
<time>2026-07-13T08:17:15.000Z</time>
</trkpt>
<trkpt lat="56.144154" lon="8.139243">
<ele>5.193489</ele>
<time>2026-07-13T08:17:16.000Z</time>
</trkpt>
<trkpt lat="56.144173" lon="8.139146">
<ele>5.170808</ele>
<time>2026-07-13T08:17:17.000Z</time>
</trkpt>
<trkpt lat="56.144199" lon="8.139050">
<ele>5.147262</ele>
<time>2026-07-13T08:17:18.000Z</time>
</trkpt>
<trkpt lat="56.144226" lon="8.138958">
<ele>5.124324</ele>
<time>2026-07-13T08:17:19.000Z</time>
</trkpt>
<trkpt lat="56.144249" lon="8.138872">
<ele>5.103281</ele>
<time>2026-07-13T08:17:20.000Z</time>
</trkpt>
<trkpt lat="56.144276" lon="8.138781">
<ele>5.080916</ele>
<time>2026-07-13T08:17:21.000Z</time>
</trkpt>
<trkpt lat="56.144299" lon="8.138695">
<ele>5.064123</ele>
<time>2026-07-13T08:17:22.000Z</time>
</trkpt>
<trkpt lat="56.144325" lon="8.138598">
<ele>5.045173</ele>
<time>2026-07-13T08:17:23.000Z</time>
</trkpt>
<trkpt lat="56.144352" lon="8.138516">
<ele>5.028405</ele>
<time>2026-07-13T08:17:24.000Z</time>
</trkpt>
<trkpt lat="56.144379" lon="8.138430">
<ele>5.011028</ele>
<time>2026-07-13T08:17:25.000Z</time>
</trkpt>
<trkpt lat="56.144405" lon="8.138336">
<ele>4.992553</ele>
<time>2026-07-13T08:17:26.000Z</time>
</trkpt>
<trkpt lat="56.144428" lon="8.138249">
<ele>4.975600</ele>
<time>2026-07-13T08:17:27.000Z</time>
</trkpt>
<trkpt lat="56.144455" lon="8.138131">
<ele>4.953144</ele>
<time>2026-07-13T08:17:28.000Z</time>
</trkpt>
<trkpt lat="56.144497" lon="8.137968">
<ele>4.921529</ele>
<time>2026-07-13T08:17:29.000Z</time>
</trkpt>
<trkpt lat="56.144520" lon="8.137876">
<ele>4.903778</ele>
<time>2026-07-13T08:17:30.000Z</time>
</trkpt>
<trkpt lat="56.144543" lon="8.137780">
<ele>4.885381</ele>
<time>2026-07-13T08:17:31.000Z</time>
</trkpt>
<trkpt lat="56.144569" lon="8.137687">
<ele>4.867064</ele>
<time>2026-07-13T08:17:32.000Z</time>
</trkpt>
<trkpt lat="56.144596" lon="8.137587">
<ele>4.847502</ele>
<time>2026-07-13T08:17:33.000Z</time>
</trkpt>
<trkpt lat="56.144623" lon="8.137481">
<ele>4.826984</ele>
<time>2026-07-13T08:17:34.000Z</time>
</trkpt>
<trkpt lat="56.144650" lon="8.137380">
<ele>4.807263</ele>
<time>2026-07-13T08:17:35.000Z</time>
</trkpt>
<trkpt lat="56.144676" lon="8.137285">
<ele>4.788630</ele>
<time>2026-07-13T08:17:36.000Z</time>
</trkpt>
<trkpt lat="56.144711" lon="8.137180">
<ele>4.767090</ele>
<time>2026-07-13T08:17:37.000Z</time>
</trkpt>
<trkpt lat="56.144733" lon="8.137092">
<ele>4.750111</ele>
<time>2026-07-13T08:17:38.000Z</time>
</trkpt>
<trkpt lat="56.144760" lon="8.136994">
<ele>4.730865</ele>
<time>2026-07-13T08:17:39.000Z</time>
</trkpt>
<trkpt lat="56.144787" lon="8.136896">
<ele>4.711619</ele>
<time>2026-07-13T08:17:40.000Z</time>
</trkpt>
<trkpt lat="56.144810" lon="8.136799">
<ele>4.693061</ele>
<time>2026-07-13T08:17:41.000Z</time>
</trkpt>
<trkpt lat="56.144836" lon="8.136708">
<ele>4.675057</ele>
<time>2026-07-13T08:17:42.000Z</time>
</trkpt>
<trkpt lat="56.144859" lon="8.136606">
<ele>4.655687</ele>
<time>2026-07-13T08:17:43.000Z</time>
</trkpt>
<trkpt lat="56.144882" lon="8.136505">
<ele>4.636479</ele>
<time>2026-07-13T08:17:44.000Z</time>
</trkpt>
<trkpt lat="56.144909" lon="8.136414">
<ele>4.618329</ele>
<time>2026-07-13T08:17:45.000Z</time>
</trkpt>
<trkpt lat="56.144932" lon="8.136310">
<ele>4.598632</ele>
<time>2026-07-13T08:17:46.000Z</time>
</trkpt>
<trkpt lat="56.144955" lon="8.136215">
<ele>4.580397</ele>
<time>2026-07-13T08:17:47.000Z</time>
</trkpt>
<trkpt lat="56.144978" lon="8.136103">
<ele>4.559384</ele>
<time>2026-07-13T08:17:48.000Z</time>
</trkpt>
<trkpt lat="56.145000" lon="8.135998">
<ele>4.539636</ele>
<time>2026-07-13T08:17:49.000Z</time>
</trkpt>
<trkpt lat="56.145027" lon="8.135858">
<ele>4.512369</ele>
<time>2026-07-13T08:17:50.000Z</time>
</trkpt>
<trkpt lat="56.145058" lon="8.135711">
<ele>4.418670</ele>
<time>2026-07-13T08:17:51.000Z</time>
</trkpt>
<trkpt lat="56.145081" lon="8.135613">
<ele>4.355277</ele>
<time>2026-07-13T08:17:52.000Z</time>
</trkpt>
<trkpt lat="56.145103" lon="8.135507">
<ele>4.287845</ele>
<time>2026-07-13T08:17:53.000Z</time>
</trkpt>
<trkpt lat="56.145123" lon="8.135397">
<ele>4.218867</ele>
<time>2026-07-13T08:17:54.000Z</time>
</trkpt>
<trkpt lat="56.145142" lon="8.135303">
<ele>4.159257</ele>
<time>2026-07-13T08:17:55.000Z</time>
</trkpt>
<trkpt lat="56.145157" lon="8.135208">
<ele>4.100394</ele>
<time>2026-07-13T08:17:56.000Z</time>
</trkpt>
<trkpt lat="56.145176" lon="8.135109">
<ele>4.037974</ele>
<time>2026-07-13T08:17:57.000Z</time>
</trkpt>
<trkpt lat="56.145191" lon="8.135014">
<ele>3.979112</ele>
<time>2026-07-13T08:17:58.000Z</time>
</trkpt>
<trkpt lat="56.145210" lon="8.134912">
<ele>3.914998</ele>
<time>2026-07-13T08:17:59.000Z</time>
</trkpt>
<trkpt lat="56.145229" lon="8.134803">
<ele>3.846914</ele>
<time>2026-07-13T08:18:00.000Z</time>
</trkpt>
<trkpt lat="56.145252" lon="8.134692">
<ele>3.776315</ele>
<time>2026-07-13T08:18:01.000Z</time>
</trkpt>
<trkpt lat="56.145271" lon="8.134577">
<ele>3.704810</ele>
<time>2026-07-13T08:18:02.000Z</time>
</trkpt>
<trkpt lat="56.145290" lon="8.134471">
<ele>3.638431</ele>
<time>2026-07-13T08:18:03.000Z</time>
</trkpt>
<trkpt lat="56.145321" lon="8.134268">
<ele>3.512954</ele>
<time>2026-07-13T08:18:04.000Z</time>
</trkpt>
<trkpt lat="56.145340" lon="8.134147">
<ele>3.438012</ele>
<time>2026-07-13T08:18:05.000Z</time>
</trkpt>
<trkpt lat="56.145359" lon="8.134026">
<ele>3.363071</ele>
<time>2026-07-13T08:18:06.000Z</time>
</trkpt>
<trkpt lat="56.145374" lon="8.133910">
<ele>3.292082</ele>
<time>2026-07-13T08:18:07.000Z</time>
</trkpt>
<trkpt lat="56.145386" lon="8.133796">
<ele>3.222922</ele>
<time>2026-07-13T08:18:08.000Z</time>
</trkpt>
<trkpt lat="56.145401" lon="8.133681">
<ele>3.152514</ele>
<time>2026-07-13T08:18:09.000Z</time>
</trkpt>
<trkpt lat="56.145412" lon="8.133570">
<ele>3.085306</ele>
<time>2026-07-13T08:18:10.000Z</time>
</trkpt>
<trkpt lat="56.145428" lon="8.133460">
<ele>3.017535</ele>
<time>2026-07-13T08:18:11.000Z</time>
</trkpt>
<trkpt lat="56.145439" lon="8.133358">
<ele>2.955601</ele>
<time>2026-07-13T08:18:12.000Z</time>
</trkpt>
<trkpt lat="56.145462" lon="8.133277">
<ele>2.901405</ele>
<time>2026-07-13T08:18:13.000Z</time>
</trkpt>
<trkpt lat="56.145500" lon="8.133229">
<ele>2.851684</ele>
<time>2026-07-13T08:18:14.000Z</time>
</trkpt>
<trkpt lat="56.145550" lon="8.133218">
<ele>2.797780</ele>
<time>2026-07-13T08:18:15.000Z</time>
</trkpt>
<trkpt lat="56.145607" lon="8.133229">
<ele>2.736435</ele>
<time>2026-07-13T08:18:16.000Z</time>
</trkpt>
<trkpt lat="56.145664" lon="8.133247">
<ele>2.674505</ele>
<time>2026-07-13T08:18:17.000Z</time>
</trkpt>
<trkpt lat="56.145725" lon="8.133269">
<ele>2.607926</ele>
<time>2026-07-13T08:18:18.000Z</time>
</trkpt>
<trkpt lat="56.145782" lon="8.133287">
<ele>2.585636</ele>
<time>2026-07-13T08:18:19.000Z</time>
</trkpt>
<trkpt lat="56.145844" lon="8.133304">
<ele>2.579837</ele>
<time>2026-07-13T08:18:20.000Z</time>
</trkpt>
<trkpt lat="56.145905" lon="8.133321">
<ele>2.574129</ele>
<time>2026-07-13T08:18:21.000Z</time>
</trkpt>
<trkpt lat="56.145966" lon="8.133337">
<ele>2.568428</ele>
<time>2026-07-13T08:18:22.000Z</time>
</trkpt>
<trkpt lat="56.146027" lon="8.133354">
<ele>2.562720</ele>
<time>2026-07-13T08:18:23.000Z</time>
</trkpt>
<trkpt lat="56.146084" lon="8.133369">
<ele>2.557394</ele>
<time>2026-07-13T08:18:24.000Z</time>
</trkpt>
<trkpt lat="56.146145" lon="8.133387">
<ele>2.551678</ele>
<time>2026-07-13T08:18:25.000Z</time>
</trkpt>
<trkpt lat="56.146206" lon="8.133402">
<ele>2.545984</ele>
<time>2026-07-13T08:18:26.000Z</time>
</trkpt>
<trkpt lat="56.146263" lon="8.133417">
<ele>2.540658</ele>
<time>2026-07-13T08:18:27.000Z</time>
</trkpt>
<trkpt lat="56.146320" lon="8.133432">
<ele>2.535331</ele>
<time>2026-07-13T08:18:28.000Z</time>
</trkpt>
<trkpt lat="56.146381" lon="8.133449">
<ele>2.529623</ele>
<time>2026-07-13T08:18:29.000Z</time>
</trkpt>
<trkpt lat="56.146439" lon="8.133464">
<ele>2.524205</ele>
<time>2026-07-13T08:18:30.000Z</time>
</trkpt>
<trkpt lat="56.146496" lon="8.133479">
<ele>2.518878</ele>
<time>2026-07-13T08:18:31.000Z</time>
</trkpt>
<trkpt lat="56.146553" lon="8.133494">
<ele>2.513551</ele>
<time>2026-07-13T08:18:32.000Z</time>
</trkpt>
<trkpt lat="56.146610" lon="8.133510">
<ele>2.508216</ele>
<time>2026-07-13T08:18:33.000Z</time>
</trkpt>
<trkpt lat="56.146667" lon="8.133526">
<ele>2.502882</ele>
<time>2026-07-13T08:18:34.000Z</time>
</trkpt>
<trkpt lat="56.146725" lon="8.133542">
<ele>2.497456</ele>
<time>2026-07-13T08:18:35.000Z</time>
</trkpt>
<trkpt lat="56.146782" lon="8.133559">
<ele>2.492113</ele>
<time>2026-07-13T08:18:36.000Z</time>
</trkpt>
<trkpt lat="56.146835" lon="8.133576">
<ele>2.487135</ele>
<time>2026-07-13T08:18:37.000Z</time>
</trkpt>
<trkpt lat="56.146893" lon="8.133594">
<ele>2.481692</ele>
<time>2026-07-13T08:18:38.000Z</time>
</trkpt>
<trkpt lat="56.146954" lon="8.133616">
<ele>2.475939</ele>
<time>2026-07-13T08:18:39.000Z</time>
</trkpt>
<trkpt lat="56.147011" lon="8.133636">
<ele>2.470569</ele>
<time>2026-07-13T08:18:40.000Z</time>
</trkpt>
<trkpt lat="56.147068" lon="8.133655">
<ele>2.465208</ele>
<time>2026-07-13T08:18:41.000Z</time>
</trkpt>
<trkpt lat="56.147125" lon="8.133675">
<ele>2.459838</ele>
<time>2026-07-13T08:18:42.000Z</time>
</trkpt>
<trkpt lat="56.147182" lon="8.133696">
<ele>2.454458</ele>
<time>2026-07-13T08:18:43.000Z</time>
</trkpt>
<trkpt lat="56.147236" lon="8.133718">
<ele>2.449338</ele>
<time>2026-07-13T08:18:44.000Z</time>
</trkpt>
<trkpt lat="56.147293" lon="8.133743">
<ele>2.443912</ele>
<time>2026-07-13T08:18:45.000Z</time>
</trkpt>
<trkpt lat="56.147350" lon="8.133765">
<ele>2.438521</ele>
<time>2026-07-13T08:18:46.000Z</time>
</trkpt>
<trkpt lat="56.147404" lon="8.133785">
<ele>2.433423</ele>
<time>2026-07-13T08:18:47.000Z</time>
</trkpt>
<trkpt lat="56.147457" lon="8.133807">
<ele>2.428393</ele>
<time>2026-07-13T08:18:48.000Z</time>
</trkpt>
<trkpt lat="56.147511" lon="8.133831">
<ele>2.423249</ele>
<time>2026-07-13T08:18:49.000Z</time>
</trkpt>
<trkpt lat="56.147564" lon="8.133855">
<ele>2.396541</ele>
<time>2026-07-13T08:18:50.000Z</time>
</trkpt>
<trkpt lat="56.147621" lon="8.133879">
<ele>2.367100</ele>
<time>2026-07-13T08:18:51.000Z</time>
</trkpt>
<trkpt lat="56.147675" lon="8.133904">
<ele>2.339056</ele>
<time>2026-07-13T08:18:52.000Z</time>
</trkpt>
<trkpt lat="56.147728" lon="8.133929">
<ele>2.311499</ele>
<time>2026-07-13T08:18:53.000Z</time>
</trkpt>
<trkpt lat="56.147785" lon="8.133953">
<ele>2.282058</ele>
<time>2026-07-13T08:18:54.000Z</time>
</trkpt>
<trkpt lat="56.147839" lon="8.133976">
<ele>2.254149</ele>
<time>2026-07-13T08:18:55.000Z</time>
</trkpt>
<trkpt lat="56.147896" lon="8.134004">
<ele>2.224432</ele>
<time>2026-07-13T08:18:56.000Z</time>
</trkpt>
<trkpt lat="56.147949" lon="8.134032">
<ele>2.196650</ele>
<time>2026-07-13T08:18:57.000Z</time>
</trkpt>
<trkpt lat="56.148003" lon="8.134060">
<ele>2.168385</ele>
<time>2026-07-13T08:18:58.000Z</time>
</trkpt>
<trkpt lat="56.148056" lon="8.134088">
<ele>2.140603</ele>
<time>2026-07-13T08:18:59.000Z</time>
</trkpt>
<trkpt lat="56.148113" lon="8.134116">
<ele>2.110885</ele>
<time>2026-07-13T08:19:00.000Z</time>
</trkpt>
<trkpt lat="56.148167" lon="8.134145">
<ele>2.082541</ele>
<time>2026-07-13T08:19:01.000Z</time>
</trkpt>
<trkpt lat="56.148224" lon="8.134173">
<ele>2.052824</ele>
<time>2026-07-13T08:19:02.000Z</time>
</trkpt>
<trkpt lat="56.148277" lon="8.134204">
<ele>2.024793</ele>
<time>2026-07-13T08:19:03.000Z</time>
</trkpt>
<trkpt lat="56.148331" lon="8.134232">
<ele>1.996528</ele>
<time>2026-07-13T08:19:04.000Z</time>
</trkpt>
<trkpt lat="56.148388" lon="8.134261">
<ele>1.966736</ele>
<time>2026-07-13T08:19:05.000Z</time>
</trkpt>
<trkpt lat="56.148441" lon="8.134294">
<ele>1.938526</ele>
<time>2026-07-13T08:19:06.000Z</time>
</trkpt>
<trkpt lat="56.148495" lon="8.134326">
<ele>1.909930</ele>
<time>2026-07-13T08:19:07.000Z</time>
</trkpt>
<trkpt lat="56.148544" lon="8.134358">
<ele>1.883709</ele>
<time>2026-07-13T08:19:08.000Z</time>
</trkpt>
<trkpt lat="56.148598" lon="8.134393">
<ele>1.854839</ele>
<time>2026-07-13T08:19:09.000Z</time>
</trkpt>
<trkpt lat="56.148651" lon="8.134423">
<ele>1.826893</ele>
<time>2026-07-13T08:19:10.000Z</time>
</trkpt>
<trkpt lat="56.148705" lon="8.134451">
<ele>1.798628</ele>
<time>2026-07-13T08:19:11.000Z</time>
</trkpt>
<trkpt lat="56.148754" lon="8.134482">
<ele>1.772502</ele>
<time>2026-07-13T08:19:12.000Z</time>
</trkpt>
<trkpt lat="56.148804" lon="8.134519">
<ele>1.745307</ele>
<time>2026-07-13T08:19:13.000Z</time>
</trkpt>
<trkpt lat="56.148857" lon="8.134554">
<ele>1.716908</ele>
<time>2026-07-13T08:19:14.000Z</time>
</trkpt>
<trkpt lat="56.148911" lon="8.134589">
<ele>1.688038</ele>
<time>2026-07-13T08:19:15.000Z</time>
</trkpt>
<trkpt lat="56.148960" lon="8.134624">
<ele>1.661519</ele>
<time>2026-07-13T08:19:16.000Z</time>
</trkpt>
<trkpt lat="56.149013" lon="8.134659">
<ele>1.633120</ele>
<time>2026-07-13T08:19:17.000Z</time>
</trkpt>
<trkpt lat="56.149063" lon="8.134693">
<ele>1.606234</ele>
<time>2026-07-13T08:19:18.000Z</time>
</trkpt>
<trkpt lat="56.149117" lon="8.134729">
<ele>1.577267</ele>
<time>2026-07-13T08:19:19.000Z</time>
</trkpt>
<trkpt lat="56.149170" lon="8.134765">
<ele>1.548771</ele>
<time>2026-07-13T08:19:20.000Z</time>
</trkpt>
<trkpt lat="56.149220" lon="8.134802">
<ele>1.521575</ele>
<time>2026-07-13T08:19:21.000Z</time>
</trkpt>
<trkpt lat="56.149269" lon="8.134838">
<ele>1.513123</ele>
<time>2026-07-13T08:19:22.000Z</time>
</trkpt>
<trkpt lat="56.149315" lon="8.134875">
<ele>1.507260</ele>
<time>2026-07-13T08:19:23.000Z</time>
</trkpt>
<trkpt lat="56.149364" lon="8.134915">
<ele>1.500999</ele>
<time>2026-07-13T08:19:24.000Z</time>
</trkpt>
<trkpt lat="56.149414" lon="8.134953">
<ele>1.494683</ele>
<time>2026-07-13T08:19:25.000Z</time>
</trkpt>
<trkpt lat="56.149460" lon="8.134987">
<ele>1.488896</ele>
<time>2026-07-13T08:19:26.000Z</time>
</trkpt>
<trkpt lat="56.149502" lon="8.135016">
<ele>1.483662</ele>
<time>2026-07-13T08:19:27.000Z</time>
</trkpt>
<trkpt lat="56.149563" lon="8.135062">
<ele>1.475966</ele>
<time>2026-07-13T08:19:28.000Z</time>
</trkpt>
<trkpt lat="56.149609" lon="8.135100">
<ele>1.470076</ele>
<time>2026-07-13T08:19:29.000Z</time>
</trkpt>
<trkpt lat="56.149658" lon="8.135138">
<ele>1.463867</ele>
<time>2026-07-13T08:19:30.000Z</time>
</trkpt>
<trkpt lat="56.149708" lon="8.135176">
<ele>1.457551</ele>
<time>2026-07-13T08:19:31.000Z</time>
</trkpt>
<trkpt lat="56.149754" lon="8.135214">
<ele>1.451661</ele>
<time>2026-07-13T08:19:32.000Z</time>
</trkpt>
<trkpt lat="56.149803" lon="8.135252">
<ele>1.445452</ele>
<time>2026-07-13T08:19:33.000Z</time>
</trkpt>
<trkpt lat="56.149853" lon="8.135290">
<ele>1.439136</ele>
<time>2026-07-13T08:19:34.000Z</time>
</trkpt>
<trkpt lat="56.149899" lon="8.135329">
<ele>1.433219</ele>
<time>2026-07-13T08:19:35.000Z</time>
</trkpt>
<trkpt lat="56.149941" lon="8.135369">
<ele>1.427688</ele>
<time>2026-07-13T08:19:36.000Z</time>
</trkpt>
<trkpt lat="56.149986" lon="8.135411">
<ele>1.421789</ele>
<time>2026-07-13T08:19:37.000Z</time>
</trkpt>
<trkpt lat="56.150032" lon="8.135451">
<ele>1.415843</ele>
<time>2026-07-13T08:19:38.000Z</time>
</trkpt>
<trkpt lat="56.150078" lon="8.135494">
<ele>1.409811</ele>
<time>2026-07-13T08:19:39.000Z</time>
</trkpt>
<trkpt lat="56.150124" lon="8.135536">
<ele>1.403808</ele>
<time>2026-07-13T08:19:40.000Z</time>
</trkpt>
<trkpt lat="56.150173" lon="8.135577">
<ele>1.397519</ele>
<time>2026-07-13T08:19:41.000Z</time>
</trkpt>
<trkpt lat="56.150223" lon="8.135618">
<ele>1.391125</ele>
<time>2026-07-13T08:19:42.000Z</time>
</trkpt>
<trkpt lat="56.150269" lon="8.135664">
<ele>1.385000</ele>
<time>2026-07-13T08:19:43.000Z</time>
</trkpt>
<trkpt lat="56.150318" lon="8.135711">
<ele>1.378538</ele>
<time>2026-07-13T08:19:44.000Z</time>
</trkpt>
<trkpt lat="56.150372" lon="8.135757">
<ele>1.371585</ele>
<time>2026-07-13T08:19:45.000Z</time>
</trkpt>
<trkpt lat="56.150421" lon="8.135803">
<ele>1.365153</ele>
<time>2026-07-13T08:19:46.000Z</time>
</trkpt>
<trkpt lat="56.150467" lon="8.135850">
<ele>1.358997</ele>
<time>2026-07-13T08:19:47.000Z</time>
</trkpt>
<trkpt lat="56.150513" lon="8.135899">
<ele>1.352775</ele>
<time>2026-07-13T08:19:48.000Z</time>
</trkpt>
<trkpt lat="56.150562" lon="8.135948">
<ele>1.346250</ele>
<time>2026-07-13T08:19:49.000Z</time>
</trkpt>
<trkpt lat="56.150608" lon="8.135998">
<ele>1.339995</ele>
<time>2026-07-13T08:19:50.000Z</time>
</trkpt>
<trkpt lat="56.150654" lon="8.136047">
<ele>1.333774</ele>
<time>2026-07-13T08:19:51.000Z</time>
</trkpt>
<trkpt lat="56.150703" lon="8.136096">
<ele>1.327249</ele>
<time>2026-07-13T08:19:52.000Z</time>
</trkpt>
<trkpt lat="56.150749" lon="8.136145">
<ele>1.321027</ele>
<time>2026-07-13T08:19:53.000Z</time>
</trkpt>
<trkpt lat="56.150795" lon="8.136191">
<ele>1.314903</ele>
<time>2026-07-13T08:19:54.000Z</time>
</trkpt>
<trkpt lat="56.150841" lon="8.136241">
<ele>1.310367</ele>
<time>2026-07-13T08:19:55.000Z</time>
</trkpt>
<trkpt lat="56.150887" lon="8.136292">
<ele>1.319029</ele>
<time>2026-07-13T08:19:56.000Z</time>
</trkpt>
<trkpt lat="56.150929" lon="8.136343">
<ele>1.327153</ele>
<time>2026-07-13T08:19:57.000Z</time>
</trkpt>
<trkpt lat="56.150978" lon="8.136393">
<ele>1.336184</ele>
<time>2026-07-13T08:19:58.000Z</time>
</trkpt>
<trkpt lat="56.151024" lon="8.136441">
<ele>1.344709</ele>
<time>2026-07-13T08:19:59.000Z</time>
</trkpt>
<trkpt lat="56.151070" lon="8.136491">
<ele>1.353324</ele>
<time>2026-07-13T08:20:00.000Z</time>
</trkpt>
<trkpt lat="56.151115" lon="8.136543">
<ele>1.361899</ele>
<time>2026-07-13T08:20:01.000Z</time>
</trkpt>
<trkpt lat="56.151161" lon="8.136597">
<ele>1.370705</ele>
<time>2026-07-13T08:20:02.000Z</time>
</trkpt>
<trkpt lat="56.151207" lon="8.136650">
<ele>1.379463</ele>
<time>2026-07-13T08:20:03.000Z</time>
</trkpt>
<trkpt lat="56.151253" lon="8.136704">
<ele>1.388269</ele>
<time>2026-07-13T08:20:04.000Z</time>
</trkpt>
<trkpt lat="56.151299" lon="8.136761">
<ele>1.397224</ele>
<time>2026-07-13T08:20:05.000Z</time>
</trkpt>
<trkpt lat="56.151344" lon="8.136815">
<ele>1.405896</ele>
<time>2026-07-13T08:20:06.000Z</time>
</trkpt>
<trkpt lat="56.151386" lon="8.136869">
<ele>1.414174</ele>
<time>2026-07-13T08:20:07.000Z</time>
</trkpt>
<trkpt lat="56.151432" lon="8.136929">
<ele>1.423284</ele>
<time>2026-07-13T08:20:08.000Z</time>
</trkpt>
<trkpt lat="56.151474" lon="8.136983">
<ele>1.431561</ele>
<time>2026-07-13T08:20:09.000Z</time>
</trkpt>
<trkpt lat="56.151520" lon="8.137041">
<ele>1.440567</ele>
<time>2026-07-13T08:20:10.000Z</time>
</trkpt>
<trkpt lat="56.151566" lon="8.137096">
<ele>1.449422</ele>
<time>2026-07-13T08:20:11.000Z</time>
</trkpt>
<trkpt lat="56.151608" lon="8.137152">
<ele>1.457804</ele>
<time>2026-07-13T08:20:12.000Z</time>
</trkpt>
<trkpt lat="56.151653" lon="8.137208">
<ele>1.466577</ele>
<time>2026-07-13T08:20:13.000Z</time>
</trkpt>
<trkpt lat="56.151699" lon="8.137265">
<ele>1.475533</ele>
<time>2026-07-13T08:20:14.000Z</time>
</trkpt>
<trkpt lat="56.151745" lon="8.137322">
<ele>1.484488</ele>
<time>2026-07-13T08:20:15.000Z</time>
</trkpt>
<trkpt lat="56.151791" lon="8.137378">
<ele>1.493393</ele>
<time>2026-07-13T08:20:16.000Z</time>
</trkpt>
<trkpt lat="56.151833" lon="8.137428">
<ele>1.501467</ele>
<time>2026-07-13T08:20:17.000Z</time>
</trkpt>
<trkpt lat="56.151875" lon="8.137477">
<ele>1.509493</ele>
<time>2026-07-13T08:20:18.000Z</time>
</trkpt>
<trkpt lat="56.151928" lon="8.137536">
<ele>1.519485</ele>
<time>2026-07-13T08:20:19.000Z</time>
</trkpt>
<trkpt lat="56.151977" lon="8.137585">
<ele>1.528471</ele>
<time>2026-07-13T08:20:20.000Z</time>
</trkpt>
<trkpt lat="56.152023" lon="8.137630">
<ele>1.536865</ele>
<time>2026-07-13T08:20:21.000Z</time>
</trkpt>
<trkpt lat="56.152069" lon="8.137676">
<ele>1.545301</ele>
<time>2026-07-13T08:20:22.000Z</time>
</trkpt>
<trkpt lat="56.152119" lon="8.137717">
<ele>1.554108</ele>
<time>2026-07-13T08:20:23.000Z</time>
</trkpt>
<trkpt lat="56.152168" lon="8.137760">
<ele>1.562847</ele>
<time>2026-07-13T08:20:24.000Z</time>
</trkpt>
<trkpt lat="56.152218" lon="8.137801">
<ele>1.571654</ele>
<time>2026-07-13T08:20:25.000Z</time>
</trkpt>
<trkpt lat="56.152267" lon="8.137838">
<ele>1.580171</ele>
<time>2026-07-13T08:20:26.000Z</time>
</trkpt>
<trkpt lat="56.152321" lon="8.137874">
<ele>1.589401</ele>
<time>2026-07-13T08:20:27.000Z</time>
</trkpt>
<trkpt lat="56.152370" lon="8.137907">
<ele>1.597216</ele>
<time>2026-07-13T08:20:28.000Z</time>
</trkpt>
<trkpt lat="56.152420" lon="8.137939">
<ele>1.584586</ele>
<time>2026-07-13T08:20:29.000Z</time>
</trkpt>
<trkpt lat="56.152473" lon="8.137968">
<ele>1.571402</ele>
<time>2026-07-13T08:20:30.000Z</time>
</trkpt>
<trkpt lat="56.152523" lon="8.137996">
<ele>1.558939</ele>
<time>2026-07-13T08:20:31.000Z</time>
</trkpt>
<trkpt lat="56.152576" lon="8.138024">
<ele>1.545793</ele>
<time>2026-07-13T08:20:32.000Z</time>
</trkpt>
<trkpt lat="56.152626" lon="8.138051">
<ele>1.533369</ele>
<time>2026-07-13T08:20:33.000Z</time>
</trkpt>
<trkpt lat="56.152676" lon="8.138076">
<ele>1.521018</ele>
<time>2026-07-13T08:20:34.000Z</time>
</trkpt>
<trkpt lat="56.152725" lon="8.138102">
<ele>1.508860</ele>
<time>2026-07-13T08:20:35.000Z</time>
</trkpt>
<trkpt lat="56.152775" lon="8.138126">
<ele>1.496545</ele>
<time>2026-07-13T08:20:36.000Z</time>
</trkpt>
<trkpt lat="56.152828" lon="8.138151">
<ele>1.483506</ele>
<time>2026-07-13T08:20:37.000Z</time>
</trkpt>
<trkpt lat="56.152878" lon="8.138175">
<ele>1.471190</ele>
<time>2026-07-13T08:20:38.000Z</time>
</trkpt>
<trkpt lat="56.152927" lon="8.138200">
<ele>1.459069</ele>
<time>2026-07-13T08:20:39.000Z</time>
</trkpt>
<trkpt lat="56.152981" lon="8.138225">
<ele>1.445800</ele>
<time>2026-07-13T08:20:40.000Z</time>
</trkpt>
<trkpt lat="56.153034" lon="8.138249">
<ele>1.432793</ele>
<time>2026-07-13T08:20:41.000Z</time>
</trkpt>
<trkpt lat="56.153088" lon="8.138276">
<ele>1.419455</ele>
<time>2026-07-13T08:20:42.000Z</time>
</trkpt>
<trkpt lat="56.153137" lon="8.138303">
<ele>1.407259</ele>
<time>2026-07-13T08:20:43.000Z</time>
</trkpt>
<trkpt lat="56.153191" lon="8.138329">
<ele>1.393955</ele>
<time>2026-07-13T08:20:44.000Z</time>
</trkpt>
<trkpt lat="56.153240" lon="8.138354">
<ele>1.381834</ele>
<time>2026-07-13T08:20:45.000Z</time>
</trkpt>
<trkpt lat="56.153297" lon="8.138381">
<ele>1.367807</ele>
<time>2026-07-13T08:20:46.000Z</time>
</trkpt>
<trkpt lat="56.153347" lon="8.138408">
<ele>1.355383</ele>
<time>2026-07-13T08:20:47.000Z</time>
</trkpt>
<trkpt lat="56.153400" lon="8.138434">
<ele>1.342309</ele>
<time>2026-07-13T08:20:48.000Z</time>
</trkpt>
<trkpt lat="56.153454" lon="8.138461">
<ele>1.328971</ele>
<time>2026-07-13T08:20:49.000Z</time>
</trkpt>
<trkpt lat="56.153503" lon="8.138488">
<ele>1.316775</ele>
<time>2026-07-13T08:20:50.000Z</time>
</trkpt>
<trkpt lat="56.153557" lon="8.138514">
<ele>1.303471</ele>
<time>2026-07-13T08:20:51.000Z</time>
</trkpt>
<trkpt lat="56.153610" lon="8.138537">
<ele>1.290497</ele>
<time>2026-07-13T08:20:52.000Z</time>
</trkpt>
<trkpt lat="56.153664" lon="8.138563">
<ele>1.277194</ele>
<time>2026-07-13T08:20:53.000Z</time>
</trkpt>
<trkpt lat="56.153713" lon="8.138588">
<ele>1.265072</ele>
<time>2026-07-13T08:20:54.000Z</time>
</trkpt>
<trkpt lat="56.153767" lon="8.138614">
<ele>1.251769</ele>
<time>2026-07-13T08:20:55.000Z</time>
</trkpt>
<trkpt lat="56.153816" lon="8.138638">
<ele>1.239683</ele>
<time>2026-07-13T08:20:56.000Z</time>
</trkpt>
<trkpt lat="56.153866" lon="8.138663">
<ele>1.227333</ele>
<time>2026-07-13T08:20:57.000Z</time>
</trkpt>
<trkpt lat="56.153919" lon="8.138691">
<ele>1.214187</ele>
<time>2026-07-13T08:20:58.000Z</time>
</trkpt>
<trkpt lat="56.153973" lon="8.138715">
<ele>1.200950</ele>
<time>2026-07-13T08:20:59.000Z</time>
</trkpt>
<trkpt lat="56.154022" lon="8.138739">
<ele>1.188865</ele>
<time>2026-07-13T08:21:00.000Z</time>
</trkpt>
<trkpt lat="56.154076" lon="8.138762">
<ele>1.175659</ele>
<time>2026-07-13T08:21:01.000Z</time>
</trkpt>
<trkpt lat="56.154129" lon="8.138788">
<ele>1.159709</ele>
<time>2026-07-13T08:21:02.000Z</time>
</trkpt>
<trkpt lat="56.154182" lon="8.138815">
<ele>1.141202</ele>
<time>2026-07-13T08:21:03.000Z</time>
</trkpt>
<trkpt lat="56.154232" lon="8.138844">
<ele>1.123551</ele>
<time>2026-07-13T08:21:04.000Z</time>
</trkpt>
<trkpt lat="56.154282" lon="8.138872">
<ele>1.105957</ele>
<time>2026-07-13T08:21:05.000Z</time>
</trkpt>
<trkpt lat="56.154335" lon="8.138902">
<ele>1.087289</ele>
<time>2026-07-13T08:21:06.000Z</time>
</trkpt>
<trkpt lat="56.154388" lon="8.138931">
<ele>1.068677</ele>
<time>2026-07-13T08:21:07.000Z</time>
</trkpt>
<trkpt lat="56.154442" lon="8.138963">
<ele>1.049574</ele>
<time>2026-07-13T08:21:08.000Z</time>
</trkpt>
<trkpt lat="56.154491" lon="8.138995">
<ele>1.032059</ele>
<time>2026-07-13T08:21:09.000Z</time>
</trkpt>
<trkpt lat="56.154545" lon="8.139028">
<ele>1.012897</ele>
<time>2026-07-13T08:21:10.000Z</time>
</trkpt>
<trkpt lat="56.154598" lon="8.139062">
<ele>0.993991</ele>
<time>2026-07-13T08:21:11.000Z</time>
</trkpt>
<trkpt lat="56.154648" lon="8.139095">
<ele>0.976096</ele>
<time>2026-07-13T08:21:12.000Z</time>
</trkpt>
<trkpt lat="56.154701" lon="8.139129">
<ele>0.957190</ele>
<time>2026-07-13T08:21:13.000Z</time>
</trkpt>
<trkpt lat="56.154755" lon="8.139163">
<ele>0.937967</ele>
<time>2026-07-13T08:21:14.000Z</time>
</trkpt>
<trkpt lat="56.154804" lon="8.139197">
<ele>0.920320</ele>
<time>2026-07-13T08:21:15.000Z</time>
</trkpt>
<trkpt lat="56.154854" lon="8.139231">
<ele>0.902359</ele>
<time>2026-07-13T08:21:16.000Z</time>
</trkpt>
<trkpt lat="56.154903" lon="8.139265">
<ele>0.884713</ele>
<time>2026-07-13T08:21:17.000Z</time>
</trkpt>
<trkpt lat="56.154953" lon="8.139299">
<ele>0.866752</ele>
<time>2026-07-13T08:21:18.000Z</time>
</trkpt>
<trkpt lat="56.155006" lon="8.139335">
<ele>0.847717</ele>
<time>2026-07-13T08:21:19.000Z</time>
</trkpt>
<trkpt lat="56.155056" lon="8.139370">
<ele>0.829689</ele>
<time>2026-07-13T08:21:20.000Z</time>
</trkpt>
<trkpt lat="56.155109" lon="8.139406">
<ele>0.810654</ele>
<time>2026-07-13T08:21:21.000Z</time>
</trkpt>
<trkpt lat="56.155163" lon="8.139441">
<ele>0.791368</ele>
<time>2026-07-13T08:21:22.000Z</time>
</trkpt>
<trkpt lat="56.155216" lon="8.139477">
<ele>0.772333</ele>
<time>2026-07-13T08:21:23.000Z</time>
</trkpt>
<trkpt lat="56.155266" lon="8.139511">
<ele>0.754372</ele>
<time>2026-07-13T08:21:24.000Z</time>
</trkpt>
<trkpt lat="56.155319" lon="8.139545">
<ele>0.735466</ele>
<time>2026-07-13T08:21:25.000Z</time>
</trkpt>
<trkpt lat="56.155373" lon="8.139580">
<ele>0.716180</ele>
<time>2026-07-13T08:21:26.000Z</time>
</trkpt>
<trkpt lat="56.155426" lon="8.139614">
<ele>0.697274</ele>
<time>2026-07-13T08:21:27.000Z</time>
</trkpt>
<trkpt lat="56.155476" lon="8.139647">
<ele>0.679379</ele>
<time>2026-07-13T08:21:28.000Z</time>
</trkpt>
<trkpt lat="56.155529" lon="8.139682">
<ele>0.660409</ele>
<time>2026-07-13T08:21:29.000Z</time>
</trkpt>
<trkpt lat="56.155582" lon="8.139717">
<ele>0.641439</ele>
<time>2026-07-13T08:21:30.000Z</time>
</trkpt>
<trkpt lat="56.155636" lon="8.139753">
<ele>0.622089</ele>
<time>2026-07-13T08:21:31.000Z</time>
</trkpt>
<trkpt lat="56.155689" lon="8.139788">
<ele>0.603119</ele>
<time>2026-07-13T08:21:32.000Z</time>
</trkpt>
<trkpt lat="56.155739" lon="8.139823">
<ele>0.585091</ele>
<time>2026-07-13T08:21:33.000Z</time>
</trkpt>
<trkpt lat="56.155792" lon="8.139859">
<ele>0.566056</ele>
<time>2026-07-13T08:21:34.000Z</time>
</trkpt>
<trkpt lat="56.155842" lon="8.139896">
<ele>0.553631</ele>
<time>2026-07-13T08:21:35.000Z</time>
</trkpt>
<trkpt lat="56.155891" lon="8.139932">
<ele>0.541691</ele>
<time>2026-07-13T08:21:36.000Z</time>
</trkpt>
<trkpt lat="56.155945" lon="8.139966">
<ele>0.528786</ele>
<time>2026-07-13T08:21:37.000Z</time>
</trkpt>
<trkpt lat="56.155994" lon="8.139999">
<ele>0.516983</ele>
<time>2026-07-13T08:21:38.000Z</time>
</trkpt>
<trkpt lat="56.156048" lon="8.140033">
<ele>0.504078</ele>
<time>2026-07-13T08:21:39.000Z</time>
</trkpt>
<trkpt lat="56.156097" lon="8.140066">
<ele>0.492276</ele>
<time>2026-07-13T08:21:40.000Z</time>
</trkpt>
<trkpt lat="56.156151" lon="8.140100">
<ele>0.479371</ele>
<time>2026-07-13T08:21:41.000Z</time>
</trkpt>
<trkpt lat="56.156200" lon="8.140133">
<ele>0.467568</ele>
<time>2026-07-13T08:21:42.000Z</time>
</trkpt>
<trkpt lat="56.156250" lon="8.140168">
<ele>0.455466</ele>
<time>2026-07-13T08:21:43.000Z</time>
</trkpt>
<trkpt lat="56.156300" lon="8.140203">
<ele>0.443363</ele>
<time>2026-07-13T08:21:44.000Z</time>
</trkpt>
<trkpt lat="56.156353" lon="8.140237">
<ele>0.430670</ele>
<time>2026-07-13T08:21:45.000Z</time>
</trkpt>
<trkpt lat="56.156403" lon="8.140271">
<ele>0.418613</ele>
<time>2026-07-13T08:21:46.000Z</time>
</trkpt>
<trkpt lat="56.156452" lon="8.140306">
<ele>0.406720</ele>
<time>2026-07-13T08:21:47.000Z</time>
</trkpt>
<trkpt lat="56.156506" lon="8.140341">
<ele>0.393772</ele>
<time>2026-07-13T08:21:48.000Z</time>
</trkpt>
<trkpt lat="56.156555" lon="8.140373">
<ele>0.382014</ele>
<time>2026-07-13T08:21:49.000Z</time>
</trkpt>
<trkpt lat="56.156605" lon="8.140406">
<ele>0.370000</ele>
<time>2026-07-13T08:21:50.000Z</time>
</trkpt>
<trkpt lat="56.156658" lon="8.140439">
<ele>0.357349</ele>
<time>2026-07-13T08:21:51.000Z</time>
</trkpt>
<trkpt lat="56.156708" lon="8.140473">
<ele>0.345291</ele>
<time>2026-07-13T08:21:52.000Z</time>
</trkpt>
<trkpt lat="56.156757" lon="8.140508">
<ele>0.333398</ele>
<time>2026-07-13T08:21:53.000Z</time>
</trkpt>
<trkpt lat="56.156811" lon="8.140541">
<ele>0.320534</ele>
<time>2026-07-13T08:21:54.000Z</time>
</trkpt>
<trkpt lat="56.156864" lon="8.140575">
<ele>0.307842</ele>
<time>2026-07-13T08:21:55.000Z</time>
</trkpt>
<trkpt lat="56.156914" lon="8.140609">
<ele>0.295784</ele>
<time>2026-07-13T08:21:56.000Z</time>
</trkpt>
<trkpt lat="56.156967" lon="8.140643">
<ele>0.283091</ele>
<time>2026-07-13T08:21:57.000Z</time>
</trkpt>
<trkpt lat="56.157017" lon="8.140678">
<ele>0.270989</ele>
<time>2026-07-13T08:21:58.000Z</time>
</trkpt>
<trkpt lat="56.157066" lon="8.140715">
<ele>0.259001</ele>
<time>2026-07-13T08:21:59.000Z</time>
</trkpt>
<trkpt lat="56.157120" lon="8.140750">
<ele>0.246053</ele>
<time>2026-07-13T08:22:00.000Z</time>
</trkpt>
<trkpt lat="56.157169" lon="8.140786">
<ele>0.234114</ele>
<time>2026-07-13T08:22:01.000Z</time>
</trkpt>
<trkpt lat="56.157223" lon="8.140823">
<ele>0.221079</ele>
<time>2026-07-13T08:22:02.000Z</time>
</trkpt>
<trkpt lat="56.157276" lon="8.140858">
<ele>0.208344</ele>
<time>2026-07-13T08:22:03.000Z</time>
</trkpt>
<trkpt lat="56.157326" lon="8.140893">
<ele>0.196241</ele>
<time>2026-07-13T08:22:04.000Z</time>
</trkpt>
<trkpt lat="56.157379" lon="8.140930">
<ele>0.183417</ele>
<time>2026-07-13T08:22:05.000Z</time>
</trkpt>
<trkpt lat="56.157433" lon="8.140966">
<ele>0.170426</ele>
<time>2026-07-13T08:22:06.000Z</time>
</trkpt>
<trkpt lat="56.157486" lon="8.141002">
<ele>0.163416</ele>
<time>2026-07-13T08:22:07.000Z</time>
</trkpt>
<trkpt lat="56.157536" lon="8.141038">
<ele>0.184981</ele>
<time>2026-07-13T08:22:08.000Z</time>
</trkpt>
<trkpt lat="56.157589" lon="8.141075">
<ele>0.207745</ele>
<time>2026-07-13T08:22:09.000Z</time>
</trkpt>
<trkpt lat="56.157639" lon="8.141109">
<ele>0.229147</ele>
<time>2026-07-13T08:22:10.000Z</time>
</trkpt>
<trkpt lat="56.157692" lon="8.141145">
<ele>0.251831</ele>
<time>2026-07-13T08:22:11.000Z</time>
</trkpt>
<trkpt lat="56.157745" lon="8.141181">
<ele>0.274515</ele>
<time>2026-07-13T08:22:12.000Z</time>
</trkpt>
<trkpt lat="56.157795" lon="8.141215">
<ele>0.295918</ele>
<time>2026-07-13T08:22:13.000Z</time>
</trkpt>
<trkpt lat="56.157848" lon="8.141249">
<ele>0.318447</ele>
<time>2026-07-13T08:22:14.000Z</time>
</trkpt>
<trkpt lat="56.157902" lon="8.141281">
<ele>0.341211</ele>
<time>2026-07-13T08:22:15.000Z</time>
</trkpt>
<trkpt lat="56.157951" lon="8.141314">
<ele>0.362161</ele>
<time>2026-07-13T08:22:16.000Z</time>
</trkpt>
<trkpt lat="56.158005" lon="8.141344">
<ele>0.384788</ele>
<time>2026-07-13T08:22:17.000Z</time>
</trkpt>
<trkpt lat="56.158054" lon="8.141372">
<ele>0.405373</ele>
<time>2026-07-13T08:22:18.000Z</time>
</trkpt>
<trkpt lat="56.158104" lon="8.141401">
<ele>0.426407</ele>
<time>2026-07-13T08:22:19.000Z</time>
</trkpt>
<trkpt lat="56.158154" lon="8.141431">
<ele>0.447510</ele>
<time>2026-07-13T08:22:20.000Z</time>
</trkpt>
<trkpt lat="56.158203" lon="8.141459">
<ele>0.468095</ele>
<time>2026-07-13T08:22:21.000Z</time>
</trkpt>
<trkpt lat="56.158253" lon="8.141488">
<ele>0.489129</ele>
<time>2026-07-13T08:22:22.000Z</time>
</trkpt>
<trkpt lat="56.158302" lon="8.141515">
<ele>0.509647</ele>
<time>2026-07-13T08:22:23.000Z</time>
</trkpt>
<trkpt lat="56.158352" lon="8.141540">
<ele>0.530424</ele>
<time>2026-07-13T08:22:24.000Z</time>
</trkpt>
<trkpt lat="56.158405" lon="8.141566">
<ele>0.552418</ele>
<time>2026-07-13T08:22:25.000Z</time>
</trkpt>
<trkpt lat="56.158459" lon="8.141593">
<ele>0.574857</ele>
<time>2026-07-13T08:22:26.000Z</time>
</trkpt>
<trkpt lat="56.158508" lon="8.141621">
<ele>0.595441</ele>
<time>2026-07-13T08:22:27.000Z</time>
</trkpt>
<trkpt lat="56.158562" lon="8.141648">
<ele>0.617881</ele>
<time>2026-07-13T08:22:28.000Z</time>
</trkpt>
<trkpt lat="56.158611" lon="8.141675">
<ele>0.638399</ele>
<time>2026-07-13T08:22:29.000Z</time>
</trkpt>
<trkpt lat="56.158665" lon="8.141700">
<ele>0.660722</ele>
<time>2026-07-13T08:22:30.000Z</time>
</trkpt>
<trkpt lat="56.158718" lon="8.141725">
<ele>0.682659</ele>
<time>2026-07-13T08:22:31.000Z</time>
</trkpt>
<trkpt lat="56.158768" lon="8.141749">
<ele>0.703377</ele>
<time>2026-07-13T08:22:32.000Z</time>
</trkpt>
<trkpt lat="56.158817" lon="8.141773">
<ele>0.723709</ele>
<time>2026-07-13T08:22:33.000Z</time>
</trkpt>
<trkpt lat="56.158871" lon="8.141797">
<ele>0.745978</ele>
<time>2026-07-13T08:22:34.000Z</time>
</trkpt>
<trkpt lat="56.158924" lon="8.141818">
<ele>0.767705</ele>
<time>2026-07-13T08:22:35.000Z</time>
</trkpt>
<trkpt lat="56.158977" lon="8.141838">
<ele>0.789385</ele>
<time>2026-07-13T08:22:36.000Z</time>
</trkpt>
<trkpt lat="56.159027" lon="8.141859">
<ele>0.809941</ele>
<time>2026-07-13T08:22:37.000Z</time>
</trkpt>
<trkpt lat="56.159080" lon="8.141878">
<ele>0.831576</ele>
<time>2026-07-13T08:22:38.000Z</time>
</trkpt>
<trkpt lat="56.159130" lon="8.141896">
<ele>0.851990</ele>
<time>2026-07-13T08:22:39.000Z</time>
</trkpt>
<trkpt lat="56.159180" lon="8.141916">
<ele>0.872496</ele>
<time>2026-07-13T08:22:40.000Z</time>
</trkpt>
<trkpt lat="56.159229" lon="8.141938">
<ele>0.877114</ele>
<time>2026-07-13T08:22:41.000Z</time>
</trkpt>
<trkpt lat="56.159279" lon="8.141959">
<ele>0.872945</ele>
<time>2026-07-13T08:22:42.000Z</time>
</trkpt>
<trkpt lat="56.159328" lon="8.141978">
<ele>0.868876</ele>
<time>2026-07-13T08:22:43.000Z</time>
</trkpt>
<trkpt lat="56.159378" lon="8.141997">
<ele>0.864728</ele>
<time>2026-07-13T08:22:44.000Z</time>
</trkpt>
<trkpt lat="56.159431" lon="8.142017">
<ele>0.860332</ele>
<time>2026-07-13T08:22:45.000Z</time>
</trkpt>
<trkpt lat="56.159481" lon="8.142037">
<ele>0.856173</ele>
<time>2026-07-13T08:22:46.000Z</time>
</trkpt>
<trkpt lat="56.159534" lon="8.142056">
<ele>0.851786</ele>
<time>2026-07-13T08:22:47.000Z</time>
</trkpt>
<trkpt lat="56.159584" lon="8.142076">
<ele>0.847628</ele>
<time>2026-07-13T08:22:48.000Z</time>
</trkpt>
<trkpt lat="56.159634" lon="8.142096">
<ele>0.843470</ele>
<time>2026-07-13T08:22:49.000Z</time>
</trkpt>
<trkpt lat="56.159683" lon="8.142117">
<ele>0.839381</ele>
<time>2026-07-13T08:22:50.000Z</time>
</trkpt>
<trkpt lat="56.159733" lon="8.142137">
<ele>0.835223</ele>
<time>2026-07-13T08:22:51.000Z</time>
</trkpt>
<trkpt lat="56.159782" lon="8.142159">
<ele>0.831123</ele>
<time>2026-07-13T08:22:52.000Z</time>
</trkpt>
<trkpt lat="56.159836" lon="8.142179">
<ele>0.826647</ele>
<time>2026-07-13T08:22:53.000Z</time>
</trkpt>
<trkpt lat="56.159889" lon="8.142200">
<ele>0.822241</ele>
<time>2026-07-13T08:22:54.000Z</time>
</trkpt>
<trkpt lat="56.159943" lon="8.142219">
<ele>0.817775</ele>
<time>2026-07-13T08:22:55.000Z</time>
</trkpt>
<trkpt lat="56.159992" lon="8.142238">
<ele>0.813706</ele>
<time>2026-07-13T08:22:56.000Z</time>
</trkpt>
<trkpt lat="56.160046" lon="8.142259">
<ele>0.809221</ele>
<time>2026-07-13T08:22:57.000Z</time>
</trkpt>
<trkpt lat="56.160095" lon="8.142281">
<ele>0.805121</ele>
<time>2026-07-13T08:22:58.000Z</time>
</trkpt>
<trkpt lat="56.160149" lon="8.142304">
<ele>0.800616</ele>
<time>2026-07-13T08:22:59.000Z</time>
</trkpt>
<trkpt lat="56.160202" lon="8.142324">
<ele>0.796219</ele>
<time>2026-07-13T08:23:00.000Z</time>
</trkpt>
<trkpt lat="56.160252" lon="8.142344">
<ele>0.792061</ele>
<time>2026-07-13T08:23:01.000Z</time>
</trkpt>
<trkpt lat="56.160305" lon="8.142367">
<ele>0.787635</ele>
<time>2026-07-13T08:23:02.000Z</time>
</trkpt>
<trkpt lat="56.160358" lon="8.142391">
<ele>0.783198</ele>
<time>2026-07-13T08:23:03.000Z</time>
</trkpt>
<trkpt lat="56.160412" lon="8.142418">
<ele>0.778648</ele>
<time>2026-07-13T08:23:04.000Z</time>
</trkpt>
<trkpt lat="56.160461" lon="8.142446">
<ele>0.774474</ele>
<time>2026-07-13T08:23:05.000Z</time>
</trkpt>
<trkpt lat="56.160511" lon="8.142475">
<ele>0.770209</ele>
<time>2026-07-13T08:23:06.000Z</time>
</trkpt>
<trkpt lat="56.160561" lon="8.142509">
<ele>0.765869</ele>
<time>2026-07-13T08:23:07.000Z</time>
</trkpt>
<trkpt lat="56.160606" lon="8.142550">
<ele>0.761773</ele>
<time>2026-07-13T08:23:08.000Z</time>
</trkpt>
<trkpt lat="56.160648" lon="8.142593">
<ele>0.757849</ele>
<time>2026-07-13T08:23:09.000Z</time>
</trkpt>
<trkpt lat="56.160690" lon="8.142643">
<ele>0.753758</ele>
<time>2026-07-13T08:23:10.000Z</time>
</trkpt>
<trkpt lat="56.160732" lon="8.142700">
<ele>0.749485</ele>
<time>2026-07-13T08:23:11.000Z</time>
</trkpt>
<trkpt lat="56.160767" lon="8.142768">
<ele>0.745299</ele>
<time>2026-07-13T08:23:12.000Z</time>
</trkpt>
<trkpt lat="56.160801" lon="8.142842">
<ele>0.740963</ele>
<time>2026-07-13T08:23:13.000Z</time>
</trkpt>
<trkpt lat="56.160831" lon="8.142919">
<ele>0.736715</ele>
<time>2026-07-13T08:23:14.000Z</time>
</trkpt>
<trkpt lat="56.160858" lon="8.142996">
<ele>0.759353</ele>
<time>2026-07-13T08:23:15.000Z</time>
</trkpt>
<trkpt lat="56.160885" lon="8.143075">
<ele>0.853472</ele>
<time>2026-07-13T08:23:16.000Z</time>
</trkpt>
<trkpt lat="56.160908" lon="8.143154">
<ele>0.943989</ele>
<time>2026-07-13T08:23:17.000Z</time>
</trkpt>
<trkpt lat="56.160931" lon="8.143234">
<ele>1.035407</ele>
<time>2026-07-13T08:23:18.000Z</time>
</trkpt>
<trkpt lat="56.160954" lon="8.143314">
<ele>1.126825</ele>
<time>2026-07-13T08:23:19.000Z</time>
</trkpt>
<trkpt lat="56.160976" lon="8.143394">
<ele>1.217421</ele>
<time>2026-07-13T08:23:20.000Z</time>
</trkpt>
<trkpt lat="56.160996" lon="8.143472">
<ele>1.304614</ele>
<time>2026-07-13T08:23:21.000Z</time>
</trkpt>
<trkpt lat="56.161015" lon="8.143551">
<ele>1.391991</ele>
<time>2026-07-13T08:23:22.000Z</time>
</trkpt>
<trkpt lat="56.161034" lon="8.143630">
<ele>1.479368</ele>
<time>2026-07-13T08:23:23.000Z</time>
</trkpt>
<trkpt lat="56.161049" lon="8.143708">
<ele>1.563157</ele>
<time>2026-07-13T08:23:24.000Z</time>
</trkpt>
<trkpt lat="56.161068" lon="8.143787">
<ele>1.650534</ele>
<time>2026-07-13T08:23:25.000Z</time>
</trkpt>
<trkpt lat="56.161083" lon="8.143867">
<ele>1.736246</ele>
<time>2026-07-13T08:23:26.000Z</time>
</trkpt>
<trkpt lat="56.161099" lon="8.143947">
<ele>1.822557</ele>
<time>2026-07-13T08:23:27.000Z</time>
</trkpt>
<trkpt lat="56.161114" lon="8.144026">
<ele>1.907306</ele>
<time>2026-07-13T08:23:28.000Z</time>
</trkpt>
<trkpt lat="56.161125" lon="8.144106">
<ele>1.990976</ele>
<time>2026-07-13T08:23:29.000Z</time>
</trkpt>
<trkpt lat="56.161137" lon="8.144186">
<ele>2.075102</ele>
<time>2026-07-13T08:23:30.000Z</time>
</trkpt>
<trkpt lat="56.161148" lon="8.144267">
<ele>2.159758</ele>
<time>2026-07-13T08:23:31.000Z</time>
</trkpt>
<trkpt lat="56.161156" lon="8.144349">
<ele>2.244288</ele>
<time>2026-07-13T08:23:32.000Z</time>
</trkpt>
<trkpt lat="56.161163" lon="8.144431">
<ele>2.328521</ele>
<time>2026-07-13T08:23:33.000Z</time>
</trkpt>
<trkpt lat="56.161167" lon="8.144514">
<ele>2.413113</ele>
<time>2026-07-13T08:23:34.000Z</time>
</trkpt>
<trkpt lat="56.161171" lon="8.144596">
<ele>2.496693</ele>
<time>2026-07-13T08:23:35.000Z</time>
</trkpt>
<trkpt lat="56.161171" lon="8.144679">
<ele>2.580969</ele>
<time>2026-07-13T08:23:36.000Z</time>
</trkpt>
<trkpt lat="56.161171" lon="8.144761">
<ele>2.664230</ele>
<time>2026-07-13T08:23:37.000Z</time>
</trkpt>
<trkpt lat="56.161171" lon="8.144844">
<ele>2.748507</ele>
<time>2026-07-13T08:23:38.000Z</time>
</trkpt>
<trkpt lat="56.161171" lon="8.144927">
<ele>2.832783</ele>
<time>2026-07-13T08:23:39.000Z</time>
</trkpt>
<trkpt lat="56.161167" lon="8.145005">
<ele>2.912318</ele>
<time>2026-07-13T08:23:40.000Z</time>
</trkpt>
<trkpt lat="56.161163" lon="8.145080">
<ele>2.988820</ele>
<time>2026-07-13T08:23:41.000Z</time>
</trkpt>
<trkpt lat="56.161156" lon="8.145152">
<ele>3.063033</ele>
<time>2026-07-13T08:23:42.000Z</time>
</trkpt>
<trkpt lat="56.161152" lon="8.145222">
<ele>3.134483</ele>
<time>2026-07-13T08:23:43.000Z</time>
</trkpt>
<trkpt lat="56.161144" lon="8.145289">
<ele>3.204060</ele>
<time>2026-07-13T08:23:44.000Z</time>
</trkpt>
<trkpt lat="56.161133" lon="8.145354">
<ele>3.273040</ele>
<time>2026-07-13T08:23:45.000Z</time>
</trkpt>
<trkpt lat="56.161129" lon="8.145419">
<ele>3.339441</ele>
<time>2026-07-13T08:23:46.000Z</time>
</trkpt>
<trkpt lat="56.161121" lon="8.145481">
<ele>3.404063</ele>
<time>2026-07-13T08:23:47.000Z</time>
</trkpt>
<trkpt lat="56.161114" lon="8.145543">
<ele>3.468297</ele>
<time>2026-07-13T08:23:48.000Z</time>
</trkpt>
<trkpt lat="56.161106" lon="8.145606">
<ele>3.533908</ele>
<time>2026-07-13T08:23:49.000Z</time>
</trkpt>
<trkpt lat="56.161099" lon="8.145668">
<ele>3.598143</ele>
<time>2026-07-13T08:23:50.000Z</time>
</trkpt>
<trkpt lat="56.161091" lon="8.145732">
<ele>3.664744</ele>
<time>2026-07-13T08:23:51.000Z</time>
</trkpt>
<trkpt lat="56.161079" lon="8.145798">
<ele>3.735241</ele>
<time>2026-07-13T08:23:52.000Z</time>
</trkpt>
<trkpt lat="56.161072" lon="8.145863">
<ele>3.802464</ele>
<time>2026-07-13T08:23:53.000Z</time>
</trkpt>
<trkpt lat="56.161064" lon="8.145929">
<ele>3.871048</ele>
<time>2026-07-13T08:23:54.000Z</time>
</trkpt>
<trkpt lat="56.161053" lon="8.145999">
<ele>3.944901</ele>
<time>2026-07-13T08:23:55.000Z</time>
</trkpt>
<trkpt lat="56.161045" lon="8.146071">
<ele>4.015781</ele>
<time>2026-07-13T08:23:56.000Z</time>
</trkpt>
<trkpt lat="56.161037" lon="8.146143">
<ele>4.045142</ele>
<time>2026-07-13T08:23:57.000Z</time>
</trkpt>
<trkpt lat="56.161026" lon="8.146216">
<ele>4.075385</ele>
<time>2026-07-13T08:23:58.000Z</time>
</trkpt>
<trkpt lat="56.161015" lon="8.146289">
<ele>4.105629</ele>
<time>2026-07-13T08:23:59.000Z</time>
</trkpt>
<trkpt lat="56.161007" lon="8.146361">
<ele>4.134990</ele>
<time>2026-07-13T08:24:00.000Z</time>
</trkpt>
<trkpt lat="56.160999" lon="8.146434">
<ele>4.164743</ele>
<time>2026-07-13T08:24:01.000Z</time>
</trkpt>
<trkpt lat="56.160988" lon="8.146504">
<ele>4.193830</ele>
<time>2026-07-13T08:24:02.000Z</time>
</trkpt>
<trkpt lat="56.160976" lon="8.146575">
<ele>4.223503</ele>
<time>2026-07-13T08:24:03.000Z</time>
</trkpt>
<trkpt lat="56.160965" lon="8.146647">
<ele>4.253360</ele>
<time>2026-07-13T08:24:04.000Z</time>
</trkpt>
<trkpt lat="56.160954" lon="8.146721">
<ele>4.283990</ele>
<time>2026-07-13T08:24:05.000Z</time>
</trkpt>
<trkpt lat="56.160942" lon="8.146797">
<ele>4.315581</ele>
<time>2026-07-13T08:24:06.000Z</time>
</trkpt>
<trkpt lat="56.160934" lon="8.146876">
<ele>4.347693</ele>
<time>2026-07-13T08:24:07.000Z</time>
</trkpt>
<trkpt lat="56.160923" lon="8.146956">
<ele>4.380646</ele>
<time>2026-07-13T08:24:08.000Z</time>
</trkpt>
<trkpt lat="56.160912" lon="8.147037">
<ele>4.413989</ele>
<time>2026-07-13T08:24:09.000Z</time>
</trkpt>
<trkpt lat="56.160904" lon="8.147120">
<ele>4.447675</ele>
<time>2026-07-13T08:24:10.000Z</time>
</trkpt>
<trkpt lat="56.160892" lon="8.147202">
<ele>4.481581</ele>
<time>2026-07-13T08:24:11.000Z</time>
</trkpt>
<trkpt lat="56.160881" lon="8.147284">
<ele>4.515312</ele>
<time>2026-07-13T08:24:12.000Z</time>
</trkpt>
<trkpt lat="56.160870" lon="8.147368">
<ele>4.549821</ele>
<time>2026-07-13T08:24:13.000Z</time>
</trkpt>
<trkpt lat="56.160862" lon="8.147452">
<ele>4.583901</ele>
<time>2026-07-13T08:24:14.000Z</time>
</trkpt>
<trkpt lat="56.160850" lon="8.147535">
<ele>4.618194</ele>
<time>2026-07-13T08:24:15.000Z</time>
</trkpt>
<trkpt lat="56.160835" lon="8.147617">
<ele>4.652711</ele>
<time>2026-07-13T08:24:16.000Z</time>
</trkpt>
<trkpt lat="56.160828" lon="8.147699">
<ele>4.685887</ele>
<time>2026-07-13T08:24:17.000Z</time>
</trkpt>
<trkpt lat="56.160816" lon="8.147782">
<ele>4.720180</ele>
<time>2026-07-13T08:24:18.000Z</time>
</trkpt>
<trkpt lat="56.160809" lon="8.147864">
<ele>4.753356</ele>
<time>2026-07-13T08:24:19.000Z</time>
</trkpt>
<trkpt lat="56.160801" lon="8.147943">
<ele>4.785467</ele>
<time>2026-07-13T08:24:20.000Z</time>
</trkpt>
<trkpt lat="56.160789" lon="8.148019">
<ele>4.817059</ele>
<time>2026-07-13T08:24:21.000Z</time>
</trkpt>
<trkpt lat="56.160786" lon="8.148094">
<ele>4.847130</ele>
<time>2026-07-13T08:24:22.000Z</time>
</trkpt>
<trkpt lat="56.160778" lon="8.148170">
<ele>4.878061</ele>
<time>2026-07-13T08:24:23.000Z</time>
</trkpt>
<trkpt lat="56.160770" lon="8.148244">
<ele>4.908207</ele>
<time>2026-07-13T08:24:24.000Z</time>
</trkpt>
<trkpt lat="56.160763" lon="8.148319">
<ele>4.938619</ele>
<time>2026-07-13T08:24:25.000Z</time>
</trkpt>
<trkpt lat="56.160759" lon="8.148396">
<ele>4.969546</ele>
<time>2026-07-13T08:24:26.000Z</time>
</trkpt>
<trkpt lat="56.160755" lon="8.148473">
<ele>5.000473</ele>
<time>2026-07-13T08:24:27.000Z</time>
</trkpt>
<trkpt lat="56.160755" lon="8.148552">
<ele>5.032066</ele>
<time>2026-07-13T08:24:28.000Z</time>
</trkpt>
<trkpt lat="56.160748" lon="8.148628">
<ele>5.062873</ele>
<time>2026-07-13T08:24:29.000Z</time>
</trkpt>
<trkpt lat="56.160744" lon="8.148703">
<ele>5.093003</ele>
<time>2026-07-13T08:24:30.000Z</time>
</trkpt>
<trkpt lat="56.160740" lon="8.148776">
<ele>5.122338</ele>
<time>2026-07-13T08:24:31.000Z</time>
</trkpt>
<trkpt lat="56.160732" lon="8.148850">
<ele>5.152484</ele>
<time>2026-07-13T08:24:32.000Z</time>
</trkpt>
<trkpt lat="56.160725" lon="8.148925">
<ele>5.182896</ele>
<time>2026-07-13T08:24:33.000Z</time>
</trkpt>
<trkpt lat="56.160717" lon="8.148998">
<ele>5.212650</ele>
<time>2026-07-13T08:24:34.000Z</time>
</trkpt>
<trkpt lat="56.160709" lon="8.149071">
<ele>5.242403</ele>
<time>2026-07-13T08:24:35.000Z</time>
</trkpt>
<trkpt lat="56.160702" lon="8.149144">
<ele>5.272027</ele>
<time>2026-07-13T08:24:36.000Z</time>
</trkpt>
<trkpt lat="56.160698" lon="8.149220">
<ele>5.302555</ele>
<time>2026-07-13T08:24:37.000Z</time>
</trkpt>
<trkpt lat="56.160690" lon="8.149301">
<ele>5.246658</ele>
<time>2026-07-13T08:24:38.000Z</time>
</trkpt>
<trkpt lat="56.160686" lon="8.149382">
<ele>5.184060</ele>
<time>2026-07-13T08:24:39.000Z</time>
</trkpt>
<trkpt lat="56.160679" lon="8.149464">
<ele>5.120200</ele>
<time>2026-07-13T08:24:40.000Z</time>
</trkpt>
<trkpt lat="56.160675" lon="8.149545">
<ele>5.057603</ele>
<time>2026-07-13T08:24:41.000Z</time>
</trkpt>
<trkpt lat="56.160671" lon="8.149625">
<ele>4.995772</ele>
<time>2026-07-13T08:24:42.000Z</time>
</trkpt>
<trkpt lat="56.160667" lon="8.149705">
<ele>4.933942</ele>
<time>2026-07-13T08:24:43.000Z</time>
</trkpt>
<trkpt lat="56.160664" lon="8.149784">
<ele>4.872987</ele>
<time>2026-07-13T08:24:44.000Z</time>
</trkpt>
<trkpt lat="56.160660" lon="8.149860">
<ele>4.814223</ele>
<time>2026-07-13T08:24:45.000Z</time>
</trkpt>
<trkpt lat="56.160660" lon="8.149936">
<ele>4.755719</ele>
<time>2026-07-13T08:24:46.000Z</time>
</trkpt>
<trkpt lat="56.160660" lon="8.150002">
<ele>4.704913</ele>
<time>2026-07-13T08:24:47.000Z</time>
</trkpt>
<trkpt lat="56.160667" lon="8.150055">
<ele>4.662982</ele>
<time>2026-07-13T08:24:48.000Z</time>
</trkpt>
<trkpt lat="56.160679" lon="8.150092">
<ele>4.630022</ele>
<time>2026-07-13T08:24:49.000Z</time>
</trkpt>
<trkpt lat="56.160698" lon="8.150117">
<ele>4.597461</ele>
<time>2026-07-13T08:24:50.000Z</time>
</trkpt>
<trkpt lat="56.160713" lon="8.150130">
<ele>4.574437</ele>
<time>2026-07-13T08:24:51.000Z</time>
</trkpt>
<trkpt lat="56.160732" lon="8.150135">
<ele>4.547892</ele>
<time>2026-07-13T08:26:11.000Z</time>
</trkpt>
<trkpt lat="56.160763" lon="8.150129">
<ele>4.504791</ele>
<time>2026-07-13T08:26:12.000Z</time>
</trkpt>
<trkpt lat="56.160797" lon="8.150126">
<ele>4.457734</ele>
<time>2026-07-13T08:26:13.000Z</time>
</trkpt>
<trkpt lat="56.160820" lon="8.150130">
<ele>4.425791</ele>
<time>2026-07-13T08:26:14.000Z</time>
</trkpt>
<trkpt lat="56.160850" lon="8.150141">
<ele>4.383465</ele>
<time>2026-07-13T08:26:15.000Z</time>
</trkpt>
<trkpt lat="56.160885" lon="8.150152">
<ele>4.334347</ele>
<time>2026-07-13T08:26:16.000Z</time>
</trkpt>
<trkpt lat="56.160915" lon="8.150163">
<ele>4.292021</ele>
<time>2026-07-13T08:26:17.000Z</time>
</trkpt>
<trkpt lat="56.160954" lon="8.150176">
<ele>4.237188</ele>
<time>2026-07-13T08:26:18.000Z</time>
</trkpt>
<trkpt lat="56.160992" lon="8.150189">
<ele>4.183714</ele>
<time>2026-07-13T08:26:19.000Z</time>
</trkpt>
<trkpt lat="56.161030" lon="8.150203">
<ele>4.130090</ele>
<time>2026-07-13T08:26:20.000Z</time>
</trkpt>
<trkpt lat="56.161072" lon="8.150217">
<ele>4.071039</ele>
<time>2026-07-13T08:26:21.000Z</time>
</trkpt>
<trkpt lat="56.161114" lon="8.150232">
<ele>4.011843</ele>
<time>2026-07-13T08:26:22.000Z</time>
</trkpt>
<trkpt lat="56.161156" lon="8.150248">
<ele>3.952492</ele>
<time>2026-07-13T08:26:23.000Z</time>
</trkpt>
<trkpt lat="56.161201" lon="8.150264">
<ele>3.889079</ele>
<time>2026-07-13T08:26:24.000Z</time>
</trkpt>
<trkpt lat="56.161247" lon="8.150279">
<ele>3.824451</ele>
<time>2026-07-13T08:26:25.000Z</time>
</trkpt>
<trkpt lat="56.161293" lon="8.150296">
<ele>3.759530</ele>
<time>2026-07-13T08:26:26.000Z</time>
</trkpt>
<trkpt lat="56.161343" lon="8.150314">
<ele>3.689037</ele>
<time>2026-07-13T08:26:27.000Z</time>
</trkpt>
<trkpt lat="56.161392" lon="8.150331">
<ele>3.620049</ele>
<time>2026-07-13T08:26:28.000Z</time>
</trkpt>
<trkpt lat="56.161442" lon="8.150349">
<ele>3.549556</ele>
<time>2026-07-13T08:26:29.000Z</time>
</trkpt>
<trkpt lat="56.161491" lon="8.150367">
<ele>3.480418</ele>
<time>2026-07-13T08:26:30.000Z</time>
</trkpt>
<trkpt lat="56.161541" lon="8.150386">
<ele>3.409769</ele>
<time>2026-07-13T08:26:31.000Z</time>
</trkpt>
<trkpt lat="56.161587" lon="8.150406">
<ele>3.344344</ele>
<time>2026-07-13T08:26:32.000Z</time>
</trkpt>
<trkpt lat="56.161636" lon="8.150424">
<ele>3.275206</ele>
<time>2026-07-13T08:26:33.000Z</time>
</trkpt>
<trkpt lat="56.161686" lon="8.150439">
<ele>3.205130</ele>
<time>2026-07-13T08:26:34.000Z</time>
</trkpt>
<trkpt lat="56.161736" lon="8.150455">
<ele>3.134924</ele>
<time>2026-07-13T08:26:35.000Z</time>
</trkpt>
<trkpt lat="56.161785" lon="8.150473">
<ele>3.065786</ele>
<time>2026-07-13T08:26:36.000Z</time>
</trkpt>
<trkpt lat="56.161839" lon="8.150497">
<ele>2.988886</ele>
<time>2026-07-13T08:26:37.000Z</time>
</trkpt>
<trkpt lat="56.161892" lon="8.150525">
<ele>2.912517</ele>
<time>2026-07-13T08:26:38.000Z</time>
</trkpt>
<trkpt lat="56.161942" lon="8.150558">
<ele>2.838879</ele>
<time>2026-07-13T08:26:39.000Z</time>
</trkpt>
<trkpt lat="56.161991" lon="8.150596">
<ele>2.784810</ele>
<time>2026-07-13T08:26:40.000Z</time>
</trkpt>
<trkpt lat="56.162037" lon="8.150635">
<ele>2.740337</ele>
<time>2026-07-13T08:26:41.000Z</time>
</trkpt>
<trkpt lat="56.162086" lon="8.150675">
<ele>2.693279</ele>
<time>2026-07-13T08:26:42.000Z</time>
</trkpt>
<trkpt lat="56.162132" lon="8.150719">
<ele>2.647713</ele>
<time>2026-07-13T08:26:43.000Z</time>
</trkpt>
<trkpt lat="56.162178" lon="8.150767">
<ele>2.601201</ele>
<time>2026-07-13T08:26:44.000Z</time>
</trkpt>
<trkpt lat="56.162224" lon="8.150822">
<ele>2.552886</ele>
<time>2026-07-13T08:26:45.000Z</time>
</trkpt>
<trkpt lat="56.162266" lon="8.150885">
<ele>2.505042</ele>
<time>2026-07-13T08:26:46.000Z</time>
</trkpt>
<trkpt lat="56.162308" lon="8.150953">
<ele>2.455603</ele>
<time>2026-07-13T08:26:47.000Z</time>
</trkpt>
<trkpt lat="56.162346" lon="8.151026">
<ele>2.406954</ele>
<time>2026-07-13T08:26:48.000Z</time>
</trkpt>
<trkpt lat="56.162380" lon="8.151104">
<ele>2.358730</ele>
<time>2026-07-13T08:26:49.000Z</time>
</trkpt>
<trkpt lat="56.162415" lon="8.151188">
<ele>2.307655</ele>
<time>2026-07-13T08:26:50.000Z</time>
</trkpt>
<trkpt lat="56.162449" lon="8.151276">
<ele>2.255511</ele>
<time>2026-07-13T08:26:51.000Z</time>
</trkpt>
<trkpt lat="56.162483" lon="8.151364">
<ele>2.203368</ele>
<time>2026-07-13T08:26:52.000Z</time>
</trkpt>
<trkpt lat="56.162510" lon="8.151455">
<ele>2.153170</ele>
<time>2026-07-13T08:26:53.000Z</time>
</trkpt>
<trkpt lat="56.162533" lon="8.151548">
<ele>2.103630</ele>
<time>2026-07-13T08:26:54.000Z</time>
</trkpt>
<trkpt lat="56.162552" lon="8.151645">
<ele>2.053571</ele>
<time>2026-07-13T08:26:55.000Z</time>
</trkpt>
<trkpt lat="56.162575" lon="8.151744">
<ele>2.001348</ele>
<time>2026-07-13T08:26:56.000Z</time>
</trkpt>
<trkpt lat="56.162590" lon="8.151843">
<ele>1.951400</ele>
<time>2026-07-13T08:26:57.000Z</time>
</trkpt>
<trkpt lat="56.162609" lon="8.151941">
<ele>1.900882</ele>
<time>2026-07-13T08:26:58.000Z</time>
</trkpt>
<trkpt lat="56.162628" lon="8.152036">
<ele>1.851740</ele>
<time>2026-07-13T08:26:59.000Z</time>
</trkpt>
<trkpt lat="56.162647" lon="8.152129">
<ele>1.803514</ele>
<time>2026-07-13T08:27:00.000Z</time>
</trkpt>
<trkpt lat="56.162666" lon="8.152220">
<ele>1.756201</ele>
<time>2026-07-13T08:27:01.000Z</time>
</trkpt>
<trkpt lat="56.162685" lon="8.152308">
<ele>1.710252</ele>
<time>2026-07-13T08:27:02.000Z</time>
</trkpt>
<trkpt lat="56.162704" lon="8.152393">
<ele>1.665662</ele>
<time>2026-07-13T08:27:03.000Z</time>
</trkpt>
<trkpt lat="56.162724" lon="8.152482">
<ele>1.618939</ele>
<time>2026-07-13T08:27:04.000Z</time>
</trkpt>
<trkpt lat="56.162743" lon="8.152574">
<ele>1.571170</ele>
<time>2026-07-13T08:27:05.000Z</time>
</trkpt>
<trkpt lat="56.162766" lon="8.152669">
<ele>1.520739</ele>
<time>2026-07-13T08:27:06.000Z</time>
</trkpt>
<trkpt lat="56.162785" lon="8.152763">
<ele>1.472056</ele>
<time>2026-07-13T08:27:07.000Z</time>
</trkpt>
<trkpt lat="56.162804" lon="8.152857">
<ele>1.423372</ele>
<time>2026-07-13T08:27:08.000Z</time>
</trkpt>
<trkpt lat="56.162823" lon="8.152949">
<ele>1.375603</ele>
<time>2026-07-13T08:27:09.000Z</time>
</trkpt>
<trkpt lat="56.162842" lon="8.153043">
<ele>1.326920</ele>
<time>2026-07-13T08:27:10.000Z</time>
</trkpt>
<trkpt lat="56.162861" lon="8.153137">
<ele>1.278236</ele>
<time>2026-07-13T08:27:11.000Z</time>
</trkpt>
<trkpt lat="56.162880" lon="8.153234">
<ele>1.247907</ele>
<time>2026-07-13T08:27:12.000Z</time>
</trkpt>
<trkpt lat="56.162895" lon="8.153327">
<ele>1.252309</ele>
<time>2026-07-13T08:27:13.000Z</time>
</trkpt>
<trkpt lat="56.162914" lon="8.153420">
<ele>1.256813</ele>
<time>2026-07-13T08:27:14.000Z</time>
</trkpt>
<trkpt lat="56.162933" lon="8.153512">
<ele>1.261273</ele>
<time>2026-07-13T08:27:15.000Z</time>
</trkpt>
<trkpt lat="56.162949" lon="8.153604">
<ele>1.265655</ele>
<time>2026-07-13T08:27:16.000Z</time>
</trkpt>
<trkpt lat="56.162968" lon="8.153697">
<ele>1.270159</ele>
<time>2026-07-13T08:27:17.000Z</time>
</trkpt>
<trkpt lat="56.162987" lon="8.153790">
<ele>1.274662</ele>
<time>2026-07-13T08:27:18.000Z</time>
</trkpt>
<trkpt lat="56.163006" lon="8.153882">
<ele>1.279123</ele>
<time>2026-07-13T08:27:19.000Z</time>
</trkpt>
<trkpt lat="56.163025" lon="8.153979">
<ele>1.283798</ele>
<time>2026-07-13T08:27:20.000Z</time>
</trkpt>
<trkpt lat="56.163044" lon="8.154078">
<ele>1.288558</ele>
<time>2026-07-13T08:27:21.000Z</time>
</trkpt>
<trkpt lat="56.163063" lon="8.154177">
<ele>1.293319</ele>
<time>2026-07-13T08:27:22.000Z</time>
</trkpt>
<trkpt lat="56.163086" lon="8.154275">
<ele>1.298154</ele>
<time>2026-07-13T08:27:23.000Z</time>
</trkpt>
<trkpt lat="56.163105" lon="8.154370">
<ele>1.302743</ele>
<time>2026-07-13T08:27:24.000Z</time>
</trkpt>
<trkpt lat="56.163124" lon="8.154467">
<ele>1.307417</ele>
<time>2026-07-13T08:27:25.000Z</time>
</trkpt>
<trkpt lat="56.163147" lon="8.154561">
<ele>1.312085</ele>
<time>2026-07-13T08:27:26.000Z</time>
</trkpt>
<trkpt lat="56.163166" lon="8.154655">
<ele>1.316631</ele>
<time>2026-07-13T08:27:27.000Z</time>
</trkpt>
<trkpt lat="56.163181" lon="8.154749">
<ele>1.321077</ele>
<time>2026-07-13T08:27:28.000Z</time>
</trkpt>
<trkpt lat="56.163200" lon="8.154841">
<ele>1.325537</ele>
<time>2026-07-13T08:27:29.000Z</time>
</trkpt>
<trkpt lat="56.163216" lon="8.154933">
<ele>1.329919</ele>
<time>2026-07-13T08:27:30.000Z</time>
</trkpt>
<trkpt lat="56.163235" lon="8.155024">
<ele>1.334337</ele>
<time>2026-07-13T08:27:31.000Z</time>
</trkpt>
<trkpt lat="56.163254" lon="8.155115">
<ele>1.338756</ele>
<time>2026-07-13T08:27:32.000Z</time>
</trkpt>
<trkpt lat="56.163269" lon="8.155211">
<ele>1.343288</ele>
<time>2026-07-13T08:27:33.000Z</time>
</trkpt>
<trkpt lat="56.163284" lon="8.155303">
<ele>1.347646</ele>
<time>2026-07-13T08:27:34.000Z</time>
</trkpt>
<trkpt lat="56.163303" lon="8.155395">
<ele>1.352107</ele>
<time>2026-07-13T08:27:35.000Z</time>
</trkpt>
<trkpt lat="56.163319" lon="8.155490">
<ele>1.356619</ele>
<time>2026-07-13T08:27:36.000Z</time>
</trkpt>
<trkpt lat="56.163334" lon="8.155585">
<ele>1.361108</ele>
<time>2026-07-13T08:27:37.000Z</time>
</trkpt>
<trkpt lat="56.163345" lon="8.155682">
<ele>1.365609</ele>
<time>2026-07-13T08:27:38.000Z</time>
</trkpt>
<trkpt lat="56.163357" lon="8.155779">
<ele>1.370126</ele>
<time>2026-07-13T08:27:39.000Z</time>
</trkpt>
<trkpt lat="56.163372" lon="8.155875">
<ele>1.374659</ele>
<time>2026-07-13T08:27:40.000Z</time>
</trkpt>
<trkpt lat="56.163384" lon="8.155973">
<ele>1.379220</ele>
<time>2026-07-13T08:27:41.000Z</time>
</trkpt>
<trkpt lat="56.163391" lon="8.156072">
<ele>1.383757</ele>
<time>2026-07-13T08:27:42.000Z</time>
</trkpt>
<trkpt lat="56.163403" lon="8.156171">
<ele>1.388363</ele>
<time>2026-07-13T08:27:43.000Z</time>
</trkpt>
<trkpt lat="56.163414" lon="8.156270">
<ele>1.392953</ele>
<time>2026-07-13T08:27:44.000Z</time>
</trkpt>
<trkpt lat="56.163422" lon="8.156370">
<ele>1.396679</ele>
<time>2026-07-13T08:27:45.000Z</time>
</trkpt>
<trkpt lat="56.163429" lon="8.156470">
<ele>1.400373</ele>
<time>2026-07-13T08:27:46.000Z</time>
</trkpt>
<trkpt lat="56.163441" lon="8.156569">
<ele>1.404088</ele>
<time>2026-07-13T08:27:47.000Z</time>
</trkpt>
<trkpt lat="56.163445" lon="8.156667">
<ele>1.407690</ele>
<time>2026-07-13T08:27:48.000Z</time>
</trkpt>
<trkpt lat="56.163452" lon="8.156764">
<ele>1.411275</ele>
<time>2026-07-13T08:27:49.000Z</time>
</trkpt>
<trkpt lat="56.163460" lon="8.156861">
<ele>1.414870</ele>
<time>2026-07-13T08:27:50.000Z</time>
</trkpt>
<trkpt lat="56.163467" lon="8.156960">
<ele>1.418528</ele>
<time>2026-07-13T08:27:51.000Z</time>
</trkpt>
<trkpt lat="56.163475" lon="8.157058">
<ele>1.422159</ele>
<time>2026-07-13T08:27:52.000Z</time>
</trkpt>
<trkpt lat="56.163483" lon="8.157156">
<ele>1.425790</ele>
<time>2026-07-13T08:27:53.000Z</time>
</trkpt>
<trkpt lat="56.163490" lon="8.157255">
<ele>1.429448</ele>
<time>2026-07-13T08:27:54.000Z</time>
</trkpt>
<trkpt lat="56.163498" lon="8.157355">
<ele>1.433152</ele>
<time>2026-07-13T08:27:55.000Z</time>
</trkpt>
<trkpt lat="56.163506" lon="8.157454">
<ele>1.436819</ele>
<time>2026-07-13T08:27:56.000Z</time>
</trkpt>
<trkpt lat="56.163513" lon="8.157553">
<ele>1.440477</ele>
<time>2026-07-13T08:27:57.000Z</time>
</trkpt>
<trkpt lat="56.163521" lon="8.157651">
<ele>1.444108</ele>
<time>2026-07-13T08:27:58.000Z</time>
</trkpt>
<trkpt lat="56.163525" lon="8.157750">
<ele>1.447747</ele>
<time>2026-07-13T08:27:59.000Z</time>
</trkpt>
<trkpt lat="56.163532" lon="8.157847">
<ele>1.451333</ele>
<time>2026-07-13T08:28:00.000Z</time>
</trkpt>
<trkpt lat="56.163540" lon="8.157943">
<ele>1.454891</ele>
<time>2026-07-13T08:28:01.000Z</time>
</trkpt>
<trkpt lat="56.163548" lon="8.158037">
<ele>1.458377</ele>
<time>2026-07-13T08:28:02.000Z</time>
</trkpt>
<trkpt lat="56.163555" lon="8.158130">
<ele>1.461817</ele>
<time>2026-07-13T08:28:03.000Z</time>
</trkpt>
<trkpt lat="56.163563" lon="8.158223">
<ele>1.465267</ele>
<time>2026-07-13T08:28:04.000Z</time>
</trkpt>
<trkpt lat="56.163567" lon="8.158319">
<ele>1.468796</ele>
<time>2026-07-13T08:28:05.000Z</time>
</trkpt>
<trkpt lat="56.163574" lon="8.158413">
<ele>1.472273</ele>
<time>2026-07-13T08:28:06.000Z</time>
</trkpt>
<trkpt lat="56.163582" lon="8.158507">
<ele>1.475758</ele>
<time>2026-07-13T08:28:07.000Z</time>
</trkpt>
<trkpt lat="56.163589" lon="8.158602">
<ele>1.479271</ele>
<time>2026-07-13T08:28:08.000Z</time>
</trkpt>
<trkpt lat="56.163597" lon="8.158697">
<ele>1.482793</ele>
<time>2026-07-13T08:28:09.000Z</time>
</trkpt>
<trkpt lat="56.163605" lon="8.158792">
<ele>1.486316</ele>
<time>2026-07-13T08:28:10.000Z</time>
</trkpt>
<trkpt lat="56.163612" lon="8.158887">
<ele>1.489829</ele>
<time>2026-07-13T08:28:11.000Z</time>
</trkpt>
<trkpt lat="56.163620" lon="8.158983">
<ele>1.493387</ele>
<time>2026-07-13T08:28:12.000Z</time>
</trkpt>
<trkpt lat="56.163628" lon="8.159081">
<ele>1.497018</ele>
<time>2026-07-13T08:28:13.000Z</time>
</trkpt>
<trkpt lat="56.163635" lon="8.159179">
<ele>1.500640</ele>
<time>2026-07-13T08:28:14.000Z</time>
</trkpt>
<trkpt lat="56.163643" lon="8.159274">
<ele>1.504162</ele>
<time>2026-07-13T08:28:15.000Z</time>
</trkpt>
<trkpt lat="56.163650" lon="8.159370">
<ele>1.507711</ele>
<time>2026-07-13T08:28:16.000Z</time>
</trkpt>
<trkpt lat="56.163662" lon="8.159464">
<ele>1.511246</ele>
<time>2026-07-13T08:28:17.000Z</time>
</trkpt>
<trkpt lat="56.163666" lon="8.159558">
<ele>1.505791</ele>
<time>2026-07-13T08:28:18.000Z</time>
</trkpt>
<trkpt lat="56.163673" lon="8.159654">
<ele>1.499517</ele>
<time>2026-07-13T08:28:19.000Z</time>
</trkpt>
<trkpt lat="56.163681" lon="8.159749">
<ele>1.493291</ele>
<time>2026-07-13T08:28:20.000Z</time>
</trkpt>
<trkpt lat="56.163685" lon="8.159843">
<ele>1.487182</ele>
<time>2026-07-13T08:28:21.000Z</time>
</trkpt>
<trkpt lat="56.163692" lon="8.159939">
<ele>1.480908</ele>
<time>2026-07-13T08:28:22.000Z</time>
</trkpt>
<trkpt lat="56.163700" lon="8.160033">
<ele>1.474746</ele>
<time>2026-07-13T08:28:23.000Z</time>
</trkpt>
<trkpt lat="56.163708" lon="8.160130">
<ele>1.468392</ele>
<time>2026-07-13T08:28:24.000Z</time>
</trkpt>
<trkpt lat="56.163712" lon="8.160225">
<ele>1.462218</ele>
<time>2026-07-13T08:28:25.000Z</time>
</trkpt>
<trkpt lat="56.163719" lon="8.160320">
<ele>1.456009</ele>
<time>2026-07-13T08:28:26.000Z</time>
</trkpt>
<trkpt lat="56.163727" lon="8.160415">
<ele>1.449783</ele>
<time>2026-07-13T08:28:27.000Z</time>
</trkpt>
<trkpt lat="56.163734" lon="8.160510">
<ele>1.443573</ele>
<time>2026-07-13T08:28:28.000Z</time>
</trkpt>
<trkpt lat="56.163738" lon="8.160604">
<ele>1.437464</ele>
<time>2026-07-13T08:28:29.000Z</time>
</trkpt>
<trkpt lat="56.163746" lon="8.160698">
<ele>1.431302</ele>
<time>2026-07-13T08:28:30.000Z</time>
</trkpt>
<trkpt lat="56.163753" lon="8.160792">
<ele>1.425157</ele>
<time>2026-07-13T08:28:31.000Z</time>
</trkpt>
<trkpt lat="56.163761" lon="8.160888">
<ele>1.418867</ele>
<time>2026-07-13T08:28:32.000Z</time>
</trkpt>
<trkpt lat="56.163769" lon="8.160984">
<ele>1.412577</ele>
<time>2026-07-13T08:28:33.000Z</time>
</trkpt>
<trkpt lat="56.163776" lon="8.161078">
<ele>1.406431</ele>
<time>2026-07-13T08:28:34.000Z</time>
</trkpt>
<trkpt lat="56.163780" lon="8.161174">
<ele>1.400193</ele>
<time>2026-07-13T08:28:35.000Z</time>
</trkpt>
<trkpt lat="56.163788" lon="8.161269">
<ele>1.393967</ele>
<time>2026-07-13T08:28:36.000Z</time>
</trkpt>
<trkpt lat="56.163795" lon="8.161365">
<ele>1.387693</ele>
<time>2026-07-13T08:28:37.000Z</time>
</trkpt>
<trkpt lat="56.163803" lon="8.161458">
<ele>1.381596</ele>
<time>2026-07-13T08:28:38.000Z</time>
</trkpt>
<trkpt lat="56.163811" lon="8.161550">
<ele>1.375562</ele>
<time>2026-07-13T08:28:39.000Z</time>
</trkpt>
<trkpt lat="56.163815" lon="8.161644">
<ele>1.369453</ele>
<time>2026-07-13T08:28:40.000Z</time>
</trkpt>
<trkpt lat="56.163822" lon="8.161740">
<ele>1.363179</ele>
<time>2026-07-13T08:28:41.000Z</time>
</trkpt>
<trkpt lat="56.163830" lon="8.161835">
<ele>1.356953</ele>
<time>2026-07-13T08:28:42.000Z</time>
</trkpt>
<trkpt lat="56.163837" lon="8.161927">
<ele>1.350936</ele>
<time>2026-07-13T08:28:43.000Z</time>
</trkpt>
<trkpt lat="56.163845" lon="8.162022">
<ele>1.344710</ele>
<time>2026-07-13T08:28:44.000Z</time>
</trkpt>
<trkpt lat="56.163853" lon="8.162117">
<ele>1.338484</ele>
<time>2026-07-13T08:28:45.000Z</time>
</trkpt>
<trkpt lat="56.163856" lon="8.162211">
<ele>1.332383</ele>
<time>2026-07-13T08:28:46.000Z</time>
</trkpt>
<trkpt lat="56.163864" lon="8.162307">
<ele>1.326093</ele>
<time>2026-07-13T08:28:47.000Z</time>
</trkpt>
<trkpt lat="56.163876" lon="8.162401">
<ele>1.319844</ele>
<time>2026-07-13T08:28:48.000Z</time>
</trkpt>
<trkpt lat="56.163883" lon="8.162495">
<ele>1.313698</ele>
<time>2026-07-13T08:28:49.000Z</time>
</trkpt>
<trkpt lat="56.163891" lon="8.162588">
<ele>1.307601</ele>
<time>2026-07-13T08:28:50.000Z</time>
</trkpt>
<trkpt lat="56.163895" lon="8.162683">
<ele>1.300212</ele>
<time>2026-07-13T08:28:51.000Z</time>
</trkpt>
<trkpt lat="56.163902" lon="8.162779">
<ele>1.283627</ele>
<time>2026-07-13T08:28:52.000Z</time>
</trkpt>
<trkpt lat="56.163910" lon="8.162873">
<ele>1.267337</ele>
<time>2026-07-13T08:28:53.000Z</time>
</trkpt>
<trkpt lat="56.163918" lon="8.162967">
<ele>1.251048</ele>
<time>2026-07-13T08:28:54.000Z</time>
</trkpt>
<trkpt lat="56.163925" lon="8.163061">
<ele>1.234803</ele>
<time>2026-07-13T08:28:55.000Z</time>
</trkpt>
<trkpt lat="56.163929" lon="8.163155">
<ele>1.218654</ele>
<time>2026-07-13T08:28:56.000Z</time>
</trkpt>
<trkpt lat="56.163937" lon="8.163248">
<ele>1.202534</ele>
<time>2026-07-13T08:28:57.000Z</time>
</trkpt>
<trkpt lat="56.163944" lon="8.163340">
<ele>1.186628</ele>
<time>2026-07-13T08:28:58.000Z</time>
</trkpt>
<trkpt lat="56.163952" lon="8.163431">
<ele>1.170847</ele>
<time>2026-07-13T08:28:59.000Z</time>
</trkpt>
<trkpt lat="56.163960" lon="8.163521">
<ele>1.155235</ele>
<time>2026-07-13T08:29:00.000Z</time>
</trkpt>
<trkpt lat="56.163967" lon="8.163607">
<ele>1.140347</ele>
<time>2026-07-13T08:29:01.000Z</time>
</trkpt>
<trkpt lat="56.163971" lon="8.163691">
<ele>1.125905</ele>
<time>2026-07-13T08:29:02.000Z</time>
</trkpt>
<trkpt lat="56.163979" lon="8.163774">
<ele>1.111476</ele>
<time>2026-07-13T08:29:03.000Z</time>
</trkpt>
<trkpt lat="56.163982" lon="8.163860">
<ele>1.096716</ele>
<time>2026-07-13T08:29:04.000Z</time>
</trkpt>
<trkpt lat="56.163990" lon="8.163948">
<ele>1.081442</ele>
<time>2026-07-13T08:29:05.000Z</time>
</trkpt>
<trkpt lat="56.163998" lon="8.164036">
<ele>1.066168</ele>
<time>2026-07-13T08:29:06.000Z</time>
</trkpt>
<trkpt lat="56.164005" lon="8.164125">
<ele>1.050771</ele>
<time>2026-07-13T08:29:07.000Z</time>
</trkpt>
<trkpt lat="56.164013" lon="8.164215">
<ele>1.035159</ele>
<time>2026-07-13T08:29:08.000Z</time>
</trkpt>
<trkpt lat="56.164017" lon="8.164306">
<ele>1.019522</ele>
<time>2026-07-13T08:29:09.000Z</time>
</trkpt>
<trkpt lat="56.164024" lon="8.164399">
<ele>1.003447</ele>
<time>2026-07-13T08:29:10.000Z</time>
</trkpt>
<trkpt lat="56.164032" lon="8.164494">
<ele>0.986988</ele>
<time>2026-07-13T08:29:11.000Z</time>
</trkpt>
<trkpt lat="56.164040" lon="8.164586">
<ele>0.971038</ele>
<time>2026-07-13T08:29:12.000Z</time>
</trkpt>
<trkpt lat="56.164047" lon="8.164680">
<ele>0.954793</ele>
<time>2026-07-13T08:29:13.000Z</time>
</trkpt>
<trkpt lat="56.164059" lon="8.164772">
<ele>0.938607</ele>
<time>2026-07-13T08:29:14.000Z</time>
</trkpt>
<trkpt lat="56.164070" lon="8.164866">
<ele>0.922153</ele>
<time>2026-07-13T08:29:15.000Z</time>
</trkpt>
<trkpt lat="56.164085" lon="8.164958">
<ele>0.905732</ele>
<time>2026-07-13T08:29:16.000Z</time>
</trkpt>
<trkpt lat="56.164097" lon="8.165050">
<ele>0.889546</ele>
<time>2026-07-13T08:29:17.000Z</time>
</trkpt>
<trkpt lat="56.164112" lon="8.165140">
<ele>0.873453</ele>
<time>2026-07-13T08:29:18.000Z</time>
</trkpt>
<trkpt lat="56.164131" lon="8.165230">
<ele>0.856965</ele>
<time>2026-07-13T08:29:19.000Z</time>
</trkpt>
<trkpt lat="56.164150" lon="8.165318">
<ele>0.840798</ele>
<time>2026-07-13T08:29:20.000Z</time>
</trkpt>
<trkpt lat="56.164173" lon="8.165404">
<ele>0.824455</ele>
<time>2026-07-13T08:29:21.000Z</time>
</trkpt>
<trkpt lat="56.164200" lon="8.165490">
<ele>0.807543</ele>
<time>2026-07-13T08:29:22.000Z</time>
</trkpt>
<trkpt lat="56.164227" lon="8.165573">
<ele>0.791077</ele>
<time>2026-07-13T08:29:23.000Z</time>
</trkpt>
<trkpt lat="56.164253" lon="8.165654">
<ele>0.775061</ele>
<time>2026-07-13T08:29:24.000Z</time>
</trkpt>
<trkpt lat="56.164284" lon="8.165733">
<ele>0.758506</ele>
<time>2026-07-13T08:29:25.000Z</time>
</trkpt>
<trkpt lat="56.164318" lon="8.165810">
<ele>0.735441</ele>
<time>2026-07-13T08:29:26.000Z</time>
</trkpt>
<trkpt lat="56.164349" lon="8.165882">
<ele>0.706290</ele>
<time>2026-07-13T08:29:27.000Z</time>
</trkpt>
<trkpt lat="56.164387" lon="8.165953">
<ele>0.674747</ele>
<time>2026-07-13T08:29:28.000Z</time>
</trkpt>
<trkpt lat="56.164425" lon="8.166021">
<ele>0.643890</ele>
<time>2026-07-13T08:29:29.000Z</time>
</trkpt>
<trkpt lat="56.164463" lon="8.166086">
<ele>0.613704</ele>
<time>2026-07-13T08:29:30.000Z</time>
</trkpt>
<trkpt lat="56.164505" lon="8.166148">
<ele>0.582430</ele>
<time>2026-07-13T08:29:31.000Z</time>
</trkpt>
<trkpt lat="56.164547" lon="8.166211">
<ele>0.550952</ele>
<time>2026-07-13T08:29:32.000Z</time>
</trkpt>
<trkpt lat="56.164589" lon="8.166274">
<ele>0.519475</ele>
<time>2026-07-13T08:29:33.000Z</time>
</trkpt>
<trkpt lat="56.164631" lon="8.166337">
<ele>0.487997</ele>
<time>2026-07-13T08:29:34.000Z</time>
</trkpt>
<trkpt lat="56.164673" lon="8.166397">
<ele>0.457126</ele>
<time>2026-07-13T08:29:35.000Z</time>
</trkpt>
<trkpt lat="56.164719" lon="8.166455">
<ele>0.424796</ele>
<time>2026-07-13T08:29:36.000Z</time>
</trkpt>
<trkpt lat="56.164757" lon="8.166513">
<ele>0.396110</ele>
<time>2026-07-13T08:29:37.000Z</time>
</trkpt>
<trkpt lat="56.164803" lon="8.166574">
<ele>0.363218</ele>
<time>2026-07-13T08:29:38.000Z</time>
</trkpt>
<trkpt lat="56.164844" lon="8.166632">
<ele>0.333196</ele>
<time>2026-07-13T08:29:39.000Z</time>
</trkpt>
<trkpt lat="56.164886" lon="8.166690">
<ele>0.302720</ele>
<time>2026-07-13T08:29:40.000Z</time>
</trkpt>
<trkpt lat="56.164928" lon="8.166748">
<ele>0.272244</ele>
<time>2026-07-13T08:29:41.000Z</time>
</trkpt>
<trkpt lat="56.164970" lon="8.166805">
<ele>0.241963</ele>
<time>2026-07-13T08:29:42.000Z</time>
</trkpt>
<trkpt lat="56.165012" lon="8.166862">
<ele>0.211681</ele>
<time>2026-07-13T08:29:43.000Z</time>
</trkpt>
<trkpt lat="56.165054" lon="8.166917">
<ele>0.181781</ele>
<time>2026-07-13T08:29:44.000Z</time>
</trkpt>
<trkpt lat="56.165096" lon="8.166979">
<ele>0.150508</ele>
<time>2026-07-13T08:29:45.000Z</time>
</trkpt>
<trkpt lat="56.165138" lon="8.167045">
<ele>0.118406</ele>
<time>2026-07-13T08:29:46.000Z</time>
</trkpt>
<trkpt lat="56.165180" lon="8.167109">
<ele>0.086722</ele>
<time>2026-07-13T08:29:47.000Z</time>
</trkpt>
<trkpt lat="56.165222" lon="8.167169">
<ele>0.055852</ele>
<time>2026-07-13T08:29:48.000Z</time>
</trkpt>
<trkpt lat="56.165264" lon="8.167229">
<ele>0.024982</ele>
<time>2026-07-13T08:29:49.000Z</time>
</trkpt>
<trkpt lat="56.165310" lon="8.167289">
<ele>-0.007721</ele>
<time>2026-07-13T08:29:50.000Z</time>
</trkpt>
<trkpt lat="56.165352" lon="8.167347">
<ele>-0.038197</ele>
<time>2026-07-13T08:29:51.000Z</time>
</trkpt>
<trkpt lat="56.165394" lon="8.167407">
<ele>-0.069067</ele>
<time>2026-07-13T08:29:52.000Z</time>
</trkpt>
<trkpt lat="56.165440" lon="8.167468">
<ele>-0.101959</ele>
<time>2026-07-13T08:29:53.000Z</time>
</trkpt>
<trkpt lat="56.165482" lon="8.167527">
<ele>-0.132631</ele>
<time>2026-07-13T08:29:54.000Z</time>
</trkpt>
<trkpt lat="56.165523" lon="8.167586">
<ele>-0.162851</ele>
<time>2026-07-13T08:29:55.000Z</time>
</trkpt>
<trkpt lat="56.165565" lon="8.167647">
<ele>-0.193922</ele>
<time>2026-07-13T08:29:56.000Z</time>
</trkpt>
<trkpt lat="56.165607" lon="8.167706">
<ele>-0.224594</ele>
<time>2026-07-13T08:29:57.000Z</time>
</trkpt>
<trkpt lat="56.165653" lon="8.167767">
<ele>-0.257486</ele>
<time>2026-07-13T08:29:58.000Z</time>
</trkpt>
<trkpt lat="56.165695" lon="8.167827">
<ele>-0.286369</ele>
<time>2026-07-13T08:29:59.000Z</time>
</trkpt>
<trkpt lat="56.165737" lon="8.167885">
<ele>-0.293239</ele>
<time>2026-07-13T08:30:00.000Z</time>
</trkpt>
<trkpt lat="56.165779" lon="8.167944">
<ele>-0.300153</ele>
<time>2026-07-13T08:30:01.000Z</time>
</trkpt>
<trkpt lat="56.165825" lon="8.168001">
<ele>-0.307399</ele>
<time>2026-07-13T08:30:02.000Z</time>
</trkpt>
<trkpt lat="56.165867" lon="8.168058">
<ele>-0.314225</ele>
<time>2026-07-13T08:30:03.000Z</time>
</trkpt>
<trkpt lat="56.165909" lon="8.168118">
<ele>-0.321184</ele>
<time>2026-07-13T08:30:04.000Z</time>
</trkpt>
<trkpt lat="56.165955" lon="8.168178">
<ele>-0.328555</ele>
<time>2026-07-13T08:30:05.000Z</time>
</trkpt>
<trkpt lat="56.165997" lon="8.168240">
<ele>-0.335605</ele>
<time>2026-07-13T08:30:06.000Z</time>
</trkpt>
<trkpt lat="56.166038" lon="8.168302">
<ele>-0.342554</ele>
<time>2026-07-13T08:30:07.000Z</time>
</trkpt>
<trkpt lat="56.166080" lon="8.168363">
<ele>-0.349558</ele>
<time>2026-07-13T08:30:08.000Z</time>
</trkpt>
<trkpt lat="56.166122" lon="8.168425">
<ele>-0.356607</ele>
<time>2026-07-13T08:30:09.000Z</time>
</trkpt>
<trkpt lat="56.166168" lon="8.168486">
<ele>-0.364022</ele>
<time>2026-07-13T08:30:10.000Z</time>
</trkpt>
<trkpt lat="56.166210" lon="8.168546">
<ele>-0.370980</ele>
<time>2026-07-13T08:30:11.000Z</time>
</trkpt>
<trkpt lat="56.166252" lon="8.168605">
<ele>-0.377894</ele>
<time>2026-07-13T08:30:12.000Z</time>
</trkpt>
<trkpt lat="56.166298" lon="8.168665">
<ele>-0.385266</ele>
<time>2026-07-13T08:30:13.000Z</time>
</trkpt>
<trkpt lat="56.166340" lon="8.168724">
<ele>-0.392180</ele>
<time>2026-07-13T08:30:14.000Z</time>
</trkpt>
<trkpt lat="56.166382" lon="8.168783">
<ele>-0.399094</ele>
<time>2026-07-13T08:30:15.000Z</time>
</trkpt>
<trkpt lat="56.166424" lon="8.168843">
<ele>-0.406052</ele>
<time>2026-07-13T08:30:16.000Z</time>
</trkpt>
<trkpt lat="56.166470" lon="8.168904">
<ele>-0.413466</ele>
<time>2026-07-13T08:30:17.000Z</time>
</trkpt>
<trkpt lat="56.166512" lon="8.168965">
<ele>-0.420470</ele>
<time>2026-07-13T08:30:18.000Z</time>
</trkpt>
<trkpt lat="56.166550" lon="8.169024">
<ele>-0.426983</ele>
<time>2026-07-13T08:30:19.000Z</time>
</trkpt>
<trkpt lat="56.166592" lon="8.169083">
<ele>-0.433897</ele>
<time>2026-07-13T08:30:20.000Z</time>
</trkpt>
<trkpt lat="56.166634" lon="8.169141">
<ele>-0.440767</ele>
<time>2026-07-13T08:30:21.000Z</time>
</trkpt>
<trkpt lat="56.166676" lon="8.169200">
<ele>-0.447681</ele>
<time>2026-07-13T08:30:22.000Z</time>
</trkpt>
<trkpt lat="56.166717" lon="8.169258">
<ele>-0.454448</ele>
<time>2026-07-13T08:30:23.000Z</time>
</trkpt>
<trkpt lat="56.166763" lon="8.169317">
<ele>-0.461777</ele>
<time>2026-07-13T08:30:24.000Z</time>
</trkpt>
<trkpt lat="56.166805" lon="8.169377">
<ele>-0.468736</ele>
<time>2026-07-13T08:30:25.000Z</time>
</trkpt>
<trkpt lat="56.166843" lon="8.169436">
<ele>-0.475249</ele>
<time>2026-07-13T08:30:26.000Z</time>
</trkpt>
<trkpt lat="56.166889" lon="8.169495">
<ele>-0.482578</ele>
<time>2026-07-13T08:30:27.000Z</time>
</trkpt>
<trkpt lat="56.166931" lon="8.169554">
<ele>-0.489492</ele>
<time>2026-07-13T08:30:28.000Z</time>
</trkpt>
<trkpt lat="56.166973" lon="8.169614">
<ele>-0.496451</ele>
<time>2026-07-13T08:30:29.000Z</time>
</trkpt>
<trkpt lat="56.167015" lon="8.169673">
<ele>-0.503365</ele>
<time>2026-07-13T08:30:30.000Z</time>
</trkpt>
<trkpt lat="56.167057" lon="8.169732">
<ele>-0.510278</ele>
<time>2026-07-13T08:30:31.000Z</time>
</trkpt>
<trkpt lat="56.167099" lon="8.169794">
<ele>-0.517328</ele>
<time>2026-07-13T08:30:32.000Z</time>
</trkpt>
<trkpt lat="56.167145" lon="8.169855">
<ele>-0.499974</ele>
<time>2026-07-13T08:30:33.000Z</time>
</trkpt>
<trkpt lat="56.167187" lon="8.169914">
<ele>-0.477002</ele>
<time>2026-07-13T08:30:34.000Z</time>
</trkpt>
<trkpt lat="56.167229" lon="8.169974">
<ele>-0.453882</ele>
<time>2026-07-13T08:30:35.000Z</time>
</trkpt>
<trkpt lat="56.167271" lon="8.170036">
<ele>-0.430460</ele>
<time>2026-07-13T08:30:36.000Z</time>
</trkpt>
<trkpt lat="56.167313" lon="8.170097">
<ele>-0.407190</ele>
<time>2026-07-13T08:30:37.000Z</time>
</trkpt>
<trkpt lat="56.167358" lon="8.170157">
<ele>-0.383045</ele>
<time>2026-07-13T08:30:38.000Z</time>
</trkpt>
<trkpt lat="56.167400" lon="8.170217">
<ele>-0.359925</ele>
<time>2026-07-13T08:30:39.000Z</time>
</trkpt>
<trkpt lat="56.167442" lon="8.170277">
<ele>-0.336805</ele>
<time>2026-07-13T08:30:40.000Z</time>
</trkpt>
<trkpt lat="56.167484" lon="8.170337">
<ele>-0.313685</ele>
<time>2026-07-13T08:30:41.000Z</time>
</trkpt>
<trkpt lat="56.167526" lon="8.170397">
<ele>-0.290565</ele>
<time>2026-07-13T08:30:42.000Z</time>
</trkpt>
<trkpt lat="56.167568" lon="8.170457">
<ele>-0.267445</ele>
<time>2026-07-13T08:30:43.000Z</time>
</trkpt>
<trkpt lat="56.167610" lon="8.170517">
<ele>-0.244325</ele>
<time>2026-07-13T08:30:44.000Z</time>
</trkpt>
<trkpt lat="56.167652" lon="8.170573">
<ele>-0.221790</ele>
<time>2026-07-13T08:30:45.000Z</time>
</trkpt>
<trkpt lat="56.167698" lon="8.170629">
<ele>-0.197849</ele>
<time>2026-07-13T08:30:46.000Z</time>
</trkpt>
<trkpt lat="56.167740" lon="8.170682">
<ele>-0.175735</ele>
<time>2026-07-13T08:30:47.000Z</time>
</trkpt>
<trkpt lat="56.167786" lon="8.170733">
<ele>-0.152446</ele>
<time>2026-07-13T08:30:48.000Z</time>
</trkpt>
<trkpt lat="56.167831" lon="8.170777">
<ele>-0.130372</ele>
<time>2026-07-13T08:30:49.000Z</time>
</trkpt>
<trkpt lat="56.167881" lon="8.170814">
<ele>-0.107074</ele>
<time>2026-07-13T08:30:50.000Z</time>
</trkpt>
<trkpt lat="56.167931" lon="8.170845">
<ele>-0.084286</ele>
<time>2026-07-13T08:30:51.000Z</time>
</trkpt>
<trkpt lat="56.167980" lon="8.170872">
<ele>-0.062205</ele>
<time>2026-07-13T08:30:52.000Z</time>
</trkpt>
<trkpt lat="56.168030" lon="8.170894">
<ele>-0.040027</ele>
<time>2026-07-13T08:30:53.000Z</time>
</trkpt>
<trkpt lat="56.168083" lon="8.170912">
<ele>-0.016789</ele>
<time>2026-07-13T08:30:54.000Z</time>
</trkpt>
<trkpt lat="56.168137" lon="8.170929">
<ele>0.006830</ele>
<time>2026-07-13T08:30:55.000Z</time>
</trkpt>
<trkpt lat="56.168190" lon="8.170944">
<ele>0.029945</ele>
<time>2026-07-13T08:30:56.000Z</time>
</trkpt>
<trkpt lat="56.168243" lon="8.170958">
<ele>0.053024</ele>
<time>2026-07-13T08:30:57.000Z</time>
</trkpt>
<trkpt lat="56.168297" lon="8.170971">
<ele>0.076496</ele>
<time>2026-07-13T08:30:58.000Z</time>
</trkpt>
<trkpt lat="56.168350" lon="8.170982">
<ele>0.099482</ele>
<time>2026-07-13T08:30:59.000Z</time>
</trkpt>
<trkpt lat="56.168407" lon="8.170995">
<ele>0.124235</ele>
<time>2026-07-13T08:31:00.000Z</time>
</trkpt>
<trkpt lat="56.168461" lon="8.171008">
<ele>0.147708</ele>
<time>2026-07-13T08:31:01.000Z</time>
</trkpt>
<trkpt lat="56.168514" lon="8.171021">
<ele>0.170753</ele>
<time>2026-07-13T08:31:02.000Z</time>
</trkpt>
<trkpt lat="56.168571" lon="8.171036">
<ele>0.195572</ele>
<time>2026-07-13T08:31:03.000Z</time>
</trkpt>
<trkpt lat="56.168625" lon="8.171050">
<ele>0.219077</ele>
<time>2026-07-13T08:31:04.000Z</time>
</trkpt>
<trkpt lat="56.168678" lon="8.171064">
<ele>0.242156</ele>
<time>2026-07-13T08:31:05.000Z</time>
</trkpt>
<trkpt lat="56.168732" lon="8.171079">
<ele>0.261492</ele>
<time>2026-07-13T08:31:06.000Z</time>
</trkpt>
<trkpt lat="56.168785" lon="8.171094">
<ele>0.274708</ele>
<time>2026-07-13T08:31:07.000Z</time>
</trkpt>
<trkpt lat="56.168839" lon="8.171108">
<ele>0.288148</ele>
<time>2026-07-13T08:31:08.000Z</time>
</trkpt>
<trkpt lat="56.168892" lon="8.171121">
<ele>0.301324</ele>
<time>2026-07-13T08:31:09.000Z</time>
</trkpt>
<trkpt lat="56.168949" lon="8.171131">
<ele>0.315431</ele>
<time>2026-07-13T08:31:10.000Z</time>
</trkpt>
<trkpt lat="56.169003" lon="8.171144">
<ele>0.328852</ele>
<time>2026-07-13T08:31:11.000Z</time>
</trkpt>
<trkpt lat="56.169056" lon="8.171159">
<ele>0.342068</ele>
<time>2026-07-13T08:31:12.000Z</time>
</trkpt>
<trkpt lat="56.169105" lon="8.171176">
<ele>0.354361</ele>
<time>2026-07-13T08:31:13.000Z</time>
</trkpt>
<trkpt lat="56.169163" lon="8.171192">
<ele>0.368815</ele>
<time>2026-07-13T08:31:14.000Z</time>
</trkpt>
<trkpt lat="56.169216" lon="8.171206">
<ele>0.382011</ele>
<time>2026-07-13T08:31:15.000Z</time>
</trkpt>
<trkpt lat="56.169270" lon="8.171221">
<ele>0.395470</ele>
<time>2026-07-13T08:31:16.000Z</time>
</trkpt>
<trkpt lat="56.169323" lon="8.171234">
<ele>0.408647</ele>
<time>2026-07-13T08:31:17.000Z</time>
</trkpt>
<trkpt lat="56.169373" lon="8.171246">
<ele>0.421072</ele>
<time>2026-07-13T08:31:18.000Z</time>
</trkpt>
<trkpt lat="56.169426" lon="8.171260">
<ele>0.434268</ele>
<time>2026-07-13T08:31:19.000Z</time>
</trkpt>
<trkpt lat="56.169479" lon="8.171274">
<ele>0.447463</ele>
<time>2026-07-13T08:31:20.000Z</time>
</trkpt>
<trkpt lat="56.169533" lon="8.171288">
<ele>0.460903</ele>
<time>2026-07-13T08:31:21.000Z</time>
</trkpt>
<trkpt lat="56.169586" lon="8.171301">
<ele>0.474079</ele>
<time>2026-07-13T08:31:22.000Z</time>
</trkpt>
<trkpt lat="56.169640" lon="8.171313">
<ele>0.487482</ele>
<time>2026-07-13T08:31:23.000Z</time>
</trkpt>
<trkpt lat="56.169693" lon="8.171328">
<ele>0.500698</ele>
<time>2026-07-13T08:31:24.000Z</time>
</trkpt>
<trkpt lat="56.169746" lon="8.171342">
<ele>0.513894</ele>
<time>2026-07-13T08:31:25.000Z</time>
</trkpt>
<trkpt lat="56.169800" lon="8.171354">
<ele>0.527296</ele>
<time>2026-07-13T08:31:26.000Z</time>
</trkpt>
<trkpt lat="56.169853" lon="8.171368">
<ele>0.540492</ele>
<time>2026-07-13T08:31:27.000Z</time>
</trkpt>
<trkpt lat="56.169907" lon="8.171381">
<ele>0.553912</ele>
<time>2026-07-13T08:31:28.000Z</time>
</trkpt>
<trkpt lat="56.169960" lon="8.171394">
<ele>0.567089</ele>
<time>2026-07-13T08:31:29.000Z</time>
</trkpt>
<trkpt lat="56.170017" lon="8.171409">
<ele>0.581279</ele>
<time>2026-07-13T08:31:30.000Z</time>
</trkpt>
<trkpt lat="56.170071" lon="8.171423">
<ele>0.594718</ele>
<time>2026-07-13T08:31:31.000Z</time>
</trkpt>
<trkpt lat="56.170124" lon="8.171436">
<ele>0.607895</ele>
<time>2026-07-13T08:31:32.000Z</time>
</trkpt>
<trkpt lat="56.170177" lon="8.171452">
<ele>0.621133</ele>
<time>2026-07-13T08:31:33.000Z</time>
</trkpt>
<trkpt lat="56.170231" lon="8.171468">
<ele>0.634614</ele>
<time>2026-07-13T08:31:34.000Z</time>
</trkpt>
<trkpt lat="56.170284" lon="8.171483">
<ele>0.647830</ele>
<time>2026-07-13T08:31:35.000Z</time>
</trkpt>
<trkpt lat="56.170338" lon="8.171496">
<ele>0.661251</ele>
<time>2026-07-13T08:31:36.000Z</time>
</trkpt>
<trkpt lat="56.170391" lon="8.171510">
<ele>0.674446</ele>
<time>2026-07-13T08:31:37.000Z</time>
</trkpt>
<trkpt lat="56.170441" lon="8.171524">
<ele>0.686911</ele>
<time>2026-07-13T08:31:38.000Z</time>
</trkpt>
<trkpt lat="56.170494" lon="8.171538">
<ele>0.700645</ele>
<time>2026-07-13T08:31:39.000Z</time>
</trkpt>
<trkpt lat="56.170548" lon="8.171552">
<ele>0.720210</ele>
<time>2026-07-13T08:31:40.000Z</time>
</trkpt>
<trkpt lat="56.170601" lon="8.171565">
<ele>0.739392</ele>
<time>2026-07-13T08:31:41.000Z</time>
</trkpt>
<trkpt lat="56.170654" lon="8.171576">
<ele>0.758524</ele>
<time>2026-07-13T08:31:42.000Z</time>
</trkpt>
<trkpt lat="56.170704" lon="8.171589">
<ele>0.776641</ele>
<time>2026-07-13T08:31:43.000Z</time>
</trkpt>
<trkpt lat="56.170757" lon="8.171601">
<ele>0.795797</ele>
<time>2026-07-13T08:31:44.000Z</time>
</trkpt>
<trkpt lat="56.170807" lon="8.171614">
<ele>0.813914</ele>
<time>2026-07-13T08:31:45.000Z</time>
</trkpt>
<trkpt lat="56.170864" lon="8.171627">
<ele>0.834519</ele>
<time>2026-07-13T08:31:46.000Z</time>
</trkpt>
<trkpt lat="56.170917" lon="8.171639">
<ele>0.853675</ele>
<time>2026-07-13T08:31:47.000Z</time>
</trkpt>
<trkpt lat="56.170971" lon="8.171653">
<ele>0.873240</ele>
<time>2026-07-13T08:31:48.000Z</time>
</trkpt>
<trkpt lat="56.171021" lon="8.171667">
<ele>0.891386</ele>
<time>2026-07-13T08:31:49.000Z</time>
</trkpt>
<trkpt lat="56.171070" lon="8.171683">
<ele>0.909246</ele>
<time>2026-07-13T08:31:50.000Z</time>
</trkpt>
<trkpt lat="56.171131" lon="8.171699">
<ele>0.931352</ele>
<time>2026-07-13T08:31:51.000Z</time>
</trkpt>
<trkpt lat="56.171185" lon="8.171714">
<ele>0.950947</ele>
<time>2026-07-13T08:31:52.000Z</time>
</trkpt>
<trkpt lat="56.171238" lon="8.171730">
<ele>0.970219</ele>
<time>2026-07-13T08:31:53.000Z</time>
</trkpt>
<trkpt lat="56.171295" lon="8.171744">
<ele>0.990849</ele>
<time>2026-07-13T08:31:54.000Z</time>
</trkpt>
<trkpt lat="56.171349" lon="8.171757">
<ele>1.010387</ele>
<time>2026-07-13T08:31:55.000Z</time>
</trkpt>
<trkpt lat="56.171402" lon="8.171771">
<ele>1.029597</ele>
<time>2026-07-13T08:31:56.000Z</time>
</trkpt>
<trkpt lat="56.171452" lon="8.171785">
<ele>1.047744</ele>
<time>2026-07-13T08:31:57.000Z</time>
</trkpt>
<trkpt lat="56.171505" lon="8.171800">
<ele>1.066984</ele>
<time>2026-07-13T08:31:58.000Z</time>
</trkpt>
<trkpt lat="56.171558" lon="8.171815">
<ele>1.086224</ele>
<time>2026-07-13T08:31:59.000Z</time>
</trkpt>
<trkpt lat="56.171608" lon="8.171833">
<ele>1.104511</ele>
<time>2026-07-13T08:32:00.000Z</time>
</trkpt>
<trkpt lat="56.171658" lon="8.171855">
<ele>1.122971</ele>
<time>2026-07-13T08:32:01.000Z</time>
</trkpt>
<trkpt lat="56.171711" lon="8.171882">
<ele>1.142726</ele>
<time>2026-07-13T08:32:02.000Z</time>
</trkpt>
<trkpt lat="56.171757" lon="8.171917">
<ele>1.160640</ele>
<time>2026-07-13T08:32:03.000Z</time>
</trkpt>
<trkpt lat="56.171803" lon="8.171963">
<ele>1.179520</ele>
<time>2026-07-13T08:32:04.000Z</time>
</trkpt>
<trkpt lat="56.171844" lon="8.172017">
<ele>1.197751</ele>
<time>2026-07-13T08:32:05.000Z</time>
</trkpt>
<trkpt lat="56.171883" lon="8.172075">
<ele>1.215908</ele>
<time>2026-07-13T08:32:06.000Z</time>
</trkpt>
<trkpt lat="56.171917" lon="8.172137">
<ele>1.233282</ele>
<time>2026-07-13T08:32:07.000Z</time>
</trkpt>
<trkpt lat="56.171951" lon="8.172203">
<ele>1.251233</ele>
<time>2026-07-13T08:32:08.000Z</time>
</trkpt>
<trkpt lat="56.171974" lon="8.172268">
<ele>1.266609</ele>
<time>2026-07-13T08:32:09.000Z</time>
</trkpt>
<trkpt lat="56.171997" lon="8.172328">
<ele>1.281152</ele>
<time>2026-07-13T08:32:10.000Z</time>
</trkpt>
<trkpt lat="56.172020" lon="8.172381">
<ele>1.294567</ele>
<time>2026-07-13T08:32:11.000Z</time>
</trkpt>
<trkpt lat="56.172043" lon="8.172422">
<ele>1.306187</ele>
<time>2026-07-13T08:32:12.000Z</time>
</trkpt>
<trkpt lat="56.172070" lon="8.172442">
<ele>1.316660</ele>
<time>2026-07-13T08:32:13.000Z</time>
</trkpt>
<trkpt lat="56.172096" lon="8.172442">
<ele>1.325984</ele>
<time>2026-07-13T08:32:14.000Z</time>
</trkpt>
<trkpt lat="56.172123" lon="8.172427">
<ele>1.336118</ele>
<time>2026-07-13T08:32:15.000Z</time>
</trkpt>
<trkpt lat="56.172150" lon="8.172401">
<ele>1.343045</ele>
<time>2026-07-13T08:32:16.000Z</time>
</trkpt>
<trkpt lat="56.172176" lon="8.172369">
<ele>1.339944</ele>
<time>2026-07-13T08:32:17.000Z</time>
</trkpt>
<trkpt lat="56.172207" lon="8.172329">
<ele>1.336189</ele>
<time>2026-07-13T08:32:18.000Z</time>
</trkpt>
<trkpt lat="56.172230" lon="8.172291">
<ele>1.333114</ele>
<time>2026-07-13T08:32:19.000Z</time>
</trkpt>
<trkpt lat="56.172257" lon="8.172256">
<ele>1.329838</ele>
<time>2026-07-13T08:32:20.000Z</time>
</trkpt>
<trkpt lat="56.172287" lon="8.172225">
<ele>1.326433</ele>
<time>2026-07-13T08:32:21.000Z</time>
</trkpt>
<trkpt lat="56.172314" lon="8.172194">
<ele>1.323280</ele>
<time>2026-07-13T08:32:22.000Z</time>
</trkpt>
<trkpt lat="56.172344" lon="8.172166">
<ele>1.319954</ele>
<time>2026-07-13T08:32:23.000Z</time>
</trkpt>
<trkpt lat="56.172375" lon="8.172136">
<ele>1.316489</ele>
<time>2026-07-13T08:32:24.000Z</time>
</trkpt>
<trkpt lat="56.172409" lon="8.172103">
<ele>1.312687</ele>
<time>2026-07-13T08:32:25.000Z</time>
</trkpt>
<trkpt lat="56.172443" lon="8.172067">
<ele>1.308803</ele>
<time>2026-07-13T08:32:26.000Z</time>
</trkpt>
<trkpt lat="56.172478" lon="8.172032">
<ele>1.304862</ele>
<time>2026-07-13T08:32:27.000Z</time>
</trkpt>
<trkpt lat="56.172512" lon="8.171997">
<ele>1.301006</ele>
<time>2026-07-13T08:32:28.000Z</time>
</trkpt>
<trkpt lat="56.172550" lon="8.171963">
<ele>1.296830</ele>
<time>2026-07-13T08:32:29.000Z</time>
</trkpt>
<trkpt lat="56.172588" lon="8.171929">
<ele>1.292653</ele>
<time>2026-07-13T08:32:30.000Z</time>
</trkpt>
<trkpt lat="56.172626" lon="8.171897">
<ele>1.288523</ele>
<time>2026-07-13T08:32:31.000Z</time>
</trkpt>
<trkpt lat="56.172668" lon="8.171866">
<ele>1.284056</ele>
<time>2026-07-13T08:32:32.000Z</time>
</trkpt>
<trkpt lat="56.172707" lon="8.171833">
<ele>1.279814</ele>
<time>2026-07-13T08:32:33.000Z</time>
</trkpt>
<trkpt lat="56.172749" lon="8.171800">
<ele>1.275304</ele>
<time>2026-07-13T08:32:34.000Z</time>
</trkpt>
<trkpt lat="56.172787" lon="8.171762">
<ele>1.271025</ele>
<time>2026-07-13T08:32:35.000Z</time>
</trkpt>
<trkpt lat="56.172821" lon="8.171725">
<ele>1.267113</ele>
<time>2026-07-13T08:32:36.000Z</time>
</trkpt>
<trkpt lat="56.172855" lon="8.171689">
<ele>1.263230</ele>
<time>2026-07-13T08:32:37.000Z</time>
</trkpt>
<trkpt lat="56.172890" lon="8.171657">
<ele>1.259366</ele>
<time>2026-07-13T08:32:38.000Z</time>
</trkpt>
<trkpt lat="56.172920" lon="8.171629">
<ele>1.256040</ele>
<time>2026-07-13T08:32:39.000Z</time>
</trkpt>
<trkpt lat="56.172951" lon="8.171600">
<ele>1.252601</ele>
<time>2026-07-13T08:32:40.000Z</time>
</trkpt>
<trkpt lat="56.172989" lon="8.171569">
<ele>1.248495</ele>
<time>2026-07-13T08:32:41.000Z</time>
</trkpt>
<trkpt lat="56.173023" lon="8.171535">
<ele>1.244666</ele>
<time>2026-07-13T08:32:42.000Z</time>
</trkpt>
<trkpt lat="56.173061" lon="8.171498">
<ele>1.240413</ele>
<time>2026-07-13T08:32:43.000Z</time>
</trkpt>
<trkpt lat="56.173100" lon="8.171458">
<ele>1.235994</ele>
<time>2026-07-13T08:32:44.000Z</time>
</trkpt>
<trkpt lat="56.173138" lon="8.171415">
<ele>1.231576</ele>
<time>2026-07-13T08:32:45.000Z</time>
</trkpt>
<trkpt lat="56.173176" lon="8.171376">
<ele>1.227270</ele>
<time>2026-07-13T08:32:46.000Z</time>
</trkpt>
<trkpt lat="56.173214" lon="8.171337">
<ele>1.222964</ele>
<time>2026-07-13T08:32:47.000Z</time>
</trkpt>
<trkpt lat="56.173252" lon="8.171298">
<ele>1.218658</ele>
<time>2026-07-13T08:32:48.000Z</time>
</trkpt>
<trkpt lat="56.173286" lon="8.171260">
<ele>1.214718</ele>
<time>2026-07-13T08:32:49.000Z</time>
</trkpt>
<trkpt lat="56.173325" lon="8.171223">
<ele>1.210378</ele>
<time>2026-07-13T08:32:50.000Z</time>
</trkpt>
<trkpt lat="56.173359" lon="8.171183">
<ele>1.206379</ele>
<time>2026-07-13T08:32:51.000Z</time>
</trkpt>
<trkpt lat="56.173397" lon="8.171144">
<ele>1.202073</ele>
<time>2026-07-13T08:32:52.000Z</time>
</trkpt>
<trkpt lat="56.173431" lon="8.171108">
<ele>1.198190</ele>
<time>2026-07-13T08:32:53.000Z</time>
</trkpt>
<trkpt lat="56.173462" lon="8.171071">
<ele>1.194528</ele>
<time>2026-07-13T08:32:54.000Z</time>
</trkpt>
<trkpt lat="56.173492" lon="8.171033">
<ele>1.190917</ele>
<time>2026-07-13T08:32:55.000Z</time>
</trkpt>
<trkpt lat="56.173523" lon="8.170996">
<ele>1.187255</ele>
<time>2026-07-13T08:32:56.000Z</time>
</trkpt>
<trkpt lat="56.173557" lon="8.170958">
<ele>1.183315</ele>
<time>2026-07-13T08:32:57.000Z</time>
</trkpt>
<trkpt lat="56.173595" lon="8.170922">
<ele>1.179088</ele>
<time>2026-07-13T08:32:58.000Z</time>
</trkpt>
<trkpt lat="56.173637" lon="8.170890">
<ele>1.174599</ele>
<time>2026-07-13T08:32:59.000Z</time>
</trkpt>
<trkpt lat="56.173676" lon="8.170859">
<ele>1.170403</ele>
<time>2026-07-13T08:33:00.000Z</time>
</trkpt>
<trkpt lat="56.173717" lon="8.170831">
<ele>1.164463</ele>
<time>2026-07-13T08:33:01.000Z</time>
</trkpt>
<trkpt lat="56.173759" lon="8.170803">
<ele>1.151756</ele>
<time>2026-07-13T08:33:02.000Z</time>
</trkpt>
<trkpt lat="56.173801" lon="8.170775">
<ele>1.139049</ele>
<time>2026-07-13T08:33:03.000Z</time>
</trkpt>
<trkpt lat="56.173843" lon="8.170753">
<ele>1.126640</ele>
<time>2026-07-13T08:33:04.000Z</time>
</trkpt>
<trkpt lat="56.173885" lon="8.170739">
<ele>1.114523</ele>
<time>2026-07-13T08:33:05.000Z</time>
</trkpt>
<trkpt lat="56.173923" lon="8.170733">
<ele>1.103703</ele>
<time>2026-07-13T08:33:06.000Z</time>
</trkpt>
<trkpt lat="56.173962" lon="8.170733">
<ele>1.092641</ele>
<time>2026-07-13T08:33:07.000Z</time>
</trkpt>
<trkpt lat="56.174000" lon="8.170737">
<ele>1.081844</ele>
<time>2026-07-13T08:33:08.000Z</time>
</trkpt>
<trkpt lat="56.174042" lon="8.170739">
<ele>1.069927</ele>
<time>2026-07-13T08:33:09.000Z</time>
</trkpt>
<trkpt lat="56.174084" lon="8.170743">
<ele>1.057997</ele>
<time>2026-07-13T08:33:10.000Z</time>
</trkpt>
<trkpt lat="56.174130" lon="8.170751">
<ele>1.044889</ele>
<time>2026-07-13T08:33:11.000Z</time>
</trkpt>
<trkpt lat="56.174175" lon="8.170759">
<ele>1.032063</ele>
<time>2026-07-13T08:33:12.000Z</time>
</trkpt>
<trkpt lat="56.174217" lon="8.170771">
<ele>1.020000</ele>
<time>2026-07-13T08:33:13.000Z</time>
</trkpt>
<trkpt lat="56.174263" lon="8.170786">
<ele>1.006739</ele>
<time>2026-07-13T08:33:14.000Z</time>
</trkpt>
<trkpt lat="56.174313" lon="8.170803">
<ele>0.992305</ele>
<time>2026-07-13T08:33:15.000Z</time>
</trkpt>
<trkpt lat="56.174362" lon="8.170822">
<ele>0.978087</ele>
<time>2026-07-13T08:33:16.000Z</time>
</trkpt>
<trkpt lat="56.174408" lon="8.170839">
<ele>0.964766</ele>
<time>2026-07-13T08:33:17.000Z</time>
</trkpt>
<trkpt lat="56.174458" lon="8.170855">
<ele>0.950360</ele>
<time>2026-07-13T08:33:18.000Z</time>
</trkpt>
<trkpt lat="56.174507" lon="8.170872">
<ele>0.936205</ele>
<time>2026-07-13T08:33:19.000Z</time>
</trkpt>
<trkpt lat="56.174561" lon="8.170891">
<ele>0.920597</ele>
<time>2026-07-13T08:33:20.000Z</time>
</trkpt>
<trkpt lat="56.174610" lon="8.170910">
<ele>0.906379</ele>
<time>2026-07-13T08:33:21.000Z</time>
</trkpt>
<trkpt lat="56.174660" lon="8.170928">
<ele>0.891915</ele>
<time>2026-07-13T08:33:22.000Z</time>
</trkpt>
<trkpt lat="56.174709" lon="8.170948">
<ele>0.877662</ele>
<time>2026-07-13T08:33:23.000Z</time>
</trkpt>
<trkpt lat="56.174763" lon="8.170968">
<ele>0.862023</ele>
<time>2026-07-13T08:33:24.000Z</time>
</trkpt>
<trkpt lat="56.174812" lon="8.170989">
<ele>0.847734</ele>
<time>2026-07-13T08:33:25.000Z</time>
</trkpt>
<trkpt lat="56.174858" lon="8.171008">
<ele>0.834346</ele>
<time>2026-07-13T08:33:26.000Z</time>
</trkpt>
<trkpt lat="56.174908" lon="8.171025">
<ele>0.819913</ele>
<time>2026-07-13T08:33:27.000Z</time>
</trkpt>
<trkpt lat="56.174957" lon="8.171043">
<ele>0.805726</ele>
<time>2026-07-13T08:33:28.000Z</time>
</trkpt>
<trkpt lat="56.175007" lon="8.171062">
<ele>0.791231</ele>
<time>2026-07-13T08:33:29.000Z</time>
</trkpt>
<trkpt lat="56.175053" lon="8.171080">
<ele>0.777877</ele>
<time>2026-07-13T08:33:30.000Z</time>
</trkpt>
<trkpt lat="56.175098" lon="8.171095">
<ele>0.764895</ele>
<time>2026-07-13T08:33:31.000Z</time>
</trkpt>
<trkpt lat="56.175144" lon="8.171109">
<ele>0.751662</ele>
<time>2026-07-13T08:33:32.000Z</time>
</trkpt>
<trkpt lat="56.175190" lon="8.171126">
<ele>0.738341</ele>
<time>2026-07-13T08:33:33.000Z</time>
</trkpt>
<trkpt lat="56.175240" lon="8.171144">
<ele>0.723877</ele>
<time>2026-07-13T08:33:34.000Z</time>
</trkpt>
<trkpt lat="56.175285" lon="8.171161">
<ele>0.710834</ele>
<time>2026-07-13T08:33:35.000Z</time>
</trkpt>
<trkpt lat="56.175335" lon="8.171175">
<ele>0.696480</ele>
<time>2026-07-13T08:33:36.000Z</time>
</trkpt>
<trkpt lat="56.175381" lon="8.171187">
<ele>0.683296</ele>
<time>2026-07-13T08:33:37.000Z</time>
</trkpt>
<trkpt lat="56.175426" lon="8.171199">
<ele>0.670392</ele>
<time>2026-07-13T08:33:38.000Z</time>
</trkpt>
<trkpt lat="56.175472" lon="8.171212">
<ele>0.657184</ele>
<time>2026-07-13T08:33:39.000Z</time>
</trkpt>
<trkpt lat="56.175514" lon="8.171227">
<ele>0.655335</ele>
<time>2026-07-13T08:33:40.000Z</time>
</trkpt>
<trkpt lat="56.175556" lon="8.171246">
<ele>0.653826</ele>
<time>2026-07-13T08:33:41.000Z</time>
</trkpt>
<trkpt lat="56.175602" lon="8.171265">
<ele>0.652181</ele>
<time>2026-07-13T08:33:42.000Z</time>
</trkpt>
<trkpt lat="56.175648" lon="8.171282">
<ele>0.650544</ele>
<time>2026-07-13T08:33:43.000Z</time>
</trkpt>
<trkpt lat="56.175694" lon="8.171294">
<ele>0.648924</ele>
<time>2026-07-13T08:33:44.000Z</time>
</trkpt>
<trkpt lat="56.175735" lon="8.171304">
<ele>0.647482</ele>
<time>2026-07-13T08:33:45.000Z</time>
</trkpt>
<trkpt lat="56.175781" lon="8.171313">
<ele>0.645869</ele>
<time>2026-07-13T08:33:46.000Z</time>
</trkpt>
<trkpt lat="56.175827" lon="8.171321">
<ele>0.644258</ele>
<time>2026-07-13T08:33:47.000Z</time>
</trkpt>
<trkpt lat="56.175865" lon="8.171331">
<ele>0.642920</ele>
<time>2026-07-13T08:33:48.000Z</time>
</trkpt>
<trkpt lat="56.175911" lon="8.171346">
<ele>0.641290</ele>
<time>2026-07-13T08:33:49.000Z</time>
</trkpt>
<trkpt lat="56.175957" lon="8.171359">
<ele>0.639667</ele>
<time>2026-07-13T08:33:50.000Z</time>
</trkpt>
<trkpt lat="56.175999" lon="8.171372">
<ele>0.638182</ele>
<time>2026-07-13T08:33:51.000Z</time>
</trkpt>
<trkpt lat="56.176041" lon="8.171390">
<ele>0.636677</ele>
<time>2026-07-13T08:33:52.000Z</time>
</trkpt>
<trkpt lat="56.176083" lon="8.171404">
<ele>0.635188</ele>
<time>2026-07-13T08:33:53.000Z</time>
</trkpt>
<trkpt lat="56.176125" lon="8.171416">
<ele>0.633706</ele>
<time>2026-07-13T08:33:54.000Z</time>
</trkpt>
<trkpt lat="56.176163" lon="8.171430">
<ele>0.632354</ele>
<time>2026-07-13T08:33:55.000Z</time>
</trkpt>
<trkpt lat="56.176205" lon="8.171442">
<ele>0.630872</ele>
<time>2026-07-13T08:33:56.000Z</time>
</trkpt>
<trkpt lat="56.176243" lon="8.171453">
<ele>0.629530</ele>
<time>2026-07-13T08:33:57.000Z</time>
</trkpt>
<trkpt lat="56.176281" lon="8.171462">
<ele>0.628194</ele>
<time>2026-07-13T08:33:58.000Z</time>
</trkpt>
<trkpt lat="56.176323" lon="8.171473">
<ele>0.626715</ele>
<time>2026-07-13T08:33:59.000Z</time>
</trkpt>
<trkpt lat="56.176365" lon="8.171487">
<ele>0.625226</ele>
<time>2026-07-13T08:34:00.000Z</time>
</trkpt>
<trkpt lat="56.176407" lon="8.171500">
<ele>0.623741</ele>
<time>2026-07-13T08:34:01.000Z</time>
</trkpt>
<trkpt lat="56.176449" lon="8.171515">
<ele>0.622248</ele>
<time>2026-07-13T08:34:02.000Z</time>
</trkpt>
<trkpt lat="56.176491" lon="8.171527">
<ele>0.620766</ele>
<time>2026-07-13T08:34:03.000Z</time>
</trkpt>
<trkpt lat="56.176533" lon="8.171538">
<ele>0.619287</ele>
<time>2026-07-13T08:34:04.000Z</time>
</trkpt>
<trkpt lat="56.176579" lon="8.171552">
<ele>0.617660</ele>
<time>2026-07-13T08:34:05.000Z</time>
</trkpt>
<trkpt lat="56.176624" lon="8.171564">
<ele>0.616075</ele>
<time>2026-07-13T08:34:06.000Z</time>
</trkpt>
<trkpt lat="56.176670" lon="8.171575">
<ele>0.614457</ele>
<time>2026-07-13T08:34:07.000Z</time>
</trkpt>
<trkpt lat="56.176720" lon="8.171588">
<ele>0.612697</ele>
<time>2026-07-13T08:34:08.000Z</time>
</trkpt>
<trkpt lat="56.176765" lon="8.171601">
<ele>0.611108</ele>
<time>2026-07-13T08:34:09.000Z</time>
</trkpt>
<trkpt lat="56.176807" lon="8.171615">
<ele>0.609619</ele>
<time>2026-07-13T08:34:10.000Z</time>
</trkpt>
<trkpt lat="56.176853" lon="8.171629">
<ele>0.607993</ele>
<time>2026-07-13T08:34:11.000Z</time>
</trkpt>
<trkpt lat="56.176899" lon="8.171644">
<ele>0.606364</ele>
<time>2026-07-13T08:34:12.000Z</time>
</trkpt>
<trkpt lat="56.176941" lon="8.171659">
<ele>0.604871</ele>
<time>2026-07-13T08:34:13.000Z</time>
</trkpt>
<trkpt lat="56.176983" lon="8.171677">
<ele>0.603366</ele>
<time>2026-07-13T08:34:14.000Z</time>
</trkpt>
<trkpt lat="56.177029" lon="8.171693">
<ele>0.601733</ele>
<time>2026-07-13T08:34:15.000Z</time>
</trkpt>
<trkpt lat="56.177067" lon="8.171706">
<ele>0.600385</ele>
<time>2026-07-13T08:34:16.000Z</time>
</trkpt>
<trkpt lat="56.177109" lon="8.171720">
<ele>0.598896</ele>
<time>2026-07-13T08:34:17.000Z</time>
</trkpt>
<trkpt lat="56.177147" lon="8.171734">
<ele>0.597544</ele>
<time>2026-07-13T08:34:18.000Z</time>
</trkpt>
<trkpt lat="56.177189" lon="8.171749">
<ele>0.596052</ele>
<time>2026-07-13T08:34:19.000Z</time>
</trkpt>
<trkpt lat="56.177227" lon="8.171767">
<ele>0.594682</ele>
<time>2026-07-13T08:34:20.000Z</time>
</trkpt>
<trkpt lat="56.177269" lon="8.171784">
<ele>0.595337</ele>
<time>2026-07-13T08:34:21.000Z</time>
</trkpt>
<trkpt lat="56.177315" lon="8.171799">
<ele>0.597577</ele>
<time>2026-07-13T08:34:22.000Z</time>
</trkpt>
<trkpt lat="56.177357" lon="8.171813">
<ele>0.599624</ele>
<time>2026-07-13T08:34:23.000Z</time>
</trkpt>
<trkpt lat="56.177399" lon="8.171826">
<ele>0.601666</ele>
<time>2026-07-13T08:34:24.000Z</time>
</trkpt>
<trkpt lat="56.177444" lon="8.171839">
<ele>0.603849</ele>
<time>2026-07-13T08:34:25.000Z</time>
</trkpt>
<trkpt lat="56.177483" lon="8.171852">
<ele>0.605750</ele>
<time>2026-07-13T08:34:26.000Z</time>
</trkpt>
<trkpt lat="56.177525" lon="8.171867">
<ele>0.607802</ele>
<time>2026-07-13T08:34:27.000Z</time>
</trkpt>
<trkpt lat="56.177570" lon="8.171885">
<ele>0.610011</ele>
<time>2026-07-13T08:34:28.000Z</time>
</trkpt>
<trkpt lat="56.177609" lon="8.171903">
<ele>0.611940</ele>
<time>2026-07-13T08:34:29.000Z</time>
</trkpt>
<trkpt lat="56.177654" lon="8.171922">
<ele>0.614155</ele>
<time>2026-07-13T08:34:30.000Z</time>
</trkpt>
<trkpt lat="56.177696" lon="8.171940">
<ele>0.616224</ele>
<time>2026-07-13T08:34:31.000Z</time>
</trkpt>
<trkpt lat="56.177738" lon="8.171958">
<ele>0.618293</ele>
<time>2026-07-13T08:34:32.000Z</time>
</trkpt>
<trkpt lat="56.177776" lon="8.171974">
<ele>0.620163</ele>
<time>2026-07-13T08:34:33.000Z</time>
</trkpt>
<trkpt lat="56.177814" lon="8.171991">
<ele>0.622039</ele>
<time>2026-07-13T08:34:34.000Z</time>
</trkpt>
<trkpt lat="56.177853" lon="8.172010">
<ele>0.623975</ele>
<time>2026-07-13T08:34:35.000Z</time>
</trkpt>
<trkpt lat="56.177891" lon="8.172031">
<ele>0.625880</ele>
<time>2026-07-13T08:34:36.000Z</time>
</trkpt>
<trkpt lat="56.177929" lon="8.172052">
<ele>0.627785</ele>
<time>2026-07-13T08:34:37.000Z</time>
</trkpt>
<trkpt lat="56.177963" lon="8.172071">
<ele>0.629491</ele>
<time>2026-07-13T08:34:38.000Z</time>
</trkpt>
<trkpt lat="56.178001" lon="8.172090">
<ele>0.631381</ele>
<time>2026-07-13T08:34:39.000Z</time>
</trkpt>
<trkpt lat="56.178040" lon="8.172105">
<ele>0.633292</ele>
<time>2026-07-13T08:34:40.000Z</time>
</trkpt>
<trkpt lat="56.178082" lon="8.172118">
<ele>0.635334</ele>
<time>2026-07-13T08:34:41.000Z</time>
</trkpt>
<trkpt lat="56.178120" lon="8.172131">
<ele>0.637188</ele>
<time>2026-07-13T08:34:42.000Z</time>
</trkpt>
<trkpt lat="56.178162" lon="8.172142">
<ele>0.639221</ele>
<time>2026-07-13T08:34:43.000Z</time>
</trkpt>
<trkpt lat="56.178200" lon="8.172154">
<ele>0.641070</ele>
<time>2026-07-13T08:34:44.000Z</time>
</trkpt>
<trkpt lat="56.178238" lon="8.172170">
<ele>0.642940</ele>
<time>2026-07-13T08:34:45.000Z</time>
</trkpt>
<trkpt lat="56.178276" lon="8.172186">
<ele>0.644810</ele>
<time>2026-07-13T08:34:46.000Z</time>
</trkpt>
<trkpt lat="56.178318" lon="8.172204">
<ele>0.646879</ele>
<time>2026-07-13T08:34:47.000Z</time>
</trkpt>
<trkpt lat="56.178360" lon="8.172227">
<ele>0.648983</ele>
<time>2026-07-13T08:34:48.000Z</time>
</trkpt>
<trkpt lat="56.178402" lon="8.172249">
<ele>0.651079</ele>
<time>2026-07-13T08:34:49.000Z</time>
</trkpt>
<trkpt lat="56.178444" lon="8.172268">
<ele>0.653154</ele>
<time>2026-07-13T08:34:50.000Z</time>
</trkpt>
<trkpt lat="56.178486" lon="8.172287">
<ele>0.655230</ele>
<time>2026-07-13T08:34:51.000Z</time>
</trkpt>
<trkpt lat="56.178524" lon="8.172308">
<ele>0.657135</ele>
<time>2026-07-13T08:34:52.000Z</time>
</trkpt>
<trkpt lat="56.178566" lon="8.172329">
<ele>0.659223</ele>
<time>2026-07-13T08:34:53.000Z</time>
</trkpt>
<trkpt lat="56.178604" lon="8.172351">
<ele>0.661136</ele>
<time>2026-07-13T08:34:54.000Z</time>
</trkpt>
<trkpt lat="56.178642" lon="8.172371">
<ele>0.663034</ele>
<time>2026-07-13T08:34:55.000Z</time>
</trkpt>
<trkpt lat="56.178684" lon="8.172388">
<ele>0.665097</ele>
<time>2026-07-13T08:34:56.000Z</time>
</trkpt>
<trkpt lat="56.178726" lon="8.172407">
<ele>0.667172</ele>
<time>2026-07-13T08:34:57.000Z</time>
</trkpt>
<trkpt lat="56.178768" lon="8.172425">
<ele>0.669241</ele>
<time>2026-07-13T08:34:58.000Z</time>
</trkpt>
<trkpt lat="56.178810" lon="8.172441">
<ele>0.671298</ele>
<time>2026-07-13T08:34:59.000Z</time>
</trkpt>
<trkpt lat="56.178852" lon="8.172451">
<ele>0.673328</ele>
<time>2026-07-13T08:35:00.000Z</time>
</trkpt>
<trkpt lat="56.178898" lon="8.172458">
<ele>0.675540</ele>
<time>2026-07-13T08:35:01.000Z</time>
</trkpt>
<trkpt lat="56.178936" lon="8.172457">
<ele>0.677361</ele>
<time>2026-07-13T08:35:02.000Z</time>
</trkpt>
<trkpt lat="56.178974" lon="8.172449">
<ele>0.679194</ele>
<time>2026-07-13T08:35:03.000Z</time>
</trkpt>
<trkpt lat="56.179008" lon="8.172439">
<ele>0.686480</ele>
<time>2026-07-13T08:35:04.000Z</time>
</trkpt>
<trkpt lat="56.179043" lon="8.172430">
<ele>0.704789</ele>
<time>2026-07-13T08:35:05.000Z</time>
</trkpt>
<trkpt lat="56.179069" lon="8.172425">
<ele>0.718330</ele>
<time>2026-07-13T08:35:06.000Z</time>
</trkpt>
<trkpt lat="56.179096" lon="8.172425">
<ele>0.732312</ele>
<time>2026-07-13T08:35:07.000Z</time>
</trkpt>
<trkpt lat="56.179123" lon="8.172431">
<ele>0.746400</ele>
<time>2026-07-13T08:35:08.000Z</time>
</trkpt>
<trkpt lat="56.179146" lon="8.172438">
<ele>0.758480</ele>
<time>2026-07-13T08:35:09.000Z</time>
</trkpt>
<trkpt lat="56.179169" lon="8.172444">
<ele>0.770516</ele>
<time>2026-07-13T08:35:10.000Z</time>
</trkpt>
<trkpt lat="56.179195" lon="8.172455">
<ele>0.784348</ele>
<time>2026-07-13T08:35:11.000Z</time>
</trkpt>
<trkpt lat="56.179222" lon="8.172468">
<ele>0.798823</ele>
<time>2026-07-13T08:35:12.000Z</time>
</trkpt>
<trkpt lat="56.179260" lon="8.172481">
<ele>0.818855</ele>
<time>2026-07-13T08:35:13.000Z</time>
</trkpt>
<trkpt lat="56.179298" lon="8.172491">
<ele>0.838743</ele>
<time>2026-07-13T08:35:14.000Z</time>
</trkpt>
<trkpt lat="56.179333" lon="8.172497">
<ele>0.856950</ele>
<time>2026-07-13T08:35:15.000Z</time>
</trkpt>
<trkpt lat="56.179363" lon="8.172501">
<ele>0.872529</ele>
<time>2026-07-13T08:35:16.000Z</time>
</trkpt>
<trkpt lat="56.179394" lon="8.172501">
<ele>0.888582</ele>
<time>2026-07-13T08:35:17.000Z</time>
</trkpt>
<trkpt lat="56.179424" lon="8.172502">
<ele>0.904120</ele>
<time>2026-07-13T08:35:18.000Z</time>
</trkpt>
<trkpt lat="56.179459" lon="8.172503">
<ele>0.922247</ele>
<time>2026-07-13T08:35:19.000Z</time>
</trkpt>
<trkpt lat="56.179493" lon="8.172501">
<ele>0.939863</ele>
<time>2026-07-13T08:35:20.000Z</time>
</trkpt>
<trkpt lat="56.179523" lon="8.172491">
<ele>0.955664</ele>
<time>2026-07-13T08:35:21.000Z</time>
</trkpt>
<trkpt lat="56.179554" lon="8.172482">
<ele>0.971925</ele>
<time>2026-07-13T08:35:22.000Z</time>
</trkpt>
<trkpt lat="56.179588" lon="8.172478">
<ele>0.989570</ele>
<time>2026-07-13T08:35:23.000Z</time>
</trkpt>
<trkpt lat="56.179623" lon="8.172476">
<ele>1.007704</ele>
<time>2026-07-13T08:35:24.000Z</time>
</trkpt>
<trkpt lat="56.179653" lon="8.172474">
<ele>1.023250</ele>
<time>2026-07-13T08:35:25.000Z</time>
</trkpt>
<trkpt lat="56.179684" lon="8.172474">
<ele>1.039303</ele>
<time>2026-07-13T08:35:26.000Z</time>
</trkpt>
<trkpt lat="56.179729" lon="8.172478">
<ele>1.062635</ele>
<time>2026-07-13T08:35:27.000Z</time>
</trkpt>
<trkpt lat="56.179783" lon="8.172480">
<ele>1.090604</ele>
<time>2026-07-13T08:35:28.000Z</time>
</trkpt>
<trkpt lat="56.179832" lon="8.172480">
<ele>1.115979</ele>
<time>2026-07-13T08:35:29.000Z</time>
</trkpt>
<trkpt lat="56.179882" lon="8.172482">
<ele>1.141878</ele>
<time>2026-07-13T08:35:30.000Z</time>
</trkpt>
<trkpt lat="56.179932" lon="8.172491">
<ele>1.167900</ele>
<time>2026-07-13T08:35:31.000Z</time>
</trkpt>
<trkpt lat="56.179981" lon="8.172503">
<ele>1.193509</ele>
<time>2026-07-13T08:35:32.000Z</time>
</trkpt>
<trkpt lat="56.180038" lon="8.172511">
<ele>1.223116</ele>
<time>2026-07-13T08:35:33.000Z</time>
</trkpt>
<trkpt lat="56.180096" lon="8.172519">
<ele>1.253240</ele>
<time>2026-07-13T08:35:34.000Z</time>
</trkpt>
<trkpt lat="56.180153" lon="8.172520">
<ele>1.282759</ele>
<time>2026-07-13T08:35:35.000Z</time>
</trkpt>
<trkpt lat="56.180202" lon="8.172513">
<ele>1.308213</ele>
<time>2026-07-13T08:35:36.000Z</time>
</trkpt>
<trkpt lat="56.180252" lon="8.172501">
<ele>1.334336</ele>
<time>2026-07-13T08:35:37.000Z</time>
</trkpt>
<trkpt lat="56.180305" lon="8.172487">
<ele>1.362077</ele>
<time>2026-07-13T08:35:38.000Z</time>
</trkpt>
<trkpt lat="56.180359" lon="8.172474">
<ele>1.390290</ele>
<time>2026-07-13T08:35:39.000Z</time>
</trkpt>
<trkpt lat="56.180408" lon="8.172467">
<ele>1.415745</ele>
<time>2026-07-13T08:35:40.000Z</time>
</trkpt>
<trkpt lat="56.180458" lon="8.172464">
<ele>1.441652</ele>
<time>2026-07-13T08:35:41.000Z</time>
</trkpt>
<trkpt lat="56.180508" lon="8.172463">
<ele>1.467546</ele>
<time>2026-07-13T08:35:42.000Z</time>
</trkpt>
<trkpt lat="56.180546" lon="8.172460">
<ele>1.487243</ele>
<time>2026-07-13T08:35:43.000Z</time>
</trkpt>
<trkpt lat="56.180588" lon="8.172459">
<ele>1.508995</ele>
<time>2026-07-13T08:35:44.000Z</time>
</trkpt>
<trkpt lat="56.180637" lon="8.172458">
<ele>1.534371</ele>
<time>2026-07-13T08:35:45.000Z</time>
</trkpt>
<trkpt lat="56.180687" lon="8.172456">
<ele>1.560270</ele>
<time>2026-07-13T08:35:46.000Z</time>
</trkpt>
<trkpt lat="56.180733" lon="8.172451">
<ele>1.584134</ele>
<time>2026-07-13T08:35:47.000Z</time>
</trkpt>
<trkpt lat="56.180782" lon="8.172448">
<ele>1.609523</ele>
<time>2026-07-13T08:35:48.000Z</time>
</trkpt>
<trkpt lat="56.180836" lon="8.172449">
<ele>1.615274</ele>
<time>2026-07-13T08:35:49.000Z</time>
</trkpt>
<trkpt lat="56.180885" lon="8.172453">
<ele>1.618800</ele>
<time>2026-07-13T08:35:50.000Z</time>
</trkpt>
<trkpt lat="56.180935" lon="8.172457">
<ele>1.622397</ele>
<time>2026-07-13T08:35:51.000Z</time>
</trkpt>
<trkpt lat="56.180984" lon="8.172459">
<ele>1.625920</ele>
<time>2026-07-13T08:35:52.000Z</time>
</trkpt>
<trkpt lat="56.181026" lon="8.172457">
<ele>1.628940</ele>
<time>2026-07-13T08:35:53.000Z</time>
</trkpt>
<trkpt lat="56.181076" lon="8.172456">
<ele>1.632534</ele>
<time>2026-07-13T08:35:54.000Z</time>
</trkpt>
<trkpt lat="56.181122" lon="8.172454">
<ele>1.635841</ele>
<time>2026-07-13T08:35:55.000Z</time>
</trkpt>
<trkpt lat="56.181164" lon="8.172454">
<ele>1.638860</ele>
<time>2026-07-13T08:35:56.000Z</time>
</trkpt>
<trkpt lat="56.181210" lon="8.172455">
<ele>1.642166</ele>
<time>2026-07-13T08:35:57.000Z</time>
</trkpt>
<trkpt lat="56.181252" lon="8.172454">
<ele>1.645185</ele>
<time>2026-07-13T08:35:58.000Z</time>
</trkpt>
<trkpt lat="56.181293" lon="8.172451">
<ele>1.648135</ele>
<time>2026-07-13T08:35:59.000Z</time>
</trkpt>
<trkpt lat="56.181335" lon="8.172451">
<ele>1.651153</ele>
<time>2026-07-13T08:36:00.000Z</time>
</trkpt>
<trkpt lat="56.181381" lon="8.172452">
<ele>1.654460</ele>
<time>2026-07-13T08:36:01.000Z</time>
</trkpt>
<trkpt lat="56.181427" lon="8.172451">
<ele>1.657766</ele>
<time>2026-07-13T08:36:02.000Z</time>
</trkpt>
<trkpt lat="56.181469" lon="8.172450">
<ele>1.660785</ele>
<time>2026-07-13T08:36:03.000Z</time>
</trkpt>
<trkpt lat="56.181515" lon="8.172451">
<ele>1.664092</ele>
<time>2026-07-13T08:36:04.000Z</time>
</trkpt>
<trkpt lat="56.181557" lon="8.172452">
<ele>1.667111</ele>
<time>2026-07-13T08:36:05.000Z</time>
</trkpt>
<trkpt lat="56.181602" lon="8.172452">
<ele>1.670345</ele>
<time>2026-07-13T08:36:06.000Z</time>
</trkpt>
<trkpt lat="56.181644" lon="8.172452">
<ele>1.673364</ele>
<time>2026-07-13T08:36:07.000Z</time>
</trkpt>
<trkpt lat="56.181694" lon="8.172453">
<ele>1.676958</ele>
<time>2026-07-13T08:36:08.000Z</time>
</trkpt>
<trkpt lat="56.181740" lon="8.172456">
<ele>1.680267</ele>
<time>2026-07-13T08:36:09.000Z</time>
</trkpt>
<trkpt lat="56.181782" lon="8.172460">
<ele>1.683290</ele>
<time>2026-07-13T08:36:10.000Z</time>
</trkpt>
<trkpt lat="56.181828" lon="8.172462">
<ele>1.686597</ele>
<time>2026-07-13T08:36:11.000Z</time>
</trkpt>
<trkpt lat="56.181873" lon="8.172464">
<ele>1.689832</ele>
<time>2026-07-13T08:36:12.000Z</time>
</trkpt>
<trkpt lat="56.181915" lon="8.172465">
<ele>1.692851</ele>
<time>2026-07-13T08:36:13.000Z</time>
</trkpt>
<trkpt lat="56.181957" lon="8.172464">
<ele>1.695870</ele>
<time>2026-07-13T08:36:14.000Z</time>
</trkpt>
<trkpt lat="56.181999" lon="8.172463">
<ele>1.698889</ele>
<time>2026-07-13T08:36:15.000Z</time>
</trkpt>
<trkpt lat="56.182045" lon="8.172462">
<ele>1.702196</ele>
<time>2026-07-13T08:36:16.000Z</time>
</trkpt>
<trkpt lat="56.182087" lon="8.172459">
<ele>1.705217</ele>
<time>2026-07-13T08:36:17.000Z</time>
</trkpt>
<trkpt lat="56.182129" lon="8.172456">
<ele>1.708238</ele>
<time>2026-07-13T08:36:18.000Z</time>
</trkpt>
<trkpt lat="56.182175" lon="8.172458">
<ele>1.711545</ele>
<time>2026-07-13T08:36:19.000Z</time>
</trkpt>
<trkpt lat="56.182217" lon="8.172455">
<ele>1.714567</ele>
<time>2026-07-13T08:36:20.000Z</time>
</trkpt>
<trkpt lat="56.182262" lon="8.172450">
<ele>1.717807</ele>
<time>2026-07-13T08:36:21.000Z</time>
</trkpt>
<trkpt lat="56.182308" lon="8.172445">
<ele>1.721120</ele>
<time>2026-07-13T08:36:22.000Z</time>
</trkpt>
<trkpt lat="56.182350" lon="8.172442">
<ele>1.724141</ele>
<time>2026-07-13T08:36:23.000Z</time>
</trkpt>
<trkpt lat="56.182396" lon="8.172441">
<ele>1.727447</ele>
<time>2026-07-13T08:36:24.000Z</time>
</trkpt>
<trkpt lat="56.182442" lon="8.172439">
<ele>1.730754</ele>
<time>2026-07-13T08:36:25.000Z</time>
</trkpt>
<trkpt lat="56.182484" lon="8.172438">
<ele>1.733773</ele>
<time>2026-07-13T08:36:26.000Z</time>
</trkpt>
<trkpt lat="56.182529" lon="8.172436">
<ele>1.737009</ele>
<time>2026-07-13T08:36:27.000Z</time>
</trkpt>
<trkpt lat="56.182575" lon="8.172432">
<ele>1.740319</ele>
<time>2026-07-13T08:36:28.000Z</time>
</trkpt>
<trkpt lat="56.182621" lon="8.172429">
<ele>1.733538</ele>
<time>2026-07-13T08:36:29.000Z</time>
</trkpt>
<trkpt lat="56.182663" lon="8.172427">
<ele>1.725082</ele>
<time>2026-07-13T08:36:30.000Z</time>
</trkpt>
<trkpt lat="56.182705" lon="8.172425">
<ele>1.716627</ele>
<time>2026-07-13T08:36:31.000Z</time>
</trkpt>
<trkpt lat="56.182751" lon="8.172426">
<ele>1.707368</ele>
<time>2026-07-13T08:36:32.000Z</time>
</trkpt>
<trkpt lat="56.182793" lon="8.172425">
<ele>1.698914</ele>
<time>2026-07-13T08:36:33.000Z</time>
</trkpt>
<trkpt lat="56.182842" lon="8.172426">
<ele>1.689052</ele>
<time>2026-07-13T08:36:34.000Z</time>
</trkpt>
<trkpt lat="56.182888" lon="8.172429">
<ele>1.679788</ele>
<time>2026-07-13T08:36:35.000Z</time>
</trkpt>
<trkpt lat="56.182938" lon="8.172434">
<ele>1.669710</ele>
<time>2026-07-13T08:36:36.000Z</time>
</trkpt>
<trkpt lat="56.182983" lon="8.172438">
<ele>1.660642</ele>
<time>2026-07-13T08:36:37.000Z</time>
</trkpt>
<trkpt lat="56.183025" lon="8.172439">
<ele>1.652189</ele>
<time>2026-07-13T08:36:38.000Z</time>
</trkpt>
<trkpt lat="56.183071" lon="8.172441">
<ele>1.642928</ele>
<time>2026-07-13T08:36:39.000Z</time>
</trkpt>
<trkpt lat="56.183117" lon="8.172442">
<ele>1.633670</ele>
<time>2026-07-13T08:36:40.000Z</time>
</trkpt>
<trkpt lat="56.183155" lon="8.172441">
<ele>1.626021</ele>
<time>2026-07-13T08:36:41.000Z</time>
</trkpt>
<trkpt lat="56.183197" lon="8.172439">
<ele>1.617565</ele>
<time>2026-07-13T08:36:42.000Z</time>
</trkpt>
<trkpt lat="56.183243" lon="8.172436">
<ele>1.608301</ele>
<time>2026-07-13T08:36:43.000Z</time>
</trkpt>
<trkpt lat="56.183285" lon="8.172433">
<ele>1.599842</ele>
<time>2026-07-13T08:36:44.000Z</time>
</trkpt>
<trkpt lat="56.183327" lon="8.172429">
<ele>1.591377</ele>
<time>2026-07-13T08:36:45.000Z</time>
</trkpt>
<trkpt lat="56.183376" lon="8.172428">
<ele>1.581515</ele>
<time>2026-07-13T08:36:46.000Z</time>
</trkpt>
<trkpt lat="56.183422" lon="8.172429">
<ele>1.572256</ele>
<time>2026-07-13T08:36:47.000Z</time>
</trkpt>
<trkpt lat="56.183468" lon="8.172430">
<ele>1.562998</ele>
<time>2026-07-13T08:36:48.000Z</time>
</trkpt>
<trkpt lat="56.183514" lon="8.172430">
<ele>1.553740</ele>
<time>2026-07-13T08:36:49.000Z</time>
</trkpt>
<trkpt lat="56.183556" lon="8.172429">
<ele>1.545286</ele>
<time>2026-07-13T08:36:50.000Z</time>
</trkpt>
<trkpt lat="56.183601" lon="8.172427">
<ele>1.536227</ele>
<time>2026-07-13T08:36:51.000Z</time>
</trkpt>
<trkpt lat="56.183647" lon="8.172424">
<ele>1.526963</ele>
<time>2026-07-13T08:36:52.000Z</time>
</trkpt>
<trkpt lat="56.183689" lon="8.172420">
<ele>1.518498</ele>
<time>2026-07-13T08:36:53.000Z</time>
</trkpt>
<trkpt lat="56.183731" lon="8.172415">
<ele>1.510027</ele>
<time>2026-07-13T08:36:54.000Z</time>
</trkpt>
<trkpt lat="56.183773" lon="8.172412">
<ele>1.501568</ele>
<time>2026-07-13T08:36:55.000Z</time>
</trkpt>
<trkpt lat="56.183819" lon="8.172411">
<ele>1.492309</ele>
<time>2026-07-13T08:36:56.000Z</time>
</trkpt>
<trkpt lat="56.183861" lon="8.172411">
<ele>1.483856</ele>
<time>2026-07-13T08:36:57.000Z</time>
</trkpt>
<trkpt lat="56.183910" lon="8.172412">
<ele>1.473994</ele>
<time>2026-07-13T08:36:58.000Z</time>
</trkpt>
<trkpt lat="56.183956" lon="8.172415">
<ele>1.464730</ele>
<time>2026-07-13T08:36:59.000Z</time>
</trkpt>
<trkpt lat="56.184006" lon="8.172421">
<ele>1.454645</ele>
<time>2026-07-13T08:37:00.000Z</time>
</trkpt>
<trkpt lat="56.184055" lon="8.172427">
<ele>1.444760</ele>
<time>2026-07-13T08:37:01.000Z</time>
</trkpt>
<trkpt lat="56.184101" lon="8.172431">
<ele>1.435492</ele>
<time>2026-07-13T08:37:02.000Z</time>
</trkpt>
<trkpt lat="56.184147" lon="8.172431">
<ele>1.426234</ele>
<time>2026-07-13T08:37:03.000Z</time>
</trkpt>
<trkpt lat="56.184193" lon="8.172429">
<ele>1.416973</ele>
<time>2026-07-13T08:37:04.000Z</time>
</trkpt>
<trkpt lat="56.184238" lon="8.172427">
<ele>1.407914</ele>
<time>2026-07-13T08:37:05.000Z</time>
</trkpt>
<trkpt lat="56.184284" lon="8.172426">
<ele>1.398655</ele>
<time>2026-07-13T08:37:06.000Z</time>
</trkpt>
<trkpt lat="56.184330" lon="8.172429">
<ele>1.389391</ele>
<time>2026-07-13T08:37:07.000Z</time>
</trkpt>
<trkpt lat="56.184372" lon="8.172436">
<ele>1.380902</ele>
<time>2026-07-13T08:37:08.000Z</time>
</trkpt>
<trkpt lat="56.184418" lon="8.172445">
<ele>1.374516</ele>
<time>2026-07-13T08:37:09.000Z</time>
</trkpt>
<trkpt lat="56.184463" lon="8.172457">
<ele>1.368986</ele>
<time>2026-07-13T08:37:10.000Z</time>
</trkpt>
<trkpt lat="56.184505" lon="8.172469">
<ele>1.363815</ele>
<time>2026-07-13T08:37:11.000Z</time>
</trkpt>
<trkpt lat="56.184551" lon="8.172479">
<ele>1.358182</ele>
<time>2026-07-13T08:37:12.000Z</time>
</trkpt>
<trkpt lat="56.184597" lon="8.172491">
<ele>1.352531</ele>
<time>2026-07-13T08:37:13.000Z</time>
</trkpt>
<trkpt lat="56.184639" lon="8.172504">
<ele>1.347349</ele>
<time>2026-07-13T08:37:14.000Z</time>
</trkpt>
<trkpt lat="56.184685" lon="8.172520">
<ele>1.341653</ele>
<time>2026-07-13T08:37:15.000Z</time>
</trkpt>
<trkpt lat="56.184727" lon="8.172535">
<ele>1.336447</ele>
<time>2026-07-13T08:37:16.000Z</time>
</trkpt>
<trkpt lat="56.184773" lon="8.172547">
<ele>1.330795</ele>
<time>2026-07-13T08:37:17.000Z</time>
</trkpt>
<trkpt lat="56.184814" lon="8.172559">
<ele>1.325745</ele>
<time>2026-07-13T08:37:18.000Z</time>
</trkpt>
<trkpt lat="56.184860" lon="8.172569">
<ele>1.320112</ele>
<time>2026-07-13T08:37:19.000Z</time>
</trkpt>
<trkpt lat="56.184902" lon="8.172581">
<ele>1.314941</ele>
<time>2026-07-13T08:37:20.000Z</time>
</trkpt>
<trkpt lat="56.184948" lon="8.172590">
<ele>1.309316</ele>
<time>2026-07-13T08:37:21.000Z</time>
</trkpt>
<trkpt lat="56.184990" lon="8.172603">
<ele>1.304134</ele>
<time>2026-07-13T08:37:22.000Z</time>
</trkpt>
<trkpt lat="56.185032" lon="8.172617">
<ele>1.298941</ele>
<time>2026-07-13T08:37:23.000Z</time>
</trkpt>
<trkpt lat="56.185074" lon="8.172632">
<ele>1.293735</ele>
<time>2026-07-13T08:37:24.000Z</time>
</trkpt>
<trkpt lat="56.185120" lon="8.172647">
<ele>1.288051</ele>
<time>2026-07-13T08:37:25.000Z</time>
</trkpt>
<trkpt lat="56.185165" lon="8.172664">
<ele>1.282460</ele>
<time>2026-07-13T08:37:26.000Z</time>
</trkpt>
<trkpt lat="56.185211" lon="8.172679">
<ele>1.276776</ele>
<time>2026-07-13T08:37:27.000Z</time>
</trkpt>
<trkpt lat="56.185257" lon="8.172693">
<ele>1.271104</ele>
<time>2026-07-13T08:37:28.000Z</time>
</trkpt>
<trkpt lat="56.185299" lon="8.172706">
<ele>1.265922</ele>
<time>2026-07-13T08:37:29.000Z</time>
</trkpt>
<trkpt lat="56.185345" lon="8.172718">
<ele>1.260271</ele>
<time>2026-07-13T08:37:30.000Z</time>
</trkpt>
<trkpt lat="56.185390" lon="8.172732">
<ele>1.254719</ele>
<time>2026-07-13T08:37:31.000Z</time>
</trkpt>
<trkpt lat="56.185432" lon="8.172747">
<ele>1.249513</ele>
<time>2026-07-13T08:37:32.000Z</time>
</trkpt>
<trkpt lat="56.185474" lon="8.172758">
<ele>1.244353</ele>
<time>2026-07-13T08:37:33.000Z</time>
</trkpt>
<trkpt lat="56.185516" lon="8.172770">
<ele>1.239182</ele>
<time>2026-07-13T08:37:34.000Z</time>
</trkpt>
<trkpt lat="56.185558" lon="8.172780">
<ele>1.234031</ele>
<time>2026-07-13T08:37:35.000Z</time>
</trkpt>
<trkpt lat="56.185600" lon="8.172790">
<ele>1.228880</ele>
<time>2026-07-13T08:37:36.000Z</time>
</trkpt>
<trkpt lat="56.185642" lon="8.172798">
<ele>1.223745</ele>
<time>2026-07-13T08:37:37.000Z</time>
</trkpt>
<trkpt lat="56.185684" lon="8.172806">
<ele>1.218611</ele>
<time>2026-07-13T08:37:38.000Z</time>
</trkpt>
<trkpt lat="56.185726" lon="8.172815">
<ele>1.213468</ele>
<time>2026-07-13T08:37:39.000Z</time>
</trkpt>
<trkpt lat="56.185772" lon="8.172828">
<ele>1.207807</ele>
<time>2026-07-13T08:37:40.000Z</time>
</trkpt>
<trkpt lat="56.185810" lon="8.172839">
<ele>1.203127</ele>
<time>2026-07-13T08:37:41.000Z</time>
</trkpt>
<trkpt lat="56.185852" lon="8.172850">
<ele>1.197967</ele>
<time>2026-07-13T08:37:42.000Z</time>
</trkpt>
<trkpt lat="56.185894" lon="8.172862">
<ele>1.192797</ele>
<time>2026-07-13T08:37:43.000Z</time>
</trkpt>
<trkpt lat="56.185932" lon="8.172874">
<ele>1.188106</ele>
<time>2026-07-13T08:37:44.000Z</time>
</trkpt>
<trkpt lat="56.185978" lon="8.172887">
<ele>1.182445</ele>
<time>2026-07-13T08:37:45.000Z</time>
</trkpt>
<trkpt lat="56.186020" lon="8.172899">
<ele>1.177274</ele>
<time>2026-07-13T08:37:46.000Z</time>
</trkpt>
<trkpt lat="56.186062" lon="8.172911">
<ele>1.172104</ele>
<time>2026-07-13T08:37:47.000Z</time>
</trkpt>
<trkpt lat="56.186104" lon="8.172921">
<ele>1.166953</ele>
<time>2026-07-13T08:37:48.000Z</time>
</trkpt>
<trkpt lat="56.186146" lon="8.172931">
<ele>1.161802</ele>
<time>2026-07-13T08:37:49.000Z</time>
</trkpt>
<trkpt lat="56.186192" lon="8.172939">
<ele>1.155628</ele>
<time>2026-07-13T08:37:50.000Z</time>
</trkpt>
<trkpt lat="56.186233" lon="8.172949">
<ele>1.149921</ele>
<time>2026-07-13T08:37:51.000Z</time>
</trkpt>
<trkpt lat="56.186275" lon="8.172959">
<ele>1.144077</ele>
<time>2026-07-13T08:37:52.000Z</time>
</trkpt>
<trkpt lat="56.186314" lon="8.172966">
<ele>1.138671</ele>
<time>2026-07-13T08:37:53.000Z</time>
</trkpt>
<trkpt lat="56.186352" lon="8.172975">
<ele>1.133384</ele>
<time>2026-07-13T08:37:54.000Z</time>
</trkpt>
<trkpt lat="56.186394" lon="8.172983">
<ele>1.127558</ele>
<time>2026-07-13T08:37:55.000Z</time>
</trkpt>
<trkpt lat="56.186436" lon="8.172991">
<ele>1.121732</ele>
<time>2026-07-13T08:37:56.000Z</time>
</trkpt>
<trkpt lat="56.186474" lon="8.173000">
<ele>1.116446</ele>
<time>2026-07-13T08:37:57.000Z</time>
</trkpt>
<trkpt lat="56.186512" lon="8.173012">
<ele>1.111124</ele>
<time>2026-07-13T08:37:58.000Z</time>
</trkpt>
<trkpt lat="56.186550" lon="8.173026">
<ele>1.105773</ele>
<time>2026-07-13T08:37:59.000Z</time>
</trkpt>
<trkpt lat="56.186584" lon="8.173044">
<ele>1.100884</ele>
<time>2026-07-13T08:38:00.000Z</time>
</trkpt>
<trkpt lat="56.186619" lon="8.173069">
<ele>1.095689</ele>
<time>2026-07-13T08:38:01.000Z</time>
</trkpt>
<trkpt lat="56.186653" lon="8.173105">
<ele>1.090245</ele>
<time>2026-07-13T08:38:02.000Z</time>
</trkpt>
<trkpt lat="56.186687" lon="8.173145">
<ele>1.084640</ele>
<time>2026-07-13T08:38:03.000Z</time>
</trkpt>
<trkpt lat="56.186722" lon="8.173185">
<ele>1.078918</ele>
<time>2026-07-13T08:38:04.000Z</time>
</trkpt>
<trkpt lat="56.186756" lon="8.173228">
<ele>1.073184</ele>
<time>2026-07-13T08:38:05.000Z</time>
</trkpt>
<trkpt lat="56.186790" lon="8.173273">
<ele>1.067359</ele>
<time>2026-07-13T08:38:06.000Z</time>
</trkpt>
<trkpt lat="56.186825" lon="8.173318">
<ele>1.061423</ele>
<time>2026-07-13T08:38:07.000Z</time>
</trkpt>
<trkpt lat="56.186859" lon="8.173365">
<ele>1.055506</ele>
<time>2026-07-13T08:38:08.000Z</time>
</trkpt>
<trkpt lat="56.186897" lon="8.173409">
<ele>1.049270</ele>
<time>2026-07-13T08:38:09.000Z</time>
</trkpt>
<trkpt lat="56.186932" lon="8.173453">
<ele>1.043378</ele>
<time>2026-07-13T08:38:10.000Z</time>
</trkpt>
<trkpt lat="56.186966" lon="8.173499">
<ele>1.037508</ele>
<time>2026-07-13T08:38:11.000Z</time>
</trkpt>
<trkpt lat="56.187000" lon="8.173543">
<ele>1.031729</ele>
<time>2026-07-13T08:38:12.000Z</time>
</trkpt>
<trkpt lat="56.187035" lon="8.173589">
<ele>1.025747</ele>
<time>2026-07-13T08:38:13.000Z</time>
</trkpt>
<trkpt lat="56.187069" lon="8.173636">
<ele>1.019831</ele>
<time>2026-07-13T08:38:14.000Z</time>
</trkpt>
<trkpt lat="56.187107" lon="8.173684">
<ele>1.013424</ele>
<time>2026-07-13T08:38:15.000Z</time>
</trkpt>
<trkpt lat="56.187141" lon="8.173732">
<ele>1.007460</ele>
<time>2026-07-13T08:38:16.000Z</time>
</trkpt>
<trkpt lat="56.187176" lon="8.173779">
<ele>1.001433</ele>
<time>2026-07-13T08:38:17.000Z</time>
</trkpt>
<trkpt lat="56.187210" lon="8.173826">
<ele>0.995516</ele>
<time>2026-07-13T08:38:18.000Z</time>
</trkpt>
<trkpt lat="56.187244" lon="8.173873">
<ele>0.989599</ele>
<time>2026-07-13T08:38:19.000Z</time>
</trkpt>
<trkpt lat="56.187275" lon="8.173917">
<ele>0.984150</ele>
<time>2026-07-13T08:38:20.000Z</time>
</trkpt>
<trkpt lat="56.187309" lon="8.173961">
<ele>0.978371</ele>
<time>2026-07-13T08:38:21.000Z</time>
</trkpt>
<trkpt lat="56.187340" lon="8.174001">
<ele>0.973106</ele>
<time>2026-07-13T08:38:22.000Z</time>
</trkpt>
<trkpt lat="56.187374" lon="8.174041">
<ele>0.967501</ele>
<time>2026-07-13T08:38:23.000Z</time>
</trkpt>
<trkpt lat="56.187412" lon="8.174085">
<ele>0.961266</ele>
<time>2026-07-13T08:38:24.000Z</time>
</trkpt>
<trkpt lat="56.187450" lon="8.174129">
<ele>0.955030</ele>
<time>2026-07-13T08:38:25.000Z</time>
</trkpt>
<trkpt lat="56.187489" lon="8.174176">
<ele>0.948553</ele>
<time>2026-07-13T08:38:26.000Z</time>
</trkpt>
<trkpt lat="56.187527" lon="8.174227">
<ele>0.942011</ele>
<time>2026-07-13T08:38:27.000Z</time>
</trkpt>
<trkpt lat="56.187561" lon="8.174277">
<ele>0.935951</ele>
<time>2026-07-13T08:38:28.000Z</time>
</trkpt>
<trkpt lat="56.187595" lon="8.174328">
<ele>0.929842</ele>
<time>2026-07-13T08:38:29.000Z</time>
</trkpt>
<trkpt lat="56.187634" lon="8.174376">
<ele>0.923322</ele>
<time>2026-07-13T08:38:30.000Z</time>
</trkpt>
<trkpt lat="56.187672" lon="8.174421">
<ele>0.917044</ele>
<time>2026-07-13T08:38:31.000Z</time>
</trkpt>
<trkpt lat="56.187706" lon="8.174468">
<ele>0.909250</ele>
<time>2026-07-13T08:38:32.000Z</time>
</trkpt>
<trkpt lat="56.187740" lon="8.174518">
<ele>0.892674</ele>
<time>2026-07-13T08:38:33.000Z</time>
</trkpt>
<trkpt lat="56.187775" lon="8.174564">
<ele>0.876314</ele>
<time>2026-07-13T08:38:34.000Z</time>
</trkpt>
<trkpt lat="56.187809" lon="8.174607">
<ele>0.860628</ele>
<time>2026-07-13T08:38:35.000Z</time>
</trkpt>
<trkpt lat="56.187843" lon="8.174648">
<ele>0.845180</ele>
<time>2026-07-13T08:38:36.000Z</time>
</trkpt>
<trkpt lat="56.187878" lon="8.174687">
<ele>0.829642</ele>
<time>2026-07-13T08:38:37.000Z</time>
</trkpt>
<trkpt lat="56.187912" lon="8.174725">
<ele>0.814535</ele>
<time>2026-07-13T08:38:38.000Z</time>
</trkpt>
<trkpt lat="56.187942" lon="8.174756">
<ele>0.801479</ele>
<time>2026-07-13T08:38:39.000Z</time>
</trkpt>
<trkpt lat="56.187973" lon="8.174780">
<ele>0.788744</ele>
<time>2026-07-13T08:38:40.000Z</time>
</trkpt>
<trkpt lat="56.188011" lon="8.174797">
<ele>0.773969</ele>
<time>2026-07-13T08:38:41.000Z</time>
</trkpt>
<trkpt lat="56.188049" lon="8.174815">
<ele>0.759142</ele>
<time>2026-07-13T08:38:42.000Z</time>
</trkpt>
<trkpt lat="56.188091" lon="8.174833">
<ele>0.742852</ele>
<time>2026-07-13T08:38:43.000Z</time>
</trkpt>
<trkpt lat="56.188133" lon="8.174852">
<ele>0.726511</ele>
<time>2026-07-13T08:38:44.000Z</time>
</trkpt>
<trkpt lat="56.188175" lon="8.174871">
<ele>0.710170</ele>
<time>2026-07-13T08:38:45.000Z</time>
</trkpt>
<trkpt lat="56.188221" lon="8.174891">
<ele>0.692314</ele>
<time>2026-07-13T08:38:46.000Z</time>
</trkpt>
<trkpt lat="56.188267" lon="8.174915">
<ele>0.674242</ele>
<time>2026-07-13T08:38:47.000Z</time>
</trkpt>
<trkpt lat="56.188309" lon="8.174938">
<ele>0.657677</ele>
<time>2026-07-13T08:38:48.000Z</time>
</trkpt>
<trkpt lat="56.188354" lon="8.174959">
<ele>0.640135</ele>
<time>2026-07-13T08:38:49.000Z</time>
</trkpt>
<trkpt lat="56.188396" lon="8.174980">
<ele>0.623687</ele>
<time>2026-07-13T08:38:50.000Z</time>
</trkpt>
<trkpt lat="56.188438" lon="8.175001">
<ele>0.607239</ele>
<time>2026-07-13T08:38:51.000Z</time>
</trkpt>
<trkpt lat="56.188480" lon="8.175021">
<ele>0.590846</ele>
<time>2026-07-13T08:38:52.000Z</time>
</trkpt>
<trkpt lat="56.188526" lon="8.175041">
<ele>0.572990</ele>
<time>2026-07-13T08:38:53.000Z</time>
</trkpt>
<trkpt lat="56.188572" lon="8.175061">
<ele>0.555134</ele>
<time>2026-07-13T08:38:54.000Z</time>
</trkpt>
<trkpt lat="56.188618" lon="8.175081">
<ele>0.537278</ele>
<time>2026-07-13T08:38:55.000Z</time>
</trkpt>
<trkpt lat="56.188663" lon="8.175101">
<ele>0.519788</ele>
<time>2026-07-13T08:38:56.000Z</time>
</trkpt>
<trkpt lat="56.188705" lon="8.175123">
<ele>0.503283</ele>
<time>2026-07-13T08:38:57.000Z</time>
</trkpt>
<trkpt lat="56.188747" lon="8.175147">
<ele>0.486655</ele>
<time>2026-07-13T08:38:58.000Z</time>
</trkpt>
<trkpt lat="56.188793" lon="8.175169">
<ele>0.468695</ele>
<time>2026-07-13T08:38:59.000Z</time>
</trkpt>
<trkpt lat="56.188835" lon="8.175190">
<ele>0.452247</ele>
<time>2026-07-13T08:39:00.000Z</time>
</trkpt>
<trkpt lat="56.188881" lon="8.175211">
<ele>0.434340</ele>
<time>2026-07-13T08:39:01.000Z</time>
</trkpt>
<trkpt lat="56.188923" lon="8.175232">
<ele>0.417892</ele>
<time>2026-07-13T08:39:02.000Z</time>
</trkpt>
<trkpt lat="56.188965" lon="8.175253">
<ele>0.401444</ele>
<time>2026-07-13T08:39:03.000Z</time>
</trkpt>
<trkpt lat="56.189003" lon="8.175273">
<ele>0.386505</ele>
<time>2026-07-13T08:39:04.000Z</time>
</trkpt>
<trkpt lat="56.189045" lon="8.175293">
<ele>0.370112</ele>
<time>2026-07-13T08:39:05.000Z</time>
</trkpt>
<trkpt lat="56.189087" lon="8.175314">
<ele>0.353664</ele>
<time>2026-07-13T08:39:06.000Z</time>
</trkpt>
<trkpt lat="56.189125" lon="8.175335">
<ele>0.338664</ele>
<time>2026-07-13T08:39:07.000Z</time>
</trkpt>
<trkpt lat="56.189167" lon="8.175355">
<ele>0.322271</ele>
<time>2026-07-13T08:39:08.000Z</time>
</trkpt>
<trkpt lat="56.189209" lon="8.175373">
<ele>0.305980</ele>
<time>2026-07-13T08:39:09.000Z</time>
</trkpt>
<trkpt lat="56.189251" lon="8.175392">
<ele>0.289640</ele>
<time>2026-07-13T08:39:10.000Z</time>
</trkpt>
<trkpt lat="56.189289" lon="8.175410">
<ele>0.274813</ele>
<time>2026-07-13T08:39:11.000Z</time>
</trkpt>
<trkpt lat="56.189331" lon="8.175427">
<ele>0.258570</ele>
<time>2026-07-13T08:39:12.000Z</time>
</trkpt>
<trkpt lat="56.189377" lon="8.175443">
<ele>0.240893</ele>
<time>2026-07-13T08:39:13.000Z</time>
</trkpt>
<trkpt lat="56.189415" lon="8.175456">
<ele>0.239716</ele>
<time>2026-07-13T08:39:14.000Z</time>
</trkpt>
<trkpt lat="56.189457" lon="8.175467">
<ele>0.253136</ele>
<time>2026-07-13T08:39:15.000Z</time>
</trkpt>
<trkpt lat="56.189495" lon="8.175475">
<ele>0.265234</ele>
<time>2026-07-13T08:39:16.000Z</time>
</trkpt>
<trkpt lat="56.189533" lon="8.175479">
<ele>0.277270</ele>
<time>2026-07-13T08:39:17.000Z</time>
</trkpt>
<trkpt lat="56.189571" lon="8.175477">
<ele>0.289291</ele>
<time>2026-07-13T08:39:18.000Z</time>
</trkpt>
<trkpt lat="56.189610" lon="8.175465">
<ele>0.301802</ele>
<time>2026-07-13T08:39:19.000Z</time>
</trkpt>
<trkpt lat="56.189648" lon="8.175445">
<ele>0.314322</ele>
<time>2026-07-13T08:39:20.000Z</time>
</trkpt>
<trkpt lat="56.189686" lon="8.175419">
<ele>0.327179</ele>
<time>2026-07-13T08:39:21.000Z</time>
</trkpt>
<trkpt lat="56.189724" lon="8.175384">
<ele>0.340680</ele>
<time>2026-07-13T08:39:22.000Z</time>
</trkpt>
<trkpt lat="56.189762" lon="8.175342">
<ele>0.354786</ele>
<time>2026-07-13T08:39:23.000Z</time>
</trkpt>
<trkpt lat="56.189800" lon="8.175296">
<ele>0.369273</ele>
<time>2026-07-13T08:39:24.000Z</time>
</trkpt>
<trkpt lat="56.189838" lon="8.175246">
<ele>0.384165</ele>
<time>2026-07-13T08:39:25.000Z</time>
</trkpt>
<trkpt lat="56.189880" lon="8.175194">
<ele>0.400291</ele>
<time>2026-07-13T08:39:26.000Z</time>
</trkpt>
<trkpt lat="56.189919" lon="8.175144">
<ele>0.415439</ele>
<time>2026-07-13T08:39:27.000Z</time>
</trkpt>
<trkpt lat="56.189957" lon="8.175096">
<ele>0.430126</ele>
<time>2026-07-13T08:39:28.000Z</time>
</trkpt>
<trkpt lat="56.189999" lon="8.175045">
<ele>0.446153</ele>
<time>2026-07-13T08:39:29.000Z</time>
</trkpt>
<trkpt lat="56.190041" lon="8.174995">
<ele>0.462083</ele>
<time>2026-07-13T08:39:30.000Z</time>
</trkpt>
<trkpt lat="56.190083" lon="8.174945">
<ele>0.478013</ele>
<time>2026-07-13T08:39:31.000Z</time>
</trkpt>
<trkpt lat="56.190125" lon="8.174895">
<ele>0.493942</ele>
<time>2026-07-13T08:39:32.000Z</time>
</trkpt>
<trkpt lat="56.190163" lon="8.174848">
<ele>0.508528</ele>
<time>2026-07-13T08:39:33.000Z</time>
</trkpt>
<trkpt lat="56.190197" lon="8.174808">
<ele>0.521378</ele>
<time>2026-07-13T08:39:34.000Z</time>
</trkpt>
<trkpt lat="56.190231" lon="8.174767">
<ele>0.534324</ele>
<time>2026-07-13T08:39:35.000Z</time>
</trkpt>
<trkpt lat="56.190269" lon="8.174727">
<ele>0.548249</ele>
<time>2026-07-13T08:39:36.000Z</time>
</trkpt>
<trkpt lat="56.190304" lon="8.174685">
<ele>0.561556</ele>
<time>2026-07-13T08:39:37.000Z</time>
</trkpt>
<trkpt lat="56.190342" lon="8.174643">
<ele>0.575662</ele>
<time>2026-07-13T08:39:38.000Z</time>
</trkpt>
<trkpt lat="56.190380" lon="8.174600">
<ele>0.589861</ele>
<time>2026-07-13T08:39:39.000Z</time>
</trkpt>
<trkpt lat="56.190414" lon="8.174558">
<ele>0.602906</ele>
<time>2026-07-13T08:39:40.000Z</time>
</trkpt>
<trkpt lat="56.190449" lon="8.174516">
<ele>0.616214</ele>
<time>2026-07-13T08:39:41.000Z</time>
</trkpt>
<trkpt lat="56.190487" lon="8.174475">
<ele>0.630228</ele>
<time>2026-07-13T08:39:42.000Z</time>
</trkpt>
<trkpt lat="56.190521" lon="8.174433">
<ele>0.643274</ele>
<time>2026-07-13T08:39:43.000Z</time>
</trkpt>
<trkpt lat="56.190559" lon="8.174393">
<ele>0.657198</ele>
<time>2026-07-13T08:39:44.000Z</time>
</trkpt>
<trkpt lat="56.190598" lon="8.174353">
<ele>0.671397</ele>
<time>2026-07-13T08:39:45.000Z</time>
</trkpt>
<trkpt lat="56.190632" lon="8.174311">
<ele>0.684442</ele>
<time>2026-07-13T08:39:46.000Z</time>
</trkpt>
<trkpt lat="56.190670" lon="8.174266">
<ele>0.698832</ele>
<time>2026-07-13T08:39:47.000Z</time>
</trkpt>
<trkpt lat="56.190708" lon="8.174223">
<ele>0.713030</ele>
<time>2026-07-13T08:39:48.000Z</time>
</trkpt>
<trkpt lat="56.190742" lon="8.174181">
<ele>0.726076</ele>
<time>2026-07-13T08:39:49.000Z</time>
</trkpt>
<trkpt lat="56.190781" lon="8.174138">
<ele>0.740543</ele>
<time>2026-07-13T08:39:50.000Z</time>
</trkpt>
<trkpt lat="56.190819" lon="8.174094">
<ele>0.754836</ele>
<time>2026-07-13T08:39:51.000Z</time>
</trkpt>
<trkpt lat="56.190861" lon="8.174047">
<ele>0.770481</ele>
<time>2026-07-13T08:39:52.000Z</time>
</trkpt>
<trkpt lat="56.190899" lon="8.173999">
<ele>0.785167</ele>
<time>2026-07-13T08:39:53.000Z</time>
</trkpt>
<trkpt lat="56.190937" lon="8.173953">
<ele>0.799654</ele>
<time>2026-07-13T08:39:54.000Z</time>
</trkpt>
<trkpt lat="56.190975" lon="8.173911">
<ele>0.801292</ele>
<time>2026-07-13T08:39:55.000Z</time>
</trkpt>
<trkpt lat="56.191017" lon="8.173870">
<ele>0.799933</ele>
<time>2026-07-13T08:39:56.000Z</time>
</trkpt>
<trkpt lat="56.191055" lon="8.173828">
<ele>0.798665</ele>
<time>2026-07-13T08:39:57.000Z</time>
</trkpt>
<trkpt lat="56.191093" lon="8.173786">
<ele>0.797397</ele>
<time>2026-07-13T08:39:58.000Z</time>
</trkpt>
<trkpt lat="56.191128" lon="8.173744">
<ele>0.796201</ele>
<time>2026-07-13T08:39:59.000Z</time>
</trkpt>
<trkpt lat="56.191162" lon="8.173701">
<ele>0.795019</ele>
<time>2026-07-13T08:40:00.000Z</time>
</trkpt>
<trkpt lat="56.191200" lon="8.173657">
<ele>0.793734</ele>
<time>2026-07-13T08:40:01.000Z</time>
</trkpt>
<trkpt lat="56.191238" lon="8.173612">
<ele>0.792440</ele>
<time>2026-07-13T08:40:02.000Z</time>
</trkpt>
<trkpt lat="56.191277" lon="8.173565">
<ele>0.791105</ele>
<time>2026-07-13T08:40:03.000Z</time>
</trkpt>
<trkpt lat="56.191311" lon="8.173518">
<ele>0.789886</ele>
<time>2026-07-13T08:40:04.000Z</time>
</trkpt>
<trkpt lat="56.191349" lon="8.173472">
<ele>0.788583</ele>
<time>2026-07-13T08:40:05.000Z</time>
</trkpt>
<trkpt lat="56.191387" lon="8.173426">
<ele>0.787281</ele>
<time>2026-07-13T08:40:06.000Z</time>
</trkpt>
<trkpt lat="56.191425" lon="8.173379">
<ele>0.785969</ele>
<time>2026-07-13T08:40:07.000Z</time>
</trkpt>
<trkpt lat="56.191463" lon="8.173335">
<ele>0.784684</ele>
<time>2026-07-13T08:40:08.000Z</time>
</trkpt>
<trkpt lat="56.191502" lon="8.173291">
<ele>0.783375</ele>
<time>2026-07-13T08:40:09.000Z</time>
</trkpt>
<trkpt lat="56.191540" lon="8.173248">
<ele>0.782099</ele>
<time>2026-07-13T08:40:10.000Z</time>
</trkpt>
<trkpt lat="56.191578" lon="8.173204">
<ele>0.780814</ele>
<time>2026-07-13T08:40:11.000Z</time>
</trkpt>
<trkpt lat="56.191612" lon="8.173161">
<ele>0.779632</ele>
<time>2026-07-13T08:40:12.000Z</time>
</trkpt>
<trkpt lat="56.191650" lon="8.173115">
<ele>0.778329</ele>
<time>2026-07-13T08:40:13.000Z</time>
</trkpt>
<trkpt lat="56.191689" lon="8.173070">
<ele>0.777012</ele>
<time>2026-07-13T08:40:14.000Z</time>
</trkpt>
<trkpt lat="56.191727" lon="8.173029">
<ele>0.775752</ele>
<time>2026-07-13T08:40:15.000Z</time>
</trkpt>
<trkpt lat="56.191765" lon="8.172987">
<ele>0.774483</ele>
<time>2026-07-13T08:40:16.000Z</time>
</trkpt>
<trkpt lat="56.191799" lon="8.172944">
<ele>0.773302</ele>
<time>2026-07-13T08:40:17.000Z</time>
</trkpt>
<trkpt lat="56.191837" lon="8.172899">
<ele>0.772008</ele>
<time>2026-07-13T08:40:18.000Z</time>
</trkpt>
<trkpt lat="56.191875" lon="8.172854">
<ele>0.770714</ele>
<time>2026-07-13T08:40:19.000Z</time>
</trkpt>
<trkpt lat="56.191914" lon="8.172812">
<ele>0.769422</ele>
<time>2026-07-13T08:40:20.000Z</time>
</trkpt>
<trkpt lat="56.191948" lon="8.172770">
<ele>0.768249</ele>
<time>2026-07-13T08:40:21.000Z</time>
</trkpt>
<trkpt lat="56.191986" lon="8.172729">
<ele>0.766989</ele>
<time>2026-07-13T08:40:22.000Z</time>
</trkpt>
<trkpt lat="56.192020" lon="8.172686">
<ele>0.765807</ele>
<time>2026-07-13T08:40:23.000Z</time>
</trkpt>
<trkpt lat="56.192059" lon="8.172641">
<ele>0.764489</ele>
<time>2026-07-13T08:40:24.000Z</time>
</trkpt>
<trkpt lat="56.192097" lon="8.172597">
<ele>0.763204</ele>
<time>2026-07-13T08:40:25.000Z</time>
</trkpt>
<trkpt lat="56.192135" lon="8.172551">
<ele>0.761902</ele>
<time>2026-07-13T08:40:26.000Z</time>
</trkpt>
<trkpt lat="56.192173" lon="8.172505">
<ele>0.760599</ele>
<time>2026-07-13T08:40:27.000Z</time>
</trkpt>
<trkpt lat="56.192211" lon="8.172461">
<ele>0.759314</ele>
<time>2026-07-13T08:40:28.000Z</time>
</trkpt>
<trkpt lat="56.192249" lon="8.172418">
<ele>0.758038</ele>
<time>2026-07-13T08:40:29.000Z</time>
</trkpt>
<trkpt lat="56.192284" lon="8.172376">
<ele>0.756841</ele>
<time>2026-07-13T08:40:30.000Z</time>
</trkpt>
<trkpt lat="56.192322" lon="8.172332">
<ele>0.755556</ele>
<time>2026-07-13T08:40:31.000Z</time>
</trkpt>
<trkpt lat="56.192356" lon="8.172287">
<ele>0.754356</ele>
<time>2026-07-13T08:40:32.000Z</time>
</trkpt>
<trkpt lat="56.192394" lon="8.172243">
<ele>0.753071</ele>
<time>2026-07-13T08:40:33.000Z</time>
</trkpt>
<trkpt lat="56.192429" lon="8.172201">
<ele>0.751875</ele>
<time>2026-07-13T08:40:34.000Z</time>
</trkpt>
<trkpt lat="56.192467" lon="8.172160">
<ele>0.768052</ele>
<time>2026-07-13T08:40:35.000Z</time>
</trkpt>
<trkpt lat="56.192505" lon="8.172119">
<ele>0.805075</ele>
<time>2026-07-13T08:40:36.000Z</time>
</trkpt>
<trkpt lat="56.192539" lon="8.172080">
<ele>0.838769</ele>
<time>2026-07-13T08:40:37.000Z</time>
</trkpt>
<trkpt lat="56.192574" lon="8.172042">
<ele>0.872926</ele>
<time>2026-07-13T08:40:38.000Z</time>
</trkpt>
<trkpt lat="56.192608" lon="8.172003">
<ele>0.906619</ele>
<time>2026-07-13T08:40:39.000Z</time>
</trkpt>
<trkpt lat="56.192642" lon="8.171961">
<ele>0.941083</ele>
<time>2026-07-13T08:40:40.000Z</time>
</trkpt>
<trkpt lat="56.192680" lon="8.171917">
<ele>0.978843</ele>
<time>2026-07-13T08:40:41.000Z</time>
</trkpt>
<trkpt lat="56.192715" lon="8.171875">
<ele>1.013998</ele>
<time>2026-07-13T08:40:42.000Z</time>
</trkpt>
<trkpt lat="56.192745" lon="8.171834">
<ele>1.045481</ele>
<time>2026-07-13T08:40:43.000Z</time>
</trkpt>
<trkpt lat="56.192780" lon="8.171793">
<ele>1.080380</ele>
<time>2026-07-13T08:40:44.000Z</time>
</trkpt>
<trkpt lat="56.192810" lon="8.171750">
<ele>1.112434</ele>
<time>2026-07-13T08:40:45.000Z</time>
</trkpt>
<trkpt lat="56.192841" lon="8.171705">
<ele>1.145721</ele>
<time>2026-07-13T08:40:46.000Z</time>
</trkpt>
<trkpt lat="56.192875" lon="8.171660">
<ele>1.180993</ele>
<time>2026-07-13T08:40:47.000Z</time>
</trkpt>
<trkpt lat="56.192905" lon="8.171616">
<ele>1.213338</ele>
<time>2026-07-13T08:40:48.000Z</time>
</trkpt>
<trkpt lat="56.192944" lon="8.171573">
<ele>1.251558</ele>
<time>2026-07-13T08:40:49.000Z</time>
</trkpt>
<trkpt lat="56.192978" lon="8.171531">
<ele>1.286022</ele>
<time>2026-07-13T08:40:50.000Z</time>
</trkpt>
<trkpt lat="56.193008" lon="8.171489">
<ele>1.317788</ele>
<time>2026-07-13T08:40:51.000Z</time>
</trkpt>
<trkpt lat="56.193043" lon="8.171446">
<ele>1.353203</ele>
<time>2026-07-13T08:40:52.000Z</time>
</trkpt>
<trkpt lat="56.193077" lon="8.171402">
<ele>1.388201</ele>
<time>2026-07-13T08:40:53.000Z</time>
</trkpt>
<trkpt lat="56.193111" lon="8.171359">
<ele>1.422930</ele>
<time>2026-07-13T08:40:54.000Z</time>
</trkpt>
<trkpt lat="56.193146" lon="8.171318">
<ele>1.457828</ele>
<time>2026-07-13T08:40:55.000Z</time>
</trkpt>
<trkpt lat="56.193184" lon="8.171276">
<ele>1.495093</ele>
<time>2026-07-13T08:40:56.000Z</time>
</trkpt>
<trkpt lat="56.193222" lon="8.171232">
<ele>1.532854</ele>
<time>2026-07-13T08:40:57.000Z</time>
</trkpt>
<trkpt lat="56.193260" lon="8.171188">
<ele>1.570614</ele>
<time>2026-07-13T08:40:58.000Z</time>
</trkpt>
<trkpt lat="56.193302" lon="8.171143">
<ele>1.611459</ele>
<time>2026-07-13T08:40:59.000Z</time>
</trkpt>
<trkpt lat="56.193336" lon="8.171096">
<ele>1.647290</ele>
<time>2026-07-13T08:41:00.000Z</time>
</trkpt>
<trkpt lat="56.193375" lon="8.171051">
<ele>1.686004</ele>
<time>2026-07-13T08:41:01.000Z</time>
</trkpt>
<trkpt lat="56.193413" lon="8.171008">
<ele>1.723515</ele>
<time>2026-07-13T08:41:02.000Z</time>
</trkpt>
<trkpt lat="56.193451" lon="8.170964">
<ele>1.761275</ele>
<time>2026-07-13T08:41:03.000Z</time>
</trkpt>
<trkpt lat="56.193489" lon="8.170918">
<ele>1.799547</ele>
<time>2026-07-13T08:41:04.000Z</time>
</trkpt>
<trkpt lat="56.193527" lon="8.170870">
<ele>1.838345</ele>
<time>2026-07-13T08:41:05.000Z</time>
</trkpt>
<trkpt lat="56.193565" lon="8.170819">
<ele>1.877962</ele>
<time>2026-07-13T08:41:06.000Z</time>
</trkpt>
<trkpt lat="56.193607" lon="8.170768">
<ele>1.920303</ele>
<time>2026-07-13T08:41:07.000Z</time>
</trkpt>
<trkpt lat="56.193645" lon="8.170716">
<ele>1.960199</ele>
<time>2026-07-13T08:41:08.000Z</time>
</trkpt>
<trkpt lat="56.193687" lon="8.170665">
<ele>2.002540</ele>
<time>2026-07-13T08:41:09.000Z</time>
</trkpt>
<trkpt lat="56.193729" lon="8.170617">
<ele>2.044117</ele>
<time>2026-07-13T08:41:10.000Z</time>
</trkpt>
<trkpt lat="56.193775" lon="8.170570">
<ele>2.088318</ele>
<time>2026-07-13T08:41:11.000Z</time>
</trkpt>
<trkpt lat="56.193817" lon="8.170525">
<ele>2.129163</ele>
<time>2026-07-13T08:41:12.000Z</time>
</trkpt>
<trkpt lat="56.193859" lon="8.170483">
<ele>2.169312</ele>
<time>2026-07-13T08:41:13.000Z</time>
</trkpt>
<trkpt lat="56.193901" lon="8.170441">
<ele>2.209462</ele>
<time>2026-07-13T08:41:14.000Z</time>
</trkpt>
<trkpt lat="56.193947" lon="8.170398">
<ele>2.252774</ele>
<time>2026-07-13T08:41:15.000Z</time>
</trkpt>
<trkpt lat="56.193993" lon="8.170355">
<ele>2.249491</ele>
<time>2026-07-13T08:41:16.000Z</time>
</trkpt>
<trkpt lat="56.194038" lon="8.170313">
<ele>2.245317</ele>
<time>2026-07-13T08:41:17.000Z</time>
</trkpt>
<trkpt lat="56.194080" lon="8.170274">
<ele>2.241424</ele>
<time>2026-07-13T08:41:18.000Z</time>
</trkpt>
<trkpt lat="56.194126" lon="8.170234">
<ele>2.237217</ele>
<time>2026-07-13T08:41:19.000Z</time>
</trkpt>
<trkpt lat="56.194168" lon="8.170196">
<ele>2.233345</ele>
<time>2026-07-13T08:41:20.000Z</time>
</trkpt>
<trkpt lat="56.194214" lon="8.170158">
<ele>2.229177</ele>
<time>2026-07-13T08:41:21.000Z</time>
</trkpt>
<trkpt lat="56.194260" lon="8.170122">
<ele>2.225046</ele>
<time>2026-07-13T08:41:22.000Z</time>
</trkpt>
<trkpt lat="56.194305" lon="8.170085">
<ele>2.220972</ele>
<time>2026-07-13T08:41:23.000Z</time>
</trkpt>
<trkpt lat="56.194351" lon="8.170051">
<ele>2.216876</ele>
<time>2026-07-13T08:41:24.000Z</time>
</trkpt>
<trkpt lat="56.194397" lon="8.170014">
<ele>2.212727</ele>
<time>2026-07-13T08:41:25.000Z</time>
</trkpt>
<trkpt lat="56.194439" lon="8.169976">
<ele>2.208856</ele>
<time>2026-07-13T08:41:26.000Z</time>
</trkpt>
<trkpt lat="56.194485" lon="8.169939">
<ele>2.204706</ele>
<time>2026-07-13T08:41:27.000Z</time>
</trkpt>
<trkpt lat="56.194530" lon="8.169902">
<ele>2.200632</ele>
<time>2026-07-13T08:41:28.000Z</time>
</trkpt>
<trkpt lat="56.194572" lon="8.169864">
<ele>2.196760</ele>
<time>2026-07-13T08:41:29.000Z</time>
</trkpt>
<trkpt lat="56.194614" lon="8.169826">
<ele>2.192889</ele>
<time>2026-07-13T08:41:30.000Z</time>
</trkpt>
<trkpt lat="56.194660" lon="8.169788">
<ele>2.188720</ele>
<time>2026-07-13T08:41:31.000Z</time>
</trkpt>
<trkpt lat="56.194702" lon="8.169752">
<ele>2.184889</ele>
<time>2026-07-13T08:41:32.000Z</time>
</trkpt>
<trkpt lat="56.194744" lon="8.169715">
<ele>2.181038</ele>
<time>2026-07-13T08:41:33.000Z</time>
</trkpt>
<trkpt lat="56.194790" lon="8.169678">
<ele>2.176889</ele>
<time>2026-07-13T08:41:34.000Z</time>
</trkpt>
<trkpt lat="56.194832" lon="8.169639">
<ele>2.172996</ele>
<time>2026-07-13T08:41:35.000Z</time>
</trkpt>
<trkpt lat="56.194878" lon="8.169600">
<ele>2.168809</ele>
<time>2026-07-13T08:41:36.000Z</time>
</trkpt>
<trkpt lat="56.194920" lon="8.169562">
<ele>2.164937</ele>
<time>2026-07-13T08:41:37.000Z</time>
</trkpt>
<trkpt lat="56.194965" lon="8.169524">
<ele>2.160843</ele>
<time>2026-07-13T08:41:38.000Z</time>
</trkpt>
<trkpt lat="56.195003" lon="8.169486">
<ele>2.157263</ele>
<time>2026-07-13T08:41:39.000Z</time>
</trkpt>
<trkpt lat="56.195049" lon="8.169449">
<ele>2.153114</ele>
<time>2026-07-13T08:41:40.000Z</time>
</trkpt>
<trkpt lat="56.195091" lon="8.169413">
<ele>2.149282</ele>
<time>2026-07-13T08:41:41.000Z</time>
</trkpt>
<trkpt lat="56.195133" lon="8.169375">
<ele>2.145411</ele>
<time>2026-07-13T08:41:42.000Z</time>
</trkpt>
<trkpt lat="56.195175" lon="8.169336">
<ele>2.141519</ele>
<time>2026-07-13T08:41:43.000Z</time>
</trkpt>
<trkpt lat="56.195217" lon="8.169297">
<ele>2.137626</ele>
<time>2026-07-13T08:41:44.000Z</time>
</trkpt>
<trkpt lat="56.195255" lon="8.169259">
<ele>2.134046</ele>
<time>2026-07-13T08:41:45.000Z</time>
</trkpt>
<trkpt lat="56.195297" lon="8.169222">
<ele>2.130195</ele>
<time>2026-07-13T08:41:46.000Z</time>
</trkpt>
<trkpt lat="56.195343" lon="8.169185">
<ele>2.126045</ele>
<time>2026-07-13T08:41:47.000Z</time>
</trkpt>
<trkpt lat="56.195389" lon="8.169148">
<ele>2.121896</ele>
<time>2026-07-13T08:41:48.000Z</time>
</trkpt>
<trkpt lat="56.195427" lon="8.169112">
<ele>2.118359</ele>
<time>2026-07-13T08:41:49.000Z</time>
</trkpt>
<trkpt lat="56.195469" lon="8.169074">
<ele>2.114488</ele>
<time>2026-07-13T08:41:50.000Z</time>
</trkpt>
<trkpt lat="56.195511" lon="8.169036">
<ele>2.110616</ele>
<time>2026-07-13T08:41:51.000Z</time>
</trkpt>
<trkpt lat="56.195553" lon="8.168995">
<ele>2.106681</ele>
<time>2026-07-13T08:41:52.000Z</time>
</trkpt>
<trkpt lat="56.195595" lon="8.168954">
<ele>2.104753</ele>
<time>2026-07-13T08:41:53.000Z</time>
</trkpt>
<trkpt lat="56.195633" lon="8.168917">
<ele>2.103714</ele>
<time>2026-07-13T08:41:54.000Z</time>
</trkpt>
<trkpt lat="56.195679" lon="8.168880">
<ele>2.102503</ele>
<time>2026-07-13T08:41:55.000Z</time>
</trkpt>
<trkpt lat="56.195717" lon="8.168842">
<ele>2.101458</ele>
<time>2026-07-13T08:41:56.000Z</time>
</trkpt>
<trkpt lat="56.195759" lon="8.168802">
<ele>2.100316</ele>
<time>2026-07-13T08:41:57.000Z</time>
</trkpt>
<trkpt lat="56.195805" lon="8.168762">
<ele>2.099088</ele>
<time>2026-07-13T08:41:58.000Z</time>
</trkpt>
<trkpt lat="56.195847" lon="8.168724">
<ele>2.097958</ele>
<time>2026-07-13T08:41:59.000Z</time>
</trkpt>
<trkpt lat="56.195889" lon="8.168686">
<ele>2.096828</ele>
<time>2026-07-13T08:42:00.000Z</time>
</trkpt>
<trkpt lat="56.195934" lon="8.168649">
<ele>2.095639</ele>
<time>2026-07-13T08:42:01.000Z</time>
</trkpt>
<trkpt lat="56.195976" lon="8.168611">
<ele>2.094510</ele>
<time>2026-07-13T08:42:02.000Z</time>
</trkpt>
<trkpt lat="56.196022" lon="8.168572">
<ele>2.093287</ele>
<time>2026-07-13T08:42:03.000Z</time>
</trkpt>
<trkpt lat="56.196060" lon="8.168536">
<ele>2.092255</ele>
<time>2026-07-13T08:42:04.000Z</time>
</trkpt>
<trkpt lat="56.196098" lon="8.168504">
<ele>2.091247</ele>
<time>2026-07-13T08:42:05.000Z</time>
</trkpt>
<trkpt lat="56.196136" lon="8.168474">
<ele>2.090250</ele>
<time>2026-07-13T08:42:06.000Z</time>
</trkpt>
<trkpt lat="56.196175" lon="8.168444">
<ele>2.089230</ele>
<time>2026-07-13T08:42:07.000Z</time>
</trkpt>
<trkpt lat="56.196217" lon="8.168410">
<ele>2.088123</ele>
<time>2026-07-13T08:42:08.000Z</time>
</trkpt>
<trkpt lat="56.196259" lon="8.168375">
<ele>2.087011</ele>
<time>2026-07-13T08:42:09.000Z</time>
</trkpt>
<trkpt lat="56.196297" lon="8.168339">
<ele>2.085979</ele>
<time>2026-07-13T08:42:10.000Z</time>
</trkpt>
<trkpt lat="56.196342" lon="8.168302">
<ele>2.084790</ele>
<time>2026-07-13T08:42:11.000Z</time>
</trkpt>
<trkpt lat="56.196384" lon="8.168264">
<ele>2.083660</ele>
<time>2026-07-13T08:42:12.000Z</time>
</trkpt>
<trkpt lat="56.196423" lon="8.168228">
<ele>2.082606</ele>
<time>2026-07-13T08:42:13.000Z</time>
</trkpt>
<trkpt lat="56.196461" lon="8.168193">
<ele>2.081580</ele>
<time>2026-07-13T08:42:14.000Z</time>
</trkpt>
<trkpt lat="56.196499" lon="8.168158">
<ele>2.080554</ele>
<time>2026-07-13T08:42:15.000Z</time>
</trkpt>
<trkpt lat="56.196537" lon="8.168121">
<ele>2.079516</ele>
<time>2026-07-13T08:42:16.000Z</time>
</trkpt>
<trkpt lat="56.196575" lon="8.168085">
<ele>2.078484</ele>
<time>2026-07-13T08:42:17.000Z</time>
</trkpt>
<trkpt lat="56.196613" lon="8.168053">
<ele>2.077475</ele>
<time>2026-07-13T08:42:18.000Z</time>
</trkpt>
<trkpt lat="56.196655" lon="8.168021">
<ele>2.076379</ele>
<time>2026-07-13T08:42:19.000Z</time>
</trkpt>
<trkpt lat="56.196697" lon="8.167988">
<ele>2.075278</ele>
<time>2026-07-13T08:42:20.000Z</time>
</trkpt>
<trkpt lat="56.196735" lon="8.167954">
<ele>2.074258</ele>
<time>2026-07-13T08:42:21.000Z</time>
</trkpt>
<trkpt lat="56.196773" lon="8.167921">
<ele>2.073244</ele>
<time>2026-07-13T08:42:22.000Z</time>
</trkpt>
<trkpt lat="56.196815" lon="8.167887">
<ele>2.072137</ele>
<time>2026-07-13T08:42:23.000Z</time>
</trkpt>
<trkpt lat="56.196854" lon="8.167851">
<ele>2.071083</ele>
<time>2026-07-13T08:42:24.000Z</time>
</trkpt>
<trkpt lat="56.196892" lon="8.167815">
<ele>2.070051</ele>
<time>2026-07-13T08:42:25.000Z</time>
</trkpt>
<trkpt lat="56.196930" lon="8.167777">
<ele>2.069006</ele>
<time>2026-07-13T08:42:26.000Z</time>
</trkpt>
<trkpt lat="56.196968" lon="8.167743">
<ele>2.067986</ele>
<time>2026-07-13T08:42:27.000Z</time>
</trkpt>
<trkpt lat="56.197006" lon="8.167712">
<ele>2.066984</ele>
<time>2026-07-13T08:42:28.000Z</time>
</trkpt>
<trkpt lat="56.197044" lon="8.167682">
<ele>2.065986</ele>
<time>2026-07-13T08:42:29.000Z</time>
</trkpt>
<trkpt lat="56.197083" lon="8.167648">
<ele>2.064945</ele>
<time>2026-07-13T08:42:30.000Z</time>
</trkpt>
<trkpt lat="56.197121" lon="8.167612">
<ele>2.063913</ele>
<time>2026-07-13T08:42:31.000Z</time>
</trkpt>
<trkpt lat="56.197159" lon="8.167577">
<ele>2.062887</ele>
<time>2026-07-13T08:42:32.000Z</time>
</trkpt>
<trkpt lat="56.197197" lon="8.167542">
<ele>2.060886</ele>
<time>2026-07-13T08:42:33.000Z</time>
</trkpt>
<trkpt lat="56.197235" lon="8.167508">
<ele>2.057874</ele>
<time>2026-07-13T08:42:34.000Z</time>
</trkpt>
<trkpt lat="56.197269" lon="8.167477">
<ele>2.055169</ele>
<time>2026-07-13T08:42:35.000Z</time>
</trkpt>
<trkpt lat="56.197308" lon="8.167445">
<ele>2.052127</ele>
<time>2026-07-13T08:42:36.000Z</time>
</trkpt>
<trkpt lat="56.197346" lon="8.167411">
<ele>2.049115</ele>
<time>2026-07-13T08:42:37.000Z</time>
</trkpt>
<trkpt lat="56.197384" lon="8.167376">
<ele>2.046086</ele>
<time>2026-07-13T08:42:38.000Z</time>
</trkpt>
<trkpt lat="56.197426" lon="8.167344">
<ele>2.042849</ele>
<time>2026-07-13T08:42:39.000Z</time>
</trkpt>
<trkpt lat="56.197468" lon="8.167311">
<ele>2.039597</ele>
<time>2026-07-13T08:42:40.000Z</time>
</trkpt>
<trkpt lat="56.197510" lon="8.167277">
<ele>2.036328</ele>
<time>2026-07-13T08:42:41.000Z</time>
</trkpt>
<trkpt lat="56.197548" lon="8.167249">
<ele>2.033415</ele>
<time>2026-07-13T08:42:42.000Z</time>
</trkpt>
<trkpt lat="56.197590" lon="8.167221">
<ele>2.030236</ele>
<time>2026-07-13T08:42:43.000Z</time>
</trkpt>
<trkpt lat="56.197628" lon="8.167190">
<ele>2.027275</ele>
<time>2026-07-13T08:42:44.000Z</time>
</trkpt>
<trkpt lat="56.197666" lon="8.167153">
<ele>2.024209</ele>
<time>2026-07-13T08:42:45.000Z</time>
</trkpt>
<trkpt lat="56.197704" lon="8.167121">
<ele>2.021231</ele>
<time>2026-07-13T08:42:46.000Z</time>
</trkpt>
<trkpt lat="56.197746" lon="8.167090">
<ele>2.018010</ele>
<time>2026-07-13T08:42:47.000Z</time>
</trkpt>
<trkpt lat="56.197784" lon="8.167058">
<ele>2.015033</ele>
<time>2026-07-13T08:42:48.000Z</time>
</trkpt>
<trkpt lat="56.197826" lon="8.167024">
<ele>2.011764</ele>
<time>2026-07-13T08:42:49.000Z</time>
</trkpt>
<trkpt lat="56.197865" lon="8.166986">
<ele>2.008617</ele>
<time>2026-07-13T08:42:50.000Z</time>
</trkpt>
<trkpt lat="56.197903" lon="8.166950">
<ele>2.005569</ele>
<time>2026-07-13T08:42:51.000Z</time>
</trkpt>
<trkpt lat="56.197945" lon="8.166915">
<ele>2.002284</ele>
<time>2026-07-13T08:42:52.000Z</time>
</trkpt>
<trkpt lat="56.197983" lon="8.166879">
<ele>1.999237</ele>
<time>2026-07-13T08:42:53.000Z</time>
</trkpt>
<trkpt lat="56.198021" lon="8.166844">
<ele>1.996207</ele>
<time>2026-07-13T08:42:54.000Z</time>
</trkpt>
<trkpt lat="56.198063" lon="8.166812">
<ele>1.992970</ele>
<time>2026-07-13T08:42:55.000Z</time>
</trkpt>
<trkpt lat="56.198105" lon="8.166780">
<ele>1.989734</ele>
<time>2026-07-13T08:42:56.000Z</time>
</trkpt>
<trkpt lat="56.198147" lon="8.166746">
<ele>1.986465</ele>
<time>2026-07-13T08:42:57.000Z</time>
</trkpt>
<trkpt lat="56.198185" lon="8.166709">
<ele>1.983399</ele>
<time>2026-07-13T08:42:58.000Z</time>
</trkpt>
<trkpt lat="56.198223" lon="8.166672">
<ele>1.980333</ele>
<time>2026-07-13T08:42:59.000Z</time>
</trkpt>
<trkpt lat="56.198261" lon="8.166636">
<ele>1.977285</ele>
<time>2026-07-13T08:43:00.000Z</time>
</trkpt>
<trkpt lat="56.198299" lon="8.166604">
<ele>1.974308</ele>
<time>2026-07-13T08:43:01.000Z</time>
</trkpt>
<trkpt lat="56.198338" lon="8.166571">
<ele>1.971249</ele>
<time>2026-07-13T08:43:02.000Z</time>
</trkpt>
<trkpt lat="56.198376" lon="8.166537">
<ele>1.968237</ele>
<time>2026-07-13T08:43:03.000Z</time>
</trkpt>
<trkpt lat="56.198414" lon="8.166505">
<ele>1.965260</ele>
<time>2026-07-13T08:43:04.000Z</time>
</trkpt>
<trkpt lat="56.198448" lon="8.166472">
<ele>1.962518</ele>
<time>2026-07-13T08:43:05.000Z</time>
</trkpt>
<trkpt lat="56.198486" lon="8.166439">
<ele>1.959524</ele>
<time>2026-07-13T08:43:06.000Z</time>
</trkpt>
<trkpt lat="56.198521" lon="8.166407">
<ele>1.956738</ele>
<time>2026-07-13T08:43:07.000Z</time>
</trkpt>
<trkpt lat="56.198559" lon="8.166377">
<ele>1.953793</ele>
<time>2026-07-13T08:43:08.000Z</time>
</trkpt>
<trkpt lat="56.198597" lon="8.166348">
<ele>1.950864</ele>
<time>2026-07-13T08:43:09.000Z</time>
</trkpt>
<trkpt lat="56.198635" lon="8.166319">
<ele>1.947935</ele>
<time>2026-07-13T08:43:10.000Z</time>
</trkpt>
<trkpt lat="56.198677" lon="8.166287">
<ele>1.944698</ele>
<time>2026-07-13T08:43:11.000Z</time>
</trkpt>
<trkpt lat="56.198719" lon="8.166252">
<ele>1.941413</ele>
<time>2026-07-13T08:43:12.000Z</time>
</trkpt>
<trkpt lat="56.198757" lon="8.166217">
<ele>1.938384</ele>
<time>2026-07-13T08:43:13.000Z</time>
</trkpt>
<trkpt lat="56.198799" lon="8.166183">
<ele>1.935116</ele>
<time>2026-07-13T08:43:14.000Z</time>
</trkpt>
<trkpt lat="56.198845" lon="8.166150">
<ele>1.932157</ele>
<time>2026-07-13T08:43:15.000Z</time>
</trkpt>
<trkpt lat="56.198887" lon="8.166115">
<ele>1.929453</ele>
<time>2026-07-13T08:43:16.000Z</time>
</trkpt>
<trkpt lat="56.198925" lon="8.166079">
<ele>1.926944</ele>
<time>2026-07-13T08:43:17.000Z</time>
</trkpt>
<trkpt lat="56.198967" lon="8.166039">
<ele>1.924168</ele>
<time>2026-07-13T08:43:18.000Z</time>
</trkpt>
<trkpt lat="56.199009" lon="8.166001">
<ele>1.921422</ele>
<time>2026-07-13T08:43:19.000Z</time>
</trkpt>
<trkpt lat="56.199055" lon="8.165967">
<ele>1.918517</ele>
<time>2026-07-13T08:43:20.000Z</time>
</trkpt>
<trkpt lat="56.199097" lon="8.165932">
<ele>1.915814</ele>
<time>2026-07-13T08:43:21.000Z</time>
</trkpt>
<trkpt lat="56.199139" lon="8.165894">
<ele>1.913068</ele>
<time>2026-07-13T08:43:22.000Z</time>
</trkpt>
<trkpt lat="56.199181" lon="8.165854">
<ele>1.910292</ele>
<time>2026-07-13T08:43:23.000Z</time>
</trkpt>
<trkpt lat="56.199223" lon="8.165813">
<ele>1.907500</ele>
<time>2026-07-13T08:43:24.000Z</time>
</trkpt>
<trkpt lat="56.199268" lon="8.165772">
<ele>1.904554</ele>
<time>2026-07-13T08:43:25.000Z</time>
</trkpt>
<trkpt lat="56.199314" lon="8.165735">
<ele>1.901610</ele>
<time>2026-07-13T08:43:26.000Z</time>
</trkpt>
<trkpt lat="56.199356" lon="8.165700">
<ele>1.898907</ele>
<time>2026-07-13T08:43:27.000Z</time>
</trkpt>
<trkpt lat="56.199398" lon="8.165663">
<ele>1.896175</ele>
<time>2026-07-13T08:43:28.000Z</time>
</trkpt>
<trkpt lat="56.199440" lon="8.165625">
<ele>1.893429</ele>
<time>2026-07-13T08:43:29.000Z</time>
</trkpt>
<trkpt lat="56.199482" lon="8.165589">
<ele>1.890711</ele>
<time>2026-07-13T08:43:30.000Z</time>
</trkpt>
<trkpt lat="56.199524" lon="8.165556">
<ele>1.888034</ele>
<time>2026-07-13T08:43:31.000Z</time>
</trkpt>
<trkpt lat="56.199566" lon="8.165522">
<ele>1.885344</ele>
<time>2026-07-13T08:43:32.000Z</time>
</trkpt>
<trkpt lat="56.199608" lon="8.165487">
<ele>1.882640</ele>
<time>2026-07-13T08:43:33.000Z</time>
</trkpt>
<trkpt lat="56.199650" lon="8.165451">
<ele>1.879923</ele>
<time>2026-07-13T08:43:34.000Z</time>
</trkpt>
<trkpt lat="56.199688" lon="8.165414">
<ele>1.877399</ele>
<time>2026-07-13T08:43:35.000Z</time>
</trkpt>
<trkpt lat="56.199730" lon="8.165379">
<ele>1.874695</ele>
<time>2026-07-13T08:43:36.000Z</time>
</trkpt>
<trkpt lat="56.199772" lon="8.165343">
<ele>1.871977</ele>
<time>2026-07-13T08:43:37.000Z</time>
</trkpt>
<trkpt lat="56.199814" lon="8.165308">
<ele>1.869274</ele>
<time>2026-07-13T08:43:38.000Z</time>
</trkpt>
<trkpt lat="56.199856" lon="8.165272">
<ele>1.866556</ele>
<time>2026-07-13T08:43:39.000Z</time>
</trkpt>
<trkpt lat="56.199898" lon="8.165237">
<ele>1.863852</ele>
<time>2026-07-13T08:43:40.000Z</time>
</trkpt>
<trkpt lat="56.199940" lon="8.165202">
<ele>1.861149</ele>
<time>2026-07-13T08:43:41.000Z</time>
</trkpt>
<trkpt lat="56.199982" lon="8.165170">
<ele>1.858485</ele>
<time>2026-07-13T08:43:42.000Z</time>
</trkpt>
<trkpt lat="56.200020" lon="8.165132">
<ele>1.855945</ele>
<time>2026-07-13T08:43:43.000Z</time>
</trkpt>
<trkpt lat="56.200058" lon="8.165087">
<ele>1.853287</ele>
<time>2026-07-13T08:43:44.000Z</time>
</trkpt>
<trkpt lat="56.200092" lon="8.165042">
<ele>1.850821</ele>
<time>2026-07-13T08:43:45.000Z</time>
</trkpt>
<trkpt lat="56.200127" lon="8.164992">
<ele>1.848210</ele>
<time>2026-07-13T08:43:46.000Z</time>
</trkpt>
<trkpt lat="56.200157" lon="8.164939">
<ele>1.845754</ele>
<time>2026-07-13T08:43:47.000Z</time>
</trkpt>
<trkpt lat="56.200191" lon="8.164886">
<ele>1.843125</ele>
<time>2026-07-13T08:43:48.000Z</time>
</trkpt>
<trkpt lat="56.200226" lon="8.164832">
<ele>1.840432</ele>
<time>2026-07-13T08:43:49.000Z</time>
</trkpt>
<trkpt lat="56.200260" lon="8.164776">
<ele>1.837738</ele>
<time>2026-07-13T08:43:50.000Z</time>
</trkpt>
<trkpt lat="56.200294" lon="8.164719">
<ele>1.835023</ele>
<time>2026-07-13T08:43:51.000Z</time>
</trkpt>
<trkpt lat="56.200325" lon="8.164662">
<ele>1.832433</ele>
<time>2026-07-13T08:43:52.000Z</time>
</trkpt>
<trkpt lat="56.200355" lon="8.164605">
<ele>1.829884</ele>
<time>2026-07-13T08:43:53.000Z</time>
</trkpt>
<trkpt lat="56.200390" lon="8.164547">
<ele>1.832613</ele>
<time>2026-07-13T08:43:54.000Z</time>
</trkpt>
<trkpt lat="56.200420" lon="8.164493">
<ele>1.835408</ele>
<time>2026-07-13T08:43:55.000Z</time>
</trkpt>
<trkpt lat="56.200455" lon="8.164435">
<ele>1.838542</ele>
<time>2026-07-13T08:43:56.000Z</time>
</trkpt>
<trkpt lat="56.200489" lon="8.164375">
<ele>1.841679</ele>
<time>2026-07-13T08:43:57.000Z</time>
</trkpt>
<trkpt lat="56.200523" lon="8.164312">
<ele>1.844893</ele>
<time>2026-07-13T08:43:58.000Z</time>
</trkpt>
<trkpt lat="56.200554" lon="8.164252">
<ele>1.847892</ele>
<time>2026-07-13T08:43:59.000Z</time>
</trkpt>
<trkpt lat="56.200584" lon="8.164194">
<ele>1.850793</ele>
<time>2026-07-13T08:44:00.000Z</time>
</trkpt>
<trkpt lat="56.200615" lon="8.164134">
<ele>1.853792</ele>
<time>2026-07-13T08:44:01.000Z</time>
</trkpt>
<trkpt lat="56.200649" lon="8.164076">
<ele>1.856877</ele>
<time>2026-07-13T08:44:02.000Z</time>
</trkpt>
<trkpt lat="56.200684" lon="8.164017">
<ele>1.860036</ele>
<time>2026-07-13T08:44:03.000Z</time>
</trkpt>
<trkpt lat="56.200718" lon="8.163958">
<ele>1.863147</ele>
<time>2026-07-13T08:44:04.000Z</time>
</trkpt>
<trkpt lat="56.200752" lon="8.163900">
<ele>1.866233</ele>
<time>2026-07-13T08:44:05.000Z</time>
</trkpt>
<trkpt lat="56.200787" lon="8.163843">
<ele>1.869342</ele>
<time>2026-07-13T08:44:06.000Z</time>
</trkpt>
<trkpt lat="56.200817" lon="8.163783">
<ele>1.872297</ele>
<time>2026-07-13T08:44:07.000Z</time>
</trkpt>
<trkpt lat="56.200851" lon="8.163725">
<ele>1.875383</ele>
<time>2026-07-13T08:44:08.000Z</time>
</trkpt>
<trkpt lat="56.200874" lon="8.163672">
<ele>1.877844</ele>
<time>2026-07-13T08:44:09.000Z</time>
</trkpt>
<trkpt lat="56.200901" lon="8.163621">
<ele>1.880423</ele>
<time>2026-07-13T08:44:10.000Z</time>
</trkpt>
<trkpt lat="56.200932" lon="8.163574">
<ele>1.883093</ele>
<time>2026-07-13T08:44:11.000Z</time>
</trkpt>
<trkpt lat="56.200958" lon="8.163528">
<ele>1.885494</ele>
<time>2026-07-13T08:44:12.000Z</time>
</trkpt>
<trkpt lat="56.200985" lon="8.163483">
<ele>1.887918</ele>
<time>2026-07-13T08:44:13.000Z</time>
</trkpt>
<trkpt lat="56.201008" lon="8.163437">
<ele>1.890183</ele>
<time>2026-07-13T08:44:14.000Z</time>
</trkpt>
<trkpt lat="56.201031" lon="8.163393">
<ele>1.892395</ele>
<time>2026-07-13T08:44:15.000Z</time>
</trkpt>
<trkpt lat="56.201054" lon="8.163350">
<ele>1.894579</ele>
<time>2026-07-13T08:44:16.000Z</time>
</trkpt>
<trkpt lat="56.201080" lon="8.163305">
<ele>1.896955</ele>
<time>2026-07-13T08:44:17.000Z</time>
</trkpt>
<trkpt lat="56.201111" lon="8.163256">
<ele>1.899673</ele>
<time>2026-07-13T08:44:18.000Z</time>
</trkpt>
<trkpt lat="56.201138" lon="8.163203">
<ele>1.902305</ele>
<time>2026-07-13T08:44:19.000Z</time>
</trkpt>
<trkpt lat="56.201164" lon="8.163149">
<ele>1.904920</ele>
<time>2026-07-13T08:44:20.000Z</time>
</trkpt>
<trkpt lat="56.201195" lon="8.163094">
<ele>1.907788</ele>
<time>2026-07-13T08:44:21.000Z</time>
</trkpt>
<trkpt lat="56.201225" lon="8.163038">
<ele>1.910635</ele>
<time>2026-07-13T08:44:22.000Z</time>
</trkpt>
<trkpt lat="56.201256" lon="8.162987">
<ele>1.913402</ele>
<time>2026-07-13T08:44:23.000Z</time>
</trkpt>
<trkpt lat="56.201286" lon="8.162938">
<ele>1.916070</ele>
<time>2026-07-13T08:44:24.000Z</time>
</trkpt>
<trkpt lat="56.201321" lon="8.162888">
<ele>1.919013</ele>
<time>2026-07-13T08:44:25.000Z</time>
</trkpt>
<trkpt lat="56.201355" lon="8.162833">
<ele>1.922025</ele>
<time>2026-07-13T08:44:26.000Z</time>
</trkpt>
<trkpt lat="56.201389" lon="8.162777">
<ele>1.925060</ele>
<time>2026-07-13T08:44:27.000Z</time>
</trkpt>
<trkpt lat="56.201424" lon="8.162721">
<ele>1.928145</ele>
<time>2026-07-13T08:44:28.000Z</time>
</trkpt>
<trkpt lat="56.201458" lon="8.162664">
<ele>1.931206</ele>
<time>2026-07-13T08:44:29.000Z</time>
</trkpt>
<trkpt lat="56.201492" lon="8.162607">
<ele>1.934266</ele>
<time>2026-07-13T08:44:30.000Z</time>
</trkpt>
<trkpt lat="56.201530" lon="8.162545">
<ele>1.937645</ele>
<time>2026-07-13T08:44:31.000Z</time>
</trkpt>
<trkpt lat="56.201565" lon="8.162485">
<ele>1.940829</ele>
<time>2026-07-13T08:44:32.000Z</time>
</trkpt>
<trkpt lat="56.201603" lon="8.162425">
<ele>1.944159</ele>
<time>2026-07-13T08:44:33.000Z</time>
</trkpt>
<trkpt lat="56.201637" lon="8.162365">
<ele>1.947295</ele>
<time>2026-07-13T08:44:34.000Z</time>
</trkpt>
<trkpt lat="56.201675" lon="8.162304">
<ele>1.951084</ele>
<time>2026-07-13T08:44:35.000Z</time>
</trkpt>
<trkpt lat="56.201710" lon="8.162242">
<ele>1.954872</ele>
<time>2026-07-13T08:44:36.000Z</time>
</trkpt>
<trkpt lat="56.201744" lon="8.162182">
<ele>1.958544</ele>
<time>2026-07-13T08:44:37.000Z</time>
</trkpt>
<trkpt lat="56.201782" lon="8.162120">
<ele>1.962500</ele>
<time>2026-07-13T08:44:38.000Z</time>
</trkpt>
<trkpt lat="56.201820" lon="8.162061">
<ele>1.966371</ele>
<time>2026-07-13T08:44:39.000Z</time>
</trkpt>
<trkpt lat="56.201859" lon="8.162003">
<ele>1.970273</ele>
<time>2026-07-13T08:44:40.000Z</time>
</trkpt>
<trkpt lat="56.201893" lon="8.161941">
<ele>1.974006</ele>
<time>2026-07-13T08:44:41.000Z</time>
</trkpt>
<trkpt lat="56.201927" lon="8.161880">
<ele>1.977709</ele>
<time>2026-07-13T08:44:42.000Z</time>
</trkpt>
<trkpt lat="56.201965" lon="8.161819">
<ele>1.981636</ele>
<time>2026-07-13T08:44:43.000Z</time>
</trkpt>
<trkpt lat="56.202007" lon="8.161758">
<ele>1.985799</ele>
<time>2026-07-13T08:44:44.000Z</time>
</trkpt>
<trkpt lat="56.202049" lon="8.161698">
<ele>1.989934</ele>
<time>2026-07-13T08:44:45.000Z</time>
</trkpt>
<trkpt lat="56.202084" lon="8.161638">
<ele>1.993662</ele>
<time>2026-07-13T08:44:46.000Z</time>
</trkpt>
<trkpt lat="56.202118" lon="8.161580">
<ele>1.997275</ele>
<time>2026-07-13T08:44:47.000Z</time>
</trkpt>
<trkpt lat="56.202156" lon="8.161529">
<ele>2.000931</ele>
<time>2026-07-13T08:44:48.000Z</time>
</trkpt>
<trkpt lat="56.202194" lon="8.161483">
<ele>2.004463</ele>
<time>2026-07-13T08:44:49.000Z</time>
</trkpt>
<trkpt lat="56.202232" lon="8.161445">
<ele>2.007815</ele>
<time>2026-07-13T08:44:50.000Z</time>
</trkpt>
<trkpt lat="56.202278" lon="8.161414">
<ele>2.011602</ele>
<time>2026-07-13T08:44:51.000Z</time>
</trkpt>
<trkpt lat="56.202324" lon="8.161390">
<ele>2.015294</ele>
<time>2026-07-13T08:44:52.000Z</time>
</trkpt>
<trkpt lat="56.202366" lon="8.161370">
<ele>2.018643</ele>
<time>2026-07-13T08:44:53.000Z</time>
</trkpt>
<trkpt lat="56.202412" lon="8.161354">
<ele>2.022255</ele>
<time>2026-07-13T08:44:54.000Z</time>
</trkpt>
<trkpt lat="56.202457" lon="8.161335">
<ele>2.025818</ele>
<time>2026-07-13T08:44:55.000Z</time>
</trkpt>
<trkpt lat="56.202503" lon="8.161312">
<ele>2.029499</ele>
<time>2026-07-13T08:44:56.000Z</time>
</trkpt>
<trkpt lat="56.202553" lon="8.161289">
<ele>2.033478</ele>
<time>2026-07-13T08:44:57.000Z</time>
</trkpt>
<trkpt lat="56.202602" lon="8.161262">
<ele>2.037428</ele>
<time>2026-07-13T08:44:58.000Z</time>
</trkpt>
<trkpt lat="56.202648" lon="8.161238">
<ele>2.041121</ele>
<time>2026-07-13T08:44:59.000Z</time>
</trkpt>
<trkpt lat="56.202694" lon="8.161216">
<ele>2.044790</ele>
<time>2026-07-13T08:45:00.000Z</time>
</trkpt>
<trkpt lat="56.202747" lon="8.161193">
<ele>2.048993</ele>
<time>2026-07-13T08:45:01.000Z</time>
</trkpt>
<trkpt lat="56.202793" lon="8.161170">
<ele>2.052674</ele>
<time>2026-07-13T08:45:02.000Z</time>
</trkpt>
<trkpt lat="56.202839" lon="8.161148">
<ele>2.056343</ele>
<time>2026-07-13T08:45:03.000Z</time>
</trkpt>
<trkpt lat="56.202889" lon="8.161129">
<ele>2.060283</ele>
<time>2026-07-13T08:45:04.000Z</time>
</trkpt>
<trkpt lat="56.202938" lon="8.161105">
<ele>2.064198</ele>
<time>2026-07-13T08:45:05.000Z</time>
</trkpt>
<trkpt lat="56.202984" lon="8.161081">
<ele>2.067890</ele>
<time>2026-07-13T08:45:06.000Z</time>
</trkpt>
<trkpt lat="56.203030" lon="8.161059">
<ele>2.071559</ele>
<time>2026-07-13T08:45:07.000Z</time>
</trkpt>
<trkpt lat="56.203075" lon="8.161035">
<ele>2.075178</ele>
<time>2026-07-13T08:45:08.000Z</time>
</trkpt>
<trkpt lat="56.203121" lon="8.161013">
<ele>2.078847</ele>
<time>2026-07-13T08:45:09.000Z</time>
</trkpt>
<trkpt lat="56.203167" lon="8.160992">
<ele>2.082505</ele>
<time>2026-07-13T08:45:10.000Z</time>
</trkpt>
<trkpt lat="56.203209" lon="8.160969">
<ele>2.085890</ele>
<time>2026-07-13T08:45:11.000Z</time>
</trkpt>
<trkpt lat="56.203255" lon="8.160949">
<ele>2.080073</ele>
<time>2026-07-13T08:45:12.000Z</time>
</trkpt>
<trkpt lat="56.203300" lon="8.160931">
<ele>2.071522</ele>
<time>2026-07-13T08:45:13.000Z</time>
</trkpt>
<trkpt lat="56.203342" lon="8.160915">
<ele>2.063559</ele>
<time>2026-07-13T08:45:14.000Z</time>
</trkpt>
<trkpt lat="56.203388" lon="8.160900">
<ele>2.054888</ele>
<time>2026-07-13T08:45:15.000Z</time>
</trkpt>
<trkpt lat="56.203423" lon="8.160882">
<ele>2.048136</ele>
<time>2026-07-13T08:45:16.000Z</time>
</trkpt>
<trkpt lat="56.203461" lon="8.160866">
<ele>2.040897</ele>
<time>2026-07-13T08:45:17.000Z</time>
</trkpt>
<trkpt lat="56.203495" lon="8.160853">
<ele>2.034449</ele>
<time>2026-07-13T08:45:18.000Z</time>
</trkpt>
<trkpt lat="56.203529" lon="8.160847">
<ele>2.028113</ele>
<time>2026-07-13T08:45:19.000Z</time>
</trkpt>
<trkpt lat="56.203556" lon="8.160839">
<ele>2.023037</ele>
<time>2026-07-13T08:45:20.000Z</time>
</trkpt>
<trkpt lat="56.203583" lon="8.160830">
<ele>2.017944</ele>
<time>2026-07-13T08:45:21.000Z</time>
</trkpt>
<trkpt lat="56.203609" lon="8.160818">
<ele>2.012965</ele>
<time>2026-07-13T08:45:22.000Z</time>
</trkpt>
<trkpt lat="56.203636" lon="8.160802">
<ele>2.007692</ele>
<time>2026-07-13T08:45:23.000Z</time>
</trkpt>
<trkpt lat="56.203667" lon="8.160784">
<ele>2.001650</ele>
<time>2026-07-13T08:45:24.000Z</time>
</trkpt>
<trkpt lat="56.203701" lon="8.160764">
<ele>1.995014</ele>
<time>2026-07-13T08:45:25.000Z</time>
</trkpt>
<trkpt lat="56.203739" lon="8.160744">
<ele>1.987670</ele>
<time>2026-07-13T08:45:26.000Z</time>
</trkpt>
<trkpt lat="56.203777" lon="8.160727">
<ele>1.980407</ele>
<time>2026-07-13T08:45:27.000Z</time>
</trkpt>
<trkpt lat="56.203815" lon="8.160710">
<ele>1.973144</ele>
<time>2026-07-13T08:45:28.000Z</time>
</trkpt>
<trkpt lat="56.203857" lon="8.160693">
<ele>1.965159</ele>
<time>2026-07-13T08:45:29.000Z</time>
</trkpt>
<trkpt lat="56.203899" lon="8.160675">
<ele>1.957150</ele>
<time>2026-07-13T08:45:30.000Z</time>
</trkpt>
<trkpt lat="56.203941" lon="8.160659">
<ele>1.949187</ele>
<time>2026-07-13T08:45:31.000Z</time>
</trkpt>
<trkpt lat="56.203983" lon="8.160647">
<ele>1.941299</ele>
<time>2026-07-13T08:45:32.000Z</time>
</trkpt>
<trkpt lat="56.204025" lon="8.160637">
<ele>1.933441</ele>
<time>2026-07-13T08:45:33.000Z</time>
</trkpt>
<trkpt lat="56.204067" lon="8.160623">
<ele>1.925518</ele>
<time>2026-07-13T08:45:34.000Z</time>
</trkpt>
<trkpt lat="56.204113" lon="8.160606">
<ele>1.916807</ele>
<time>2026-07-13T08:45:35.000Z</time>
</trkpt>
<trkpt lat="56.204159" lon="8.160588">
<ele>1.908076</ele>
<time>2026-07-13T08:45:36.000Z</time>
</trkpt>
<trkpt lat="56.204201" lon="8.160569">
<ele>1.900043</ele>
<time>2026-07-13T08:45:37.000Z</time>
</trkpt>
<trkpt lat="56.204247" lon="8.160549">
<ele>1.891265</ele>
<time>2026-07-13T08:45:38.000Z</time>
</trkpt>
<trkpt lat="56.204288" lon="8.160533">
<ele>1.883483</ele>
<time>2026-07-13T08:45:39.000Z</time>
</trkpt>
<trkpt lat="56.204330" lon="8.160517">
<ele>1.875520</ele>
<time>2026-07-13T08:45:40.000Z</time>
</trkpt>
<trkpt lat="56.204372" lon="8.160501">
<ele>1.867557</ele>
<time>2026-07-13T08:45:41.000Z</time>
</trkpt>
<trkpt lat="56.204418" lon="8.160483">
<ele>1.858825</ele>
<time>2026-07-13T08:45:42.000Z</time>
</trkpt>
<trkpt lat="56.204460" lon="8.160466">
<ele>1.850839</ele>
<time>2026-07-13T08:45:43.000Z</time>
</trkpt>
<trkpt lat="56.204502" lon="8.160446">
<ele>1.842781</ele>
<time>2026-07-13T08:45:44.000Z</time>
</trkpt>
<trkpt lat="56.204544" lon="8.160427">
<ele>1.834748</ele>
<time>2026-07-13T08:45:45.000Z</time>
</trkpt>
<trkpt lat="56.204590" lon="8.160408">
<ele>1.825993</ele>
<time>2026-07-13T08:45:46.000Z</time>
</trkpt>
<trkpt lat="56.204632" lon="8.160389">
<ele>1.817960</ele>
<time>2026-07-13T08:45:47.000Z</time>
</trkpt>
<trkpt lat="56.204674" lon="8.160370">
<ele>1.809927</ele>
<time>2026-07-13T08:45:48.000Z</time>
</trkpt>
<trkpt lat="56.204716" lon="8.160353">
<ele>1.801942</ele>
<time>2026-07-13T08:45:49.000Z</time>
</trkpt>
<trkpt lat="56.204758" lon="8.160337">
<ele>1.793979</ele>
<time>2026-07-13T08:45:50.000Z</time>
</trkpt>
<trkpt lat="56.204803" lon="8.160320">
<ele>1.785450</ele>
<time>2026-07-13T08:45:51.000Z</time>
</trkpt>
<trkpt lat="56.204845" lon="8.160302">
<ele>1.777442</ele>
<time>2026-07-13T08:45:52.000Z</time>
</trkpt>
<trkpt lat="56.204887" lon="8.160285">
<ele>1.769457</ele>
<time>2026-07-13T08:45:53.000Z</time>
</trkpt>
<trkpt lat="56.204929" lon="8.160267">
<ele>1.761448</ele>
<time>2026-07-13T08:45:54.000Z</time>
</trkpt>
<trkpt lat="56.204971" lon="8.160249">
<ele>1.753440</ele>
<time>2026-07-13T08:45:55.000Z</time>
</trkpt>
<trkpt lat="56.205017" lon="8.160230">
<ele>1.749738</ele>
<time>2026-07-13T08:45:56.000Z</time>
</trkpt>
<trkpt lat="56.205063" lon="8.160212">
<ele>1.746220</ele>
<time>2026-07-13T08:45:57.000Z</time>
</trkpt>
<trkpt lat="56.205105" lon="8.160193">
<ele>1.742983</ele>
<time>2026-07-13T08:45:58.000Z</time>
</trkpt>
<trkpt lat="56.205147" lon="8.160175">
<ele>1.739757</ele>
<time>2026-07-13T08:45:59.000Z</time>
</trkpt>
<trkpt lat="56.205193" lon="8.160159">
<ele>1.736255</ele>
<time>2026-07-13T08:46:00.000Z</time>
</trkpt>
<trkpt lat="56.205235" lon="8.160146">
<ele>1.733071</ele>
<time>2026-07-13T08:46:01.000Z</time>
</trkpt>
<trkpt lat="56.205280" lon="8.160138">
<ele>1.729691</ele>
<time>2026-07-13T08:46:02.000Z</time>
</trkpt>
<trkpt lat="56.205326" lon="8.160136">
<ele>1.726253</ele>
<time>2026-07-13T08:46:03.000Z</time>
</trkpt>
<trkpt lat="56.205372" lon="8.160141">
<ele>1.722809</ele>
<time>2026-07-13T08:46:04.000Z</time>
</trkpt>
<trkpt lat="56.205414" lon="8.160152">
<ele>1.719637</ele>
<time>2026-07-13T08:46:05.000Z</time>
</trkpt>
<trkpt lat="56.205456" lon="8.160169">
<ele>1.716420</ele>
<time>2026-07-13T08:46:06.000Z</time>
</trkpt>
<trkpt lat="56.205498" lon="8.160188">
<ele>1.713184</ele>
<time>2026-07-13T08:46:07.000Z</time>
</trkpt>
<trkpt lat="56.205540" lon="8.160208">
<ele>1.709937</ele>
<time>2026-07-13T08:46:08.000Z</time>
</trkpt>
<trkpt lat="56.205582" lon="8.160230">
<ele>1.706668</ele>
<time>2026-07-13T08:46:09.000Z</time>
</trkpt>
<trkpt lat="56.205624" lon="8.160251">
<ele>1.703410</ele>
<time>2026-07-13T08:46:10.000Z</time>
</trkpt>
<trkpt lat="56.205666" lon="8.160273">
<ele>1.700141</ele>
<time>2026-07-13T08:46:11.000Z</time>
</trkpt>
<trkpt lat="56.205708" lon="8.160297">
<ele>1.696848</ele>
<time>2026-07-13T08:46:12.000Z</time>
</trkpt>
<trkpt lat="56.205753" lon="8.160322">
<ele>1.693328</ele>
<time>2026-07-13T08:46:13.000Z</time>
</trkpt>
<trkpt lat="56.205795" lon="8.160344">
<ele>1.690059</ele>
<time>2026-07-13T08:46:14.000Z</time>
</trkpt>
<trkpt lat="56.205833" lon="8.160366">
<ele>1.687075</ele>
<time>2026-07-13T08:46:15.000Z</time>
</trkpt>
<trkpt lat="56.205875" lon="8.160388">
<ele>1.683806</ele>
<time>2026-07-13T08:46:16.000Z</time>
</trkpt>
<trkpt lat="56.205914" lon="8.160409">
<ele>1.680764</ele>
<time>2026-07-13T08:46:17.000Z</time>
</trkpt>
<trkpt lat="56.205952" lon="8.160431">
<ele>1.677781</ele>
<time>2026-07-13T08:46:18.000Z</time>
</trkpt>
<trkpt lat="56.205990" lon="8.160450">
<ele>1.674833</ele>
<time>2026-07-13T08:46:19.000Z</time>
</trkpt>
<trkpt lat="56.206028" lon="8.160471">
<ele>1.671862</ele>
<time>2026-07-13T08:46:20.000Z</time>
</trkpt>
<trkpt lat="56.206070" lon="8.160494">
<ele>1.668581</ele>
<time>2026-07-13T08:46:21.000Z</time>
</trkpt>
<trkpt lat="56.206112" lon="8.160517">
<ele>1.665300</ele>
<time>2026-07-13T08:46:22.000Z</time>
</trkpt>
<trkpt lat="56.206150" lon="8.160540">
<ele>1.662304</ele>
<time>2026-07-13T08:46:23.000Z</time>
</trkpt>
<trkpt lat="56.206192" lon="8.160560">
<ele>1.659057</ele>
<time>2026-07-13T08:46:24.000Z</time>
</trkpt>
<trkpt lat="56.206238" lon="8.160580">
<ele>1.655521</ele>
<time>2026-07-13T08:46:25.000Z</time>
</trkpt>
<trkpt lat="56.206276" lon="8.160602">
<ele>1.652537</ele>
<time>2026-07-13T08:46:26.000Z</time>
</trkpt>
<trkpt lat="56.206318" lon="8.160624">
<ele>1.649268</ele>
<time>2026-07-13T08:46:27.000Z</time>
</trkpt>
<trkpt lat="56.206360" lon="8.160645">
<ele>1.646011</ele>
<time>2026-07-13T08:46:28.000Z</time>
</trkpt>
<trkpt lat="56.206402" lon="8.160669">
<ele>1.642717</ele>
<time>2026-07-13T08:46:29.000Z</time>
</trkpt>
<trkpt lat="56.206444" lon="8.160694">
<ele>1.639411</ele>
<time>2026-07-13T08:46:30.000Z</time>
</trkpt>
<trkpt lat="56.206486" lon="8.160718">
<ele>1.636118</ele>
<time>2026-07-13T08:46:31.000Z</time>
</trkpt>
<trkpt lat="56.206528" lon="8.160740">
<ele>1.632849</ele>
<time>2026-07-13T08:46:32.000Z</time>
</trkpt>
<trkpt lat="56.206574" lon="8.160763">
<ele>1.629281</ele>
<time>2026-07-13T08:46:33.000Z</time>
</trkpt>
<trkpt lat="56.206615" lon="8.160788">
<ele>1.626045</ele>
<time>2026-07-13T08:46:34.000Z</time>
</trkpt>
<trkpt lat="56.206654" lon="8.160813">
<ele>1.622951</ele>
<time>2026-07-13T08:46:35.000Z</time>
</trkpt>
<trkpt lat="56.206699" lon="8.160837">
<ele>1.619444</ele>
<time>2026-07-13T08:46:36.000Z</time>
</trkpt>
<trkpt lat="56.206741" lon="8.160860">
<ele>1.615691</ele>
<time>2026-07-13T08:46:37.000Z</time>
</trkpt>
<trkpt lat="56.206787" lon="8.160885">
<ele>1.611442</ele>
<time>2026-07-13T08:46:38.000Z</time>
</trkpt>
<trkpt lat="56.206829" lon="8.160908">
<ele>1.607561</ele>
<time>2026-07-13T08:46:39.000Z</time>
</trkpt>
<trkpt lat="56.206875" lon="8.160932">
<ele>1.603326</ele>
<time>2026-07-13T08:46:40.000Z</time>
</trkpt>
<trkpt lat="56.206917" lon="8.160957">
<ele>1.599414</ele>
<time>2026-07-13T08:46:41.000Z</time>
</trkpt>
<trkpt lat="56.206963" lon="8.160980">
<ele>1.595193</ele>
<time>2026-07-13T08:46:42.000Z</time>
</trkpt>
<trkpt lat="56.207008" lon="8.161005">
<ele>1.591028</ele>
<time>2026-07-13T08:46:43.000Z</time>
</trkpt>
<trkpt lat="56.207054" lon="8.161029">
<ele>1.586794</ele>
<time>2026-07-13T08:46:44.000Z</time>
</trkpt>
<trkpt lat="56.207100" lon="8.161051">
<ele>1.582585</ele>
<time>2026-07-13T08:46:45.000Z</time>
</trkpt>
<trkpt lat="56.207146" lon="8.161075">
<ele>1.578350</ele>
<time>2026-07-13T08:46:46.000Z</time>
</trkpt>
<trkpt lat="56.207191" lon="8.161098">
<ele>1.574214</ele>
<time>2026-07-13T08:46:47.000Z</time>
</trkpt>
<trkpt lat="56.207233" lon="8.161122">
<ele>1.570317</ele>
<time>2026-07-13T08:46:48.000Z</time>
</trkpt>
<trkpt lat="56.207279" lon="8.161144">
<ele>1.566109</ele>
<time>2026-07-13T08:46:49.000Z</time>
</trkpt>
<trkpt lat="56.207325" lon="8.161166">
<ele>1.561900</ele>
<time>2026-07-13T08:46:50.000Z</time>
</trkpt>
<trkpt lat="56.207371" lon="8.161187">
<ele>1.557704</ele>
<time>2026-07-13T08:46:51.000Z</time>
</trkpt>
<trkpt lat="56.207416" lon="8.161210">
<ele>1.553568</ele>
<time>2026-07-13T08:46:52.000Z</time>
</trkpt>
<trkpt lat="56.207458" lon="8.161233">
<ele>1.549686</ele>
<time>2026-07-13T08:46:53.000Z</time>
</trkpt>
<trkpt lat="56.207500" lon="8.161253">
<ele>1.545845</ele>
<time>2026-07-13T08:46:54.000Z</time>
</trkpt>
<trkpt lat="56.207546" lon="8.161273">
<ele>1.541660</ele>
<time>2026-07-13T08:46:55.000Z</time>
</trkpt>
<trkpt lat="56.207592" lon="8.161296">
<ele>1.537439</ele>
<time>2026-07-13T08:46:56.000Z</time>
</trkpt>
<trkpt lat="56.207630" lon="8.161321">
<ele>1.533861</ele>
<time>2026-07-13T08:46:57.000Z</time>
</trkpt>
<trkpt lat="56.207676" lon="8.161345">
<ele>1.529626</ele>
<time>2026-07-13T08:46:58.000Z</time>
</trkpt>
<trkpt lat="56.207718" lon="8.161368">
<ele>1.525745</ele>
<time>2026-07-13T08:46:59.000Z</time>
</trkpt>
<trkpt lat="56.207764" lon="8.161391">
<ele>1.521523</ele>
<time>2026-07-13T08:47:00.000Z</time>
</trkpt>
<trkpt lat="56.207806" lon="8.161415">
<ele>1.517627</ele>
<time>2026-07-13T08:47:01.000Z</time>
</trkpt>
<trkpt lat="56.207848" lon="8.161439">
<ele>1.513730</ele>
<time>2026-07-13T08:47:02.000Z</time>
</trkpt>
<trkpt lat="56.207893" lon="8.161463">
<ele>1.509580</ele>
<time>2026-07-13T08:47:03.000Z</time>
</trkpt>
<trkpt lat="56.207935" lon="8.161487">
<ele>1.505684</ele>
<time>2026-07-13T08:47:04.000Z</time>
</trkpt>
<trkpt lat="56.207981" lon="8.161510">
<ele>1.501462</ele>
<time>2026-07-13T08:47:05.000Z</time>
</trkpt>
<trkpt lat="56.208027" lon="8.161533">
<ele>1.497241</ele>
<time>2026-07-13T08:47:06.000Z</time>
</trkpt>
<trkpt lat="56.208073" lon="8.161557">
<ele>1.493006</ele>
<time>2026-07-13T08:47:07.000Z</time>
</trkpt>
<trkpt lat="56.208115" lon="8.161579">
<ele>1.489138</ele>
<time>2026-07-13T08:47:08.000Z</time>
</trkpt>
<trkpt lat="56.208160" lon="8.161601">
<ele>1.485015</ele>
<time>2026-07-13T08:47:09.000Z</time>
</trkpt>
<trkpt lat="56.208202" lon="8.161624">
<ele>1.481133</ele>
<time>2026-07-13T08:47:10.000Z</time>
</trkpt>
<trkpt lat="56.208248" lon="8.161648">
<ele>1.476898</ele>
<time>2026-07-13T08:47:11.000Z</time>
</trkpt>
<trkpt lat="56.208290" lon="8.161674">
<ele>1.472971</ele>
<time>2026-07-13T08:47:12.000Z</time>
</trkpt>
<trkpt lat="56.208332" lon="8.161697">
<ele>1.469089</ele>
<time>2026-07-13T08:47:13.000Z</time>
</trkpt>
<trkpt lat="56.208374" lon="8.161720">
<ele>1.465207</ele>
<time>2026-07-13T08:47:14.000Z</time>
</trkpt>
<trkpt lat="56.208420" lon="8.161743">
<ele>1.460986</ele>
<time>2026-07-13T08:47:15.000Z</time>
</trkpt>
<trkpt lat="56.208462" lon="8.161764">
<ele>1.459018</ele>
<time>2026-07-13T08:47:16.000Z</time>
</trkpt>
<trkpt lat="56.208508" lon="8.161779">
<ele>1.457909</ele>
<time>2026-07-13T08:47:17.000Z</time>
</trkpt>
<trkpt lat="56.208553" lon="8.161796">
<ele>1.456818</ele>
<time>2026-07-13T08:47:18.000Z</time>
</trkpt>
<trkpt lat="56.208595" lon="8.161819">
<ele>1.455777</ele>
<time>2026-07-13T08:47:19.000Z</time>
</trkpt>
<trkpt lat="56.208641" lon="8.161841">
<ele>1.454648</ele>
<time>2026-07-13T08:47:20.000Z</time>
</trkpt>
<trkpt lat="56.208683" lon="8.161863">
<ele>1.453610</ele>
<time>2026-07-13T08:47:21.000Z</time>
</trkpt>
<trkpt lat="56.208725" lon="8.161885">
<ele>1.452573</ele>
<time>2026-07-13T08:47:22.000Z</time>
</trkpt>
<trkpt lat="56.208771" lon="8.161909">
<ele>1.451436</ele>
<time>2026-07-13T08:47:23.000Z</time>
</trkpt>
<trkpt lat="56.208817" lon="8.161934">
<ele>1.450297</ele>
<time>2026-07-13T08:47:24.000Z</time>
</trkpt>
<trkpt lat="56.208859" lon="8.161957">
<ele>1.449255</ele>
<time>2026-07-13T08:47:25.000Z</time>
</trkpt>
<trkpt lat="56.208904" lon="8.161981">
<ele>1.448142</ele>
<time>2026-07-13T08:47:26.000Z</time>
</trkpt>
<trkpt lat="56.208946" lon="8.162004">
<ele>1.447100</ele>
<time>2026-07-13T08:47:27.000Z</time>
</trkpt>
<trkpt lat="56.208992" lon="8.162027">
<ele>1.445968</ele>
<time>2026-07-13T08:47:28.000Z</time>
</trkpt>
<trkpt lat="56.209034" lon="8.162050">
<ele>1.444927</ele>
<time>2026-07-13T08:47:29.000Z</time>
</trkpt>
<trkpt lat="56.209080" lon="8.162075">
<ele>1.443787</ele>
<time>2026-07-13T08:47:30.000Z</time>
</trkpt>
<trkpt lat="56.209122" lon="8.162101">
<ele>1.442733</ele>
<time>2026-07-13T08:47:31.000Z</time>
</trkpt>
<trkpt lat="56.209167" lon="8.162125">
<ele>1.441620</ele>
<time>2026-07-13T08:47:32.000Z</time>
</trkpt>
<trkpt lat="56.209213" lon="8.162146">
<ele>1.440494</ele>
<time>2026-07-13T08:47:33.000Z</time>
</trkpt>
<trkpt lat="56.209255" lon="8.162168">
<ele>1.439456</ele>
<time>2026-07-13T08:47:34.000Z</time>
</trkpt>
<trkpt lat="56.209301" lon="8.162189">
<ele>1.438331</ele>
<time>2026-07-13T08:47:35.000Z</time>
</trkpt>
<trkpt lat="56.209347" lon="8.162211">
<ele>1.437202</ele>
<time>2026-07-13T08:47:36.000Z</time>
</trkpt>
<trkpt lat="56.209389" lon="8.162232">
<ele>1.436168</ele>
<time>2026-07-13T08:47:37.000Z</time>
</trkpt>
<trkpt lat="56.209435" lon="8.162255">
<ele>1.435035</ele>
<time>2026-07-13T08:47:38.000Z</time>
</trkpt>
<trkpt lat="56.209480" lon="8.162280">
<ele>1.433918</ele>
<time>2026-07-13T08:47:39.000Z</time>
</trkpt>
<trkpt lat="56.209522" lon="8.162304">
<ele>1.432873</ele>
<time>2026-07-13T08:47:40.000Z</time>
</trkpt>
<trkpt lat="56.209568" lon="8.162330">
<ele>1.431729</ele>
<time>2026-07-13T08:47:41.000Z</time>
</trkpt>
<trkpt lat="56.209614" lon="8.162355">
<ele>1.430589</ele>
<time>2026-07-13T08:47:42.000Z</time>
</trkpt>
<trkpt lat="56.209656" lon="8.162380">
<ele>1.429540</ele>
<time>2026-07-13T08:47:43.000Z</time>
</trkpt>
<trkpt lat="56.209698" lon="8.162404">
<ele>1.428494</ele>
<time>2026-07-13T08:47:44.000Z</time>
</trkpt>
<trkpt lat="56.209743" lon="8.162424">
<ele>1.427395</ele>
<time>2026-07-13T08:47:45.000Z</time>
</trkpt>
<trkpt lat="56.209785" lon="8.162447">
<ele>1.426354</ele>
<time>2026-07-13T08:47:46.000Z</time>
</trkpt>
<trkpt lat="56.209827" lon="8.162472">
<ele>1.425304</ele>
<time>2026-07-13T08:47:47.000Z</time>
</trkpt>
<trkpt lat="56.209873" lon="8.162495">
<ele>1.424172</ele>
<time>2026-07-13T08:47:48.000Z</time>
</trkpt>
<trkpt lat="56.209923" lon="8.162517">
<ele>1.422951</ele>
<time>2026-07-13T08:47:49.000Z</time>
</trkpt>
<trkpt lat="56.209969" lon="8.162540">
<ele>1.421818</ele>
<time>2026-07-13T08:47:50.000Z</time>
</trkpt>
<trkpt lat="56.210014" lon="8.162565">
<ele>1.420701</ele>
<time>2026-07-13T08:47:51.000Z</time>
</trkpt>
<trkpt lat="56.210064" lon="8.162590">
<ele>1.419470</ele>
<time>2026-07-13T08:47:52.000Z</time>
</trkpt>
<trkpt lat="56.210114" lon="8.162615">
<ele>1.418239</ele>
<time>2026-07-13T08:47:53.000Z</time>
</trkpt>
<trkpt lat="56.210159" lon="8.162640">
<ele>1.417122</ele>
<time>2026-07-13T08:47:54.000Z</time>
</trkpt>
<trkpt lat="56.210205" lon="8.162665">
<ele>1.426246</ele>
<time>2026-07-13T08:47:55.000Z</time>
</trkpt>
<trkpt lat="56.210255" lon="8.162688">
<ele>1.436825</ele>
<time>2026-07-13T08:47:56.000Z</time>
</trkpt>
<trkpt lat="56.210300" lon="8.162712">
<ele>1.446447</ele>
<time>2026-07-13T08:47:57.000Z</time>
</trkpt>
<trkpt lat="56.210346" lon="8.162736">
<ele>1.456266</ele>
<time>2026-07-13T08:47:58.000Z</time>
</trkpt>
<trkpt lat="56.210392" lon="8.162761">
<ele>1.466116</ele>
<time>2026-07-13T08:47:59.000Z</time>
</trkpt>
<trkpt lat="56.210434" lon="8.162785">
<ele>1.475150</ele>
<time>2026-07-13T08:48:00.000Z</time>
</trkpt>
<trkpt lat="56.210480" lon="8.162808">
<ele>1.484937</ele>
<time>2026-07-13T08:48:01.000Z</time>
</trkpt>
<trkpt lat="56.210526" lon="8.162833">
<ele>1.494788</ele>
<time>2026-07-13T08:48:02.000Z</time>
</trkpt>
<trkpt lat="56.210571" lon="8.162858">
<ele>1.504443</ele>
<time>2026-07-13T08:48:03.000Z</time>
</trkpt>
<trkpt lat="56.210617" lon="8.162882">
<ele>1.514261</ele>
<time>2026-07-13T08:48:04.000Z</time>
</trkpt>
<trkpt lat="56.210663" lon="8.162905">
<ele>1.524049</ele>
<time>2026-07-13T08:48:05.000Z</time>
</trkpt>
<trkpt lat="56.210712" lon="8.162927">
<ele>1.534402</ele>
<time>2026-07-13T08:48:06.000Z</time>
</trkpt>
<trkpt lat="56.210758" lon="8.162950">
<ele>1.544189</ele>
<time>2026-07-13T08:48:07.000Z</time>
</trkpt>
<trkpt lat="56.210800" lon="8.162972">
<ele>1.553156</ele>
<time>2026-07-13T08:48:08.000Z</time>
</trkpt>
<trkpt lat="56.210846" lon="8.162997">
<ele>1.563007</ele>
<time>2026-07-13T08:48:09.000Z</time>
</trkpt>
<trkpt lat="56.210892" lon="8.163020">
<ele>1.572794</ele>
<time>2026-07-13T08:48:10.000Z</time>
</trkpt>
<trkpt lat="56.210937" lon="8.163044">
<ele>1.582416</ele>
<time>2026-07-13T08:48:11.000Z</time>
</trkpt>
<trkpt lat="56.210983" lon="8.163067">
<ele>1.592203</ele>
<time>2026-07-13T08:48:12.000Z</time>
</trkpt>
<trkpt lat="56.211029" lon="8.163091">
<ele>1.602022</ele>
<time>2026-07-13T08:48:13.000Z</time>
</trkpt>
<trkpt lat="56.211075" lon="8.163115">
<ele>1.611840</ele>
<time>2026-07-13T08:48:14.000Z</time>
</trkpt>
<trkpt lat="56.211121" lon="8.163138">
<ele>1.621627</ele>
<time>2026-07-13T08:48:15.000Z</time>
</trkpt>
<trkpt lat="56.211166" lon="8.163163">
<ele>1.631282</ele>
<time>2026-07-13T08:48:16.000Z</time>
</trkpt>
<trkpt lat="56.211212" lon="8.163187">
<ele>1.641100</ele>
<time>2026-07-13T08:48:17.000Z</time>
</trkpt>
<trkpt lat="56.211258" lon="8.163211">
<ele>1.650919</ele>
<time>2026-07-13T08:48:18.000Z</time>
</trkpt>
<trkpt lat="56.211304" lon="8.163232">
<ele>1.660648</ele>
<time>2026-07-13T08:48:19.000Z</time>
</trkpt>
<trkpt lat="56.211349" lon="8.163251">
<ele>1.670123</ele>
<time>2026-07-13T08:48:20.000Z</time>
</trkpt>
<trkpt lat="56.211395" lon="8.163269">
<ele>1.679773</ele>
<time>2026-07-13T08:48:21.000Z</time>
</trkpt>
<trkpt lat="56.211437" lon="8.163285">
<ele>1.688574</ele>
<time>2026-07-13T08:48:22.000Z</time>
</trkpt>
<trkpt lat="56.211483" lon="8.163299">
<ele>1.698137</ele>
<time>2026-07-13T08:48:23.000Z</time>
</trkpt>
<trkpt lat="56.211533" lon="8.163310">
<ele>1.708463</ele>
<time>2026-07-13T08:48:24.000Z</time>
</trkpt>
<trkpt lat="56.211582" lon="8.163321">
<ele>1.718586</ele>
<time>2026-07-13T08:48:25.000Z</time>
</trkpt>
<trkpt lat="56.211628" lon="8.163331">
<ele>1.728084</ele>
<time>2026-07-13T08:48:26.000Z</time>
</trkpt>
<trkpt lat="56.211678" lon="8.163342">
<ele>1.738410</ele>
<time>2026-07-13T08:48:27.000Z</time>
</trkpt>
<trkpt lat="56.211723" lon="8.163353">
<ele>1.747719</ele>
<time>2026-07-13T08:48:28.000Z</time>
</trkpt>
<trkpt lat="56.211773" lon="8.163366">
<ele>1.758075</ele>
<time>2026-07-13T08:48:29.000Z</time>
</trkpt>
<trkpt lat="56.211819" lon="8.163379">
<ele>1.767620</ele>
<time>2026-07-13T08:48:30.000Z</time>
</trkpt>
<trkpt lat="56.211864" lon="8.163392">
<ele>1.776963</ele>
<time>2026-07-13T08:48:31.000Z</time>
</trkpt>
<trkpt lat="56.211910" lon="8.163411">
<ele>1.786164</ele>
<time>2026-07-13T08:48:32.000Z</time>
</trkpt>
<trkpt lat="56.211956" lon="8.163433">
<ele>1.790714</ele>
<time>2026-07-13T08:48:33.000Z</time>
</trkpt>
<trkpt lat="56.211998" lon="8.163455">
<ele>1.794896</ele>
<time>2026-07-13T08:48:34.000Z</time>
</trkpt>
<trkpt lat="56.212044" lon="8.163480">
<ele>1.799490</ele>
<time>2026-07-13T08:48:35.000Z</time>
</trkpt>
<trkpt lat="56.212082" lon="8.163503">
<ele>1.803323</ele>
<time>2026-07-13T08:48:36.000Z</time>
</trkpt>
<trkpt lat="56.212124" lon="8.163526">
<ele>1.807520</ele>
<time>2026-07-13T08:48:37.000Z</time>
</trkpt>
<trkpt lat="56.212162" lon="8.163551">
<ele>1.811389</ele>
<time>2026-07-13T08:48:38.000Z</time>
</trkpt>
<trkpt lat="56.212204" lon="8.163576">
<ele>1.815618</ele>
<time>2026-07-13T08:48:39.000Z</time>
</trkpt>
<trkpt lat="56.212246" lon="8.163600">
<ele>1.819831</ele>
<time>2026-07-13T08:48:40.000Z</time>
</trkpt>
<trkpt lat="56.212288" lon="8.163629">
<ele>1.824132</ele>
<time>2026-07-13T08:48:41.000Z</time>
</trkpt>
<trkpt lat="56.212334" lon="8.163656">
<ele>1.828758</ele>
<time>2026-07-13T08:48:42.000Z</time>
</trkpt>
<trkpt lat="56.212376" lon="8.163683">
<ele>1.833022</ele>
<time>2026-07-13T08:48:43.000Z</time>
</trkpt>
<trkpt lat="56.212421" lon="8.163710">
<ele>1.837557</ele>
<time>2026-07-13T08:48:44.000Z</time>
</trkpt>
<trkpt lat="56.212463" lon="8.163735">
<ele>1.841787</ele>
<time>2026-07-13T08:48:45.000Z</time>
</trkpt>
<trkpt lat="56.212509" lon="8.163760">
<ele>1.846381</ele>
<time>2026-07-13T08:48:46.000Z</time>
</trkpt>
<trkpt lat="56.212555" lon="8.163786">
<ele>1.850990</ele>
<time>2026-07-13T08:48:47.000Z</time>
</trkpt>
<trkpt lat="56.212597" lon="8.163813">
<ele>1.855254</ele>
<time>2026-07-13T08:48:48.000Z</time>
</trkpt>
<trkpt lat="56.212643" lon="8.163839">
<ele>1.859864</ele>
<time>2026-07-13T08:48:49.000Z</time>
</trkpt>
<trkpt lat="56.212688" lon="8.163865">
<ele>1.864383</ele>
<time>2026-07-13T08:48:50.000Z</time>
</trkpt>
<trkpt lat="56.212734" lon="8.163890">
<ele>1.868977</ele>
<time>2026-07-13T08:48:51.000Z</time>
</trkpt>
<trkpt lat="56.212776" lon="8.163915">
<ele>1.873206</ele>
<time>2026-07-13T08:48:52.000Z</time>
</trkpt>
<trkpt lat="56.212814" lon="8.163940">
<ele>1.877074</ele>
<time>2026-07-13T08:48:53.000Z</time>
</trkpt>
<trkpt lat="56.212856" lon="8.163964">
<ele>1.881287</ele>
<time>2026-07-13T08:48:54.000Z</time>
</trkpt>
<trkpt lat="56.212898" lon="8.163986">
<ele>1.885469</ele>
<time>2026-07-13T08:48:55.000Z</time>
</trkpt>
<trkpt lat="56.212936" lon="8.164008">
<ele>1.889286</ele>
<time>2026-07-13T08:48:56.000Z</time>
</trkpt>
<trkpt lat="56.212978" lon="8.164032">
<ele>1.893499</ele>
<time>2026-07-13T08:48:57.000Z</time>
</trkpt>
<trkpt lat="56.213020" lon="8.164055">
<ele>1.897696</ele>
<time>2026-07-13T08:48:58.000Z</time>
</trkpt>
<trkpt lat="56.213066" lon="8.164078">
<ele>1.902260</ele>
<time>2026-07-13T08:48:59.000Z</time>
</trkpt>
<trkpt lat="56.213108" lon="8.164103">
<ele>1.906490</ele>
<time>2026-07-13T08:49:00.000Z</time>
</trkpt>
<trkpt lat="56.213154" lon="8.164129">
<ele>1.911099</ele>
<time>2026-07-13T08:49:01.000Z</time>
</trkpt>
<trkpt lat="56.213200" lon="8.164157">
<ele>1.915742</ele>
<time>2026-07-13T08:49:02.000Z</time>
</trkpt>
<trkpt lat="56.213242" lon="8.164184">
<ele>1.920006</ele>
<time>2026-07-13T08:49:03.000Z</time>
</trkpt>
<trkpt lat="56.213284" lon="8.164208">
<ele>1.924219</ele>
<time>2026-07-13T08:49:04.000Z</time>
</trkpt>
<trkpt lat="56.213329" lon="8.164232">
<ele>1.928706</ele>
<time>2026-07-13T08:49:05.000Z</time>
</trkpt>
<trkpt lat="56.213375" lon="8.164257">
<ele>1.933300</ele>
<time>2026-07-13T08:49:06.000Z</time>
</trkpt>
<trkpt lat="56.213417" lon="8.164280">
<ele>1.937498</ele>
<time>2026-07-13T08:49:07.000Z</time>
</trkpt>
<trkpt lat="56.213463" lon="8.164301">
<ele>1.942035</ele>
<time>2026-07-13T08:49:08.000Z</time>
</trkpt>
<trkpt lat="56.213509" lon="8.164321">
<ele>1.946559</ele>
<time>2026-07-13T08:49:09.000Z</time>
</trkpt>
<trkpt lat="56.213554" lon="8.164342">
<ele>1.951003</ele>
<time>2026-07-13T08:49:10.000Z</time>
</trkpt>
<trkpt lat="56.213600" lon="8.164362">
<ele>1.955528</ele>
<time>2026-07-13T08:49:11.000Z</time>
</trkpt>
<trkpt lat="56.213650" lon="8.164380">
<ele>1.958263</ele>
<time>2026-07-13T08:49:12.000Z</time>
</trkpt>
<trkpt lat="56.213696" lon="8.164398">
<ele>1.959205</ele>
<time>2026-07-13T08:49:13.000Z</time>
</trkpt>
<trkpt lat="56.213741" lon="8.164416">
<ele>1.960127</ele>
<time>2026-07-13T08:49:14.000Z</time>
</trkpt>
<trkpt lat="56.213791" lon="8.164434">
<ele>1.961146</ele>
<time>2026-07-13T08:49:15.000Z</time>
</trkpt>
<trkpt lat="56.213837" lon="8.164451">
<ele>1.962085</ele>
<time>2026-07-13T08:49:16.000Z</time>
</trkpt>
<trkpt lat="56.213882" lon="8.164466">
<ele>1.963001</ele>
<time>2026-07-13T08:49:17.000Z</time>
</trkpt>
<trkpt lat="56.213928" lon="8.164482">
<ele>1.963938</ele>
<time>2026-07-13T08:49:18.000Z</time>
</trkpt>
<trkpt lat="56.213970" lon="8.164499">
<ele>1.964799</ele>
<time>2026-07-13T08:49:19.000Z</time>
</trkpt>
<trkpt lat="56.214020" lon="8.164515">
<ele>1.965814</ele>
<time>2026-07-13T08:49:20.000Z</time>
</trkpt>
<trkpt lat="56.214066" lon="8.164534">
<ele>1.966758</ele>
<time>2026-07-13T08:49:21.000Z</time>
</trkpt>
<trkpt lat="56.214115" lon="8.164552">
<ele>1.967758</ele>
<time>2026-07-13T08:49:22.000Z</time>
</trkpt>
<trkpt lat="56.214161" lon="8.164569">
<ele>1.968697</ele>
<time>2026-07-13T08:49:23.000Z</time>
</trkpt>
<trkpt lat="56.214211" lon="8.164584">
<ele>1.969711</ele>
<time>2026-07-13T08:49:24.000Z</time>
</trkpt>
<trkpt lat="56.214260" lon="8.164600">
<ele>1.970707</ele>
<time>2026-07-13T08:49:25.000Z</time>
</trkpt>
<trkpt lat="56.214310" lon="8.164620">
<ele>1.971731</ele>
<time>2026-07-13T08:49:26.000Z</time>
</trkpt>
<trkpt lat="56.214359" lon="8.164639">
<ele>1.972734</ele>
<time>2026-07-13T08:49:27.000Z</time>
</trkpt>
<trkpt lat="56.214405" lon="8.164657">
<ele>1.973675</ele>
<time>2026-07-13T08:49:28.000Z</time>
</trkpt>
<trkpt lat="56.214451" lon="8.164673">
<ele>1.974612</ele>
<time>2026-07-13T08:49:29.000Z</time>
</trkpt>
<trkpt lat="56.214500" lon="8.164688">
<ele>1.975606</ele>
<time>2026-07-13T08:49:30.000Z</time>
</trkpt>
<trkpt lat="56.214546" lon="8.164701">
<ele>1.976537</ele>
<time>2026-07-13T08:49:31.000Z</time>
</trkpt>
<trkpt lat="56.214592" lon="8.164715">
<ele>1.977470</ele>
<time>2026-07-13T08:49:32.000Z</time>
</trkpt>
<trkpt lat="56.214638" lon="8.164728">
<ele>1.978402</ele>
<time>2026-07-13T08:49:33.000Z</time>
</trkpt>
<trkpt lat="56.214684" lon="8.164742">
<ele>1.979335</ele>
<time>2026-07-13T08:49:34.000Z</time>
</trkpt>
<trkpt lat="56.214729" lon="8.164758">
<ele>1.980252</ele>
<time>2026-07-13T08:49:35.000Z</time>
</trkpt>
<trkpt lat="56.214779" lon="8.164774">
<ele>1.981268</ele>
<time>2026-07-13T08:49:36.000Z</time>
</trkpt>
<trkpt lat="56.214825" lon="8.164791">
<ele>1.982207</ele>
<time>2026-07-13T08:49:37.000Z</time>
</trkpt>
<trkpt lat="56.214870" lon="8.164807">
<ele>1.983124</ele>
<time>2026-07-13T08:49:38.000Z</time>
</trkpt>
<trkpt lat="56.214916" lon="8.164824">
<ele>1.984063</ele>
<time>2026-07-13T08:49:39.000Z</time>
</trkpt>
<trkpt lat="56.214962" lon="8.164841">
<ele>1.985002</ele>
<time>2026-07-13T08:49:40.000Z</time>
</trkpt>
<trkpt lat="56.215004" lon="8.164858">
<ele>1.985863</ele>
<time>2026-07-13T08:49:41.000Z</time>
</trkpt>
<trkpt lat="56.215054" lon="8.164874">
<ele>1.986879</ele>
<time>2026-07-13T08:49:42.000Z</time>
</trkpt>
<trkpt lat="56.215099" lon="8.164889">
<ele>1.987794</ele>
<time>2026-07-13T08:49:43.000Z</time>
</trkpt>
<trkpt lat="56.215149" lon="8.164903">
<ele>1.988806</ele>
<time>2026-07-13T08:49:44.000Z</time>
</trkpt>
<trkpt lat="56.215195" lon="8.164913">
<ele>1.989733</ele>
<time>2026-07-13T08:49:45.000Z</time>
</trkpt>
<trkpt lat="56.215240" lon="8.164920">
<ele>1.990636</ele>
<time>2026-07-13T08:49:46.000Z</time>
</trkpt>
<trkpt lat="56.215286" lon="8.164927">
<ele>1.991559</ele>
<time>2026-07-13T08:49:47.000Z</time>
</trkpt>
<trkpt lat="56.215336" lon="8.164934">
<ele>1.992562</ele>
<time>2026-07-13T08:49:48.000Z</time>
</trkpt>
<trkpt lat="56.215382" lon="8.164941">
<ele>1.993485</ele>
<time>2026-07-13T08:49:49.000Z</time>
</trkpt>
<trkpt lat="56.215427" lon="8.164947">
<ele>1.996657</ele>
<time>2026-07-13T08:49:50.000Z</time>
</trkpt>
<trkpt lat="56.215477" lon="8.164952">
<ele>2.000811</ele>
<time>2026-07-13T08:49:51.000Z</time>
</trkpt>
<trkpt lat="56.215523" lon="8.164957">
<ele>2.004634</ele>
<time>2026-07-13T08:49:52.000Z</time>
</trkpt>
<trkpt lat="56.215569" lon="8.164962">
<ele>2.008457</ele>
<time>2026-07-13T08:49:53.000Z</time>
</trkpt>
<trkpt lat="56.215614" lon="8.164967">
<ele>2.012197</ele>
<time>2026-07-13T08:49:54.000Z</time>
</trkpt>
<trkpt lat="56.215660" lon="8.164972">
<ele>2.016020</ele>
<time>2026-07-13T08:49:55.000Z</time>
</trkpt>
<trkpt lat="56.215706" lon="8.164978">
<ele>2.019846</ele>
<time>2026-07-13T08:49:56.000Z</time>
</trkpt>
<trkpt lat="56.215748" lon="8.164984">
<ele>2.023342</ele>
<time>2026-07-13T08:49:57.000Z</time>
</trkpt>
<trkpt lat="56.215794" lon="8.164988">
<ele>2.027162</ele>
<time>2026-07-13T08:49:58.000Z</time>
</trkpt>
<trkpt lat="56.215836" lon="8.164993">
<ele>2.030654</ele>
<time>2026-07-13T08:49:59.000Z</time>
</trkpt>
<trkpt lat="56.215878" lon="8.164999">
<ele>2.034149</ele>
<time>2026-07-13T08:50:00.000Z</time>
</trkpt>
<trkpt lat="56.215920" lon="8.165004">
<ele>2.037641</ele>
<time>2026-07-13T08:50:01.000Z</time>
</trkpt>
<trkpt lat="56.215958" lon="8.165010">
<ele>2.040805</ele>
<time>2026-07-13T08:50:02.000Z</time>
</trkpt>
<trkpt lat="56.215996" lon="8.165014">
<ele>2.043963</ele>
<time>2026-07-13T08:50:03.000Z</time>
</trkpt>
<trkpt lat="56.216038" lon="8.165020">
<ele>2.047458</ele>
<time>2026-07-13T08:50:04.000Z</time>
</trkpt>
<trkpt lat="56.216080" lon="8.165026">
<ele>2.050954</ele>
<time>2026-07-13T08:50:05.000Z</time>
</trkpt>
<trkpt lat="56.216122" lon="8.165031">
<ele>2.054445</ele>
<time>2026-07-13T08:50:06.000Z</time>
</trkpt>
<trkpt lat="56.216164" lon="8.165038">
<ele>2.057944</ele>
<time>2026-07-13T08:50:07.000Z</time>
</trkpt>
<trkpt lat="56.216209" lon="8.165044">
<ele>2.061688</ele>
<time>2026-07-13T08:50:08.000Z</time>
</trkpt>
<trkpt lat="56.216255" lon="8.165049">
<ele>2.065511</ele>
<time>2026-07-13T08:50:09.000Z</time>
</trkpt>
<trkpt lat="56.216301" lon="8.165054">
<ele>2.069334</ele>
<time>2026-07-13T08:50:10.000Z</time>
</trkpt>
<trkpt lat="56.216347" lon="8.165060">
<ele>2.073160</ele>
<time>2026-07-13T08:50:11.000Z</time>
</trkpt>
<trkpt lat="56.216393" lon="8.165065">
<ele>2.076983</ele>
<time>2026-07-13T08:50:12.000Z</time>
</trkpt>
<trkpt lat="56.216438" lon="8.165071">
<ele>2.080726</ele>
<time>2026-07-13T08:50:13.000Z</time>
</trkpt>
<trkpt lat="56.216480" lon="8.165077">
<ele>2.084221</ele>
<time>2026-07-13T08:50:14.000Z</time>
</trkpt>
<trkpt lat="56.216522" lon="8.165083">
<ele>2.087716</ele>
<time>2026-07-13T08:50:15.000Z</time>
</trkpt>
<trkpt lat="56.216568" lon="8.165089">
<ele>2.091542</ele>
<time>2026-07-13T08:50:16.000Z</time>
</trkpt>
<trkpt lat="56.216614" lon="8.165093">
<ele>2.095363</ele>
<time>2026-07-13T08:50:17.000Z</time>
</trkpt>
<trkpt lat="56.216652" lon="8.165097">
<ele>2.098521</ele>
<time>2026-07-13T08:50:18.000Z</time>
</trkpt>
<trkpt lat="56.216698" lon="8.165101">
<ele>2.102341</ele>
<time>2026-07-13T08:50:19.000Z</time>
</trkpt>
<trkpt lat="56.216743" lon="8.165106">
<ele>2.106081</ele>
<time>2026-07-13T08:50:20.000Z</time>
</trkpt>
<trkpt lat="56.216785" lon="8.165114">
<ele>2.109585</ele>
<time>2026-07-13T08:50:21.000Z</time>
</trkpt>
<trkpt lat="56.216824" lon="8.165121">
<ele>2.112836</ele>
<time>2026-07-13T08:50:22.000Z</time>
</trkpt>
<trkpt lat="56.216862" lon="8.165127">
<ele>2.116001</ele>
<time>2026-07-13T08:50:23.000Z</time>
</trkpt>
<trkpt lat="56.216904" lon="8.165132">
<ele>2.119493</ele>
<time>2026-07-13T08:50:24.000Z</time>
</trkpt>
<trkpt lat="56.216942" lon="8.165137">
<ele>2.122654</ele>
<time>2026-07-13T08:50:25.000Z</time>
</trkpt>
<trkpt lat="56.216984" lon="8.165141">
<ele>2.126143</ele>
<time>2026-07-13T08:50:26.000Z</time>
</trkpt>
<trkpt lat="56.217026" lon="8.165145">
<ele>2.129632</ele>
<time>2026-07-13T08:50:27.000Z</time>
</trkpt>
<trkpt lat="56.217072" lon="8.165152">
<ele>2.133461</ele>
<time>2026-07-13T08:50:28.000Z</time>
</trkpt>
<trkpt lat="56.217117" lon="8.165158">
<ele>2.137205</ele>
<time>2026-07-13T08:50:29.000Z</time>
</trkpt>
<trkpt lat="56.217163" lon="8.165166">
<ele>2.141038</ele>
<time>2026-07-13T08:50:30.000Z</time>
</trkpt>
<trkpt lat="56.217209" lon="8.165174">
<ele>2.145198</ele>
<time>2026-07-13T08:50:31.000Z</time>
</trkpt>
<trkpt lat="56.217255" lon="8.165179">
<ele>2.149646</ele>
<time>2026-07-13T08:50:32.000Z</time>
</trkpt>
<trkpt lat="56.217300" lon="8.165185">
<ele>2.154000</ele>
<time>2026-07-13T08:50:33.000Z</time>
</trkpt>
<trkpt lat="56.217342" lon="8.165191">
<ele>2.158067</ele>
<time>2026-07-13T08:50:34.000Z</time>
</trkpt>
<trkpt lat="56.217388" lon="8.165196">
<ele>2.162514</ele>
<time>2026-07-13T08:50:35.000Z</time>
</trkpt>
<trkpt lat="56.217430" lon="8.165202">
<ele>2.166580</ele>
<time>2026-07-13T08:50:36.000Z</time>
</trkpt>
<trkpt lat="56.217476" lon="8.165207">
<ele>2.171028</ele>
<time>2026-07-13T08:50:37.000Z</time>
</trkpt>
<trkpt lat="56.217522" lon="8.165213">
<ele>2.175479</ele>
<time>2026-07-13T08:50:38.000Z</time>
</trkpt>
<trkpt lat="56.217564" lon="8.165219">
<ele>2.179545</ele>
<time>2026-07-13T08:50:39.000Z</time>
</trkpt>
<trkpt lat="56.217609" lon="8.165227">
<ele>2.183909</ele>
<time>2026-07-13T08:50:40.000Z</time>
</trkpt>
<trkpt lat="56.217651" lon="8.165231">
<ele>2.187968</ele>
<time>2026-07-13T08:50:41.000Z</time>
</trkpt>
<trkpt lat="56.217690" lon="8.165233">
<ele>2.191733</ele>
<time>2026-07-13T08:50:42.000Z</time>
</trkpt>
<trkpt lat="56.217732" lon="8.165237">
<ele>2.195792</ele>
<time>2026-07-13T08:50:43.000Z</time>
</trkpt>
<trkpt lat="56.217773" lon="8.165241">
<ele>2.199755</ele>
<time>2026-07-13T08:50:44.000Z</time>
</trkpt>
<trkpt lat="56.217815" lon="8.165247">
<ele>2.203821</ele>
<time>2026-07-13T08:50:45.000Z</time>
</trkpt>
<trkpt lat="56.217854" lon="8.165253">
<ele>2.207598</ele>
<time>2026-07-13T08:50:46.000Z</time>
</trkpt>
<trkpt lat="56.217895" lon="8.165257">
<ele>2.211561</ele>
<time>2026-07-13T08:50:47.000Z</time>
</trkpt>
<trkpt lat="56.217937" lon="8.165263">
<ele>2.215627</ele>
<time>2026-07-13T08:50:48.000Z</time>
</trkpt>
<trkpt lat="56.217979" lon="8.165269">
<ele>2.219693</ele>
<time>2026-07-13T08:50:49.000Z</time>
</trkpt>
<trkpt lat="56.218021" lon="8.165274">
<ele>2.223755</ele>
<time>2026-07-13T08:50:50.000Z</time>
</trkpt>
<trkpt lat="56.218063" lon="8.165278">
<ele>2.227814</ele>
<time>2026-07-13T08:50:51.000Z</time>
</trkpt>
<trkpt lat="56.218105" lon="8.165284">
<ele>2.231881</ele>
<time>2026-07-13T08:50:52.000Z</time>
</trkpt>
<trkpt lat="56.218151" lon="8.165289">
<ele>2.236328</ele>
<time>2026-07-13T08:50:53.000Z</time>
</trkpt>
<trkpt lat="56.218193" lon="8.165295">
<ele>2.240394</ele>
<time>2026-07-13T08:50:54.000Z</time>
</trkpt>
<trkpt lat="56.218235" lon="8.165301">
<ele>2.244460</ele>
<time>2026-07-13T08:50:55.000Z</time>
</trkpt>
<trkpt lat="56.218277" lon="8.165308">
<ele>2.248531</ele>
<time>2026-07-13T08:50:56.000Z</time>
</trkpt>
<trkpt lat="56.218319" lon="8.165314">
<ele>2.252597</ele>
<time>2026-07-13T08:50:57.000Z</time>
</trkpt>
<trkpt lat="56.218365" lon="8.165319">
<ele>2.257044</ele>
<time>2026-07-13T08:50:58.000Z</time>
</trkpt>
<trkpt lat="56.218410" lon="8.165326">
<ele>2.261404</ele>
<time>2026-07-13T08:50:59.000Z</time>
</trkpt>
<trkpt lat="56.218452" lon="8.165333">
<ele>2.265474</ele>
<time>2026-07-13T08:51:00.000Z</time>
</trkpt>
<trkpt lat="56.218494" lon="8.165339">
<ele>2.269540</ele>
<time>2026-07-13T08:51:01.000Z</time>
</trkpt>
<trkpt lat="56.218536" lon="8.165346">
<ele>2.273611</ele>
<time>2026-07-13T08:51:02.000Z</time>
</trkpt>
<trkpt lat="56.218582" lon="8.165353">
<ele>2.278066</ele>
<time>2026-07-13T08:51:03.000Z</time>
</trkpt>
<trkpt lat="56.218624" lon="8.165359">
<ele>2.282132</ele>
<time>2026-07-13T08:51:04.000Z</time>
</trkpt>
<trkpt lat="56.218666" lon="8.165363">
<ele>2.286191</ele>
<time>2026-07-13T08:51:05.000Z</time>
</trkpt>
<trkpt lat="56.218712" lon="8.165370">
<ele>2.290647</ele>
<time>2026-07-13T08:51:06.000Z</time>
</trkpt>
<trkpt lat="56.218754" lon="8.165377">
<ele>2.294717</ele>
<time>2026-07-13T08:51:07.000Z</time>
</trkpt>
<trkpt lat="56.218800" lon="8.165384">
<ele>2.299173</ele>
<time>2026-07-13T08:51:08.000Z</time>
</trkpt>
<trkpt lat="56.218842" lon="8.165393">
<ele>2.303255</ele>
<time>2026-07-13T08:51:09.000Z</time>
</trkpt>
<trkpt lat="56.218884" lon="8.165401">
<ele>2.307331</ele>
<time>2026-07-13T08:51:10.000Z</time>
</trkpt>
<trkpt lat="56.218925" lon="8.165408">
<ele>2.311305</ele>
<time>2026-07-13T08:51:11.000Z</time>
</trkpt>
<trkpt lat="56.218964" lon="8.165413">
<ele>2.315078</ele>
<time>2026-07-13T08:51:12.000Z</time>
</trkpt>
<trkpt lat="56.219002" lon="8.165417">
<ele>2.315592</ele>
<time>2026-07-13T08:51:13.000Z</time>
</trkpt>
<trkpt lat="56.219044" lon="8.165421">
<ele>2.314055</ele>
<time>2026-07-13T08:51:14.000Z</time>
</trkpt>
<trkpt lat="56.219086" lon="8.165428">
<ele>2.312514</ele>
<time>2026-07-13T08:51:15.000Z</time>
</trkpt>
<trkpt lat="56.219131" lon="8.165435">
<ele>2.310864</ele>
<time>2026-07-13T08:51:16.000Z</time>
</trkpt>
<trkpt lat="56.219177" lon="8.165442">
<ele>2.309177</ele>
<time>2026-07-13T08:51:17.000Z</time>
</trkpt>
<trkpt lat="56.219223" lon="8.165449">
<ele>2.307490</ele>
<time>2026-07-13T08:51:18.000Z</time>
</trkpt>
<trkpt lat="56.219269" lon="8.165455">
<ele>2.305804</ele>
<time>2026-07-13T08:51:19.000Z</time>
</trkpt>
<trkpt lat="56.219315" lon="8.165462">
<ele>2.304117</ele>
<time>2026-07-13T08:51:20.000Z</time>
</trkpt>
<trkpt lat="56.219364" lon="8.165468">
<ele>2.302323</ele>
<time>2026-07-13T08:51:21.000Z</time>
</trkpt>
<trkpt lat="56.219410" lon="8.165475">
<ele>2.300636</ele>
<time>2026-07-13T08:51:22.000Z</time>
</trkpt>
<trkpt lat="56.219456" lon="8.165481">
<ele>2.298950</ele>
<time>2026-07-13T08:51:23.000Z</time>
</trkpt>
<trkpt lat="56.219502" lon="8.165485">
<ele>2.297267</ele>
<time>2026-07-13T08:51:24.000Z</time>
</trkpt>
<trkpt lat="56.219547" lon="8.165490">
<ele>2.295620</ele>
<time>2026-07-13T08:51:25.000Z</time>
</trkpt>
<trkpt lat="56.219597" lon="8.165496">
<ele>2.293789</ele>
<time>2026-07-13T08:51:26.000Z</time>
</trkpt>
<trkpt lat="56.219643" lon="8.165504">
<ele>2.292100</ele>
<time>2026-07-13T08:51:27.000Z</time>
</trkpt>
<trkpt lat="56.219688" lon="8.165510">
<ele>2.290451</ele>
<time>2026-07-13T08:51:28.000Z</time>
</trkpt>
<trkpt lat="56.219734" lon="8.165516">
<ele>2.288766</ele>
<time>2026-07-13T08:51:29.000Z</time>
</trkpt>
<trkpt lat="56.219780" lon="8.165524">
<ele>2.287077</ele>
<time>2026-07-13T08:51:30.000Z</time>
</trkpt>
<trkpt lat="56.219826" lon="8.165529">
<ele>2.285393</ele>
<time>2026-07-13T08:51:31.000Z</time>
</trkpt>
<trkpt lat="56.219872" lon="8.165536">
<ele>2.283706</ele>
<time>2026-07-13T08:51:32.000Z</time>
</trkpt>
<trkpt lat="56.219917" lon="8.165545">
<ele>2.282051</ele>
<time>2026-07-13T08:51:33.000Z</time>
</trkpt>
<trkpt lat="56.219963" lon="8.165551">
<ele>2.280366</ele>
<time>2026-07-13T08:51:34.000Z</time>
</trkpt>
<trkpt lat="56.220009" lon="8.165558">
<ele>2.278679</ele>
<time>2026-07-13T08:51:35.000Z</time>
</trkpt>
<trkpt lat="56.220055" lon="8.165565">
<ele>2.276992</ele>
<time>2026-07-13T08:51:36.000Z</time>
</trkpt>
<trkpt lat="56.220100" lon="8.165570">
<ele>2.275344</ele>
<time>2026-07-13T08:51:37.000Z</time>
</trkpt>
<trkpt lat="56.220146" lon="8.165578">
<ele>2.273656</ele>
<time>2026-07-13T08:51:38.000Z</time>
</trkpt>
<trkpt lat="56.220192" lon="8.165585">
<ele>2.271969</ele>
<time>2026-07-13T08:51:39.000Z</time>
</trkpt>
<trkpt lat="56.220230" lon="8.165592">
<ele>2.270573</ele>
<time>2026-07-13T08:51:40.000Z</time>
</trkpt>
<trkpt lat="56.220276" lon="8.165598">
<ele>2.268888</ele>
<time>2026-07-13T08:51:41.000Z</time>
</trkpt>
<trkpt lat="56.220322" lon="8.165604">
<ele>2.267202</ele>
<time>2026-07-13T08:51:42.000Z</time>
</trkpt>
<trkpt lat="56.220364" lon="8.165609">
<ele>2.265664</ele>
<time>2026-07-13T08:51:43.000Z</time>
</trkpt>
<trkpt lat="56.220406" lon="8.165618">
<ele>2.264118</ele>
<time>2026-07-13T08:51:44.000Z</time>
</trkpt>
<trkpt lat="56.220448" lon="8.165632">
<ele>2.262557</ele>
<time>2026-07-13T08:51:45.000Z</time>
</trkpt>
<trkpt lat="56.220486" lon="8.165646">
<ele>2.261140</ele>
<time>2026-07-13T08:51:46.000Z</time>
</trkpt>
<trkpt lat="56.220528" lon="8.165653">
<ele>2.259599</ele>
<time>2026-07-13T08:51:47.000Z</time>
</trkpt>
<trkpt lat="56.220570" lon="8.165659">
<ele>2.258059</ele>
<time>2026-07-13T08:51:48.000Z</time>
</trkpt>
<trkpt lat="56.220608" lon="8.165665">
<ele>2.256665</ele>
<time>2026-07-13T08:51:49.000Z</time>
</trkpt>
<trkpt lat="56.220654" lon="8.165673">
<ele>2.254976</ele>
<time>2026-07-13T08:51:50.000Z</time>
</trkpt>
<trkpt lat="56.220692" lon="8.165681">
<ele>2.253578</ele>
<time>2026-07-13T08:51:51.000Z</time>
</trkpt>
<trkpt lat="56.220734" lon="8.165687">
<ele>2.252039</ele>
<time>2026-07-13T08:51:52.000Z</time>
</trkpt>
<trkpt lat="56.220776" lon="8.165693">
<ele>2.249941</ele>
<time>2026-07-13T08:51:53.000Z</time>
</trkpt>
<trkpt lat="56.220821" lon="8.165699">
<ele>2.244365</ele>
<time>2026-07-13T08:51:54.000Z</time>
</trkpt>
<trkpt lat="56.220863" lon="8.165707">
<ele>2.239147</ele>
<time>2026-07-13T08:51:55.000Z</time>
</trkpt>
<trkpt lat="56.220909" lon="8.165713">
<ele>2.233449</ele>
<time>2026-07-13T08:51:56.000Z</time>
</trkpt>
<trkpt lat="56.220951" lon="8.165718">
<ele>2.228248</ele>
<time>2026-07-13T08:51:57.000Z</time>
</trkpt>
<trkpt lat="56.220997" lon="8.165722">
<ele>2.222558</ele>
<time>2026-07-13T08:51:58.000Z</time>
</trkpt>
<trkpt lat="56.221039" lon="8.165728">
<ele>2.217353</ele>
<time>2026-07-13T08:51:59.000Z</time>
</trkpt>
<trkpt lat="56.221085" lon="8.165736">
<ele>2.211643</ele>
<time>2026-07-13T08:52:00.000Z</time>
</trkpt>
<trkpt lat="56.221130" lon="8.165745">
<ele>2.206049</ele>
<time>2026-07-13T08:52:01.000Z</time>
</trkpt>
<trkpt lat="56.221176" lon="8.165751">
<ele>2.200350</ele>
<time>2026-07-13T08:52:02.000Z</time>
</trkpt>
<trkpt lat="56.221226" lon="8.165759">
<ele>2.194148</ele>
<time>2026-07-13T08:52:03.000Z</time>
</trkpt>
<trkpt lat="56.221272" lon="8.165766">
<ele>2.188445</ele>
<time>2026-07-13T08:52:04.000Z</time>
</trkpt>
<trkpt lat="56.221317" lon="8.165772">
<ele>2.182870</ele>
<time>2026-07-13T08:52:05.000Z</time>
</trkpt>
<trkpt lat="56.221367" lon="8.165779">
<ele>2.176673</ele>
<time>2026-07-13T08:52:06.000Z</time>
</trkpt>
<trkpt lat="56.221413" lon="8.165787">
<ele>2.170963</ele>
<time>2026-07-13T08:52:07.000Z</time>
</trkpt>
<trkpt lat="56.221458" lon="8.165791">
<ele>2.165397</ele>
<time>2026-07-13T08:52:08.000Z</time>
</trkpt>
<trkpt lat="56.221500" lon="8.165798">
<ele>2.160185</ele>
<time>2026-07-13T08:52:09.000Z</time>
</trkpt>
<trkpt lat="56.221542" lon="8.165803">
<ele>2.154985</ele>
<time>2026-07-13T08:52:10.000Z</time>
</trkpt>
<trkpt lat="56.221584" lon="8.165808">
<ele>2.149784</ele>
<time>2026-07-13T08:52:11.000Z</time>
</trkpt>
<trkpt lat="56.221630" lon="8.165813">
<ele>2.144091</ele>
<time>2026-07-13T08:52:12.000Z</time>
</trkpt>
<trkpt lat="56.221672" lon="8.165819">
<ele>2.138885</ele>
<time>2026-07-13T08:52:13.000Z</time>
</trkpt>
<trkpt lat="56.221714" lon="8.165826">
<ele>2.133674</ele>
<time>2026-07-13T08:52:14.000Z</time>
</trkpt>
<trkpt lat="56.221756" lon="8.165833">
<ele>2.128462</ele>
<time>2026-07-13T08:52:15.000Z</time>
</trkpt>
<trkpt lat="56.221802" lon="8.165838">
<ele>2.122768</ele>
<time>2026-07-13T08:52:16.000Z</time>
</trkpt>
<trkpt lat="56.221844" lon="8.165845">
<ele>2.117557</ele>
<time>2026-07-13T08:52:17.000Z</time>
</trkpt>
<trkpt lat="56.221890" lon="8.165852">
<ele>2.111853</ele>
<time>2026-07-13T08:52:18.000Z</time>
</trkpt>
<trkpt lat="56.221935" lon="8.165858">
<ele>2.106278</ele>
<time>2026-07-13T08:52:19.000Z</time>
</trkpt>
<trkpt lat="56.221981" lon="8.165864">
<ele>2.100580</ele>
<time>2026-07-13T08:52:20.000Z</time>
</trkpt>
<trkpt lat="56.222031" lon="8.165870">
<ele>2.094389</ele>
<time>2026-07-13T08:52:21.000Z</time>
</trkpt>
<trkpt lat="56.222076" lon="8.165878">
<ele>2.088802</ele>
<time>2026-07-13T08:52:22.000Z</time>
</trkpt>
<trkpt lat="56.222126" lon="8.165884">
<ele>2.082610</ele>
<time>2026-07-13T08:52:23.000Z</time>
</trkpt>
<trkpt lat="56.222172" lon="8.165890">
<ele>2.076912</ele>
<time>2026-07-13T08:52:24.000Z</time>
</trkpt>
<trkpt lat="56.222214" lon="8.165896">
<ele>2.071706</ele>
<time>2026-07-13T08:52:25.000Z</time>
</trkpt>
<trkpt lat="56.222260" lon="8.165903">
<ele>2.066003</ele>
<time>2026-07-13T08:52:26.000Z</time>
</trkpt>
<trkpt lat="56.222305" lon="8.165912">
<ele>2.060409</ele>
<time>2026-07-13T08:52:27.000Z</time>
</trkpt>
<trkpt lat="56.222351" lon="8.165921">
<ele>2.054692</ele>
<time>2026-07-13T08:52:28.000Z</time>
</trkpt>
<trkpt lat="56.222393" lon="8.165928">
<ele>2.049480</ele>
<time>2026-07-13T08:52:29.000Z</time>
</trkpt>
<trkpt lat="56.222439" lon="8.165933">
<ele>2.043787</ele>
<time>2026-07-13T08:52:30.000Z</time>
</trkpt>
<trkpt lat="56.222481" lon="8.165936">
<ele>2.038593</ele>
<time>2026-07-13T08:52:31.000Z</time>
</trkpt>
<trkpt lat="56.222527" lon="8.165940">
<ele>2.032903</ele>
<time>2026-07-13T08:52:32.000Z</time>
</trkpt>
<trkpt lat="56.222569" lon="8.165945">
<ele>2.028146</ele>
<time>2026-07-13T08:52:33.000Z</time>
</trkpt>
<trkpt lat="56.222610" lon="8.165951">
<ele>2.025861</ele>
<time>2026-07-13T08:52:34.000Z</time>
</trkpt>
<trkpt lat="56.222649" lon="8.165960">
<ele>2.023678</ele>
<time>2026-07-13T08:52:35.000Z</time>
</trkpt>
<trkpt lat="56.222691" lon="8.165970">
<ele>2.021325</ele>
<time>2026-07-13T08:52:36.000Z</time>
</trkpt>
<trkpt lat="56.222733" lon="8.165977">
<ele>2.018982</ele>
<time>2026-07-13T08:52:37.000Z</time>
</trkpt>
<trkpt lat="56.222774" lon="8.165982">
<ele>2.016700</ele>
<time>2026-07-13T08:52:38.000Z</time>
</trkpt>
<trkpt lat="56.222816" lon="8.165986">
<ele>2.014365</ele>
<time>2026-07-13T08:52:39.000Z</time>
</trkpt>
<trkpt lat="56.222858" lon="8.165989">
<ele>2.012030</ele>
<time>2026-07-13T08:52:40.000Z</time>
</trkpt>
<trkpt lat="56.222897" lon="8.165995">
<ele>2.009857</ele>
<time>2026-07-13T08:52:41.000Z</time>
</trkpt>
<trkpt lat="56.222939" lon="8.166002">
<ele>2.007514</ele>
<time>2026-07-13T08:52:42.000Z</time>
</trkpt>
<trkpt lat="56.222981" lon="8.166011">
<ele>2.005165</ele>
<time>2026-07-13T08:52:43.000Z</time>
</trkpt>
<trkpt lat="56.223019" lon="8.166020">
<ele>2.003037</ele>
<time>2026-07-13T08:52:44.000Z</time>
</trkpt>
<trkpt lat="56.223061" lon="8.166032">
<ele>2.000675</ele>
<time>2026-07-13T08:52:45.000Z</time>
</trkpt>
<trkpt lat="56.223103" lon="8.166044">
<ele>1.998313</ele>
<time>2026-07-13T08:52:46.000Z</time>
</trkpt>
<trkpt lat="56.223148" lon="8.166058">
<ele>1.995777</ele>
<time>2026-07-13T08:52:47.000Z</time>
</trkpt>
<trkpt lat="56.223190" lon="8.166073">
<ele>1.993399</ele>
<time>2026-07-13T08:52:48.000Z</time>
</trkpt>
<trkpt lat="56.223228" lon="8.166090">
<ele>1.991224</ele>
<time>2026-07-13T08:52:49.000Z</time>
</trkpt>
<trkpt lat="56.223270" lon="8.166108">
<ele>1.988827</ele>
<time>2026-07-13T08:52:50.000Z</time>
</trkpt>
<trkpt lat="56.223312" lon="8.166123">
<ele>1.986449</ele>
<time>2026-07-13T08:52:51.000Z</time>
</trkpt>
<trkpt lat="56.223354" lon="8.166138">
<ele>1.984071</ele>
<time>2026-07-13T08:52:52.000Z</time>
</trkpt>
<trkpt lat="56.223396" lon="8.166153">
<ele>1.981693</ele>
<time>2026-07-13T08:52:53.000Z</time>
</trkpt>
<trkpt lat="56.223438" lon="8.166168">
<ele>1.979315</ele>
<time>2026-07-13T08:52:54.000Z</time>
</trkpt>
<trkpt lat="56.223480" lon="8.166182">
<ele>1.976942</ele>
<time>2026-07-13T08:52:55.000Z</time>
</trkpt>
<trkpt lat="56.223518" lon="8.166196">
<ele>1.974788</ele>
<time>2026-07-13T08:52:56.000Z</time>
</trkpt>
<trkpt lat="56.223560" lon="8.166210">
<ele>1.972416</ele>
<time>2026-07-13T08:52:57.000Z</time>
</trkpt>
<trkpt lat="56.223602" lon="8.166224">
<ele>1.970044</ele>
<time>2026-07-13T08:52:58.000Z</time>
</trkpt>
<trkpt lat="56.223640" lon="8.166239">
<ele>1.967883</ele>
<time>2026-07-13T08:52:59.000Z</time>
</trkpt>
<trkpt lat="56.223682" lon="8.166253">
<ele>1.965511</ele>
<time>2026-07-13T08:53:00.000Z</time>
</trkpt>
<trkpt lat="56.223724" lon="8.166266">
<ele>1.963145</ele>
<time>2026-07-13T08:53:01.000Z</time>
</trkpt>
<trkpt lat="56.223766" lon="8.166281">
<ele>1.960767</ele>
<time>2026-07-13T08:53:02.000Z</time>
</trkpt>
<trkpt lat="56.223812" lon="8.166296">
<ele>1.958170</ele>
<time>2026-07-13T08:53:03.000Z</time>
</trkpt>
<trkpt lat="56.223854" lon="8.166310">
<ele>1.955798</ele>
<time>2026-07-13T08:53:04.000Z</time>
</trkpt>
<trkpt lat="56.223896" lon="8.166325">
<ele>1.953420</ele>
<time>2026-07-13T08:53:05.000Z</time>
</trkpt>
<trkpt lat="56.223942" lon="8.166339">
<ele>1.950829</ele>
<time>2026-07-13T08:53:06.000Z</time>
</trkpt>
<trkpt lat="56.223984" lon="8.166354">
<ele>1.948451</ele>
<time>2026-07-13T08:53:07.000Z</time>
</trkpt>
<trkpt lat="56.224026" lon="8.166370">
<ele>1.946067</ele>
<time>2026-07-13T08:53:08.000Z</time>
</trkpt>
<trkpt lat="56.224072" lon="8.166386">
<ele>1.943465</ele>
<time>2026-07-13T08:53:09.000Z</time>
</trkpt>
<trkpt lat="56.224113" lon="8.166401">
<ele>1.941142</ele>
<time>2026-07-13T08:53:10.000Z</time>
</trkpt>
<trkpt lat="56.224159" lon="8.166417">
<ele>1.938540</ele>
<time>2026-07-13T08:53:11.000Z</time>
</trkpt>
<trkpt lat="56.224205" lon="8.166432">
<ele>1.935943</ele>
<time>2026-07-13T08:53:12.000Z</time>
</trkpt>
<trkpt lat="56.224247" lon="8.166447">
<ele>1.933565</ele>
<time>2026-07-13T08:53:13.000Z</time>
</trkpt>
<trkpt lat="56.224293" lon="8.166460">
<ele>1.930979</ele>
<time>2026-07-13T08:53:14.000Z</time>
</trkpt>
<trkpt lat="56.224339" lon="8.166475">
<ele>1.928869</ele>
<time>2026-07-13T08:53:15.000Z</time>
</trkpt>
<trkpt lat="56.224380" lon="8.166492">
<ele>1.931321</ele>
<time>2026-07-13T08:53:16.000Z</time>
</trkpt>
<trkpt lat="56.224422" lon="8.166508">
<ele>1.933823</ele>
<time>2026-07-13T08:53:17.000Z</time>
</trkpt>
<trkpt lat="56.224468" lon="8.166522">
<ele>1.936542</ele>
<time>2026-07-13T08:53:18.000Z</time>
</trkpt>
<trkpt lat="56.224510" lon="8.166538">
<ele>1.939044</ele>
<time>2026-07-13T08:53:19.000Z</time>
</trkpt>
<trkpt lat="56.224556" lon="8.166554">
<ele>1.941774</ele>
<time>2026-07-13T08:53:20.000Z</time>
</trkpt>
<trkpt lat="56.224602" lon="8.166572">
<ele>1.944518</ele>
<time>2026-07-13T08:53:21.000Z</time>
</trkpt>
<trkpt lat="56.224644" lon="8.166590">
<ele>1.947034</ele>
<time>2026-07-13T08:53:22.000Z</time>
</trkpt>
<trkpt lat="56.224690" lon="8.166605">
<ele>1.949758</ele>
<time>2026-07-13T08:53:23.000Z</time>
</trkpt>
<trkpt lat="56.224735" lon="8.166621">
<ele>1.952431</ele>
<time>2026-07-13T08:53:24.000Z</time>
</trkpt>
<trkpt lat="56.224785" lon="8.166637">
<ele>1.955391</ele>
<time>2026-07-13T08:53:25.000Z</time>
</trkpt>
<trkpt lat="56.224827" lon="8.166654">
<ele>1.957900</ele>
<time>2026-07-13T08:53:26.000Z</time>
</trkpt>
<trkpt lat="56.224873" lon="8.166669">
<ele>1.960624</ele>
<time>2026-07-13T08:53:27.000Z</time>
</trkpt>
<trkpt lat="56.224922" lon="8.166685">
<ele>1.963527</ele>
<time>2026-07-13T08:53:28.000Z</time>
</trkpt>
<trkpt lat="56.224968" lon="8.166703">
<ele>1.966270</ele>
<time>2026-07-13T08:53:29.000Z</time>
</trkpt>
<trkpt lat="56.225014" lon="8.166719">
<ele>1.969000</ele>
<time>2026-07-13T08:53:30.000Z</time>
</trkpt>
<trkpt lat="56.225059" lon="8.166736">
<ele>1.971680</ele>
<time>2026-07-13T08:53:31.000Z</time>
</trkpt>
<trkpt lat="56.225105" lon="8.166751">
<ele>1.974404</ele>
<time>2026-07-13T08:53:32.000Z</time>
</trkpt>
<trkpt lat="56.225151" lon="8.166766">
<ele>1.977129</ele>
<time>2026-07-13T08:53:33.000Z</time>
</trkpt>
<trkpt lat="56.225197" lon="8.166782">
<ele>1.979859</ele>
<time>2026-07-13T08:53:34.000Z</time>
</trkpt>
<trkpt lat="56.225246" lon="8.166798">
<ele>1.982762</ele>
<time>2026-07-13T08:53:35.000Z</time>
</trkpt>
<trkpt lat="56.225292" lon="8.166813">
<ele>1.985486</ele>
<time>2026-07-13T08:53:36.000Z</time>
</trkpt>
<trkpt lat="56.225338" lon="8.166827">
<ele>1.988205</ele>
<time>2026-07-13T08:53:37.000Z</time>
</trkpt>
<trkpt lat="56.225384" lon="8.166842">
<ele>1.990929</ele>
<time>2026-07-13T08:53:38.000Z</time>
</trkpt>
<trkpt lat="56.225430" lon="8.166857">
<ele>1.993654</ele>
<time>2026-07-13T08:53:39.000Z</time>
</trkpt>
<trkpt lat="56.225475" lon="8.166871">
<ele>1.996315</ele>
<time>2026-07-13T08:53:40.000Z</time>
</trkpt>
<trkpt lat="56.225517" lon="8.166885">
<ele>1.998804</ele>
<time>2026-07-13T08:53:41.000Z</time>
</trkpt>
<trkpt lat="56.225563" lon="8.166901">
<ele>2.001535</ele>
<time>2026-07-13T08:53:42.000Z</time>
</trkpt>
<trkpt lat="56.225609" lon="8.166916">
<ele>2.004259</ele>
<time>2026-07-13T08:53:43.000Z</time>
</trkpt>
<trkpt lat="56.225655" lon="8.166930">
<ele>2.006978</ele>
<time>2026-07-13T08:53:44.000Z</time>
</trkpt>
<trkpt lat="56.225704" lon="8.166945">
<ele>2.009875</ele>
<time>2026-07-13T08:53:45.000Z</time>
</trkpt>
<trkpt lat="56.225750" lon="8.166960">
<ele>2.012599</ele>
<time>2026-07-13T08:53:46.000Z</time>
</trkpt>
<trkpt lat="56.225800" lon="8.166974">
<ele>2.015548</ele>
<time>2026-07-13T08:53:47.000Z</time>
</trkpt>
<trkpt lat="56.225845" lon="8.166989">
<ele>2.018215</ele>
<time>2026-07-13T08:53:48.000Z</time>
</trkpt>
<trkpt lat="56.225891" lon="8.167006">
<ele>2.020952</ele>
<time>2026-07-13T08:53:49.000Z</time>
</trkpt>
<trkpt lat="56.225937" lon="8.167023">
<ele>2.023689</ele>
<time>2026-07-13T08:53:50.000Z</time>
</trkpt>
<trkpt lat="56.225983" lon="8.167038">
<ele>2.026413</ele>
<time>2026-07-13T08:53:51.000Z</time>
</trkpt>
<trkpt lat="56.226028" lon="8.167052">
<ele>2.029074</ele>
<time>2026-07-13T08:53:52.000Z</time>
</trkpt>
<trkpt lat="56.226078" lon="8.167067">
<ele>2.032029</ele>
<time>2026-07-13T08:53:53.000Z</time>
</trkpt>
<trkpt lat="56.226124" lon="8.167080">
<ele>2.036269</ele>
<time>2026-07-13T08:53:54.000Z</time>
</trkpt>
<trkpt lat="56.226170" lon="8.167094">
<ele>2.042175</ele>
<time>2026-07-13T08:53:55.000Z</time>
</trkpt>
<trkpt lat="56.226215" lon="8.167110">
<ele>2.047982</ele>
<time>2026-07-13T08:53:56.000Z</time>
</trkpt>
<trkpt lat="56.226261" lon="8.167124">
<ele>2.053888</ele>
<time>2026-07-13T08:53:57.000Z</time>
</trkpt>
<trkpt lat="56.226311" lon="8.167139">
<ele>2.060305</ele>
<time>2026-07-13T08:53:58.000Z</time>
</trkpt>
<trkpt lat="56.226356" lon="8.167154">
<ele>2.066099</ele>
<time>2026-07-13T08:53:59.000Z</time>
</trkpt>
<trkpt lat="56.226402" lon="8.167170">
<ele>2.072030</ele>
<time>2026-07-13T08:54:00.000Z</time>
</trkpt>
<trkpt lat="56.226448" lon="8.167186">
<ele>2.077961</ele>
<time>2026-07-13T08:54:01.000Z</time>
</trkpt>
<trkpt lat="56.226494" lon="8.167202">
<ele>2.083893</ele>
<time>2026-07-13T08:54:02.000Z</time>
</trkpt>
<trkpt lat="56.226540" lon="8.167218">
<ele>2.089824</ele>
<time>2026-07-13T08:54:03.000Z</time>
</trkpt>
<trkpt lat="56.226582" lon="8.167234">
<ele>2.095259</ele>
<time>2026-07-13T08:54:04.000Z</time>
</trkpt>
<trkpt lat="56.226627" lon="8.167251">
<ele>2.101080</ele>
<time>2026-07-13T08:54:05.000Z</time>
</trkpt>
<trkpt lat="56.226673" lon="8.167265">
<ele>2.106986</ele>
<time>2026-07-13T08:54:06.000Z</time>
</trkpt>
<trkpt lat="56.226719" lon="8.167279">
<ele>2.112892</ele>
<time>2026-07-13T08:54:07.000Z</time>
</trkpt>
<trkpt lat="56.226765" lon="8.167295">
<ele>2.118823</ele>
<time>2026-07-13T08:54:08.000Z</time>
</trkpt>
<trkpt lat="56.226807" lon="8.167308">
<ele>2.124218</ele>
<time>2026-07-13T08:54:09.000Z</time>
</trkpt>
<trkpt lat="56.226849" lon="8.167321">
<ele>2.129613</ele>
<time>2026-07-13T08:54:10.000Z</time>
</trkpt>
<trkpt lat="56.226894" lon="8.167336">
<ele>2.135407</ele>
<time>2026-07-13T08:54:11.000Z</time>
</trkpt>
<trkpt lat="56.226940" lon="8.167351">
<ele>2.141325</ele>
<time>2026-07-13T08:54:12.000Z</time>
</trkpt>
<trkpt lat="56.226982" lon="8.167365">
<ele>2.146733</ele>
<time>2026-07-13T08:54:13.000Z</time>
</trkpt>
<trkpt lat="56.227032" lon="8.167379">
<ele>2.153139</ele>
<time>2026-07-13T08:54:14.000Z</time>
</trkpt>
<trkpt lat="56.227081" lon="8.167397">
<ele>2.159470</ele>
<time>2026-07-13T08:54:15.000Z</time>
</trkpt>
<trkpt lat="56.227127" lon="8.167414">
<ele>2.165415</ele>
<time>2026-07-13T08:54:16.000Z</time>
</trkpt>
<trkpt lat="56.227173" lon="8.167431">
<ele>2.171360</ele>
<time>2026-07-13T08:54:17.000Z</time>
</trkpt>
<trkpt lat="56.227226" lon="8.167448">
<ele>2.178175</ele>
<time>2026-07-13T08:54:18.000Z</time>
</trkpt>
<trkpt lat="56.227272" lon="8.167467">
<ele>2.184150</ele>
<time>2026-07-13T08:54:19.000Z</time>
</trkpt>
<trkpt lat="56.227318" lon="8.167484">
<ele>2.190095</ele>
<time>2026-07-13T08:54:20.000Z</time>
</trkpt>
<trkpt lat="56.227364" lon="8.167499">
<ele>2.196013</ele>
<time>2026-07-13T08:54:21.000Z</time>
</trkpt>
<trkpt lat="56.227409" lon="8.167509">
<ele>2.201753</ele>
<time>2026-07-13T08:54:22.000Z</time>
</trkpt>
<trkpt lat="56.227455" lon="8.167513">
<ele>2.207584</ele>
<time>2026-07-13T08:54:23.000Z</time>
</trkpt>
<trkpt lat="56.227505" lon="8.167510">
<ele>2.213917</ele>
<time>2026-07-13T08:54:24.000Z</time>
</trkpt>
<trkpt lat="56.227550" lon="8.167500">
<ele>2.219657</ele>
<time>2026-07-13T08:54:25.000Z</time>
</trkpt>
<trkpt lat="56.227596" lon="8.167483">
<ele>2.225602</ele>
<time>2026-07-13T08:54:26.000Z</time>
</trkpt>
<trkpt lat="56.227642" lon="8.167461">
<ele>2.231627</ele>
<time>2026-07-13T08:54:27.000Z</time>
</trkpt>
<trkpt lat="56.227684" lon="8.167438">
<ele>2.237185</ele>
<time>2026-07-13T08:54:28.000Z</time>
</trkpt>
<trkpt lat="56.227726" lon="8.167412">
<ele>2.242808</ele>
<time>2026-07-13T08:54:29.000Z</time>
</trkpt>
<trkpt lat="56.227764" lon="8.167387">
<ele>2.247930</ele>
<time>2026-07-13T08:54:30.000Z</time>
</trkpt>
<trkpt lat="56.227810" lon="8.167365">
<ele>2.253956</ele>
<time>2026-07-13T08:54:31.000Z</time>
</trkpt>
<trkpt lat="56.227856" lon="8.167343">
<ele>2.259982</ele>
<time>2026-07-13T08:54:32.000Z</time>
</trkpt>
<trkpt lat="56.227901" lon="8.167315">
<ele>2.268995</ele>
<time>2026-07-13T08:54:33.000Z</time>
</trkpt>
<trkpt lat="56.227943" lon="8.167287">
<ele>2.278140</ele>
<time>2026-07-13T08:54:34.000Z</time>
</trkpt>
<trkpt lat="56.227989" lon="8.167260">
<ele>2.288019</ele>
<time>2026-07-13T08:54:35.000Z</time>
</trkpt>
<trkpt lat="56.228035" lon="8.167235">
<ele>2.297830</ele>
<time>2026-07-13T08:54:36.000Z</time>
</trkpt>
<trkpt lat="56.228081" lon="8.167212">
<ele>2.307578</ele>
<time>2026-07-13T08:54:37.000Z</time>
</trkpt>
<trkpt lat="56.228127" lon="8.167190">
<ele>2.317296</ele>
<time>2026-07-13T08:54:38.000Z</time>
</trkpt>
<trkpt lat="56.228168" lon="8.167167">
<ele>2.326064</ele>
<time>2026-07-13T08:54:39.000Z</time>
</trkpt>
<trkpt lat="56.228214" lon="8.167144">
<ele>2.335812</ele>
<time>2026-07-13T08:54:40.000Z</time>
</trkpt>
<trkpt lat="56.228260" lon="8.167122">
<ele>2.345530</ele>
<time>2026-07-13T08:54:41.000Z</time>
</trkpt>
<trkpt lat="56.228306" lon="8.167097">
<ele>2.355341</ele>
<time>2026-07-13T08:54:42.000Z</time>
</trkpt>
<trkpt lat="56.228348" lon="8.167073">
<ele>2.364339</ele>
<time>2026-07-13T08:54:43.000Z</time>
</trkpt>
<trkpt lat="56.228394" lon="8.167048">
<ele>2.374150</ele>
<time>2026-07-13T08:54:44.000Z</time>
</trkpt>
<trkpt lat="56.228436" lon="8.167024">
<ele>2.383147</ele>
<time>2026-07-13T08:54:45.000Z</time>
</trkpt>
<trkpt lat="56.228477" lon="8.166999">
<ele>2.391986</ele>
<time>2026-07-13T08:54:46.000Z</time>
</trkpt>
<trkpt lat="56.228519" lon="8.166975">
<ele>2.400983</ele>
<time>2026-07-13T08:54:47.000Z</time>
</trkpt>
<trkpt lat="56.228561" lon="8.166951">
<ele>2.409981</ele>
<time>2026-07-13T08:54:48.000Z</time>
</trkpt>
<trkpt lat="56.228603" lon="8.166928">
<ele>2.418944</ele>
<time>2026-07-13T08:54:49.000Z</time>
</trkpt>
<trkpt lat="56.228645" lon="8.166904">
<ele>2.427942</ele>
<time>2026-07-13T08:54:50.000Z</time>
</trkpt>
<trkpt lat="56.228683" lon="8.166883">
<ele>2.436058</ele>
<time>2026-07-13T08:54:51.000Z</time>
</trkpt>
<trkpt lat="56.228725" lon="8.166863">
<ele>2.444928</ele>
<time>2026-07-13T08:54:52.000Z</time>
</trkpt>
<trkpt lat="56.228764" lon="8.166846">
<ele>2.453121</ele>
<time>2026-07-13T08:54:53.000Z</time>
</trkpt>
<trkpt lat="56.228802" lon="8.166827">
<ele>2.461174</ele>
<time>2026-07-13T08:54:54.000Z</time>
</trkpt>
<trkpt lat="56.228836" lon="8.166807">
<ele>2.468477</ele>
<time>2026-07-13T08:54:55.000Z</time>
</trkpt>
<trkpt lat="56.228874" lon="8.166787">
<ele>2.476561</ele>
<time>2026-07-13T08:54:56.000Z</time>
</trkpt>
<trkpt lat="56.228912" lon="8.166771">
<ele>2.484529</ele>
<time>2026-07-13T08:54:57.000Z</time>
</trkpt>
<trkpt lat="56.228951" lon="8.166756">
<ele>2.492672</ele>
<time>2026-07-13T08:54:58.000Z</time>
</trkpt>
<trkpt lat="56.228989" lon="8.166739">
<ele>2.500667</ele>
<time>2026-07-13T08:54:59.000Z</time>
</trkpt>
<trkpt lat="56.229027" lon="8.166720">
<ele>2.508719</ele>
<time>2026-07-13T08:55:00.000Z</time>
</trkpt>
<trkpt lat="56.229065" lon="8.166700">
<ele>2.516803</ele>
<time>2026-07-13T08:55:01.000Z</time>
</trkpt>
<trkpt lat="56.229103" lon="8.166681">
<ele>2.524855</ele>
<time>2026-07-13T08:55:02.000Z</time>
</trkpt>
<trkpt lat="56.229141" lon="8.166663">
<ele>2.532878</ele>
<time>2026-07-13T08:55:03.000Z</time>
</trkpt>
<trkpt lat="56.229183" lon="8.166645">
<ele>2.541693</ele>
<time>2026-07-13T08:55:04.000Z</time>
</trkpt>
<trkpt lat="56.229221" lon="8.166629">
<ele>2.549662</ele>
<time>2026-07-13T08:55:05.000Z</time>
</trkpt>
<trkpt lat="56.229263" lon="8.166614">
<ele>2.558404</ele>
<time>2026-07-13T08:55:06.000Z</time>
</trkpt>
<trkpt lat="56.229305" lon="8.166595">
<ele>2.567246</ele>
<time>2026-07-13T08:55:07.000Z</time>
</trkpt>
<trkpt lat="56.229343" lon="8.166575">
<ele>2.575330</ele>
<time>2026-07-13T08:55:08.000Z</time>
</trkpt>
<trkpt lat="56.229385" lon="8.166556">
<ele>2.584172</ele>
<time>2026-07-13T08:55:09.000Z</time>
</trkpt>
<trkpt lat="56.229427" lon="8.166539">
<ele>2.592961</ele>
<time>2026-07-13T08:55:10.000Z</time>
</trkpt>
<trkpt lat="56.229466" lon="8.166521">
<ele>2.601182</ele>
<time>2026-07-13T08:55:11.000Z</time>
</trkpt>
<trkpt lat="56.229504" lon="8.166502">
<ele>2.609234</ele>
<time>2026-07-13T08:55:12.000Z</time>
</trkpt>
<trkpt lat="56.229546" lon="8.166483">
<ele>2.618076</ele>
<time>2026-07-13T08:55:13.000Z</time>
</trkpt>
<trkpt lat="56.229584" lon="8.166465">
<ele>2.626099</ele>
<time>2026-07-13T08:55:14.000Z</time>
</trkpt>
<trkpt lat="56.229618" lon="8.166443">
<ele>2.624940</ele>
<time>2026-07-13T08:55:15.000Z</time>
</trkpt>
<trkpt lat="56.229652" lon="8.166420">
<ele>2.619965</ele>
<time>2026-07-13T08:55:16.000Z</time>
</trkpt>
<trkpt lat="56.229691" lon="8.166403">
<ele>2.614470</ele>
<time>2026-07-13T08:55:17.000Z</time>
</trkpt>
<trkpt lat="56.229729" lon="8.166392">
<ele>2.609199</ele>
<time>2026-07-13T08:55:18.000Z</time>
</trkpt>
<trkpt lat="56.229763" lon="8.166385">
<ele>2.604512</ele>
<time>2026-07-13T08:55:19.000Z</time>
</trkpt>
<trkpt lat="56.229794" lon="8.166370">
<ele>2.600116</ele>
<time>2026-07-13T08:55:20.000Z</time>
</trkpt>
<trkpt lat="56.229824" lon="8.166353">
<ele>2.595809</ele>
<time>2026-07-13T08:55:21.000Z</time>
</trkpt>
<trkpt lat="56.229862" lon="8.166335">
<ele>2.590428</ele>
<time>2026-07-13T08:55:22.000Z</time>
</trkpt>
<trkpt lat="56.229897" lon="8.166318">
<ele>2.585463</ele>
<time>2026-07-13T08:55:23.000Z</time>
</trkpt>
<trkpt lat="56.229935" lon="8.166303">
<ele>2.580135</ele>
<time>2026-07-13T08:55:24.000Z</time>
</trkpt>
<trkpt lat="56.229977" lon="8.166287">
<ele>2.574256</ele>
<time>2026-07-13T08:55:25.000Z</time>
</trkpt>
<trkpt lat="56.230015" lon="8.166270">
<ele>2.568894</ele>
<time>2026-07-13T08:55:26.000Z</time>
</trkpt>
<trkpt lat="56.230057" lon="8.166251">
<ele>2.562963</ele>
<time>2026-07-13T08:55:27.000Z</time>
</trkpt>
<trkpt lat="56.230095" lon="8.166233">
<ele>2.557582</ele>
<time>2026-07-13T08:55:28.000Z</time>
</trkpt>
<trkpt lat="56.230137" lon="8.166215">
<ele>2.551669</ele>
<time>2026-07-13T08:55:29.000Z</time>
</trkpt>
<trkpt lat="56.230175" lon="8.166196">
<ele>2.546268</ele>
<time>2026-07-13T08:55:30.000Z</time>
</trkpt>
<trkpt lat="56.230217" lon="8.166175">
<ele>2.540298</ele>
<time>2026-07-13T08:55:31.000Z</time>
</trkpt>
<trkpt lat="56.230255" lon="8.166154">
<ele>2.534854</ele>
<time>2026-07-13T08:55:32.000Z</time>
</trkpt>
<trkpt lat="56.230293" lon="8.166136">
<ele>2.529473</ele>
<time>2026-07-13T08:55:33.000Z</time>
</trkpt>
<trkpt lat="56.230335" lon="8.166121">
<ele>2.523609</ele>
<time>2026-07-13T08:55:34.000Z</time>
</trkpt>
<trkpt lat="56.230373" lon="8.166106">
<ele>2.518281</ele>
<time>2026-07-13T08:55:35.000Z</time>
</trkpt>
<trkpt lat="56.230411" lon="8.166090">
<ele>2.512937</ele>
<time>2026-07-13T08:55:36.000Z</time>
</trkpt>
<trkpt lat="56.230453" lon="8.166071">
<ele>2.507006</ele>
<time>2026-07-13T08:55:37.000Z</time>
</trkpt>
<trkpt lat="56.230492" lon="8.166050">
<ele>2.501431</ele>
<time>2026-07-13T08:55:38.000Z</time>
</trkpt>
<trkpt lat="56.230530" lon="8.166029">
<ele>2.495987</ele>
<time>2026-07-13T08:55:39.000Z</time>
</trkpt>
<trkpt lat="56.230568" lon="8.166010">
<ele>2.490586</ele>
<time>2026-07-13T08:55:40.000Z</time>
</trkpt>
<trkpt lat="56.230606" lon="8.165992">
<ele>2.485205</ele>
<time>2026-07-13T08:55:41.000Z</time>
</trkpt>
<trkpt lat="56.230644" lon="8.165976">
<ele>2.479860</ele>
<time>2026-07-13T08:55:42.000Z</time>
</trkpt>
<trkpt lat="56.230686" lon="8.165958">
<ele>2.473948</ele>
<time>2026-07-13T08:55:43.000Z</time>
</trkpt>
<trkpt lat="56.230724" lon="8.165941">
<ele>2.468585</ele>
<time>2026-07-13T08:55:44.000Z</time>
</trkpt>
<trkpt lat="56.230766" lon="8.165922">
<ele>2.462654</ele>
<time>2026-07-13T08:55:45.000Z</time>
</trkpt>
<trkpt lat="56.230804" lon="8.165902">
<ele>2.457232</ele>
<time>2026-07-13T08:55:46.000Z</time>
</trkpt>
<trkpt lat="56.230843" lon="8.165881">
<ele>2.451657</ele>
<time>2026-07-13T08:55:47.000Z</time>
</trkpt>
<trkpt lat="56.230881" lon="8.165863">
<ele>2.446276</ele>
<time>2026-07-13T08:55:48.000Z</time>
</trkpt>
<trkpt lat="56.230923" lon="8.165847">
<ele>2.440397</ele>
<time>2026-07-13T08:55:49.000Z</time>
</trkpt>
<trkpt lat="56.230961" lon="8.165835">
<ele>2.435113</ele>
<time>2026-07-13T08:55:50.000Z</time>
</trkpt>
<trkpt lat="56.230999" lon="8.165828">
<ele>2.429882</ele>
<time>2026-07-13T08:55:51.000Z</time>
</trkpt>
<trkpt lat="56.231041" lon="8.165826">
<ele>2.424129</ele>
<time>2026-07-13T08:55:52.000Z</time>
</trkpt>
<trkpt lat="56.231087" lon="8.165832">
<ele>2.417813</ele>
<time>2026-07-13T08:55:53.000Z</time>
</trkpt>
<trkpt lat="56.231129" lon="8.165839">
<ele>2.412036</ele>
<time>2026-07-13T08:55:54.000Z</time>
</trkpt>
<trkpt lat="56.231163" lon="8.165853">
<ele>2.407260</ele>
<time>2026-07-13T08:55:55.000Z</time>
</trkpt>
<trkpt lat="56.231197" lon="8.165874">
<ele>2.402337</ele>
<time>2026-07-13T08:55:56.000Z</time>
</trkpt>
<trkpt lat="56.231236" lon="8.165901">
<ele>2.396614</ele>
<time>2026-07-13T08:55:57.000Z</time>
</trkpt>
<trkpt lat="56.231270" lon="8.165927">
<ele>2.391555</ele>
<time>2026-07-13T08:55:58.000Z</time>
</trkpt>
<trkpt lat="56.231304" lon="8.165949">
<ele>2.386607</ele>
<time>2026-07-13T08:55:59.000Z</time>
</trkpt>
<trkpt lat="56.231342" lon="8.165971">
<ele>2.380124</ele>
<time>2026-07-13T08:56:00.000Z</time>
</trkpt>
<trkpt lat="56.231380" lon="8.165994">
<ele>2.368511</ele>
<time>2026-07-13T08:56:01.000Z</time>
</trkpt>
<trkpt lat="56.231419" lon="8.166015">
<ele>2.356719</ele>
<time>2026-07-13T08:56:02.000Z</time>
</trkpt>
<trkpt lat="56.231457" lon="8.166036">
<ele>2.345204</ele>
<time>2026-07-13T08:56:03.000Z</time>
</trkpt>
<trkpt lat="56.231499" lon="8.166058">
<ele>2.332534</ele>
<time>2026-07-13T08:56:04.000Z</time>
</trkpt>
<trkpt lat="56.231537" lon="8.166080">
<ele>2.320971</ele>
<time>2026-07-13T08:56:05.000Z</time>
</trkpt>
<trkpt lat="56.231575" lon="8.166102">
<ele>2.309408</ele>
<time>2026-07-13T08:56:06.000Z</time>
</trkpt>
<trkpt lat="56.231609" lon="8.166123">
<ele>2.298996</ele>
<time>2026-07-13T08:56:07.000Z</time>
</trkpt>
<trkpt lat="56.231647" lon="8.166142">
<ele>2.287572</ele>
<time>2026-07-13T08:56:08.000Z</time>
</trkpt>
<trkpt lat="56.231682" lon="8.166163">
<ele>2.276885</ele>
<time>2026-07-13T08:56:09.000Z</time>
</trkpt>
<trkpt lat="56.231716" lon="8.166182">
<ele>2.266573</ele>
<time>2026-07-13T08:56:10.000Z</time>
</trkpt>
<trkpt lat="56.231751" lon="8.166200">
<ele>2.256029</ele>
<time>2026-07-13T08:56:11.000Z</time>
</trkpt>
<trkpt lat="56.231781" lon="8.166219">
<ele>2.246816</ele>
<time>2026-07-13T08:56:12.000Z</time>
</trkpt>
<trkpt lat="56.231812" lon="8.166236">
<ele>2.237429</ele>
<time>2026-07-13T08:56:13.000Z</time>
</trkpt>
<trkpt lat="56.231834" lon="8.166251">
<ele>2.230614</ele>
<time>2026-07-13T08:56:14.000Z</time>
</trkpt>
<trkpt lat="56.231854" lon="8.166278">
<ele>2.223372</ele>
<time>2026-07-13T08:56:37.000Z</time>
</trkpt>
<trkpt lat="56.231873" lon="8.166281">
<ele>2.217847</ele>
<time>2026-07-13T08:56:38.000Z</time>
</trkpt>
<trkpt lat="56.231915" lon="8.166287">
<ele>2.205643</ele>
<time>2026-07-13T08:56:39.000Z</time>
</trkpt>
<trkpt lat="56.231941" lon="8.166296">
<ele>2.197974</ele>
<time>2026-07-13T08:56:40.000Z</time>
</trkpt>
<trkpt lat="56.231968" lon="8.166312">
<ele>2.189740</ele>
<time>2026-07-13T08:56:41.000Z</time>
</trkpt>
<trkpt lat="56.231995" lon="8.166334">
<ele>2.181155</ele>
<time>2026-07-13T08:56:42.000Z</time>
</trkpt>
<trkpt lat="56.232033" lon="8.166354">
<ele>2.169687</ele>
<time>2026-07-13T08:56:43.000Z</time>
</trkpt>
<trkpt lat="56.232071" lon="8.166376">
<ele>2.158124</ele>
<time>2026-07-13T08:56:44.000Z</time>
</trkpt>
<trkpt lat="56.232109" lon="8.166397">
<ele>2.146609</ele>
<time>2026-07-13T08:56:45.000Z</time>
</trkpt>
<trkpt lat="56.232147" lon="8.166421">
<ele>2.134944</ele>
<time>2026-07-13T08:56:46.000Z</time>
</trkpt>
<trkpt lat="56.232185" lon="8.166445">
<ele>2.123279</ele>
<time>2026-07-13T08:56:47.000Z</time>
</trkpt>
<trkpt lat="56.232231" lon="8.166468">
<ele>2.109450</ele>
<time>2026-07-13T08:56:48.000Z</time>
</trkpt>
<trkpt lat="56.232277" lon="8.166491">
<ele>2.095620</ele>
<time>2026-07-13T08:56:49.000Z</time>
</trkpt>
<trkpt lat="56.232319" lon="8.166513">
<ele>2.082950</ele>
<time>2026-07-13T08:56:50.000Z</time>
</trkpt>
<trkpt lat="56.232361" lon="8.166537">
<ele>2.070185</ele>
<time>2026-07-13T08:56:51.000Z</time>
</trkpt>
<trkpt lat="56.232403" lon="8.166559">
<ele>2.057515</ele>
<time>2026-07-13T08:56:52.000Z</time>
</trkpt>
<trkpt lat="56.232445" lon="8.166583">
<ele>2.044750</ele>
<time>2026-07-13T08:56:53.000Z</time>
</trkpt>
<trkpt lat="56.232491" lon="8.166610">
<ele>2.030735</ele>
<time>2026-07-13T08:56:54.000Z</time>
</trkpt>
<trkpt lat="56.232533" lon="8.166636">
<ele>2.017870</ele>
<time>2026-07-13T08:56:55.000Z</time>
</trkpt>
<trkpt lat="56.232571" lon="8.166657">
<ele>2.006355</ele>
<time>2026-07-13T08:56:56.000Z</time>
</trkpt>
<trkpt lat="56.232613" lon="8.166679">
<ele>1.993685</ele>
<time>2026-07-13T08:56:57.000Z</time>
</trkpt>
<trkpt lat="56.232655" lon="8.166699">
<ele>1.981100</ele>
<time>2026-07-13T08:56:58.000Z</time>
</trkpt>
<trkpt lat="56.232697" lon="8.166722">
<ele>1.968384</ele>
<time>2026-07-13T08:56:59.000Z</time>
</trkpt>
<trkpt lat="56.232735" lon="8.166745">
<ele>1.956771</ele>
<time>2026-07-13T08:57:00.000Z</time>
</trkpt>
<trkpt lat="56.232777" lon="8.166768">
<ele>1.944054</ele>
<time>2026-07-13T08:57:01.000Z</time>
</trkpt>
<trkpt lat="56.232819" lon="8.166790">
<ele>1.931384</ele>
<time>2026-07-13T08:57:02.000Z</time>
</trkpt>
<trkpt lat="56.232857" lon="8.166814">
<ele>1.919718</ele>
<time>2026-07-13T08:57:03.000Z</time>
</trkpt>
<trkpt lat="56.232895" lon="8.166838">
<ele>1.908053</ele>
<time>2026-07-13T08:57:04.000Z</time>
</trkpt>
<trkpt lat="56.232937" lon="8.166865">
<ele>1.895134</ele>
<time>2026-07-13T08:57:05.000Z</time>
</trkpt>
<trkpt lat="56.232975" lon="8.166893">
<ele>1.883240</ele>
<time>2026-07-13T08:57:06.000Z</time>
</trkpt>
<trkpt lat="56.233013" lon="8.166918">
<ele>1.871520</ele>
<time>2026-07-13T08:57:07.000Z</time>
</trkpt>
<trkpt lat="56.233055" lon="8.166943">
<ele>1.859654</ele>
<time>2026-07-13T08:57:08.000Z</time>
</trkpt>
<trkpt lat="56.233097" lon="8.166968">
<ele>1.851984</ele>
<time>2026-07-13T08:57:09.000Z</time>
</trkpt>
<trkpt lat="56.233139" lon="8.166991">
<ele>1.844373</ele>
<time>2026-07-13T08:57:10.000Z</time>
</trkpt>
<trkpt lat="56.233181" lon="8.167013">
<ele>1.836790</ele>
<time>2026-07-13T08:57:11.000Z</time>
</trkpt>
<trkpt lat="56.233223" lon="8.167037">
<ele>1.829150</ele>
<time>2026-07-13T08:57:12.000Z</time>
</trkpt>
<trkpt lat="56.233265" lon="8.167061">
<ele>1.821511</ele>
<time>2026-07-13T08:57:13.000Z</time>
</trkpt>
<trkpt lat="56.233311" lon="8.167086">
<ele>1.813180</ele>
<time>2026-07-13T08:57:14.000Z</time>
</trkpt>
<trkpt lat="56.233353" lon="8.167110">
<ele>1.805540</ele>
<time>2026-07-13T08:57:15.000Z</time>
</trkpt>
<trkpt lat="56.233395" lon="8.167133">
<ele>1.797929</ele>
<time>2026-07-13T08:57:16.000Z</time>
</trkpt>
<trkpt lat="56.233440" lon="8.167154">
<ele>1.789870</ele>
<time>2026-07-13T08:57:17.000Z</time>
</trkpt>
<trkpt lat="56.233482" lon="8.167171">
<ele>1.782407</ele>
<time>2026-07-13T08:57:18.000Z</time>
</trkpt>
<trkpt lat="56.233524" lon="8.167189">
<ele>1.774922</ele>
<time>2026-07-13T08:57:19.000Z</time>
</trkpt>
<trkpt lat="56.233566" lon="8.167212">
<ele>1.767311</ele>
<time>2026-07-13T08:57:20.000Z</time>
</trkpt>
<trkpt lat="56.233612" lon="8.167235">
<ele>1.759034</ele>
<time>2026-07-13T08:57:21.000Z</time>
</trkpt>
<trkpt lat="56.233658" lon="8.167260">
<ele>1.750703</ele>
<time>2026-07-13T08:57:22.000Z</time>
</trkpt>
<trkpt lat="56.233700" lon="8.167286">
<ele>1.743003</ele>
<time>2026-07-13T08:57:23.000Z</time>
</trkpt>
<trkpt lat="56.233749" lon="8.167313">
<ele>1.734119</ele>
<time>2026-07-13T08:57:24.000Z</time>
</trkpt>
<trkpt lat="56.233795" lon="8.167337">
<ele>1.725816</ele>
<time>2026-07-13T08:57:25.000Z</time>
</trkpt>
<trkpt lat="56.233841" lon="8.167362">
<ele>1.717485</ele>
<time>2026-07-13T08:57:26.000Z</time>
</trkpt>
<trkpt lat="56.233887" lon="8.167385">
<ele>1.709208</ele>
<time>2026-07-13T08:57:27.000Z</time>
</trkpt>
<trkpt lat="56.233936" lon="8.167411">
<ele>1.700352</ele>
<time>2026-07-13T08:57:28.000Z</time>
</trkpt>
<trkpt lat="56.233982" lon="8.167438">
<ele>1.691963</ele>
<time>2026-07-13T08:57:29.000Z</time>
</trkpt>
<trkpt lat="56.234028" lon="8.167463">
<ele>1.683633</ele>
<time>2026-07-13T08:57:30.000Z</time>
</trkpt>
<trkpt lat="56.234074" lon="8.167490">
<ele>1.675245</ele>
<time>2026-07-13T08:57:31.000Z</time>
</trkpt>
<trkpt lat="56.234123" lon="8.167516">
<ele>1.666388</ele>
<time>2026-07-13T08:57:32.000Z</time>
</trkpt>
<trkpt lat="56.234165" lon="8.167542">
<ele>1.658688</ele>
<time>2026-07-13T08:57:33.000Z</time>
</trkpt>
<trkpt lat="56.234207" lon="8.167569">
<ele>1.650956</ele>
<time>2026-07-13T08:57:34.000Z</time>
</trkpt>
<trkpt lat="56.234253" lon="8.167596">
<ele>1.642568</ele>
<time>2026-07-13T08:57:35.000Z</time>
</trkpt>
<trkpt lat="56.234299" lon="8.167623">
<ele>1.634179</ele>
<time>2026-07-13T08:57:36.000Z</time>
</trkpt>
<trkpt lat="56.234344" lon="8.167646">
<ele>1.626069</ele>
<time>2026-07-13T08:57:37.000Z</time>
</trkpt>
<trkpt lat="56.234386" lon="8.167670">
<ele>1.618430</ele>
<time>2026-07-13T08:57:38.000Z</time>
</trkpt>
<trkpt lat="56.234428" lon="8.167692">
<ele>1.610846</ele>
<time>2026-07-13T08:57:39.000Z</time>
</trkpt>
<trkpt lat="56.234474" lon="8.167715">
<ele>1.602569</ele>
<time>2026-07-13T08:57:40.000Z</time>
</trkpt>
<trkpt lat="56.234520" lon="8.167737">
<ele>1.594318</ele>
<time>2026-07-13T08:57:41.000Z</time>
</trkpt>
<trkpt lat="56.234562" lon="8.167759">
<ele>1.586734</ele>
<time>2026-07-13T08:57:42.000Z</time>
</trkpt>
<trkpt lat="56.234608" lon="8.167780">
<ele>1.578507</ele>
<time>2026-07-13T08:57:43.000Z</time>
</trkpt>
<trkpt lat="56.234653" lon="8.167799">
<ele>1.570494</ele>
<time>2026-07-13T08:57:44.000Z</time>
</trkpt>
<trkpt lat="56.234695" lon="8.167820">
<ele>1.562936</ele>
<time>2026-07-13T08:57:45.000Z</time>
</trkpt>
<trkpt lat="56.234745" lon="8.167838">
<ele>1.554096</ele>
<time>2026-07-13T08:57:46.000Z</time>
</trkpt>
<trkpt lat="56.234791" lon="8.167856">
<ele>1.547671</ele>
<time>2026-07-13T08:57:47.000Z</time>
</trkpt>
<trkpt lat="56.234837" lon="8.167875">
<ele>1.543776</ele>
<time>2026-07-13T08:57:48.000Z</time>
</trkpt>
<trkpt lat="56.234886" lon="8.167893">
<ele>1.539648</ele>
<time>2026-07-13T08:57:49.000Z</time>
</trkpt>
<trkpt lat="56.234932" lon="8.167912">
<ele>1.535752</ele>
<time>2026-07-13T08:57:50.000Z</time>
</trkpt>
<trkpt lat="56.234978" lon="8.167930">
<ele>1.531867</ele>
<time>2026-07-13T08:57:51.000Z</time>
</trkpt>
<trkpt lat="56.235027" lon="8.167949">
<ele>1.527729</ele>
<time>2026-07-13T08:57:52.000Z</time>
</trkpt>
<trkpt lat="56.235073" lon="8.167967">
<ele>1.523844</ele>
<time>2026-07-13T08:57:53.000Z</time>
</trkpt>
<trkpt lat="56.235119" lon="8.167985">
<ele>1.519958</ele>
<time>2026-07-13T08:57:54.000Z</time>
</trkpt>
<trkpt lat="56.235165" lon="8.168003">
<ele>1.516072</ele>
<time>2026-07-13T08:57:55.000Z</time>
</trkpt>
<trkpt lat="56.235214" lon="8.168021">
<ele>1.511944</ele>
<time>2026-07-13T08:57:56.000Z</time>
</trkpt>
<trkpt lat="56.235260" lon="8.168037">
<ele>1.508077</ele>
<time>2026-07-13T08:57:57.000Z</time>
</trkpt>
<trkpt lat="56.235306" lon="8.168055">
<ele>1.504191</ele>
<time>2026-07-13T08:57:58.000Z</time>
</trkpt>
<trkpt lat="56.235355" lon="8.168071">
<ele>1.500081</ele>
<time>2026-07-13T08:57:59.000Z</time>
</trkpt>
<trkpt lat="56.235401" lon="8.168088">
<ele>1.496205</ele>
<time>2026-07-13T08:58:00.000Z</time>
</trkpt>
<trkpt lat="56.235451" lon="8.168107">
<ele>1.491987</ele>
<time>2026-07-13T08:58:01.000Z</time>
</trkpt>
<trkpt lat="56.235497" lon="8.168125">
<ele>1.488101</ele>
<time>2026-07-13T08:58:02.000Z</time>
</trkpt>
<trkpt lat="56.235546" lon="8.168143">
<ele>1.483973</ele>
<time>2026-07-13T08:58:03.000Z</time>
</trkpt>
<trkpt lat="56.235592" lon="8.168159">
<ele>1.480106</ele>
<time>2026-07-13T08:58:04.000Z</time>
</trkpt>
<trkpt lat="56.235641" lon="8.168178">
<ele>1.475968</ele>
<time>2026-07-13T08:58:05.000Z</time>
</trkpt>
<trkpt lat="56.235687" lon="8.168199">
<ele>1.472051</ele>
<time>2026-07-13T08:58:06.000Z</time>
</trkpt>
<trkpt lat="56.235733" lon="8.168216">
<ele>1.468175</ele>
<time>2026-07-13T08:58:07.000Z</time>
</trkpt>
<trkpt lat="56.235783" lon="8.168232">
<ele>1.463983</ele>
<time>2026-07-13T08:58:08.000Z</time>
</trkpt>
<trkpt lat="56.235828" lon="8.168247">
<ele>1.460206</ele>
<time>2026-07-13T08:58:09.000Z</time>
</trkpt>
<trkpt lat="56.235878" lon="8.168263">
<ele>1.456014</ele>
<time>2026-07-13T08:58:10.000Z</time>
</trkpt>
<trkpt lat="56.235928" lon="8.168282">
<ele>1.451796</ele>
<time>2026-07-13T08:58:11.000Z</time>
</trkpt>
<trkpt lat="56.235973" lon="8.168302">
<ele>1.447970</ele>
<time>2026-07-13T08:58:12.000Z</time>
</trkpt>
<trkpt lat="56.236023" lon="8.168319">
<ele>1.443770</ele>
<time>2026-07-13T08:58:13.000Z</time>
</trkpt>
<trkpt lat="56.236069" lon="8.168335">
<ele>1.439903</ele>
<time>2026-07-13T08:58:14.000Z</time>
</trkpt>
<trkpt lat="56.236118" lon="8.168354">
<ele>1.435765</ele>
<time>2026-07-13T08:58:15.000Z</time>
</trkpt>
<trkpt lat="56.236164" lon="8.168372">
<ele>1.431880</ele>
<time>2026-07-13T08:58:16.000Z</time>
</trkpt>
<trkpt lat="56.236210" lon="8.168387">
<ele>1.428021</ele>
<time>2026-07-13T08:58:17.000Z</time>
</trkpt>
<trkpt lat="56.236259" lon="8.168405">
<ele>1.423893</ele>
<time>2026-07-13T08:58:18.000Z</time>
</trkpt>
<trkpt lat="56.236305" lon="8.168424">
<ele>1.419997</ele>
<time>2026-07-13T08:58:19.000Z</time>
</trkpt>
<trkpt lat="56.236351" lon="8.168441">
<ele>1.416121</ele>
<time>2026-07-13T08:58:20.000Z</time>
</trkpt>
<trkpt lat="56.236397" lon="8.168458">
<ele>1.412245</ele>
<time>2026-07-13T08:58:21.000Z</time>
</trkpt>
<trkpt lat="56.236446" lon="8.168477">
<ele>1.408108</ele>
<time>2026-07-13T08:58:22.000Z</time>
</trkpt>
<trkpt lat="56.236492" lon="8.168494">
<ele>1.404231</ele>
<time>2026-07-13T08:58:23.000Z</time>
</trkpt>
<trkpt lat="56.236538" lon="8.168511">
<ele>1.401869</ele>
<time>2026-07-13T08:58:24.000Z</time>
</trkpt>
<trkpt lat="56.236584" lon="8.168530">
<ele>1.411622</ele>
<time>2026-07-13T08:58:25.000Z</time>
</trkpt>
<trkpt lat="56.236633" lon="8.168546">
<ele>1.421913</ele>
<time>2026-07-13T08:58:26.000Z</time>
</trkpt>
<trkpt lat="56.236675" lon="8.168563">
<ele>1.430809</ele>
<time>2026-07-13T08:58:27.000Z</time>
</trkpt>
<trkpt lat="56.236721" lon="8.168581">
<ele>1.440537</ele>
<time>2026-07-13T08:58:28.000Z</time>
</trkpt>
<trkpt lat="56.236767" lon="8.168597">
<ele>1.450218</ele>
<time>2026-07-13T08:58:29.000Z</time>
</trkpt>
<trkpt lat="56.236813" lon="8.168612">
<ele>1.459879</ele>
<time>2026-07-13T08:58:30.000Z</time>
</trkpt>
<trkpt lat="56.236858" lon="8.168628">
<ele>1.469358</ele>
<time>2026-07-13T08:58:31.000Z</time>
</trkpt>
<trkpt lat="56.236908" lon="8.168643">
<ele>1.479833</ele>
<time>2026-07-13T08:58:32.000Z</time>
</trkpt>
<trkpt lat="56.236954" lon="8.168655">
<ele>1.489438</ele>
<time>2026-07-13T08:58:33.000Z</time>
</trkpt>
<trkpt lat="56.237000" lon="8.168667">
<ele>1.499043</ele>
<time>2026-07-13T08:58:34.000Z</time>
</trkpt>
<trkpt lat="56.237049" lon="8.168677">
<ele>1.509234</ele>
<time>2026-07-13T08:58:35.000Z</time>
</trkpt>
<trkpt lat="56.237095" lon="8.168687">
<ele>1.518809</ele>
<time>2026-07-13T08:58:36.000Z</time>
</trkpt>
<trkpt lat="56.237145" lon="8.168697">
<ele>1.529204</ele>
<time>2026-07-13T08:58:37.000Z</time>
</trkpt>
<trkpt lat="56.237190" lon="8.168709">
<ele>1.538605</ele>
<time>2026-07-13T08:58:38.000Z</time>
</trkpt>
<trkpt lat="56.237236" lon="8.168717">
<ele>1.548155</ele>
<time>2026-07-13T08:58:39.000Z</time>
</trkpt>
<trkpt lat="56.237286" lon="8.168724">
<ele>1.558519</ele>
<time>2026-07-13T08:58:40.000Z</time>
</trkpt>
<trkpt lat="56.237335" lon="8.168730">
<ele>1.568668</ele>
<time>2026-07-13T08:58:41.000Z</time>
</trkpt>
<trkpt lat="56.237381" lon="8.168736">
<ele>1.578198</ele>
<time>2026-07-13T08:58:42.000Z</time>
</trkpt>
<trkpt lat="56.237427" lon="8.168738">
<ele>1.587707</ele>
<time>2026-07-13T08:58:43.000Z</time>
</trkpt>
<trkpt lat="56.237473" lon="8.168738">
<ele>1.597213</ele>
<time>2026-07-13T08:58:44.000Z</time>
</trkpt>
<trkpt lat="56.237522" lon="8.168738">
<ele>1.607338</ele>
<time>2026-07-13T08:58:45.000Z</time>
</trkpt>
<trkpt lat="56.237568" lon="8.168737">
<ele>1.616845</ele>
<time>2026-07-13T08:58:46.000Z</time>
</trkpt>
<trkpt lat="56.237617" lon="8.168736">
<ele>1.626971</ele>
<time>2026-07-13T08:58:47.000Z</time>
</trkpt>
<trkpt lat="56.237663" lon="8.168733">
<ele>1.636483</ele>
<time>2026-07-13T08:58:48.000Z</time>
</trkpt>
<trkpt lat="56.237709" lon="8.168727">
<ele>1.646014</ele>
<time>2026-07-13T08:58:49.000Z</time>
</trkpt>
<trkpt lat="56.237759" lon="8.168721">
<ele>1.656369</ele>
<time>2026-07-13T08:58:50.000Z</time>
</trkpt>
<trkpt lat="56.237804" lon="8.168716">
<ele>1.665686</ele>
<time>2026-07-13T08:58:51.000Z</time>
</trkpt>
<trkpt lat="56.237850" lon="8.168712">
<ele>1.675203</ele>
<time>2026-07-13T08:58:52.000Z</time>
</trkpt>
<trkpt lat="56.237896" lon="8.168708">
<ele>1.684720</ele>
<time>2026-07-13T08:58:53.000Z</time>
</trkpt>
<trkpt lat="56.237942" lon="8.168706">
<ele>1.694228</ele>
<time>2026-07-13T08:58:54.000Z</time>
</trkpt>
<trkpt lat="56.237984" lon="8.168702">
<ele>1.702919</ele>
<time>2026-07-13T08:58:55.000Z</time>
</trkpt>
<trkpt lat="56.238029" lon="8.168695">
<ele>1.712253</ele>
<time>2026-07-13T08:58:56.000Z</time>
</trkpt>
<trkpt lat="56.238075" lon="8.168691">
<ele>1.721770</ele>
<time>2026-07-13T08:58:57.000Z</time>
</trkpt>
<trkpt lat="56.238121" lon="8.168689">
<ele>1.731278</ele>
<time>2026-07-13T08:58:58.000Z</time>
</trkpt>
<trkpt lat="56.238167" lon="8.168685">
<ele>1.740795</ele>
<time>2026-07-13T08:58:59.000Z</time>
</trkpt>
<trkpt lat="56.238213" lon="8.168681">
<ele>1.750312</ele>
<time>2026-07-13T08:59:00.000Z</time>
</trkpt>
<trkpt lat="56.238258" lon="8.168677">
<ele>1.759622</ele>
<time>2026-07-13T08:59:01.000Z</time>
</trkpt>
<trkpt lat="56.238308" lon="8.168674">
<ele>1.769961</ele>
<time>2026-07-13T08:59:02.000Z</time>
</trkpt>
<trkpt lat="56.238354" lon="8.168670">
<ele>1.769330</ele>
<time>2026-07-13T08:59:03.000Z</time>
</trkpt>
<trkpt lat="56.238400" lon="8.168665">
<ele>1.765062</ele>
<time>2026-07-13T08:59:04.000Z</time>
</trkpt>
<trkpt lat="56.238445" lon="8.168661">
<ele>1.760889</ele>
<time>2026-07-13T08:59:05.000Z</time>
</trkpt>
<trkpt lat="56.238491" lon="8.168656">
<ele>1.756621</ele>
<time>2026-07-13T08:59:06.000Z</time>
</trkpt>
<trkpt lat="56.238541" lon="8.168652">
<ele>1.751986</ele>
<time>2026-07-13T08:59:07.000Z</time>
</trkpt>
<trkpt lat="56.238586" lon="8.168645">
<ele>1.747803</ele>
<time>2026-07-13T08:59:08.000Z</time>
</trkpt>
<trkpt lat="56.238628" lon="8.168633">
<ele>1.743864</ele>
<time>2026-07-13T08:59:09.000Z</time>
</trkpt>
<trkpt lat="56.238674" lon="8.168618">
<ele>1.739534</ele>
<time>2026-07-13T08:59:10.000Z</time>
</trkpt>
<trkpt lat="56.238716" lon="8.168599">
<ele>1.735524</ele>
<time>2026-07-13T08:59:11.000Z</time>
</trkpt>
<trkpt lat="56.238758" lon="8.168575">
<ele>1.731442</ele>
<time>2026-07-13T08:59:12.000Z</time>
</trkpt>
<trkpt lat="56.238800" lon="8.168548">
<ele>1.727312</ele>
<time>2026-07-13T08:59:13.000Z</time>
</trkpt>
<trkpt lat="56.238842" lon="8.168517">
<ele>1.723107</ele>
<time>2026-07-13T08:59:14.000Z</time>
</trkpt>
<trkpt lat="56.238880" lon="8.168481">
<ele>1.719130</ele>
<time>2026-07-13T08:59:15.000Z</time>
</trkpt>
<trkpt lat="56.238918" lon="8.168444">
<ele>1.715129</ele>
<time>2026-07-13T08:59:16.000Z</time>
</trkpt>
<trkpt lat="56.238960" lon="8.168406">
<ele>1.710775</ele>
<time>2026-07-13T08:59:17.000Z</time>
</trkpt>
<trkpt lat="56.238998" lon="8.168370">
<ele>1.706797</ele>
<time>2026-07-13T08:59:18.000Z</time>
</trkpt>
<trkpt lat="56.239040" lon="8.168335">
<ele>1.702511</ele>
<time>2026-07-13T08:59:19.000Z</time>
</trkpt>
<trkpt lat="56.239082" lon="8.168299">
<ele>1.698202</ele>
<time>2026-07-13T08:59:20.000Z</time>
</trkpt>
<trkpt lat="56.239124" lon="8.168262">
<ele>1.693871</ele>
<time>2026-07-13T08:59:21.000Z</time>
</trkpt>
<trkpt lat="56.239162" lon="8.168228">
<ele>1.689941</ele>
<time>2026-07-13T08:59:22.000Z</time>
</trkpt>
<trkpt lat="56.239204" lon="8.168197">
<ele>1.685737</ele>
<time>2026-07-13T08:59:23.000Z</time>
</trkpt>
<trkpt lat="56.239243" lon="8.168164">
<ele>1.681745</ele>
<time>2026-07-13T08:59:24.000Z</time>
</trkpt>
<trkpt lat="56.239281" lon="8.168131">
<ele>1.677837</ele>
<time>2026-07-13T08:59:25.000Z</time>
</trkpt>
<trkpt lat="56.239323" lon="8.168098">
<ele>1.673593</ele>
<time>2026-07-13T08:59:26.000Z</time>
</trkpt>
<trkpt lat="56.239361" lon="8.168065">
<ele>1.669685</ele>
<time>2026-07-13T08:59:27.000Z</time>
</trkpt>
<trkpt lat="56.239403" lon="8.168033">
<ele>1.665461</ele>
<time>2026-07-13T08:59:28.000Z</time>
</trkpt>
<trkpt lat="56.239441" lon="8.167999">
<ele>1.661531</ele>
<time>2026-07-13T08:59:29.000Z</time>
</trkpt>
<trkpt lat="56.239483" lon="8.167966">
<ele>1.657286</ele>
<time>2026-07-13T08:59:30.000Z</time>
</trkpt>
<trkpt lat="56.239525" lon="8.167933">
<ele>1.653042</ele>
<time>2026-07-13T08:59:31.000Z</time>
</trkpt>
<trkpt lat="56.239567" lon="8.167899">
<ele>1.648777</ele>
<time>2026-07-13T08:59:32.000Z</time>
</trkpt>
<trkpt lat="56.239609" lon="8.167866">
<ele>1.644532</ele>
<time>2026-07-13T08:59:33.000Z</time>
</trkpt>
<trkpt lat="56.239647" lon="8.167832">
<ele>1.640602</ele>
<time>2026-07-13T08:59:34.000Z</time>
</trkpt>
<trkpt lat="56.239689" lon="8.167798">
<ele>1.636336</ele>
<time>2026-07-13T08:59:35.000Z</time>
</trkpt>
<trkpt lat="56.239731" lon="8.167762">
<ele>1.632028</ele>
<time>2026-07-13T08:59:36.000Z</time>
</trkpt>
<trkpt lat="56.239773" lon="8.167723">
<ele>1.627651</ele>
<time>2026-07-13T08:59:37.000Z</time>
</trkpt>
<trkpt lat="56.239815" lon="8.167684">
<ele>1.623274</ele>
<time>2026-07-13T08:59:38.000Z</time>
</trkpt>
<trkpt lat="56.239849" lon="8.167643">
<ele>1.619483</ele>
<time>2026-07-13T08:59:39.000Z</time>
</trkpt>
<trkpt lat="56.239883" lon="8.167593">
<ele>1.615416</ele>
<time>2026-07-13T08:59:40.000Z</time>
</trkpt>
<trkpt lat="56.239918" lon="8.167538">
<ele>1.611113</ele>
<time>2026-07-13T08:59:41.000Z</time>
</trkpt>
<trkpt lat="56.239948" lon="8.167478">
<ele>1.606959</ele>
<time>2026-07-13T08:59:42.000Z</time>
</trkpt>
<trkpt lat="56.239975" lon="8.167413">
<ele>1.608996</ele>
<time>2026-07-13T08:59:43.000Z</time>
</trkpt>
<trkpt lat="56.240002" lon="8.167347">
<ele>1.613212</ele>
<time>2026-07-13T08:59:44.000Z</time>
</trkpt>
<trkpt lat="56.240028" lon="8.167278">
<ele>1.617501</ele>
<time>2026-07-13T08:59:45.000Z</time>
</trkpt>
<trkpt lat="56.240055" lon="8.167211">
<ele>1.621758</ele>
<time>2026-07-13T08:59:46.000Z</time>
</trkpt>
<trkpt lat="56.240082" lon="8.167143">
<ele>1.626057</ele>
<time>2026-07-13T08:59:47.000Z</time>
</trkpt>
<trkpt lat="56.240109" lon="8.167078">
<ele>1.630232</ele>
<time>2026-07-13T08:59:48.000Z</time>
</trkpt>
<trkpt lat="56.240131" lon="8.167013">
<ele>1.634147</ele>
<time>2026-07-13T08:59:49.000Z</time>
</trkpt>
<trkpt lat="56.240158" lon="8.166947">
<ele>1.638363</ele>
<time>2026-07-13T08:59:50.000Z</time>
</trkpt>
<trkpt lat="56.240181" lon="8.166882">
<ele>1.642327</ele>
<time>2026-07-13T08:59:51.000Z</time>
</trkpt>
<trkpt lat="56.240208" lon="8.166814">
<ele>1.646626</ele>
<time>2026-07-13T08:59:52.000Z</time>
</trkpt>
<trkpt lat="56.240234" lon="8.166747">
<ele>1.650830</ele>
<time>2026-07-13T08:59:53.000Z</time>
</trkpt>
<trkpt lat="56.240261" lon="8.166678">
<ele>1.655171</ele>
<time>2026-07-13T08:59:54.000Z</time>
</trkpt>
<trkpt lat="56.240284" lon="8.166609">
<ele>1.659310</ele>
<time>2026-07-13T08:59:55.000Z</time>
</trkpt>
<trkpt lat="56.240311" lon="8.166537">
<ele>1.663778</ele>
<time>2026-07-13T08:59:56.000Z</time>
</trkpt>
<trkpt lat="56.240337" lon="8.166465">
<ele>1.668195</ele>
<time>2026-07-13T08:59:57.000Z</time>
</trkpt>
<trkpt lat="56.240364" lon="8.166391">
<ele>1.672749</ele>
<time>2026-07-13T08:59:58.000Z</time>
</trkpt>
<trkpt lat="56.240391" lon="8.166317">
<ele>1.677303</ele>
<time>2026-07-13T08:59:59.000Z</time>
</trkpt>
<trkpt lat="56.240417" lon="8.166242">
<ele>1.681850</ele>
<time>2026-07-13T09:00:00.000Z</time>
</trkpt>
<trkpt lat="56.240444" lon="8.166168">
<ele>1.686404</ele>
<time>2026-07-13T09:00:01.000Z</time>
</trkpt>
<trkpt lat="56.240471" lon="8.166098">
<ele>1.690787</ele>
<time>2026-07-13T09:00:02.000Z</time>
</trkpt>
<trkpt lat="56.240501" lon="8.166027">
<ele>1.695376</ele>
<time>2026-07-13T09:00:03.000Z</time>
</trkpt>
<trkpt lat="56.240528" lon="8.165955">
<ele>1.699844</ele>
<time>2026-07-13T09:00:04.000Z</time>
</trkpt>
<trkpt lat="56.240555" lon="8.165881">
<ele>1.704398</ele>
<time>2026-07-13T09:00:05.000Z</time>
</trkpt>
<trkpt lat="56.240582" lon="8.165811">
<ele>1.708781</ele>
<time>2026-07-13T09:00:06.000Z</time>
</trkpt>
<trkpt lat="56.240608" lon="8.165742">
<ele>1.713069</ele>
<time>2026-07-13T09:00:07.000Z</time>
</trkpt>
<trkpt lat="56.240635" lon="8.165672">
<ele>1.717453</ele>
<time>2026-07-13T09:00:08.000Z</time>
</trkpt>
<trkpt lat="56.240662" lon="8.165603">
<ele>1.721794</ele>
<time>2026-07-13T09:00:09.000Z</time>
</trkpt>
<trkpt lat="56.240692" lon="8.165533">
<ele>1.726341</ele>
<time>2026-07-13T09:00:10.000Z</time>
</trkpt>
<trkpt lat="56.240719" lon="8.165464">
<ele>1.730682</ele>
<time>2026-07-13T09:00:11.000Z</time>
</trkpt>
<trkpt lat="56.240746" lon="8.165394">
<ele>1.735066</ele>
<time>2026-07-13T09:00:12.000Z</time>
</trkpt>
<trkpt lat="56.240776" lon="8.165323">
<ele>1.739654</ele>
<time>2026-07-13T09:00:13.000Z</time>
</trkpt>
<trkpt lat="56.240803" lon="8.165253">
<ele>1.744037</ele>
<time>2026-07-13T09:00:14.000Z</time>
</trkpt>
<trkpt lat="56.240833" lon="8.165180">
<ele>1.748708</ele>
<time>2026-07-13T09:00:15.000Z</time>
</trkpt>
<trkpt lat="56.240860" lon="8.165106">
<ele>1.753261</ele>
<time>2026-07-13T09:00:16.000Z</time>
</trkpt>
<trkpt lat="56.240887" lon="8.165031">
<ele>1.757858</ele>
<time>2026-07-13T09:00:17.000Z</time>
</trkpt>
<trkpt lat="56.240913" lon="8.164958">
<ele>1.762318</ele>
<time>2026-07-13T09:00:18.000Z</time>
</trkpt>
<trkpt lat="56.240944" lon="8.164885">
<ele>1.767045</ele>
<time>2026-07-13T09:00:19.000Z</time>
</trkpt>
<trkpt lat="56.240971" lon="8.164810">
<ele>1.771641</ele>
<time>2026-07-13T09:00:20.000Z</time>
</trkpt>
<trkpt lat="56.241001" lon="8.164737">
<ele>1.774363</ele>
<time>2026-07-13T09:00:21.000Z</time>
</trkpt>
<trkpt lat="56.241032" lon="8.164663">
<ele>1.776763</ele>
<time>2026-07-13T09:00:22.000Z</time>
</trkpt>
<trkpt lat="56.241054" lon="8.164591">
<ele>1.778891</ele>
<time>2026-07-13T09:00:23.000Z</time>
</trkpt>
<trkpt lat="56.241081" lon="8.164518">
<ele>1.781162</ele>
<time>2026-07-13T09:00:24.000Z</time>
</trkpt>
<trkpt lat="56.241112" lon="8.164446">
<ele>1.783520</ele>
<time>2026-07-13T09:00:25.000Z</time>
</trkpt>
<trkpt lat="56.241138" lon="8.164372">
<ele>1.785787</ele>
<time>2026-07-13T09:00:26.000Z</time>
</trkpt>
<trkpt lat="56.241169" lon="8.164300">
<ele>1.788146</ele>
<time>2026-07-13T09:00:27.000Z</time>
</trkpt>
<trkpt lat="56.241196" lon="8.164227">
<ele>1.790417</ele>
<time>2026-07-13T09:00:28.000Z</time>
</trkpt>
<trkpt lat="56.241222" lon="8.164156">
<ele>1.792619</ele>
<time>2026-07-13T09:00:29.000Z</time>
</trkpt>
<trkpt lat="56.241245" lon="8.164088">
<ele>1.794680</ele>
<time>2026-07-13T09:00:30.000Z</time>
</trkpt>
<trkpt lat="56.241272" lon="8.164020">
<ele>1.796844</ele>
<time>2026-07-13T09:00:31.000Z</time>
</trkpt>
<trkpt lat="56.241299" lon="8.163950">
<ele>1.799051</ele>
<time>2026-07-13T09:00:32.000Z</time>
</trkpt>
<trkpt lat="56.241322" lon="8.163881">
<ele>1.801134</ele>
<time>2026-07-13T09:00:33.000Z</time>
</trkpt>
<trkpt lat="56.241348" lon="8.163811">
<ele>1.803315</ele>
<time>2026-07-13T09:00:34.000Z</time>
</trkpt>
<trkpt lat="56.241375" lon="8.163739">
<ele>1.805564</ele>
<time>2026-07-13T09:00:35.000Z</time>
</trkpt>
<trkpt lat="56.241398" lon="8.163671">
<ele>1.807625</ele>
<time>2026-07-13T09:00:36.000Z</time>
</trkpt>
<trkpt lat="56.241428" lon="8.163601">
<ele>1.809915</ele>
<time>2026-07-13T09:00:37.000Z</time>
</trkpt>
<trkpt lat="56.241455" lon="8.163528">
<ele>1.812185</ele>
<time>2026-07-13T09:00:38.000Z</time>
</trkpt>
<trkpt lat="56.241482" lon="8.163457">
<ele>1.814413</ele>
<time>2026-07-13T09:00:39.000Z</time>
</trkpt>
<trkpt lat="56.241508" lon="8.163385">
<ele>1.816637</ele>
<time>2026-07-13T09:00:40.000Z</time>
</trkpt>
<trkpt lat="56.241539" lon="8.163314">
<ele>1.818975</ele>
<time>2026-07-13T09:00:41.000Z</time>
</trkpt>
<trkpt lat="56.241566" lon="8.163244">
<ele>1.821181</ele>
<time>2026-07-13T09:00:42.000Z</time>
</trkpt>
<trkpt lat="56.241592" lon="8.163174">
<ele>1.823362</ele>
<time>2026-07-13T09:00:43.000Z</time>
</trkpt>
<trkpt lat="56.241619" lon="8.163101">
<ele>1.825633</ele>
<time>2026-07-13T09:00:44.000Z</time>
</trkpt>
<trkpt lat="56.241646" lon="8.163030">
<ele>1.827860</ele>
<time>2026-07-13T09:00:45.000Z</time>
</trkpt>
<trkpt lat="56.241676" lon="8.162959">
<ele>1.830170</ele>
<time>2026-07-13T09:00:46.000Z</time>
</trkpt>
<trkpt lat="56.241703" lon="8.162888">
<ele>1.832398</ele>
<time>2026-07-13T09:00:47.000Z</time>
</trkpt>
<trkpt lat="56.241730" lon="8.162816">
<ele>1.834647</ele>
<time>2026-07-13T09:00:48.000Z</time>
</trkpt>
<trkpt lat="56.241756" lon="8.162744">
<ele>1.836871</ele>
<time>2026-07-13T09:00:49.000Z</time>
</trkpt>
<trkpt lat="56.241783" lon="8.162672">
<ele>1.839120</ele>
<time>2026-07-13T09:00:50.000Z</time>
</trkpt>
<trkpt lat="56.241814" lon="8.162601">
<ele>1.841458</ele>
<time>2026-07-13T09:00:51.000Z</time>
</trkpt>
<trkpt lat="56.241844" lon="8.162534">
<ele>1.843686</ele>
<time>2026-07-13T09:00:52.000Z</time>
</trkpt>
<trkpt lat="56.241875" lon="8.162465">
<ele>1.845984</ele>
<time>2026-07-13T09:00:53.000Z</time>
</trkpt>
<trkpt lat="56.241905" lon="8.162400">
<ele>1.848172</ele>
<time>2026-07-13T09:00:54.000Z</time>
</trkpt>
<trkpt lat="56.241940" lon="8.162341">
<ele>1.850407</ele>
<time>2026-07-13T09:00:55.000Z</time>
</trkpt>
<trkpt lat="56.241978" lon="8.162290">
<ele>1.852616</ele>
<time>2026-07-13T09:00:56.000Z</time>
</trkpt>
<trkpt lat="56.242016" lon="8.162247">
<ele>1.854707</ele>
<time>2026-07-13T09:00:57.000Z</time>
</trkpt>
<trkpt lat="56.242058" lon="8.162217">
<ele>1.855062</ele>
<time>2026-07-13T09:00:58.000Z</time>
</trkpt>
<trkpt lat="56.242107" lon="8.162203">
<ele>1.850723</ele>
<time>2026-07-13T09:00:59.000Z</time>
</trkpt>
<trkpt lat="56.242153" lon="8.162203">
<ele>1.846701</ele>
<time>2026-07-13T09:01:00.000Z</time>
</trkpt>
<trkpt lat="56.242199" lon="8.162214">
<ele>1.842644</ele>
<time>2026-07-13T09:01:01.000Z</time>
</trkpt>
<trkpt lat="56.242245" lon="8.162232">
<ele>1.838527</ele>
<time>2026-07-13T09:01:02.000Z</time>
</trkpt>
<trkpt lat="56.242290" lon="8.162256">
<ele>1.834423</ele>
<time>2026-07-13T09:01:03.000Z</time>
</trkpt>
<trkpt lat="56.242332" lon="8.162284">
<ele>1.830507</ele>
<time>2026-07-13T09:01:04.000Z</time>
</trkpt>
<trkpt lat="56.242378" lon="8.162313">
<ele>1.826245</ele>
<time>2026-07-13T09:01:05.000Z</time>
</trkpt>
<trkpt lat="56.242420" lon="8.162343">
<ele>1.822294</ele>
<time>2026-07-13T09:01:06.000Z</time>
</trkpt>
<trkpt lat="56.242466" lon="8.162372">
<ele>1.818032</ele>
<time>2026-07-13T09:01:07.000Z</time>
</trkpt>
<trkpt lat="56.242516" lon="8.162398">
<ele>1.813481</ele>
<time>2026-07-13T09:01:08.000Z</time>
</trkpt>
<trkpt lat="56.242561" lon="8.162421">
<ele>1.809391</ele>
<time>2026-07-13T09:01:09.000Z</time>
</trkpt>
<trkpt lat="56.242607" lon="8.162444">
<ele>1.805216</ele>
<time>2026-07-13T09:01:10.000Z</time>
</trkpt>
<trkpt lat="56.242649" lon="8.162470">
<ele>1.801332</ele>
<time>2026-07-13T09:01:11.000Z</time>
</trkpt>
<trkpt lat="56.242695" lon="8.162495">
<ele>1.797131</ele>
<time>2026-07-13T09:01:12.000Z</time>
</trkpt>
<trkpt lat="56.242741" lon="8.162520">
<ele>1.792929</ele>
<time>2026-07-13T09:01:13.000Z</time>
</trkpt>
<trkpt lat="56.242786" lon="8.162545">
<ele>1.788811</ele>
<time>2026-07-13T09:01:14.000Z</time>
</trkpt>
<trkpt lat="56.242832" lon="8.162571">
<ele>1.784595</ele>
<time>2026-07-13T09:01:15.000Z</time>
</trkpt>
<trkpt lat="56.242878" lon="8.162595">
<ele>1.780407</ele>
<time>2026-07-13T09:01:16.000Z</time>
</trkpt>
<trkpt lat="56.242920" lon="8.162616">
<ele>1.776595</ele>
<time>2026-07-13T09:01:17.000Z</time>
</trkpt>
<trkpt lat="56.242962" lon="8.162639">
<ele>1.772757</ele>
<time>2026-07-13T09:01:18.000Z</time>
</trkpt>
<trkpt lat="56.243008" lon="8.162661">
<ele>1.768595</ele>
<time>2026-07-13T09:01:19.000Z</time>
</trkpt>
<trkpt lat="56.243053" lon="8.162684">
<ele>1.764504</ele>
<time>2026-07-13T09:01:20.000Z</time>
</trkpt>
<trkpt lat="56.243099" lon="8.162709">
<ele>1.760303</ele>
<time>2026-07-13T09:01:21.000Z</time>
</trkpt>
<trkpt lat="56.243145" lon="8.162735">
<ele>1.756087</ele>
<time>2026-07-13T09:01:22.000Z</time>
</trkpt>
<trkpt lat="56.243195" lon="8.162760">
<ele>1.751549</ele>
<time>2026-07-13T09:01:23.000Z</time>
</trkpt>
<trkpt lat="56.243240" lon="8.162785">
<ele>1.747431</ele>
<time>2026-07-13T09:01:24.000Z</time>
</trkpt>
<trkpt lat="56.243286" lon="8.162808">
<ele>1.743256</ele>
<time>2026-07-13T09:01:25.000Z</time>
</trkpt>
<trkpt lat="56.243332" lon="8.162833">
<ele>1.739055</ele>
<time>2026-07-13T09:01:26.000Z</time>
</trkpt>
<trkpt lat="56.243378" lon="8.162857">
<ele>1.734867</ele>
<time>2026-07-13T09:01:27.000Z</time>
</trkpt>
<trkpt lat="56.243427" lon="8.162880">
<ele>1.730439</ele>
<time>2026-07-13T09:01:28.000Z</time>
</trkpt>
<trkpt lat="56.243473" lon="8.162905">
<ele>1.726237</ele>
<time>2026-07-13T09:01:29.000Z</time>
</trkpt>
<trkpt lat="56.243523" lon="8.162929">
<ele>1.721712</ele>
<time>2026-07-13T09:01:30.000Z</time>
</trkpt>
<trkpt lat="56.243572" lon="8.162951">
<ele>1.717297</ele>
<time>2026-07-13T09:01:31.000Z</time>
</trkpt>
<trkpt lat="56.243622" lon="8.162975">
<ele>1.712772</ele>
<time>2026-07-13T09:01:32.000Z</time>
</trkpt>
<trkpt lat="56.243668" lon="8.162998">
<ele>1.708597</ele>
<time>2026-07-13T09:01:33.000Z</time>
</trkpt>
<trkpt lat="56.243717" lon="8.163022">
<ele>1.704157</ele>
<time>2026-07-13T09:01:34.000Z</time>
</trkpt>
<trkpt lat="56.243767" lon="8.163045">
<ele>1.699644</ele>
<time>2026-07-13T09:01:35.000Z</time>
</trkpt>
<trkpt lat="56.243816" lon="8.163069">
<ele>1.700065</ele>
<time>2026-07-13T09:01:36.000Z</time>
</trkpt>
<trkpt lat="56.243862" lon="8.163094">
<ele>1.701345</ele>
<time>2026-07-13T09:01:37.000Z</time>
</trkpt>
<trkpt lat="56.243912" lon="8.163116">
<ele>1.702715</ele>
<time>2026-07-13T09:01:38.000Z</time>
</trkpt>
<trkpt lat="56.243961" lon="8.163140">
<ele>1.704068</ele>
<time>2026-07-13T09:01:39.000Z</time>
</trkpt>
<trkpt lat="56.244011" lon="8.163164">
<ele>1.705446</ele>
<time>2026-07-13T09:01:40.000Z</time>
</trkpt>
<trkpt lat="56.244060" lon="8.163190">
<ele>1.706806</ele>
<time>2026-07-13T09:01:41.000Z</time>
</trkpt>
<trkpt lat="56.244106" lon="8.163215">
<ele>1.708085</ele>
<time>2026-07-13T09:01:42.000Z</time>
</trkpt>
<trkpt lat="56.244156" lon="8.163240">
<ele>1.709467</ele>
<time>2026-07-13T09:01:43.000Z</time>
</trkpt>
<trkpt lat="56.244202" lon="8.163265">
<ele>1.710747</ele>
<time>2026-07-13T09:01:44.000Z</time>
</trkpt>
<trkpt lat="56.244251" lon="8.163290">
<ele>1.712103</ele>
<time>2026-07-13T09:01:45.000Z</time>
</trkpt>
<trkpt lat="56.244301" lon="8.163316">
<ele>1.713489</ele>
<time>2026-07-13T09:01:46.000Z</time>
</trkpt>
<trkpt lat="56.244350" lon="8.163342">
<ele>1.714849</ele>
<time>2026-07-13T09:01:47.000Z</time>
</trkpt>
<trkpt lat="56.244400" lon="8.163364">
<ele>1.716220</ele>
<time>2026-07-13T09:01:48.000Z</time>
</trkpt>
<trkpt lat="56.244446" lon="8.163385">
<ele>1.717483</ele>
<time>2026-07-13T09:01:49.000Z</time>
</trkpt>
<trkpt lat="56.244492" lon="8.163403">
<ele>1.718737</ele>
<time>2026-07-13T09:01:50.000Z</time>
</trkpt>
<trkpt lat="56.244541" lon="8.163416">
<ele>1.720056</ele>
<time>2026-07-13T09:01:51.000Z</time>
</trkpt>
<trkpt lat="56.244587" lon="8.163425">
<ele>1.721288</ele>
<time>2026-07-13T09:01:52.000Z</time>
</trkpt>
<trkpt lat="56.244637" lon="8.163429">
<ele>1.722621</ele>
<time>2026-07-13T09:01:53.000Z</time>
</trkpt>
<trkpt lat="56.244682" lon="8.163428">
<ele>1.723819</ele>
<time>2026-07-13T09:01:54.000Z</time>
</trkpt>
<trkpt lat="56.244732" lon="8.163421">
<ele>1.725154</ele>
<time>2026-07-13T09:01:55.000Z</time>
</trkpt>
<trkpt lat="56.244782" lon="8.163408">
<ele>1.726500</ele>
<time>2026-07-13T09:01:56.000Z</time>
</trkpt>
<trkpt lat="56.244827" lon="8.163395">
<ele>1.727713</ele>
<time>2026-07-13T09:01:57.000Z</time>
</trkpt>
<trkpt lat="56.244873" lon="8.163382">
<ele>1.728953</ele>
<time>2026-07-13T09:01:58.000Z</time>
</trkpt>
<trkpt lat="56.244919" lon="8.163368">
<ele>1.730195</ele>
<time>2026-07-13T09:01:59.000Z</time>
</trkpt>
<trkpt lat="56.244965" lon="8.163356">
<ele>1.731433</ele>
<time>2026-07-13T09:02:00.000Z</time>
</trkpt>
<trkpt lat="56.245010" lon="8.163347">
<ele>1.732639</ele>
<time>2026-07-13T09:02:01.000Z</time>
</trkpt>
<trkpt lat="56.245056" lon="8.163338">
<ele>1.733871</ele>
<time>2026-07-13T09:02:02.000Z</time>
</trkpt>
<trkpt lat="56.245102" lon="8.163327">
<ele>1.735106</ele>
<time>2026-07-13T09:02:03.000Z</time>
</trkpt>
<trkpt lat="56.245148" lon="8.163317">
<ele>1.736340</ele>
<time>2026-07-13T09:02:04.000Z</time>
</trkpt>
<trkpt lat="56.245193" lon="8.163306">
<ele>1.737549</ele>
<time>2026-07-13T09:02:05.000Z</time>
</trkpt>
<trkpt lat="56.245243" lon="8.163296">
<ele>1.738889</ele>
<time>2026-07-13T09:02:06.000Z</time>
</trkpt>
<trkpt lat="56.245289" lon="8.163285">
<ele>1.740125</ele>
<time>2026-07-13T09:02:07.000Z</time>
</trkpt>
<trkpt lat="56.245342" lon="8.163278">
<ele>1.741540</ele>
<time>2026-07-13T09:02:08.000Z</time>
</trkpt>
<trkpt lat="56.245388" lon="8.163268">
<ele>1.742773</ele>
<time>2026-07-13T09:02:09.000Z</time>
</trkpt>
<trkpt lat="56.245434" lon="8.163256">
<ele>1.744011</ele>
<time>2026-07-13T09:02:10.000Z</time>
</trkpt>
<trkpt lat="56.245480" lon="8.163244">
<ele>1.745249</ele>
<time>2026-07-13T09:02:11.000Z</time>
</trkpt>
<trkpt lat="56.245529" lon="8.163236">
<ele>1.746559</ele>
<time>2026-07-13T09:02:12.000Z</time>
</trkpt>
<trkpt lat="56.245575" lon="8.163226">
<ele>1.752353</ele>
<time>2026-07-13T09:02:13.000Z</time>
</trkpt>
<trkpt lat="56.245621" lon="8.163215">
<ele>1.759407</ele>
<time>2026-07-13T09:02:14.000Z</time>
</trkpt>
<trkpt lat="56.245670" lon="8.163203">
<ele>1.766925</ele>
<time>2026-07-13T09:02:15.000Z</time>
</trkpt>
<trkpt lat="56.245716" lon="8.163193">
<ele>1.773969</ele>
<time>2026-07-13T09:02:16.000Z</time>
</trkpt>
<trkpt lat="56.245766" lon="8.163182">
<ele>1.781627</ele>
<time>2026-07-13T09:02:17.000Z</time>
</trkpt>
<trkpt lat="56.245811" lon="8.163171">
<ele>1.788531</ele>
<time>2026-07-13T09:02:18.000Z</time>
</trkpt>
<trkpt lat="56.245857" lon="8.163159">
<ele>1.795597</ele>
<time>2026-07-13T09:02:19.000Z</time>
</trkpt>
<trkpt lat="56.245907" lon="8.163148">
<ele>1.803255</ele>
<time>2026-07-13T09:02:20.000Z</time>
</trkpt>
<trkpt lat="56.245956" lon="8.163138">
<ele>1.810752</ele>
<time>2026-07-13T09:02:21.000Z</time>
</trkpt>
<trkpt lat="56.246002" lon="8.163130">
<ele>1.817778</ele>
<time>2026-07-13T09:02:22.000Z</time>
</trkpt>
<trkpt lat="56.246052" lon="8.163120">
<ele>1.825426</ele>
<time>2026-07-13T09:02:23.000Z</time>
</trkpt>
<trkpt lat="56.246101" lon="8.163111">
<ele>1.832914</ele>
<time>2026-07-13T09:02:24.000Z</time>
</trkpt>
<trkpt lat="56.246151" lon="8.163102">
<ele>1.840553</ele>
<time>2026-07-13T09:02:25.000Z</time>
</trkpt>
<trkpt lat="56.246197" lon="8.163094">
<ele>1.847579</ele>
<time>2026-07-13T09:02:26.000Z</time>
</trkpt>
<trkpt lat="56.246246" lon="8.163084">
<ele>1.855076</ele>
<time>2026-07-13T09:02:27.000Z</time>
</trkpt>
<trkpt lat="56.246296" lon="8.163073">
<ele>1.862734</ele>
<time>2026-07-13T09:02:28.000Z</time>
</trkpt>
<trkpt lat="56.246342" lon="8.163061">
<ele>1.869800</ele>
<time>2026-07-13T09:02:29.000Z</time>
</trkpt>
<trkpt lat="56.246391" lon="8.163050">
<ele>1.877307</ele>
<time>2026-07-13T09:02:30.000Z</time>
</trkpt>
<trkpt lat="56.246437" lon="8.163036">
<ele>1.884400</ele>
<time>2026-07-13T09:02:31.000Z</time>
</trkpt>
<trkpt lat="56.246483" lon="8.163020">
<ele>1.891523</ele>
<time>2026-07-13T09:02:32.000Z</time>
</trkpt>
<trkpt lat="56.246529" lon="8.162998">
<ele>1.898758</ele>
<time>2026-07-13T09:02:33.000Z</time>
</trkpt>
<trkpt lat="56.246571" lon="8.162964">
<ele>1.905760</ele>
<time>2026-07-13T09:02:34.000Z</time>
</trkpt>
<trkpt lat="56.246605" lon="8.162912">
<ele>1.912543</ele>
<time>2026-07-13T09:02:35.000Z</time>
</trkpt>
<trkpt lat="56.246639" lon="8.162847">
<ele>1.920084</ele>
<time>2026-07-13T09:02:36.000Z</time>
</trkpt>
<trkpt lat="56.246662" lon="8.162775">
<ele>1.927099</ele>
<time>2026-07-13T09:02:37.000Z</time>
</trkpt>
<trkpt lat="56.246685" lon="8.162697">
<ele>1.934558</ele>
<time>2026-07-13T09:02:38.000Z</time>
</trkpt>
<trkpt lat="56.246704" lon="8.162616">
<ele>1.941984</ele>
<time>2026-07-13T09:02:39.000Z</time>
</trkpt>
<trkpt lat="56.246723" lon="8.162536">
<ele>1.949333</ele>
<time>2026-07-13T09:02:40.000Z</time>
</trkpt>
<trkpt lat="56.246738" lon="8.162454">
<ele>1.956626</ele>
<time>2026-07-13T09:02:41.000Z</time>
</trkpt>
<trkpt lat="56.246758" lon="8.162374">
<ele>1.964036</ele>
<time>2026-07-13T09:02:42.000Z</time>
</trkpt>
<trkpt lat="56.246780" lon="8.162292">
<ele>1.971727</ele>
<time>2026-07-13T09:02:43.000Z</time>
</trkpt>
<trkpt lat="56.246796" lon="8.162212">
<ele>1.978909</ele>
<time>2026-07-13T09:02:44.000Z</time>
</trkpt>
<trkpt lat="56.246815" lon="8.162134">
<ele>1.986103</ele>
<time>2026-07-13T09:02:45.000Z</time>
</trkpt>
<trkpt lat="56.246834" lon="8.162053">
<ele>1.993530</ele>
<time>2026-07-13T09:02:46.000Z</time>
</trkpt>
<trkpt lat="56.246853" lon="8.161971">
<ele>2.001034</ele>
<time>2026-07-13T09:02:47.000Z</time>
</trkpt>
<trkpt lat="56.246872" lon="8.161891">
<ele>2.008383</ele>
<time>2026-07-13T09:02:48.000Z</time>
</trkpt>
<trkpt lat="56.246891" lon="8.161815">
<ele>2.015423</ele>
<time>2026-07-13T09:02:49.000Z</time>
</trkpt>
<trkpt lat="56.246910" lon="8.161739">
<ele>2.020025</ele>
<time>2026-07-13T09:02:50.000Z</time>
</trkpt>
<trkpt lat="56.246929" lon="8.161661">
<ele>2.019239</ele>
<time>2026-07-13T09:02:51.000Z</time>
</trkpt>
<trkpt lat="56.246952" lon="8.161583">
<ele>2.018424</ele>
<time>2026-07-13T09:02:52.000Z</time>
</trkpt>
<trkpt lat="56.246971" lon="8.161504">
<ele>2.017629</ele>
<time>2026-07-13T09:02:53.000Z</time>
</trkpt>
<trkpt lat="56.246994" lon="8.161425">
<ele>2.016805</ele>
<time>2026-07-13T09:02:54.000Z</time>
</trkpt>
<trkpt lat="56.247013" lon="8.161347">
<ele>2.016019</ele>
<time>2026-07-13T09:02:55.000Z</time>
</trkpt>
<trkpt lat="56.247032" lon="8.161271">
<ele>2.015249</ele>
<time>2026-07-13T09:02:56.000Z</time>
</trkpt>
<trkpt lat="56.247051" lon="8.161195">
<ele>2.014480</ele>
<time>2026-07-13T09:02:57.000Z</time>
</trkpt>
<trkpt lat="56.247070" lon="8.161118">
<ele>2.013702</ele>
<time>2026-07-13T09:02:58.000Z</time>
</trkpt>
<trkpt lat="56.247089" lon="8.161042">
<ele>2.012932</ele>
<time>2026-07-13T09:02:59.000Z</time>
</trkpt>
<trkpt lat="56.247108" lon="8.160968">
<ele>2.012180</ele>
<time>2026-07-13T09:03:00.000Z</time>
</trkpt>
<trkpt lat="56.247124" lon="8.160898">
<ele>2.011481</ele>
<time>2026-07-13T09:03:01.000Z</time>
</trkpt>
<trkpt lat="56.247143" lon="8.160830">
<ele>2.010778</ele>
<time>2026-07-13T09:03:02.000Z</time>
</trkpt>
<trkpt lat="56.247158" lon="8.160761">
<ele>2.010094</ele>
<time>2026-07-13T09:03:03.000Z</time>
</trkpt>
<trkpt lat="56.247177" lon="8.160690">
<ele>2.009366</ele>
<time>2026-07-13T09:03:04.000Z</time>
</trkpt>
<trkpt lat="56.247196" lon="8.160618">
<ele>2.008630</ele>
<time>2026-07-13T09:03:05.000Z</time>
</trkpt>
<trkpt lat="56.247215" lon="8.160545">
<ele>2.007886</ele>
<time>2026-07-13T09:03:06.000Z</time>
</trkpt>
<trkpt lat="56.247238" lon="8.160471">
<ele>2.007103</ele>
<time>2026-07-13T09:03:07.000Z</time>
</trkpt>
<trkpt lat="56.247257" lon="8.160392">
<ele>2.006308</ele>
<time>2026-07-13T09:03:08.000Z</time>
</trkpt>
<trkpt lat="56.247276" lon="8.160309">
<ele>2.005479</ele>
<time>2026-07-13T09:03:09.000Z</time>
</trkpt>
<trkpt lat="56.247299" lon="8.160226">
<ele>2.004623</ele>
<time>2026-07-13T09:03:10.000Z</time>
</trkpt>
<trkpt lat="56.247318" lon="8.160143">
<ele>2.003794</ele>
<time>2026-07-13T09:03:11.000Z</time>
</trkpt>
<trkpt lat="56.247337" lon="8.160062">
<ele>2.002982</ele>
<time>2026-07-13T09:03:12.000Z</time>
</trkpt>
<trkpt lat="56.247356" lon="8.159986">
<ele>2.002212</ele>
<time>2026-07-13T09:03:13.000Z</time>
</trkpt>
<trkpt lat="56.247375" lon="8.159910">
<ele>2.001443</ele>
<time>2026-07-13T09:03:14.000Z</time>
</trkpt>
<trkpt lat="56.247395" lon="8.159834">
<ele>2.000666</ele>
<time>2026-07-13T09:03:15.000Z</time>
</trkpt>
<trkpt lat="56.247417" lon="8.159756">
<ele>1.999859</ele>
<time>2026-07-13T09:03:16.000Z</time>
</trkpt>
<trkpt lat="56.247437" lon="8.159675">
<ele>1.999040</ele>
<time>2026-07-13T09:03:17.000Z</time>
</trkpt>
<trkpt lat="56.247456" lon="8.159592">
<ele>1.998211</ele>
<time>2026-07-13T09:03:18.000Z</time>
</trkpt>
<trkpt lat="56.247478" lon="8.159512">
<ele>1.997387</ele>
<time>2026-07-13T09:03:19.000Z</time>
</trkpt>
<trkpt lat="56.247498" lon="8.159434">
<ele>1.996594</ele>
<time>2026-07-13T09:03:20.000Z</time>
</trkpt>
<trkpt lat="56.247520" lon="8.159362">
<ele>1.995835</ele>
<time>2026-07-13T09:03:21.000Z</time>
</trkpt>
<trkpt lat="56.247536" lon="8.159290">
<ele>1.995119</ele>
<time>2026-07-13T09:03:22.000Z</time>
</trkpt>
<trkpt lat="56.247555" lon="8.159216">
<ele>1.994367</ele>
<time>2026-07-13T09:03:23.000Z</time>
</trkpt>
<trkpt lat="56.247574" lon="8.159142">
<ele>1.993614</ele>
<time>2026-07-13T09:03:24.000Z</time>
</trkpt>
<trkpt lat="56.247593" lon="8.159065">
<ele>1.992836</ele>
<time>2026-07-13T09:03:25.000Z</time>
</trkpt>
<trkpt lat="56.247616" lon="8.158988">
<ele>1.992029</ele>
<time>2026-07-13T09:03:26.000Z</time>
</trkpt>
<trkpt lat="56.247635" lon="8.158910">
<ele>1.991242</ele>
<time>2026-07-13T09:03:27.000Z</time>
</trkpt>
<trkpt lat="56.247658" lon="8.158831">
<ele>1.990419</ele>
<time>2026-07-13T09:03:28.000Z</time>
</trkpt>
<trkpt lat="56.247681" lon="8.158751">
<ele>1.991329</ele>
<time>2026-07-13T09:03:29.000Z</time>
</trkpt>
<trkpt lat="56.247700" lon="8.158669">
<ele>1.992323</ele>
<time>2026-07-13T09:03:30.000Z</time>
</trkpt>
<trkpt lat="56.247723" lon="8.158588">
<ele>1.993341</ele>
<time>2026-07-13T09:03:31.000Z</time>
</trkpt>
<trkpt lat="56.247742" lon="8.158509">
<ele>1.994305</ele>
<time>2026-07-13T09:03:32.000Z</time>
</trkpt>
<trkpt lat="56.247757" lon="8.158429">
<ele>1.995250</ele>
<time>2026-07-13T09:03:33.000Z</time>
</trkpt>
<trkpt lat="56.247772" lon="8.158348">
<ele>1.996206</ele>
<time>2026-07-13T09:03:34.000Z</time>
</trkpt>
<trkpt lat="56.247784" lon="8.158266">
<ele>1.997155</ele>
<time>2026-07-13T09:03:35.000Z</time>
</trkpt>
<trkpt lat="56.247799" lon="8.158184">
<ele>1.998121</ele>
<time>2026-07-13T09:03:36.000Z</time>
</trkpt>
<trkpt lat="56.247807" lon="8.158102">
<ele>1.999053</ele>
<time>2026-07-13T09:03:37.000Z</time>
</trkpt>
<trkpt lat="56.247814" lon="8.158017">
<ele>2.000015</ele>
<time>2026-07-13T09:03:38.000Z</time>
</trkpt>
<trkpt lat="56.247818" lon="8.157930">
<ele>2.000992</ele>
<time>2026-07-13T09:03:39.000Z</time>
</trkpt>
<trkpt lat="56.247826" lon="8.157842">
<ele>2.001990</ele>
<time>2026-07-13T09:03:40.000Z</time>
</trkpt>
<trkpt lat="56.247833" lon="8.157754">
<ele>2.002985</ele>
<time>2026-07-13T09:03:41.000Z</time>
</trkpt>
<trkpt lat="56.247841" lon="8.157666">
<ele>2.003983</ele>
<time>2026-07-13T09:03:42.000Z</time>
</trkpt>
<trkpt lat="56.247845" lon="8.157579">
<ele>2.004960</ele>
<time>2026-07-13T09:03:43.000Z</time>
</trkpt>
<trkpt lat="56.247849" lon="8.157493">
<ele>2.005926</ele>
<time>2026-07-13T09:03:44.000Z</time>
</trkpt>
<trkpt lat="56.247856" lon="8.157406">
<ele>2.006910</ele>
<time>2026-07-13T09:03:45.000Z</time>
</trkpt>
<trkpt lat="56.247864" lon="8.157318">
<ele>2.007908</ele>
<time>2026-07-13T09:03:46.000Z</time>
</trkpt>
<trkpt lat="56.247871" lon="8.157230">
<ele>2.008903</ele>
<time>2026-07-13T09:03:47.000Z</time>
</trkpt>
<trkpt lat="56.247875" lon="8.157144">
<ele>2.009869</ele>
<time>2026-07-13T09:03:48.000Z</time>
</trkpt>
<trkpt lat="56.247883" lon="8.157054">
<ele>2.010889</ele>
<time>2026-07-13T09:03:49.000Z</time>
</trkpt>
<trkpt lat="56.247887" lon="8.156965">
<ele>2.011889</ele>
<time>2026-07-13T09:03:50.000Z</time>
</trkpt>
<trkpt lat="56.247890" lon="8.156876">
<ele>2.012887</ele>
<time>2026-07-13T09:03:51.000Z</time>
</trkpt>
<trkpt lat="56.247894" lon="8.156790">
<ele>2.013853</ele>
<time>2026-07-13T09:03:52.000Z</time>
</trkpt>
<trkpt lat="56.247902" lon="8.156703">
<ele>2.014840</ele>
<time>2026-07-13T09:03:53.000Z</time>
</trkpt>
<trkpt lat="56.247910" lon="8.156615">
<ele>2.015838</ele>
<time>2026-07-13T09:03:54.000Z</time>
</trkpt>
<trkpt lat="56.247917" lon="8.156525">
<ele>2.016855</ele>
<time>2026-07-13T09:03:55.000Z</time>
</trkpt>
<trkpt lat="56.247925" lon="8.156434">
<ele>2.017886</ele>
<time>2026-07-13T09:03:56.000Z</time>
</trkpt>
<trkpt lat="56.247932" lon="8.156347">
<ele>2.018870</ele>
<time>2026-07-13T09:03:57.000Z</time>
</trkpt>
<trkpt lat="56.247936" lon="8.156259">
<ele>2.019858</ele>
<time>2026-07-13T09:03:58.000Z</time>
</trkpt>
<trkpt lat="56.247944" lon="8.156171">
<ele>2.020856</ele>
<time>2026-07-13T09:03:59.000Z</time>
</trkpt>
<trkpt lat="56.247948" lon="8.156082">
<ele>2.021856</ele>
<time>2026-07-13T09:04:00.000Z</time>
</trkpt>
<trkpt lat="56.247955" lon="8.155993">
<ele>2.022862</ele>
<time>2026-07-13T09:04:01.000Z</time>
</trkpt>
<trkpt lat="56.247963" lon="8.155903">
<ele>2.023882</ele>
<time>2026-07-13T09:04:02.000Z</time>
</trkpt>
<trkpt lat="56.247971" lon="8.155814">
<ele>2.024891</ele>
<time>2026-07-13T09:04:03.000Z</time>
</trkpt>
<trkpt lat="56.247982" lon="8.155726">
<ele>2.025901</ele>
<time>2026-07-13T09:04:04.000Z</time>
</trkpt>
<trkpt lat="56.247986" lon="8.155639">
<ele>2.028117</ele>
<time>2026-07-13T09:04:05.000Z</time>
</trkpt>
<trkpt lat="56.247990" lon="8.155548">
<ele>2.033852</ele>
<time>2026-07-13T09:04:06.000Z</time>
</trkpt>
<trkpt lat="56.247993" lon="8.155459">
<ele>2.039454</ele>
<time>2026-07-13T09:04:07.000Z</time>
</trkpt>
<trkpt lat="56.248001" lon="8.155373">
<ele>2.044932</ele>
<time>2026-07-13T09:04:08.000Z</time>
</trkpt>
<trkpt lat="56.248005" lon="8.155286">
<ele>2.050417</ele>
<time>2026-07-13T09:04:09.000Z</time>
</trkpt>
<trkpt lat="56.248005" lon="8.155199">
<ele>2.055882</ele>
<time>2026-07-13T09:04:10.000Z</time>
</trkpt>
<trkpt lat="56.248009" lon="8.155111">
<ele>2.061429</ele>
<time>2026-07-13T09:04:11.000Z</time>
</trkpt>
<trkpt lat="56.248009" lon="8.155022">
<ele>2.067021</ele>
<time>2026-07-13T09:04:12.000Z</time>
</trkpt>
<trkpt lat="56.248013" lon="8.154932">
<ele>2.072693</ele>
<time>2026-07-13T09:04:13.000Z</time>
</trkpt>
<trkpt lat="56.248013" lon="8.154841">
<ele>2.078410</ele>
<time>2026-07-13T09:04:14.000Z</time>
</trkpt>
<trkpt lat="56.248016" lon="8.154753">
<ele>2.083949</ele>
<time>2026-07-13T09:04:15.000Z</time>
</trkpt>
<trkpt lat="56.248016" lon="8.154668">
<ele>2.089289</ele>
<time>2026-07-13T09:04:16.000Z</time>
</trkpt>
<trkpt lat="56.248020" lon="8.154583">
<ele>2.094648</ele>
<time>2026-07-13T09:04:17.000Z</time>
</trkpt>
<trkpt lat="56.248020" lon="8.154497">
<ele>2.100051</ele>
<time>2026-07-13T09:04:18.000Z</time>
</trkpt>
<trkpt lat="56.248020" lon="8.154411">
<ele>2.105454</ele>
<time>2026-07-13T09:04:19.000Z</time>
</trkpt>
<trkpt lat="56.248020" lon="8.154323">
<ele>2.110983</ele>
<time>2026-07-13T09:04:20.000Z</time>
</trkpt>
<trkpt lat="56.248024" lon="8.154234">
<ele>2.116592</ele>
<time>2026-07-13T09:04:21.000Z</time>
</trkpt>
<trkpt lat="56.248028" lon="8.154145">
<ele>2.122202</ele>
<time>2026-07-13T09:04:22.000Z</time>
</trkpt>
<trkpt lat="56.248035" lon="8.154057">
<ele>2.127787</ele>
<time>2026-07-13T09:04:23.000Z</time>
</trkpt>
<trkpt lat="56.248047" lon="8.153972">
<ele>2.133297</ele>
<time>2026-07-13T09:04:24.000Z</time>
</trkpt>
<trkpt lat="56.248066" lon="8.153893">
<ele>2.138705</ele>
<time>2026-07-13T09:04:25.000Z</time>
</trkpt>
<trkpt lat="56.248085" lon="8.153814">
<ele>2.144113</ele>
<time>2026-07-13T09:04:26.000Z</time>
</trkpt>
<trkpt lat="56.248104" lon="8.153738">
<ele>2.149349</ele>
<time>2026-07-13T09:04:27.000Z</time>
</trkpt>
<trkpt lat="56.248123" lon="8.153663">
<ele>2.154527</ele>
<time>2026-07-13T09:04:28.000Z</time>
</trkpt>
<trkpt lat="56.248146" lon="8.153580">
<ele>2.160354</ele>
<time>2026-07-13T09:04:29.000Z</time>
</trkpt>
<trkpt lat="56.248165" lon="8.153502">
<ele>2.165705</ele>
<time>2026-07-13T09:04:30.000Z</time>
</trkpt>
<trkpt lat="56.248188" lon="8.153423">
<ele>2.171308</ele>
<time>2026-07-13T09:04:31.000Z</time>
</trkpt>
<trkpt lat="56.248211" lon="8.153344">
<ele>2.176911</ele>
<time>2026-07-13T09:04:32.000Z</time>
</trkpt>
<trkpt lat="56.248234" lon="8.153264">
<ele>2.182570</ele>
<time>2026-07-13T09:04:33.000Z</time>
</trkpt>
<trkpt lat="56.248257" lon="8.153185">
<ele>2.188174</ele>
<time>2026-07-13T09:04:34.000Z</time>
</trkpt>
<trkpt lat="56.248280" lon="8.153105">
<ele>2.193833</ele>
<time>2026-07-13T09:04:35.000Z</time>
</trkpt>
<trkpt lat="56.248299" lon="8.153024">
<ele>2.199356</ele>
<time>2026-07-13T09:04:36.000Z</time>
</trkpt>
<trkpt lat="56.248322" lon="8.152944">
<ele>2.205015</ele>
<time>2026-07-13T09:04:37.000Z</time>
</trkpt>
<trkpt lat="56.248344" lon="8.152865">
<ele>2.210567</ele>
<time>2026-07-13T09:04:38.000Z</time>
</trkpt>
<trkpt lat="56.248367" lon="8.152785">
<ele>2.216226</ele>
<time>2026-07-13T09:04:39.000Z</time>
</trkpt>
<trkpt lat="56.248390" lon="8.152707">
<ele>2.221773</ele>
<time>2026-07-13T09:04:40.000Z</time>
</trkpt>
<trkpt lat="56.248413" lon="8.152633">
<ele>2.227100</ele>
<time>2026-07-13T09:04:41.000Z</time>
</trkpt>
<trkpt lat="56.248436" lon="8.152556">
<ele>2.221357</ele>
<time>2026-07-13T09:04:42.000Z</time>
</trkpt>
<trkpt lat="56.248455" lon="8.152481">
<ele>2.204168</ele>
<time>2026-07-13T09:04:43.000Z</time>
</trkpt>
<trkpt lat="56.248474" lon="8.152404">
<ele>2.186597</ele>
<time>2026-07-13T09:04:44.000Z</time>
</trkpt>
<trkpt lat="56.248493" lon="8.152327">
<ele>2.169027</ele>
<time>2026-07-13T09:04:45.000Z</time>
</trkpt>
<trkpt lat="56.248516" lon="8.152252">
<ele>2.151162</ele>
<time>2026-07-13T09:04:46.000Z</time>
</trkpt>
<trkpt lat="56.248543" lon="8.152187">
<ele>2.134237</ele>
<time>2026-07-13T09:04:47.000Z</time>
</trkpt>
<trkpt lat="56.248577" lon="8.152140">
<ele>2.118146</ele>
<time>2026-07-13T09:04:48.000Z</time>
</trkpt>
<trkpt lat="56.248615" lon="8.152121">
<ele>2.103342</ele>
<time>2026-07-13T09:04:49.000Z</time>
</trkpt>
<trkpt lat="56.248657" lon="8.152136">
<ele>2.087270</ele>
<time>2026-07-13T09:04:50.000Z</time>
</trkpt>
<trkpt lat="56.248699" lon="8.152166">
<ele>2.070309</ele>
<time>2026-07-13T09:04:51.000Z</time>
</trkpt>
<trkpt lat="56.248741" lon="8.152203">
<ele>2.052757</ele>
<time>2026-07-13T09:04:52.000Z</time>
</trkpt>
<trkpt lat="56.248787" lon="8.152238">
<ele>2.034012</ele>
<time>2026-07-13T09:04:53.000Z</time>
</trkpt>
<trkpt lat="56.248833" lon="8.152275">
<ele>2.015100</ele>
<time>2026-07-13T09:04:54.000Z</time>
</trkpt>
<trkpt lat="56.248879" lon="8.152311">
<ele>1.996272</ele>
<time>2026-07-13T09:04:55.000Z</time>
</trkpt>
<trkpt lat="56.248924" lon="8.152347">
<ele>1.977788</ele>
<time>2026-07-13T09:04:56.000Z</time>
</trkpt>
<trkpt lat="56.248974" lon="8.152381">
<ele>1.957726</ele>
<time>2026-07-13T09:04:57.000Z</time>
</trkpt>
<trkpt lat="56.249020" lon="8.152412">
<ele>1.939289</ele>
<time>2026-07-13T09:04:58.000Z</time>
</trkpt>
<trkpt lat="56.249069" lon="8.152443">
<ele>1.919794</ele>
<time>2026-07-13T09:04:59.000Z</time>
</trkpt>
<trkpt lat="56.249115" lon="8.152474">
<ele>1.901357</ele>
<time>2026-07-13T09:05:00.000Z</time>
</trkpt>
<trkpt lat="56.249165" lon="8.152508">
<ele>1.881295</ele>
<time>2026-07-13T09:05:01.000Z</time>
</trkpt>
<trkpt lat="56.249214" lon="8.152542">
<ele>1.861583</ele>
<time>2026-07-13T09:05:02.000Z</time>
</trkpt>
<trkpt lat="56.249260" lon="8.152573">
<ele>1.843147</ele>
<time>2026-07-13T09:05:03.000Z</time>
</trkpt>
<trkpt lat="56.249309" lon="8.152601">
<ele>1.823850</ele>
<time>2026-07-13T09:05:04.000Z</time>
</trkpt>
<trkpt lat="56.249359" lon="8.152634">
<ele>1.803860</ele>
<time>2026-07-13T09:05:05.000Z</time>
</trkpt>
<trkpt lat="56.249413" lon="8.152666">
<ele>1.782521</ele>
<time>2026-07-13T09:05:06.000Z</time>
</trkpt>
<trkpt lat="56.249462" lon="8.152699">
<ele>1.762884</ele>
<time>2026-07-13T09:05:07.000Z</time>
</trkpt>
<trkpt lat="56.249508" lon="8.152730">
<ele>1.744447</ele>
<time>2026-07-13T09:05:08.000Z</time>
</trkpt>
<trkpt lat="56.249558" lon="8.152761">
<ele>1.724597</ele>
<time>2026-07-13T09:05:09.000Z</time>
</trkpt>
<trkpt lat="56.249607" lon="8.152793">
<ele>1.705032</ele>
<time>2026-07-13T09:05:10.000Z</time>
</trkpt>
<trkpt lat="56.249653" lon="8.152825">
<ele>1.686521</ele>
<time>2026-07-13T09:05:11.000Z</time>
</trkpt>
<trkpt lat="56.249699" lon="8.152857">
<ele>1.668010</ele>
<time>2026-07-13T09:05:12.000Z</time>
</trkpt>
<trkpt lat="56.249744" lon="8.152886">
<ele>1.650069</ele>
<time>2026-07-13T09:05:13.000Z</time>
</trkpt>
<trkpt lat="56.249790" lon="8.152916">
<ele>1.631704</ele>
<time>2026-07-13T09:05:14.000Z</time>
</trkpt>
<trkpt lat="56.249832" lon="8.152944">
<ele>1.614893</ele>
<time>2026-07-13T09:05:15.000Z</time>
</trkpt>
<trkpt lat="56.249882" lon="8.152972">
<ele>1.595238</ele>
<time>2026-07-13T09:05:16.000Z</time>
</trkpt>
<trkpt lat="56.249931" lon="8.153002">
<ele>1.575811</ele>
<time>2026-07-13T09:05:17.000Z</time>
</trkpt>
<trkpt lat="56.249981" lon="8.153033">
<ele>1.555961</ele>
<time>2026-07-13T09:05:18.000Z</time>
</trkpt>
<trkpt lat="56.250027" lon="8.153064">
<ele>1.567795</ele>
<time>2026-07-13T09:05:19.000Z</time>
</trkpt>
<trkpt lat="56.250076" lon="8.153093">
<ele>1.582226</ele>
<time>2026-07-13T09:05:20.000Z</time>
</trkpt>
<trkpt lat="56.250122" lon="8.153124">
<ele>1.595968</ele>
<time>2026-07-13T09:05:21.000Z</time>
</trkpt>
<trkpt lat="56.250172" lon="8.153153">
<ele>1.610665</ele>
<time>2026-07-13T09:05:22.000Z</time>
</trkpt>
<trkpt lat="56.250214" lon="8.153182">
<ele>1.623250</ele>
<time>2026-07-13T09:05:23.000Z</time>
</trkpt>
<trkpt lat="56.250259" lon="8.153211">
<ele>1.636622</ele>
<time>2026-07-13T09:05:24.000Z</time>
</trkpt>
<trkpt lat="56.250305" lon="8.153238">
<ele>1.650159</ele>
<time>2026-07-13T09:05:25.000Z</time>
</trkpt>
<trkpt lat="56.250351" lon="8.153266">
<ele>1.663744</ele>
<time>2026-07-13T09:05:26.000Z</time>
</trkpt>
<trkpt lat="56.250401" lon="8.153293">
<ele>1.678349</ele>
<time>2026-07-13T09:05:27.000Z</time>
</trkpt>
<trkpt lat="56.250446" lon="8.153319">
<ele>1.691571</ele>
<time>2026-07-13T09:05:28.000Z</time>
</trkpt>
<trkpt lat="56.250496" lon="8.153346">
<ele>1.706176</ele>
<time>2026-07-13T09:05:29.000Z</time>
</trkpt>
<trkpt lat="56.250542" lon="8.153373">
<ele>1.719712</ele>
<time>2026-07-13T09:05:30.000Z</time>
</trkpt>
<trkpt lat="56.250587" lon="8.153399">
<ele>1.732935</ele>
<time>2026-07-13T09:05:31.000Z</time>
</trkpt>
<trkpt lat="56.250637" lon="8.153423">
<ele>1.747412</ele>
<time>2026-07-13T09:05:32.000Z</time>
</trkpt>
<trkpt lat="56.250683" lon="8.153448">
<ele>1.760856</ele>
<time>2026-07-13T09:05:33.000Z</time>
</trkpt>
<trkpt lat="56.250729" lon="8.153471">
<ele>1.774213</ele>
<time>2026-07-13T09:05:34.000Z</time>
</trkpt>
<trkpt lat="56.250767" lon="8.153492">
<ele>1.785334</ele>
<time>2026-07-13T09:05:35.000Z</time>
</trkpt>
<trkpt lat="56.250809" lon="8.153514">
<ele>1.797571</ele>
<time>2026-07-13T09:05:36.000Z</time>
</trkpt>
<trkpt lat="56.250854" lon="8.153537">
<ele>1.810659</ele>
<time>2026-07-13T09:05:37.000Z</time>
</trkpt>
<trkpt lat="56.250908" lon="8.153564">
<ele>1.826339</ele>
<time>2026-07-13T09:05:38.000Z</time>
</trkpt>
<trkpt lat="56.250954" lon="8.153598">
<ele>1.840251</ele>
<time>2026-07-13T09:05:39.000Z</time>
</trkpt>
<trkpt lat="56.250988" lon="8.153644">
<ele>1.852151</ele>
<time>2026-07-13T09:05:40.000Z</time>
</trkpt>
<trkpt lat="56.251022" lon="8.153708">
<ele>1.865914</ele>
<time>2026-07-13T09:05:41.000Z</time>
</trkpt>
<trkpt lat="56.251049" lon="8.153777">
<ele>1.879032</ele>
<time>2026-07-13T09:05:42.000Z</time>
</trkpt>
<trkpt lat="56.251072" lon="8.153852">
<ele>1.892347</ele>
<time>2026-07-13T09:05:43.000Z</time>
</trkpt>
<trkpt lat="56.251095" lon="8.153930">
<ele>1.906073</ele>
<time>2026-07-13T09:05:44.000Z</time>
</trkpt>
<trkpt lat="56.251110" lon="8.154006">
<ele>1.918608</ele>
<time>2026-07-13T09:05:45.000Z</time>
</trkpt>
<trkpt lat="56.251129" lon="8.154084">
<ele>1.931846</ele>
<time>2026-07-13T09:05:46.000Z</time>
</trkpt>
<trkpt lat="56.251152" lon="8.154161">
<ele>1.945434</ele>
<time>2026-07-13T09:05:47.000Z</time>
</trkpt>
<trkpt lat="56.251179" lon="8.154234">
<ele>1.959065</ele>
<time>2026-07-13T09:05:48.000Z</time>
</trkpt>
<trkpt lat="56.251205" lon="8.154304">
<ele>1.972153</ele>
<time>2026-07-13T09:05:49.000Z</time>
</trkpt>
<trkpt lat="56.251232" lon="8.154368">
<ele>1.984643</ele>
<time>2026-07-13T09:05:50.000Z</time>
</trkpt>
<trkpt lat="56.251263" lon="8.154432">
<ele>1.997840</ele>
<time>2026-07-13T09:05:51.000Z</time>
</trkpt>
<trkpt lat="56.251293" lon="8.154497">
<ele>2.010975</ele>
<time>2026-07-13T09:05:52.000Z</time>
</trkpt>
<trkpt lat="56.251324" lon="8.154561">
<ele>2.024172</ele>
<time>2026-07-13T09:05:53.000Z</time>
</trkpt>
<trkpt lat="56.251358" lon="8.154623">
<ele>2.037713</ele>
<time>2026-07-13T09:05:54.000Z</time>
</trkpt>
<trkpt lat="56.251389" lon="8.154685">
<ele>2.050677</ele>
<time>2026-07-13T09:05:55.000Z</time>
</trkpt>
<trkpt lat="56.251419" lon="8.154746">
<ele>2.057008</ele>
<time>2026-07-13T09:05:56.000Z</time>
</trkpt>
<trkpt lat="56.251450" lon="8.154810">
<ele>2.054324</ele>
<time>2026-07-13T09:05:57.000Z</time>
</trkpt>
<trkpt lat="56.251480" lon="8.154874">
<ele>2.051677</ele>
<time>2026-07-13T09:05:58.000Z</time>
</trkpt>
<trkpt lat="56.251514" lon="8.154936">
<ele>2.048923</ele>
<time>2026-07-13T09:05:59.000Z</time>
</trkpt>
<trkpt lat="56.251545" lon="8.155003">
<ele>2.046166</ele>
<time>2026-07-13T09:06:00.000Z</time>
</trkpt>
<trkpt lat="56.251575" lon="8.155068">
<ele>2.043495</ele>
<time>2026-07-13T09:06:01.000Z</time>
</trkpt>
<trkpt lat="56.251606" lon="8.155135">
<ele>2.040739</ele>
<time>2026-07-13T09:06:02.000Z</time>
</trkpt>
<trkpt lat="56.251636" lon="8.155202">
<ele>2.038018</ele>
<time>2026-07-13T09:06:03.000Z</time>
</trkpt>
<trkpt lat="56.251667" lon="8.155268">
<ele>2.035286</ele>
<time>2026-07-13T09:06:04.000Z</time>
</trkpt>
<trkpt lat="56.251698" lon="8.155334">
<ele>2.032554</ele>
<time>2026-07-13T09:06:05.000Z</time>
</trkpt>
<trkpt lat="56.251728" lon="8.155397">
<ele>2.029931</ele>
<time>2026-07-13T09:06:06.000Z</time>
</trkpt>
<trkpt lat="56.251762" lon="8.155460">
<ele>2.027154</ele>
<time>2026-07-13T09:06:07.000Z</time>
</trkpt>
<trkpt lat="56.251793" lon="8.155528">
<ele>2.024373</ele>
<time>2026-07-13T09:06:08.000Z</time>
</trkpt>
<trkpt lat="56.251820" lon="8.155594">
<ele>2.021782</ele>
<time>2026-07-13T09:06:09.000Z</time>
</trkpt>
<trkpt lat="56.251850" lon="8.155658">
<ele>2.019135</ele>
<time>2026-07-13T09:06:10.000Z</time>
</trkpt>
<trkpt lat="56.251884" lon="8.155724">
<ele>2.016290</ele>
<time>2026-07-13T09:06:11.000Z</time>
</trkpt>
<trkpt lat="56.251915" lon="8.155789">
<ele>2.013582</ele>
<time>2026-07-13T09:06:12.000Z</time>
</trkpt>
<trkpt lat="56.251946" lon="8.155855">
<ele>2.010849</ele>
<time>2026-07-13T09:06:13.000Z</time>
</trkpt>
<trkpt lat="56.251976" lon="8.155920">
<ele>2.008178</ele>
<time>2026-07-13T09:06:14.000Z</time>
</trkpt>
<trkpt lat="56.252007" lon="8.155985">
<ele>2.005470</ele>
<time>2026-07-13T09:06:15.000Z</time>
</trkpt>
<trkpt lat="56.252041" lon="8.156050">
<ele>2.002648</ele>
<time>2026-07-13T09:06:16.000Z</time>
</trkpt>
<trkpt lat="56.252071" lon="8.156115">
<ele>1.999976</ele>
<time>2026-07-13T09:06:17.000Z</time>
</trkpt>
<trkpt lat="56.252102" lon="8.156183">
<ele>1.997196</ele>
<time>2026-07-13T09:06:18.000Z</time>
</trkpt>
<trkpt lat="56.252136" lon="8.156252">
<ele>1.994280</ele>
<time>2026-07-13T09:06:19.000Z</time>
</trkpt>
<trkpt lat="56.252167" lon="8.156320">
<ele>1.991499</ele>
<time>2026-07-13T09:06:20.000Z</time>
</trkpt>
<trkpt lat="56.252201" lon="8.156388">
<ele>1.988607</ele>
<time>2026-07-13T09:06:21.000Z</time>
</trkpt>
<trkpt lat="56.252235" lon="8.156455">
<ele>1.985738</ele>
<time>2026-07-13T09:06:22.000Z</time>
</trkpt>
<trkpt lat="56.252266" lon="8.156523">
<ele>1.982958</ele>
<time>2026-07-13T09:06:23.000Z</time>
</trkpt>
<trkpt lat="56.252296" lon="8.156591">
<ele>1.980213</ele>
<time>2026-07-13T09:06:24.000Z</time>
</trkpt>
<trkpt lat="56.252331" lon="8.156661">
<ele>1.977236</ele>
<time>2026-07-13T09:06:25.000Z</time>
</trkpt>
<trkpt lat="56.252365" lon="8.156732">
<ele>1.974272</ele>
<time>2026-07-13T09:06:26.000Z</time>
</trkpt>
<trkpt lat="56.252399" lon="8.156800">
<ele>1.971380</ele>
<time>2026-07-13T09:06:27.000Z</time>
</trkpt>
<trkpt lat="56.252430" lon="8.156867">
<ele>1.968624</ele>
<time>2026-07-13T09:06:28.000Z</time>
</trkpt>
<trkpt lat="56.252461" lon="8.156939">
<ele>1.965744</ele>
<time>2026-07-13T09:06:29.000Z</time>
</trkpt>
<trkpt lat="56.252483" lon="8.157015">
<ele>1.963035</ele>
<time>2026-07-13T09:06:30.000Z</time>
</trkpt>
<trkpt lat="56.252506" lon="8.157093">
<ele>1.960244</ele>
<time>2026-07-13T09:06:31.000Z</time>
</trkpt>
<trkpt lat="56.252522" lon="8.157174">
<ele>1.957526</ele>
<time>2026-07-13T09:06:32.000Z</time>
</trkpt>
<trkpt lat="56.252533" lon="8.157258">
<ele>1.958482</ele>
<time>2026-07-13T09:06:33.000Z</time>
</trkpt>
<trkpt lat="56.252537" lon="8.157343">
<ele>1.966449</ele>
<time>2026-07-13T09:06:34.000Z</time>
</trkpt>
<trkpt lat="56.252537" lon="8.157431">
<ele>1.974668</ele>
<time>2026-07-13T09:06:35.000Z</time>
</trkpt>
<trkpt lat="56.252529" lon="8.157519">
<ele>1.982996</ele>
<time>2026-07-13T09:06:36.000Z</time>
</trkpt>
<trkpt lat="56.252518" lon="8.157604">
<ele>1.991147</ele>
<time>2026-07-13T09:06:37.000Z</time>
</trkpt>
<trkpt lat="56.252506" lon="8.157689">
<ele>1.999338</ele>
<time>2026-07-13T09:06:38.000Z</time>
</trkpt>
<trkpt lat="56.252491" lon="8.157776">
<ele>2.007846</ele>
<time>2026-07-13T09:06:39.000Z</time>
</trkpt>
<trkpt lat="56.252476" lon="8.157859">
<ele>2.015997</ele>
<time>2026-07-13T09:06:40.000Z</time>
</trkpt>
<trkpt lat="56.252461" lon="8.157935">
<ele>2.023530</ele>
<time>2026-07-13T09:06:41.000Z</time>
</trkpt>
<trkpt lat="56.252445" lon="8.158010">
<ele>2.031034</ele>
<time>2026-07-13T09:06:42.000Z</time>
</trkpt>
<trkpt lat="56.252434" lon="8.158099">
<ele>2.039549</ele>
<time>2026-07-13T09:06:43.000Z</time>
</trkpt>
<trkpt lat="56.252419" lon="8.158188">
<ele>2.048235</ele>
<time>2026-07-13T09:06:44.000Z</time>
</trkpt>
<trkpt lat="56.252407" lon="8.158274">
<ele>2.056517</ele>
<time>2026-07-13T09:06:45.000Z</time>
</trkpt>
<trkpt lat="56.252396" lon="8.158360">
<ele>2.064759</ele>
<time>2026-07-13T09:06:46.000Z</time>
</trkpt>
<trkpt lat="56.252388" lon="8.158446">
<ele>2.072903</ele>
<time>2026-07-13T09:06:47.000Z</time>
</trkpt>
<trkpt lat="56.252369" lon="8.158532">
<ele>2.081547</ele>
<time>2026-07-13T09:06:48.000Z</time>
</trkpt>
<trkpt lat="56.252350" lon="8.158618">
<ele>2.090191</ele>
<time>2026-07-13T09:06:49.000Z</time>
</trkpt>
<trkpt lat="56.252335" lon="8.158705">
<ele>2.098699</ele>
<time>2026-07-13T09:06:50.000Z</time>
</trkpt>
<trkpt lat="56.252319" lon="8.158791">
<ele>2.107169</ele>
<time>2026-07-13T09:06:51.000Z</time>
</trkpt>
<trkpt lat="56.252304" lon="8.158874">
<ele>2.115321</ele>
<time>2026-07-13T09:06:52.000Z</time>
</trkpt>
<trkpt lat="56.252293" lon="8.158957">
<ele>2.123291</ele>
<time>2026-07-13T09:06:53.000Z</time>
</trkpt>
<trkpt lat="56.252289" lon="8.159032">
<ele>2.130327</ele>
<time>2026-07-13T09:06:54.000Z</time>
</trkpt>
<trkpt lat="56.252296" lon="8.159103">
<ele>2.137062</ele>
<time>2026-07-13T09:06:55.000Z</time>
</trkpt>
<trkpt lat="56.252316" lon="8.159170">
<ele>2.144166</ele>
<time>2026-07-13T09:06:56.000Z</time>
</trkpt>
<trkpt lat="56.252342" lon="8.159225">
<ele>2.150911</ele>
<time>2026-07-13T09:06:57.000Z</time>
</trkpt>
<trkpt lat="56.252380" lon="8.159266">
<ele>2.158359</ele>
<time>2026-07-13T09:06:58.000Z</time>
</trkpt>
<trkpt lat="56.252419" lon="8.159299">
<ele>2.165604</ele>
<time>2026-07-13T09:06:59.000Z</time>
</trkpt>
<trkpt lat="56.252464" lon="8.159328">
<ele>2.173640</ele>
<time>2026-07-13T09:07:00.000Z</time>
</trkpt>
<trkpt lat="56.252510" lon="8.159352">
<ele>2.181691</ele>
<time>2026-07-13T09:07:01.000Z</time>
</trkpt>
<trkpt lat="56.252556" lon="8.159378">
<ele>2.189797</ele>
<time>2026-07-13T09:07:02.000Z</time>
</trkpt>
<trkpt lat="56.252598" lon="8.159403">
<ele>2.197234</ele>
<time>2026-07-13T09:07:03.000Z</time>
</trkpt>
<trkpt lat="56.252644" lon="8.159424">
<ele>2.205212</ele>
<time>2026-07-13T09:07:04.000Z</time>
</trkpt>
<trkpt lat="56.252682" lon="8.159447">
<ele>2.211952</ele>
<time>2026-07-13T09:07:05.000Z</time>
</trkpt>
<trkpt lat="56.252724" lon="8.159471">
<ele>2.219361</ele>
<time>2026-07-13T09:07:06.000Z</time>
</trkpt>
<trkpt lat="56.252762" lon="8.159494">
<ele>2.226101</ele>
<time>2026-07-13T09:07:07.000Z</time>
</trkpt>
<trkpt lat="56.252804" lon="8.159521">
<ele>2.233598</ele>
<time>2026-07-13T09:07:08.000Z</time>
</trkpt>
<trkpt lat="56.252842" lon="8.159546">
<ele>2.240400</ele>
<time>2026-07-13T09:07:09.000Z</time>
</trkpt>
<trkpt lat="56.252884" lon="8.159572">
<ele>2.247867</ele>
<time>2026-07-13T09:07:10.000Z</time>
</trkpt>
<trkpt lat="56.252926" lon="8.159596">
<ele>2.255275</ele>
<time>2026-07-13T09:07:11.000Z</time>
</trkpt>
<trkpt lat="56.252964" lon="8.159624">
<ele>2.265286</ele>
<time>2026-07-13T09:07:12.000Z</time>
</trkpt>
<trkpt lat="56.253002" lon="8.159651">
<ele>2.277408</ele>
<time>2026-07-13T09:07:13.000Z</time>
</trkpt>
<trkpt lat="56.253040" lon="8.159676">
<ele>2.289413</ele>
<time>2026-07-13T09:07:14.000Z</time>
</trkpt>
<trkpt lat="56.253082" lon="8.159699">
<ele>2.302439</ele>
<time>2026-07-13T09:07:15.000Z</time>
</trkpt>
<trkpt lat="56.253124" lon="8.159724">
<ele>2.315565</ele>
<time>2026-07-13T09:07:16.000Z</time>
</trkpt>
<trkpt lat="56.253170" lon="8.159749">
<ele>2.329823</ele>
<time>2026-07-13T09:07:17.000Z</time>
</trkpt>
<trkpt lat="56.253212" lon="8.159775">
<ele>2.343001</ele>
<time>2026-07-13T09:07:18.000Z</time>
</trkpt>
<trkpt lat="56.253258" lon="8.159802">
<ele>2.357358</ele>
<time>2026-07-13T09:07:19.000Z</time>
</trkpt>
<trkpt lat="56.253304" lon="8.159828">
<ele>2.371664</ele>
<time>2026-07-13T09:07:20.000Z</time>
</trkpt>
<trkpt lat="56.253349" lon="8.159856">
<ele>2.385791</ele>
<time>2026-07-13T09:07:21.000Z</time>
</trkpt>
<trkpt lat="56.253395" lon="8.159883">
<ele>2.400148</ele>
<time>2026-07-13T09:07:22.000Z</time>
</trkpt>
<trkpt lat="56.253441" lon="8.159909">
<ele>2.414454</ele>
<time>2026-07-13T09:07:23.000Z</time>
</trkpt>
<trkpt lat="56.253487" lon="8.159939">
<ele>2.428971</ele>
<time>2026-07-13T09:07:24.000Z</time>
</trkpt>
<trkpt lat="56.253536" lon="8.159968">
<ele>2.444276</ele>
<time>2026-07-13T09:07:25.000Z</time>
</trkpt>
<trkpt lat="56.253582" lon="8.159997">
<ele>2.458738</ele>
<time>2026-07-13T09:07:26.000Z</time>
</trkpt>
<trkpt lat="56.253632" lon="8.160027">
<ele>2.474377</ele>
<time>2026-07-13T09:07:27.000Z</time>
</trkpt>
<trkpt lat="56.253677" lon="8.160058">
<ele>2.488673</ele>
<time>2026-07-13T09:07:28.000Z</time>
</trkpt>
<trkpt lat="56.253727" lon="8.160087">
<ele>2.504260</ele>
<time>2026-07-13T09:07:29.000Z</time>
</trkpt>
<trkpt lat="56.253773" lon="8.160113">
<ele>2.518567</ele>
<time>2026-07-13T09:07:30.000Z</time>
</trkpt>
<trkpt lat="56.253815" lon="8.160141">
<ele>2.531856</ele>
<time>2026-07-13T09:07:31.000Z</time>
</trkpt>
<trkpt lat="56.253860" lon="8.160171">
<ele>2.546095</ele>
<time>2026-07-13T09:07:32.000Z</time>
</trkpt>
<trkpt lat="56.253906" lon="8.160198">
<ele>2.560451</ele>
<time>2026-07-13T09:07:33.000Z</time>
</trkpt>
<trkpt lat="56.253952" lon="8.160228">
<ele>2.574968</ele>
<time>2026-07-13T09:07:34.000Z</time>
</trkpt>
<trkpt lat="56.253998" lon="8.160257">
<ele>2.589430</ele>
<time>2026-07-13T09:07:35.000Z</time>
</trkpt>
<trkpt lat="56.254047" lon="8.160286">
<ele>2.604735</ele>
<time>2026-07-13T09:07:36.000Z</time>
</trkpt>
<trkpt lat="56.254093" lon="8.160315">
<ele>2.619197</ele>
<time>2026-07-13T09:07:37.000Z</time>
</trkpt>
<trkpt lat="56.254135" lon="8.160342">
<ele>2.632430</ele>
<time>2026-07-13T09:07:38.000Z</time>
</trkpt>
<trkpt lat="56.254181" lon="8.160372">
<ele>2.646948</ele>
<time>2026-07-13T09:07:39.000Z</time>
</trkpt>
<trkpt lat="56.254227" lon="8.160402">
<ele>2.661465</ele>
<time>2026-07-13T09:07:40.000Z</time>
</trkpt>
<trkpt lat="56.254269" lon="8.160431">
<ele>2.674812</ele>
<time>2026-07-13T09:07:41.000Z</time>
</trkpt>
<trkpt lat="56.254318" lon="8.160458">
<ele>2.690018</ele>
<time>2026-07-13T09:07:42.000Z</time>
</trkpt>
<trkpt lat="56.254360" lon="8.160484">
<ele>2.703196</ele>
<time>2026-07-13T09:07:43.000Z</time>
</trkpt>
<trkpt lat="56.254402" lon="8.160511">
<ele>2.716429</ele>
<time>2026-07-13T09:07:44.000Z</time>
</trkpt>
<trkpt lat="56.254444" lon="8.160535">
<ele>2.729504</ele>
<time>2026-07-13T09:07:45.000Z</time>
</trkpt>
<trkpt lat="56.254482" lon="8.160560">
<ele>2.741509</ele>
<time>2026-07-13T09:07:46.000Z</time>
</trkpt>
<trkpt lat="56.254520" lon="8.160583">
<ele>2.753405</ele>
<time>2026-07-13T09:07:47.000Z</time>
</trkpt>
<trkpt lat="56.254555" lon="8.160604">
<ele>2.764352</ele>
<time>2026-07-13T09:07:48.000Z</time>
</trkpt>
<trkpt lat="56.254589" lon="8.160626">
<ele>2.775072</ele>
<time>2026-07-13T09:07:49.000Z</time>
</trkpt>
<trkpt lat="56.254616" lon="8.160645">
<ele>2.783674</ele>
<time>2026-07-13T09:07:50.000Z</time>
</trkpt>
<trkpt lat="56.254639" lon="8.160661">
<ele>2.790990</ele>
<time>2026-07-13T09:07:51.000Z</time>
</trkpt>
<trkpt lat="56.254669" lon="8.160677">
<ele>2.793461</ele>
<time>2026-07-13T09:07:52.000Z</time>
</trkpt>
<trkpt lat="56.254696" lon="8.160688">
<ele>2.795063</ele>
<time>2026-07-13T09:07:53.000Z</time>
</trkpt>
<trkpt lat="56.254723" lon="8.160702">
<ele>2.796689</ele>
<time>2026-07-13T09:07:54.000Z</time>
</trkpt>
<trkpt lat="56.254753" lon="8.160716">
<ele>2.798483</ele>
<time>2026-07-13T09:07:55.000Z</time>
</trkpt>
<trkpt lat="56.254784" lon="8.160731">
<ele>2.800340</ele>
<time>2026-07-13T09:07:56.000Z</time>
</trkpt>
<trkpt lat="56.254810" lon="8.160747">
<ele>2.801931</ele>
<time>2026-07-13T09:07:57.000Z</time>
</trkpt>
<trkpt lat="56.254837" lon="8.160765">
<ele>2.803597</ele>
<time>2026-07-13T09:07:58.000Z</time>
</trkpt>
<trkpt lat="56.254864" lon="8.160779">
<ele>2.805223</ele>
<time>2026-07-13T09:07:59.000Z</time>
</trkpt>
<trkpt lat="56.254887" lon="8.160785">
<ele>2.806568</ele>
<time>2026-07-13T09:08:00.000Z</time>
</trkpt>
<trkpt lat="56.254910" lon="8.160784">
<ele>2.807899</ele>
<time>2026-07-13T09:08:01.000Z</time>
</trkpt>
<trkpt lat="56.254932" lon="8.160788">
<ele>2.809179</ele>
<time>2026-07-13T09:09:25.000Z</time>
</trkpt>
<trkpt lat="56.254948" lon="8.160796">
<ele>2.810140</ele>
<time>2026-07-13T09:09:26.000Z</time>
</trkpt>
<trkpt lat="56.254959" lon="8.160801">
<ele>2.810796</ele>
<time>2026-07-13T09:09:27.000Z</time>
</trkpt>
<trkpt lat="56.254974" lon="8.160798">
<ele>2.811670</ele>
<time>2026-07-13T09:09:28.000Z</time>
</trkpt>
<trkpt lat="56.254990" lon="8.160775">
<ele>2.812855</ele>
<time>2026-07-13T09:09:29.000Z</time>
</trkpt>
<trkpt lat="56.255005" lon="8.160733">
<ele>2.814460</ele>
<time>2026-07-13T09:09:30.000Z</time>
</trkpt>
<trkpt lat="56.255020" lon="8.160677">
<ele>2.816459</ele>
<time>2026-07-13T09:09:31.000Z</time>
</trkpt>
<trkpt lat="56.255032" lon="8.160612">
<ele>2.818661</ele>
<time>2026-07-13T09:09:32.000Z</time>
</trkpt>
<trkpt lat="56.255051" lon="8.160543">
<ele>2.821136</ele>
<time>2026-07-13T09:09:33.000Z</time>
</trkpt>
<trkpt lat="56.255070" lon="8.160474">
<ele>2.823612</ele>
<time>2026-07-13T09:09:34.000Z</time>
</trkpt>
<trkpt lat="56.255093" lon="8.160401">
<ele>2.826310</ele>
<time>2026-07-13T09:09:35.000Z</time>
</trkpt>
<trkpt lat="56.255112" lon="8.160326">
<ele>2.828960</ele>
<time>2026-07-13T09:09:36.000Z</time>
</trkpt>
<trkpt lat="56.255127" lon="8.160249">
<ele>2.831583</ele>
<time>2026-07-13T09:09:37.000Z</time>
</trkpt>
<trkpt lat="56.255146" lon="8.160175">
<ele>2.834204</ele>
<time>2026-07-13T09:09:38.000Z</time>
</trkpt>
<trkpt lat="56.255169" lon="8.160101">
<ele>2.836930</ele>
<time>2026-07-13T09:09:39.000Z</time>
</trkpt>
<trkpt lat="56.255188" lon="8.160024">
<ele>2.839639</ele>
<time>2026-07-13T09:09:40.000Z</time>
</trkpt>
<trkpt lat="56.255211" lon="8.159948">
<ele>2.842421</ele>
<time>2026-07-13T09:09:41.000Z</time>
</trkpt>
<trkpt lat="56.255230" lon="8.159875">
<ele>2.845012</ele>
<time>2026-07-13T09:09:42.000Z</time>
</trkpt>
<trkpt lat="56.255253" lon="8.159800">
<ele>2.847766</ele>
<time>2026-07-13T09:09:43.000Z</time>
</trkpt>
<trkpt lat="56.255276" lon="8.159723">
<ele>2.850577</ele>
<time>2026-07-13T09:09:44.000Z</time>
</trkpt>
<trkpt lat="56.255299" lon="8.159645">
<ele>2.853416</ele>
<time>2026-07-13T09:09:45.000Z</time>
</trkpt>
<trkpt lat="56.255318" lon="8.159565">
<ele>2.856213</ele>
<time>2026-07-13T09:09:46.000Z</time>
</trkpt>
<trkpt lat="56.255341" lon="8.159485">
<ele>2.859109</ele>
<time>2026-07-13T09:09:47.000Z</time>
</trkpt>
<trkpt lat="56.255363" lon="8.159401">
<ele>2.862094</ele>
<time>2026-07-13T09:09:48.000Z</time>
</trkpt>
<trkpt lat="56.255386" lon="8.159318">
<ele>2.865076</ele>
<time>2026-07-13T09:09:49.000Z</time>
</trkpt>
<trkpt lat="56.255409" lon="8.159235">
<ele>2.868058</ele>
<time>2026-07-13T09:09:50.000Z</time>
</trkpt>
<trkpt lat="56.255436" lon="8.159151">
<ele>2.871178</ele>
<time>2026-07-13T09:09:51.000Z</time>
</trkpt>
<trkpt lat="56.255459" lon="8.159065">
<ele>2.874246</ele>
<time>2026-07-13T09:09:52.000Z</time>
</trkpt>
<trkpt lat="56.255482" lon="8.158978">
<ele>2.877343</ele>
<time>2026-07-13T09:09:53.000Z</time>
</trkpt>
<trkpt lat="56.255505" lon="8.158895">
<ele>2.880325</ele>
<time>2026-07-13T09:09:54.000Z</time>
</trkpt>
<trkpt lat="56.255528" lon="8.158811">
<ele>2.883336</ele>
<time>2026-07-13T09:09:55.000Z</time>
</trkpt>
<trkpt lat="56.255550" lon="8.158726">
<ele>2.886350</ele>
<time>2026-07-13T09:09:56.000Z</time>
</trkpt>
<trkpt lat="56.255573" lon="8.158642">
<ele>2.889361</ele>
<time>2026-07-13T09:09:57.000Z</time>
</trkpt>
<trkpt lat="56.255600" lon="8.158558">
<ele>2.892481</ele>
<time>2026-07-13T09:09:58.000Z</time>
</trkpt>
<trkpt lat="56.255623" lon="8.158477">
<ele>2.895405</ele>
<time>2026-07-13T09:09:59.000Z</time>
</trkpt>
<trkpt lat="56.255646" lon="8.158395">
<ele>2.880344</ele>
<time>2026-07-13T09:10:00.000Z</time>
</trkpt>
<trkpt lat="56.255669" lon="8.158316">
<ele>2.862191</ele>
<time>2026-07-13T09:10:01.000Z</time>
</trkpt>
<trkpt lat="56.255692" lon="8.158242">
<ele>2.844933</ele>
<time>2026-07-13T09:10:02.000Z</time>
</trkpt>
<trkpt lat="56.255718" lon="8.158171">
<ele>2.827626</ele>
<time>2026-07-13T09:10:03.000Z</time>
</trkpt>
<trkpt lat="56.255741" lon="8.158095">
<ele>2.810012</ele>
<time>2026-07-13T09:10:04.000Z</time>
</trkpt>
<trkpt lat="56.255760" lon="8.158017">
<ele>2.792678</ele>
<time>2026-07-13T09:10:05.000Z</time>
</trkpt>
<trkpt lat="56.255787" lon="8.157934">
<ele>2.773102</ele>
<time>2026-07-13T09:10:06.000Z</time>
</trkpt>
<trkpt lat="56.255814" lon="8.157849">
<ele>2.753175</ele>
<time>2026-07-13T09:10:07.000Z</time>
</trkpt>
<trkpt lat="56.255836" lon="8.157763">
<ele>2.733905</ele>
<time>2026-07-13T09:10:08.000Z</time>
</trkpt>
<trkpt lat="56.255863" lon="8.157679">
<ele>2.714154</ele>
<time>2026-07-13T09:10:09.000Z</time>
</trkpt>
<trkpt lat="56.255886" lon="8.157593">
<ele>2.694728</ele>
<time>2026-07-13T09:10:10.000Z</time>
</trkpt>
<trkpt lat="56.255905" lon="8.157503">
<ele>2.675133</ele>
<time>2026-07-13T09:10:11.000Z</time>
</trkpt>
<trkpt lat="56.255932" lon="8.157410">
<ele>2.653776</ele>
<time>2026-07-13T09:10:12.000Z</time>
</trkpt>
<trkpt lat="56.255955" lon="8.157313">
<ele>2.632312</ele>
<time>2026-07-13T09:10:13.000Z</time>
</trkpt>
<trkpt lat="56.255981" lon="8.157215">
<ele>2.610209</ele>
<time>2026-07-13T09:10:14.000Z</time>
</trkpt>
<trkpt lat="56.256004" lon="8.157117">
<ele>2.588557</ele>
<time>2026-07-13T09:10:15.000Z</time>
</trkpt>
<trkpt lat="56.256027" lon="8.157021">
<ele>2.567279</ele>
<time>2026-07-13T09:10:16.000Z</time>
</trkpt>
<trkpt lat="56.256058" lon="8.156922">
<ele>2.544150</ele>
<time>2026-07-13T09:10:17.000Z</time>
</trkpt>
<trkpt lat="56.256084" lon="8.156824">
<ele>2.522047</ele>
<time>2026-07-13T09:10:18.000Z</time>
</trkpt>
<trkpt lat="56.256111" lon="8.156727">
<ele>2.499966</ele>
<time>2026-07-13T09:10:19.000Z</time>
</trkpt>
<trkpt lat="56.256134" lon="8.156633">
<ele>2.479061</ele>
<time>2026-07-13T09:10:20.000Z</time>
</trkpt>
<trkpt lat="56.256161" lon="8.156542">
<ele>2.458065</ele>
<time>2026-07-13T09:10:21.000Z</time>
</trkpt>
<trkpt lat="56.256187" lon="8.156451">
<ele>2.437238</ele>
<time>2026-07-13T09:10:22.000Z</time>
</trkpt>
<trkpt lat="56.256214" lon="8.156364">
<ele>2.416956</ele>
<time>2026-07-13T09:10:23.000Z</time>
</trkpt>
<trkpt lat="56.256245" lon="8.156279">
<ele>2.396262</ele>
<time>2026-07-13T09:10:24.000Z</time>
</trkpt>
<trkpt lat="56.256271" lon="8.156198">
<ele>2.377223</ele>
<time>2026-07-13T09:10:25.000Z</time>
</trkpt>
<trkpt lat="56.256294" lon="8.156120">
<ele>2.359250</ele>
<time>2026-07-13T09:10:26.000Z</time>
</trkpt>
<trkpt lat="56.256325" lon="8.156041">
<ele>2.339565</ele>
<time>2026-07-13T09:10:27.000Z</time>
</trkpt>
<trkpt lat="56.256359" lon="8.155966">
<ele>2.319864</ele>
<time>2026-07-13T09:10:28.000Z</time>
</trkpt>
<trkpt lat="56.256397" lon="8.155895">
<ele>2.299798</ele>
<time>2026-07-13T09:10:29.000Z</time>
</trkpt>
<trkpt lat="56.256435" lon="8.155828">
<ele>2.280310</ele>
<time>2026-07-13T09:10:30.000Z</time>
</trkpt>
<trkpt lat="56.256477" lon="8.155765">
<ele>2.260281</ele>
<time>2026-07-13T09:10:31.000Z</time>
</trkpt>
<trkpt lat="56.256523" lon="8.155704">
<ele>2.239348</ele>
<time>2026-07-13T09:10:32.000Z</time>
</trkpt>
<trkpt lat="56.256573" lon="8.155647">
<ele>2.229106</ele>
<time>2026-07-13T09:10:33.000Z</time>
</trkpt>
<trkpt lat="56.256619" lon="8.155599">
<ele>2.221207</ele>
<time>2026-07-13T09:10:34.000Z</time>
</trkpt>
<trkpt lat="56.256668" lon="8.155557">
<ele>2.213144</ele>
<time>2026-07-13T09:10:35.000Z</time>
</trkpt>
<trkpt lat="56.256718" lon="8.155519">
<ele>2.205080</ele>
<time>2026-07-13T09:10:36.000Z</time>
</trkpt>
<trkpt lat="56.256767" lon="8.155485">
<ele>2.197278</ele>
<time>2026-07-13T09:10:37.000Z</time>
</trkpt>
<trkpt lat="56.256821" lon="8.155457">
<ele>2.188929</ele>
<time>2026-07-13T09:10:38.000Z</time>
</trkpt>
<trkpt lat="56.256870" lon="8.155434">
<ele>2.181406</ele>
<time>2026-07-13T09:10:39.000Z</time>
</trkpt>
<trkpt lat="56.256924" lon="8.155417">
<ele>2.173261</ele>
<time>2026-07-13T09:10:40.000Z</time>
</trkpt>
<trkpt lat="56.256977" lon="8.155407">
<ele>2.165344</ele>
<time>2026-07-13T09:10:41.000Z</time>
</trkpt>
<trkpt lat="56.257030" lon="8.155398">
<ele>2.157434</ele>
<time>2026-07-13T09:10:42.000Z</time>
</trkpt>
<trkpt lat="56.257084" lon="8.155391">
<ele>2.149391</ele>
<time>2026-07-13T09:10:43.000Z</time>
</trkpt>
<trkpt lat="56.257137" lon="8.155385">
<ele>2.141501</ele>
<time>2026-07-13T09:10:44.000Z</time>
</trkpt>
<trkpt lat="56.257191" lon="8.155380">
<ele>2.133467</ele>
<time>2026-07-13T09:10:45.000Z</time>
</trkpt>
<trkpt lat="56.257244" lon="8.155377">
<ele>2.125589</ele>
<time>2026-07-13T09:10:46.000Z</time>
</trkpt>
<trkpt lat="56.257298" lon="8.155373">
<ele>2.117559</ele>
<time>2026-07-13T09:10:47.000Z</time>
</trkpt>
<trkpt lat="56.257347" lon="8.155368">
<ele>2.110268</ele>
<time>2026-07-13T09:10:48.000Z</time>
</trkpt>
<trkpt lat="56.257397" lon="8.155363">
<ele>2.102828</ele>
<time>2026-07-13T09:10:49.000Z</time>
</trkpt>
<trkpt lat="56.257450" lon="8.155356">
<ele>2.094932</ele>
<time>2026-07-13T09:10:50.000Z</time>
</trkpt>
<trkpt lat="56.257503" lon="8.155346">
<ele>2.087015</ele>
<time>2026-07-13T09:10:51.000Z</time>
</trkpt>
<trkpt lat="56.257553" lon="8.155338">
<ele>2.079557</ele>
<time>2026-07-13T09:10:52.000Z</time>
</trkpt>
<trkpt lat="56.257603" lon="8.155334">
<ele>2.072121</ele>
<time>2026-07-13T09:10:53.000Z</time>
</trkpt>
<trkpt lat="56.257652" lon="8.155334">
<ele>2.064841</ele>
<time>2026-07-13T09:10:54.000Z</time>
</trkpt>
<trkpt lat="56.257698" lon="8.155333">
<ele>2.058006</ele>
<time>2026-07-13T09:10:55.000Z</time>
</trkpt>
<trkpt lat="56.257740" lon="8.155328">
<ele>2.051752</ele>
<time>2026-07-13T09:10:56.000Z</time>
</trkpt>
<trkpt lat="56.257790" lon="8.155320">
<ele>2.044294</ele>
<time>2026-07-13T09:10:57.000Z</time>
</trkpt>
<trkpt lat="56.257839" lon="8.155310">
<ele>2.036968</ele>
<time>2026-07-13T09:10:58.000Z</time>
</trkpt>
<trkpt lat="56.257893" lon="8.155299">
<ele>2.028894</ele>
<time>2026-07-13T09:10:59.000Z</time>
</trkpt>
<trkpt lat="56.257942" lon="8.155291">
<ele>2.021584</ele>
<time>2026-07-13T09:11:00.000Z</time>
</trkpt>
<trkpt lat="56.257992" lon="8.155285">
<ele>2.014139</ele>
<time>2026-07-13T09:11:01.000Z</time>
</trkpt>
<trkpt lat="56.258041" lon="8.155280">
<ele>2.006847</ele>
<time>2026-07-13T09:11:02.000Z</time>
</trkpt>
<trkpt lat="56.258091" lon="8.155271">
<ele>1.999381</ele>
<time>2026-07-13T09:11:03.000Z</time>
</trkpt>
<trkpt lat="56.258144" lon="8.155252">
<ele>1.991352</ele>
<time>2026-07-13T09:11:04.000Z</time>
</trkpt>
<trkpt lat="56.258194" lon="8.155224">
<ele>1.983573</ele>
<time>2026-07-13T09:11:05.000Z</time>
</trkpt>
<trkpt lat="56.258247" lon="8.155190">
<ele>1.975213</ele>
<time>2026-07-13T09:11:06.000Z</time>
</trkpt>
<trkpt lat="56.258293" lon="8.155148">
<ele>1.973580</ele>
<time>2026-07-13T09:11:07.000Z</time>
</trkpt>
<trkpt lat="56.258339" lon="8.155095">
<ele>1.988420</ele>
<time>2026-07-13T09:11:08.000Z</time>
</trkpt>
<trkpt lat="56.258373" lon="8.155033">
<ele>2.001570</ele>
<time>2026-07-13T09:11:09.000Z</time>
</trkpt>
<trkpt lat="56.258408" lon="8.154968">
<ele>2.015233</ele>
<time>2026-07-13T09:11:10.000Z</time>
</trkpt>
<trkpt lat="56.258434" lon="8.154901">
<ele>2.027569</ele>
<time>2026-07-13T09:11:11.000Z</time>
</trkpt>
<trkpt lat="56.258461" lon="8.154829">
<ele>2.040681</ele>
<time>2026-07-13T09:11:12.000Z</time>
</trkpt>
<trkpt lat="56.258488" lon="8.154759">
<ele>2.053543</ele>
<time>2026-07-13T09:11:13.000Z</time>
</trkpt>
<trkpt lat="56.258507" lon="8.154687">
<ele>2.065574</ele>
<time>2026-07-13T09:11:14.000Z</time>
</trkpt>
<trkpt lat="56.258522" lon="8.154613">
<ele>2.077463</ele>
<time>2026-07-13T09:11:15.000Z</time>
</trkpt>
<trkpt lat="56.258537" lon="8.154539">
<ele>2.089353</ele>
<time>2026-07-13T09:11:16.000Z</time>
</trkpt>
<trkpt lat="56.258553" lon="8.154463">
<ele>2.101620</ele>
<time>2026-07-13T09:11:17.000Z</time>
</trkpt>
<trkpt lat="56.258568" lon="8.154365">
<ele>2.116962</ele>
<time>2026-07-13T09:11:18.000Z</time>
</trkpt>
<trkpt lat="56.258579" lon="8.154278">
<ele>2.130429</ele>
<time>2026-07-13T09:11:19.000Z</time>
</trkpt>
<trkpt lat="56.258595" lon="8.154186">
<ele>2.144979</ele>
<time>2026-07-13T09:11:20.000Z</time>
</trkpt>
<trkpt lat="56.258610" lon="8.154091">
<ele>2.159885</ele>
<time>2026-07-13T09:11:21.000Z</time>
</trkpt>
<trkpt lat="56.258621" lon="8.153996">
<ele>2.174532</ele>
<time>2026-07-13T09:11:22.000Z</time>
</trkpt>
<trkpt lat="56.258636" lon="8.153902">
<ele>2.189293</ele>
<time>2026-07-13T09:11:23.000Z</time>
</trkpt>
<trkpt lat="56.258652" lon="8.153808">
<ele>2.204131</ele>
<time>2026-07-13T09:11:24.000Z</time>
</trkpt>
<trkpt lat="56.258667" lon="8.153713">
<ele>2.219038</ele>
<time>2026-07-13T09:11:25.000Z</time>
</trkpt>
<trkpt lat="56.258682" lon="8.153616">
<ele>2.234234</ele>
<time>2026-07-13T09:11:26.000Z</time>
</trkpt>
<trkpt lat="56.258694" lon="8.153515">
<ele>2.249823</ele>
<time>2026-07-13T09:11:27.000Z</time>
</trkpt>
<trkpt lat="56.258709" lon="8.153413">
<ele>2.265748</ele>
<time>2026-07-13T09:11:28.000Z</time>
</trkpt>
<trkpt lat="56.258724" lon="8.153312">
<ele>2.281527</ele>
<time>2026-07-13T09:11:29.000Z</time>
</trkpt>
<trkpt lat="56.258739" lon="8.153209">
<ele>2.297598</ele>
<time>2026-07-13T09:11:30.000Z</time>
</trkpt>
<trkpt lat="56.258755" lon="8.153109">
<ele>2.313305</ele>
<time>2026-07-13T09:11:31.000Z</time>
</trkpt>
<trkpt lat="56.258770" lon="8.153012">
<ele>2.328502</ele>
<time>2026-07-13T09:11:32.000Z</time>
</trkpt>
<trkpt lat="56.258785" lon="8.152926">
<ele>2.342107</ele>
<time>2026-07-13T09:11:33.000Z</time>
</trkpt>
<trkpt lat="56.258800" lon="8.152843">
<ele>2.355280</ele>
<time>2026-07-13T09:11:34.000Z</time>
</trkpt>
<trkpt lat="56.258812" lon="8.152760">
<ele>2.368224</ele>
<time>2026-07-13T09:11:35.000Z</time>
</trkpt>
<trkpt lat="56.258827" lon="8.152677">
<ele>2.381398</ele>
<time>2026-07-13T09:11:36.000Z</time>
</trkpt>
<trkpt lat="56.258842" lon="8.152597">
<ele>2.394141</ele>
<time>2026-07-13T09:11:37.000Z</time>
</trkpt>
<trkpt lat="56.258858" lon="8.152514">
<ele>2.407401</ele>
<time>2026-07-13T09:11:38.000Z</time>
</trkpt>
<trkpt lat="56.258869" lon="8.152417">
<ele>2.422343</ele>
<time>2026-07-13T09:11:39.000Z</time>
</trkpt>
<trkpt lat="56.258881" lon="8.152327">
<ele>2.436313</ele>
<time>2026-07-13T09:11:40.000Z</time>
</trkpt>
<trkpt lat="56.258896" lon="8.152235">
<ele>2.450784</ele>
<time>2026-07-13T09:11:41.000Z</time>
</trkpt>
<trkpt lat="56.258915" lon="8.152146">
<ele>2.462813</ele>
<time>2026-07-13T09:11:42.000Z</time>
</trkpt>
<trkpt lat="56.258930" lon="8.152054">
<ele>2.472223</ele>
<time>2026-07-13T09:11:43.000Z</time>
</trkpt>
<trkpt lat="56.258946" lon="8.151964">
<ele>2.481499</ele>
<time>2026-07-13T09:11:44.000Z</time>
</trkpt>
<trkpt lat="56.258957" lon="8.151876">
<ele>2.490352</ele>
<time>2026-07-13T09:11:45.000Z</time>
</trkpt>
<trkpt lat="56.258968" lon="8.151790">
<ele>2.499014</ele>
<time>2026-07-13T09:11:46.000Z</time>
</trkpt>
<trkpt lat="56.258984" lon="8.151705">
<ele>2.507823</ele>
<time>2026-07-13T09:11:47.000Z</time>
</trkpt>
<trkpt lat="56.258995" lon="8.151622">
<ele>2.516198</ele>
<time>2026-07-13T09:11:48.000Z</time>
</trkpt>
<trkpt lat="56.259010" lon="8.151539">
<ele>2.524765</ele>
<time>2026-07-13T09:11:49.000Z</time>
</trkpt>
<trkpt lat="56.259022" lon="8.151460">
<ele>2.532804</ele>
<time>2026-07-13T09:11:50.000Z</time>
</trkpt>
<trkpt lat="56.259037" lon="8.151381">
<ele>2.540998</ele>
<time>2026-07-13T09:11:51.000Z</time>
</trkpt>
<trkpt lat="56.259048" lon="8.151306">
<ele>2.548612</ele>
<time>2026-07-13T09:11:52.000Z</time>
</trkpt>
<trkpt lat="56.259064" lon="8.151232">
<ele>2.556406</ele>
<time>2026-07-13T09:11:53.000Z</time>
</trkpt>
<trkpt lat="56.259079" lon="8.151154">
<ele>2.564508</ele>
<time>2026-07-13T09:11:54.000Z</time>
</trkpt>
<trkpt lat="56.259094" lon="8.151087">
<ele>2.571598</ele>
<time>2026-07-13T09:11:55.000Z</time>
</trkpt>
<trkpt lat="56.259106" lon="8.151029">
<ele>2.577673</ele>
<time>2026-07-13T09:11:56.000Z</time>
</trkpt>
<trkpt lat="56.259117" lon="8.150980">
<ele>2.582860</ele>
<time>2026-07-13T09:11:57.000Z</time>
</trkpt>
<trkpt lat="56.259125" lon="8.150933">
<ele>2.587685</ele>
<time>2026-07-13T09:11:58.000Z</time>
</trkpt>
<trkpt lat="56.259136" lon="8.150880">
<ele>2.593238</ele>
<time>2026-07-13T09:11:59.000Z</time>
</trkpt>
<trkpt lat="56.259140" lon="8.150818">
<ele>2.599364</ele>
<time>2026-07-13T09:12:00.000Z</time>
</trkpt>
<trkpt lat="56.259148" lon="8.150750">
<ele>2.606187</ele>
<time>2026-07-13T09:12:01.000Z</time>
</trkpt>
<trkpt lat="56.259155" lon="8.150675">
<ele>2.613651</ele>
<time>2026-07-13T09:12:02.000Z</time>
</trkpt>
<trkpt lat="56.259163" lon="8.150592">
<ele>2.621920</ele>
<time>2026-07-13T09:12:03.000Z</time>
</trkpt>
<trkpt lat="56.259171" lon="8.150504">
<ele>2.630672</ele>
<time>2026-07-13T09:12:04.000Z</time>
</trkpt>
<trkpt lat="56.259182" lon="8.150418">
<ele>2.639334</ele>
<time>2026-07-13T09:12:05.000Z</time>
</trkpt>
<trkpt lat="56.259193" lon="8.150331">
<ele>2.648091</ele>
<time>2026-07-13T09:12:06.000Z</time>
</trkpt>
<trkpt lat="56.259209" lon="8.150241">
<ele>2.657366</ele>
<time>2026-07-13T09:12:07.000Z</time>
</trkpt>
<trkpt lat="56.259224" lon="8.150153">
<ele>2.666401</ele>
<time>2026-07-13T09:12:08.000Z</time>
</trkpt>
<trkpt lat="56.259243" lon="8.150067">
<ele>2.675485</ele>
<time>2026-07-13T09:12:09.000Z</time>
</trkpt>
<trkpt lat="56.259258" lon="8.149984">
<ele>2.684052</ele>
<time>2026-07-13T09:12:10.000Z</time>
</trkpt>
<trkpt lat="56.259274" lon="8.149904">
<ele>2.692398</ele>
<time>2026-07-13T09:12:11.000Z</time>
</trkpt>
<trkpt lat="56.259293" lon="8.149823">
<ele>2.701028</ele>
<time>2026-07-13T09:12:12.000Z</time>
</trkpt>
<trkpt lat="56.259312" lon="8.149735">
<ele>2.710295</ele>
<time>2026-07-13T09:12:13.000Z</time>
</trkpt>
<trkpt lat="56.259327" lon="8.149644">
<ele>2.719612</ele>
<time>2026-07-13T09:12:14.000Z</time>
</trkpt>
<trkpt lat="56.259342" lon="8.149550">
<ele>2.729211</ele>
<time>2026-07-13T09:12:15.000Z</time>
</trkpt>
<trkpt lat="56.259365" lon="8.149456">
<ele>2.739293</ele>
<time>2026-07-13T09:12:16.000Z</time>
</trkpt>
<trkpt lat="56.259388" lon="8.149366">
<ele>2.749016</ele>
<time>2026-07-13T09:12:17.000Z</time>
</trkpt>
<trkpt lat="56.259411" lon="8.149285">
<ele>2.757945</ele>
<time>2026-07-13T09:12:18.000Z</time>
</trkpt>
<trkpt lat="56.259430" lon="8.149213">
<ele>2.765769</ele>
<time>2026-07-13T09:12:19.000Z</time>
</trkpt>
<trkpt lat="56.259449" lon="8.149139">
<ele>2.773771</ele>
<time>2026-07-13T09:12:20.000Z</time>
</trkpt>
<trkpt lat="56.259464" lon="8.149060">
<ele>2.787131</ele>
<time>2026-07-13T09:12:21.000Z</time>
</trkpt>
<trkpt lat="56.259476" lon="8.148979">
<ele>2.802806</ele>
<time>2026-07-13T09:12:22.000Z</time>
</trkpt>
<trkpt lat="56.259483" lon="8.148897">
<ele>2.818318</ele>
<time>2026-07-13T09:12:23.000Z</time>
</trkpt>
<trkpt lat="56.259499" lon="8.148813">
<ele>2.834923</ele>
<time>2026-07-13T09:12:24.000Z</time>
</trkpt>
<trkpt lat="56.259514" lon="8.148725">
<ele>2.852134</ele>
<time>2026-07-13T09:12:25.000Z</time>
</trkpt>
<trkpt lat="56.259525" lon="8.148637">
<ele>2.869000</ele>
<time>2026-07-13T09:12:26.000Z</time>
</trkpt>
<trkpt lat="56.259544" lon="8.148549">
<ele>2.886654</ele>
<time>2026-07-13T09:12:27.000Z</time>
</trkpt>
<trkpt lat="56.259567" lon="8.148467">
<ele>2.903830</ele>
<time>2026-07-13T09:12:28.000Z</time>
</trkpt>
<trkpt lat="56.259583" lon="8.148382">
<ele>2.920611</ele>
<time>2026-07-13T09:12:29.000Z</time>
</trkpt>
<trkpt lat="56.259594" lon="8.148293">
<ele>2.937659</ele>
<time>2026-07-13T09:12:30.000Z</time>
</trkpt>
<trkpt lat="56.259609" lon="8.148208">
<ele>2.954336</ele>
<time>2026-07-13T09:12:31.000Z</time>
</trkpt>
<trkpt lat="56.259625" lon="8.148128">
<ele>2.970234</ele>
<time>2026-07-13T09:12:32.000Z</time>
</trkpt>
<trkpt lat="56.259636" lon="8.148051">
<ele>2.985100</ele>
<time>2026-07-13T09:12:33.000Z</time>
</trkpt>
<trkpt lat="56.259640" lon="8.147975">
<ele>2.999374</ele>
<time>2026-07-13T09:12:34.000Z</time>
</trkpt>
<trkpt lat="56.259647" lon="8.147898">
<ele>3.013963</ele>
<time>2026-07-13T09:12:35.000Z</time>
</trkpt>
<trkpt lat="56.259659" lon="8.147823">
<ele>3.028557</ele>
<time>2026-07-13T09:12:36.000Z</time>
</trkpt>
<trkpt lat="56.259678" lon="8.147757">
<ele>3.042456</ele>
<time>2026-07-13T09:12:37.000Z</time>
</trkpt>
<trkpt lat="56.259693" lon="8.147695">
<ele>3.055101</ele>
<time>2026-07-13T09:12:38.000Z</time>
</trkpt>
<trkpt lat="56.259708" lon="8.147629">
<ele>3.068435</ele>
<time>2026-07-13T09:12:39.000Z</time>
</trkpt>
<trkpt lat="56.259720" lon="8.147567">
<ele>3.080711</ele>
<time>2026-07-13T09:12:40.000Z</time>
</trkpt>
<trkpt lat="56.259731" lon="8.147504">
<ele>3.093059</ele>
<time>2026-07-13T09:12:41.000Z</time>
</trkpt>
<trkpt lat="56.259739" lon="8.147439">
<ele>3.105508</ele>
<time>2026-07-13T09:12:42.000Z</time>
</trkpt>
<trkpt lat="56.259747" lon="8.147372">
<ele>3.118322</ele>
<time>2026-07-13T09:12:43.000Z</time>
</trkpt>
<trkpt lat="56.259754" lon="8.147301">
<ele>3.131805</ele>
<time>2026-07-13T09:12:44.000Z</time>
</trkpt>
<trkpt lat="56.259766" lon="8.147225">
<ele>3.146578</ele>
<time>2026-07-13T09:12:45.000Z</time>
</trkpt>
<trkpt lat="56.259769" lon="8.147146">
<ele>3.161384</ele>
<time>2026-07-13T09:12:46.000Z</time>
</trkpt>
<trkpt lat="56.259773" lon="8.147059">
<ele>3.177706</ele>
<time>2026-07-13T09:12:47.000Z</time>
</trkpt>
<trkpt lat="56.259773" lon="8.146974">
<ele>3.193600</ele>
<time>2026-07-13T09:12:48.000Z</time>
</trkpt>
<trkpt lat="56.259766" lon="8.146883">
<ele>3.210777</ele>
<time>2026-07-13T09:12:49.000Z</time>
</trkpt>
<trkpt lat="56.259758" lon="8.146786">
<ele>3.229113</ele>
<time>2026-07-13T09:12:50.000Z</time>
</trkpt>
<trkpt lat="56.259747" lon="8.146687">
<ele>3.247991</ele>
<time>2026-07-13T09:12:51.000Z</time>
</trkpt>
<trkpt lat="56.259739" lon="8.146591">
<ele>3.266141</ele>
<time>2026-07-13T09:12:52.000Z</time>
</trkpt>
<trkpt lat="56.259735" lon="8.146492">
<ele>3.284701</ele>
<time>2026-07-13T09:12:53.000Z</time>
</trkpt>
<trkpt lat="56.259735" lon="8.146395">
<ele>3.302838</ele>
<time>2026-07-13T09:12:54.000Z</time>
</trkpt>
<trkpt lat="56.259731" lon="8.146307">
<ele>3.319347</ele>
<time>2026-07-13T09:12:55.000Z</time>
</trkpt>
<trkpt lat="56.259727" lon="8.146219">
<ele>3.335856</ele>
<time>2026-07-13T09:12:56.000Z</time>
</trkpt>
<trkpt lat="56.259727" lon="8.146137">
<ele>3.351189</ele>
<time>2026-07-13T09:12:57.000Z</time>
</trkpt>
<trkpt lat="56.259727" lon="8.146056">
<ele>3.366334</ele>
<time>2026-07-13T09:12:58.000Z</time>
</trkpt>
<trkpt lat="56.259727" lon="8.145979">
<ele>3.380731</ele>
<time>2026-07-13T09:12:59.000Z</time>
</trkpt>
<trkpt lat="56.259727" lon="8.145905">
<ele>3.397498</ele>
<time>2026-07-13T09:13:00.000Z</time>
</trkpt>
<trkpt lat="56.259731" lon="8.145830">
<ele>3.414806</ele>
<time>2026-07-13T09:13:01.000Z</time>
</trkpt>
<trkpt lat="56.259735" lon="8.145748">
<ele>3.433715</ele>
<time>2026-07-13T09:13:02.000Z</time>
</trkpt>
<trkpt lat="56.259731" lon="8.145666">
<ele>3.452624</ele>
<time>2026-07-13T09:13:03.000Z</time>
</trkpt>
<trkpt lat="56.259731" lon="8.145584">
<ele>3.471461</ele>
<time>2026-07-13T09:13:04.000Z</time>
</trkpt>
<trkpt lat="56.259731" lon="8.145502">
<ele>3.490298</ele>
<time>2026-07-13T09:13:05.000Z</time>
</trkpt>
<trkpt lat="56.259727" lon="8.145419">
<ele>3.509436</ele>
<time>2026-07-13T09:13:06.000Z</time>
</trkpt>
<trkpt lat="56.259731" lon="8.145335">
<ele>3.528803</ele>
<time>2026-07-13T09:13:07.000Z</time>
</trkpt>
<trkpt lat="56.259735" lon="8.145255">
<ele>3.547255</ele>
<time>2026-07-13T09:13:08.000Z</time>
</trkpt>
<trkpt lat="56.259739" lon="8.145175">
<ele>3.565707</ele>
<time>2026-07-13T09:13:09.000Z</time>
</trkpt>
<trkpt lat="56.259735" lon="8.145092">
<ele>3.584845</ele>
<time>2026-07-13T09:13:10.000Z</time>
</trkpt>
<trkpt lat="56.259735" lon="8.145008">
<ele>3.604141</ele>
<time>2026-07-13T09:13:11.000Z</time>
</trkpt>
<trkpt lat="56.259731" lon="8.144922">
<ele>3.623966</ele>
<time>2026-07-13T09:13:12.000Z</time>
</trkpt>
<trkpt lat="56.259727" lon="8.144834">
<ele>3.644249</ele>
<time>2026-07-13T09:13:13.000Z</time>
</trkpt>
<trkpt lat="56.259724" lon="8.144745">
<ele>3.664731</ele>
<time>2026-07-13T09:13:14.000Z</time>
</trkpt>
<trkpt lat="56.259720" lon="8.144650">
<ele>3.686617</ele>
<time>2026-07-13T09:13:15.000Z</time>
</trkpt>
<trkpt lat="56.259716" lon="8.144551">
<ele>3.709419</ele>
<time>2026-07-13T09:13:16.000Z</time>
</trkpt>
<trkpt lat="56.259712" lon="8.144450">
<ele>3.732679</ele>
<time>2026-07-13T09:13:17.000Z</time>
</trkpt>
<trkpt lat="56.259708" lon="8.144356">
<ele>3.754336</ele>
<time>2026-07-13T09:13:18.000Z</time>
</trkpt>
<trkpt lat="56.259705" lon="8.144265">
<ele>3.775277</ele>
<time>2026-07-13T09:13:19.000Z</time>
</trkpt>
<trkpt lat="56.259705" lon="8.144176">
<ele>3.795722</ele>
<time>2026-07-13T09:13:20.000Z</time>
</trkpt>
<trkpt lat="56.259705" lon="8.144085">
<ele>3.816626</ele>
<time>2026-07-13T09:13:21.000Z</time>
</trkpt>
<trkpt lat="56.259705" lon="8.144001">
<ele>3.835922</ele>
<time>2026-07-13T09:13:22.000Z</time>
</trkpt>
<trkpt lat="56.259705" lon="8.143916">
<ele>3.855448</ele>
<time>2026-07-13T09:13:23.000Z</time>
</trkpt>
<trkpt lat="56.259705" lon="8.143828">
<ele>3.875664</ele>
<time>2026-07-13T09:13:24.000Z</time>
</trkpt>
<trkpt lat="56.259701" lon="8.143741">
<ele>3.895717</ele>
<time>2026-07-13T09:13:25.000Z</time>
</trkpt>
<trkpt lat="56.259697" lon="8.143651">
<ele>3.916458</ele>
<time>2026-07-13T09:13:26.000Z</time>
</trkpt>
<trkpt lat="56.259693" lon="8.143563">
<ele>3.936741</ele>
<time>2026-07-13T09:13:27.000Z</time>
</trkpt>
<trkpt lat="56.259693" lon="8.143476">
<ele>3.956726</ele>
<time>2026-07-13T09:13:28.000Z</time>
</trkpt>
<trkpt lat="56.259689" lon="8.143388">
<ele>3.977009</ele>
<time>2026-07-13T09:13:29.000Z</time>
</trkpt>
<trkpt lat="56.259686" lon="8.143299">
<ele>3.997491</ele>
<time>2026-07-13T09:13:30.000Z</time>
</trkpt>
<trkpt lat="56.259678" lon="8.143213">
<ele>4.017522</ele>
<time>2026-07-13T09:13:31.000Z</time>
</trkpt>
<trkpt lat="56.259666" lon="8.143134">
<ele>4.036336</ele>
<time>2026-07-13T09:13:32.000Z</time>
</trkpt>
<trkpt lat="56.259647" lon="8.143061">
<ele>4.054855</ele>
<time>2026-07-13T09:13:33.000Z</time>
</trkpt>
<trkpt lat="56.259625" lon="8.142993">
<ele>4.072933</ele>
<time>2026-07-13T09:13:34.000Z</time>
</trkpt>
<trkpt lat="56.259598" lon="8.142926">
<ele>4.091948</ele>
<time>2026-07-13T09:13:35.000Z</time>
</trkpt>
<trkpt lat="56.259567" lon="8.142863">
<ele>4.111283</ele>
<time>2026-07-13T09:13:36.000Z</time>
</trkpt>
<trkpt lat="56.259537" lon="8.142802">
<ele>4.131595</ele>
<time>2026-07-13T09:13:37.000Z</time>
</trkpt>
<trkpt lat="56.259502" lon="8.142741">
<ele>4.159118</ele>
<time>2026-07-13T09:13:38.000Z</time>
</trkpt>
<trkpt lat="56.259468" lon="8.142687">
<ele>4.184734</ele>
<time>2026-07-13T09:13:39.000Z</time>
</trkpt>
<trkpt lat="56.259426" lon="8.142638">
<ele>4.213010</ele>
<time>2026-07-13T09:13:40.000Z</time>
</trkpt>
<trkpt lat="56.259388" lon="8.142591">
<ele>4.239058</ele>
<time>2026-07-13T09:13:41.000Z</time>
</trkpt>
<trkpt lat="56.259346" lon="8.142539">
<ele>4.267857</ele>
<time>2026-07-13T09:13:42.000Z</time>
</trkpt>
<trkpt lat="56.259308" lon="8.142488">
<ele>4.294636</ele>
<time>2026-07-13T09:13:43.000Z</time>
</trkpt>
<trkpt lat="56.259270" lon="8.142436">
<ele>4.321604</ele>
<time>2026-07-13T09:13:44.000Z</time>
</trkpt>
<trkpt lat="56.259232" lon="8.142386">
<ele>4.348196</ele>
<time>2026-07-13T09:13:45.000Z</time>
</trkpt>
<trkpt lat="56.259197" lon="8.142343">
<ele>4.372136</ele>
<time>2026-07-13T09:13:46.000Z</time>
</trkpt>
<trkpt lat="56.259167" lon="8.142305">
<ele>4.392861</ele>
<time>2026-07-13T09:13:47.000Z</time>
</trkpt>
<trkpt lat="56.259136" lon="8.142269">
<ele>4.413703</ele>
<time>2026-07-13T09:13:48.000Z</time>
</trkpt>
<trkpt lat="56.259110" lon="8.142233">
<ele>4.432235</ele>
<time>2026-07-13T09:13:49.000Z</time>
</trkpt>
<trkpt lat="56.259087" lon="8.142180">
<ele>4.453342</ele>
<time>2026-07-13T09:13:50.000Z</time>
</trkpt>
<trkpt lat="56.259075" lon="8.142135">
<ele>4.469007</ele>
<time>2026-07-13T09:13:51.000Z</time>
</trkpt>
<trkpt lat="56.259079" lon="8.142098">
<ele>4.480836</ele>
<time>2026-07-13T09:13:52.000Z</time>
</trkpt>
<trkpt lat="56.259087" lon="8.142029">
<ele>4.502957</ele>
<time>2026-07-13T09:13:53.000Z</time>
</trkpt>
<trkpt lat="56.259098" lon="8.141962">
<ele>4.524882</ele>
<time>2026-07-13T09:13:54.000Z</time>
</trkpt>
<trkpt lat="56.259106" lon="8.141899">
<ele>4.545163</ele>
<time>2026-07-13T09:13:55.000Z</time>
</trkpt>
<trkpt lat="56.259121" lon="8.141842">
<ele>4.564956</ele>
<time>2026-07-13T09:13:56.000Z</time>
</trkpt>
<trkpt lat="56.259140" lon="8.141794">
<ele>4.583453</ele>
<time>2026-07-13T09:13:57.000Z</time>
</trkpt>
<trkpt lat="56.259163" lon="8.141755">
<ele>4.601304</ele>
<time>2026-07-13T09:13:58.000Z</time>
</trkpt>
<trkpt lat="56.259190" lon="8.141728">
<ele>4.618754</ele>
<time>2026-07-13T09:13:59.000Z</time>
</trkpt>
<trkpt lat="56.259220" lon="8.141714">
<ele>4.636264</ele>
<time>2026-07-13T09:14:00.000Z</time>
</trkpt>
<trkpt lat="56.259251" lon="8.141713">
<ele>4.653782</ele>
<time>2026-07-13T09:14:01.000Z</time>
</trkpt>
<trkpt lat="56.259281" lon="8.141720">
<ele>4.670874</ele>
<time>2026-07-13T09:14:02.000Z</time>
</trkpt>
<trkpt lat="56.259312" lon="8.141727">
<ele>4.688526</ele>
<time>2026-07-13T09:14:03.000Z</time>
</trkpt>
<trkpt lat="56.259342" lon="8.141735">
<ele>4.705661</ele>
<time>2026-07-13T09:14:04.000Z</time>
</trkpt>
<trkpt lat="56.259380" lon="8.141748">
<ele>4.727515</ele>
<time>2026-07-13T09:14:05.000Z</time>
</trkpt>
<trkpt lat="56.259418" lon="8.141763">
<ele>4.749494</ele>
<time>2026-07-13T09:14:06.000Z</time>
</trkpt>
<trkpt lat="56.259464" lon="8.141776">
<ele>4.775802</ele>
<time>2026-07-13T09:14:07.000Z</time>
</trkpt>
<trkpt lat="56.259506" lon="8.141788">
<ele>4.799829</ele>
<time>2026-07-13T09:14:08.000Z</time>
</trkpt>
<trkpt lat="56.259556" lon="8.141787">
<ele>4.828081</ele>
<time>2026-07-13T09:14:09.000Z</time>
</trkpt>
<trkpt lat="56.259602" lon="8.141774">
<ele>4.854389</ele>
<time>2026-07-13T09:14:10.000Z</time>
</trkpt>
<trkpt lat="56.259651" lon="8.141757">
<ele>4.882583</ele>
<time>2026-07-13T09:14:11.000Z</time>
</trkpt>
<trkpt lat="56.259701" lon="8.141736">
<ele>4.911591</ele>
<time>2026-07-13T09:14:12.000Z</time>
</trkpt>
<trkpt lat="56.259750" lon="8.141711">
<ele>4.940366</ele>
<time>2026-07-13T09:14:13.000Z</time>
</trkpt>
<trkpt lat="56.259800" lon="8.141683">
<ele>4.969950</ele>
<time>2026-07-13T09:14:14.000Z</time>
</trkpt>
<trkpt lat="56.259846" lon="8.141656">
<ele>4.997286</ele>
<time>2026-07-13T09:14:15.000Z</time>
</trkpt>
<trkpt lat="56.259895" lon="8.141630">
<ele>5.026148</ele>
<time>2026-07-13T09:14:16.000Z</time>
</trkpt>
<trkpt lat="56.259949" lon="8.141606">
<ele>5.057574</ele>
<time>2026-07-13T09:14:17.000Z</time>
</trkpt>
<trkpt lat="56.260002" lon="8.141583">
<ele>5.088376</ele>
<time>2026-07-13T09:14:18.000Z</time>
</trkpt>
<trkpt lat="56.260052" lon="8.141560">
<ele>5.117534</ele>
<time>2026-07-13T09:14:19.000Z</time>
</trkpt>
<trkpt lat="56.260101" lon="8.141542">
<ele>5.144393</ele>
<time>2026-07-13T09:14:20.000Z</time>
</trkpt>
<trkpt lat="56.260147" lon="8.141531">
<ele>5.161283</ele>
<time>2026-07-13T09:14:21.000Z</time>
</trkpt>
<trkpt lat="56.260185" lon="8.141520">
<ele>5.175293</ele>
<time>2026-07-13T09:14:22.000Z</time>
</trkpt>
<trkpt lat="56.260227" lon="8.141514">
<ele>5.190628</ele>
<time>2026-07-13T09:14:23.000Z</time>
</trkpt>
<trkpt lat="56.260269" lon="8.141506">
<ele>5.206001</ele>
<time>2026-07-13T09:14:24.000Z</time>
</trkpt>
<trkpt lat="56.260311" lon="8.141501">
<ele>5.221322</ele>
<time>2026-07-13T09:14:25.000Z</time>
</trkpt>
<trkpt lat="56.260357" lon="8.141498">
<ele>5.238076</ele>
<time>2026-07-13T09:14:26.000Z</time>
</trkpt>
<trkpt lat="56.260399" lon="8.141497">
<ele>5.253365</ele>
<time>2026-07-13T09:14:27.000Z</time>
</trkpt>
<trkpt lat="56.260441" lon="8.141497">
<ele>5.268652</ele>
<time>2026-07-13T09:14:28.000Z</time>
</trkpt>
<trkpt lat="56.260487" lon="8.141497">
<ele>5.285396</ele>
<time>2026-07-13T09:14:29.000Z</time>
</trkpt>
<trkpt lat="56.260532" lon="8.141498">
<ele>5.301777</ele>
<time>2026-07-13T09:14:30.000Z</time>
</trkpt>
<trkpt lat="56.260582" lon="8.141503">
<ele>5.320004</ele>
<time>2026-07-13T09:14:31.000Z</time>
</trkpt>
<trkpt lat="56.260628" lon="8.141511">
<ele>5.336825</ele>
<time>2026-07-13T09:14:32.000Z</time>
</trkpt>
<trkpt lat="56.260674" lon="8.141520">
<ele>5.353667</ele>
<time>2026-07-13T09:14:33.000Z</time>
</trkpt>
<trkpt lat="56.260719" lon="8.141529">
<ele>5.370148</ele>
<time>2026-07-13T09:14:34.000Z</time>
</trkpt>
<trkpt lat="56.260765" lon="8.141536">
<ele>5.386951</ele>
<time>2026-07-13T09:14:35.000Z</time>
</trkpt>
<trkpt lat="56.260811" lon="8.141536">
<ele>5.403694</ele>
<time>2026-07-13T09:14:36.000Z</time>
</trkpt>
<trkpt lat="56.260857" lon="8.141530">
<ele>5.420481</ele>
<time>2026-07-13T09:14:37.000Z</time>
</trkpt>
<trkpt lat="56.260902" lon="8.141522">
<ele>5.436941</ele>
<time>2026-07-13T09:14:38.000Z</time>
</trkpt>
<trkpt lat="56.260948" lon="8.141511">
<ele>5.453831</ele>
<time>2026-07-13T09:14:39.000Z</time>
</trkpt>
<trkpt lat="56.260990" lon="8.141500">
<ele>5.469279</ele>
<time>2026-07-13T09:14:40.000Z</time>
</trkpt>
<trkpt lat="56.261036" lon="8.141491">
<ele>5.486121</ele>
<time>2026-07-13T09:14:41.000Z</time>
</trkpt>
<trkpt lat="56.261078" lon="8.141481">
<ele>5.501542</ele>
<time>2026-07-13T09:14:42.000Z</time>
</trkpt>
<trkpt lat="56.261124" lon="8.141472">
<ele>5.518384</ele>
<time>2026-07-13T09:14:43.000Z</time>
</trkpt>
<trkpt lat="56.261169" lon="8.141464">
<ele>5.534843</ele>
<time>2026-07-13T09:14:44.000Z</time>
</trkpt>
<trkpt lat="56.261211" lon="8.141455">
<ele>5.550238</ele>
<time>2026-07-13T09:14:45.000Z</time>
</trkpt>
<trkpt lat="56.261246" lon="8.141444">
<ele>5.563171</ele>
<time>2026-07-13T09:14:46.000Z</time>
</trkpt>
<trkpt lat="56.261280" lon="8.141436">
<ele>5.575651</ele>
<time>2026-07-13T09:14:47.000Z</time>
</trkpt>
<trkpt lat="56.261314" lon="8.141430">
<ele>5.588086</ele>
<time>2026-07-13T09:14:48.000Z</time>
</trkpt>
<trkpt lat="56.261345" lon="8.141424">
<ele>5.599435</ele>
<time>2026-07-13T09:14:49.000Z</time>
</trkpt>
<trkpt lat="56.261379" lon="8.141417">
<ele>5.611891</ele>
<time>2026-07-13T09:14:50.000Z</time>
</trkpt>
<trkpt lat="56.261414" lon="8.141405">
<ele>5.624860</ele>
<time>2026-07-13T09:14:51.000Z</time>
</trkpt>
<trkpt lat="56.261444" lon="8.141391">
<ele>5.636140</ele>
<time>2026-07-13T09:14:52.000Z</time>
</trkpt>
<trkpt lat="56.261482" lon="8.141373">
<ele>5.650442</ele>
<time>2026-07-13T09:14:53.000Z</time>
</trkpt>
<trkpt lat="56.261517" lon="8.141353">
<ele>5.663808</ele>
<time>2026-07-13T09:14:54.000Z</time>
</trkpt>
<trkpt lat="56.261551" lon="8.141334">
<ele>5.676766</ele>
<time>2026-07-13T09:14:55.000Z</time>
</trkpt>
<trkpt lat="56.261589" lon="8.141312">
<ele>5.691295</ele>
<time>2026-07-13T09:14:56.000Z</time>
</trkpt>
<trkpt lat="56.261635" lon="8.141283">
<ele>5.709035</ele>
<time>2026-07-13T09:14:57.000Z</time>
</trkpt>
<trkpt lat="56.261677" lon="8.141250">
<ele>5.725715</ele>
<time>2026-07-13T09:14:58.000Z</time>
</trkpt>
<trkpt lat="56.261719" lon="8.141219">
<ele>5.742237</ele>
<time>2026-07-13T09:14:59.000Z</time>
</trkpt>
<trkpt lat="56.261757" lon="8.141189">
<ele>5.757340</ele>
<time>2026-07-13T09:15:00.000Z</time>
</trkpt>
<trkpt lat="56.261799" lon="8.141157">
<ele>5.773940</ele>
<time>2026-07-13T09:15:01.000Z</time>
</trkpt>
<trkpt lat="56.261841" lon="8.141122">
<ele>5.790785</ele>
<time>2026-07-13T09:15:02.000Z</time>
</trkpt>
<trkpt lat="56.261887" lon="8.141087">
<ele>5.789529</ele>
<time>2026-07-13T09:15:03.000Z</time>
</trkpt>
<trkpt lat="56.261929" lon="8.141053">
<ele>5.780050</ele>
<time>2026-07-13T09:15:04.000Z</time>
</trkpt>
<trkpt lat="56.261974" lon="8.141019">
<ele>5.770004</ele>
<time>2026-07-13T09:15:05.000Z</time>
</trkpt>
<trkpt lat="56.262020" lon="8.140985">
<ele>5.759768</ele>
<time>2026-07-13T09:15:06.000Z</time>
</trkpt>
<trkpt lat="56.262062" lon="8.140956">
<ele>5.750509</ele>
<time>2026-07-13T09:15:07.000Z</time>
</trkpt>
<trkpt lat="56.262108" lon="8.140930">
<ele>5.740584</ele>
<time>2026-07-13T09:15:08.000Z</time>
</trkpt>
<trkpt lat="56.262154" lon="8.140908">
<ele>5.730787</ele>
<time>2026-07-13T09:15:09.000Z</time>
</trkpt>
<trkpt lat="56.262192" lon="8.140887">
<ele>5.722604</ele>
<time>2026-07-13T09:15:10.000Z</time>
</trkpt>
<trkpt lat="56.262230" lon="8.140865">
<ele>5.714388</ele>
<time>2026-07-13T09:15:11.000Z</time>
</trkpt>
<trkpt lat="56.262268" lon="8.140845">
<ele>5.706238</ele>
<time>2026-07-13T09:15:12.000Z</time>
</trkpt>
<trkpt lat="56.262306" lon="8.140827">
<ele>5.698150</ele>
<time>2026-07-13T09:15:13.000Z</time>
</trkpt>
<trkpt lat="56.262344" lon="8.140811">
<ele>5.690116</ele>
<time>2026-07-13T09:15:14.000Z</time>
</trkpt>
<trkpt lat="56.262379" lon="8.140796">
<ele>5.682710</ele>
<time>2026-07-13T09:15:15.000Z</time>
</trkpt>
<trkpt lat="56.262413" lon="8.140784">
<ele>5.675578</ele>
<time>2026-07-13T09:15:16.000Z</time>
</trkpt>
<trkpt lat="56.262447" lon="8.140777">
<ele>5.668534</ele>
<time>2026-07-13T09:15:17.000Z</time>
</trkpt>
<trkpt lat="56.262478" lon="8.140771">
<ele>5.662116</ele>
<time>2026-07-13T09:15:18.000Z</time>
</trkpt>
<trkpt lat="56.262516" lon="8.140760">
<ele>5.654193</ele>
<time>2026-07-13T09:15:19.000Z</time>
</trkpt>
<trkpt lat="56.262550" lon="8.140744">
<ele>5.646959</ele>
<time>2026-07-13T09:15:20.000Z</time>
</trkpt>
<trkpt lat="56.262585" lon="8.140729">
<ele>5.639553</ele>
<time>2026-07-13T09:15:21.000Z</time>
</trkpt>
<trkpt lat="56.262623" lon="8.140717">
<ele>5.631611</ele>
<time>2026-07-13T09:15:22.000Z</time>
</trkpt>
<trkpt lat="56.262669" lon="8.140702">
<ele>5.621988</ele>
<time>2026-07-13T09:15:23.000Z</time>
</trkpt>
<trkpt lat="56.262718" lon="8.140688">
<ele>5.611775</ele>
<time>2026-07-13T09:15:24.000Z</time>
</trkpt>
<trkpt lat="56.262768" lon="8.140673">
<ele>5.601341</ele>
<time>2026-07-13T09:15:25.000Z</time>
</trkpt>
<trkpt lat="56.262821" lon="8.140656">
<ele>5.590259</ele>
<time>2026-07-13T09:15:26.000Z</time>
</trkpt>
<trkpt lat="56.262871" lon="8.140638">
<ele>5.579763</ele>
<time>2026-07-13T09:15:27.000Z</time>
</trkpt>
<trkpt lat="56.262928" lon="8.140616">
<ele>5.567763</ele>
<time>2026-07-13T09:15:28.000Z</time>
</trkpt>
<trkpt lat="56.262985" lon="8.140590">
<ele>5.555659</ele>
<time>2026-07-13T09:15:29.000Z</time>
</trkpt>
<trkpt lat="56.263046" lon="8.140565">
<ele>5.542781</ele>
<time>2026-07-13T09:15:30.000Z</time>
</trkpt>
<trkpt lat="56.263104" lon="8.140544">
<ele>5.530603</ele>
<time>2026-07-13T09:15:31.000Z</time>
</trkpt>
<trkpt lat="56.263161" lon="8.140526">
<ele>5.518690</ele>
<time>2026-07-13T09:15:32.000Z</time>
</trkpt>
<trkpt lat="56.263214" lon="8.140511">
<ele>5.507647</ele>
<time>2026-07-13T09:15:33.000Z</time>
</trkpt>
<trkpt lat="56.263268" lon="8.140501">
<ele>5.496472</ele>
<time>2026-07-13T09:15:34.000Z</time>
</trkpt>
<trkpt lat="56.263321" lon="8.140495">
<ele>5.485540</ele>
<time>2026-07-13T09:15:35.000Z</time>
</trkpt>
<trkpt lat="56.263378" lon="8.140491">
<ele>5.473798</ele>
<time>2026-07-13T09:15:36.000Z</time>
</trkpt>
<trkpt lat="56.263435" lon="8.140494">
<ele>5.462060</ele>
<time>2026-07-13T09:15:37.000Z</time>
</trkpt>
<trkpt lat="56.263489" lon="8.140501">
<ele>5.450915</ele>
<time>2026-07-13T09:15:38.000Z</time>
</trkpt>
<trkpt lat="56.263542" lon="8.140511">
<ele>5.439945</ele>
<time>2026-07-13T09:15:39.000Z</time>
</trkpt>
<trkpt lat="56.263596" lon="8.140520">
<ele>5.428782</ele>
<time>2026-07-13T09:15:40.000Z</time>
</trkpt>
<trkpt lat="56.263649" lon="8.140530">
<ele>5.447918</ele>
<time>2026-07-13T09:15:41.000Z</time>
</trkpt>
<trkpt lat="56.263702" lon="8.140536">
<ele>5.475759</ele>
<time>2026-07-13T09:15:42.000Z</time>
</trkpt>
<trkpt lat="56.263752" lon="8.140541">
<ele>5.502014</ele>
<time>2026-07-13T09:15:43.000Z</time>
</trkpt>
<trkpt lat="56.263805" lon="8.140544">
<ele>5.529814</ele>
<time>2026-07-13T09:15:44.000Z</time>
</trkpt>
<trkpt lat="56.263859" lon="8.140546">
<ele>5.558131</ele>
<time>2026-07-13T09:15:45.000Z</time>
</trkpt>
<trkpt lat="56.263908" lon="8.140544">
<ele>5.583827</ele>
<time>2026-07-13T09:15:46.000Z</time>
</trkpt>
<trkpt lat="56.263958" lon="8.140540">
<ele>5.610066</ele>
<time>2026-07-13T09:15:47.000Z</time>
</trkpt>
<trkpt lat="56.264008" lon="8.140534">
<ele>5.636338</ele>
<time>2026-07-13T09:15:48.000Z</time>
</trkpt>
<trkpt lat="56.264061" lon="8.140529">
<ele>5.664163</ele>
<time>2026-07-13T09:15:49.000Z</time>
</trkpt>
<trkpt lat="56.264111" lon="8.140520">
<ele>5.690507</ele>
<time>2026-07-13T09:15:50.000Z</time>
</trkpt>
<trkpt lat="56.264164" lon="8.140511">
<ele>5.718417</ele>
<time>2026-07-13T09:15:51.000Z</time>
</trkpt>
<trkpt lat="56.264210" lon="8.140495">
<ele>5.742979</ele>
<time>2026-07-13T09:15:52.000Z</time>
</trkpt>
<trkpt lat="56.264259" lon="8.140475">
<ele>5.769320</ele>
<time>2026-07-13T09:15:53.000Z</time>
</trkpt>
<trkpt lat="56.264305" lon="8.140453">
<ele>5.794273</ele>
<time>2026-07-13T09:15:54.000Z</time>
</trkpt>
<trkpt lat="56.264355" lon="8.140429">
<ele>5.821402</ele>
<time>2026-07-13T09:15:55.000Z</time>
</trkpt>
<trkpt lat="56.264400" lon="8.140401">
<ele>5.846363</ele>
<time>2026-07-13T09:15:56.000Z</time>
</trkpt>
<trkpt lat="56.264446" lon="8.140372">
<ele>5.871915</ele>
<time>2026-07-13T09:15:57.000Z</time>
</trkpt>
<trkpt lat="56.264492" lon="8.140344">
<ele>5.897373</ele>
<time>2026-07-13T09:15:58.000Z</time>
</trkpt>
<trkpt lat="56.264538" lon="8.140313">
<ele>5.923123</ele>
<time>2026-07-13T09:15:59.000Z</time>
</trkpt>
<trkpt lat="56.264584" lon="8.140281">
<ele>5.948977</ele>
<time>2026-07-13T09:16:00.000Z</time>
</trkpt>
<trkpt lat="56.264626" lon="8.140245">
<ele>5.973364</ele>
<time>2026-07-13T09:16:01.000Z</time>
</trkpt>
<trkpt lat="56.264671" lon="8.140205">
<ele>5.999674</ele>
<time>2026-07-13T09:16:02.000Z</time>
</trkpt>
<trkpt lat="56.264713" lon="8.140163">
<ele>6.024862</ele>
<time>2026-07-13T09:16:03.000Z</time>
</trkpt>
<trkpt lat="56.264755" lon="8.140116">
<ele>6.050787</ele>
<time>2026-07-13T09:16:04.000Z</time>
</trkpt>
<trkpt lat="56.264797" lon="8.140064">
<ele>6.077509</ele>
<time>2026-07-13T09:16:05.000Z</time>
</trkpt>
<trkpt lat="56.264839" lon="8.140009">
<ele>6.104736</ele>
<time>2026-07-13T09:16:06.000Z</time>
</trkpt>
<trkpt lat="56.264877" lon="8.139952">
<ele>6.130665</ele>
<time>2026-07-13T09:16:07.000Z</time>
</trkpt>
<trkpt lat="56.264915" lon="8.139893">
<ele>6.156971</ele>
<time>2026-07-13T09:16:08.000Z</time>
</trkpt>
<trkpt lat="56.264954" lon="8.139833">
<ele>6.183864</ele>
<time>2026-07-13T09:16:09.000Z</time>
</trkpt>
<trkpt lat="56.264992" lon="8.139775">
<ele>6.209981</ele>
<time>2026-07-13T09:16:10.000Z</time>
</trkpt>
<trkpt lat="56.265026" lon="8.139717">
<ele>6.234535</ele>
<time>2026-07-13T09:16:11.000Z</time>
</trkpt>
<trkpt lat="56.265060" lon="8.139659">
<ele>6.259090</ele>
<time>2026-07-13T09:16:12.000Z</time>
</trkpt>
<trkpt lat="56.265083" lon="8.139601">
<ele>6.279840</ele>
<time>2026-07-13T09:16:13.000Z</time>
</trkpt>
<trkpt lat="56.265110" lon="8.139548">
<ele>6.300780</ele>
<time>2026-07-13T09:16:14.000Z</time>
</trkpt>
<trkpt lat="56.265137" lon="8.139501">
<ele>6.320469</ele>
<time>2026-07-13T09:16:15.000Z</time>
</trkpt>
<trkpt lat="56.265167" lon="8.139456">
<ele>6.340939</ele>
<time>2026-07-13T09:16:16.000Z</time>
</trkpt>
<trkpt lat="56.265198" lon="8.139411">
<ele>6.361815</ele>
<time>2026-07-13T09:16:17.000Z</time>
</trkpt>
<trkpt lat="56.265232" lon="8.139368">
<ele>6.370670</ele>
<time>2026-07-13T09:16:18.000Z</time>
</trkpt>
<trkpt lat="56.265270" lon="8.139325">
<ele>6.372951</ele>
<time>2026-07-13T09:16:19.000Z</time>
</trkpt>
<trkpt lat="56.265312" lon="8.139281">
<ele>6.375421</ele>
<time>2026-07-13T09:16:20.000Z</time>
</trkpt>
<trkpt lat="56.265350" lon="8.139235">
<ele>6.377748</ele>
<time>2026-07-13T09:16:21.000Z</time>
</trkpt>
<trkpt lat="56.265396" lon="8.139186">
<ele>6.380464</ele>
<time>2026-07-13T09:16:22.000Z</time>
</trkpt>
<trkpt lat="56.265438" lon="8.139133">
<ele>6.383071</ele>
<time>2026-07-13T09:16:23.000Z</time>
</trkpt>
<trkpt lat="56.265484" lon="8.139080">
<ele>6.385847</ele>
<time>2026-07-13T09:16:24.000Z</time>
</trkpt>
<trkpt lat="56.265530" lon="8.139027">
<ele>6.388622</ele>
<time>2026-07-13T09:16:25.000Z</time>
</trkpt>
<trkpt lat="56.265575" lon="8.138975">
<ele>6.391340</ele>
<time>2026-07-13T09:16:26.000Z</time>
</trkpt>
<trkpt lat="56.265617" lon="8.138925">
<ele>6.393899</ele>
<time>2026-07-13T09:16:27.000Z</time>
</trkpt>
<trkpt lat="56.265656" lon="8.138876">
<ele>6.396316</ele>
<time>2026-07-13T09:16:28.000Z</time>
</trkpt>
<trkpt lat="56.265690" lon="8.138831">
<ele>6.398461</ele>
<time>2026-07-13T09:16:29.000Z</time>
</trkpt>
<trkpt lat="56.265720" lon="8.138791">
<ele>6.400358</ele>
<time>2026-07-13T09:16:30.000Z</time>
</trkpt>
<trkpt lat="56.265766" lon="8.138736">
<ele>6.403164</ele>
<time>2026-07-13T09:16:31.000Z</time>
</trkpt>
<trkpt lat="56.265800" lon="8.138692">
<ele>6.405292</ele>
<time>2026-07-13T09:16:32.000Z</time>
</trkpt>
<trkpt lat="56.265839" lon="8.138647">
<ele>6.407647</ele>
<time>2026-07-13T09:16:33.000Z</time>
</trkpt>
<trkpt lat="56.265873" lon="8.138603">
<ele>6.409775</ele>
<time>2026-07-13T09:16:34.000Z</time>
</trkpt>
<trkpt lat="56.265911" lon="8.138559">
<ele>6.412071</ele>
<time>2026-07-13T09:16:35.000Z</time>
</trkpt>
<trkpt lat="56.265953" lon="8.138512">
<ele>6.414584</ele>
<time>2026-07-13T09:16:36.000Z</time>
</trkpt>
<trkpt lat="56.265991" lon="8.138466">
<ele>6.416911</ele>
<time>2026-07-13T09:16:37.000Z</time>
</trkpt>
<trkpt lat="56.266029" lon="8.138418">
<ele>6.419270</ele>
<time>2026-07-13T09:16:38.000Z</time>
</trkpt>
<trkpt lat="56.266064" lon="8.138370">
<ele>6.421507</ele>
<time>2026-07-13T09:16:39.000Z</time>
</trkpt>
<trkpt lat="56.266098" lon="8.138324">
<ele>6.423668</ele>
<time>2026-07-13T09:16:40.000Z</time>
</trkpt>
<trkpt lat="56.266140" lon="8.138277">
<ele>6.426181</ele>
<time>2026-07-13T09:16:41.000Z</time>
</trkpt>
<trkpt lat="56.266174" lon="8.138233">
<ele>6.428309</ele>
<time>2026-07-13T09:16:42.000Z</time>
</trkpt>
<trkpt lat="56.266212" lon="8.138189">
<ele>6.430606</ele>
<time>2026-07-13T09:16:43.000Z</time>
</trkpt>
<trkpt lat="56.266251" lon="8.138139">
<ele>6.433039</ele>
<time>2026-07-13T09:16:44.000Z</time>
</trkpt>
<trkpt lat="56.266289" lon="8.138094">
<ele>6.435350</ele>
<time>2026-07-13T09:16:45.000Z</time>
</trkpt>
<trkpt lat="56.266327" lon="8.138046">
<ele>6.437710</ele>
<time>2026-07-13T09:16:46.000Z</time>
</trkpt>
<trkpt lat="56.266365" lon="8.137998">
<ele>6.440069</ele>
<time>2026-07-13T09:16:47.000Z</time>
</trkpt>
<trkpt lat="56.266399" lon="8.137952">
<ele>6.442230</ele>
<time>2026-07-13T09:16:48.000Z</time>
</trkpt>
<trkpt lat="56.266434" lon="8.137905">
<ele>6.444449</ele>
<time>2026-07-13T09:16:49.000Z</time>
</trkpt>
<trkpt lat="56.266468" lon="8.137864">
<ele>6.446529</ele>
<time>2026-07-13T09:16:50.000Z</time>
</trkpt>
<trkpt lat="56.266499" lon="8.137823">
<ele>6.448484</ele>
<time>2026-07-13T09:16:51.000Z</time>
</trkpt>
<trkpt lat="56.266533" lon="8.137785">
<ele>6.450518</ele>
<time>2026-07-13T09:16:52.000Z</time>
</trkpt>
<trkpt lat="56.266567" lon="8.137751">
<ele>6.452495</ele>
<time>2026-07-13T09:16:53.000Z</time>
</trkpt>
<trkpt lat="56.266602" lon="8.137715">
<ele>6.454543</ele>
<time>2026-07-13T09:16:54.000Z</time>
</trkpt>
<trkpt lat="56.266636" lon="8.137677">
<ele>6.456577</ele>
<time>2026-07-13T09:16:55.000Z</time>
</trkpt>
<trkpt lat="56.266674" lon="8.137639">
<ele>6.458786</ele>
<time>2026-07-13T09:16:56.000Z</time>
</trkpt>
<trkpt lat="56.266712" lon="8.137597">
<ele>6.459325</ele>
<time>2026-07-13T09:16:57.000Z</time>
</trkpt>
<trkpt lat="56.266747" lon="8.137554">
<ele>6.450946</ele>
<time>2026-07-13T09:16:58.000Z</time>
</trkpt>
<trkpt lat="56.266785" lon="8.137510">
<ele>6.442011</ele>
<time>2026-07-13T09:16:59.000Z</time>
</trkpt>
<trkpt lat="56.266823" lon="8.137464">
<ele>6.432955</ele>
<time>2026-07-13T09:17:00.000Z</time>
</trkpt>
<trkpt lat="56.266861" lon="8.137416">
<ele>6.423775</ele>
<time>2026-07-13T09:17:01.000Z</time>
</trkpt>
<trkpt lat="56.266899" lon="8.137366">
<ele>6.414467</ele>
<time>2026-07-13T09:17:02.000Z</time>
</trkpt>
<trkpt lat="56.266941" lon="8.137313">
<ele>6.404325</ele>
<time>2026-07-13T09:17:03.000Z</time>
</trkpt>
<trkpt lat="56.266979" lon="8.137254">
<ele>6.394402</ele>
<time>2026-07-13T09:17:04.000Z</time>
</trkpt>
<trkpt lat="56.267017" lon="8.137195">
<ele>6.384478</ele>
<time>2026-07-13T09:17:05.000Z</time>
</trkpt>
<trkpt lat="56.267059" lon="8.137139">
<ele>6.374143</ele>
<time>2026-07-13T09:17:06.000Z</time>
</trkpt>
<trkpt lat="56.267101" lon="8.137087">
<ele>6.364063</ele>
<time>2026-07-13T09:17:07.000Z</time>
</trkpt>
<trkpt lat="56.267143" lon="8.137037">
<ele>6.354105</ele>
<time>2026-07-13T09:17:08.000Z</time>
</trkpt>
<trkpt lat="56.267178" lon="8.136987">
<ele>6.345270</ele>
<time>2026-07-13T09:17:09.000Z</time>
</trkpt>
<trkpt lat="56.267216" lon="8.136937">
<ele>6.335962</ele>
<time>2026-07-13T09:17:10.000Z</time>
</trkpt>
<trkpt lat="56.267254" lon="8.136888">
<ele>6.326719</ele>
<time>2026-07-13T09:17:11.000Z</time>
</trkpt>
<trkpt lat="56.267288" lon="8.136842">
<ele>6.318308</ele>
<time>2026-07-13T09:17:12.000Z</time>
</trkpt>
<trkpt lat="56.267323" lon="8.136797">
<ele>6.309803</ele>
<time>2026-07-13T09:17:13.000Z</time>
</trkpt>
<trkpt lat="56.267357" lon="8.136752">
<ele>6.301458</ele>
<time>2026-07-13T09:17:14.000Z</time>
</trkpt>
<trkpt lat="56.267395" lon="8.136708">
<ele>6.292523</ele>
<time>2026-07-13T09:17:15.000Z</time>
</trkpt>
<trkpt lat="56.267433" lon="8.136669">
<ele>6.283873</ele>
<time>2026-07-13T09:17:16.000Z</time>
</trkpt>
<trkpt lat="56.267471" lon="8.136633">
<ele>6.275381</ele>
<time>2026-07-13T09:17:17.000Z</time>
</trkpt>
<trkpt lat="56.267513" lon="8.136600">
<ele>6.266318</ele>
<time>2026-07-13T09:17:18.000Z</time>
</trkpt>
<trkpt lat="56.267551" lon="8.136572">
<ele>6.258198</ele>
<time>2026-07-13T09:17:19.000Z</time>
</trkpt>
<trkpt lat="56.267593" lon="8.136551">
<ele>6.249578</ele>
<time>2026-07-13T09:17:20.000Z</time>
</trkpt>
<trkpt lat="56.267639" lon="8.136534">
<ele>6.240291</ele>
<time>2026-07-13T09:17:21.000Z</time>
</trkpt>
<trkpt lat="56.267689" lon="8.136520">
<ele>6.230283</ele>
<time>2026-07-13T09:17:22.000Z</time>
</trkpt>
<trkpt lat="56.267731" lon="8.136516">
<ele>6.221965</ele>
<time>2026-07-13T09:17:23.000Z</time>
</trkpt>
<trkpt lat="56.267773" lon="8.136514">
<ele>6.213656</ele>
<time>2026-07-13T09:17:24.000Z</time>
</trkpt>
<trkpt lat="56.267815" lon="8.136511">
<ele>6.205343</ele>
<time>2026-07-13T09:17:25.000Z</time>
</trkpt>
<trkpt lat="56.267857" lon="8.136510">
<ele>6.197036</ele>
<time>2026-07-13T09:17:26.000Z</time>
</trkpt>
<trkpt lat="56.267902" lon="8.136510">
<ele>6.188136</ele>
<time>2026-07-13T09:17:27.000Z</time>
</trkpt>
<trkpt lat="56.267948" lon="8.136510">
<ele>6.179039</ele>
<time>2026-07-13T09:17:28.000Z</time>
</trkpt>
<trkpt lat="56.267990" lon="8.136509">
<ele>6.170732</ele>
<time>2026-07-13T09:17:29.000Z</time>
</trkpt>
<trkpt lat="56.268036" lon="8.136509">
<ele>6.161634</ele>
<time>2026-07-13T09:17:30.000Z</time>
</trkpt>
<trkpt lat="56.268078" lon="8.136511">
<ele>6.153325</ele>
<time>2026-07-13T09:17:31.000Z</time>
</trkpt>
<trkpt lat="56.268124" lon="8.136515">
<ele>6.144217</ele>
<time>2026-07-13T09:17:32.000Z</time>
</trkpt>
<trkpt lat="56.268166" lon="8.136519">
<ele>6.135899</ele>
<time>2026-07-13T09:17:33.000Z</time>
</trkpt>
<trkpt lat="56.268208" lon="8.136523">
<ele>6.127581</ele>
<time>2026-07-13T09:17:34.000Z</time>
</trkpt>
<trkpt lat="56.268249" lon="8.136531">
<ele>6.119425</ele>
<time>2026-07-13T09:17:35.000Z</time>
</trkpt>
<trkpt lat="56.268291" lon="8.136539">
<ele>6.111072</ele>
<time>2026-07-13T09:17:36.000Z</time>
</trkpt>
<trkpt lat="56.268333" lon="8.136550">
<ele>6.107152</ele>
<time>2026-07-13T09:17:37.000Z</time>
</trkpt>
<trkpt lat="56.268375" lon="8.136565">
<ele>6.115141</ele>
<time>2026-07-13T09:17:38.000Z</time>
</trkpt>
<trkpt lat="56.268417" lon="8.136584">
<ele>6.123220</ele>
<time>2026-07-13T09:17:39.000Z</time>
</trkpt>
<trkpt lat="56.268459" lon="8.136606">
<ele>6.131381</ele>
<time>2026-07-13T09:17:40.000Z</time>
</trkpt>
<trkpt lat="56.268501" lon="8.136629">
<ele>6.139572</ele>
<time>2026-07-13T09:17:41.000Z</time>
</trkpt>
<trkpt lat="56.268547" lon="8.136653">
<ele>6.148508</ele>
<time>2026-07-13T09:17:42.000Z</time>
</trkpt>
<trkpt lat="56.268585" lon="8.136674">
<ele>6.155924</ele>
<time>2026-07-13T09:17:43.000Z</time>
</trkpt>
<trkpt lat="56.268627" lon="8.136695">
<ele>6.164057</ele>
<time>2026-07-13T09:17:44.000Z</time>
</trkpt>
<trkpt lat="56.268665" lon="8.136713">
<ele>6.171388</ele>
<time>2026-07-13T09:17:45.000Z</time>
</trkpt>
<trkpt lat="56.268707" lon="8.136732">
<ele>6.179468</ele>
<time>2026-07-13T09:17:46.000Z</time>
</trkpt>
<trkpt lat="56.268749" lon="8.136750">
<ele>6.187523</ele>
<time>2026-07-13T09:17:47.000Z</time>
</trkpt>
<trkpt lat="56.268791" lon="8.136768">
<ele>6.195578</ele>
<time>2026-07-13T09:17:48.000Z</time>
</trkpt>
<trkpt lat="56.268829" lon="8.136786">
<ele>6.202909</ele>
<time>2026-07-13T09:17:49.000Z</time>
</trkpt>
<trkpt lat="56.268871" lon="8.136804">
<ele>6.210964</ele>
<time>2026-07-13T09:17:50.000Z</time>
</trkpt>
<trkpt lat="56.268909" lon="8.136821">
<ele>6.218270</ele>
<time>2026-07-13T09:17:51.000Z</time>
</trkpt>
<trkpt lat="56.268951" lon="8.136836">
<ele>6.226259</ele>
<time>2026-07-13T09:17:52.000Z</time>
</trkpt>
<trkpt lat="56.268993" lon="8.136853">
<ele>6.234291</ele>
<time>2026-07-13T09:17:53.000Z</time>
</trkpt>
<trkpt lat="56.269032" lon="8.136870">
<ele>6.241777</ele>
<time>2026-07-13T09:17:54.000Z</time>
</trkpt>
<trkpt lat="56.269074" lon="8.136888">
<ele>6.249833</ele>
<time>2026-07-13T09:17:55.000Z</time>
</trkpt>
<trkpt lat="56.269115" lon="8.136902">
<ele>6.257619</ele>
<time>2026-07-13T09:17:56.000Z</time>
</trkpt>
<trkpt lat="56.269157" lon="8.136916">
<ele>6.265588</ele>
<time>2026-07-13T09:17:57.000Z</time>
</trkpt>
<trkpt lat="56.269199" lon="8.136929">
<ele>6.273539</ele>
<time>2026-07-13T09:17:58.000Z</time>
</trkpt>
<trkpt lat="56.269241" lon="8.136939">
<ele>6.281444</ele>
<time>2026-07-13T09:17:59.000Z</time>
</trkpt>
<trkpt lat="56.269283" lon="8.136946">
<ele>6.289314</ele>
<time>2026-07-13T09:18:00.000Z</time>
</trkpt>
<trkpt lat="56.269321" lon="8.136952">
<ele>6.296431</ele>
<time>2026-07-13T09:18:01.000Z</time>
</trkpt>
<trkpt lat="56.269371" lon="8.136954">
<ele>6.305762</ele>
<time>2026-07-13T09:18:02.000Z</time>
</trkpt>
<trkpt lat="56.269413" lon="8.136956">
<ele>6.313601</ele>
<time>2026-07-13T09:18:03.000Z</time>
</trkpt>
<trkpt lat="56.269455" lon="8.136956">
<ele>6.321437</ele>
<time>2026-07-13T09:18:04.000Z</time>
</trkpt>
<trkpt lat="56.269497" lon="8.136957">
<ele>6.329274</ele>
<time>2026-07-13T09:18:05.000Z</time>
</trkpt>
<trkpt lat="56.269543" lon="8.136959">
<ele>6.337859</ele>
<time>2026-07-13T09:18:06.000Z</time>
</trkpt>
<trkpt lat="56.269589" lon="8.136961">
<ele>6.346445</ele>
<time>2026-07-13T09:18:07.000Z</time>
</trkpt>
<trkpt lat="56.269634" lon="8.136963">
<ele>6.354843</ele>
<time>2026-07-13T09:18:08.000Z</time>
</trkpt>
<trkpt lat="56.269676" lon="8.136964">
<ele>6.362680</ele>
<time>2026-07-13T09:18:09.000Z</time>
</trkpt>
<trkpt lat="56.269722" lon="8.136964">
<ele>6.371263</ele>
<time>2026-07-13T09:18:10.000Z</time>
</trkpt>
<trkpt lat="56.269764" lon="8.136962">
<ele>6.379102</ele>
<time>2026-07-13T09:18:11.000Z</time>
</trkpt>
<trkpt lat="56.269810" lon="8.136952">
<ele>6.387747</ele>
<time>2026-07-13T09:18:12.000Z</time>
</trkpt>
<trkpt lat="56.269852" lon="8.136933">
<ele>6.395827</ele>
<time>2026-07-13T09:18:13.000Z</time>
</trkpt>
<trkpt lat="56.269890" lon="8.136904">
<ele>6.403527</ele>
<time>2026-07-13T09:18:14.000Z</time>
</trkpt>
<trkpt lat="56.269928" lon="8.136868">
<ele>6.411538</ele>
<time>2026-07-13T09:18:15.000Z</time>
</trkpt>
<trkpt lat="56.269970" lon="8.136823">
<ele>6.420656</ele>
<time>2026-07-13T09:18:16.000Z</time>
</trkpt>
<trkpt lat="56.270004" lon="8.136778">
<ele>6.428529</ele>
<time>2026-07-13T09:18:17.000Z</time>
</trkpt>
<trkpt lat="56.270046" lon="8.136728">
<ele>6.437923</ele>
<time>2026-07-13T09:18:18.000Z</time>
</trkpt>
<trkpt lat="56.270084" lon="8.136678">
<ele>6.443930</ele>
<time>2026-07-13T09:18:19.000Z</time>
</trkpt>
<trkpt lat="56.270123" lon="8.136626">
<ele>6.448890</ele>
<time>2026-07-13T09:18:20.000Z</time>
</trkpt>
<trkpt lat="56.270161" lon="8.136574">
<ele>6.453768</ele>
<time>2026-07-13T09:18:21.000Z</time>
</trkpt>
<trkpt lat="56.270199" lon="8.136522">
<ele>6.458647</ele>
<time>2026-07-13T09:18:22.000Z</time>
</trkpt>
<trkpt lat="56.270233" lon="8.136471">
<ele>6.463170</ele>
<time>2026-07-13T09:18:23.000Z</time>
</trkpt>
<trkpt lat="56.270271" lon="8.136421">
<ele>6.467980</ele>
<time>2026-07-13T09:18:24.000Z</time>
</trkpt>
<trkpt lat="56.270313" lon="8.136371">
<ele>6.473126</ele>
<time>2026-07-13T09:18:25.000Z</time>
</trkpt>
<trkpt lat="56.270355" lon="8.136315">
<ele>6.478468</ele>
<time>2026-07-13T09:18:26.000Z</time>
</trkpt>
<trkpt lat="56.270390" lon="8.136264">
<ele>6.483070</ele>
<time>2026-07-13T09:18:27.000Z</time>
</trkpt>
<trkpt lat="56.270424" lon="8.136212">
<ele>6.487629</ele>
<time>2026-07-13T09:18:28.000Z</time>
</trkpt>
<trkpt lat="56.270462" lon="8.136159">
<ele>6.492542</ele>
<time>2026-07-13T09:18:29.000Z</time>
</trkpt>
<trkpt lat="56.270496" lon="8.136104">
<ele>6.497214</ele>
<time>2026-07-13T09:18:30.000Z</time>
</trkpt>
<trkpt lat="56.270534" lon="8.136048">
<ele>6.502233</ele>
<time>2026-07-13T09:18:31.000Z</time>
</trkpt>
<trkpt lat="56.270569" lon="8.135992">
<ele>6.507018</ele>
<time>2026-07-13T09:18:32.000Z</time>
</trkpt>
<trkpt lat="56.270603" lon="8.135936">
<ele>6.511728</ele>
<time>2026-07-13T09:18:33.000Z</time>
</trkpt>
<trkpt lat="56.270641" lon="8.135881">
<ele>6.516711</ele>
<time>2026-07-13T09:18:34.000Z</time>
</trkpt>
<trkpt lat="56.270676" lon="8.135826">
<ele>6.521459</ele>
<time>2026-07-13T09:18:35.000Z</time>
</trkpt>
<trkpt lat="56.270714" lon="8.135772">
<ele>6.526407</ele>
<time>2026-07-13T09:18:36.000Z</time>
</trkpt>
<trkpt lat="56.270752" lon="8.135716">
<ele>6.531426</ele>
<time>2026-07-13T09:18:37.000Z</time>
</trkpt>
<trkpt lat="56.270790" lon="8.135664">
<ele>6.536304</ele>
<time>2026-07-13T09:18:38.000Z</time>
</trkpt>
<trkpt lat="56.270828" lon="8.135615">
<ele>6.541081</ele>
<time>2026-07-13T09:18:39.000Z</time>
</trkpt>
<trkpt lat="56.270863" lon="8.135564">
<ele>6.545683</ele>
<time>2026-07-13T09:18:40.000Z</time>
</trkpt>
<trkpt lat="56.270901" lon="8.135512">
<ele>6.550561</ele>
<time>2026-07-13T09:18:41.000Z</time>
</trkpt>
<trkpt lat="56.270939" lon="8.135463">
<ele>6.555339</ele>
<time>2026-07-13T09:18:42.000Z</time>
</trkpt>
<trkpt lat="56.270977" lon="8.135417">
<ele>6.560019</ele>
<time>2026-07-13T09:18:43.000Z</time>
</trkpt>
<trkpt lat="56.271015" lon="8.135372">
<ele>6.564668</ele>
<time>2026-07-13T09:18:44.000Z</time>
</trkpt>
<trkpt lat="56.271057" lon="8.135327">
<ele>6.569663</ele>
<time>2026-07-13T09:18:45.000Z</time>
</trkpt>
<trkpt lat="56.271095" lon="8.135284">
<ele>6.574250</ele>
<time>2026-07-13T09:18:46.000Z</time>
</trkpt>
<trkpt lat="56.271137" lon="8.135244">
<ele>6.579107</ele>
<time>2026-07-13T09:18:47.000Z</time>
</trkpt>
<trkpt lat="56.271179" lon="8.135205">
<ele>6.583937</ele>
<time>2026-07-13T09:18:48.000Z</time>
</trkpt>
<trkpt lat="56.271221" lon="8.135172">
<ele>6.588621</ele>
<time>2026-07-13T09:18:49.000Z</time>
</trkpt>
<trkpt lat="56.271267" lon="8.135142">
<ele>6.593621</ele>
<time>2026-07-13T09:18:50.000Z</time>
</trkpt>
<trkpt lat="56.271309" lon="8.135115">
<ele>6.598180</ele>
<time>2026-07-13T09:18:51.000Z</time>
</trkpt>
<trkpt lat="56.271355" lon="8.135093">
<ele>6.603045</ele>
<time>2026-07-13T09:18:52.000Z</time>
</trkpt>
<trkpt lat="56.271400" lon="8.135072">
<ele>6.607796</ele>
<time>2026-07-13T09:18:53.000Z</time>
</trkpt>
<trkpt lat="56.271439" lon="8.135053">
<ele>6.611926</ele>
<time>2026-07-13T09:18:54.000Z</time>
</trkpt>
<trkpt lat="56.271484" lon="8.135030">
<ele>6.616707</ele>
<time>2026-07-13T09:18:55.000Z</time>
</trkpt>
<trkpt lat="56.271530" lon="8.135006">
<ele>6.621603</ele>
<time>2026-07-13T09:18:56.000Z</time>
</trkpt>
<trkpt lat="56.271572" lon="8.134981">
<ele>6.624871</ele>
<time>2026-07-13T09:18:57.000Z</time>
</trkpt>
<trkpt lat="56.271618" lon="8.134955">
<ele>6.626176</ele>
<time>2026-07-13T09:18:58.000Z</time>
</trkpt>
<trkpt lat="56.271660" lon="8.134932">
<ele>6.627364</ele>
<time>2026-07-13T09:18:59.000Z</time>
</trkpt>
<trkpt lat="56.271702" lon="8.134908">
<ele>6.628557</ele>
<time>2026-07-13T09:19:00.000Z</time>
</trkpt>
<trkpt lat="56.271744" lon="8.134886">
<ele>6.629741</ele>
<time>2026-07-13T09:19:01.000Z</time>
</trkpt>
<trkpt lat="56.271786" lon="8.134863">
<ele>6.630930</ele>
<time>2026-07-13T09:19:02.000Z</time>
</trkpt>
<trkpt lat="56.271824" lon="8.134838">
<ele>6.632025</ele>
<time>2026-07-13T09:19:03.000Z</time>
</trkpt>
<trkpt lat="56.271866" lon="8.134812">
<ele>6.633227</ele>
<time>2026-07-13T09:19:04.000Z</time>
</trkpt>
<trkpt lat="56.271908" lon="8.134788">
<ele>6.634420</ele>
<time>2026-07-13T09:19:05.000Z</time>
</trkpt>
<trkpt lat="56.271950" lon="8.134764">
<ele>6.635613</ele>
<time>2026-07-13T09:19:06.000Z</time>
</trkpt>
<trkpt lat="56.271992" lon="8.134736">
<ele>6.636825</ele>
<time>2026-07-13T09:19:07.000Z</time>
</trkpt>
<trkpt lat="56.272034" lon="8.134704">
<ele>6.638060</ele>
<time>2026-07-13T09:19:08.000Z</time>
</trkpt>
<trkpt lat="56.272072" lon="8.134668">
<ele>6.639222</ele>
<time>2026-07-13T09:19:09.000Z</time>
</trkpt>
<trkpt lat="56.272114" lon="8.134628">
<ele>6.640509</ele>
<time>2026-07-13T09:19:10.000Z</time>
</trkpt>
<trkpt lat="56.272148" lon="8.134583">
<ele>6.641651</ele>
<time>2026-07-13T09:19:11.000Z</time>
</trkpt>
<trkpt lat="56.272182" lon="8.134533">
<ele>6.642839</ele>
<time>2026-07-13T09:19:12.000Z</time>
</trkpt>
<trkpt lat="56.272217" lon="8.134480">
<ele>6.644077</ele>
<time>2026-07-13T09:19:13.000Z</time>
</trkpt>
<trkpt lat="56.272251" lon="8.134427">
<ele>6.645294</ele>
<time>2026-07-13T09:19:14.000Z</time>
</trkpt>
<trkpt lat="56.272285" lon="8.134373">
<ele>6.646521</ele>
<time>2026-07-13T09:19:15.000Z</time>
</trkpt>
<trkpt lat="56.272320" lon="8.134319">
<ele>6.647769</ele>
<time>2026-07-13T09:19:16.000Z</time>
</trkpt>
<trkpt lat="56.272354" lon="8.134270">
<ele>6.648948</ele>
<time>2026-07-13T09:19:17.000Z</time>
</trkpt>
<trkpt lat="56.272396" lon="8.134223">
<ele>6.650287</ele>
<time>2026-07-13T09:19:18.000Z</time>
</trkpt>
<trkpt lat="56.272434" lon="8.134176">
<ele>6.651534</ele>
<time>2026-07-13T09:19:19.000Z</time>
</trkpt>
<trkpt lat="56.272469" lon="8.134128">
<ele>6.652725</ele>
<time>2026-07-13T09:19:20.000Z</time>
</trkpt>
<trkpt lat="56.272503" lon="8.134081">
<ele>6.653886</ele>
<time>2026-07-13T09:19:21.000Z</time>
</trkpt>
<trkpt lat="56.272541" lon="8.134031">
<ele>6.655160</ele>
<time>2026-07-13T09:19:22.000Z</time>
</trkpt>
<trkpt lat="56.272572" lon="8.133983">
<ele>6.656266</ele>
<time>2026-07-13T09:19:23.000Z</time>
</trkpt>
<trkpt lat="56.272606" lon="8.133938">
<ele>6.657409</ele>
<time>2026-07-13T09:19:24.000Z</time>
</trkpt>
<trkpt lat="56.272636" lon="8.133900">
<ele>6.658402</ele>
<time>2026-07-13T09:19:25.000Z</time>
</trkpt>
<trkpt lat="56.272671" lon="8.133867">
<ele>6.659471</ele>
<time>2026-07-13T09:19:26.000Z</time>
</trkpt>
<trkpt lat="56.272709" lon="8.133839">
<ele>6.660582</ele>
<time>2026-07-13T09:19:27.000Z</time>
</trkpt>
<trkpt lat="56.272743" lon="8.133811">
<ele>6.661595</ele>
<time>2026-07-13T09:19:28.000Z</time>
</trkpt>
<trkpt lat="56.272778" lon="8.133780">
<ele>6.662650</ele>
<time>2026-07-13T09:19:29.000Z</time>
</trkpt>
<trkpt lat="56.272812" lon="8.133748">
<ele>6.663689</ele>
<time>2026-07-13T09:19:30.000Z</time>
</trkpt>
<trkpt lat="56.272846" lon="8.133709">
<ele>6.664780</ele>
<time>2026-07-13T09:19:31.000Z</time>
</trkpt>
<trkpt lat="56.272877" lon="8.133663">
<ele>6.665868</ele>
<time>2026-07-13T09:19:32.000Z</time>
</trkpt>
<trkpt lat="56.272903" lon="8.133615">
<ele>6.666876</ele>
<time>2026-07-13T09:19:33.000Z</time>
</trkpt>
<trkpt lat="56.272934" lon="8.133563">
<ele>6.668022</ele>
<time>2026-07-13T09:19:34.000Z</time>
</trkpt>
<trkpt lat="56.272961" lon="8.133507">
<ele>6.669137</ele>
<time>2026-07-13T09:19:35.000Z</time>
</trkpt>
<trkpt lat="56.272987" lon="8.133445">
<ele>6.670305</ele>
<time>2026-07-13T09:19:36.000Z</time>
</trkpt>
<trkpt lat="56.273014" lon="8.133377">
<ele>6.671562</ele>
<time>2026-07-13T09:19:37.000Z</time>
</trkpt>
<trkpt lat="56.273041" lon="8.133307">
<ele>6.672843</ele>
<time>2026-07-13T09:19:38.000Z</time>
</trkpt>
<trkpt lat="56.273064" lon="8.133234">
<ele>6.688759</ele>
<time>2026-07-13T09:19:39.000Z</time>
</trkpt>
<trkpt lat="56.273090" lon="8.133157">
<ele>6.710101</ele>
<time>2026-07-13T09:19:40.000Z</time>
</trkpt>
<trkpt lat="56.273117" lon="8.133081">
<ele>6.731467</ele>
<time>2026-07-13T09:19:41.000Z</time>
</trkpt>
<trkpt lat="56.273144" lon="8.133004">
<ele>6.753034</ele>
<time>2026-07-13T09:19:42.000Z</time>
</trkpt>
<trkpt lat="56.273174" lon="8.132930">
<ele>6.774732</ele>
<time>2026-07-13T09:19:43.000Z</time>
</trkpt>
<trkpt lat="56.273212" lon="8.132857">
<ele>6.798428</ele>
<time>2026-07-13T09:19:44.000Z</time>
</trkpt>
<trkpt lat="56.273251" lon="8.132788">
<ele>6.821745</ele>
<time>2026-07-13T09:19:45.000Z</time>
</trkpt>
<trkpt lat="56.273296" lon="8.132726">
<ele>6.845910</ele>
<time>2026-07-13T09:19:46.000Z</time>
</trkpt>
<trkpt lat="56.273346" lon="8.132672">
<ele>6.870775</ele>
<time>2026-07-13T09:19:47.000Z</time>
</trkpt>
<trkpt lat="56.273396" lon="8.132629">
<ele>6.894407</ele>
<time>2026-07-13T09:19:48.000Z</time>
</trkpt>
<trkpt lat="56.273445" lon="8.132592">
<ele>6.917068</ele>
<time>2026-07-13T09:19:49.000Z</time>
</trkpt>
<trkpt lat="56.273495" lon="8.132560">
<ele>6.939700</ele>
<time>2026-07-13T09:19:50.000Z</time>
</trkpt>
<trkpt lat="56.273548" lon="8.132533">
<ele>6.963191</ele>
<time>2026-07-13T09:19:51.000Z</time>
</trkpt>
<trkpt lat="56.273602" lon="8.132516">
<ele>6.986572</ele>
<time>2026-07-13T09:19:52.000Z</time>
</trkpt>
<trkpt lat="56.273655" lon="8.132505">
<ele>7.009326</ele>
<time>2026-07-13T09:19:53.000Z</time>
</trkpt>
<trkpt lat="56.273708" lon="8.132500">
<ele>7.031962</ele>
<time>2026-07-13T09:19:54.000Z</time>
</trkpt>
<trkpt lat="56.273758" lon="8.132499">
<ele>7.053289</ele>
<time>2026-07-13T09:19:55.000Z</time>
</trkpt>
<trkpt lat="56.273808" lon="8.132499">
<ele>7.074614</ele>
<time>2026-07-13T09:19:56.000Z</time>
</trkpt>
<trkpt lat="56.273861" lon="8.132499">
<ele>7.097219</ele>
<time>2026-07-13T09:19:57.000Z</time>
</trkpt>
<trkpt lat="56.273911" lon="8.132496">
<ele>7.118556</ele>
<time>2026-07-13T09:19:58.000Z</time>
</trkpt>
<trkpt lat="56.273960" lon="8.132489">
<ele>7.139521</ele>
<time>2026-07-13T09:19:59.000Z</time>
</trkpt>
<trkpt lat="56.274010" lon="8.132477">
<ele>7.161034</ele>
<time>2026-07-13T09:20:00.000Z</time>
</trkpt>
<trkpt lat="56.274055" lon="8.132456">
<ele>7.180861</ele>
<time>2026-07-13T09:20:01.000Z</time>
</trkpt>
<trkpt lat="56.274101" lon="8.132429">
<ele>7.201496</ele>
<time>2026-07-13T09:20:02.000Z</time>
</trkpt>
<trkpt lat="56.274147" lon="8.132400">
<ele>7.222282</ele>
<time>2026-07-13T09:20:03.000Z</time>
</trkpt>
<trkpt lat="56.274189" lon="8.132370">
<ele>7.241553</ele>
<time>2026-07-13T09:20:04.000Z</time>
</trkpt>
<trkpt lat="56.274235" lon="8.132340">
<ele>7.262419</ele>
<time>2026-07-13T09:20:05.000Z</time>
</trkpt>
<trkpt lat="56.274277" lon="8.132316">
<ele>7.281212</ele>
<time>2026-07-13T09:20:06.000Z</time>
</trkpt>
<trkpt lat="56.274326" lon="8.132297">
<ele>7.302590</ele>
<time>2026-07-13T09:20:07.000Z</time>
</trkpt>
<trkpt lat="56.274376" lon="8.132287">
<ele>7.324046</ele>
<time>2026-07-13T09:20:08.000Z</time>
</trkpt>
<trkpt lat="56.274426" lon="8.132287">
<ele>7.345371</ele>
<time>2026-07-13T09:20:09.000Z</time>
</trkpt>
<trkpt lat="56.274471" lon="8.132294">
<ele>7.364635</ele>
<time>2026-07-13T09:20:10.000Z</time>
</trkpt>
<trkpt lat="56.274517" lon="8.132308">
<ele>7.384533</ele>
<time>2026-07-13T09:20:11.000Z</time>
</trkpt>
<trkpt lat="56.274563" lon="8.132324">
<ele>7.404515</ele>
<time>2026-07-13T09:20:12.000Z</time>
</trkpt>
<trkpt lat="56.274609" lon="8.132339">
<ele>7.424453</ele>
<time>2026-07-13T09:20:13.000Z</time>
</trkpt>
<trkpt lat="56.274658" lon="8.132354">
<ele>7.436987</ele>
<time>2026-07-13T09:20:14.000Z</time>
</trkpt>
<trkpt lat="56.274708" lon="8.132364">
<ele>7.424065</ele>
<time>2026-07-13T09:20:15.000Z</time>
</trkpt>
<trkpt lat="56.274757" lon="8.132371">
<ele>7.411439</ele>
<time>2026-07-13T09:20:16.000Z</time>
</trkpt>
<trkpt lat="56.274803" lon="8.132372">
<ele>7.399622</ele>
<time>2026-07-13T09:20:17.000Z</time>
</trkpt>
<trkpt lat="56.274857" lon="8.132371">
<ele>7.385751</ele>
<time>2026-07-13T09:20:18.000Z</time>
</trkpt>
<trkpt lat="56.274910" lon="8.132365">
<ele>7.372111</ele>
<time>2026-07-13T09:20:19.000Z</time>
</trkpt>
<trkpt lat="56.274963" lon="8.132359">
<ele>7.358470</ele>
<time>2026-07-13T09:20:20.000Z</time>
</trkpt>
<trkpt lat="56.275017" lon="8.132353">
<ele>7.344573</ele>
<time>2026-07-13T09:20:21.000Z</time>
</trkpt>
<trkpt lat="56.275070" lon="8.132348">
<ele>7.330941</ele>
<time>2026-07-13T09:20:22.000Z</time>
</trkpt>
<trkpt lat="56.275120" lon="8.132343">
<ele>7.318078</ele>
<time>2026-07-13T09:20:23.000Z</time>
</trkpt>
<trkpt lat="56.275173" lon="8.132335">
<ele>7.304417</ele>
<time>2026-07-13T09:20:24.000Z</time>
</trkpt>
<trkpt lat="56.275227" lon="8.132324">
<ele>7.290458</ele>
<time>2026-07-13T09:20:25.000Z</time>
</trkpt>
<trkpt lat="56.275276" lon="8.132316">
<ele>7.277820</ele>
<time>2026-07-13T09:20:26.000Z</time>
</trkpt>
<trkpt lat="56.275326" lon="8.132304">
<ele>7.264863</ele>
<time>2026-07-13T09:20:27.000Z</time>
</trkpt>
<trkpt lat="56.275379" lon="8.132289">
<ele>7.251083</ele>
<time>2026-07-13T09:20:28.000Z</time>
</trkpt>
<trkpt lat="56.275425" lon="8.132271">
<ele>7.238991</ele>
<time>2026-07-13T09:20:29.000Z</time>
</trkpt>
<trkpt lat="56.275475" lon="8.132251">
<ele>7.225835</ele>
<time>2026-07-13T09:20:30.000Z</time>
</trkpt>
<trkpt lat="56.275520" lon="8.132229">
<ele>7.213858</ele>
<time>2026-07-13T09:20:31.000Z</time>
</trkpt>
<trkpt lat="56.275562" lon="8.132208">
<ele>7.202662</ele>
<time>2026-07-13T09:20:32.000Z</time>
</trkpt>
<trkpt lat="56.275608" lon="8.132192">
<ele>7.190628</ele>
<time>2026-07-13T09:20:33.000Z</time>
</trkpt>
<trkpt lat="56.275650" lon="8.132184">
<ele>7.179780</ele>
<time>2026-07-13T09:20:34.000Z</time>
</trkpt>
<trkpt lat="56.275696" lon="8.132185">
<ele>7.167964</ele>
<time>2026-07-13T09:20:35.000Z</time>
</trkpt>
<trkpt lat="56.275742" lon="8.132194">
<ele>7.156078</ele>
<time>2026-07-13T09:20:36.000Z</time>
</trkpt>
<trkpt lat="56.275784" lon="8.132211">
<ele>7.145021</ele>
<time>2026-07-13T09:20:37.000Z</time>
</trkpt>
<trkpt lat="56.275825" lon="8.132235">
<ele>7.133948</ele>
<time>2026-07-13T09:20:38.000Z</time>
</trkpt>
<trkpt lat="56.275867" lon="8.132264">
<ele>7.122394</ele>
<time>2026-07-13T09:20:39.000Z</time>
</trkpt>
<trkpt lat="56.275906" lon="8.132298">
<ele>7.111265</ele>
<time>2026-07-13T09:20:40.000Z</time>
</trkpt>
<trkpt lat="56.275948" lon="8.132335">
<ele>7.099255</ele>
<time>2026-07-13T09:20:41.000Z</time>
</trkpt>
<trkpt lat="56.275990" lon="8.132374">
<ele>7.087118</ele>
<time>2026-07-13T09:20:42.000Z</time>
</trkpt>
<trkpt lat="56.276028" lon="8.132416">
<ele>7.075666</ele>
<time>2026-07-13T09:20:43.000Z</time>
</trkpt>
<trkpt lat="56.276070" lon="8.132459">
<ele>7.063257</ele>
<time>2026-07-13T09:20:44.000Z</time>
</trkpt>
<trkpt lat="56.276108" lon="8.132502">
<ele>7.051729</ele>
<time>2026-07-13T09:20:45.000Z</time>
</trkpt>
<trkpt lat="56.276150" lon="8.132546">
<ele>7.039249</ele>
<time>2026-07-13T09:20:46.000Z</time>
</trkpt>
<trkpt lat="56.276192" lon="8.132592">
<ele>7.026623</ele>
<time>2026-07-13T09:20:47.000Z</time>
</trkpt>
<trkpt lat="56.276234" lon="8.132640">
<ele>7.013847</ele>
<time>2026-07-13T09:20:48.000Z</time>
</trkpt>
<trkpt lat="56.276268" lon="8.132685">
<ele>7.003009</ele>
<time>2026-07-13T09:20:49.000Z</time>
</trkpt>
<trkpt lat="56.276306" lon="8.132727">
<ele>6.991557</ele>
<time>2026-07-13T09:20:50.000Z</time>
</trkpt>
<trkpt lat="56.276340" lon="8.132772">
<ele>6.980720</ele>
<time>2026-07-13T09:20:51.000Z</time>
</trkpt>
<trkpt lat="56.276379" lon="8.132819">
<ele>6.993410</ele>
<time>2026-07-13T09:20:52.000Z</time>
</trkpt>
<trkpt lat="56.276417" lon="8.132866">
<ele>7.012168</ele>
<time>2026-07-13T09:20:53.000Z</time>
</trkpt>
<trkpt lat="56.276459" lon="8.132910">
<ele>7.031939</ele>
<time>2026-07-13T09:20:54.000Z</time>
</trkpt>
<trkpt lat="56.276497" lon="8.132951">
<ele>7.049965</ele>
<time>2026-07-13T09:20:55.000Z</time>
</trkpt>
<trkpt lat="56.276539" lon="8.132994">
<ele>7.069623</ele>
<time>2026-07-13T09:20:56.000Z</time>
</trkpt>
<trkpt lat="56.276577" lon="8.133034">
<ele>7.087534</ele>
<time>2026-07-13T09:20:57.000Z</time>
</trkpt>
<trkpt lat="56.276619" lon="8.133072">
<ele>7.106660</ele>
<time>2026-07-13T09:20:58.000Z</time>
</trkpt>
<trkpt lat="56.276661" lon="8.133108">
<ele>7.125587</ele>
<time>2026-07-13T09:20:59.000Z</time>
</trkpt>
<trkpt lat="56.276703" lon="8.133145">
<ele>7.144613</ele>
<time>2026-07-13T09:21:00.000Z</time>
</trkpt>
<trkpt lat="56.276737" lon="8.133183">
<ele>7.160895</ele>
<time>2026-07-13T09:21:01.000Z</time>
</trkpt>
<trkpt lat="56.276775" lon="8.133225">
<ele>7.179037</ele>
<time>2026-07-13T09:21:02.000Z</time>
</trkpt>
<trkpt lat="56.276814" lon="8.133270">
<ele>7.197885</ele>
<time>2026-07-13T09:21:03.000Z</time>
</trkpt>
<trkpt lat="56.276855" lon="8.133317">
<ele>7.217661</ele>
<time>2026-07-13T09:21:04.000Z</time>
</trkpt>
<trkpt lat="56.276894" lon="8.133362">
<ele>7.236508</ele>
<time>2026-07-13T09:21:05.000Z</time>
</trkpt>
<trkpt lat="56.276936" lon="8.133404">
<ele>7.256056</ele>
<time>2026-07-13T09:21:06.000Z</time>
</trkpt>
<trkpt lat="56.276978" lon="8.133448">
<ele>7.275828</ele>
<time>2026-07-13T09:21:07.000Z</time>
</trkpt>
<trkpt lat="56.277023" lon="8.133492">
<ele>7.296663</ele>
<time>2026-07-13T09:21:08.000Z</time>
</trkpt>
<trkpt lat="56.277065" lon="8.133539">
<ele>7.316784</ele>
<time>2026-07-13T09:21:09.000Z</time>
</trkpt>
<trkpt lat="56.277111" lon="8.133585">
<ele>7.338194</ele>
<time>2026-07-13T09:21:10.000Z</time>
</trkpt>
<trkpt lat="56.277153" lon="8.133630">
<ele>7.358080</ele>
<time>2026-07-13T09:21:11.000Z</time>
</trkpt>
<trkpt lat="56.277191" lon="8.133673">
<ele>7.376341</ele>
<time>2026-07-13T09:21:12.000Z</time>
</trkpt>
<trkpt lat="56.277229" lon="8.133715">
<ele>7.394484</ele>
<time>2026-07-13T09:21:13.000Z</time>
</trkpt>
<trkpt lat="56.277267" lon="8.133757">
<ele>7.412626</ele>
<time>2026-07-13T09:21:14.000Z</time>
</trkpt>
<trkpt lat="56.277306" lon="8.133800">
<ele>7.431233</ele>
<time>2026-07-13T09:21:15.000Z</time>
</trkpt>
<trkpt lat="56.277340" lon="8.133843">
<ele>7.448139</ele>
<time>2026-07-13T09:21:16.000Z</time>
</trkpt>
<trkpt lat="56.277374" lon="8.133883">
<ele>7.464664</ele>
<time>2026-07-13T09:21:17.000Z</time>
</trkpt>
<trkpt lat="56.277409" lon="8.133920">
<ele>7.481178</ele>
<time>2026-07-13T09:21:18.000Z</time>
</trkpt>
<trkpt lat="56.277443" lon="8.133953">
<ele>7.496894</ele>
<time>2026-07-13T09:21:19.000Z</time>
</trkpt>
<trkpt lat="56.277477" lon="8.133986">
<ele>7.512610</ele>
<time>2026-07-13T09:21:20.000Z</time>
</trkpt>
<trkpt lat="56.277512" lon="8.134018">
<ele>7.528583</ele>
<time>2026-07-13T09:21:21.000Z</time>
</trkpt>
<trkpt lat="56.277546" lon="8.134046">
<ele>7.543795</ele>
<time>2026-07-13T09:21:22.000Z</time>
</trkpt>
<trkpt lat="56.277580" lon="8.134067">
<ele>7.558422</ele>
<time>2026-07-13T09:21:23.000Z</time>
</trkpt>
<trkpt lat="56.277611" lon="8.134085">
<ele>7.571676</ele>
<time>2026-07-13T09:21:24.000Z</time>
</trkpt>
<trkpt lat="56.277653" lon="8.134109">
<ele>7.589606</ele>
<time>2026-07-13T09:21:25.000Z</time>
</trkpt>
<trkpt lat="56.277691" lon="8.134130">
<ele>7.605781</ele>
<time>2026-07-13T09:21:26.000Z</time>
</trkpt>
<trkpt lat="56.277729" lon="8.134146">
<ele>7.621661</ele>
<time>2026-07-13T09:21:27.000Z</time>
</trkpt>
<trkpt lat="56.277771" lon="8.134162">
<ele>7.639130</ele>
<time>2026-07-13T09:21:28.000Z</time>
</trkpt>
<trkpt lat="56.277809" lon="8.134180">
<ele>7.655119</ele>
<time>2026-07-13T09:21:29.000Z</time>
</trkpt>
<trkpt lat="56.277847" lon="8.134199">
<ele>7.671167</ele>
<time>2026-07-13T09:21:30.000Z</time>
</trkpt>
<trkpt lat="56.277889" lon="8.134220">
<ele>7.688904</ele>
<time>2026-07-13T09:21:31.000Z</time>
</trkpt>
<trkpt lat="56.277924" lon="8.134245">
<ele>7.704225</ele>
<time>2026-07-13T09:21:32.000Z</time>
</trkpt>
<trkpt lat="56.277962" lon="8.134271">
<ele>7.706228</ele>
<time>2026-07-13T09:21:33.000Z</time>
</trkpt>
<trkpt lat="56.278000" lon="8.134299">
<ele>7.700040</ele>
<time>2026-07-13T09:21:34.000Z</time>
</trkpt>
<trkpt lat="56.278042" lon="8.134326">
<ele>7.693318</ele>
<time>2026-07-13T09:21:35.000Z</time>
</trkpt>
<trkpt lat="56.278080" lon="8.134351">
<ele>7.687221</ele>
<time>2026-07-13T09:21:36.000Z</time>
</trkpt>
<trkpt lat="56.278122" lon="8.134371">
<ele>7.680673</ele>
<time>2026-07-13T09:21:37.000Z</time>
</trkpt>
<trkpt lat="56.278164" lon="8.134381">
<ele>7.674288</ele>
<time>2026-07-13T09:21:38.000Z</time>
</trkpt>
<trkpt lat="56.278210" lon="8.134382">
<ele>7.667354</ele>
<time>2026-07-13T09:21:39.000Z</time>
</trkpt>
<trkpt lat="56.278255" lon="8.134377">
<ele>7.660558</ele>
<time>2026-07-13T09:21:40.000Z</time>
</trkpt>
<trkpt lat="56.278297" lon="8.134368">
<ele>7.654183</ele>
<time>2026-07-13T09:21:41.000Z</time>
</trkpt>
<trkpt lat="56.278343" lon="8.134359">
<ele>7.647209</ele>
<time>2026-07-13T09:21:42.000Z</time>
</trkpt>
<trkpt lat="56.278385" lon="8.134356">
<ele>7.640874</ele>
<time>2026-07-13T09:21:43.000Z</time>
</trkpt>
<trkpt lat="56.278431" lon="8.134356">
<ele>7.633941</ele>
<time>2026-07-13T09:21:44.000Z</time>
</trkpt>
<trkpt lat="56.278481" lon="8.134364">
<ele>7.626375</ele>
<time>2026-07-13T09:21:45.000Z</time>
</trkpt>
<trkpt lat="56.278526" lon="8.134377">
<ele>7.619506</ele>
<time>2026-07-13T09:21:46.000Z</time>
</trkpt>
<trkpt lat="56.278572" lon="8.134393">
<ele>7.612444</ele>
<time>2026-07-13T09:21:47.000Z</time>
</trkpt>
<trkpt lat="56.278618" lon="8.134406">
<ele>7.605426</ele>
<time>2026-07-13T09:21:48.000Z</time>
</trkpt>
<trkpt lat="56.278664" lon="8.134419">
<ele>7.598408</ele>
<time>2026-07-13T09:21:49.000Z</time>
</trkpt>
<trkpt lat="56.278706" lon="8.134433">
<ele>7.591970</ele>
<time>2026-07-13T09:21:50.000Z</time>
</trkpt>
<trkpt lat="56.278748" lon="8.134444">
<ele>7.585574</ele>
<time>2026-07-13T09:21:51.000Z</time>
</trkpt>
<trkpt lat="56.278789" lon="8.134450">
<ele>7.579374</ele>
<time>2026-07-13T09:21:52.000Z</time>
</trkpt>
<trkpt lat="56.278831" lon="8.134456">
<ele>7.573023</ele>
<time>2026-07-13T09:21:53.000Z</time>
</trkpt>
<trkpt lat="56.278870" lon="8.134461">
<ele>7.567130</ele>
<time>2026-07-13T09:21:54.000Z</time>
</trkpt>
<trkpt lat="56.278908" lon="8.134469">
<ele>7.561364</ele>
<time>2026-07-13T09:21:55.000Z</time>
</trkpt>
<trkpt lat="56.278950" lon="8.134482">
<ele>7.554941</ele>
<time>2026-07-13T09:21:56.000Z</time>
</trkpt>
<trkpt lat="56.278992" lon="8.134500">
<ele>7.548434</ele>
<time>2026-07-13T09:21:57.000Z</time>
</trkpt>
<trkpt lat="56.279038" lon="8.134522">
<ele>7.541260</ele>
<time>2026-07-13T09:21:58.000Z</time>
</trkpt>
<trkpt lat="56.279079" lon="8.134549">
<ele>7.534680</ele>
<time>2026-07-13T09:21:59.000Z</time>
</trkpt>
<trkpt lat="56.279118" lon="8.134580">
<ele>7.528255</ele>
<time>2026-07-13T09:22:00.000Z</time>
</trkpt>
<trkpt lat="56.279160" lon="8.134612">
<ele>7.521382</ele>
<time>2026-07-13T09:22:01.000Z</time>
</trkpt>
<trkpt lat="56.279198" lon="8.134646">
<ele>7.514987</ele>
<time>2026-07-13T09:22:02.000Z</time>
</trkpt>
<trkpt lat="56.279232" lon="8.134686">
<ele>7.508866</ele>
<time>2026-07-13T09:22:03.000Z</time>
</trkpt>
<trkpt lat="56.279266" lon="8.134730">
<ele>7.502556</ele>
<time>2026-07-13T09:22:04.000Z</time>
</trkpt>
<trkpt lat="56.279301" lon="8.134778">
<ele>7.495926</ele>
<time>2026-07-13T09:22:05.000Z</time>
</trkpt>
<trkpt lat="56.279331" lon="8.134830">
<ele>7.489651</ele>
<time>2026-07-13T09:22:06.000Z</time>
</trkpt>
<trkpt lat="56.279362" lon="8.134885">
<ele>7.483093</ele>
<time>2026-07-13T09:22:07.000Z</time>
</trkpt>
<trkpt lat="56.279392" lon="8.134945">
<ele>7.476336</ele>
<time>2026-07-13T09:22:08.000Z</time>
</trkpt>
<trkpt lat="56.279415" lon="8.135005">
<ele>7.470235</ele>
<time>2026-07-13T09:22:09.000Z</time>
</trkpt>
<trkpt lat="56.279434" lon="8.135069">
<ele>7.464163</ele>
<time>2026-07-13T09:22:10.000Z</time>
</trkpt>
<trkpt lat="56.279457" lon="8.135132">
<ele>7.457854</ele>
<time>2026-07-13T09:22:11.000Z</time>
</trkpt>
<trkpt lat="56.279472" lon="8.135196">
<ele>7.452041</ele>
<time>2026-07-13T09:22:12.000Z</time>
</trkpt>
<trkpt lat="56.279488" lon="8.135268">
<ele>7.445552</ele>
<time>2026-07-13T09:22:13.000Z</time>
</trkpt>
<trkpt lat="56.279507" lon="8.135335">
<ele>7.439257</ele>
<time>2026-07-13T09:22:14.000Z</time>
</trkpt>
<trkpt lat="56.279522" lon="8.135400">
<ele>7.446184</ele>
<time>2026-07-13T09:22:15.000Z</time>
</trkpt>
<trkpt lat="56.279537" lon="8.135465">
<ele>7.453552</ele>
<time>2026-07-13T09:22:16.000Z</time>
</trkpt>
<trkpt lat="56.279552" lon="8.135531">
<ele>7.461016</ele>
<time>2026-07-13T09:22:17.000Z</time>
</trkpt>
<trkpt lat="56.279568" lon="8.135598">
<ele>7.468650</ele>
<time>2026-07-13T09:22:18.000Z</time>
</trkpt>
<trkpt lat="56.279587" lon="8.135667">
<ele>7.476712</ele>
<time>2026-07-13T09:22:19.000Z</time>
</trkpt>
<trkpt lat="56.279602" lon="8.135733">
<ele>7.484177</ele>
<time>2026-07-13T09:22:20.000Z</time>
</trkpt>
<trkpt lat="56.279621" lon="8.135799">
<ele>7.491958</ele>
<time>2026-07-13T09:22:21.000Z</time>
</trkpt>
<trkpt lat="56.279636" lon="8.135867">
<ele>7.499617</ele>
<time>2026-07-13T09:22:22.000Z</time>
</trkpt>
<trkpt lat="56.279655" lon="8.135934">
<ele>7.507492</ele>
<time>2026-07-13T09:22:23.000Z</time>
</trkpt>
<trkpt lat="56.279675" lon="8.136002">
<ele>7.515546</ele>
<time>2026-07-13T09:22:24.000Z</time>
</trkpt>
<trkpt lat="56.279697" lon="8.136068">
<ele>7.523604</ele>
<time>2026-07-13T09:22:25.000Z</time>
</trkpt>
<trkpt lat="56.279717" lon="8.136133">
<ele>7.531383</ele>
<time>2026-07-13T09:22:26.000Z</time>
</trkpt>
<trkpt lat="56.279743" lon="8.136194">
<ele>7.539432</ele>
<time>2026-07-13T09:22:27.000Z</time>
</trkpt>
<trkpt lat="56.279766" lon="8.136251">
<ele>7.546808</ele>
<time>2026-07-13T09:22:28.000Z</time>
</trkpt>
<trkpt lat="56.279797" lon="8.136312">
<ele>7.555464</ele>
<time>2026-07-13T09:22:29.000Z</time>
</trkpt>
<trkpt lat="56.279827" lon="8.136369">
<ele>7.563685</ele>
<time>2026-07-13T09:22:30.000Z</time>
</trkpt>
<trkpt lat="56.279861" lon="8.136421">
<ele>7.572094</ele>
<time>2026-07-13T09:22:31.000Z</time>
</trkpt>
<trkpt lat="56.279896" lon="8.136469">
<ele>7.580388</ele>
<time>2026-07-13T09:22:32.000Z</time>
</trkpt>
<trkpt lat="56.279938" lon="8.136512">
<ele>7.589496</ele>
<time>2026-07-13T09:22:33.000Z</time>
</trkpt>
<trkpt lat="56.279976" lon="8.136549">
<ele>7.597641</ele>
<time>2026-07-13T09:22:34.000Z</time>
</trkpt>
<trkpt lat="56.280014" lon="8.136584">
<ele>7.605688</ele>
<time>2026-07-13T09:22:35.000Z</time>
</trkpt>
<trkpt lat="56.280056" lon="8.136617">
<ele>7.614327</ele>
<time>2026-07-13T09:22:36.000Z</time>
</trkpt>
<trkpt lat="56.280098" lon="8.136641">
<ele>7.622635</ele>
<time>2026-07-13T09:22:37.000Z</time>
</trkpt>
<trkpt lat="56.280140" lon="8.136657">
<ele>7.630729</ele>
<time>2026-07-13T09:22:38.000Z</time>
</trkpt>
<trkpt lat="56.280182" lon="8.136667">
<ele>7.638716</ele>
<time>2026-07-13T09:22:39.000Z</time>
</trkpt>
<trkpt lat="56.280228" lon="8.136679">
<ele>7.647480</ele>
<time>2026-07-13T09:22:40.000Z</time>
</trkpt>
<trkpt lat="56.280273" lon="8.136700">
<ele>7.656244</ele>
<time>2026-07-13T09:22:41.000Z</time>
</trkpt>
<trkpt lat="56.280315" lon="8.136728">
<ele>7.664688</ele>
<time>2026-07-13T09:22:42.000Z</time>
</trkpt>
<trkpt lat="56.280357" lon="8.136761">
<ele>7.673327</ele>
<time>2026-07-13T09:22:43.000Z</time>
</trkpt>
<trkpt lat="56.280399" lon="8.136798">
<ele>7.682142</ele>
<time>2026-07-13T09:22:44.000Z</time>
</trkpt>
<trkpt lat="56.280434" lon="8.136840">
<ele>7.690071</ele>
<time>2026-07-13T09:22:45.000Z</time>
</trkpt>
<trkpt lat="56.280468" lon="8.136881">
<ele>7.697786</ele>
<time>2026-07-13T09:22:46.000Z</time>
</trkpt>
<trkpt lat="56.280506" lon="8.136922">
<ele>7.706137</ele>
<time>2026-07-13T09:22:47.000Z</time>
</trkpt>
<trkpt lat="56.280540" lon="8.136966">
<ele>7.714030</ele>
<time>2026-07-13T09:22:48.000Z</time>
</trkpt>
<trkpt lat="56.280575" lon="8.137013">
<ele>7.722261</ele>
<time>2026-07-13T09:22:49.000Z</time>
</trkpt>
<trkpt lat="56.280605" lon="8.137066">
<ele>7.730184</ele>
<time>2026-07-13T09:22:50.000Z</time>
</trkpt>
<trkpt lat="56.280636" lon="8.137124">
<ele>7.738611</ele>
<time>2026-07-13T09:22:51.000Z</time>
</trkpt>
<trkpt lat="56.280663" lon="8.137184">
<ele>7.746695</ele>
<time>2026-07-13T09:22:52.000Z</time>
</trkpt>
<trkpt lat="56.280685" lon="8.137246">
<ele>7.754396</ele>
<time>2026-07-13T09:22:53.000Z</time>
</trkpt>
<trkpt lat="56.280708" lon="8.137309">
<ele>7.762288</ele>
<time>2026-07-13T09:22:54.000Z</time>
</trkpt>
<trkpt lat="56.280724" lon="8.137376">
<ele>7.769922</ele>
<time>2026-07-13T09:22:55.000Z</time>
</trkpt>
<trkpt lat="56.280743" lon="8.137450">
<ele>7.778794</ele>
<time>2026-07-13T09:22:56.000Z</time>
</trkpt>
<trkpt lat="56.280758" lon="8.137520">
<ele>7.796359</ele>
<time>2026-07-13T09:22:57.000Z</time>
</trkpt>
<trkpt lat="56.280773" lon="8.137591">
<ele>7.814143</ele>
<time>2026-07-13T09:22:58.000Z</time>
</trkpt>
<trkpt lat="56.280785" lon="8.137663">
<ele>7.831741</ele>
<time>2026-07-13T09:22:59.000Z</time>
</trkpt>
<trkpt lat="56.280796" lon="8.137734">
<ele>7.848998</ele>
<time>2026-07-13T09:23:00.000Z</time>
</trkpt>
<trkpt lat="56.280808" lon="8.137807">
<ele>7.866820</ele>
<time>2026-07-13T09:23:01.000Z</time>
</trkpt>
<trkpt lat="56.280819" lon="8.137879">
<ele>7.884302</ele>
<time>2026-07-13T09:23:02.000Z</time>
</trkpt>
<trkpt lat="56.280830" lon="8.137953">
<ele>7.902236</ele>
<time>2026-07-13T09:23:03.000Z</time>
</trkpt>
<trkpt lat="56.280838" lon="8.138028">
<ele>7.920114</ele>
<time>2026-07-13T09:23:04.000Z</time>
</trkpt>
<trkpt lat="56.280849" lon="8.138100">
<ele>7.937596</ele>
<time>2026-07-13T09:23:05.000Z</time>
</trkpt>
<trkpt lat="56.280861" lon="8.138172">
<ele>7.955194</ele>
<time>2026-07-13T09:23:06.000Z</time>
</trkpt>
<trkpt lat="56.280872" lon="8.138246">
<ele>7.973128</ele>
<time>2026-07-13T09:23:07.000Z</time>
</trkpt>
<trkpt lat="56.280880" lon="8.138320">
<ele>7.990777</ele>
<time>2026-07-13T09:23:08.000Z</time>
</trkpt>
<trkpt lat="56.280888" lon="8.138394">
<ele>8.008425</ele>
<time>2026-07-13T09:23:09.000Z</time>
</trkpt>
<trkpt lat="56.280899" lon="8.138469">
<ele>8.026585</ele>
<time>2026-07-13T09:23:10.000Z</time>
</trkpt>
<trkpt lat="56.280911" lon="8.138542">
<ele>8.044408</ele>
<time>2026-07-13T09:23:11.000Z</time>
</trkpt>
<trkpt lat="56.280922" lon="8.138615">
<ele>8.062115</ele>
<time>2026-07-13T09:23:12.000Z</time>
</trkpt>
<trkpt lat="56.280933" lon="8.138686">
<ele>8.079371</ele>
<time>2026-07-13T09:23:13.000Z</time>
</trkpt>
<trkpt lat="56.280949" lon="8.138754">
<ele>8.096661</ele>
<time>2026-07-13T09:23:14.000Z</time>
</trkpt>
<trkpt lat="56.280968" lon="8.138819">
<ele>8.113858</ele>
<time>2026-07-13T09:23:15.000Z</time>
</trkpt>
<trkpt lat="56.280991" lon="8.138882">
<ele>8.131509</ele>
<time>2026-07-13T09:23:16.000Z</time>
</trkpt>
<trkpt lat="56.281013" lon="8.138942">
<ele>8.148343</ele>
<time>2026-07-13T09:23:17.000Z</time>
</trkpt>
<trkpt lat="56.281040" lon="8.139001">
<ele>8.166243</ele>
<time>2026-07-13T09:23:18.000Z</time>
</trkpt>
<trkpt lat="56.281067" lon="8.139056">
<ele>8.183430</ele>
<time>2026-07-13T09:23:19.000Z</time>
</trkpt>
<trkpt lat="56.281097" lon="8.139111">
<ele>8.201481</ele>
<time>2026-07-13T09:23:20.000Z</time>
</trkpt>
<trkpt lat="56.281128" lon="8.139162">
<ele>8.219185</ele>
<time>2026-07-13T09:23:21.000Z</time>
</trkpt>
<trkpt lat="56.281155" lon="8.139214">
<ele>8.235853</ele>
<time>2026-07-13T09:23:22.000Z</time>
</trkpt>
<trkpt lat="56.281185" lon="8.139264">
<ele>8.253088</ele>
<time>2026-07-13T09:23:23.000Z</time>
</trkpt>
<trkpt lat="56.281216" lon="8.139318">
<ele>8.271274</ele>
<time>2026-07-13T09:23:24.000Z</time>
</trkpt>
<trkpt lat="56.281246" lon="8.139375">
<ele>8.289661</ele>
<time>2026-07-13T09:23:25.000Z</time>
</trkpt>
<trkpt lat="56.281273" lon="8.139434">
<ele>8.307561</ele>
<time>2026-07-13T09:23:26.000Z</time>
</trkpt>
<trkpt lat="56.281300" lon="8.139496">
<ele>8.326008</ele>
<time>2026-07-13T09:23:27.000Z</time>
</trkpt>
<trkpt lat="56.281326" lon="8.139560">
<ele>8.344573</ele>
<time>2026-07-13T09:23:28.000Z</time>
</trkpt>
<trkpt lat="56.281353" lon="8.139622">
<ele>8.363021</ele>
<time>2026-07-13T09:23:29.000Z</time>
</trkpt>
<trkpt lat="56.281380" lon="8.139682">
<ele>8.381102</ele>
<time>2026-07-13T09:23:30.000Z</time>
</trkpt>
<trkpt lat="56.281403" lon="8.139746">
<ele>8.398949</ele>
<time>2026-07-13T09:23:31.000Z</time>
</trkpt>
<trkpt lat="56.281426" lon="8.139812">
<ele>8.417192</ele>
<time>2026-07-13T09:23:32.000Z</time>
</trkpt>
<trkpt lat="56.281448" lon="8.139879">
<ele>8.435414</ele>
<time>2026-07-13T09:23:33.000Z</time>
</trkpt>
<trkpt lat="56.281467" lon="8.139946">
<ele>8.453027</ele>
<time>2026-07-13T09:23:34.000Z</time>
</trkpt>
<trkpt lat="56.281490" lon="8.140009">
<ele>8.470678</ele>
<time>2026-07-13T09:23:35.000Z</time>
</trkpt>
<trkpt lat="56.281521" lon="8.140072">
<ele>8.490386</ele>
<time>2026-07-13T09:23:36.000Z</time>
</trkpt>
<trkpt lat="56.281551" lon="8.140139">
<ele>8.510537</ele>
<time>2026-07-13T09:23:37.000Z</time>
</trkpt>
<trkpt lat="56.281578" lon="8.140209">
<ele>8.530491</ele>
<time>2026-07-13T09:23:38.000Z</time>
</trkpt>
<trkpt lat="56.281609" lon="8.140280">
<ele>8.535665</ele>
<time>2026-07-13T09:23:39.000Z</time>
</trkpt>
<trkpt lat="56.281635" lon="8.140345">
<ele>8.534393</ele>
<time>2026-07-13T09:23:40.000Z</time>
</trkpt>
<trkpt lat="56.281666" lon="8.140409">
<ele>8.533045</ele>
<time>2026-07-13T09:23:41.000Z</time>
</trkpt>
<trkpt lat="56.281689" lon="8.140469">
<ele>8.531887</ele>
<time>2026-07-13T09:23:42.000Z</time>
</trkpt>
<trkpt lat="56.281708" lon="8.140521">
<ele>8.530898</ele>
<time>2026-07-13T09:23:43.000Z</time>
</trkpt>
<trkpt lat="56.281727" lon="8.140576">
<ele>8.529870</ele>
<time>2026-07-13T09:23:44.000Z</time>
</trkpt>
<trkpt lat="56.281746" lon="8.140642">
<ele>8.528690</ele>
<time>2026-07-13T09:23:45.000Z</time>
</trkpt>
<trkpt lat="56.281765" lon="8.140714">
<ele>8.527424</ele>
<time>2026-07-13T09:23:46.000Z</time>
</trkpt>
<trkpt lat="56.281780" lon="8.140788">
<ele>8.526173</ele>
<time>2026-07-13T09:23:47.000Z</time>
</trkpt>
<trkpt lat="56.281799" lon="8.140865">
<ele>8.524835</ele>
<time>2026-07-13T09:23:48.000Z</time>
</trkpt>
<trkpt lat="56.281818" lon="8.140941">
<ele>8.523512</ele>
<time>2026-07-13T09:23:49.000Z</time>
</trkpt>
<trkpt lat="56.281837" lon="8.141016">
<ele>8.522203</ele>
<time>2026-07-13T09:23:50.000Z</time>
</trkpt>
<trkpt lat="56.281857" lon="8.141088">
<ele>8.520925</ele>
<time>2026-07-13T09:23:51.000Z</time>
</trkpt>
<trkpt lat="56.281883" lon="8.141159">
<ele>8.519574</ele>
<time>2026-07-13T09:23:52.000Z</time>
</trkpt>
<trkpt lat="56.281914" lon="8.141227">
<ele>8.518177</ele>
<time>2026-07-13T09:23:53.000Z</time>
</trkpt>
<trkpt lat="56.281940" lon="8.141293">
<ele>8.516892</ele>
<time>2026-07-13T09:23:54.000Z</time>
</trkpt>
<trkpt lat="56.281975" lon="8.141356">
<ele>8.515477</ele>
<time>2026-07-13T09:23:55.000Z</time>
</trkpt>
<trkpt lat="56.282009" lon="8.141417">
<ele>8.514104</ele>
<time>2026-07-13T09:23:56.000Z</time>
</trkpt>
<trkpt lat="56.282043" lon="8.141478">
<ele>8.512732</ele>
<time>2026-07-13T09:23:57.000Z</time>
</trkpt>
<trkpt lat="56.282082" lon="8.141539">
<ele>8.511255</ele>
<time>2026-07-13T09:23:58.000Z</time>
</trkpt>
<trkpt lat="56.282116" lon="8.141597">
<ele>8.509915</ele>
<time>2026-07-13T09:23:59.000Z</time>
</trkpt>
<trkpt lat="56.282150" lon="8.141651">
<ele>8.508619</ele>
<time>2026-07-13T09:24:00.000Z</time>
</trkpt>
<trkpt lat="56.282188" lon="8.141706">
<ele>8.507225</ele>
<time>2026-07-13T09:24:01.000Z</time>
</trkpt>
<trkpt lat="56.282227" lon="8.141765">
<ele>8.505768</ele>
<time>2026-07-13T09:24:02.000Z</time>
</trkpt>
<trkpt lat="56.282261" lon="8.141823">
<ele>8.504429</ele>
<time>2026-07-13T09:24:03.000Z</time>
</trkpt>
<trkpt lat="56.282295" lon="8.141878">
<ele>8.503122</ele>
<time>2026-07-13T09:24:04.000Z</time>
</trkpt>
<trkpt lat="56.282333" lon="8.141932">
<ele>8.501738</ele>
<time>2026-07-13T09:24:05.000Z</time>
</trkpt>
<trkpt lat="56.282368" lon="8.141990">
<ele>8.500377</ele>
<time>2026-07-13T09:24:06.000Z</time>
</trkpt>
<trkpt lat="56.282406" lon="8.142048">
<ele>8.498953</ele>
<time>2026-07-13T09:24:07.000Z</time>
</trkpt>
<trkpt lat="56.282444" lon="8.142105">
<ele>8.497539</ele>
<time>2026-07-13T09:24:08.000Z</time>
</trkpt>
<trkpt lat="56.282478" lon="8.142161">
<ele>8.496221</ele>
<time>2026-07-13T09:24:09.000Z</time>
</trkpt>
<trkpt lat="56.282517" lon="8.142218">
<ele>8.494784</ele>
<time>2026-07-13T09:24:10.000Z</time>
</trkpt>
<trkpt lat="56.282555" lon="8.142274">
<ele>8.493380</ele>
<time>2026-07-13T09:24:11.000Z</time>
</trkpt>
<trkpt lat="56.282589" lon="8.142331">
<ele>8.492052</ele>
<time>2026-07-13T09:24:12.000Z</time>
</trkpt>
<trkpt lat="56.282627" lon="8.142388">
<ele>8.490638</ele>
<time>2026-07-13T09:24:13.000Z</time>
</trkpt>
<trkpt lat="56.282661" lon="8.142445">
<ele>8.489309</ele>
<time>2026-07-13T09:24:14.000Z</time>
</trkpt>
<trkpt lat="56.282696" lon="8.142502">
<ele>8.487960</ele>
<time>2026-07-13T09:24:15.000Z</time>
</trkpt>
<trkpt lat="56.282734" lon="8.142564">
<ele>8.486493</ele>
<time>2026-07-13T09:24:16.000Z</time>
</trkpt>
<trkpt lat="56.282772" lon="8.142626">
<ele>8.488464</ele>
<time>2026-07-13T09:24:17.000Z</time>
</trkpt>
<trkpt lat="56.282806" lon="8.142687">
<ele>8.509747</ele>
<time>2026-07-13T09:24:18.000Z</time>
</trkpt>
<trkpt lat="56.282845" lon="8.142750">
<ele>8.532980</ele>
<time>2026-07-13T09:24:19.000Z</time>
</trkpt>
<trkpt lat="56.282886" lon="8.142816">
<ele>8.557367</ele>
<time>2026-07-13T09:24:20.000Z</time>
</trkpt>
<trkpt lat="56.282925" lon="8.142878">
<ele>8.580437</ele>
<time>2026-07-13T09:24:21.000Z</time>
</trkpt>
<trkpt lat="56.282959" lon="8.142936">
<ele>8.601205</ele>
<time>2026-07-13T09:24:22.000Z</time>
</trkpt>
<trkpt lat="56.282993" lon="8.142990">
<ele>8.621309</ele>
<time>2026-07-13T09:24:23.000Z</time>
</trkpt>
<trkpt lat="56.283031" lon="8.143047">
<ele>8.643240</ele>
<time>2026-07-13T09:24:24.000Z</time>
</trkpt>
<trkpt lat="56.283070" lon="8.143104">
<ele>8.665514</ele>
<time>2026-07-13T09:24:25.000Z</time>
</trkpt>
<trkpt lat="56.283104" lon="8.143158">
<ele>8.685618</ele>
<time>2026-07-13T09:24:26.000Z</time>
</trkpt>
<trkpt lat="56.283138" lon="8.143214">
<ele>8.706051</ele>
<time>2026-07-13T09:24:27.000Z</time>
</trkpt>
<trkpt lat="56.283173" lon="8.143273">
<ele>8.727310</ele>
<time>2026-07-13T09:24:28.000Z</time>
</trkpt>
<trkpt lat="56.283207" lon="8.143335">
<ele>8.748767</ele>
<time>2026-07-13T09:24:29.000Z</time>
</trkpt>
<trkpt lat="56.283237" lon="8.143401">
<ele>8.769769</ele>
<time>2026-07-13T09:24:30.000Z</time>
</trkpt>
<trkpt lat="56.283268" lon="8.143476">
<ele>8.792791</ele>
<time>2026-07-13T09:24:31.000Z</time>
</trkpt>
<trkpt lat="56.283295" lon="8.143554">
<ele>8.815422</ele>
<time>2026-07-13T09:24:32.000Z</time>
</trkpt>
<trkpt lat="56.283321" lon="8.143635">
<ele>8.838458</ele>
<time>2026-07-13T09:24:33.000Z</time>
</trkpt>
<trkpt lat="56.283344" lon="8.143715">
<ele>8.860639</ele>
<time>2026-07-13T09:24:34.000Z</time>
</trkpt>
<trkpt lat="56.283363" lon="8.143794">
<ele>8.881836</ele>
<time>2026-07-13T09:24:35.000Z</time>
</trkpt>
<trkpt lat="56.283386" lon="8.143869">
<ele>8.902931</ele>
<time>2026-07-13T09:24:36.000Z</time>
</trkpt>
<trkpt lat="56.283409" lon="8.143938">
<ele>8.922746</ele>
<time>2026-07-13T09:24:37.000Z</time>
</trkpt>
<trkpt lat="56.283428" lon="8.144009">
<ele>8.942152</ele>
<time>2026-07-13T09:24:38.000Z</time>
</trkpt>
<trkpt lat="56.283451" lon="8.144080">
<ele>8.962390</ele>
<time>2026-07-13T09:24:39.000Z</time>
</trkpt>
<trkpt lat="56.283470" lon="8.144152">
<ele>8.982018</ele>
<time>2026-07-13T09:24:40.000Z</time>
</trkpt>
<trkpt lat="56.283489" lon="8.144222">
<ele>9.001201</ele>
<time>2026-07-13T09:24:41.000Z</time>
</trkpt>
<trkpt lat="56.283512" lon="8.144296">
<ele>9.022081</ele>
<time>2026-07-13T09:24:42.000Z</time>
</trkpt>
<trkpt lat="56.283535" lon="8.144367">
<ele>9.042320</ele>
<time>2026-07-13T09:24:43.000Z</time>
</trkpt>
<trkpt lat="56.283554" lon="8.144440">
<ele>9.062170</ele>
<time>2026-07-13T09:24:44.000Z</time>
</trkpt>
<trkpt lat="56.283569" lon="8.144514">
<ele>9.081565</ele>
<time>2026-07-13T09:24:45.000Z</time>
</trkpt>
<trkpt lat="56.283585" lon="8.144600">
<ele>9.103896</ele>
<time>2026-07-13T09:24:46.000Z</time>
</trkpt>
<trkpt lat="56.283600" lon="8.144682">
<ele>9.125152</ele>
<time>2026-07-13T09:24:47.000Z</time>
</trkpt>
<trkpt lat="56.283604" lon="8.144765">
<ele>9.145663</ele>
<time>2026-07-13T09:24:48.000Z</time>
</trkpt>
<trkpt lat="56.283607" lon="8.144848">
<ele>9.166140</ele>
<time>2026-07-13T09:24:49.000Z</time>
</trkpt>
<trkpt lat="56.283600" lon="8.144934">
<ele>9.187540</ele>
<time>2026-07-13T09:24:50.000Z</time>
</trkpt>
<trkpt lat="56.283592" lon="8.145012">
<ele>9.207068</ele>
<time>2026-07-13T09:24:51.000Z</time>
</trkpt>
<trkpt lat="56.283581" lon="8.145091">
<ele>9.227120</ele>
<time>2026-07-13T09:24:52.000Z</time>
</trkpt>
<trkpt lat="56.283573" lon="8.145181">
<ele>9.249560</ele>
<time>2026-07-13T09:24:53.000Z</time>
</trkpt>
<trkpt lat="56.283562" lon="8.145260">
<ele>9.269612</ele>
<time>2026-07-13T09:24:54.000Z</time>
</trkpt>
<trkpt lat="56.283554" lon="8.145339">
<ele>9.286771</ele>
<time>2026-07-13T09:24:55.000Z</time>
</trkpt>
<trkpt lat="56.283546" lon="8.145418">
<ele>9.298472</ele>
<time>2026-07-13T09:24:56.000Z</time>
</trkpt>
<trkpt lat="56.283539" lon="8.145498">
<ele>9.310272</ele>
<time>2026-07-13T09:24:57.000Z</time>
</trkpt>
<trkpt lat="56.283527" lon="8.145582">
<ele>9.322910</ele>
<time>2026-07-13T09:24:58.000Z</time>
</trkpt>
<trkpt lat="56.283520" lon="8.145669">
<ele>9.335718</ele>
<time>2026-07-13T09:24:59.000Z</time>
</trkpt>
<trkpt lat="56.283516" lon="8.145755">
<ele>9.348292</ele>
<time>2026-07-13T09:25:00.000Z</time>
</trkpt>
<trkpt lat="56.283512" lon="8.145842">
<ele>9.361012</ele>
<time>2026-07-13T09:25:01.000Z</time>
</trkpt>
<trkpt lat="56.283516" lon="8.145932">
<ele>9.374167</ele>
<time>2026-07-13T09:25:02.000Z</time>
</trkpt>
<trkpt lat="56.283516" lon="8.146019">
<ele>9.386843</ele>
<time>2026-07-13T09:25:03.000Z</time>
</trkpt>
<trkpt lat="56.283516" lon="8.146098">
<ele>9.398354</ele>
<time>2026-07-13T09:25:04.000Z</time>
</trkpt>
<trkpt lat="56.283520" lon="8.146175">
<ele>9.409622</ele>
<time>2026-07-13T09:25:05.000Z</time>
</trkpt>
<trkpt lat="56.283524" lon="8.146254">
<ele>9.421180</ele>
<time>2026-07-13T09:25:06.000Z</time>
</trkpt>
<trkpt lat="56.283524" lon="8.146325">
<ele>9.431525</ele>
<time>2026-07-13T09:25:07.000Z</time>
</trkpt>
<trkpt lat="56.283527" lon="8.146390">
<ele>9.441028</ele>
<time>2026-07-13T09:25:08.000Z</time>
</trkpt>
<trkpt lat="56.283524" lon="8.146451">
<ele>9.449951</ele>
<time>2026-07-13T09:25:09.000Z</time>
</trkpt>
<trkpt lat="56.283527" lon="8.146511">
<ele>9.458728</ele>
<time>2026-07-13T09:25:10.000Z</time>
</trkpt>
<trkpt lat="56.283531" lon="8.146573">
<ele>9.467823</ele>
<time>2026-07-13T09:25:11.000Z</time>
</trkpt>
<trkpt lat="56.283535" lon="8.146645">
<ele>9.478366</ele>
<time>2026-07-13T09:25:12.000Z</time>
</trkpt>
<trkpt lat="56.283543" lon="8.146723">
<ele>9.489923</ele>
<time>2026-07-13T09:25:13.000Z</time>
</trkpt>
<trkpt lat="56.283554" lon="8.146803">
<ele>9.501931</ele>
<time>2026-07-13T09:25:14.000Z</time>
</trkpt>
<trkpt lat="56.283569" lon="8.146882">
<ele>9.514097</ele>
<time>2026-07-13T09:25:15.000Z</time>
</trkpt>
<trkpt lat="56.283588" lon="8.146964">
<ele>9.527043</ele>
<time>2026-07-13T09:25:16.000Z</time>
</trkpt>
<trkpt lat="56.283604" lon="8.147047">
<ele>9.539845</ele>
<time>2026-07-13T09:25:17.000Z</time>
</trkpt>
<trkpt lat="56.283623" lon="8.147129">
<ele>9.552792</ele>
<time>2026-07-13T09:25:18.000Z</time>
</trkpt>
<trkpt lat="56.283638" lon="8.147216">
<ele>9.566065</ele>
<time>2026-07-13T09:25:19.000Z</time>
</trkpt>
<trkpt lat="56.283653" lon="8.147308">
<ele>9.580036</ele>
<time>2026-07-13T09:25:20.000Z</time>
</trkpt>
<trkpt lat="56.283665" lon="8.147400">
<ele>9.593806</ele>
<time>2026-07-13T09:25:21.000Z</time>
</trkpt>
<trkpt lat="56.283669" lon="8.147492">
<ele>9.607251</ele>
<time>2026-07-13T09:25:22.000Z</time>
</trkpt>
<trkpt lat="56.283672" lon="8.147586">
<ele>9.620970</ele>
<time>2026-07-13T09:25:23.000Z</time>
</trkpt>
<trkpt lat="56.283672" lon="8.147678">
<ele>9.634375</ele>
<time>2026-07-13T09:25:24.000Z</time>
</trkpt>
<trkpt lat="56.283669" lon="8.147771">
<ele>9.647948</ele>
<time>2026-07-13T09:25:25.000Z</time>
</trkpt>
<trkpt lat="56.283669" lon="8.147864">
<ele>9.661498</ele>
<time>2026-07-13T09:25:26.000Z</time>
</trkpt>
<trkpt lat="56.283669" lon="8.147957">
<ele>9.675048</ele>
<time>2026-07-13T09:25:27.000Z</time>
</trkpt>
<trkpt lat="56.283669" lon="8.148047">
<ele>9.688161</ele>
<time>2026-07-13T09:25:28.000Z</time>
</trkpt>
<trkpt lat="56.283669" lon="8.148137">
<ele>9.701275</ele>
<time>2026-07-13T09:25:29.000Z</time>
</trkpt>
<trkpt lat="56.283676" lon="8.148224">
<ele>9.714083</ele>
<time>2026-07-13T09:25:30.000Z</time>
</trkpt>
<trkpt lat="56.283688" lon="8.148308">
<ele>9.726721</ele>
<time>2026-07-13T09:25:31.000Z</time>
</trkpt>
<trkpt lat="56.283707" lon="8.148389">
<ele>9.739533</ele>
<time>2026-07-13T09:25:32.000Z</time>
</trkpt>
<trkpt lat="56.283726" lon="8.148469">
<ele>9.752211</ele>
<time>2026-07-13T09:25:33.000Z</time>
</trkpt>
<trkpt lat="56.283745" lon="8.148549">
<ele>9.754098</ele>
<time>2026-07-13T09:25:34.000Z</time>
</trkpt>
<trkpt lat="56.283768" lon="8.148629">
<ele>9.752746</ele>
<time>2026-07-13T09:25:35.000Z</time>
</trkpt>
<trkpt lat="56.283794" lon="8.148707">
<ele>9.751381</ele>
<time>2026-07-13T09:25:36.000Z</time>
</trkpt>
<trkpt lat="56.283817" lon="8.148782">
<ele>9.750095</ele>
<time>2026-07-13T09:25:37.000Z</time>
</trkpt>
<trkpt lat="56.283840" lon="8.148857">
<ele>9.748809</ele>
<time>2026-07-13T09:25:38.000Z</time>
</trkpt>
<trkpt lat="56.283863" lon="8.148939">
<ele>9.747431</ele>
<time>2026-07-13T09:25:39.000Z</time>
</trkpt>
<trkpt lat="56.283886" lon="8.149016">
<ele>9.746118</ele>
<time>2026-07-13T09:25:40.000Z</time>
</trkpt>
<trkpt lat="56.283905" lon="8.149093">
<ele>9.744854</ele>
<time>2026-07-13T09:25:41.000Z</time>
</trkpt>
<trkpt lat="56.283924" lon="8.149168">
<ele>9.743617</ele>
<time>2026-07-13T09:25:42.000Z</time>
</trkpt>
<trkpt lat="56.283947" lon="8.149242">
<ele>9.742344</ele>
<time>2026-07-13T09:25:43.000Z</time>
</trkpt>
<trkpt lat="56.283962" lon="8.149317">
<ele>9.741147</ele>
<time>2026-07-13T09:25:44.000Z</time>
</trkpt>
<trkpt lat="56.283977" lon="8.149393">
<ele>9.739937</ele>
<time>2026-07-13T09:25:45.000Z</time>
</trkpt>
<trkpt lat="56.283989" lon="8.149468">
<ele>9.738766</ele>
<time>2026-07-13T09:25:46.000Z</time>
</trkpt>
<trkpt lat="56.283993" lon="8.149544">
<ele>9.737620</ele>
<time>2026-07-13T09:25:47.000Z</time>
</trkpt>
<trkpt lat="56.283989" lon="8.149622">
<ele>9.736445</ele>
<time>2026-07-13T09:25:48.000Z</time>
</trkpt>
<trkpt lat="56.283989" lon="8.149706">
<ele>9.735184</ele>
<time>2026-07-13T09:25:49.000Z</time>
</trkpt>
<trkpt lat="56.283989" lon="8.149786">
<ele>9.733983</ele>
<time>2026-07-13T09:25:50.000Z</time>
</trkpt>
<trkpt lat="56.283997" lon="8.149860">
<ele>9.732852</ele>
<time>2026-07-13T09:25:51.000Z</time>
</trkpt>
<trkpt lat="56.284008" lon="8.149932">
<ele>9.731731</ele>
<time>2026-07-13T09:25:52.000Z</time>
</trkpt>
<trkpt lat="56.284027" lon="8.150008">
<ele>9.730480</ele>
<time>2026-07-13T09:25:53.000Z</time>
</trkpt>
<trkpt lat="56.284042" lon="8.150084">
<ele>9.729270</ele>
<time>2026-07-13T09:25:54.000Z</time>
</trkpt>
<trkpt lat="56.284054" lon="8.150157">
<ele>9.728127</ele>
<time>2026-07-13T09:25:55.000Z</time>
</trkpt>
<trkpt lat="56.284069" lon="8.150229">
<ele>9.726973</ele>
<time>2026-07-13T09:25:56.000Z</time>
</trkpt>
<trkpt lat="56.284077" lon="8.150304">
<ele>9.725827</ele>
<time>2026-07-13T09:25:57.000Z</time>
</trkpt>
<trkpt lat="56.284077" lon="8.150376">
<ele>9.724747</ele>
<time>2026-07-13T09:25:58.000Z</time>
</trkpt>
<trkpt lat="56.284080" lon="8.150453">
<ele>9.723588</ele>
<time>2026-07-13T09:25:59.000Z</time>
</trkpt>
<trkpt lat="56.284084" lon="8.150526">
<ele>9.722488</ele>
<time>2026-07-13T09:26:00.000Z</time>
</trkpt>
<trkpt lat="56.284088" lon="8.150602">
<ele>9.721342</ele>
<time>2026-07-13T09:26:01.000Z</time>
</trkpt>
<trkpt lat="56.284096" lon="8.150680">
<ele>9.720152</ele>
<time>2026-07-13T09:26:02.000Z</time>
</trkpt>
<trkpt lat="56.284103" lon="8.150763">
<ele>9.718892</ele>
<time>2026-07-13T09:26:03.000Z</time>
</trkpt>
<trkpt lat="56.284111" lon="8.150848">
<ele>9.717598</ele>
<time>2026-07-13T09:26:04.000Z</time>
</trkpt>
<trkpt lat="56.284115" lon="8.150935">
<ele>9.716288</ele>
<time>2026-07-13T09:26:05.000Z</time>
</trkpt>
<trkpt lat="56.284115" lon="8.151029">
<ele>9.714877</ele>
<time>2026-07-13T09:26:06.000Z</time>
</trkpt>
<trkpt lat="56.284115" lon="8.151126">
<ele>9.713422</ele>
<time>2026-07-13T09:26:07.000Z</time>
</trkpt>
<trkpt lat="56.284119" lon="8.151223">
<ele>9.711962</ele>
<time>2026-07-13T09:26:08.000Z</time>
</trkpt>
<trkpt lat="56.284122" lon="8.151320">
<ele>9.710504</ele>
<time>2026-07-13T09:26:09.000Z</time>
</trkpt>
<trkpt lat="56.284126" lon="8.151422">
<ele>9.708969</ele>
<time>2026-07-13T09:26:10.000Z</time>
</trkpt>
<trkpt lat="56.284130" lon="8.151522">
<ele>9.707465</ele>
<time>2026-07-13T09:26:11.000Z</time>
</trkpt>
<trkpt lat="56.284130" lon="8.151616">
<ele>9.708460</ele>
<time>2026-07-13T09:26:12.000Z</time>
</trkpt>
<trkpt lat="56.284130" lon="8.151706">
<ele>9.714767</ele>
<time>2026-07-13T09:26:13.000Z</time>
</trkpt>
<trkpt lat="56.284130" lon="8.151803">
<ele>9.721564</ele>
<time>2026-07-13T09:26:14.000Z</time>
</trkpt>
<trkpt lat="56.284130" lon="8.151896">
<ele>9.728081</ele>
<time>2026-07-13T09:26:15.000Z</time>
</trkpt>
<trkpt lat="56.284134" lon="8.151989">
<ele>9.734617</ele>
<time>2026-07-13T09:26:16.000Z</time>
</trkpt>
<trkpt lat="56.284134" lon="8.152082">
<ele>9.741134</ele>
<time>2026-07-13T09:26:17.000Z</time>
</trkpt>
<trkpt lat="56.284134" lon="8.152179">
<ele>9.747931</ele>
<time>2026-07-13T09:26:18.000Z</time>
</trkpt>
<trkpt lat="56.284138" lon="8.152276">
<ele>9.754747</ele>
<time>2026-07-13T09:26:19.000Z</time>
</trkpt>
<trkpt lat="56.284142" lon="8.152371">
<ele>9.761423</ele>
<time>2026-07-13T09:26:20.000Z</time>
</trkpt>
<trkpt lat="56.284145" lon="8.152465">
<ele>9.768021</ele>
<time>2026-07-13T09:26:21.000Z</time>
</trkpt>
<trkpt lat="56.284149" lon="8.152557">
<ele>9.774487</ele>
<time>2026-07-13T09:26:22.000Z</time>
</trkpt>
<trkpt lat="56.284153" lon="8.152648">
<ele>9.780884</ele>
<time>2026-07-13T09:26:23.000Z</time>
</trkpt>
<trkpt lat="56.284157" lon="8.152736">
<ele>9.787071</ele>
<time>2026-07-13T09:26:24.000Z</time>
</trkpt>
<trkpt lat="56.284157" lon="8.152824">
<ele>9.793238</ele>
<time>2026-07-13T09:26:25.000Z</time>
</trkpt>
<trkpt lat="56.284157" lon="8.152913">
<ele>9.799474</ele>
<time>2026-07-13T09:26:26.000Z</time>
</trkpt>
<trkpt lat="56.284161" lon="8.152999">
<ele>9.805522</ele>
<time>2026-07-13T09:26:27.000Z</time>
</trkpt>
<trkpt lat="56.284161" lon="8.153082">
<ele>9.811338</ele>
<time>2026-07-13T09:26:28.000Z</time>
</trkpt>
<trkpt lat="56.284164" lon="8.153169">
<ele>9.817446</ele>
<time>2026-07-13T09:26:29.000Z</time>
</trkpt>
<trkpt lat="56.284168" lon="8.153254">
<ele>9.823424</ele>
<time>2026-07-13T09:26:30.000Z</time>
</trkpt>
<trkpt lat="56.284172" lon="8.153345">
<ele>9.829820</ele>
<time>2026-07-13T09:26:31.000Z</time>
</trkpt>
<trkpt lat="56.284176" lon="8.153433">
<ele>9.836007</ele>
<time>2026-07-13T09:26:32.000Z</time>
</trkpt>
<trkpt lat="56.284180" lon="8.153521">
<ele>9.842194</ele>
<time>2026-07-13T09:26:33.000Z</time>
</trkpt>
<trkpt lat="56.284180" lon="8.153608">
<ele>9.848291</ele>
<time>2026-07-13T09:26:34.000Z</time>
</trkpt>
<trkpt lat="56.284180" lon="8.153696">
<ele>9.854457</ele>
<time>2026-07-13T09:26:35.000Z</time>
</trkpt>
<trkpt lat="56.284180" lon="8.153784">
<ele>9.860624</ele>
<time>2026-07-13T09:26:36.000Z</time>
</trkpt>
<trkpt lat="56.284180" lon="8.153873">
<ele>9.866860</ele>
<time>2026-07-13T09:26:37.000Z</time>
</trkpt>
<trkpt lat="56.284180" lon="8.153960">
<ele>9.872957</ele>
<time>2026-07-13T09:26:38.000Z</time>
</trkpt>
<trkpt lat="56.284180" lon="8.154046">
<ele>9.878983</ele>
<time>2026-07-13T09:26:39.000Z</time>
</trkpt>
<trkpt lat="56.284180" lon="8.154132">
<ele>9.885009</ele>
<time>2026-07-13T09:26:40.000Z</time>
</trkpt>
<trkpt lat="56.284180" lon="8.154217">
<ele>9.890966</ele>
<time>2026-07-13T09:26:41.000Z</time>
</trkpt>
<trkpt lat="56.284180" lon="8.154304">
<ele>9.897062</ele>
<time>2026-07-13T09:26:42.000Z</time>
</trkpt>
<trkpt lat="56.284183" lon="8.154391">
<ele>9.903170</ele>
<time>2026-07-13T09:26:43.000Z</time>
</trkpt>
<trkpt lat="56.284183" lon="8.154475">
<ele>9.909056</ele>
<time>2026-07-13T09:26:44.000Z</time>
</trkpt>
<trkpt lat="56.284183" lon="8.154562">
<ele>9.915153</ele>
<time>2026-07-13T09:26:45.000Z</time>
</trkpt>
<trkpt lat="56.284183" lon="8.154653">
<ele>9.921529</ele>
<time>2026-07-13T09:26:46.000Z</time>
</trkpt>
<trkpt lat="56.284187" lon="8.154742">
<ele>9.927786</ele>
<time>2026-07-13T09:26:47.000Z</time>
</trkpt>
<trkpt lat="56.284195" lon="8.154834">
<ele>9.936563</ele>
<time>2026-07-13T09:26:48.000Z</time>
</trkpt>
<trkpt lat="56.284203" lon="8.154932">
<ele>9.963820</ele>
<time>2026-07-13T09:26:49.000Z</time>
</trkpt>
<trkpt lat="56.284210" lon="8.155031">
<ele>9.991282</ele>
<time>2026-07-13T09:26:50.000Z</time>
</trkpt>
<trkpt lat="56.284218" lon="8.155124">
<ele>10.017178</ele>
<time>2026-07-13T09:26:51.000Z</time>
</trkpt>
<trkpt lat="56.284222" lon="8.155218">
<ele>10.043120</ele>
<time>2026-07-13T09:26:52.000Z</time>
</trkpt>
<trkpt lat="56.284225" lon="8.155314">
<ele>10.069578</ele>
<time>2026-07-13T09:26:53.000Z</time>
</trkpt>
<trkpt lat="56.284229" lon="8.155413">
<ele>10.096892</ele>
<time>2026-07-13T09:26:54.000Z</time>
</trkpt>
<trkpt lat="56.284237" lon="8.155512">
<ele>10.124420</ele>
<time>2026-07-13T09:26:55.000Z</time>
</trkpt>
<trkpt lat="56.284241" lon="8.155614">
<ele>10.152558</ele>
<time>2026-07-13T09:26:56.000Z</time>
</trkpt>
<trkpt lat="56.284241" lon="8.155714">
<ele>10.180075</ele>
<time>2026-07-13T09:26:57.000Z</time>
</trkpt>
<trkpt lat="56.284245" lon="8.155808">
<ele>10.206016</ele>
<time>2026-07-13T09:26:58.000Z</time>
</trkpt>
<trkpt lat="56.284248" lon="8.155903">
<ele>10.232200</ele>
<time>2026-07-13T09:26:59.000Z</time>
</trkpt>
<trkpt lat="56.284252" lon="8.155996">
<ele>10.257867</ele>
<time>2026-07-13T09:27:00.000Z</time>
</trkpt>
<trkpt lat="56.284256" lon="8.156090">
<ele>10.283809</ele>
<time>2026-07-13T09:27:01.000Z</time>
</trkpt>
<trkpt lat="56.284260" lon="8.156186">
<ele>10.310299</ele>
<time>2026-07-13T09:27:02.000Z</time>
</trkpt>
<trkpt lat="56.284264" lon="8.156283">
<ele>10.337064</ele>
<time>2026-07-13T09:27:03.000Z</time>
</trkpt>
<trkpt lat="56.284267" lon="8.156379">
<ele>10.363522</ele>
<time>2026-07-13T09:27:04.000Z</time>
</trkpt>
<trkpt lat="56.284267" lon="8.156470">
<ele>10.388563</ele>
<time>2026-07-13T09:27:05.000Z</time>
</trkpt>
<trkpt lat="56.284271" lon="8.156561">
<ele>10.413681</ele>
<time>2026-07-13T09:27:06.000Z</time>
</trkpt>
<trkpt lat="56.284275" lon="8.156648">
<ele>10.437703</ele>
<time>2026-07-13T09:27:07.000Z</time>
</trkpt>
<trkpt lat="56.284283" lon="8.156730">
<ele>10.460613</ele>
<time>2026-07-13T09:27:08.000Z</time>
</trkpt>
<trkpt lat="56.284287" lon="8.156802">
<ele>10.480524</ele>
<time>2026-07-13T09:27:09.000Z</time>
</trkpt>
<trkpt lat="56.284294" lon="8.156875">
<ele>10.500909</ele>
<time>2026-07-13T09:27:10.000Z</time>
</trkpt>
<trkpt lat="56.284302" lon="8.156953">
<ele>10.522735</ele>
<time>2026-07-13T09:27:11.000Z</time>
</trkpt>
<trkpt lat="56.284309" lon="8.157039">
<ele>10.546653</ele>
<time>2026-07-13T09:27:12.000Z</time>
</trkpt>
<trkpt lat="56.284321" lon="8.157123">
<ele>10.570520</ele>
<time>2026-07-13T09:27:13.000Z</time>
</trkpt>
<trkpt lat="56.284332" lon="8.157207">
<ele>10.594269</ele>
<time>2026-07-13T09:27:14.000Z</time>
</trkpt>
<trkpt lat="56.284348" lon="8.157286">
<ele>10.617409</ele>
<time>2026-07-13T09:27:15.000Z</time>
</trkpt>
<trkpt lat="56.284363" lon="8.157366">
<ele>10.640644</ele>
<time>2026-07-13T09:27:16.000Z</time>
</trkpt>
<trkpt lat="56.284374" lon="8.157449">
<ele>10.664125</ele>
<time>2026-07-13T09:27:17.000Z</time>
</trkpt>
<trkpt lat="56.284390" lon="8.157530">
<ele>10.687783</ele>
<time>2026-07-13T09:27:18.000Z</time>
</trkpt>
<trkpt lat="56.284412" lon="8.157608">
<ele>10.711858</ele>
<time>2026-07-13T09:27:19.000Z</time>
</trkpt>
<trkpt lat="56.284431" lon="8.157685">
<ele>10.735045</ele>
<time>2026-07-13T09:27:20.000Z</time>
</trkpt>
<trkpt lat="56.284447" lon="8.157763">
<ele>10.757927</ele>
<time>2026-07-13T09:27:21.000Z</time>
</trkpt>
<trkpt lat="56.284462" lon="8.157836">
<ele>10.779346</ele>
<time>2026-07-13T09:27:22.000Z</time>
</trkpt>
<trkpt lat="56.284473" lon="8.157906">
<ele>10.799365</ele>
<time>2026-07-13T09:27:23.000Z</time>
</trkpt>
<trkpt lat="56.284481" lon="8.157973">
<ele>10.818223</ele>
<time>2026-07-13T09:27:24.000Z</time>
</trkpt>
<trkpt lat="56.284489" lon="8.158039">
<ele>10.837756</ele>
<time>2026-07-13T09:27:25.000Z</time>
</trkpt>
<trkpt lat="56.284500" lon="8.158102">
<ele>10.857405</ele>
<time>2026-07-13T09:27:26.000Z</time>
</trkpt>
<trkpt lat="56.284519" lon="8.158163">
<ele>10.878216</ele>
<time>2026-07-13T09:27:27.000Z</time>
</trkpt>
<trkpt lat="56.284534" lon="8.158225">
<ele>10.898339</ele>
<time>2026-07-13T09:27:28.000Z</time>
</trkpt>
<trkpt lat="56.284554" lon="8.158293">
<ele>10.921235</ele>
<time>2026-07-13T09:27:29.000Z</time>
</trkpt>
<trkpt lat="56.284569" lon="8.158367">
<ele>10.944674</ele>
<time>2026-07-13T09:27:30.000Z</time>
</trkpt>
<trkpt lat="56.284584" lon="8.158436">
<ele>10.966721</ele>
<time>2026-07-13T09:27:31.000Z</time>
</trkpt>
<trkpt lat="56.284603" lon="8.158502">
<ele>10.988841</ele>
<time>2026-07-13T09:27:32.000Z</time>
</trkpt>
<trkpt lat="56.284622" lon="8.158568">
<ele>11.010962</ele>
<time>2026-07-13T09:27:33.000Z</time>
</trkpt>
<trkpt lat="56.284641" lon="8.158631">
<ele>11.032294</ele>
<time>2026-07-13T09:27:34.000Z</time>
</trkpt>
<trkpt lat="56.284660" lon="8.158687">
<ele>11.051821</ele>
<time>2026-07-13T09:27:35.000Z</time>
</trkpt>
<trkpt lat="56.284683" lon="8.158740">
<ele>11.071837</ele>
<time>2026-07-13T09:27:36.000Z</time>
</trkpt>
<trkpt lat="56.284706" lon="8.158789">
<ele>11.090929</ele>
<time>2026-07-13T09:27:37.000Z</time>
</trkpt>
<trkpt lat="56.284733" lon="8.158833">
<ele>11.110444</ele>
<time>2026-07-13T09:27:38.000Z</time>
</trkpt>
<trkpt lat="56.284756" lon="8.158881">
<ele>11.129310</ele>
<time>2026-07-13T09:27:39.000Z</time>
</trkpt>
<trkpt lat="56.284786" lon="8.158941">
<ele>11.153336</ele>
<time>2026-07-13T09:27:40.000Z</time>
</trkpt>
<trkpt lat="56.284813" lon="8.159001">
<ele>11.176316</ele>
<time>2026-07-13T09:27:41.000Z</time>
</trkpt>
<trkpt lat="56.284843" lon="8.159054">
<ele>11.198838</ele>
<time>2026-07-13T09:27:42.000Z</time>
</trkpt>
<trkpt lat="56.284889" lon="8.159104">
<ele>11.227634</ele>
<time>2026-07-13T09:27:43.000Z</time>
</trkpt>
<trkpt lat="56.284939" lon="8.159162">
<ele>11.259510</ele>
<time>2026-07-13T09:27:44.000Z</time>
</trkpt>
<trkpt lat="56.284981" lon="8.159216">
<ele>11.287167</ele>
<time>2026-07-13T09:27:45.000Z</time>
</trkpt>
<trkpt lat="56.285023" lon="8.159270">
<ele>11.314824</ele>
<time>2026-07-13T09:27:46.000Z</time>
</trkpt>
<trkpt lat="56.285061" lon="8.159329">
<ele>11.341713</ele>
<time>2026-07-13T09:27:47.000Z</time>
</trkpt>
<trkpt lat="56.285091" lon="8.159395">
<ele>11.367093</ele>
<time>2026-07-13T09:27:48.000Z</time>
</trkpt>
<trkpt lat="56.285114" lon="8.159466">
<ele>11.391551</ele>
<time>2026-07-13T09:27:49.000Z</time>
</trkpt>
<trkpt lat="56.285133" lon="8.159540">
<ele>11.415809</ele>
<time>2026-07-13T09:27:50.000Z</time>
</trkpt>
<trkpt lat="56.285152" lon="8.159613">
<ele>11.439797</ele>
<time>2026-07-13T09:27:51.000Z</time>
</trkpt>
<trkpt lat="56.285171" lon="8.159686">
<ele>11.463785</ele>
<time>2026-07-13T09:27:52.000Z</time>
</trkpt>
<trkpt lat="56.285183" lon="8.159763">
<ele>11.487580</ele>
<time>2026-07-13T09:27:53.000Z</time>
</trkpt>
<trkpt lat="56.285187" lon="8.159842">
<ele>11.511181</ele>
<time>2026-07-13T09:27:54.000Z</time>
</trkpt>
<trkpt lat="56.285191" lon="8.159911">
<ele>11.531821</ele>
<time>2026-07-13T09:27:55.000Z</time>
</trkpt>
<trkpt lat="56.285191" lon="8.159979">
<ele>11.552053</ele>
<time>2026-07-13T09:27:56.000Z</time>
</trkpt>
<trkpt lat="56.285191" lon="8.160048">
<ele>11.572581</ele>
<time>2026-07-13T09:27:57.000Z</time>
</trkpt>
<trkpt lat="56.285191" lon="8.160117">
<ele>11.593110</ele>
<time>2026-07-13T09:27:58.000Z</time>
</trkpt>
<trkpt lat="56.285183" lon="8.160184">
<ele>11.613500</ele>
<time>2026-07-13T09:27:59.000Z</time>
</trkpt>
<trkpt lat="56.285168" lon="8.160264">
<ele>11.638622</ele>
<time>2026-07-13T09:28:00.000Z</time>
</trkpt>
<trkpt lat="56.285164" lon="8.160337">
<ele>11.660447</ele>
<time>2026-07-13T09:28:01.000Z</time>
</trkpt>
<trkpt lat="56.285164" lon="8.160405">
<ele>11.680678</ele>
<time>2026-07-13T09:28:02.000Z</time>
</trkpt>
<trkpt lat="56.285156" lon="8.160469">
<ele>11.700196</ele>
<time>2026-07-13T09:28:03.000Z</time>
</trkpt>
<trkpt lat="56.285149" lon="8.160535">
<ele>11.720187</ele>
<time>2026-07-13T09:28:04.000Z</time>
</trkpt>
<trkpt lat="56.285149" lon="8.160607">
<ele>11.741608</ele>
<time>2026-07-13T09:28:05.000Z</time>
</trkpt>
<trkpt lat="56.285145" lon="8.160687">
<ele>11.765506</ele>
<time>2026-07-13T09:28:06.000Z</time>
</trkpt>
<trkpt lat="56.285141" lon="8.160767">
<ele>11.789413</ele>
<time>2026-07-13T09:28:07.000Z</time>
</trkpt>
<trkpt lat="56.285133" lon="8.160847">
<ele>11.815384</ele>
<time>2026-07-13T09:28:08.000Z</time>
</trkpt>
<trkpt lat="56.285137" lon="8.160936">
<ele>11.843912</ele>
<time>2026-07-13T09:28:09.000Z</time>
</trkpt>
<trkpt lat="56.285141" lon="8.161030">
<ele>11.874032</ele>
<time>2026-07-13T09:28:10.000Z</time>
</trkpt>
<trkpt lat="56.285137" lon="8.161113">
<ele>11.900650</ele>
<time>2026-07-13T09:28:11.000Z</time>
</trkpt>
<trkpt lat="56.285133" lon="8.161193">
<ele>11.926313</ele>
<time>2026-07-13T09:28:12.000Z</time>
</trkpt>
<trkpt lat="56.285130" lon="8.161273">
<ele>11.951930</ele>
<time>2026-07-13T09:28:13.000Z</time>
</trkpt>
<trkpt lat="56.285126" lon="8.161357">
<ele>11.978866</ele>
<time>2026-07-13T09:28:14.000Z</time>
</trkpt>
<trkpt lat="56.285122" lon="8.161445">
<ele>12.007076</ele>
<time>2026-07-13T09:28:15.000Z</time>
</trkpt>
<trkpt lat="56.285114" lon="8.161526">
<ele>12.033361</ele>
<time>2026-07-13T09:28:16.000Z</time>
</trkpt>
<trkpt lat="56.285099" lon="8.161598">
<ele>12.057932</ele>
<time>2026-07-13T09:28:17.000Z</time>
</trkpt>
<trkpt lat="56.285084" lon="8.161671">
<ele>12.082802</ele>
<time>2026-07-13T09:28:18.000Z</time>
</trkpt>
<trkpt lat="56.285076" lon="8.161755">
<ele>12.110031</ele>
<time>2026-07-13T09:28:19.000Z</time>
</trkpt>
<trkpt lat="56.285065" lon="8.161829">
<ele>12.134507</ele>
<time>2026-07-13T09:28:20.000Z</time>
</trkpt>
<trkpt lat="56.285049" lon="8.161906">
<ele>12.160775</ele>
<time>2026-07-13T09:28:21.000Z</time>
</trkpt>
<trkpt lat="56.285042" lon="8.161986">
<ele>12.186650</ele>
<time>2026-07-13T09:28:22.000Z</time>
</trkpt>
<trkpt lat="56.285038" lon="8.162073">
<ele>12.214541</ele>
<time>2026-07-13T09:28:23.000Z</time>
</trkpt>
<trkpt lat="56.285038" lon="8.162164">
<ele>12.243615</ele>
<time>2026-07-13T09:28:24.000Z</time>
</trkpt>
<trkpt lat="56.285027" lon="8.162254">
<ele>12.273059</ele>
<time>2026-07-13T09:28:25.000Z</time>
</trkpt>
<trkpt lat="56.285011" lon="8.162327">
<ele>12.298134</ele>
<time>2026-07-13T09:28:26.000Z</time>
</trkpt>
<trkpt lat="56.285000" lon="8.162380">
<ele>12.316212</ele>
<time>2026-07-13T09:28:27.000Z</time>
</trkpt>
<trkpt lat="56.285000" lon="8.162422">
<ele>12.329631</ele>
<time>2026-07-13T09:28:28.000Z</time>
</trkpt>
<trkpt lat="56.285000" lon="8.162446">
<ele>12.337299</ele>
<time>2026-07-13T09:28:29.000Z</time>
</trkpt>
<trkpt lat="56.285007" lon="8.162458">
<ele>12.342861</ele>
<time>2026-07-13T09:28:30.000Z</time>
</trkpt>
<trkpt lat="56.285027" lon="8.162468">
<ele>12.354808</ele>
<time>2026-07-13T09:28:31.000Z</time>
</trkpt>
<trkpt lat="56.285046" lon="8.162479">
<ele>12.366295</ele>
<time>2026-07-13T09:28:32.000Z</time>
</trkpt>
<trkpt lat="56.285065" lon="8.162498">
<ele>12.378803</ele>
<time>2026-07-13T09:28:33.000Z</time>
</trkpt>
<trkpt lat="56.285084" lon="8.162524">
<ele>12.392537</ele>
<time>2026-07-13T09:28:34.000Z</time>
</trkpt>
<trkpt lat="56.285099" lon="8.162554">
<ele>12.405437</ele>
<time>2026-07-13T09:28:35.000Z</time>
</trkpt>
<trkpt lat="56.285114" lon="8.162586">
<ele>12.418819</ele>
<time>2026-07-13T09:28:36.000Z</time>
</trkpt>
<trkpt lat="56.285130" lon="8.162615">
<ele>12.431882</ele>
<time>2026-07-13T09:28:37.000Z</time>
</trkpt>
<trkpt lat="56.285145" lon="8.162650">
<ele>12.446010</ele>
<time>2026-07-13T09:28:38.000Z</time>
</trkpt>
<trkpt lat="56.285160" lon="8.162687">
<ele>12.460648</ele>
<time>2026-07-13T09:28:39.000Z</time>
</trkpt>
<trkpt lat="56.285175" lon="8.162724">
<ele>12.475287</ele>
<time>2026-07-13T09:28:40.000Z</time>
</trkpt>
<trkpt lat="56.285194" lon="8.162751">
<ele>12.489216</ele>
<time>2026-07-13T09:28:41.000Z</time>
</trkpt>
<trkpt lat="56.285210" lon="8.162772">
<ele>12.500610</ele>
<time>2026-07-13T09:28:42.000Z</time>
</trkpt>
<trkpt lat="56.285225" lon="8.162798">
<ele>12.512592</ele>
<time>2026-07-13T09:28:43.000Z</time>
</trkpt>
<trkpt lat="56.285244" lon="8.162833">
<ele>12.528233</ele>
<time>2026-07-13T09:28:44.000Z</time>
</trkpt>
<trkpt lat="56.285263" lon="8.162870">
<ele>12.544337</ele>
<time>2026-07-13T09:28:45.000Z</time>
</trkpt>
<trkpt lat="56.285286" lon="8.162899">
<ele>12.560496</ele>
<time>2026-07-13T09:28:46.000Z</time>
</trkpt>
<trkpt lat="56.285305" lon="8.162930">
<ele>12.575251</ele>
<time>2026-07-13T09:28:47.000Z</time>
</trkpt>
<trkpt lat="56.285324" lon="8.162959">
<ele>12.589584</ele>
<time>2026-07-13T09:28:48.000Z</time>
</trkpt>
<trkpt lat="56.285347" lon="8.162993">
<ele>12.606709</ele>
<time>2026-07-13T09:28:49.000Z</time>
</trkpt>
<trkpt lat="56.285362" lon="8.163023">
<ele>12.619609</ele>
<time>2026-07-13T09:28:50.000Z</time>
</trkpt>
<trkpt lat="56.285385" lon="8.163047">
<ele>12.634908</ele>
<time>2026-07-13T09:28:51.000Z</time>
</trkpt>
<trkpt lat="56.285404" lon="8.163064">
<ele>12.647119</ele>
<time>2026-07-13T09:28:52.000Z</time>
</trkpt>
<trkpt lat="56.285431" lon="8.163076">
<ele>12.663126</ele>
<time>2026-07-13T09:28:53.000Z</time>
</trkpt>
<trkpt lat="56.285454" lon="8.163090">
<ele>12.677100</ele>
<time>2026-07-13T09:28:54.000Z</time>
</trkpt>
<trkpt lat="56.285473" lon="8.163108">
<ele>12.689456</ele>
<time>2026-07-13T09:28:55.000Z</time>
</trkpt>
<trkpt lat="56.285500" lon="8.163126">
<ele>12.706027</ele>
<time>2026-07-13T09:28:56.000Z</time>
</trkpt>
<trkpt lat="56.285542" lon="8.163151">
<ele>12.731488</ele>
<time>2026-07-13T09:28:57.000Z</time>
</trkpt>
<trkpt lat="56.285580" lon="8.163183">
<ele>12.755632</ele>
<time>2026-07-13T09:28:58.000Z</time>
</trkpt>
<trkpt lat="56.285614" lon="8.163221">
<ele>12.778662</ele>
<time>2026-07-13T09:28:59.000Z</time>
</trkpt>
<trkpt lat="56.285645" lon="8.163249">
<ele>12.798623</ele>
<time>2026-07-13T09:29:00.000Z</time>
</trkpt>
<trkpt lat="56.285675" lon="8.163267">
<ele>12.816823</ele>
<time>2026-07-13T09:29:01.000Z</time>
</trkpt>
<trkpt lat="56.285706" lon="8.163275">
<ele>12.822506</ele>
<time>2026-07-13T09:29:02.000Z</time>
</trkpt>
<trkpt lat="56.285732" lon="8.163284">
<ele>12.819427</ele>
<time>2026-07-13T09:29:03.000Z</time>
</trkpt>
<trkpt lat="56.285759" lon="8.163299">
<ele>12.816141</ele>
<time>2026-07-13T09:29:04.000Z</time>
</trkpt>
<trkpt lat="56.285786" lon="8.163315">
<ele>12.812835</ele>
<time>2026-07-13T09:29:05.000Z</time>
</trkpt>
<trkpt lat="56.285816" lon="8.163329">
<ele>12.809231</ele>
<time>2026-07-13T09:29:06.000Z</time>
</trkpt>
<trkpt lat="56.285858" lon="8.163342">
<ele>12.804275</ele>
<time>2026-07-13T09:29:07.000Z</time>
</trkpt>
<trkpt lat="56.285896" lon="8.163349">
<ele>12.799833</ele>
<time>2026-07-13T09:29:08.000Z</time>
</trkpt>
<trkpt lat="56.285934" lon="8.163355">
<ele>12.795396</ele>
<time>2026-07-13T09:29:09.000Z</time>
</trkpt>
<trkpt lat="56.285969" lon="8.163372">
<ele>12.791181</ele>
<time>2026-07-13T09:29:10.000Z</time>
</trkpt>
<trkpt lat="56.286015" lon="8.163391">
<ele>12.785692</ele>
<time>2026-07-13T09:29:11.000Z</time>
</trkpt>
<trkpt lat="56.286060" lon="8.163392">
<ele>12.780458</ele>
<time>2026-07-13T09:29:12.000Z</time>
</trkpt>
<trkpt lat="56.286099" lon="8.163392">
<ele>12.775923</ele>
<time>2026-07-13T09:29:13.000Z</time>
</trkpt>
<trkpt lat="56.286137" lon="8.163398">
<ele>12.771486</ele>
<time>2026-07-13T09:29:14.000Z</time>
</trkpt>
<trkpt lat="56.286182" lon="8.163394">
<ele>12.766247</ele>
<time>2026-07-13T09:29:15.000Z</time>
</trkpt>
<trkpt lat="56.286224" lon="8.163397">
<ele>12.761358</ele>
<time>2026-07-13T09:29:16.000Z</time>
</trkpt>
<trkpt lat="56.286270" lon="8.163411">
<ele>12.755933</ele>
<time>2026-07-13T09:29:17.000Z</time>
</trkpt>
<trkpt lat="56.286316" lon="8.163420">
<ele>12.750552</ele>
<time>2026-07-13T09:29:18.000Z</time>
</trkpt>
<trkpt lat="56.286362" lon="8.163428">
<ele>12.745177</ele>
<time>2026-07-13T09:29:19.000Z</time>
</trkpt>
<trkpt lat="56.286400" lon="8.163434">
<ele>12.740741</ele>
<time>2026-07-13T09:29:20.000Z</time>
</trkpt>
<trkpt lat="56.286442" lon="8.163440">
<ele>12.735841</ele>
<time>2026-07-13T09:29:21.000Z</time>
</trkpt>
<trkpt lat="56.286495" lon="8.163451">
<ele>12.729636</ele>
<time>2026-07-13T09:29:22.000Z</time>
</trkpt>
<trkpt lat="56.286564" lon="8.163462">
<ele>12.721581</ele>
<time>2026-07-13T09:29:23.000Z</time>
</trkpt>
<trkpt lat="56.286613" lon="8.163465">
<ele>12.715879</ele>
<time>2026-07-13T09:29:24.000Z</time>
</trkpt>
<trkpt lat="56.286655" lon="8.163465">
<ele>12.710994</ele>
<time>2026-07-13T09:29:25.000Z</time>
</trkpt>
<trkpt lat="56.286701" lon="8.163469">
<ele>12.705638</ele>
<time>2026-07-13T09:29:26.000Z</time>
</trkpt>
<trkpt lat="56.286751" lon="8.163480">
<ele>12.699780</ele>
<time>2026-07-13T09:29:27.000Z</time>
</trkpt>
<trkpt lat="56.286804" lon="8.163495">
<ele>12.693541</ele>
<time>2026-07-13T09:29:28.000Z</time>
</trkpt>
<trkpt lat="56.286861" lon="8.163497">
<ele>12.686911</ele>
<time>2026-07-13T09:29:29.000Z</time>
</trkpt>
<trkpt lat="56.286930" lon="8.163490">
<ele>12.678873</ele>
<time>2026-07-13T09:29:30.000Z</time>
</trkpt>
<trkpt lat="56.286991" lon="8.163472">
<ele>12.671685</ele>
<time>2026-07-13T09:29:31.000Z</time>
</trkpt>
<trkpt lat="56.287048" lon="8.163445">
<ele>12.664830</ele>
<time>2026-07-13T09:29:32.000Z</time>
</trkpt>
<trkpt lat="56.287106" lon="8.163415">
<ele>12.657813</ele>
<time>2026-07-13T09:29:33.000Z</time>
</trkpt>
<trkpt lat="56.287159" lon="8.163387">
<ele>12.651389</ele>
<time>2026-07-13T09:29:34.000Z</time>
</trkpt>
<trkpt lat="56.287209" lon="8.163368">
<ele>12.645446</ele>
<time>2026-07-13T09:29:35.000Z</time>
</trkpt>
<trkpt lat="56.287254" lon="8.163354">
<ele>12.640136</ele>
<time>2026-07-13T09:29:36.000Z</time>
</trkpt>
<trkpt lat="56.287300" lon="8.163335">
<ele>12.634647</ele>
<time>2026-07-13T09:29:37.000Z</time>
</trkpt>
<trkpt lat="56.287365" lon="8.163306">
<ele>12.626859</ele>
<time>2026-07-13T09:29:38.000Z</time>
</trkpt>
<trkpt lat="56.287422" lon="8.163278">
<ele>12.619989</ele>
<time>2026-07-13T09:29:39.000Z</time>
</trkpt>
<trkpt lat="56.287479" lon="8.163249">
<ele>12.614096</ele>
<time>2026-07-13T09:29:40.000Z</time>
</trkpt>
<trkpt lat="56.287533" lon="8.163219">
<ele>12.610367</ele>
<time>2026-07-13T09:29:41.000Z</time>
</trkpt>
<trkpt lat="56.287594" lon="8.163186">
<ele>12.606164</ele>
<time>2026-07-13T09:29:42.000Z</time>
</trkpt>
<trkpt lat="56.287655" lon="8.163154">
<ele>12.601972</ele>
<time>2026-07-13T09:29:43.000Z</time>
</trkpt>
<trkpt lat="56.287712" lon="8.163122">
<ele>12.598032</ele>
<time>2026-07-13T09:29:44.000Z</time>
</trkpt>
<trkpt lat="56.287766" lon="8.163086">
<ele>12.594232</ele>
<time>2026-07-13T09:29:45.000Z</time>
</trkpt>
<trkpt lat="56.287815" lon="8.163054">
<ele>12.590793</ele>
<time>2026-07-13T09:29:46.000Z</time>
</trkpt>
<trkpt lat="56.287861" lon="8.163023">
<ele>12.587552</ele>
<time>2026-07-13T09:29:47.000Z</time>
</trkpt>
<trkpt lat="56.287907" lon="8.162995">
<ele>12.584348</ele>
<time>2026-07-13T09:29:48.000Z</time>
</trkpt>
<trkpt lat="56.287952" lon="8.162971">
<ele>12.581251</ele>
<time>2026-07-13T09:29:49.000Z</time>
</trkpt>
<trkpt lat="56.287998" lon="8.162946">
<ele>12.578081</ele>
<time>2026-07-13T09:29:50.000Z</time>
</trkpt>
<trkpt lat="56.288040" lon="8.162919">
<ele>12.575138</ele>
<time>2026-07-13T09:29:51.000Z</time>
</trkpt>
<trkpt lat="56.288086" lon="8.162894">
<ele>12.571967</ele>
<time>2026-07-13T09:29:52.000Z</time>
</trkpt>
<trkpt lat="56.288132" lon="8.162873">
<ele>12.568836</ele>
<time>2026-07-13T09:29:53.000Z</time>
</trkpt>
<trkpt lat="56.288181" lon="8.162858">
<ele>12.565556</ele>
<time>2026-07-13T09:29:54.000Z</time>
</trkpt>
<trkpt lat="56.288227" lon="8.162847">
<ele>12.562494</ele>
<time>2026-07-13T09:29:55.000Z</time>
</trkpt>
<trkpt lat="56.288269" lon="8.162841">
<ele>12.559714</ele>
<time>2026-07-13T09:29:56.000Z</time>
</trkpt>
<trkpt lat="56.288326" lon="8.162841">
<ele>12.555952</ele>
<time>2026-07-13T09:29:57.000Z</time>
</trkpt>
<trkpt lat="56.288376" lon="8.162849">
<ele>12.552640</ele>
<time>2026-07-13T09:29:58.000Z</time>
</trkpt>
<trkpt lat="56.288422" lon="8.162853">
<ele>12.549601</ele>
<time>2026-07-13T09:29:59.000Z</time>
</trkpt>
<trkpt lat="56.288460" lon="8.162854">
<ele>12.547093</ele>
<time>2026-07-13T09:30:00.000Z</time>
</trkpt>
<trkpt lat="56.288494" lon="8.162857">
<ele>12.544847</ele>
<time>2026-07-13T09:30:01.000Z</time>
</trkpt>
<trkpt lat="56.288525" lon="8.162863">
<ele>12.542789</ele>
<time>2026-07-13T09:30:02.000Z</time>
</trkpt>
<trkpt lat="56.288559" lon="8.162869">
<ele>12.540535</ele>
<time>2026-07-13T09:30:03.000Z</time>
</trkpt>
<trkpt lat="56.288589" lon="8.162868">
<ele>12.538555</ele>
<time>2026-07-13T09:30:04.000Z</time>
</trkpt>
<trkpt lat="56.288624" lon="8.162869">
<ele>12.536245</ele>
<time>2026-07-13T09:30:05.000Z</time>
</trkpt>
<trkpt lat="56.288654" lon="8.162871">
<ele>12.534264</ele>
<time>2026-07-13T09:30:06.000Z</time>
</trkpt>
<trkpt lat="56.288685" lon="8.162879">
<ele>12.532198</ele>
<time>2026-07-13T09:30:07.000Z</time>
</trkpt>
<trkpt lat="56.288723" lon="8.162894">
<ele>12.529631</ele>
<time>2026-07-13T09:30:08.000Z</time>
</trkpt>
<trkpt lat="56.288776" lon="8.162911">
<ele>12.526078</ele>
<time>2026-07-13T09:30:09.000Z</time>
</trkpt>
<trkpt lat="56.288818" lon="8.162921">
<ele>12.523282</ele>
<time>2026-07-13T09:30:10.000Z</time>
</trkpt>
<trkpt lat="56.288856" lon="8.162924">
<ele>12.520772</ele>
<time>2026-07-13T09:30:11.000Z</time>
</trkpt>
<trkpt lat="56.288891" lon="8.162925">
<ele>12.518463</ele>
<time>2026-07-13T09:30:12.000Z</time>
</trkpt>
<trkpt lat="56.288933" lon="8.162919">
<ele>12.515682</ele>
<time>2026-07-13T09:30:13.000Z</time>
</trkpt>
<trkpt lat="56.288971" lon="8.162916">
<ele>12.513172</ele>
<time>2026-07-13T09:30:14.000Z</time>
</trkpt>
<trkpt lat="56.289013" lon="8.162913">
<ele>12.510399</ele>
<time>2026-07-13T09:30:15.000Z</time>
</trkpt>
<trkpt lat="56.289059" lon="8.162908">
<ele>12.507358</ele>
<time>2026-07-13T09:30:16.000Z</time>
</trkpt>
<trkpt lat="56.289104" lon="8.162900">
<ele>12.504374</ele>
<time>2026-07-13T09:30:17.000Z</time>
</trkpt>
<trkpt lat="56.289143" lon="8.162893">
<ele>12.501787</ele>
<time>2026-07-13T09:30:18.000Z</time>
</trkpt>
<trkpt lat="56.289185" lon="8.162887">
<ele>12.499007</ele>
<time>2026-07-13T09:30:19.000Z</time>
</trkpt>
<trkpt lat="56.289230" lon="8.162874">
<ele>12.494093</ele>
<time>2026-07-13T09:30:20.000Z</time>
</trkpt>
<trkpt lat="56.289288" lon="8.162860">
<ele>12.479883</ele>
<time>2026-07-13T09:30:21.000Z</time>
</trkpt>
<trkpt lat="56.289341" lon="8.162845">
<ele>12.466856</ele>
<time>2026-07-13T09:30:22.000Z</time>
</trkpt>
<trkpt lat="56.289394" lon="8.162817">
<ele>12.453444</ele>
<time>2026-07-13T09:30:23.000Z</time>
</trkpt>
<trkpt lat="56.289452" lon="8.162792">
<ele>12.438963</ele>
<time>2026-07-13T09:30:24.000Z</time>
</trkpt>
<trkpt lat="56.289501" lon="8.162769">
<ele>12.426668</ele>
<time>2026-07-13T09:30:25.000Z</time>
</trkpt>
<trkpt lat="56.289543" lon="8.162744">
<ele>12.415927</ele>
<time>2026-07-13T09:30:26.000Z</time>
</trkpt>
<trkpt lat="56.289581" lon="8.162714">
<ele>12.405853</ele>
<time>2026-07-13T09:30:27.000Z</time>
</trkpt>
<trkpt lat="56.289623" lon="8.162684">
<ele>12.394882</ele>
<time>2026-07-13T09:30:28.000Z</time>
</trkpt>
<trkpt lat="56.289665" lon="8.162659">
<ele>12.384141</ele>
<time>2026-07-13T09:30:29.000Z</time>
</trkpt>
<trkpt lat="56.289719" lon="8.162625">
<ele>12.370251</ele>
<time>2026-07-13T09:30:30.000Z</time>
</trkpt>
<trkpt lat="56.289780" lon="8.162578">
<ele>12.354141</ele>
<time>2026-07-13T09:30:31.000Z</time>
</trkpt>
<trkpt lat="56.289837" lon="8.162534">
<ele>12.339084</ele>
<time>2026-07-13T09:30:32.000Z</time>
</trkpt>
<trkpt lat="56.289894" lon="8.162499">
<ele>12.324461</ele>
<time>2026-07-13T09:30:33.000Z</time>
</trkpt>
<trkpt lat="56.289944" lon="8.162471">
<ele>12.311747</ele>
<time>2026-07-13T09:30:34.000Z</time>
</trkpt>
<trkpt lat="56.289993" lon="8.162438">
<ele>12.299045</ele>
<time>2026-07-13T09:30:35.000Z</time>
</trkpt>
<trkpt lat="56.290047" lon="8.162400">
<ele>12.284968</ele>
<time>2026-07-13T09:30:36.000Z</time>
</trkpt>
<trkpt lat="56.290104" lon="8.162362">
<ele>12.270210</ele>
<time>2026-07-13T09:30:37.000Z</time>
</trkpt>
<trkpt lat="56.290161" lon="8.162324">
<ele>12.255452</ele>
<time>2026-07-13T09:30:38.000Z</time>
</trkpt>
<trkpt lat="56.290215" lon="8.162291">
<ele>12.241606</ele>
<time>2026-07-13T09:30:39.000Z</time>
</trkpt>
<trkpt lat="56.290260" lon="8.162258">
<ele>12.229808</ele>
<time>2026-07-13T09:30:40.000Z</time>
</trkpt>
<trkpt lat="56.290314" lon="8.162226">
<ele>12.216005</ele>
<time>2026-07-13T09:30:41.000Z</time>
</trkpt>
<trkpt lat="56.290367" lon="8.162190">
<ele>12.202251</ele>
<time>2026-07-13T09:30:42.000Z</time>
</trkpt>
<trkpt lat="56.290421" lon="8.162153">
<ele>12.188222</ele>
<time>2026-07-13T09:30:43.000Z</time>
</trkpt>
<trkpt lat="56.290466" lon="8.162120">
<ele>12.176425</ele>
<time>2026-07-13T09:30:44.000Z</time>
</trkpt>
<trkpt lat="56.290516" lon="8.162088">
<ele>12.163541</ele>
<time>2026-07-13T09:30:45.000Z</time>
</trkpt>
<trkpt lat="56.290565" lon="8.162054">
<ele>12.150791</ele>
<time>2026-07-13T09:30:46.000Z</time>
</trkpt>
<trkpt lat="56.290615" lon="8.162017">
<ele>12.137665</ele>
<time>2026-07-13T09:30:47.000Z</time>
</trkpt>
<trkpt lat="56.290668" lon="8.161975">
<ele>12.123606</ele>
<time>2026-07-13T09:30:48.000Z</time>
</trkpt>
<trkpt lat="56.290718" lon="8.161933">
<ele>12.110210</ele>
<time>2026-07-13T09:30:49.000Z</time>
</trkpt>
<trkpt lat="56.290768" lon="8.161892">
<ele>12.096871</ele>
<time>2026-07-13T09:30:50.000Z</time>
</trkpt>
<trkpt lat="56.290813" lon="8.161857">
<ele>12.084969</ele>
<time>2026-07-13T09:30:51.000Z</time>
</trkpt>
<trkpt lat="56.290859" lon="8.161825">
<ele>12.072996</ele>
<time>2026-07-13T09:30:52.000Z</time>
</trkpt>
<trkpt lat="56.290905" lon="8.161791">
<ele>12.060923</ele>
<time>2026-07-13T09:30:53.000Z</time>
</trkpt>
<trkpt lat="56.290951" lon="8.161754">
<ele>12.015884</ele>
<time>2026-07-13T09:30:54.000Z</time>
</trkpt>
<trkpt lat="56.290997" lon="8.161716">
<ele>11.967816</ele>
<time>2026-07-13T09:30:55.000Z</time>
</trkpt>
<trkpt lat="56.291035" lon="8.161683">
<ele>11.927746</ele>
<time>2026-07-13T09:30:56.000Z</time>
</trkpt>
<trkpt lat="56.291088" lon="8.161640">
<ele>11.872534</ele>
<time>2026-07-13T09:30:57.000Z</time>
</trkpt>
<trkpt lat="56.291138" lon="8.161600">
<ele>11.820569</ele>
<time>2026-07-13T09:30:58.000Z</time>
</trkpt>
<trkpt lat="56.291183" lon="8.161564">
<ele>11.773800</ele>
<time>2026-07-13T09:30:59.000Z</time>
</trkpt>
<trkpt lat="56.291225" lon="8.161531">
<ele>11.730276</ele>
<time>2026-07-13T09:31:00.000Z</time>
</trkpt>
<trkpt lat="56.291267" lon="8.161500">
<ele>11.687163</ele>
<time>2026-07-13T09:31:01.000Z</time>
</trkpt>
<trkpt lat="56.291313" lon="8.161469">
<ele>11.640512</ele>
<time>2026-07-13T09:31:02.000Z</time>
</trkpt>
<trkpt lat="56.291359" lon="8.161438">
<ele>11.593861</ele>
<time>2026-07-13T09:31:03.000Z</time>
</trkpt>
<trkpt lat="56.291397" lon="8.161409">
<ele>11.554661</ele>
<time>2026-07-13T09:31:04.000Z</time>
</trkpt>
<trkpt lat="56.291435" lon="8.161381">
<ele>11.515664</ele>
<time>2026-07-13T09:31:05.000Z</time>
</trkpt>
<trkpt lat="56.291473" lon="8.161349">
<ele>11.475821</ele>
<time>2026-07-13T09:31:06.000Z</time>
</trkpt>
<trkpt lat="56.291515" lon="8.161309">
<ele>11.430695</ele>
<time>2026-07-13T09:31:07.000Z</time>
</trkpt>
<trkpt lat="56.291557" lon="8.161266">
<ele>11.384810</ele>
<time>2026-07-13T09:31:08.000Z</time>
</trkpt>
<trkpt lat="56.291599" lon="8.161225">
<ele>11.339436</ele>
<time>2026-07-13T09:31:09.000Z</time>
</trkpt>
<trkpt lat="56.291645" lon="8.161187">
<ele>11.291368</ele>
<time>2026-07-13T09:31:10.000Z</time>
</trkpt>
<trkpt lat="56.291687" lon="8.161154">
<ele>11.247844</ele>
<time>2026-07-13T09:31:11.000Z</time>
</trkpt>
<trkpt lat="56.291729" lon="8.161118">
<ele>11.203665</ele>
<time>2026-07-13T09:31:12.000Z</time>
</trkpt>
<trkpt lat="56.291771" lon="8.161081">
<ele>11.159257</ele>
<time>2026-07-13T09:31:13.000Z</time>
</trkpt>
<trkpt lat="56.291821" lon="8.161050">
<ele>11.109029</ele>
<time>2026-07-13T09:31:14.000Z</time>
</trkpt>
<trkpt lat="56.291862" lon="8.161022">
<ele>11.067381</ele>
<time>2026-07-13T09:31:15.000Z</time>
</trkpt>
<trkpt lat="56.291904" lon="8.160998">
<ele>11.025527</ele>
<time>2026-07-13T09:31:16.000Z</time>
</trkpt>
<trkpt lat="56.291950" lon="8.160974">
<ele>10.980037</ele>
<time>2026-07-13T09:31:17.000Z</time>
</trkpt>
<trkpt lat="56.291992" lon="8.160950">
<ele>10.938184</ele>
<time>2026-07-13T09:31:18.000Z</time>
</trkpt>
<trkpt lat="56.292034" lon="8.160931">
<ele>10.897050</ele>
<time>2026-07-13T09:31:19.000Z</time>
</trkpt>
<trkpt lat="56.292080" lon="8.160915">
<ele>10.852548</ele>
<time>2026-07-13T09:31:20.000Z</time>
</trkpt>
<trkpt lat="56.292126" lon="8.160903">
<ele>10.808398</ele>
<time>2026-07-13T09:31:21.000Z</time>
</trkpt>
<trkpt lat="56.292171" lon="8.160889">
<ele>10.765020</ele>
<time>2026-07-13T09:31:22.000Z</time>
</trkpt>
<trkpt lat="56.292221" lon="8.160872">
<ele>10.716687</ele>
<time>2026-07-13T09:31:23.000Z</time>
</trkpt>
<trkpt lat="56.292271" lon="8.160850">
<ele>10.667797</ele>
<time>2026-07-13T09:31:24.000Z</time>
</trkpt>
<trkpt lat="56.292332" lon="8.160816">
<ele>10.607145</ele>
<time>2026-07-13T09:31:25.000Z</time>
</trkpt>
<trkpt lat="56.292389" lon="8.160784">
<ele>10.550434</ele>
<time>2026-07-13T09:31:26.000Z</time>
</trkpt>
<trkpt lat="56.292446" lon="8.160746">
<ele>10.492703</ele>
<time>2026-07-13T09:31:27.000Z</time>
</trkpt>
<trkpt lat="56.292496" lon="8.160706">
<ele>10.440738</ele>
<time>2026-07-13T09:31:28.000Z</time>
</trkpt>
<trkpt lat="56.292545" lon="8.160660">
<ele>10.388256</ele>
<time>2026-07-13T09:31:29.000Z</time>
</trkpt>
<trkpt lat="56.292591" lon="8.160610">
<ele>10.341242</ele>
<time>2026-07-13T09:31:30.000Z</time>
</trkpt>
<trkpt lat="56.292637" lon="8.160555">
<ele>10.303620</ele>
<time>2026-07-13T09:31:31.000Z</time>
</trkpt>
<trkpt lat="56.292683" lon="8.160494">
<ele>10.264697</ele>
<time>2026-07-13T09:31:32.000Z</time>
</trkpt>
<trkpt lat="56.292732" lon="8.160427">
<ele>10.222779</ele>
<time>2026-07-13T09:31:33.000Z</time>
</trkpt>
<trkpt lat="56.292778" lon="8.160363">
<ele>10.183173</ele>
<time>2026-07-13T09:31:34.000Z</time>
</trkpt>
<trkpt lat="56.292831" lon="8.160297">
<ele>10.139268</ele>
<time>2026-07-13T09:31:35.000Z</time>
</trkpt>
<trkpt lat="56.292889" lon="8.160228">
<ele>10.091905</ele>
<time>2026-07-13T09:31:36.000Z</time>
</trkpt>
<trkpt lat="56.292938" lon="8.160162">
<ele>10.050213</ele>
<time>2026-07-13T09:31:37.000Z</time>
</trkpt>
<trkpt lat="56.292984" lon="8.160099">
<ele>10.010838</ele>
<time>2026-07-13T09:31:38.000Z</time>
</trkpt>
<trkpt lat="56.293026" lon="8.160036">
<ele>9.973596</ele>
<time>2026-07-13T09:31:39.000Z</time>
</trkpt>
<trkpt lat="56.293068" lon="8.159980">
<ele>9.937990</ele>
<time>2026-07-13T09:31:40.000Z</time>
</trkpt>
<trkpt lat="56.293114" lon="8.159928">
<ele>9.900983</ele>
<time>2026-07-13T09:31:41.000Z</time>
</trkpt>
<trkpt lat="56.293160" lon="8.159882">
<ele>9.865131</ele>
<time>2026-07-13T09:31:42.000Z</time>
</trkpt>
<trkpt lat="56.293209" lon="8.159836">
<ele>9.827478</ele>
<time>2026-07-13T09:31:43.000Z</time>
</trkpt>
<trkpt lat="56.293259" lon="8.159791">
<ele>9.789390</ele>
<time>2026-07-13T09:31:44.000Z</time>
</trkpt>
<trkpt lat="56.293308" lon="8.159749">
<ele>9.752411</ele>
<time>2026-07-13T09:31:45.000Z</time>
</trkpt>
<trkpt lat="56.293365" lon="8.159705">
<ele>9.710152</ele>
<time>2026-07-13T09:31:46.000Z</time>
</trkpt>
<trkpt lat="56.293415" lon="8.159665">
<ele>9.672870</ele>
<time>2026-07-13T09:31:47.000Z</time>
</trkpt>
<trkpt lat="56.293468" lon="8.159626">
<ele>9.633856</ele>
<time>2026-07-13T09:31:48.000Z</time>
</trkpt>
<trkpt lat="56.293522" lon="8.159588">
<ele>9.594349</ele>
<time>2026-07-13T09:31:49.000Z</time>
</trkpt>
<trkpt lat="56.293579" lon="8.159546">
<ele>9.552381</ele>
<time>2026-07-13T09:31:50.000Z</time>
</trkpt>
<trkpt lat="56.293640" lon="8.159488">
<ele>9.505378</ele>
<time>2026-07-13T09:31:51.000Z</time>
</trkpt>
<trkpt lat="56.293694" lon="8.159438">
<ele>9.464004</ele>
<time>2026-07-13T09:31:52.000Z</time>
</trkpt>
<trkpt lat="56.293747" lon="8.159388">
<ele>9.423234</ele>
<time>2026-07-13T09:31:53.000Z</time>
</trkpt>
<trkpt lat="56.293800" lon="8.159339">
<ele>9.382639</ele>
<time>2026-07-13T09:31:54.000Z</time>
</trkpt>
<trkpt lat="56.293846" lon="8.159286">
<ele>9.345430</ele>
<time>2026-07-13T09:31:55.000Z</time>
</trkpt>
<trkpt lat="56.293896" lon="8.159231">
<ele>9.305508</ele>
<time>2026-07-13T09:31:56.000Z</time>
</trkpt>
<trkpt lat="56.293941" lon="8.159184">
<ele>9.270062</ele>
<time>2026-07-13T09:31:57.000Z</time>
</trkpt>
<trkpt lat="56.293980" lon="8.159135">
<ele>9.237662</ele>
<time>2026-07-13T09:31:58.000Z</time>
</trkpt>
<trkpt lat="56.294022" lon="8.159080">
<ele>9.202280</ele>
<time>2026-07-13T09:31:59.000Z</time>
</trkpt>
<trkpt lat="56.294060" lon="8.159021">
<ele>9.168096</ele>
<time>2026-07-13T09:32:00.000Z</time>
</trkpt>
<trkpt lat="56.294098" lon="8.158954">
<ele>9.131865</ele>
<time>2026-07-13T09:32:01.000Z</time>
</trkpt>
<trkpt lat="56.294144" lon="8.158881">
<ele>9.097841</ele>
<time>2026-07-13T09:32:02.000Z</time>
</trkpt>
<trkpt lat="56.294189" lon="8.158808">
<ele>9.065564</ele>
<time>2026-07-13T09:32:03.000Z</time>
</trkpt>
<trkpt lat="56.294235" lon="8.158732">
<ele>9.032295</ele>
<time>2026-07-13T09:32:04.000Z</time>
</trkpt>
<trkpt lat="56.294277" lon="8.158656">
<ele>9.000565</ele>
<time>2026-07-13T09:32:05.000Z</time>
</trkpt>
<trkpt lat="56.294319" lon="8.158574">
<ele>8.967553</ele>
<time>2026-07-13T09:32:06.000Z</time>
</trkpt>
<trkpt lat="56.294357" lon="8.158492">
<ele>8.935949</ele>
<time>2026-07-13T09:32:07.000Z</time>
</trkpt>
<trkpt lat="56.294392" lon="8.158413">
<ele>8.906045</ele>
<time>2026-07-13T09:32:08.000Z</time>
</trkpt>
<trkpt lat="56.294426" lon="8.158334">
<ele>8.876469</ele>
<time>2026-07-13T09:32:09.000Z</time>
</trkpt>
<trkpt lat="56.294456" lon="8.158262">
<ele>8.849834</ele>
<time>2026-07-13T09:32:10.000Z</time>
</trkpt>
<trkpt lat="56.294487" lon="8.158194">
<ele>8.823800</ele>
<time>2026-07-13T09:32:11.000Z</time>
</trkpt>
<trkpt lat="56.294525" lon="8.158124">
<ele>8.794832</ele>
<time>2026-07-13T09:32:12.000Z</time>
</trkpt>
<trkpt lat="56.294559" lon="8.158064">
<ele>8.769463</ele>
<time>2026-07-13T09:32:13.000Z</time>
</trkpt>
<trkpt lat="56.294586" lon="8.158000">
<ele>8.745680</ele>
<time>2026-07-13T09:32:14.000Z</time>
</trkpt>
<trkpt lat="56.294605" lon="8.157936">
<ele>8.724208</ele>
<time>2026-07-13T09:32:15.000Z</time>
</trkpt>
<trkpt lat="56.294628" lon="8.157876">
<ele>8.702636</ele>
<time>2026-07-13T09:32:16.000Z</time>
</trkpt>
<trkpt lat="56.294651" lon="8.157820">
<ele>8.682026</ele>
<time>2026-07-13T09:32:17.000Z</time>
</trkpt>
<trkpt lat="56.294689" lon="8.157745">
<ele>8.651982</ele>
<time>2026-07-13T09:32:18.000Z</time>
</trkpt>
<trkpt lat="56.294720" lon="8.157685">
<ele>8.627730</ele>
<time>2026-07-13T09:32:19.000Z</time>
</trkpt>
<trkpt lat="56.294758" lon="8.157620">
<ele>8.599800</ele>
<time>2026-07-13T09:32:20.000Z</time>
</trkpt>
<trkpt lat="56.294788" lon="8.157572">
<ele>8.578413</ele>
<time>2026-07-13T09:32:21.000Z</time>
</trkpt>
<trkpt lat="56.294823" lon="8.157529">
<ele>8.555831</ele>
<time>2026-07-13T09:32:22.000Z</time>
</trkpt>
<trkpt lat="56.294853" lon="8.157490">
<ele>8.536111</ele>
<time>2026-07-13T09:32:23.000Z</time>
</trkpt>
<trkpt lat="56.294888" lon="8.157461">
<ele>8.515575</ele>
<time>2026-07-13T09:32:24.000Z</time>
</trkpt>
<trkpt lat="56.294930" lon="8.157434">
<ele>8.491804</ele>
<time>2026-07-13T09:32:25.000Z</time>
</trkpt>
<trkpt lat="56.294975" lon="8.157401">
<ele>8.465904</ele>
<time>2026-07-13T09:32:26.000Z</time>
</trkpt>
<trkpt lat="56.295017" lon="8.157367">
<ele>8.441359</ele>
<time>2026-07-13T09:32:27.000Z</time>
</trkpt>
<trkpt lat="56.295059" lon="8.157335">
<ele>8.417050</ele>
<time>2026-07-13T09:32:28.000Z</time>
</trkpt>
<trkpt lat="56.295105" lon="8.157303">
<ele>8.390764</ele>
<time>2026-07-13T09:32:29.000Z</time>
</trkpt>
<trkpt lat="56.295155" lon="8.157274">
<ele>8.362763</ele>
<time>2026-07-13T09:32:30.000Z</time>
</trkpt>
<trkpt lat="56.295204" lon="8.157252">
<ele>8.335843</ele>
<time>2026-07-13T09:32:31.000Z</time>
</trkpt>
<trkpt lat="56.295261" lon="8.157228">
<ele>8.304638</ele>
<time>2026-07-13T09:32:32.000Z</time>
</trkpt>
<trkpt lat="56.295326" lon="8.157202">
<ele>8.269144</ele>
<time>2026-07-13T09:32:33.000Z</time>
</trkpt>
<trkpt lat="56.295391" lon="8.157178">
<ele>8.233773</ele>
<time>2026-07-13T09:32:34.000Z</time>
</trkpt>
<trkpt lat="56.295456" lon="8.157156">
<ele>8.198517</ele>
<time>2026-07-13T09:32:35.000Z</time>
</trkpt>
<trkpt lat="56.295517" lon="8.157129">
<ele>8.163500</ele>
<time>2026-07-13T09:32:36.000Z</time>
</trkpt>
<trkpt lat="56.295582" lon="8.157106">
<ele>8.098122</ele>
<time>2026-07-13T09:32:37.000Z</time>
</trkpt>
<trkpt lat="56.295654" lon="8.157089">
<ele>8.026453</ele>
<time>2026-07-13T09:32:38.000Z</time>
</trkpt>
<trkpt lat="56.295715" lon="8.157080">
<ele>7.966046</ele>
<time>2026-07-13T09:32:39.000Z</time>
</trkpt>
<trkpt lat="56.295773" lon="8.157066">
<ele>7.908291</ele>
<time>2026-07-13T09:32:40.000Z</time>
</trkpt>
<trkpt lat="56.295830" lon="8.157050">
<ele>7.851355</ele>
<time>2026-07-13T09:32:41.000Z</time>
</trkpt>
<trkpt lat="56.295883" lon="8.157037">
<ele>7.798564</ele>
<time>2026-07-13T09:32:42.000Z</time>
</trkpt>
<trkpt lat="56.295933" lon="8.157025">
<ele>7.748780</ele>
<time>2026-07-13T09:32:43.000Z</time>
</trkpt>
<trkpt lat="56.295982" lon="8.157004">
<ele>7.699069</ele>
<time>2026-07-13T09:32:44.000Z</time>
</trkpt>
<trkpt lat="56.296032" lon="8.156977">
<ele>7.647553</ele>
<time>2026-07-13T09:32:45.000Z</time>
</trkpt>
<trkpt lat="56.296082" lon="8.156948">
<ele>7.595712</ele>
<time>2026-07-13T09:32:46.000Z</time>
</trkpt>
<trkpt lat="56.296146" lon="8.156916">
<ele>7.530160</ele>
<time>2026-07-13T09:32:47.000Z</time>
</trkpt>
<trkpt lat="56.296207" lon="8.156886">
<ele>7.467753</ele>
<time>2026-07-13T09:32:48.000Z</time>
</trkpt>
<trkpt lat="56.296268" lon="8.156861">
<ele>7.406011</ele>
<time>2026-07-13T09:32:49.000Z</time>
</trkpt>
<trkpt lat="56.296329" lon="8.156839">
<ele>7.344612</ele>
<time>2026-07-13T09:32:50.000Z</time>
</trkpt>
<trkpt lat="56.296383" lon="8.156816">
<ele>7.289847</ele>
<time>2026-07-13T09:32:51.000Z</time>
</trkpt>
<trkpt lat="56.296440" lon="8.156795">
<ele>7.232427</ele>
<time>2026-07-13T09:32:52.000Z</time>
</trkpt>
<trkpt lat="56.296497" lon="8.156778">
<ele>7.175404</ele>
<time>2026-07-13T09:32:53.000Z</time>
</trkpt>
<trkpt lat="56.296555" lon="8.156765">
<ele>7.117719</ele>
<time>2026-07-13T09:32:54.000Z</time>
</trkpt>
<trkpt lat="56.296616" lon="8.156754">
<ele>7.057213</ele>
<time>2026-07-13T09:32:55.000Z</time>
</trkpt>
<trkpt lat="56.296673" lon="8.156738">
<ele>7.000278</ele>
<time>2026-07-13T09:32:56.000Z</time>
</trkpt>
<trkpt lat="56.296734" lon="8.156722">
<ele>6.939438</ele>
<time>2026-07-13T09:32:57.000Z</time>
</trkpt>
<trkpt lat="56.296795" lon="8.156710">
<ele>6.878876</ele>
<time>2026-07-13T09:32:58.000Z</time>
</trkpt>
<trkpt lat="56.296860" lon="8.156697">
<ele>6.814329</ele>
<time>2026-07-13T09:32:59.000Z</time>
</trkpt>
<trkpt lat="56.296921" lon="8.156680">
<ele>6.753408</ele>
<time>2026-07-13T09:33:00.000Z</time>
</trkpt>
<trkpt lat="56.296986" lon="8.156658">
<ele>6.688134</ele>
<time>2026-07-13T09:33:01.000Z</time>
</trkpt>
<trkpt lat="56.297050" lon="8.156631">
<ele>6.623260</ele>
<time>2026-07-13T09:33:02.000Z</time>
</trkpt>
<trkpt lat="56.297111" lon="8.156601">
<ele>6.560853</ele>
<time>2026-07-13T09:33:03.000Z</time>
</trkpt>
<trkpt lat="56.297173" lon="8.156569">
<ele>6.497201</ele>
<time>2026-07-13T09:33:04.000Z</time>
</trkpt>
<trkpt lat="56.297230" lon="8.156536">
<ele>6.438113</ele>
<time>2026-07-13T09:33:05.000Z</time>
</trkpt>
<trkpt lat="56.297287" lon="8.156504">
<ele>6.390903</ele>
<time>2026-07-13T09:33:06.000Z</time>
</trkpt>
<trkpt lat="56.297344" lon="8.156470">
<ele>6.387458</ele>
<time>2026-07-13T09:33:07.000Z</time>
</trkpt>
<trkpt lat="56.297394" lon="8.156435">
<ele>6.384381</ele>
<time>2026-07-13T09:33:08.000Z</time>
</trkpt>
<trkpt lat="56.297447" lon="8.156402">
<ele>6.381163</ele>
<time>2026-07-13T09:33:09.000Z</time>
</trkpt>
<trkpt lat="56.297497" lon="8.156371">
<ele>6.378129</ele>
<time>2026-07-13T09:33:10.000Z</time>
</trkpt>
<trkpt lat="56.297543" lon="8.156340">
<ele>6.375311</ele>
<time>2026-07-13T09:33:11.000Z</time>
</trkpt>
<trkpt lat="56.297592" lon="8.156305">
<ele>6.372287</ele>
<time>2026-07-13T09:33:12.000Z</time>
</trkpt>
<trkpt lat="56.297646" lon="8.156268">
<ele>6.368972</ele>
<time>2026-07-13T09:33:13.000Z</time>
</trkpt>
<trkpt lat="56.297699" lon="8.156231">
<ele>6.365711</ele>
<time>2026-07-13T09:33:14.000Z</time>
</trkpt>
<trkpt lat="56.297752" lon="8.156196">
<ele>6.362472</ele>
<time>2026-07-13T09:33:15.000Z</time>
</trkpt>
<trkpt lat="56.297802" lon="8.156161">
<ele>6.359395</ele>
<time>2026-07-13T09:33:16.000Z</time>
</trkpt>
<trkpt lat="56.297852" lon="8.156126">
<ele>6.356317</ele>
<time>2026-07-13T09:33:17.000Z</time>
</trkpt>
<trkpt lat="56.297901" lon="8.156088">
<ele>6.353256</ele>
<time>2026-07-13T09:33:18.000Z</time>
</trkpt>
<trkpt lat="56.297951" lon="8.156050">
<ele>6.350143</ele>
<time>2026-07-13T09:33:19.000Z</time>
</trkpt>
<trkpt lat="56.298000" lon="8.156014">
<ele>6.347106</ele>
<time>2026-07-13T09:33:20.000Z</time>
</trkpt>
<trkpt lat="56.298046" lon="8.155983">
<ele>6.344288</ele>
<time>2026-07-13T09:33:21.000Z</time>
</trkpt>
<trkpt lat="56.298092" lon="8.155952">
<ele>6.341471</ele>
<time>2026-07-13T09:33:22.000Z</time>
</trkpt>
<trkpt lat="56.298138" lon="8.155920">
<ele>6.338641</ele>
<time>2026-07-13T09:33:23.000Z</time>
</trkpt>
<trkpt lat="56.298180" lon="8.155887">
<ele>6.336012</ele>
<time>2026-07-13T09:33:24.000Z</time>
</trkpt>
<trkpt lat="56.298214" lon="8.155859">
<ele>6.333868</ele>
<time>2026-07-13T09:33:25.000Z</time>
</trkpt>
<trkpt lat="56.298252" lon="8.155831">
<ele>6.331512</ele>
<time>2026-07-13T09:33:26.000Z</time>
</trkpt>
<trkpt lat="56.298286" lon="8.155808">
<ele>6.329428</ele>
<time>2026-07-13T09:33:27.000Z</time>
</trkpt>
<trkpt lat="56.298317" lon="8.155789">
<ele>6.327549</ele>
<time>2026-07-13T09:33:28.000Z</time>
</trkpt>
<trkpt lat="56.298347" lon="8.155777">
<ele>6.325786</ele>
<time>2026-07-13T09:33:29.000Z</time>
</trkpt>
<trkpt lat="56.298370" lon="8.155771">
<ele>6.324453</ele>
<time>2026-07-13T09:33:30.000Z</time>
</trkpt>
<trkpt lat="56.298386" lon="8.155767">
<ele>6.323526</ele>
<time>2026-07-13T09:33:31.000Z</time>
</trkpt>
<trkpt lat="56.298405" lon="8.155762">
<ele>6.322424</ele>
<time>2026-07-13T09:33:32.000Z</time>
</trkpt>
<trkpt lat="56.298416" lon="8.155758">
<ele>6.321780</ele>
<time>2026-07-13T09:33:33.000Z</time>
</trkpt>
<trkpt lat="56.298424" lon="8.155756">
<ele>6.321317</ele>
<time>2026-07-13T09:33:34.000Z</time>
</trkpt>
<trkpt lat="56.298443" lon="8.155745">
<ele>6.320172</ele>
<time>2026-07-13T09:33:36.000Z</time>
</trkpt>
<trkpt lat="56.298451" lon="8.155735">
<ele>6.319613</ele>
<time>2026-07-13T09:33:37.000Z</time>
</trkpt>
<trkpt lat="56.298458" lon="8.155726">
<ele>6.319120</ele>
<time>2026-07-13T09:33:38.000Z</time>
</trkpt>
<trkpt lat="56.298466" lon="8.155713">
<ele>6.318502</ele>
<time>2026-07-13T09:33:39.000Z</time>
</trkpt>
<trkpt lat="56.298477" lon="8.155700">
<ele>6.317747</ele>
<time>2026-07-13T09:33:40.000Z</time>
</trkpt>
<trkpt lat="56.298489" lon="8.155683">
<ele>6.316871</ele>
<time>2026-07-13T09:33:41.000Z</time>
</trkpt>
<trkpt lat="56.298504" lon="8.155661">
<ele>6.315762</ele>
<time>2026-07-13T09:33:42.000Z</time>
</trkpt>
<trkpt lat="56.298523" lon="8.155641">
<ele>6.314499</ele>
<time>2026-07-13T09:33:43.000Z</time>
</trkpt>
<trkpt lat="56.298553" lon="8.155618">
<ele>6.312628</ele>
<time>2026-07-13T09:33:44.000Z</time>
</trkpt>
<trkpt lat="56.298580" lon="8.155595">
<ele>6.310915</ele>
<time>2026-07-13T09:33:45.000Z</time>
</trkpt>
<trkpt lat="56.298615" lon="8.155570">
<ele>6.308755</ele>
<time>2026-07-13T09:33:46.000Z</time>
</trkpt>
<trkpt lat="56.298649" lon="8.155545">
<ele>6.306648</ele>
<time>2026-07-13T09:33:47.000Z</time>
</trkpt>
<trkpt lat="56.298683" lon="8.155521">
<ele>6.304553</ele>
<time>2026-07-13T09:33:48.000Z</time>
</trkpt>
<trkpt lat="56.298714" lon="8.155498">
<ele>6.302629</ele>
<time>2026-07-13T09:33:49.000Z</time>
</trkpt>
<trkpt lat="56.298756" lon="8.155474">
<ele>6.300101</ele>
<time>2026-07-13T09:33:50.000Z</time>
</trkpt>
<trkpt lat="56.298790" lon="8.155450">
<ele>6.298006</ele>
<time>2026-07-13T09:33:51.000Z</time>
</trkpt>
<trkpt lat="56.298824" lon="8.155423">
<ele>6.295874</ele>
<time>2026-07-13T09:33:52.000Z</time>
</trkpt>
<trkpt lat="56.298859" lon="8.155398">
<ele>6.293714</ele>
<time>2026-07-13T09:33:53.000Z</time>
</trkpt>
<trkpt lat="56.298893" lon="8.155375">
<ele>6.291630</ele>
<time>2026-07-13T09:33:54.000Z</time>
</trkpt>
<trkpt lat="56.298927" lon="8.155351">
<ele>6.289535</ele>
<time>2026-07-13T09:33:55.000Z</time>
</trkpt>
<trkpt lat="56.298962" lon="8.155329">
<ele>6.281362</ele>
<time>2026-07-13T09:33:56.000Z</time>
</trkpt>
<trkpt lat="56.298992" lon="8.155308">
<ele>6.268525</ele>
<time>2026-07-13T09:33:57.000Z</time>
</trkpt>
<trkpt lat="56.299023" lon="8.155286">
<ele>6.255235</ele>
<time>2026-07-13T09:33:58.000Z</time>
</trkpt>
<trkpt lat="56.299053" lon="8.155263">
<ele>6.242231</ele>
<time>2026-07-13T09:33:59.000Z</time>
</trkpt>
<trkpt lat="56.299084" lon="8.155240">
<ele>6.228859</ele>
<time>2026-07-13T09:34:00.000Z</time>
</trkpt>
<trkpt lat="56.299114" lon="8.155218">
<ele>6.215940</ele>
<time>2026-07-13T09:34:01.000Z</time>
</trkpt>
<trkpt lat="56.299149" lon="8.155192">
<ele>6.200840</ele>
<time>2026-07-13T09:34:02.000Z</time>
</trkpt>
<trkpt lat="56.299187" lon="8.155164">
<ele>6.184465</ele>
<time>2026-07-13T09:34:03.000Z</time>
</trkpt>
<trkpt lat="56.299229" lon="8.155134">
<ele>6.166444</ele>
<time>2026-07-13T09:34:04.000Z</time>
</trkpt>
<trkpt lat="56.299263" lon="8.155108">
<ele>6.151712</ele>
<time>2026-07-13T09:34:05.000Z</time>
</trkpt>
<trkpt lat="56.299305" lon="8.155082">
<ele>6.133998</ele>
<time>2026-07-13T09:34:06.000Z</time>
</trkpt>
<trkpt lat="56.299343" lon="8.155055">
<ele>6.117705</ele>
<time>2026-07-13T09:34:07.000Z</time>
</trkpt>
<trkpt lat="56.299381" lon="8.155027">
<ele>6.101330</ele>
<time>2026-07-13T09:34:08.000Z</time>
</trkpt>
<trkpt lat="56.299427" lon="8.155000">
<ele>6.082033</ele>
<time>2026-07-13T09:34:09.000Z</time>
</trkpt>
<trkpt lat="56.299465" lon="8.154970">
<ele>6.065485</ele>
<time>2026-07-13T09:34:10.000Z</time>
</trkpt>
<trkpt lat="56.299511" lon="8.154937">
<ele>6.045736</ele>
<time>2026-07-13T09:34:11.000Z</time>
</trkpt>
<trkpt lat="56.299553" lon="8.154903">
<ele>6.027371</ele>
<time>2026-07-13T09:34:12.000Z</time>
</trkpt>
<trkpt lat="56.299599" lon="8.154875">
<ele>6.008004</ele>
<time>2026-07-13T09:34:13.000Z</time>
</trkpt>
<trkpt lat="56.299645" lon="8.154846">
<ele>5.988566</ele>
<time>2026-07-13T09:34:14.000Z</time>
</trkpt>
<trkpt lat="56.299690" lon="8.154817">
<ele>5.969503</ele>
<time>2026-07-13T09:34:15.000Z</time>
</trkpt>
<trkpt lat="56.299736" lon="8.154787">
<ele>5.949990</ele>
<time>2026-07-13T09:34:16.000Z</time>
</trkpt>
<trkpt lat="56.299782" lon="8.154761">
<ele>5.930761</ele>
<time>2026-07-13T09:34:17.000Z</time>
</trkpt>
<trkpt lat="56.299828" lon="8.154736">
<ele>5.911596</ele>
<time>2026-07-13T09:34:18.000Z</time>
</trkpt>
<trkpt lat="56.299873" lon="8.154706">
<ele>5.892458</ele>
<time>2026-07-13T09:34:19.000Z</time>
</trkpt>
<trkpt lat="56.299915" lon="8.154673">
<ele>5.874182</ele>
<time>2026-07-13T09:34:20.000Z</time>
</trkpt>
<trkpt lat="56.299969" lon="8.154637">
<ele>5.851217</ele>
<time>2026-07-13T09:34:21.000Z</time>
</trkpt>
<trkpt lat="56.300026" lon="8.154595">
<ele>5.826654</ele>
<time>2026-07-13T09:34:22.000Z</time>
</trkpt>
<trkpt lat="56.300087" lon="8.154540">
<ele>5.799447</ele>
<time>2026-07-13T09:34:23.000Z</time>
</trkpt>
<trkpt lat="56.300144" lon="8.154489">
<ele>5.774064</ele>
<time>2026-07-13T09:34:24.000Z</time>
</trkpt>
<trkpt lat="56.300198" lon="8.154444">
<ele>5.750333</ele>
<time>2026-07-13T09:34:25.000Z</time>
</trkpt>
<trkpt lat="56.300259" lon="8.154393">
<ele>5.723511</ele>
<time>2026-07-13T09:34:26.000Z</time>
</trkpt>
<trkpt lat="56.300312" lon="8.154352">
<ele>5.700505</ele>
<time>2026-07-13T09:34:27.000Z</time>
</trkpt>
<trkpt lat="56.300362" lon="8.154311">
<ele>5.678594</ele>
<time>2026-07-13T09:34:28.000Z</time>
</trkpt>
<trkpt lat="56.300407" lon="8.154273">
<ele>5.658772</ele>
<time>2026-07-13T09:34:29.000Z</time>
</trkpt>
<trkpt lat="56.300457" lon="8.154236">
<ele>5.637212</ele>
<time>2026-07-13T09:34:30.000Z</time>
</trkpt>
<trkpt lat="56.300510" lon="8.154197">
<ele>5.614378</ele>
<time>2026-07-13T09:34:31.000Z</time>
</trkpt>
<trkpt lat="56.300564" lon="8.154156">
<ele>5.591005</ele>
<time>2026-07-13T09:34:32.000Z</time>
</trkpt>
<trkpt lat="56.300610" lon="8.154118">
<ele>5.570872</ele>
<time>2026-07-13T09:34:33.000Z</time>
</trkpt>
<trkpt lat="56.300655" lon="8.154081">
<ele>5.557343</ele>
<time>2026-07-13T09:34:34.000Z</time>
</trkpt>
<trkpt lat="56.300701" lon="8.154044">
<ele>5.543564</ele>
<time>2026-07-13T09:34:35.000Z</time>
</trkpt>
<trkpt lat="56.300751" lon="8.154008">
<ele>5.528837</ele>
<time>2026-07-13T09:34:36.000Z</time>
</trkpt>
<trkpt lat="56.300800" lon="8.153971">
<ele>5.514306</ele>
<time>2026-07-13T09:34:37.000Z</time>
</trkpt>
<trkpt lat="56.300846" lon="8.153934">
<ele>5.500528</ele>
<time>2026-07-13T09:34:38.000Z</time>
</trkpt>
<trkpt lat="56.300896" lon="8.153895">
<ele>5.485626</ele>
<time>2026-07-13T09:34:39.000Z</time>
</trkpt>
<trkpt lat="56.300941" lon="8.153860">
<ele>5.472220</ele>
<time>2026-07-13T09:34:40.000Z</time>
</trkpt>
<trkpt lat="56.300991" lon="8.153825">
<ele>5.457549</ele>
<time>2026-07-13T09:34:41.000Z</time>
</trkpt>
<trkpt lat="56.301041" lon="8.153786">
<ele>5.442647</ele>
<time>2026-07-13T09:34:42.000Z</time>
</trkpt>
<trkpt lat="56.301086" lon="8.153747">
<ele>5.428989</ele>
<time>2026-07-13T09:34:43.000Z</time>
</trkpt>
<trkpt lat="56.301136" lon="8.153708">
<ele>5.414088</ele>
<time>2026-07-13T09:34:44.000Z</time>
</trkpt>
<trkpt lat="56.301182" lon="8.153672">
<ele>5.400371</ele>
<time>2026-07-13T09:34:45.000Z</time>
</trkpt>
<trkpt lat="56.301224" lon="8.153636">
<ele>5.387650</ele>
<time>2026-07-13T09:34:46.000Z</time>
</trkpt>
<trkpt lat="56.301270" lon="8.153599">
<ele>5.373872</ele>
<time>2026-07-13T09:34:47.000Z</time>
</trkpt>
<trkpt lat="56.301319" lon="8.153563">
<ele>5.359398</ele>
<time>2026-07-13T09:34:48.000Z</time>
</trkpt>
<trkpt lat="56.301365" lon="8.153529">
<ele>5.345799</ele>
<time>2026-07-13T09:34:49.000Z</time>
</trkpt>
<trkpt lat="56.301411" lon="8.153496">
<ele>5.332257</ele>
<time>2026-07-13T09:34:50.000Z</time>
</trkpt>
<trkpt lat="56.301464" lon="8.153453">
<ele>5.316359</ele>
<time>2026-07-13T09:34:51.000Z</time>
</trkpt>
<trkpt lat="56.301514" lon="8.153416">
<ele>5.301576</ele>
<time>2026-07-13T09:34:52.000Z</time>
</trkpt>
<trkpt lat="56.301563" lon="8.153382">
<ele>5.287214</ele>
<time>2026-07-13T09:34:53.000Z</time>
</trkpt>
<trkpt lat="56.301609" lon="8.153348">
<ele>5.273615</ele>
<time>2026-07-13T09:34:54.000Z</time>
</trkpt>
<trkpt lat="56.301655" lon="8.153313">
<ele>5.259958</ele>
<time>2026-07-13T09:34:55.000Z</time>
</trkpt>
<trkpt lat="56.301701" lon="8.153277">
<ele>5.246241</ele>
<time>2026-07-13T09:34:56.000Z</time>
</trkpt>
<trkpt lat="56.301746" lon="8.153242">
<ele>5.232835</ele>
<time>2026-07-13T09:34:57.000Z</time>
</trkpt>
<trkpt lat="56.301792" lon="8.153205">
<ele>5.219057</ele>
<time>2026-07-13T09:34:58.000Z</time>
</trkpt>
<trkpt lat="56.301838" lon="8.153171">
<ele>5.205458</ele>
<time>2026-07-13T09:34:59.000Z</time>
</trkpt>
<trkpt lat="56.301884" lon="8.153137">
<ele>5.191859</ele>
<time>2026-07-13T09:35:00.000Z</time>
</trkpt>
<trkpt lat="56.301926" lon="8.153103">
<ele>5.179266</ele>
<time>2026-07-13T09:35:01.000Z</time>
</trkpt>
<trkpt lat="56.301971" lon="8.153069">
<ele>5.165920</ele>
<time>2026-07-13T09:35:02.000Z</time>
</trkpt>
<trkpt lat="56.302017" lon="8.153032">
<ele>5.152141</ele>
<time>2026-07-13T09:35:03.000Z</time>
</trkpt>
<trkpt lat="56.302067" lon="8.152996">
<ele>5.137415</ele>
<time>2026-07-13T09:35:04.000Z</time>
</trkpt>
<trkpt lat="56.302113" lon="8.152962">
<ele>5.123816</ele>
<time>2026-07-13T09:35:05.000Z</time>
</trkpt>
<trkpt lat="56.302158" lon="8.152928">
<ele>5.110469</ele>
<time>2026-07-13T09:35:06.000Z</time>
</trkpt>
<trkpt lat="56.302208" lon="8.152894">
<ele>5.095852</ele>
<time>2026-07-13T09:35:07.000Z</time>
</trkpt>
<trkpt lat="56.302258" lon="8.152860">
<ele>5.081235</ele>
<time>2026-07-13T09:35:08.000Z</time>
</trkpt>
<trkpt lat="56.302303" lon="8.152823">
<ele>5.069947</ele>
<time>2026-07-13T09:35:09.000Z</time>
</trkpt>
<trkpt lat="56.302349" lon="8.152787">
<ele>5.058948</ele>
<time>2026-07-13T09:35:10.000Z</time>
</trkpt>
<trkpt lat="56.302399" lon="8.152751">
<ele>5.047140</ele>
<time>2026-07-13T09:35:11.000Z</time>
</trkpt>
<trkpt lat="56.302448" lon="8.152712">
<ele>5.035392</ele>
<time>2026-07-13T09:35:12.000Z</time>
</trkpt>
<trkpt lat="56.302494" lon="8.152677">
<ele>5.024442</ele>
<time>2026-07-13T09:35:13.000Z</time>
</trkpt>
<trkpt lat="56.302540" lon="8.152643">
<ele>5.013538</ele>
<time>2026-07-13T09:35:14.000Z</time>
</trkpt>
<trkpt lat="56.302586" lon="8.152609">
<ele>5.002634</ele>
<time>2026-07-13T09:35:15.000Z</time>
</trkpt>
<trkpt lat="56.302635" lon="8.152573">
<ele>4.991029</ele>
<time>2026-07-13T09:35:16.000Z</time>
</trkpt>
<trkpt lat="56.302673" lon="8.152535">
<ele>4.981499</ele>
<time>2026-07-13T09:35:17.000Z</time>
</trkpt>
<trkpt lat="56.302712" lon="8.152502">
<ele>4.972050</ele>
<time>2026-07-13T09:35:18.000Z</time>
</trkpt>
<trkpt lat="56.302750" lon="8.152473">
<ele>4.962999</ele>
<time>2026-07-13T09:35:19.000Z</time>
</trkpt>
<trkpt lat="56.302792" lon="8.152447">
<ele>4.953260</ele>
<time>2026-07-13T09:35:20.000Z</time>
</trkpt>
<trkpt lat="56.302834" lon="8.152414">
<ele>4.943212</ele>
<time>2026-07-13T09:35:21.000Z</time>
</trkpt>
<trkpt lat="56.302876" lon="8.152382">
<ele>4.933211</ele>
<time>2026-07-13T09:35:22.000Z</time>
</trkpt>
<trkpt lat="56.302914" lon="8.152349">
<ele>4.923960</ele>
<time>2026-07-13T09:35:23.000Z</time>
</trkpt>
<trkpt lat="56.302956" lon="8.152318">
<ele>4.914007</ele>
<time>2026-07-13T09:35:24.000Z</time>
</trkpt>
<trkpt lat="56.302998" lon="8.152287">
<ele>4.904053</ele>
<time>2026-07-13T09:35:25.000Z</time>
</trkpt>
<trkpt lat="56.303040" lon="8.152258">
<ele>4.894189</ele>
<time>2026-07-13T09:35:26.000Z</time>
</trkpt>
<trkpt lat="56.303078" lon="8.152227">
<ele>4.885041</ele>
<time>2026-07-13T09:35:27.000Z</time>
</trkpt>
<trkpt lat="56.303123" lon="8.152198">
<ele>4.874560</ele>
<time>2026-07-13T09:35:28.000Z</time>
</trkpt>
<trkpt lat="56.303169" lon="8.152169">
<ele>4.863872</ele>
<time>2026-07-13T09:35:29.000Z</time>
</trkpt>
<trkpt lat="56.303211" lon="8.152142">
<ele>4.854093</ele>
<time>2026-07-13T09:35:30.000Z</time>
</trkpt>
<trkpt lat="56.303257" lon="8.152115">
<ele>4.843483</ele>
<time>2026-07-13T09:35:31.000Z</time>
</trkpt>
<trkpt lat="56.303307" lon="8.152087">
<ele>4.832000</ele>
<time>2026-07-13T09:35:32.000Z</time>
</trkpt>
<trkpt lat="56.303352" lon="8.152056">
<ele>4.821434</ele>
<time>2026-07-13T09:35:33.000Z</time>
</trkpt>
<trkpt lat="56.303402" lon="8.152021">
<ele>4.809671</ele>
<time>2026-07-13T09:35:34.000Z</time>
</trkpt>
<trkpt lat="56.303452" lon="8.151988">
<ele>4.797993</ele>
<time>2026-07-13T09:35:35.000Z</time>
</trkpt>
<trkpt lat="56.303501" lon="8.151957">
<ele>4.786604</ele>
<time>2026-07-13T09:35:36.000Z</time>
</trkpt>
<trkpt lat="56.303554" lon="8.151926">
<ele>4.774383</ele>
<time>2026-07-13T09:35:37.000Z</time>
</trkpt>
<trkpt lat="56.303604" lon="8.151896">
<ele>4.762826</ele>
<time>2026-07-13T09:35:38.000Z</time>
</trkpt>
<trkpt lat="56.303658" lon="8.151870">
<ele>4.750568</ele>
<time>2026-07-13T09:35:39.000Z</time>
</trkpt>
<trkpt lat="56.303707" lon="8.151843">
<ele>4.739330</ele>
<time>2026-07-13T09:35:40.000Z</time>
</trkpt>
<trkpt lat="56.303761" lon="8.151812">
<ele>4.726901</ele>
<time>2026-07-13T09:35:41.000Z</time>
</trkpt>
<trkpt lat="56.303814" lon="8.151783">
<ele>4.714754</ele>
<time>2026-07-13T09:35:42.000Z</time>
</trkpt>
<trkpt lat="56.303867" lon="8.151756">
<ele>4.702674</ele>
<time>2026-07-13T09:35:43.000Z</time>
</trkpt>
<trkpt lat="56.303913" lon="8.151732">
<ele>4.692172</ele>
<time>2026-07-13T09:35:44.000Z</time>
</trkpt>
<trkpt lat="56.303967" lon="8.151703">
<ele>4.675567</ele>
<time>2026-07-13T09:35:45.000Z</time>
</trkpt>
<trkpt lat="56.304020" lon="8.151675">
<ele>4.652569</ele>
<time>2026-07-13T09:35:46.000Z</time>
</trkpt>
<trkpt lat="56.304069" lon="8.151649">
<ele>4.631299</ele>
<time>2026-07-13T09:35:47.000Z</time>
</trkpt>
<trkpt lat="56.304119" lon="8.151624">
<ele>4.609692</ele>
<time>2026-07-13T09:35:48.000Z</time>
</trkpt>
<trkpt lat="56.304172" lon="8.151599">
<ele>4.586879</ele>
<time>2026-07-13T09:35:49.000Z</time>
</trkpt>
<trkpt lat="56.304226" lon="8.151574">
<ele>4.563663</ele>
<time>2026-07-13T09:35:50.000Z</time>
</trkpt>
<trkpt lat="56.304279" lon="8.151548">
<ele>4.540790</ele>
<time>2026-07-13T09:35:51.000Z</time>
</trkpt>
<trkpt lat="56.304325" lon="8.151522">
<ele>4.520716</ele>
<time>2026-07-13T09:35:52.000Z</time>
</trkpt>
<trkpt lat="56.304371" lon="8.151497">
<ele>4.500709</ele>
<time>2026-07-13T09:35:53.000Z</time>
</trkpt>
<trkpt lat="56.304421" lon="8.151471">
<ele>4.479039</ele>
<time>2026-07-13T09:35:54.000Z</time>
</trkpt>
<trkpt lat="56.304466" lon="8.151446">
<ele>4.459431</ele>
<time>2026-07-13T09:35:55.000Z</time>
</trkpt>
<trkpt lat="56.304516" lon="8.151422">
<ele>4.437885</ele>
<time>2026-07-13T09:35:56.000Z</time>
</trkpt>
<trkpt lat="56.304562" lon="8.151395">
<ele>4.417740</ele>
<time>2026-07-13T09:35:57.000Z</time>
</trkpt>
<trkpt lat="56.304607" lon="8.151367">
<ele>4.397916</ele>
<time>2026-07-13T09:35:58.000Z</time>
</trkpt>
<trkpt lat="56.304661" lon="8.151339">
<ele>4.374518</ele>
<time>2026-07-13T09:35:59.000Z</time>
</trkpt>
<trkpt lat="56.304714" lon="8.151312">
<ele>4.351584</ele>
<time>2026-07-13T09:36:00.000Z</time>
</trkpt>
<trkpt lat="56.304760" lon="8.151286">
<ele>4.331509</ele>
<time>2026-07-13T09:36:01.000Z</time>
</trkpt>
<trkpt lat="56.304813" lon="8.151258">
<ele>4.308511</ele>
<time>2026-07-13T09:36:02.000Z</time>
</trkpt>
<trkpt lat="56.304863" lon="8.151230">
<ele>4.286709</ele>
<time>2026-07-13T09:36:03.000Z</time>
</trkpt>
<trkpt lat="56.304916" lon="8.151200">
<ele>4.263577</ele>
<time>2026-07-13T09:36:04.000Z</time>
</trkpt>
<trkpt lat="56.304966" lon="8.151167">
<ele>4.241404</ele>
<time>2026-07-13T09:36:05.000Z</time>
</trkpt>
<trkpt lat="56.305019" lon="8.151134">
<ele>4.218055</ele>
<time>2026-07-13T09:36:06.000Z</time>
</trkpt>
<trkpt lat="56.305065" lon="8.151108">
<ele>4.197980</ele>
<time>2026-07-13T09:36:07.000Z</time>
</trkpt>
<trkpt lat="56.305111" lon="8.151084">
<ele>4.178039</ele>
<time>2026-07-13T09:36:08.000Z</time>
</trkpt>
<trkpt lat="56.305157" lon="8.151058">
<ele>4.157964</ele>
<time>2026-07-13T09:36:09.000Z</time>
</trkpt>
<trkpt lat="56.305206" lon="8.151031">
<ele>4.136628</ele>
<time>2026-07-13T09:36:10.000Z</time>
</trkpt>
<trkpt lat="56.305256" lon="8.151004">
<ele>4.114893</ele>
<time>2026-07-13T09:36:11.000Z</time>
</trkpt>
<trkpt lat="56.305302" lon="8.150978">
<ele>4.094819</ele>
<time>2026-07-13T09:36:12.000Z</time>
</trkpt>
<trkpt lat="56.305351" lon="8.150953">
<ele>4.073613</ele>
<time>2026-07-13T09:36:13.000Z</time>
</trkpt>
<trkpt lat="56.305401" lon="8.150930">
<ele>4.052125</ele>
<time>2026-07-13T09:36:14.000Z</time>
</trkpt>
<trkpt lat="56.305447" lon="8.150907">
<ele>4.032247</ele>
<time>2026-07-13T09:36:15.000Z</time>
</trkpt>
<trkpt lat="56.305496" lon="8.150882">
<ele>4.011041</ele>
<time>2026-07-13T09:36:16.000Z</time>
</trkpt>
<trkpt lat="56.305546" lon="8.150856">
<ele>3.989372</ele>
<time>2026-07-13T09:36:17.000Z</time>
</trkpt>
<trkpt lat="56.305595" lon="8.150838">
<ele>3.968548</ele>
<time>2026-07-13T09:36:18.000Z</time>
</trkpt>
<trkpt lat="56.305637" lon="8.150828">
<ele>3.950907</ele>
<time>2026-07-13T09:36:19.000Z</time>
</trkpt>
<trkpt lat="56.305668" lon="8.150826">
<ele>3.937990</ele>
<time>2026-07-13T09:36:20.000Z</time>
</trkpt>
<trkpt lat="56.305687" lon="8.150834">
<ele>3.935355</ele>
<time>2026-07-13T09:36:21.000Z</time>
</trkpt>
<trkpt lat="56.305702" lon="8.150838">
<ele>3.935122</ele>
<time>2026-07-13T09:36:22.000Z</time>
</trkpt>
<trkpt lat="56.305706" lon="8.150837">
<ele>3.935061</ele>
<time>2026-07-13T09:36:23.000Z</time>
</trkpt>
<trkpt lat="56.305759" lon="8.150805">
<ele>3.934205</ele>
<time>2026-07-13T09:36:44.000Z</time>
</trkpt>
<trkpt lat="56.305778" lon="8.150787">
<ele>3.933876</ele>
<time>2026-07-13T09:36:45.000Z</time>
</trkpt>
<trkpt lat="56.305798" lon="8.150768">
<ele>3.933530</ele>
<time>2026-07-13T09:36:46.000Z</time>
</trkpt>
<trkpt lat="56.305820" lon="8.150755">
<ele>3.933176</ele>
<time>2026-07-13T09:36:47.000Z</time>
</trkpt>
<trkpt lat="56.305847" lon="8.150742">
<ele>3.932748</ele>
<time>2026-07-13T09:36:48.000Z</time>
</trkpt>
<trkpt lat="56.305878" lon="8.150727">
<ele>3.932256</ele>
<time>2026-07-13T09:36:49.000Z</time>
</trkpt>
<trkpt lat="56.305908" lon="8.150713">
<ele>3.931782</ele>
<time>2026-07-13T09:36:50.000Z</time>
</trkpt>
<trkpt lat="56.305935" lon="8.150697">
<ele>3.931347</ele>
<time>2026-07-13T09:36:51.000Z</time>
</trkpt>
<trkpt lat="56.305962" lon="8.150682">
<ele>3.930914</ele>
<time>2026-07-13T09:36:52.000Z</time>
</trkpt>
<trkpt lat="56.305992" lon="8.150666">
<ele>3.930435</ele>
<time>2026-07-13T09:36:53.000Z</time>
</trkpt>
<trkpt lat="56.306026" lon="8.150650">
<ele>3.929897</ele>
<time>2026-07-13T09:36:54.000Z</time>
</trkpt>
<trkpt lat="56.306065" lon="8.150636">
<ele>3.929289</ele>
<time>2026-07-13T09:36:55.000Z</time>
</trkpt>
<trkpt lat="56.306095" lon="8.150619">
<ele>3.928807</ele>
<time>2026-07-13T09:36:56.000Z</time>
</trkpt>
<trkpt lat="56.306133" lon="8.150599">
<ele>3.928201</ele>
<time>2026-07-13T09:36:57.000Z</time>
</trkpt>
<trkpt lat="56.306168" lon="8.150577">
<ele>3.927634</ele>
<time>2026-07-13T09:36:58.000Z</time>
</trkpt>
<trkpt lat="56.306198" lon="8.150549">
<ele>3.927116</ele>
<time>2026-07-13T09:36:59.000Z</time>
</trkpt>
<trkpt lat="56.306221" lon="8.150514">
<ele>3.926655</ele>
<time>2026-07-13T09:37:00.000Z</time>
</trkpt>
<trkpt lat="56.306236" lon="8.150472">
<ele>3.926231</ele>
<time>2026-07-13T09:37:01.000Z</time>
</trkpt>
<trkpt lat="56.306252" lon="8.150427">
<ele>3.925777</ele>
<time>2026-07-13T09:37:02.000Z</time>
</trkpt>
<trkpt lat="56.306255" lon="8.150382">
<ele>3.925392</ele>
<time>2026-07-13T09:37:03.000Z</time>
</trkpt>
<trkpt lat="56.306263" lon="8.150332">
<ele>3.924950</ele>
<time>2026-07-13T09:37:04.000Z</time>
</trkpt>
<trkpt lat="56.306271" lon="8.150279">
<ele>3.924484</ele>
<time>2026-07-13T09:37:05.000Z</time>
</trkpt>
<trkpt lat="56.306282" lon="8.150221">
<ele>3.923963</ele>
<time>2026-07-13T09:37:06.000Z</time>
</trkpt>
<trkpt lat="56.306286" lon="8.150161">
<ele>3.923450</ele>
<time>2026-07-13T09:37:07.000Z</time>
</trkpt>
<trkpt lat="56.306290" lon="8.150099">
<ele>3.922920</ele>
<time>2026-07-13T09:37:08.000Z</time>
</trkpt>
<trkpt lat="56.306290" lon="8.150036">
<ele>3.922385</ele>
<time>2026-07-13T09:37:09.000Z</time>
</trkpt>
<trkpt lat="56.306290" lon="8.149968">
<ele>3.921807</ele>
<time>2026-07-13T09:37:10.000Z</time>
</trkpt>
<trkpt lat="56.306290" lon="8.149899">
<ele>3.921221</ele>
<time>2026-07-13T09:37:11.000Z</time>
</trkpt>
<trkpt lat="56.306290" lon="8.149829">
<ele>3.920627</ele>
<time>2026-07-13T09:37:12.000Z</time>
</trkpt>
<trkpt lat="56.306282" lon="8.149758">
<ele>3.920011</ele>
<time>2026-07-13T09:37:13.000Z</time>
</trkpt>
<trkpt lat="56.306278" lon="8.149687">
<ele>3.919405</ele>
<time>2026-07-13T09:37:14.000Z</time>
</trkpt>
<trkpt lat="56.306278" lon="8.149609">
<ele>3.918743</ele>
<time>2026-07-13T09:37:15.000Z</time>
</trkpt>
<trkpt lat="56.306274" lon="8.149533">
<ele>3.918094</ele>
<time>2026-07-13T09:37:16.000Z</time>
</trkpt>
<trkpt lat="56.306271" lon="8.149457">
<ele>3.917447</ele>
<time>2026-07-13T09:37:17.000Z</time>
</trkpt>
<trkpt lat="56.306267" lon="8.149378">
<ele>3.916774</ele>
<time>2026-07-13T09:37:18.000Z</time>
</trkpt>
<trkpt lat="56.306263" lon="8.149289">
<ele>3.916015</ele>
<time>2026-07-13T09:37:19.000Z</time>
</trkpt>
<trkpt lat="56.306259" lon="8.149205">
<ele>3.915299</ele>
<time>2026-07-13T09:37:20.000Z</time>
</trkpt>
<trkpt lat="56.306255" lon="8.149119">
<ele>3.914566</ele>
<time>2026-07-13T09:37:21.000Z</time>
</trkpt>
<trkpt lat="56.306255" lon="8.149035">
<ele>3.913853</ele>
<time>2026-07-13T09:37:22.000Z</time>
</trkpt>
<trkpt lat="56.306259" lon="8.148951">
<ele>3.913137</ele>
<time>2026-07-13T09:37:23.000Z</time>
</trkpt>
<trkpt lat="56.306255" lon="8.148869">
<ele>3.912437</ele>
<time>2026-07-13T09:37:24.000Z</time>
</trkpt>
<trkpt lat="56.306252" lon="8.148782">
<ele>3.911697</ele>
<time>2026-07-13T09:37:25.000Z</time>
</trkpt>
<trkpt lat="56.306248" lon="8.148691">
<ele>3.910922</ele>
<time>2026-07-13T09:37:26.000Z</time>
</trkpt>
<trkpt lat="56.306244" lon="8.148602">
<ele>3.910163</ele>
<time>2026-07-13T09:37:27.000Z</time>
</trkpt>
<trkpt lat="56.306236" lon="8.148518">
<ele>3.909440</ele>
<time>2026-07-13T09:37:28.000Z</time>
</trkpt>
<trkpt lat="56.306232" lon="8.148429">
<ele>3.908681</ele>
<time>2026-07-13T09:37:29.000Z</time>
</trkpt>
<trkpt lat="56.306232" lon="8.148338">
<ele>3.911445</ele>
<time>2026-07-13T09:37:30.000Z</time>
</trkpt>
<trkpt lat="56.306229" lon="8.148250">
<ele>3.933003</ele>
<time>2026-07-13T09:37:31.000Z</time>
</trkpt>
<trkpt lat="56.306225" lon="8.148163">
<ele>3.954349</ele>
<time>2026-07-13T09:37:32.000Z</time>
</trkpt>
<trkpt lat="56.306217" lon="8.148076">
<ele>3.975912</ele>
<time>2026-07-13T09:37:33.000Z</time>
</trkpt>
<trkpt lat="56.306213" lon="8.147987">
<ele>3.997746</ele>
<time>2026-07-13T09:37:34.000Z</time>
</trkpt>
<trkpt lat="56.306213" lon="8.147899">
<ele>4.019263</ele>
<time>2026-07-13T09:37:35.000Z</time>
</trkpt>
<trkpt lat="56.306210" lon="8.147807">
<ele>4.041798</ele>
<time>2026-07-13T09:37:36.000Z</time>
</trkpt>
<trkpt lat="56.306202" lon="8.147716">
<ele>4.064327</ele>
<time>2026-07-13T09:37:37.000Z</time>
</trkpt>
<trkpt lat="56.306198" lon="8.147621">
<ele>4.087623</ele>
<time>2026-07-13T09:37:38.000Z</time>
</trkpt>
<trkpt lat="56.306198" lon="8.147530">
<ele>4.109874</ele>
<time>2026-07-13T09:37:39.000Z</time>
</trkpt>
<trkpt lat="56.306198" lon="8.147440">
<ele>4.131881</ele>
<time>2026-07-13T09:37:40.000Z</time>
</trkpt>
<trkpt lat="56.306194" lon="8.147347">
<ele>4.154689</ele>
<time>2026-07-13T09:37:41.000Z</time>
</trkpt>
<trkpt lat="56.306191" lon="8.147255">
<ele>4.177224</ele>
<time>2026-07-13T09:37:42.000Z</time>
</trkpt>
<trkpt lat="56.306194" lon="8.147161">
<ele>4.200246</ele>
<time>2026-07-13T09:37:43.000Z</time>
</trkpt>
<trkpt lat="56.306191" lon="8.147068">
<ele>4.223025</ele>
<time>2026-07-13T09:37:44.000Z</time>
</trkpt>
<trkpt lat="56.306187" lon="8.146977">
<ele>4.245346</ele>
<time>2026-07-13T09:37:45.000Z</time>
</trkpt>
<trkpt lat="56.306183" lon="8.146890">
<ele>4.266692</ele>
<time>2026-07-13T09:37:46.000Z</time>
</trkpt>
<trkpt lat="56.306179" lon="8.146804">
<ele>4.287794</ele>
<time>2026-07-13T09:37:47.000Z</time>
</trkpt>
<trkpt lat="56.306179" lon="8.146716">
<ele>4.309312</ele>
<time>2026-07-13T09:37:48.000Z</time>
</trkpt>
<trkpt lat="56.306175" lon="8.146624">
<ele>4.331877</ele>
<time>2026-07-13T09:37:49.000Z</time>
</trkpt>
<trkpt lat="56.306175" lon="8.146529">
<ele>4.355106</ele>
<time>2026-07-13T09:37:50.000Z</time>
</trkpt>
<trkpt lat="56.306171" lon="8.146436">
<ele>4.377915</ele>
<time>2026-07-13T09:37:51.000Z</time>
</trkpt>
<trkpt lat="56.306168" lon="8.146344">
<ele>4.400449</ele>
<time>2026-07-13T09:37:52.000Z</time>
</trkpt>
<trkpt lat="56.306164" lon="8.146252">
<ele>4.423014</ele>
<time>2026-07-13T09:37:53.000Z</time>
</trkpt>
<trkpt lat="56.306160" lon="8.146162">
<ele>4.445091</ele>
<time>2026-07-13T09:37:54.000Z</time>
</trkpt>
<trkpt lat="56.306160" lon="8.146070">
<ele>4.467587</ele>
<time>2026-07-13T09:37:55.000Z</time>
</trkpt>
<trkpt lat="56.306160" lon="8.145979">
<ele>4.489838</ele>
<time>2026-07-13T09:37:56.000Z</time>
</trkpt>
<trkpt lat="56.306156" lon="8.145889">
<ele>4.511915</ele>
<time>2026-07-13T09:37:57.000Z</time>
</trkpt>
<trkpt lat="56.306152" lon="8.145795">
<ele>4.534967</ele>
<time>2026-07-13T09:37:58.000Z</time>
</trkpt>
<trkpt lat="56.306149" lon="8.145699">
<ele>4.558478</ele>
<time>2026-07-13T09:37:59.000Z</time>
</trkpt>
<trkpt lat="56.306149" lon="8.145605">
<ele>4.581463</ele>
<time>2026-07-13T09:38:00.000Z</time>
</trkpt>
<trkpt lat="56.306145" lon="8.145515">
<ele>4.603540</ele>
<time>2026-07-13T09:38:01.000Z</time>
</trkpt>
<trkpt lat="56.306141" lon="8.145426">
<ele>4.625374</ele>
<time>2026-07-13T09:38:02.000Z</time>
</trkpt>
<trkpt lat="56.306137" lon="8.145329">
<ele>4.649158</ele>
<time>2026-07-13T09:38:03.000Z</time>
</trkpt>
<trkpt lat="56.306133" lon="8.145233">
<ele>4.672698</ele>
<time>2026-07-13T09:38:04.000Z</time>
</trkpt>
<trkpt lat="56.306126" lon="8.145140">
<ele>4.695646</ele>
<time>2026-07-13T09:38:05.000Z</time>
</trkpt>
<trkpt lat="56.306122" lon="8.145045">
<ele>4.732263</ele>
<time>2026-07-13T09:38:06.000Z</time>
</trkpt>
<trkpt lat="56.306118" lon="8.144954">
<ele>4.770984</ele>
<time>2026-07-13T09:38:07.000Z</time>
</trkpt>
<trkpt lat="56.306114" lon="8.144860">
<ele>4.810973</ele>
<time>2026-07-13T09:38:08.000Z</time>
</trkpt>
<trkpt lat="56.306110" lon="8.144760">
<ele>4.853501</ele>
<time>2026-07-13T09:38:09.000Z</time>
</trkpt>
<trkpt lat="56.306107" lon="8.144661">
<ele>4.895557</ele>
<time>2026-07-13T09:38:10.000Z</time>
</trkpt>
<trkpt lat="56.306107" lon="8.144566">
<ele>4.935854</ele>
<time>2026-07-13T09:38:11.000Z</time>
</trkpt>
<trkpt lat="56.306103" lon="8.144474">
<ele>4.974998</ele>
<time>2026-07-13T09:38:12.000Z</time>
</trkpt>
<trkpt lat="56.306095" lon="8.144382">
<ele>5.014499</ele>
<time>2026-07-13T09:38:13.000Z</time>
</trkpt>
<trkpt lat="56.306091" lon="8.144292">
<ele>5.052797</ele>
<time>2026-07-13T09:38:14.000Z</time>
</trkpt>
<trkpt lat="56.306084" lon="8.144197">
<ele>5.093448</ele>
<time>2026-07-13T09:38:15.000Z</time>
</trkpt>
<trkpt lat="56.306080" lon="8.144105">
<ele>5.132592</ele>
<time>2026-07-13T09:38:16.000Z</time>
</trkpt>
<trkpt lat="56.306080" lon="8.144019">
<ele>5.169071</ele>
<time>2026-07-13T09:38:17.000Z</time>
</trkpt>
<trkpt lat="56.306072" lon="8.143940">
<ele>5.203135</ele>
<time>2026-07-13T09:38:18.000Z</time>
</trkpt>
<trkpt lat="56.306065" lon="8.143856">
<ele>5.239165</ele>
<time>2026-07-13T09:38:19.000Z</time>
</trkpt>
<trkpt lat="56.306057" lon="8.143767">
<ele>5.277409</ele>
<time>2026-07-13T09:38:20.000Z</time>
</trkpt>
<trkpt lat="56.306049" lon="8.143684">
<ele>5.313144</ele>
<time>2026-07-13T09:38:21.000Z</time>
</trkpt>
<trkpt lat="56.306038" lon="8.143608">
<ele>5.346460</ele>
<time>2026-07-13T09:38:22.000Z</time>
</trkpt>
<trkpt lat="56.306030" lon="8.143531">
<ele>5.379690</ele>
<time>2026-07-13T09:38:23.000Z</time>
</trkpt>
<trkpt lat="56.306023" lon="8.143449">
<ele>5.414882</ele>
<time>2026-07-13T09:38:24.000Z</time>
</trkpt>
<trkpt lat="56.306019" lon="8.143357">
<ele>5.454026</ele>
<time>2026-07-13T09:38:25.000Z</time>
</trkpt>
<trkpt lat="56.306015" lon="8.143267">
<ele>5.492324</ele>
<time>2026-07-13T09:38:26.000Z</time>
</trkpt>
<trkpt lat="56.306007" lon="8.143184">
<ele>5.528058</ele>
<time>2026-07-13T09:38:27.000Z</time>
</trkpt>
<trkpt lat="56.306004" lon="8.143095">
<ele>5.565880</ele>
<time>2026-07-13T09:38:28.000Z</time>
</trkpt>
<trkpt lat="56.306000" lon="8.143010">
<ele>5.602064</ele>
<time>2026-07-13T09:38:29.000Z</time>
</trkpt>
<trkpt lat="56.305992" lon="8.142933">
<ele>5.635294</ele>
<time>2026-07-13T09:38:30.000Z</time>
</trkpt>
<trkpt lat="56.305981" lon="8.142851">
<ele>5.671079</ele>
<time>2026-07-13T09:38:31.000Z</time>
</trkpt>
<trkpt lat="56.305973" lon="8.142766">
<ele>5.707649</ele>
<time>2026-07-13T09:38:32.000Z</time>
</trkpt>
<trkpt lat="56.305954" lon="8.142681">
<ele>5.746521</ele>
<time>2026-07-13T09:38:33.000Z</time>
</trkpt>
<trkpt lat="56.305939" lon="8.142597">
<ele>5.783953</ele>
<time>2026-07-13T09:38:34.000Z</time>
</trkpt>
<trkpt lat="56.305916" lon="8.142509">
<ele>5.825216</ele>
<time>2026-07-13T09:38:35.000Z</time>
</trkpt>
<trkpt lat="56.305897" lon="8.142433">
<ele>5.860576</ele>
<time>2026-07-13T09:38:36.000Z</time>
</trkpt>
<trkpt lat="56.305878" lon="8.142354">
<ele>5.897099</ele>
<time>2026-07-13T09:38:37.000Z</time>
</trkpt>
<trkpt lat="56.305862" lon="8.142271">
<ele>5.934371</ele>
<time>2026-07-13T09:38:38.000Z</time>
</trkpt>
<trkpt lat="56.305843" lon="8.142199">
<ele>5.968191</ele>
<time>2026-07-13T09:38:39.000Z</time>
</trkpt>
<trkpt lat="56.305817" lon="8.142130">
<ele>6.003573</ele>
<time>2026-07-13T09:38:40.000Z</time>
</trkpt>
<trkpt lat="56.305794" lon="8.142054">
<ele>6.040296</ele>
<time>2026-07-13T09:38:41.000Z</time>
</trkpt>
<trkpt lat="56.305771" lon="8.141981">
<ele>6.075906</ele>
<time>2026-07-13T09:38:42.000Z</time>
</trkpt>
<trkpt lat="56.305756" lon="8.141899">
<ele>6.097938</ele>
<time>2026-07-13T09:38:43.000Z</time>
</trkpt>
<trkpt lat="56.305744" lon="8.141816">
<ele>6.119750</ele>
<time>2026-07-13T09:38:44.000Z</time>
</trkpt>
<trkpt lat="56.305729" lon="8.141731">
<ele>6.142434</ele>
<time>2026-07-13T09:38:45.000Z</time>
</trkpt>
<trkpt lat="56.305721" lon="8.141644">
<ele>6.164861</ele>
<time>2026-07-13T09:38:46.000Z</time>
</trkpt>
<trkpt lat="56.305710" lon="8.141552">
<ele>6.188794</ele>
<time>2026-07-13T09:38:47.000Z</time>
</trkpt>
<trkpt lat="56.305702" lon="8.141459">
<ele>6.212728</ele>
<time>2026-07-13T09:38:48.000Z</time>
</trkpt>
<trkpt lat="56.305695" lon="8.141375">
<ele>6.234329</ele>
<time>2026-07-13T09:38:49.000Z</time>
</trkpt>
<trkpt lat="56.305683" lon="8.141279">
<ele>6.259355</ele>
<time>2026-07-13T09:38:50.000Z</time>
</trkpt>
<trkpt lat="56.305679" lon="8.141182">
<ele>6.284091</ele>
<time>2026-07-13T09:38:51.000Z</time>
</trkpt>
<trkpt lat="56.305672" lon="8.141084">
<ele>6.309219</ele>
<time>2026-07-13T09:38:52.000Z</time>
</trkpt>
<trkpt lat="56.305660" lon="8.140984">
<ele>6.335238</ele>
<time>2026-07-13T09:38:53.000Z</time>
</trkpt>
<trkpt lat="56.305653" lon="8.140887">
<ele>6.360114</ele>
<time>2026-07-13T09:38:54.000Z</time>
</trkpt>
<trkpt lat="56.305645" lon="8.140799">
<ele>6.382792</ele>
<time>2026-07-13T09:38:55.000Z</time>
</trkpt>
<trkpt lat="56.305637" lon="8.140717">
<ele>6.403965</ele>
<time>2026-07-13T09:38:56.000Z</time>
</trkpt>
<trkpt lat="56.305630" lon="8.140631">
<ele>6.426070</ele>
<time>2026-07-13T09:38:57.000Z</time>
</trkpt>
<trkpt lat="56.305622" lon="8.140545">
<ele>6.448246</ele>
<time>2026-07-13T09:38:58.000Z</time>
</trkpt>
<trkpt lat="56.305614" lon="8.140456">
<ele>6.471175</ele>
<time>2026-07-13T09:38:59.000Z</time>
</trkpt>
<trkpt lat="56.305611" lon="8.140363">
<ele>6.494865</ele>
<time>2026-07-13T09:39:00.000Z</time>
</trkpt>
<trkpt lat="56.305607" lon="8.140269">
<ele>6.518841</ele>
<time>2026-07-13T09:39:01.000Z</time>
</trkpt>
<trkpt lat="56.305603" lon="8.140178">
<ele>6.542055</ele>
<time>2026-07-13T09:39:02.000Z</time>
</trkpt>
<trkpt lat="56.305603" lon="8.140077">
<ele>6.567741</ele>
<time>2026-07-13T09:39:03.000Z</time>
</trkpt>
<trkpt lat="56.305599" lon="8.139966">
<ele>6.596029</ele>
<time>2026-07-13T09:39:04.000Z</time>
</trkpt>
<trkpt lat="56.305599" lon="8.139864">
<ele>6.621968</ele>
<time>2026-07-13T09:39:05.000Z</time>
</trkpt>
<trkpt lat="56.305603" lon="8.139758">
<ele>6.648987</ele>
<time>2026-07-13T09:39:06.000Z</time>
</trkpt>
<trkpt lat="56.305595" lon="8.139654">
<ele>6.675689</ele>
<time>2026-07-13T09:39:07.000Z</time>
</trkpt>
<trkpt lat="56.305592" lon="8.139550">
<ele>6.702173</ele>
<time>2026-07-13T09:39:08.000Z</time>
</trkpt>
<trkpt lat="56.305584" lon="8.139445">
<ele>6.729126</ele>
<time>2026-07-13T09:39:09.000Z</time>
</trkpt>
<trkpt lat="56.305576" lon="8.139340">
<ele>6.756079</ele>
<time>2026-07-13T09:39:10.000Z</time>
</trkpt>
<trkpt lat="56.305573" lon="8.139237">
<ele>6.782309</ele>
<time>2026-07-13T09:39:11.000Z</time>
</trkpt>
<trkpt lat="56.305565" lon="8.139136">
<ele>6.808255</ele>
<time>2026-07-13T09:39:12.000Z</time>
</trkpt>
<trkpt lat="56.305557" lon="8.139040">
<ele>6.832942</ele>
<time>2026-07-13T09:39:13.000Z</time>
</trkpt>
<trkpt lat="56.305550" lon="8.138938">
<ele>6.859080</ele>
<time>2026-07-13T09:39:14.000Z</time>
</trkpt>
<trkpt lat="56.305542" lon="8.138833">
<ele>6.886033</ele>
<time>2026-07-13T09:39:15.000Z</time>
</trkpt>
<trkpt lat="56.305534" lon="8.138732">
<ele>6.905064</ele>
<time>2026-07-13T09:39:16.000Z</time>
</trkpt>
<trkpt lat="56.305523" lon="8.138636">
<ele>6.914831</ele>
<time>2026-07-13T09:39:17.000Z</time>
</trkpt>
<trkpt lat="56.305515" lon="8.138545">
<ele>6.924011</ele>
<time>2026-07-13T09:39:18.000Z</time>
</trkpt>
<trkpt lat="56.305508" lon="8.138453">
<ele>6.933264</ele>
<time>2026-07-13T09:39:19.000Z</time>
</trkpt>
<trkpt lat="56.305504" lon="8.138362">
<ele>6.942360</ele>
<time>2026-07-13T09:39:20.000Z</time>
</trkpt>
<trkpt lat="56.305504" lon="8.138272">
<ele>6.951327</ele>
<time>2026-07-13T09:39:21.000Z</time>
</trkpt>
<trkpt lat="56.305496" lon="8.138187">
<ele>6.959918</ele>
<time>2026-07-13T09:39:22.000Z</time>
</trkpt>
<trkpt lat="56.305489" lon="8.138107">
<ele>6.967988</ele>
<time>2026-07-13T09:39:23.000Z</time>
</trkpt>
<trkpt lat="56.305485" lon="8.138025">
<ele>6.976190</ele>
<time>2026-07-13T09:39:24.000Z</time>
</trkpt>
<trkpt lat="56.305489" lon="8.137933">
<ele>6.985385</ele>
<time>2026-07-13T09:39:25.000Z</time>
</trkpt>
<trkpt lat="56.305496" lon="8.137832">
<ele>6.995527</ele>
<time>2026-07-13T09:39:26.000Z</time>
</trkpt>
<trkpt lat="56.305492" lon="8.137737">
<ele>7.005020</ele>
<time>2026-07-13T09:39:27.000Z</time>
</trkpt>
<trkpt lat="56.305492" lon="8.137636">
<ele>7.015083</ele>
<time>2026-07-13T09:39:28.000Z</time>
</trkpt>
<trkpt lat="56.305500" lon="8.137523">
<ele>7.026434</ele>
<time>2026-07-13T09:39:29.000Z</time>
</trkpt>
<trkpt lat="56.305500" lon="8.137423">
<ele>7.036398</ele>
<time>2026-07-13T09:39:30.000Z</time>
</trkpt>
<trkpt lat="56.305508" lon="8.137328">
<ele>7.045972</ele>
<time>2026-07-13T09:39:31.000Z</time>
</trkpt>
<trkpt lat="56.305527" lon="8.137230">
<ele>7.056316</ele>
<time>2026-07-13T09:39:32.000Z</time>
</trkpt>
<trkpt lat="56.305553" lon="8.137129">
<ele>7.067410</ele>
<time>2026-07-13T09:39:33.000Z</time>
</trkpt>
<trkpt lat="56.305592" lon="8.137039">
<ele>7.078789</ele>
<time>2026-07-13T09:39:34.000Z</time>
</trkpt>
<trkpt lat="56.305630" lon="8.136956">
<ele>7.089512</ele>
<time>2026-07-13T09:39:35.000Z</time>
</trkpt>
<trkpt lat="56.305668" lon="8.136878">
<ele>7.099855</ele>
<time>2026-07-13T09:39:36.000Z</time>
</trkpt>
<trkpt lat="56.305706" lon="8.136799">
<ele>7.110274</ele>
<time>2026-07-13T09:39:37.000Z</time>
</trkpt>
<trkpt lat="56.305748" lon="8.136715">
<ele>7.121541</ele>
<time>2026-07-13T09:39:38.000Z</time>
</trkpt>
<trkpt lat="56.305790" lon="8.136632">
<ele>7.132735</ele>
<time>2026-07-13T09:39:39.000Z</time>
</trkpt>
<trkpt lat="56.305828" lon="8.136552">
<ele>7.143229</ele>
<time>2026-07-13T09:39:40.000Z</time>
</trkpt>
<trkpt lat="56.305866" lon="8.136471">
<ele>7.153799</ele>
<time>2026-07-13T09:39:41.000Z</time>
</trkpt>
<trkpt lat="56.305908" lon="8.136392">
<ele>7.164701</ele>
<time>2026-07-13T09:39:42.000Z</time>
</trkpt>
<trkpt lat="56.305942" lon="8.136312">
<ele>7.174743</ele>
<time>2026-07-13T09:39:43.000Z</time>
</trkpt>
<trkpt lat="56.305981" lon="8.136233">
<ele>7.185280</ele>
<time>2026-07-13T09:39:44.000Z</time>
</trkpt>
<trkpt lat="56.306019" lon="8.136154">
<ele>7.195698</ele>
<time>2026-07-13T09:39:45.000Z</time>
</trkpt>
<trkpt lat="56.306057" lon="8.136080">
<ele>7.205745</ele>
<time>2026-07-13T09:39:46.000Z</time>
</trkpt>
<trkpt lat="56.306091" lon="8.136005">
<ele>7.215396</ele>
<time>2026-07-13T09:39:47.000Z</time>
</trkpt>
<trkpt lat="56.306129" lon="8.135933">
<ele>7.220655</ele>
<time>2026-07-13T09:39:48.000Z</time>
</trkpt>
<trkpt lat="56.306168" lon="8.135864">
<ele>7.202656</ele>
<time>2026-07-13T09:39:49.000Z</time>
</trkpt>
<trkpt lat="56.306206" lon="8.135799">
<ele>7.185401</ele>
<time>2026-07-13T09:39:50.000Z</time>
</trkpt>
<trkpt lat="56.306244" lon="8.135743">
<ele>7.169235</ele>
<time>2026-07-13T09:39:51.000Z</time>
</trkpt>
<trkpt lat="56.306286" lon="8.135696">
<ele>7.152952</ele>
<time>2026-07-13T09:39:52.000Z</time>
</trkpt>
<trkpt lat="56.306324" lon="8.135654">
<ele>7.138270</ele>
<time>2026-07-13T09:39:53.000Z</time>
</trkpt>
<trkpt lat="56.306370" lon="8.135618">
<ele>7.121752</ele>
<time>2026-07-13T09:39:54.000Z</time>
</trkpt>
<trkpt lat="56.306412" lon="8.135587">
<ele>7.106804</ele>
<time>2026-07-13T09:39:55.000Z</time>
</trkpt>
<trkpt lat="56.306469" lon="8.135550">
<ele>7.086849</ele>
<time>2026-07-13T09:39:56.000Z</time>
</trkpt>
<trkpt lat="56.306522" lon="8.135517">
<ele>7.068380</ele>
<time>2026-07-13T09:39:57.000Z</time>
</trkpt>
<trkpt lat="56.306576" lon="8.135480">
<ele>7.049352</ele>
<time>2026-07-13T09:39:58.000Z</time>
</trkpt>
<trkpt lat="56.306637" lon="8.135440">
<ele>7.027972</ele>
<time>2026-07-13T09:39:59.000Z</time>
</trkpt>
<trkpt lat="56.306694" lon="8.135398">
<ele>7.007690</ele>
<time>2026-07-13T09:40:00.000Z</time>
</trkpt>
<trkpt lat="56.306747" lon="8.135360">
<ele>6.988902</ele>
<time>2026-07-13T09:40:01.000Z</time>
</trkpt>
<trkpt lat="56.306801" lon="8.135322">
<ele>6.969809</ele>
<time>2026-07-13T09:40:02.000Z</time>
</trkpt>
<trkpt lat="56.306854" lon="8.135283">
<ele>6.950953</ele>
<time>2026-07-13T09:40:03.000Z</time>
</trkpt>
<trkpt lat="56.306904" lon="8.135247">
<ele>6.933219</ele>
<time>2026-07-13T09:40:04.000Z</time>
</trkpt>
<trkpt lat="56.306957" lon="8.135214">
<ele>6.914750</ele>
<time>2026-07-13T09:40:05.000Z</time>
</trkpt>
<trkpt lat="56.307003" lon="8.135180">
<ele>6.898375</ele>
<time>2026-07-13T09:40:06.000Z</time>
</trkpt>
<trkpt lat="56.307053" lon="8.135147">
<ele>6.880837</ele>
<time>2026-07-13T09:40:07.000Z</time>
</trkpt>
<trkpt lat="56.307102" lon="8.135115">
<ele>6.863671</ele>
<time>2026-07-13T09:40:08.000Z</time>
</trkpt>
<trkpt lat="56.307148" lon="8.135082">
<ele>6.847364</ele>
<time>2026-07-13T09:40:09.000Z</time>
</trkpt>
<trkpt lat="56.307198" lon="8.135047">
<ele>6.829697</ele>
<time>2026-07-13T09:40:10.000Z</time>
</trkpt>
<trkpt lat="56.307243" lon="8.135005">
<ele>6.813006</ele>
<time>2026-07-13T09:40:11.000Z</time>
</trkpt>
<trkpt lat="56.307293" lon="8.134962">
<ele>6.794759</ele>
<time>2026-07-13T09:40:12.000Z</time>
</trkpt>
<trkpt lat="56.307339" lon="8.134916">
<ele>6.777432</ele>
<time>2026-07-13T09:40:13.000Z</time>
</trkpt>
<trkpt lat="56.307385" lon="8.134870">
<ele>6.760106</ele>
<time>2026-07-13T09:40:14.000Z</time>
</trkpt>
<trkpt lat="56.307434" lon="8.134821">
<ele>6.741649</ele>
<time>2026-07-13T09:40:15.000Z</time>
</trkpt>
<trkpt lat="56.307484" lon="8.134769">
<ele>6.722636</ele>
<time>2026-07-13T09:40:16.000Z</time>
</trkpt>
<trkpt lat="56.307526" lon="8.134718">
<ele>6.705957</ele>
<time>2026-07-13T09:40:17.000Z</time>
</trkpt>
<trkpt lat="56.307571" lon="8.134669">
<ele>6.688640</ele>
<time>2026-07-13T09:40:18.000Z</time>
</trkpt>
<trkpt lat="56.307617" lon="8.134622">
<ele>6.671225</ele>
<time>2026-07-13T09:40:19.000Z</time>
</trkpt>
<trkpt lat="56.307663" lon="8.134572">
<ele>6.653532</ele>
<time>2026-07-13T09:40:20.000Z</time>
</trkpt>
<trkpt lat="56.307705" lon="8.134520">
<ele>6.636750</ele>
<time>2026-07-13T09:40:21.000Z</time>
</trkpt>
<trkpt lat="56.307751" lon="8.134461">
<ele>6.620407</ele>
<time>2026-07-13T09:40:22.000Z</time>
</trkpt>
<trkpt lat="56.307796" lon="8.134408">
<ele>6.605752</ele>
<time>2026-07-13T09:40:23.000Z</time>
</trkpt>
<trkpt lat="56.307842" lon="8.134355">
<ele>6.590869</ele>
<time>2026-07-13T09:40:24.000Z</time>
</trkpt>
<trkpt lat="56.307884" lon="8.134299">
<ele>6.576627</ele>
<time>2026-07-13T09:40:25.000Z</time>
</trkpt>
<trkpt lat="56.307938" lon="8.134235">
<ele>6.559009</ele>
<time>2026-07-13T09:40:26.000Z</time>
</trkpt>
<trkpt lat="56.307983" lon="8.134174">
<ele>6.543659</ele>
<time>2026-07-13T09:40:27.000Z</time>
</trkpt>
<trkpt lat="56.308033" lon="8.134113">
<ele>6.527199</ele>
<time>2026-07-13T09:40:28.000Z</time>
</trkpt>
<trkpt lat="56.308086" lon="8.134053">
<ele>6.510137</ele>
<time>2026-07-13T09:40:29.000Z</time>
</trkpt>
<trkpt lat="56.308132" lon="8.133994">
<ele>6.494746</ele>
<time>2026-07-13T09:40:30.000Z</time>
</trkpt>
<trkpt lat="56.308182" lon="8.133933">
<ele>6.478287</ele>
<time>2026-07-13T09:40:31.000Z</time>
</trkpt>
<trkpt lat="56.308231" lon="8.133870">
<ele>6.461879</ele>
<time>2026-07-13T09:40:32.000Z</time>
</trkpt>
<trkpt lat="56.308277" lon="8.133806">
<ele>6.446037</ele>
<time>2026-07-13T09:40:33.000Z</time>
</trkpt>
<trkpt lat="56.308323" lon="8.133743">
<ele>6.430288</ele>
<time>2026-07-13T09:40:34.000Z</time>
</trkpt>
<trkpt lat="56.308369" lon="8.133677">
<ele>6.414260</ele>
<time>2026-07-13T09:40:35.000Z</time>
</trkpt>
<trkpt lat="56.308407" lon="8.133612">
<ele>6.399978</ele>
<time>2026-07-13T09:40:36.000Z</time>
</trkpt>
<trkpt lat="56.308449" lon="8.133545">
<ele>6.384689</ele>
<time>2026-07-13T09:40:37.000Z</time>
</trkpt>
<trkpt lat="56.308491" lon="8.133478">
<ele>6.369399</ele>
<time>2026-07-13T09:40:38.000Z</time>
</trkpt>
<trkpt lat="56.308529" lon="8.133413">
<ele>6.355118</ele>
<time>2026-07-13T09:40:39.000Z</time>
</trkpt>
<trkpt lat="56.308567" lon="8.133347">
<ele>6.340732</ele>
<time>2026-07-13T09:40:40.000Z</time>
</trkpt>
<trkpt lat="56.308609" lon="8.133283">
<ele>6.325739</ele>
<time>2026-07-13T09:40:41.000Z</time>
</trkpt>
<trkpt lat="56.308651" lon="8.133221">
<ele>6.310940</ele>
<time>2026-07-13T09:40:42.000Z</time>
</trkpt>
<trkpt lat="56.308689" lon="8.133157">
<ele>6.296762</ele>
<time>2026-07-13T09:40:43.000Z</time>
</trkpt>
<trkpt lat="56.308727" lon="8.133092">
<ele>6.282481</ele>
<time>2026-07-13T09:40:44.000Z</time>
</trkpt>
<trkpt lat="56.308765" lon="8.133026">
<ele>6.268095</ele>
<time>2026-07-13T09:40:45.000Z</time>
</trkpt>
<trkpt lat="56.308800" lon="8.132963">
<ele>6.254611</ele>
<time>2026-07-13T09:40:46.000Z</time>
</trkpt>
<trkpt lat="56.308838" lon="8.132898">
<ele>6.240330</ele>
<time>2026-07-13T09:40:47.000Z</time>
</trkpt>
<trkpt lat="56.308872" lon="8.132822">
<ele>6.225564</ele>
<time>2026-07-13T09:40:48.000Z</time>
</trkpt>
<trkpt lat="56.308907" lon="8.132749">
<ele>6.210973</ele>
<time>2026-07-13T09:40:49.000Z</time>
</trkpt>
<trkpt lat="56.308937" lon="8.132673">
<ele>6.196866</ele>
<time>2026-07-13T09:40:50.000Z</time>
</trkpt>
<trkpt lat="56.308964" lon="8.132597">
<ele>6.183218</ele>
<time>2026-07-13T09:40:51.000Z</time>
</trkpt>
<trkpt lat="56.308990" lon="8.132519">
<ele>6.169456</ele>
<time>2026-07-13T09:40:52.000Z</time>
</trkpt>
<trkpt lat="56.309017" lon="8.132437">
<ele>6.155035</ele>
<time>2026-07-13T09:40:53.000Z</time>
</trkpt>
<trkpt lat="56.309044" lon="8.132356">
<ele>6.140621</ele>
<time>2026-07-13T09:40:54.000Z</time>
</trkpt>
<trkpt lat="56.309071" lon="8.132278">
<ele>6.113352</ele>
<time>2026-07-13T09:40:55.000Z</time>
</trkpt>
<trkpt lat="56.309090" lon="8.132201">
<ele>6.088357</ele>
<time>2026-07-13T09:40:56.000Z</time>
</trkpt>
<trkpt lat="56.309113" lon="8.132126">
<ele>6.062940</ele>
<time>2026-07-13T09:40:57.000Z</time>
</trkpt>
<trkpt lat="56.309135" lon="8.132052">
<ele>6.038039</ele>
<time>2026-07-13T09:40:58.000Z</time>
</trkpt>
<trkpt lat="56.309158" lon="8.131976">
<ele>6.012361</ele>
<time>2026-07-13T09:40:59.000Z</time>
</trkpt>
<trkpt lat="56.309185" lon="8.131899">
<ele>5.985344</ele>
<time>2026-07-13T09:41:00.000Z</time>
</trkpt>
<trkpt lat="56.309212" lon="8.131828">
<ele>5.959813</ele>
<time>2026-07-13T09:41:01.000Z</time>
</trkpt>
<trkpt lat="56.309242" lon="8.131769">
<ele>5.936074</ele>
<time>2026-07-13T09:41:02.000Z</time>
</trkpt>
<trkpt lat="56.309273" lon="8.131723">
<ele>5.914607</ele>
<time>2026-07-13T09:41:03.000Z</time>
</trkpt>
<trkpt lat="56.309303" lon="8.131683">
<ele>5.894656</ele>
<time>2026-07-13T09:41:04.000Z</time>
</trkpt>
<trkpt lat="56.309330" lon="8.131636">
<ele>5.874588</ele>
<time>2026-07-13T09:41:05.000Z</time>
</trkpt>
<trkpt lat="56.309360" lon="8.131582">
<ele>5.851921</ele>
<time>2026-07-13T09:41:06.000Z</time>
</trkpt>
<trkpt lat="56.309395" lon="8.131529">
<ele>5.827481</ele>
<time>2026-07-13T09:41:07.000Z</time>
</trkpt>
<trkpt lat="56.309437" lon="8.131479">
<ele>5.800570</ele>
<time>2026-07-13T09:41:08.000Z</time>
</trkpt>
<trkpt lat="56.309483" lon="8.131437">
<ele>5.773000</ele>
<time>2026-07-13T09:41:09.000Z</time>
</trkpt>
<trkpt lat="56.309532" lon="8.131404">
<ele>5.745033</ele>
<time>2026-07-13T09:41:10.000Z</time>
</trkpt>
<trkpt lat="56.309582" lon="8.131382">
<ele>5.717514</ele>
<time>2026-07-13T09:41:11.000Z</time>
</trkpt>
<trkpt lat="56.309631" lon="8.131371">
<ele>5.691113</ele>
<time>2026-07-13T09:41:12.000Z</time>
</trkpt>
<trkpt lat="56.309673" lon="8.131369">
<ele>5.668649</ele>
<time>2026-07-13T09:41:13.000Z</time>
</trkpt>
<trkpt lat="56.309727" lon="8.131380">
<ele>5.639592</ele>
<time>2026-07-13T09:41:14.000Z</time>
</trkpt>
<trkpt lat="56.309773" lon="8.131396">
<ele>5.614544</ele>
<time>2026-07-13T09:41:15.000Z</time>
</trkpt>
<trkpt lat="56.309818" lon="8.131417">
<ele>5.589690</ele>
<time>2026-07-13T09:41:16.000Z</time>
</trkpt>
<trkpt lat="56.309864" lon="8.131450">
<ele>5.563219</ele>
<time>2026-07-13T09:41:17.000Z</time>
</trkpt>
<trkpt lat="56.309914" lon="8.131480">
<ele>5.535044</ele>
<time>2026-07-13T09:41:18.000Z</time>
</trkpt>
<trkpt lat="56.309959" lon="8.131509">
<ele>5.509492</ele>
<time>2026-07-13T09:41:19.000Z</time>
</trkpt>
<trkpt lat="56.310009" lon="8.131537">
<ele>5.481498</ele>
<time>2026-07-13T09:41:20.000Z</time>
</trkpt>
<trkpt lat="56.310062" lon="8.131568">
<ele>5.451706</ele>
<time>2026-07-13T09:41:21.000Z</time>
</trkpt>
<trkpt lat="56.310112" lon="8.131599">
<ele>5.423436</ele>
<time>2026-07-13T09:41:22.000Z</time>
</trkpt>
<trkpt lat="56.310162" lon="8.131632">
<ele>5.394967</ele>
<time>2026-07-13T09:41:23.000Z</time>
</trkpt>
<trkpt lat="56.310211" lon="8.131667">
<ele>5.366786</ele>
<time>2026-07-13T09:41:24.000Z</time>
</trkpt>
<trkpt lat="56.310261" lon="8.131704">
<ele>5.337888</ele>
<time>2026-07-13T09:41:25.000Z</time>
</trkpt>
<trkpt lat="56.310310" lon="8.131743">
<ele>5.309249</ele>
<time>2026-07-13T09:41:26.000Z</time>
</trkpt>
<trkpt lat="56.310356" lon="8.131785">
<ele>5.281679</ele>
<time>2026-07-13T09:41:27.000Z</time>
</trkpt>
<trkpt lat="56.310402" lon="8.131829">
<ele>5.253837</ele>
<time>2026-07-13T09:41:28.000Z</time>
</trkpt>
<trkpt lat="56.310444" lon="8.131873">
<ele>5.227864</ele>
<time>2026-07-13T09:41:29.000Z</time>
</trkpt>
<trkpt lat="56.310486" lon="8.131917">
<ele>5.201891</ele>
<time>2026-07-13T09:41:30.000Z</time>
</trkpt>
<trkpt lat="56.310528" lon="8.131958">
<ele>5.175480</ele>
<time>2026-07-13T09:41:31.000Z</time>
</trkpt>
<trkpt lat="56.310566" lon="8.131999">
<ele>5.144482</ele>
<time>2026-07-13T09:41:32.000Z</time>
</trkpt>
<trkpt lat="56.310608" lon="8.132040">
<ele>5.111051</ele>
<time>2026-07-13T09:41:33.000Z</time>
</trkpt>
<trkpt lat="56.310650" lon="8.132075">
<ele>5.078664</ele>
<time>2026-07-13T09:41:34.000Z</time>
</trkpt>
<trkpt lat="56.310696" lon="8.132103">
<ele>5.044681</ele>
<time>2026-07-13T09:41:35.000Z</time>
</trkpt>
<trkpt lat="56.310741" lon="8.132121">
<ele>5.012417</ele>
<time>2026-07-13T09:41:36.000Z</time>
</trkpt>
<trkpt lat="56.310787" lon="8.132131">
<ele>4.979985</ele>
<time>2026-07-13T09:41:37.000Z</time>
</trkpt>
<trkpt lat="56.310837" lon="8.132137">
<ele>4.944910</ele>
<time>2026-07-13T09:41:38.000Z</time>
</trkpt>
<trkpt lat="56.310890" lon="8.132144">
<ele>4.907713</ele>
<time>2026-07-13T09:41:39.000Z</time>
</trkpt>
<trkpt lat="56.310944" lon="8.132150">
<ele>4.869844</ele>
<time>2026-07-13T09:41:40.000Z</time>
</trkpt>
<trkpt lat="56.310993" lon="8.132160">
<ele>4.835327</ele>
<time>2026-07-13T09:41:41.000Z</time>
</trkpt>
<trkpt lat="56.311043" lon="8.132178">
<ele>4.799638</ele>
<time>2026-07-13T09:41:42.000Z</time>
</trkpt>
<trkpt lat="56.311089" lon="8.132206">
<ele>4.765655</ele>
<time>2026-07-13T09:41:43.000Z</time>
</trkpt>
<trkpt lat="56.311131" lon="8.132241">
<ele>4.733268</ele>
<time>2026-07-13T09:41:44.000Z</time>
</trkpt>
<trkpt lat="56.311169" lon="8.132280">
<ele>4.702662</ele>
<time>2026-07-13T09:41:45.000Z</time>
</trkpt>
<trkpt lat="56.311203" lon="8.132325">
<ele>4.673139</ele>
<time>2026-07-13T09:41:46.000Z</time>
</trkpt>
<trkpt lat="56.311245" lon="8.132377">
<ele>4.637476</ele>
<time>2026-07-13T09:41:47.000Z</time>
</trkpt>
<trkpt lat="56.311283" lon="8.132425">
<ele>4.604998</ele>
<time>2026-07-13T09:41:48.000Z</time>
</trkpt>
<trkpt lat="56.311321" lon="8.132473">
<ele>4.572521</ele>
<time>2026-07-13T09:41:49.000Z</time>
</trkpt>
<trkpt lat="56.311359" lon="8.132516">
<ele>4.541118</ele>
<time>2026-07-13T09:41:50.000Z</time>
</trkpt>
<trkpt lat="56.311405" lon="8.132546">
<ele>4.506878</ele>
<time>2026-07-13T09:41:51.000Z</time>
</trkpt>
<trkpt lat="56.311459" lon="8.132566">
<ele>4.468291</ele>
<time>2026-07-13T09:41:52.000Z</time>
</trkpt>
<trkpt lat="56.311516" lon="8.132574">
<ele>4.428273</ele>
<time>2026-07-13T09:41:53.000Z</time>
</trkpt>
<trkpt lat="56.311569" lon="8.132576">
<ele>4.391167</ele>
<time>2026-07-13T09:41:54.000Z</time>
</trkpt>
<trkpt lat="56.311623" lon="8.132570">
<ele>4.353298</ele>
<time>2026-07-13T09:41:55.000Z</time>
</trkpt>
<trkpt lat="56.311676" lon="8.132565">
<ele>4.316149</ele>
<time>2026-07-13T09:41:56.000Z</time>
</trkpt>
<trkpt lat="56.311729" lon="8.132559">
<ele>4.278979</ele>
<time>2026-07-13T09:41:57.000Z</time>
</trkpt>
<trkpt lat="56.311783" lon="8.132552">
<ele>4.241083</ele>
<time>2026-07-13T09:41:58.000Z</time>
</trkpt>
<trkpt lat="56.311836" lon="8.132545">
<ele>4.203886</ele>
<time>2026-07-13T09:41:59.000Z</time>
</trkpt>
<trkpt lat="56.311890" lon="8.132540">
<ele>4.166039</ele>
<time>2026-07-13T09:42:00.000Z</time>
</trkpt>
<trkpt lat="56.311943" lon="8.132533">
<ele>4.128842</ele>
<time>2026-07-13T09:42:01.000Z</time>
</trkpt>
<trkpt lat="56.311996" lon="8.132528">
<ele>4.091694</ele>
<time>2026-07-13T09:42:02.000Z</time>
</trkpt>
<trkpt lat="56.312050" lon="8.132522">
<ele>4.053824</ele>
<time>2026-07-13T09:42:03.000Z</time>
</trkpt>
<trkpt lat="56.312103" lon="8.132515">
<ele>4.016627</ele>
<time>2026-07-13T09:42:04.000Z</time>
</trkpt>
<trkpt lat="56.312153" lon="8.132509">
<ele>3.981552</ele>
<time>2026-07-13T09:42:05.000Z</time>
</trkpt>
<trkpt lat="56.312206" lon="8.132506">
<ele>3.944436</ele>
<time>2026-07-13T09:42:06.000Z</time>
</trkpt>
<trkpt lat="56.312260" lon="8.132503">
<ele>3.915965</ele>
<time>2026-07-13T09:42:07.000Z</time>
</trkpt>
<trkpt lat="56.312309" lon="8.132498">
<ele>3.905231</ele>
<time>2026-07-13T09:42:08.000Z</time>
</trkpt>
<trkpt lat="56.312355" lon="8.132493">
<ele>3.895152</ele>
<time>2026-07-13T09:42:09.000Z</time>
</trkpt>
<trkpt lat="56.312405" lon="8.132489">
<ele>3.884206</ele>
<time>2026-07-13T09:42:10.000Z</time>
</trkpt>
<trkpt lat="56.312458" lon="8.132487">
<ele>3.872612</ele>
<time>2026-07-13T09:42:11.000Z</time>
</trkpt>
<trkpt lat="56.312508" lon="8.132485">
<ele>3.861674</ele>
<time>2026-07-13T09:42:12.000Z</time>
</trkpt>
<trkpt lat="56.312557" lon="8.132483">
<ele>3.850954</ele>
<time>2026-07-13T09:42:13.000Z</time>
</trkpt>
<trkpt lat="56.312611" lon="8.132481">
<ele>3.839142</ele>
<time>2026-07-13T09:42:14.000Z</time>
</trkpt>
<trkpt lat="56.312664" lon="8.132477">
<ele>3.827540</ele>
<time>2026-07-13T09:42:15.000Z</time>
</trkpt>
<trkpt lat="56.312717" lon="8.132470">
<ele>3.815917</ele>
<time>2026-07-13T09:42:16.000Z</time>
</trkpt>
<trkpt lat="56.312767" lon="8.132465">
<ele>3.804965</ele>
<time>2026-07-13T09:42:17.000Z</time>
</trkpt>
<trkpt lat="56.312820" lon="8.132462">
<ele>3.793368</ele>
<time>2026-07-13T09:42:18.000Z</time>
</trkpt>
<trkpt lat="56.312870" lon="8.132457">
<ele>3.782416</ele>
<time>2026-07-13T09:42:19.000Z</time>
</trkpt>
<trkpt lat="56.312923" lon="8.132450">
<ele>3.770793</ele>
<time>2026-07-13T09:42:20.000Z</time>
</trkpt>
<trkpt lat="56.312977" lon="8.132443">
<ele>3.758953</ele>
<time>2026-07-13T09:42:21.000Z</time>
</trkpt>
<trkpt lat="56.313026" lon="8.132437">
<ele>3.748211</ele>
<time>2026-07-13T09:42:22.000Z</time>
</trkpt>
<trkpt lat="56.313080" lon="8.132433">
<ele>3.736391</ele>
<time>2026-07-13T09:42:23.000Z</time>
</trkpt>
<trkpt lat="56.313129" lon="8.132431">
<ele>3.725672</ele>
<time>2026-07-13T09:42:24.000Z</time>
</trkpt>
<trkpt lat="56.313183" lon="8.132427">
<ele>3.713851</ele>
<time>2026-07-13T09:42:25.000Z</time>
</trkpt>
<trkpt lat="56.313236" lon="8.132424">
<ele>3.702254</ele>
<time>2026-07-13T09:42:26.000Z</time>
</trkpt>
<trkpt lat="56.313286" lon="8.132421">
<ele>3.691313</ele>
<time>2026-07-13T09:42:27.000Z</time>
</trkpt>
<trkpt lat="56.313339" lon="8.132418">
<ele>3.679715</ele>
<time>2026-07-13T09:42:28.000Z</time>
</trkpt>
<trkpt lat="56.313393" lon="8.132413">
<ele>3.667890</ele>
<time>2026-07-13T09:42:29.000Z</time>
</trkpt>
<trkpt lat="56.313446" lon="8.132408">
<ele>3.656282</ele>
<time>2026-07-13T09:42:30.000Z</time>
</trkpt>
<trkpt lat="56.313496" lon="8.132403">
<ele>3.645330</ele>
<time>2026-07-13T09:42:31.000Z</time>
</trkpt>
<trkpt lat="56.313553" lon="8.132399">
<ele>3.632854</ele>
<time>2026-07-13T09:42:32.000Z</time>
</trkpt>
<trkpt lat="56.313606" lon="8.132396">
<ele>3.621257</ele>
<time>2026-07-13T09:42:33.000Z</time>
</trkpt>
<trkpt lat="56.313660" lon="8.132394">
<ele>3.609444</ele>
<time>2026-07-13T09:42:34.000Z</time>
</trkpt>
<trkpt lat="56.313713" lon="8.132390">
<ele>3.597843</ele>
<time>2026-07-13T09:42:35.000Z</time>
</trkpt>
<trkpt lat="56.313763" lon="8.132384">
<ele>3.586883</ele>
<time>2026-07-13T09:42:36.000Z</time>
</trkpt>
<trkpt lat="56.313812" lon="8.132380">
<ele>3.576155</ele>
<time>2026-07-13T09:42:37.000Z</time>
</trkpt>
<trkpt lat="56.313866" lon="8.132374">
<ele>3.564323</ele>
<time>2026-07-13T09:42:38.000Z</time>
</trkpt>
<trkpt lat="56.313919" lon="8.132368">
<ele>3.552708</ele>
<time>2026-07-13T09:42:39.000Z</time>
</trkpt>
<trkpt lat="56.313972" lon="8.132363">
<ele>3.541101</ele>
<time>2026-07-13T09:42:40.000Z</time>
</trkpt>
<trkpt lat="56.314026" lon="8.132357">
<ele>3.529268</ele>
<time>2026-07-13T09:42:41.000Z</time>
</trkpt>
<trkpt lat="56.314079" lon="8.132351">
<ele>3.518368</ele>
<time>2026-07-13T09:42:42.000Z</time>
</trkpt>
<trkpt lat="56.314133" lon="8.132343">
<ele>3.507440</ele>
<time>2026-07-13T09:42:43.000Z</time>
</trkpt>
<trkpt lat="56.314190" lon="8.132339">
<ele>3.495935</ele>
<time>2026-07-13T09:42:44.000Z</time>
</trkpt>
<trkpt lat="56.314239" lon="8.132334">
<ele>3.486036</ele>
<time>2026-07-13T09:42:45.000Z</time>
</trkpt>
<trkpt lat="56.314293" lon="8.132330">
<ele>3.475135</ele>
<time>2026-07-13T09:42:46.000Z</time>
</trkpt>
<trkpt lat="56.314346" lon="8.132326">
<ele>3.464436</ele>
<time>2026-07-13T09:42:47.000Z</time>
</trkpt>
<trkpt lat="56.314396" lon="8.132320">
<ele>3.454329</ele>
<time>2026-07-13T09:42:48.000Z</time>
</trkpt>
<trkpt lat="56.314449" lon="8.132315">
<ele>3.443624</ele>
<time>2026-07-13T09:42:49.000Z</time>
</trkpt>
<trkpt lat="56.314499" lon="8.132311">
<ele>3.433530</ele>
<time>2026-07-13T09:42:50.000Z</time>
</trkpt>
<trkpt lat="56.314549" lon="8.132308">
<ele>3.423439</ele>
<time>2026-07-13T09:42:51.000Z</time>
</trkpt>
<trkpt lat="56.314598" lon="8.132305">
<ele>3.413551</ele>
<time>2026-07-13T09:42:52.000Z</time>
</trkpt>
<trkpt lat="56.314651" lon="8.132301">
<ele>3.402851</ele>
<time>2026-07-13T09:42:53.000Z</time>
</trkpt>
<trkpt lat="56.314705" lon="8.132299">
<ele>3.391958</ele>
<time>2026-07-13T09:42:54.000Z</time>
</trkpt>
<trkpt lat="56.314754" lon="8.132296">
<ele>3.382069</ele>
<time>2026-07-13T09:42:55.000Z</time>
</trkpt>
<trkpt lat="56.314804" lon="8.132295">
<ele>3.371983</ele>
<time>2026-07-13T09:42:56.000Z</time>
</trkpt>
<trkpt lat="56.314857" lon="8.132294">
<ele>3.361293</ele>
<time>2026-07-13T09:42:57.000Z</time>
</trkpt>
<trkpt lat="56.314911" lon="8.132290">
<ele>3.350392</ele>
<time>2026-07-13T09:42:58.000Z</time>
</trkpt>
<trkpt lat="56.314964" lon="8.132285">
<ele>3.339688</ele>
<time>2026-07-13T09:42:59.000Z</time>
</trkpt>
<trkpt lat="56.315010" lon="8.132278">
<ele>3.330377</ele>
<time>2026-07-13T09:43:00.000Z</time>
</trkpt>
<trkpt lat="56.315060" lon="8.132274">
<ele>3.320282</ele>
<time>2026-07-13T09:43:01.000Z</time>
</trkpt>
<trkpt lat="56.315121" lon="8.132270">
<ele>3.307971</ele>
<time>2026-07-13T09:43:02.000Z</time>
</trkpt>
<trkpt lat="56.315170" lon="8.132262">
<ele>3.298047</ele>
<time>2026-07-13T09:43:03.000Z</time>
</trkpt>
<trkpt lat="56.315220" lon="8.132257">
<ele>3.287947</ele>
<time>2026-07-13T09:43:04.000Z</time>
</trkpt>
<trkpt lat="56.315269" lon="8.132252">
<ele>3.278048</ele>
<time>2026-07-13T09:43:05.000Z</time>
</trkpt>
<trkpt lat="56.315315" lon="8.132247">
<ele>3.268753</ele>
<time>2026-07-13T09:43:06.000Z</time>
</trkpt>
<trkpt lat="56.315365" lon="8.132243">
<ele>3.258659</ele>
<time>2026-07-13T09:43:07.000Z</time>
</trkpt>
<trkpt lat="56.315414" lon="8.132239">
<ele>3.248765</ele>
<time>2026-07-13T09:43:08.000Z</time>
</trkpt>
<trkpt lat="56.315464" lon="8.132236">
<ele>3.238675</ele>
<time>2026-07-13T09:43:09.000Z</time>
</trkpt>
<trkpt lat="56.315517" lon="8.132236">
<ele>3.227985</ele>
<time>2026-07-13T09:43:10.000Z</time>
</trkpt>
<trkpt lat="56.315563" lon="8.132237">
<ele>3.218707</ele>
<time>2026-07-13T09:43:11.000Z</time>
</trkpt>
<trkpt lat="56.315617" lon="8.132239">
<ele>3.207813</ele>
<time>2026-07-13T09:43:12.000Z</time>
</trkpt>
<trkpt lat="56.315666" lon="8.132241">
<ele>3.197927</ele>
<time>2026-07-13T09:43:13.000Z</time>
</trkpt>
<trkpt lat="56.315716" lon="8.132245">
<ele>3.187832</ele>
<time>2026-07-13T09:43:14.000Z</time>
</trkpt>
<trkpt lat="56.315762" lon="8.132251">
<ele>3.178530</ele>
<time>2026-07-13T09:43:15.000Z</time>
</trkpt>
<trkpt lat="56.315807" lon="8.132258">
<ele>3.169420</ele>
<time>2026-07-13T09:43:16.000Z</time>
</trkpt>
<trkpt lat="56.315853" lon="8.132261">
<ele>3.162810</ele>
<time>2026-07-13T09:43:17.000Z</time>
</trkpt>
<trkpt lat="56.315899" lon="8.132262">
<ele>3.159861</ele>
<time>2026-07-13T09:43:18.000Z</time>
</trkpt>
<trkpt lat="56.315941" lon="8.132264">
<ele>3.157168</ele>
<time>2026-07-13T09:43:19.000Z</time>
</trkpt>
<trkpt lat="56.315983" lon="8.132270">
<ele>3.154467</ele>
<time>2026-07-13T09:43:20.000Z</time>
</trkpt>
<trkpt lat="56.316017" lon="8.132279">
<ele>3.152264</ele>
<time>2026-07-13T09:43:21.000Z</time>
</trkpt>
<trkpt lat="56.316044" lon="8.132295">
<ele>3.150442</ele>
<time>2026-07-13T09:43:22.000Z</time>
</trkpt>
<trkpt lat="56.316067" lon="8.132301">
<ele>3.148952</ele>
<time>2026-07-13T09:43:23.000Z</time>
</trkpt>
<trkpt lat="56.316093" lon="8.132291">
<ele>3.147248</ele>
<time>2026-07-13T09:43:24.000Z</time>
</trkpt>
<trkpt lat="56.316120" lon="8.132277">
<ele>3.145447</ele>
<time>2026-07-13T09:43:25.000Z</time>
</trkpt>
<trkpt lat="56.316151" lon="8.132271">
<ele>3.143448</ele>
<time>2026-07-13T09:43:26.000Z</time>
</trkpt>
<trkpt lat="56.316177" lon="8.132273">
<ele>3.141780</ele>
<time>2026-07-13T09:43:27.000Z</time>
</trkpt>
<trkpt lat="56.316212" lon="8.132275">
<ele>3.139535</ele>
<time>2026-07-13T09:43:28.000Z</time>
</trkpt>
<trkpt lat="56.316242" lon="8.132268">
<ele>3.137596</ele>
<time>2026-07-13T09:43:29.000Z</time>
</trkpt>
<trkpt lat="56.316265" lon="8.132258">
<ele>3.136079</ele>
<time>2026-07-13T09:43:30.000Z</time>
</trkpt>
<trkpt lat="56.316296" lon="8.132249">
<ele>3.134066</ele>
<time>2026-07-13T09:43:31.000Z</time>
</trkpt>
<trkpt lat="56.316326" lon="8.132240">
<ele>3.132117</ele>
<time>2026-07-13T09:43:32.000Z</time>
</trkpt>
<trkpt lat="56.316349" lon="8.132232">
<ele>3.130615</ele>
<time>2026-07-13T09:43:33.000Z</time>
</trkpt>
<trkpt lat="56.316372" lon="8.132227">
<ele>3.129130</ele>
<time>2026-07-13T09:43:34.000Z</time>
</trkpt>
<trkpt lat="56.316391" lon="8.132226">
<ele>3.127911</ele>
<time>2026-07-13T09:43:35.000Z</time>
</trkpt>
<trkpt lat="56.316418" lon="8.132228">
<ele>3.126179</ele>
<time>2026-07-13T09:43:36.000Z</time>
</trkpt>
<trkpt lat="56.316441" lon="8.132231">
<ele>3.124701</ele>
<time>2026-07-13T09:43:37.000Z</time>
</trkpt>
<trkpt lat="56.316467" lon="8.132231">
<ele>3.123034</ele>
<time>2026-07-13T09:43:38.000Z</time>
</trkpt>
<trkpt lat="56.316498" lon="8.132223">
<ele>3.121026</ele>
<time>2026-07-13T09:43:39.000Z</time>
</trkpt>
<trkpt lat="56.316528" lon="8.132212">
<ele>3.119064</ele>
<time>2026-07-13T09:43:40.000Z</time>
</trkpt>
<trkpt lat="56.316563" lon="8.132206">
<ele>3.116810</ele>
<time>2026-07-13T09:43:41.000Z</time>
</trkpt>
<trkpt lat="56.316597" lon="8.132206">
<ele>3.114630</ele>
<time>2026-07-13T09:43:42.000Z</time>
</trkpt>
<trkpt lat="56.316639" lon="8.132209">
<ele>3.111936</ele>
<time>2026-07-13T09:43:43.000Z</time>
</trkpt>
<trkpt lat="56.316685" lon="8.132213">
<ele>3.108983</ele>
<time>2026-07-13T09:43:44.000Z</time>
</trkpt>
<trkpt lat="56.316727" lon="8.132215">
<ele>3.106290</ele>
<time>2026-07-13T09:43:45.000Z</time>
</trkpt>
<trkpt lat="56.316769" lon="8.132220">
<ele>3.103592</ele>
<time>2026-07-13T09:43:46.000Z</time>
</trkpt>
<trkpt lat="56.316807" lon="8.132223">
<ele>3.101153</ele>
<time>2026-07-13T09:43:47.000Z</time>
</trkpt>
<trkpt lat="56.316853" lon="8.132222">
<ele>3.098204</ele>
<time>2026-07-13T09:43:48.000Z</time>
</trkpt>
<trkpt lat="56.316902" lon="8.132219">
<ele>3.095061</ele>
<time>2026-07-13T09:43:49.000Z</time>
</trkpt>
<trkpt lat="56.316948" lon="8.132215">
<ele>3.092109</ele>
<time>2026-07-13T09:43:50.000Z</time>
</trkpt>
<trkpt lat="56.316994" lon="8.132206">
<ele>3.089143</ele>
<time>2026-07-13T09:43:51.000Z</time>
</trkpt>
<trkpt lat="56.317039" lon="8.132197">
<ele>3.086240</ele>
<time>2026-07-13T09:43:52.000Z</time>
</trkpt>
<trkpt lat="56.317089" lon="8.132191">
<ele>3.083028</ele>
<time>2026-07-13T09:43:53.000Z</time>
</trkpt>
<trkpt lat="56.317142" lon="8.132184">
<ele>3.079621</ele>
<time>2026-07-13T09:43:54.000Z</time>
</trkpt>
<trkpt lat="56.317188" lon="8.132175">
<ele>3.076655</ele>
<time>2026-07-13T09:43:55.000Z</time>
</trkpt>
<trkpt lat="56.317238" lon="8.132166">
<ele>3.073433</ele>
<time>2026-07-13T09:43:56.000Z</time>
</trkpt>
<trkpt lat="56.317284" lon="8.132153">
<ele>3.070449</ele>
<time>2026-07-13T09:43:57.000Z</time>
</trkpt>
<trkpt lat="56.317326" lon="8.132140">
<ele>3.067717</ele>
<time>2026-07-13T09:43:58.000Z</time>
</trkpt>
<trkpt lat="56.317371" lon="8.132125">
<ele>3.064783</ele>
<time>2026-07-13T09:43:59.000Z</time>
</trkpt>
<trkpt lat="56.317410" lon="8.132117">
<ele>3.062267</ele>
<time>2026-07-13T09:44:00.000Z</time>
</trkpt>
<trkpt lat="56.317451" lon="8.132123">
<ele>3.059630</ele>
<time>2026-07-13T09:44:01.000Z</time>
</trkpt>
<trkpt lat="56.317486" lon="8.132134">
<ele>3.057352</ele>
<time>2026-07-13T09:44:02.000Z</time>
</trkpt>
<trkpt lat="56.317513" lon="8.132156">
<ele>3.055453</ele>
<time>2026-07-13T09:44:03.000Z</time>
</trkpt>
<trkpt lat="56.317535" lon="8.132190">
<ele>3.053595</ele>
<time>2026-07-13T09:44:04.000Z</time>
</trkpt>
<trkpt lat="56.317551" lon="8.132231">
<ele>3.051813</ele>
<time>2026-07-13T09:44:05.000Z</time>
</trkpt>
<trkpt lat="56.317554" lon="8.132277">
<ele>3.050166</ele>
<time>2026-07-13T09:44:06.000Z</time>
</trkpt>
<trkpt lat="56.317562" lon="8.132323">
<ele>3.050455</ele>
<time>2026-07-13T09:44:07.000Z</time>
</trkpt>
<trkpt lat="56.317566" lon="8.132371">
<ele>3.060275</ele>
<time>2026-07-13T09:44:08.000Z</time>
</trkpt>
<trkpt lat="56.317570" lon="8.132422">
<ele>3.070695</ele>
<time>2026-07-13T09:44:09.000Z</time>
</trkpt>
<trkpt lat="56.317570" lon="8.132484">
<ele>3.083238</ele>
<time>2026-07-13T09:44:10.000Z</time>
</trkpt>
<trkpt lat="56.317566" lon="8.132561">
<ele>3.098884</ele>
<time>2026-07-13T09:44:11.000Z</time>
</trkpt>
<trkpt lat="56.317562" lon="8.132644">
<ele>3.115739</ele>
<time>2026-07-13T09:44:12.000Z</time>
</trkpt>
<trkpt lat="56.317562" lon="8.132716">
<ele>3.130305</ele>
<time>2026-07-13T09:44:13.000Z</time>
</trkpt>
<trkpt lat="56.317562" lon="8.132779">
<ele>3.143050</ele>
<time>2026-07-13T09:44:14.000Z</time>
</trkpt>
<trkpt lat="56.317570" lon="8.132843">
<ele>3.156323</ele>
<time>2026-07-13T09:44:15.000Z</time>
</trkpt>
<trkpt lat="56.317574" lon="8.132913">
<ele>3.170559</ele>
<time>2026-07-13T09:44:16.000Z</time>
</trkpt>
<trkpt lat="56.317577" lon="8.132989">
<ele>3.185973</ele>
<time>2026-07-13T09:44:17.000Z</time>
</trkpt>
<trkpt lat="56.317585" lon="8.133067">
<ele>3.202021</ele>
<time>2026-07-13T09:44:18.000Z</time>
</trkpt>
<trkpt lat="56.317596" lon="8.133142">
<ele>3.217715</ele>
<time>2026-07-13T09:44:19.000Z</time>
</trkpt>
<trkpt lat="56.317608" lon="8.133215">
<ele>3.233119</ele>
<time>2026-07-13T09:44:20.000Z</time>
</trkpt>
<trkpt lat="56.317619" lon="8.133287">
<ele>3.248227</ele>
<time>2026-07-13T09:44:21.000Z</time>
</trkpt>
<trkpt lat="56.317635" lon="8.133364">
<ele>3.264862</ele>
<time>2026-07-13T09:44:22.000Z</time>
</trkpt>
<trkpt lat="56.317650" lon="8.133434">
<ele>3.280044</ele>
<time>2026-07-13T09:44:23.000Z</time>
</trkpt>
<trkpt lat="56.317661" lon="8.133505">
<ele>3.294958</ele>
<time>2026-07-13T09:44:24.000Z</time>
</trkpt>
<trkpt lat="56.317669" lon="8.133575">
<ele>3.309417</ele>
<time>2026-07-13T09:44:25.000Z</time>
</trkpt>
<trkpt lat="56.317684" lon="8.133637">
<ele>3.323101</ele>
<time>2026-07-13T09:44:26.000Z</time>
</trkpt>
<trkpt lat="56.317699" lon="8.133699">
<ele>3.336786</ele>
<time>2026-07-13T09:44:27.000Z</time>
</trkpt>
<trkpt lat="56.317707" lon="8.133765">
<ele>3.350453</ele>
<time>2026-07-13T09:44:28.000Z</time>
</trkpt>
<trkpt lat="56.317715" lon="8.133821">
<ele>3.362152</ele>
<time>2026-07-13T09:44:29.000Z</time>
</trkpt>
<trkpt lat="56.317718" lon="8.133872">
<ele>3.372528</ele>
<time>2026-07-13T09:44:30.000Z</time>
</trkpt>
<trkpt lat="56.317726" lon="8.133923">
<ele>3.383250</ele>
<time>2026-07-13T09:44:31.000Z</time>
</trkpt>
<trkpt lat="56.317730" lon="8.133977">
<ele>3.394271</ele>
<time>2026-07-13T09:44:32.000Z</time>
</trkpt>
<trkpt lat="56.317730" lon="8.134029">
<ele>3.404791</ele>
<time>2026-07-13T09:44:33.000Z</time>
</trkpt>
<trkpt lat="56.317726" lon="8.134081">
<ele>3.415412</ele>
<time>2026-07-13T09:44:34.000Z</time>
</trkpt>
<trkpt lat="56.317722" lon="8.134133">
<ele>3.426032</ele>
<time>2026-07-13T09:44:35.000Z</time>
</trkpt>
<trkpt lat="56.317718" lon="8.134184">
<ele>3.436453</ele>
<time>2026-07-13T09:44:36.000Z</time>
</trkpt>
<trkpt lat="56.317718" lon="8.134231">
<ele>3.445961</ele>
<time>2026-07-13T09:44:37.000Z</time>
</trkpt>
<trkpt lat="56.317722" lon="8.134285">
<ele>3.456983</ele>
<time>2026-07-13T09:44:38.000Z</time>
</trkpt>
<trkpt lat="56.317726" lon="8.134348">
<ele>3.469811</ele>
<time>2026-07-13T09:44:39.000Z</time>
</trkpt>
<trkpt lat="56.317734" lon="8.134414">
<ele>3.483478</ele>
<time>2026-07-13T09:44:40.000Z</time>
</trkpt>
<trkpt lat="56.317749" lon="8.134474">
<ele>3.496793</ele>
<time>2026-07-13T09:44:41.000Z</time>
</trkpt>
<trkpt lat="56.317760" lon="8.134528">
<ele>3.508431</ele>
<time>2026-07-13T09:44:42.000Z</time>
</trkpt>
<trkpt lat="56.317780" lon="8.134583">
<ele>3.521737</ele>
<time>2026-07-13T09:44:43.000Z</time>
</trkpt>
<trkpt lat="56.317795" lon="8.134630">
<ele>3.532707</ele>
<time>2026-07-13T09:44:44.000Z</time>
</trkpt>
<trkpt lat="56.317810" lon="8.134665">
<ele>3.541655</ele>
<time>2026-07-13T09:44:45.000Z</time>
</trkpt>
<trkpt lat="56.317821" lon="8.134692">
<ele>3.548433</ele>
<time>2026-07-13T09:44:46.000Z</time>
</trkpt>
<trkpt lat="56.317841" lon="8.134719">
<ele>3.557547</ele>
<time>2026-07-13T09:44:47.000Z</time>
</trkpt>
<trkpt lat="56.317860" lon="8.134750">
<ele>3.566894</ele>
<time>2026-07-13T09:44:48.000Z</time>
</trkpt>
<trkpt lat="56.317879" lon="8.134773">
<ele>3.575242</ele>
<time>2026-07-13T09:44:49.000Z</time>
</trkpt>
<trkpt lat="56.317902" lon="8.134801">
<ele>3.585365</ele>
<time>2026-07-13T09:44:50.000Z</time>
</trkpt>
<trkpt lat="56.317925" lon="8.134830">
<ele>3.595603</ele>
<time>2026-07-13T09:44:51.000Z</time>
</trkpt>
<trkpt lat="56.317951" lon="8.134864">
<ele>3.607319</ele>
<time>2026-07-13T09:44:52.000Z</time>
</trkpt>
<trkpt lat="56.317970" lon="8.134888">
<ele>3.615782</ele>
<time>2026-07-13T09:44:53.000Z</time>
</trkpt>
<trkpt lat="56.317993" lon="8.134912">
<ele>3.625475</ele>
<time>2026-07-13T09:44:54.000Z</time>
</trkpt>
<trkpt lat="56.318031" lon="8.134935">
<ele>3.640097</ele>
<time>2026-07-13T09:44:55.000Z</time>
</trkpt>
<trkpt lat="56.318073" lon="8.134961">
<ele>3.656296</ele>
<time>2026-07-13T09:44:56.000Z</time>
</trkpt>
<trkpt lat="56.318108" lon="8.134983">
<ele>3.669817</ele>
<time>2026-07-13T09:44:57.000Z</time>
</trkpt>
<trkpt lat="56.318142" lon="8.135004">
<ele>3.682927</ele>
<time>2026-07-13T09:44:58.000Z</time>
</trkpt>
<trkpt lat="56.318172" lon="8.135024">
<ele>3.694595</ele>
<time>2026-07-13T09:44:59.000Z</time>
</trkpt>
<trkpt lat="56.318211" lon="8.135056">
<ele>3.701628</ele>
<time>2026-07-13T09:45:00.000Z</time>
</trkpt>
<trkpt lat="56.318249" lon="8.135078">
<ele>3.692810</ele>
<time>2026-07-13T09:45:01.000Z</time>
</trkpt>
<trkpt lat="56.318279" lon="8.135097">
<ele>3.685784</ele>
<time>2026-07-13T09:45:02.000Z</time>
</trkpt>
<trkpt lat="56.318314" lon="8.135113">
<ele>3.677806</ele>
<time>2026-07-13T09:45:03.000Z</time>
</trkpt>
<trkpt lat="56.318356" lon="8.135135">
<ele>3.668143</ele>
<time>2026-07-13T09:45:04.000Z</time>
</trkpt>
<trkpt lat="56.318394" lon="8.135149">
<ele>3.659573</ele>
<time>2026-07-13T09:45:05.000Z</time>
</trkpt>
<trkpt lat="56.318428" lon="8.135157">
<ele>3.651997</ele>
<time>2026-07-13T09:45:06.000Z</time>
</trkpt>
<trkpt lat="56.318455" lon="8.135161">
<ele>3.646011</ele>
<time>2026-07-13T09:45:07.000Z</time>
</trkpt>
<trkpt lat="56.318481" lon="8.135166">
<ele>3.640234</ele>
<time>2026-07-13T09:45:08.000Z</time>
</trkpt>
<trkpt lat="56.318504" lon="8.135171">
<ele>3.635115</ele>
<time>2026-07-13T09:45:09.000Z</time>
</trkpt>
<trkpt lat="56.318531" lon="8.135178">
<ele>3.629088</ele>
<time>2026-07-13T09:45:10.000Z</time>
</trkpt>
<trkpt lat="56.318562" lon="8.135189">
<ele>3.622107</ele>
<time>2026-07-13T09:45:11.000Z</time>
</trkpt>
<trkpt lat="56.318592" lon="8.135200">
<ele>3.615343</ele>
<time>2026-07-13T09:45:12.000Z</time>
</trkpt>
<trkpt lat="56.318626" lon="8.135211">
<ele>3.607711</ele>
<time>2026-07-13T09:45:13.000Z</time>
</trkpt>
<trkpt lat="56.318653" lon="8.135220">
<ele>3.601644</ele>
<time>2026-07-13T09:45:14.000Z</time>
</trkpt>
<trkpt lat="56.318676" lon="8.135227">
<ele>3.596490</ele>
<time>2026-07-13T09:45:15.000Z</time>
</trkpt>
<trkpt lat="56.318703" lon="8.135235">
<ele>3.590445</ele>
<time>2026-07-13T09:45:16.000Z</time>
</trkpt>
<trkpt lat="56.318733" lon="8.135246">
<ele>3.583680</ele>
<time>2026-07-13T09:45:17.000Z</time>
</trkpt>
<trkpt lat="56.318775" lon="8.135267">
<ele>3.574050</ele>
<time>2026-07-13T09:45:18.000Z</time>
</trkpt>
<trkpt lat="56.318813" lon="8.135287">
<ele>3.565304</ele>
<time>2026-07-13T09:45:19.000Z</time>
</trkpt>
<trkpt lat="56.318848" lon="8.135309">
<ele>3.557114</ele>
<time>2026-07-13T09:45:20.000Z</time>
</trkpt>
<trkpt lat="56.318878" lon="8.135334">
<ele>3.549812</ele>
<time>2026-07-13T09:45:21.000Z</time>
</trkpt>
<trkpt lat="56.318916" lon="8.135363">
<ele>3.540695</ele>
<time>2026-07-13T09:45:22.000Z</time>
</trkpt>
<trkpt lat="56.318951" lon="8.135393">
<ele>3.532132</ele>
<time>2026-07-13T09:45:23.000Z</time>
</trkpt>
<trkpt lat="56.318989" lon="8.135427">
<ele>3.522759</ele>
<time>2026-07-13T09:45:24.000Z</time>
</trkpt>
<trkpt lat="56.319023" lon="8.135456">
<ele>3.514449</ele>
<time>2026-07-13T09:45:25.000Z</time>
</trkpt>
<trkpt lat="56.319050" lon="8.135478">
<ele>3.507902</ele>
<time>2026-07-13T09:45:26.000Z</time>
</trkpt>
<trkpt lat="56.319084" lon="8.135496">
<ele>3.500073</ele>
<time>2026-07-13T09:45:27.000Z</time>
</trkpt>
<trkpt lat="56.319115" lon="8.135509">
<ele>3.493041</ele>
<time>2026-07-13T09:45:28.000Z</time>
</trkpt>
<trkpt lat="56.319145" lon="8.135515">
<ele>3.486371</ele>
<time>2026-07-13T09:45:29.000Z</time>
</trkpt>
<trkpt lat="56.319183" lon="8.135520">
<ele>3.477953</ele>
<time>2026-07-13T09:45:30.000Z</time>
</trkpt>
<trkpt lat="56.319218" lon="8.135523">
<ele>3.470211</ele>
<time>2026-07-13T09:45:31.000Z</time>
</trkpt>
<trkpt lat="56.319248" lon="8.135517">
<ele>3.463542</ele>
<time>2026-07-13T09:45:32.000Z</time>
</trkpt>
<trkpt lat="56.319271" lon="8.135500">
<ele>3.458049</ele>
<time>2026-07-13T09:45:33.000Z</time>
</trkpt>
<trkpt lat="56.319290" lon="8.135467">
<ele>3.452221</ele>
<time>2026-07-13T09:45:34.000Z</time>
</trkpt>
<trkpt lat="56.319313" lon="8.135434">
<ele>3.445726</ele>
<time>2026-07-13T09:45:35.000Z</time>
</trkpt>
<trkpt lat="56.319332" lon="8.135404">
<ele>3.440146</ele>
<time>2026-07-13T09:45:36.000Z</time>
</trkpt>
<trkpt lat="56.319347" lon="8.135373">
<ele>3.435105</ele>
<time>2026-07-13T09:45:37.000Z</time>
</trkpt>
<trkpt lat="56.319359" lon="8.135339">
<ele>3.430167</ele>
<time>2026-07-13T09:45:38.000Z</time>
</trkpt>
<trkpt lat="56.319366" lon="8.135300">
<ele>3.425144</ele>
<time>2026-07-13T09:45:39.000Z</time>
</trkpt>
<trkpt lat="56.319366" lon="8.135259">
<ele>3.420120</ele>
<time>2026-07-13T09:45:40.000Z</time>
</trkpt>
<trkpt lat="56.319370" lon="8.135213">
<ele>3.414415</ele>
<time>2026-07-13T09:45:41.000Z</time>
</trkpt>
<trkpt lat="56.319386" lon="8.135165">
<ele>3.407553</ele>
<time>2026-07-13T09:45:42.000Z</time>
</trkpt>
<trkpt lat="56.319393" lon="8.135114">
<ele>3.401115</ele>
<time>2026-07-13T09:45:43.000Z</time>
</trkpt>
<trkpt lat="56.319405" lon="8.135059">
<ele>3.393873</ele>
<time>2026-07-13T09:45:44.000Z</time>
</trkpt>
<trkpt lat="56.319424" lon="8.135009">
<ele>3.386446</ele>
<time>2026-07-13T09:45:45.000Z</time>
</trkpt>
<trkpt lat="56.319458" lon="8.134952">
<ele>3.376189</ele>
<time>2026-07-13T09:45:46.000Z</time>
</trkpt>
<trkpt lat="56.319488" lon="8.134896">
<ele>3.366648</ele>
<time>2026-07-13T09:45:47.000Z</time>
</trkpt>
<trkpt lat="56.319523" lon="8.134838">
<ele>3.356145</ele>
<time>2026-07-13T09:45:48.000Z</time>
</trkpt>
<trkpt lat="56.319557" lon="8.134779">
<ele>3.345719</ele>
<time>2026-07-13T09:45:49.000Z</time>
</trkpt>
<trkpt lat="56.319599" lon="8.134720">
<ele>3.333956</ele>
<time>2026-07-13T09:45:50.000Z</time>
</trkpt>
<trkpt lat="56.319637" lon="8.134657">
<ele>3.322550</ele>
<time>2026-07-13T09:45:51.000Z</time>
</trkpt>
<trkpt lat="56.319660" lon="8.134593">
<ele>3.313206</ele>
<time>2026-07-13T09:45:52.000Z</time>
</trkpt>
<trkpt lat="56.319675" lon="8.134528">
<ele>3.299284</ele>
<time>2026-07-13T09:45:53.000Z</time>
</trkpt>
<trkpt lat="56.319691" lon="8.134460">
<ele>3.273581</ele>
<time>2026-07-13T09:45:54.000Z</time>
</trkpt>
<trkpt lat="56.319702" lon="8.134393">
<ele>3.249269</ele>
<time>2026-07-13T09:45:55.000Z</time>
</trkpt>
<trkpt lat="56.319714" lon="8.134328">
<ele>3.225432</ele>
<time>2026-07-13T09:45:56.000Z</time>
</trkpt>
<trkpt lat="56.319729" lon="8.134263">
<ele>3.200935</ele>
<time>2026-07-13T09:45:57.000Z</time>
</trkpt>
<trkpt lat="56.319733" lon="8.134194">
<ele>3.176795</ele>
<time>2026-07-13T09:45:58.000Z</time>
</trkpt>
<trkpt lat="56.319740" lon="8.134122">
<ele>3.151361</ele>
<time>2026-07-13T09:45:59.000Z</time>
</trkpt>
<trkpt lat="56.319748" lon="8.134045">
<ele>3.124103</ele>
<time>2026-07-13T09:46:00.000Z</time>
</trkpt>
<trkpt lat="56.319763" lon="8.133973">
<ele>3.097341</ele>
<time>2026-07-13T09:46:01.000Z</time>
</trkpt>
<trkpt lat="56.319778" lon="8.133901">
<ele>3.070579</ele>
<time>2026-07-13T09:46:02.000Z</time>
</trkpt>
<trkpt lat="56.319801" lon="8.133819">
<ele>3.038605</ele>
<time>2026-07-13T09:46:03.000Z</time>
</trkpt>
<trkpt lat="56.319836" lon="8.133725">
<ele>2.999210</ele>
<time>2026-07-13T09:46:04.000Z</time>
</trkpt>
<trkpt lat="56.319870" lon="8.133635">
<ele>2.961319</ele>
<time>2026-07-13T09:46:05.000Z</time>
</trkpt>
<trkpt lat="56.319908" lon="8.133533">
<ele>2.918563</ele>
<time>2026-07-13T09:46:06.000Z</time>
</trkpt>
<trkpt lat="56.319946" lon="8.133429">
<ele>2.875228</ele>
<time>2026-07-13T09:46:07.000Z</time>
</trkpt>
<trkpt lat="56.319992" lon="8.133321">
<ele>2.827845</ele>
<time>2026-07-13T09:46:08.000Z</time>
</trkpt>
<trkpt lat="56.320026" lon="8.133223">
<ele>2.787623</ele>
<time>2026-07-13T09:46:09.000Z</time>
</trkpt>
<trkpt lat="56.320061" lon="8.133132">
<ele>2.749089</ele>
<time>2026-07-13T09:46:10.000Z</time>
</trkpt>
<trkpt lat="56.320091" lon="8.133043">
<ele>2.712850</ele>
<time>2026-07-13T09:46:11.000Z</time>
</trkpt>
<trkpt lat="56.320126" lon="8.132944">
<ele>2.671999</ele>
<time>2026-07-13T09:46:12.000Z</time>
</trkpt>
<trkpt lat="56.320160" lon="8.132841">
<ele>2.630292</ele>
<time>2026-07-13T09:46:13.000Z</time>
</trkpt>
<trkpt lat="56.320187" lon="8.132734">
<ele>2.589389</ele>
<time>2026-07-13T09:46:14.000Z</time>
</trkpt>
<trkpt lat="56.320206" lon="8.132635">
<ele>2.552938</ele>
<time>2026-07-13T09:46:15.000Z</time>
</trkpt>
<trkpt lat="56.320221" lon="8.132546">
<ele>2.520572</ele>
<time>2026-07-13T09:46:16.000Z</time>
</trkpt>
<trkpt lat="56.320236" lon="8.132457">
<ele>2.488206</ele>
<time>2026-07-13T09:46:17.000Z</time>
</trkpt>
<trkpt lat="56.320259" lon="8.132359">
<ele>2.451180</ele>
<time>2026-07-13T09:46:18.000Z</time>
</trkpt>
<trkpt lat="56.320282" lon="8.132271">
<ele>2.417330</ele>
<time>2026-07-13T09:46:19.000Z</time>
</trkpt>
<trkpt lat="56.320305" lon="8.132187">
<ele>2.384734</ele>
<time>2026-07-13T09:46:20.000Z</time>
</trkpt>
<trkpt lat="56.320335" lon="8.132093">
<ele>2.346998</ele>
<time>2026-07-13T09:46:21.000Z</time>
</trkpt>
<trkpt lat="56.320374" lon="8.131983">
<ele>2.301570</ele>
<time>2026-07-13T09:46:22.000Z</time>
</trkpt>
<trkpt lat="56.320400" lon="8.131886">
<ele>2.264084</ele>
<time>2026-07-13T09:46:23.000Z</time>
</trkpt>
<trkpt lat="56.320427" lon="8.131810">
<ele>2.232679</ele>
<time>2026-07-13T09:46:24.000Z</time>
</trkpt>
<trkpt lat="56.320450" lon="8.131752">
<ele>2.207870</ele>
<time>2026-07-13T09:46:25.000Z</time>
</trkpt>
<trkpt lat="56.320473" lon="8.131721">
<ele>2.189853</ele>
<time>2026-07-13T09:46:26.000Z</time>
</trkpt>
<trkpt lat="56.320496" lon="8.131701">
<ele>2.176698</ele>
<time>2026-07-13T09:46:27.000Z</time>
</trkpt>
<trkpt lat="56.320522" lon="8.131679">
<ele>2.168820</ele>
<time>2026-07-13T09:46:28.000Z</time>
</trkpt>
<trkpt lat="56.320545" lon="8.131654">
<ele>2.161454</ele>
<time>2026-07-13T09:46:29.000Z</time>
</trkpt>
<trkpt lat="56.320564" lon="8.131622">
<ele>2.154322</ele>
<time>2026-07-13T09:46:30.000Z</time>
</trkpt>
<trkpt lat="56.320583" lon="8.131594">
<ele>2.147592</ele>
<time>2026-07-13T09:46:31.000Z</time>
</trkpt>
<trkpt lat="56.320591" lon="8.131580">
<ele>2.144534</ele>
<time>2026-07-13T09:46:32.000Z</time>
</trkpt>
<trkpt lat="56.320595" lon="8.131577">
<ele>2.143345</ele>
<time>2026-07-13T09:46:33.000Z</time>
</trkpt>
<trkpt lat="56.320599" lon="8.131578">
<ele>2.142238</ele>
<time>2026-07-13T09:46:34.000Z</time>
</trkpt>
<trkpt lat="56.320602" lon="8.131580">
<ele>2.141360</ele>
<time>2026-07-13T09:46:35.000Z</time>
</trkpt>
<trkpt lat="56.320606" lon="8.131566">
<ele>2.138965</ele>
<time>2026-07-13T09:46:37.000Z</time>
</trkpt>
<trkpt lat="56.320610" lon="8.131532">
<ele>2.133678</ele>
<time>2026-07-13T09:46:38.000Z</time>
</trkpt>
<trkpt lat="56.320602" lon="8.131522">
<ele>2.131008</ele>
<time>2026-07-13T09:46:39.000Z</time>
</trkpt>
<trkpt lat="56.320599" lon="8.131522">
<ele>2.130185</ele>
<time>2026-07-13T09:46:40.000Z</time>
</trkpt>
<trkpt lat="56.320591" lon="8.131525">
<ele>2.127943</ele>
<time>2026-07-13T09:46:41.000Z</time>
</trkpt>
<trkpt lat="56.320580" lon="8.131535">
<ele>2.124564</ele>
<time>2026-07-13T09:46:42.000Z</time>
</trkpt>
<trkpt lat="56.320564" lon="8.131537">
<ele>2.120165</ele>
<time>2026-07-13T09:46:43.000Z</time>
</trkpt>
<trkpt lat="56.320541" lon="8.131539">
<ele>2.113849</ele>
<time>2026-07-13T09:46:44.000Z</time>
</trkpt>
<trkpt lat="56.320518" lon="8.131534">
<ele>2.107494</ele>
<time>2026-07-13T09:46:45.000Z</time>
</trkpt>
<trkpt lat="56.320496" lon="8.131526">
<ele>2.101338</ele>
<time>2026-07-13T09:46:46.000Z</time>
</trkpt>
<trkpt lat="56.320480" lon="8.131522">
<ele>2.096907</ele>
<time>2026-07-13T09:46:47.000Z</time>
</trkpt>
<trkpt lat="56.320469" lon="8.131525">
<ele>2.093855</ele>
<time>2026-07-13T09:46:48.000Z</time>
</trkpt>
<trkpt lat="56.320465" lon="8.131539">
<ele>2.091460</ele>
<time>2026-07-13T09:46:49.000Z</time>
</trkpt>
<trkpt lat="56.320473" lon="8.131553">
<ele>2.088402</ele>
<time>2026-07-13T09:46:50.000Z</time>
</trkpt>
<trkpt lat="56.320484" lon="8.131559">
<ele>2.085250</ele>
<time>2026-07-13T09:46:51.000Z</time>
</trkpt>
<trkpt lat="56.320503" lon="8.131557">
<ele>2.080029</ele>
<time>2026-07-13T09:46:52.000Z</time>
</trkpt>
<trkpt lat="56.320526" lon="8.131545">
<ele>2.073461</ele>
<time>2026-07-13T09:46:53.000Z</time>
</trkpt>
<trkpt lat="56.320549" lon="8.131528">
<ele>2.066643</ele>
<time>2026-07-13T09:46:54.000Z</time>
</trkpt>
<trkpt lat="56.320576" lon="8.131499">
<ele>2.058022</ele>
<time>2026-07-13T09:46:55.000Z</time>
</trkpt>
<trkpt lat="56.320606" lon="8.131455">
<ele>2.047415</ele>
<time>2026-07-13T09:46:56.000Z</time>
</trkpt>
<trkpt lat="56.320637" lon="8.131399">
<ele>2.035379</ele>
<time>2026-07-13T09:46:57.000Z</time>
</trkpt>
<trkpt lat="56.320667" lon="8.131330">
<ele>2.022042</ele>
<time>2026-07-13T09:46:58.000Z</time>
</trkpt>
<trkpt lat="56.320690" lon="8.131250">
<ele>2.008335</ele>
<time>2026-07-13T09:46:59.000Z</time>
</trkpt>
<trkpt lat="56.320713" lon="8.131171">
<ele>1.994762</ele>
<time>2026-07-13T09:47:00.000Z</time>
</trkpt>
<trkpt lat="56.320736" lon="8.131092">
<ele>1.981190</ele>
<time>2026-07-13T09:47:01.000Z</time>
</trkpt>
<trkpt lat="56.320751" lon="8.131017">
<ele>1.969062</ele>
<time>2026-07-13T09:47:02.000Z</time>
</trkpt>
<trkpt lat="56.320770" lon="8.130941">
<ele>1.956381</ele>
<time>2026-07-13T09:47:03.000Z</time>
</trkpt>
<trkpt lat="56.320789" lon="8.130858">
<ele>1.942722</ele>
<time>2026-07-13T09:47:04.000Z</time>
</trkpt>
<trkpt lat="56.320808" lon="8.130770">
<ele>1.928358</ele>
<time>2026-07-13T09:47:05.000Z</time>
</trkpt>
<trkpt lat="56.320831" lon="8.130675">
<ele>1.912590</ele>
<time>2026-07-13T09:47:06.000Z</time>
</trkpt>
<trkpt lat="56.320847" lon="8.130578">
<ele>1.897196</ele>
<time>2026-07-13T09:47:07.000Z</time>
</trkpt>
<trkpt lat="56.320862" lon="8.130482">
<ele>1.882025</ele>
<time>2026-07-13T09:47:08.000Z</time>
</trkpt>
<trkpt lat="56.320877" lon="8.130383">
<ele>1.866413</ele>
<time>2026-07-13T09:47:09.000Z</time>
</trkpt>
<trkpt lat="56.320892" lon="8.130282">
<ele>1.850509</ele>
<time>2026-07-13T09:47:10.000Z</time>
</trkpt>
<trkpt lat="56.320911" lon="8.130173">
<ele>1.833129</ele>
<time>2026-07-13T09:47:11.000Z</time>
</trkpt>
<trkpt lat="56.320923" lon="8.130054">
<ele>1.814730</ele>
<time>2026-07-13T09:47:12.000Z</time>
</trkpt>
<trkpt lat="56.320927" lon="8.129941">
<ele>1.797507</ele>
<time>2026-07-13T09:47:13.000Z</time>
</trkpt>
<trkpt lat="56.320931" lon="8.129831">
<ele>1.780739</ele>
<time>2026-07-13T09:47:14.000Z</time>
</trkpt>
<trkpt lat="56.320934" lon="8.129728">
<ele>1.765049</ele>
<time>2026-07-13T09:47:15.000Z</time>
</trkpt>
<trkpt lat="56.320938" lon="8.129623">
<ele>1.749040</ele>
<time>2026-07-13T09:47:16.000Z</time>
</trkpt>
<trkpt lat="56.320946" lon="8.129514">
<ele>1.732315</ele>
<time>2026-07-13T09:47:17.000Z</time>
</trkpt>
<trkpt lat="56.320957" lon="8.129400">
<ele>1.714714</ele>
<time>2026-07-13T09:47:18.000Z</time>
</trkpt>
<trkpt lat="56.320972" lon="8.129286">
<ele>1.696892</ele>
<time>2026-07-13T09:47:19.000Z</time>
</trkpt>
<trkpt lat="56.320984" lon="8.129170">
<ele>1.691446</ele>
<time>2026-07-13T09:47:20.000Z</time>
</trkpt>
<trkpt lat="56.320995" lon="8.129057">
<ele>1.707010</ele>
<time>2026-07-13T09:47:21.000Z</time>
</trkpt>
<trkpt lat="56.321011" lon="8.128943">
<ele>1.722963</ele>
<time>2026-07-13T09:47:22.000Z</time>
</trkpt>
<trkpt lat="56.321030" lon="8.128828">
<ele>1.739242</ele>
<time>2026-07-13T09:47:23.000Z</time>
</trkpt>
<trkpt lat="56.321049" lon="8.128714">
<ele>1.755390</ele>
<time>2026-07-13T09:47:24.000Z</time>
</trkpt>
<trkpt lat="56.321064" lon="8.128601">
<ele>1.771153</ele>
<time>2026-07-13T09:47:25.000Z</time>
</trkpt>
<trkpt lat="56.321079" lon="8.128490">
<ele>1.786652</ele>
<time>2026-07-13T09:47:26.000Z</time>
</trkpt>
<trkpt lat="56.321098" lon="8.128380">
<ele>1.802281</ele>
<time>2026-07-13T09:47:27.000Z</time>
</trkpt>
<trkpt lat="56.321114" lon="8.128273">
<ele>1.817315</ele>
<time>2026-07-13T09:47:28.000Z</time>
</trkpt>
<trkpt lat="56.321133" lon="8.128168">
<ele>1.832299</ele>
<time>2026-07-13T09:47:29.000Z</time>
</trkpt>
<trkpt lat="56.321148" lon="8.128064">
<ele>1.846877</ele>
<time>2026-07-13T09:47:30.000Z</time>
</trkpt>
<trkpt lat="56.321163" lon="8.127958">
<ele>1.861717</ele>
<time>2026-07-13T09:47:31.000Z</time>
</trkpt>
<trkpt lat="56.321178" lon="8.127849">
<ele>1.876953</ele>
<time>2026-07-13T09:47:32.000Z</time>
</trkpt>
<trkpt lat="56.321201" lon="8.127738">
<ele>1.893028</ele>
<time>2026-07-13T09:47:33.000Z</time>
</trkpt>
<trkpt lat="56.321228" lon="8.127629">
<ele>1.909223</ele>
<time>2026-07-13T09:47:34.000Z</time>
</trkpt>
<trkpt lat="56.321255" lon="8.127524">
<ele>1.924924</ele>
<time>2026-07-13T09:47:35.000Z</time>
</trkpt>
<trkpt lat="56.321281" lon="8.127426">
<ele>1.939662</ele>
<time>2026-07-13T09:47:36.000Z</time>
</trkpt>
<trkpt lat="56.321316" lon="8.127333">
<ele>1.954909</ele>
<time>2026-07-13T09:47:37.000Z</time>
</trkpt>
<trkpt lat="56.321354" lon="8.127246">
<ele>1.969933</ele>
<time>2026-07-13T09:47:38.000Z</time>
</trkpt>
<trkpt lat="56.321392" lon="8.127172">
<ele>1.983614</ele>
<time>2026-07-13T09:47:39.000Z</time>
</trkpt>
<trkpt lat="56.321430" lon="8.127110">
<ele>1.996151</ele>
<time>2026-07-13T09:47:40.000Z</time>
</trkpt>
<trkpt lat="56.321468" lon="8.127056">
<ele>2.007986</ele>
<time>2026-07-13T09:47:41.000Z</time>
</trkpt>
<trkpt lat="56.321507" lon="8.126994">
<ele>2.020705</ele>
<time>2026-07-13T09:47:42.000Z</time>
</trkpt>
<trkpt lat="56.321529" lon="8.126918">
<ele>2.032335</ele>
<time>2026-07-13T09:47:43.000Z</time>
</trkpt>
<trkpt lat="56.321552" lon="8.126828">
<ele>2.045779</ele>
<time>2026-07-13T09:47:44.000Z</time>
</trkpt>
<trkpt lat="56.321571" lon="8.126736">
<ele>2.059097</ele>
<time>2026-07-13T09:47:45.000Z</time>
</trkpt>
<trkpt lat="56.321594" lon="8.126641">
<ele>2.073159</ele>
<time>2026-07-13T09:47:46.000Z</time>
</trkpt>
<trkpt lat="56.321617" lon="8.126545">
<ele>2.087346</ele>
<time>2026-07-13T09:47:47.000Z</time>
</trkpt>
<trkpt lat="56.321644" lon="8.126447">
<ele>2.102190</ele>
<time>2026-07-13T09:47:48.000Z</time>
</trkpt>
<trkpt lat="56.321674" lon="8.126348">
<ele>2.117495</ele>
<time>2026-07-13T09:47:49.000Z</time>
</trkpt>
<trkpt lat="56.321701" lon="8.126245">
<ele>2.121291</ele>
<time>2026-07-13T09:47:50.000Z</time>
</trkpt>
<trkpt lat="56.321728" lon="8.126143">
<ele>2.112425</ele>
<time>2026-07-13T09:47:51.000Z</time>
</trkpt>
<trkpt lat="56.321754" lon="8.126044">
<ele>2.103833</ele>
<time>2026-07-13T09:47:52.000Z</time>
</trkpt>
<trkpt lat="56.321785" lon="8.125945">
<ele>2.094915</ele>
<time>2026-07-13T09:47:53.000Z</time>
</trkpt>
<trkpt lat="56.321808" lon="8.125849">
<ele>2.086712</ele>
<time>2026-07-13T09:47:54.000Z</time>
</trkpt>
<trkpt lat="56.321835" lon="8.125754">
<ele>2.078338</ele>
<time>2026-07-13T09:47:55.000Z</time>
</trkpt>
<trkpt lat="56.321857" lon="8.125662">
<ele>2.070479</ele>
<time>2026-07-13T09:47:56.000Z</time>
</trkpt>
<trkpt lat="56.321880" lon="8.125570">
<ele>2.062563</ele>
<time>2026-07-13T09:47:57.000Z</time>
</trkpt>
<trkpt lat="56.321903" lon="8.125479">
<ele>2.054719</ele>
<time>2026-07-13T09:47:58.000Z</time>
</trkpt>
<trkpt lat="56.321926" lon="8.125387">
<ele>2.046803</ele>
<time>2026-07-13T09:47:59.000Z</time>
</trkpt>
<trkpt lat="56.321949" lon="8.125300">
<ele>2.039243</ele>
<time>2026-07-13T09:48:00.000Z</time>
</trkpt>
<trkpt lat="56.321972" lon="8.125216">
<ele>2.031894</ele>
<time>2026-07-13T09:48:01.000Z</time>
</trkpt>
<trkpt lat="56.321995" lon="8.125132">
<ele>2.024546</ele>
<time>2026-07-13T09:48:02.000Z</time>
</trkpt>
<trkpt lat="56.322018" lon="8.125050">
<ele>2.017338</ele>
<time>2026-07-13T09:48:03.000Z</time>
</trkpt>
<trkpt lat="56.322037" lon="8.124972">
<ele>2.010655</ele>
<time>2026-07-13T09:48:04.000Z</time>
</trkpt>
<trkpt lat="56.322056" lon="8.124899">
<ele>2.004330</ele>
<time>2026-07-13T09:48:05.000Z</time>
</trkpt>
<trkpt lat="56.322075" lon="8.124829">
<ele>1.998217</ele>
<time>2026-07-13T09:48:06.000Z</time>
</trkpt>
<trkpt lat="56.322102" lon="8.124763">
<ele>1.991783</ele>
<time>2026-07-13T09:48:07.000Z</time>
</trkpt>
<trkpt lat="56.322125" lon="8.124696">
<ele>1.985602</ele>
<time>2026-07-13T09:48:08.000Z</time>
</trkpt>
<trkpt lat="56.322151" lon="8.124632">
<ele>1.979379</ele>
<time>2026-07-13T09:48:09.000Z</time>
</trkpt>
<trkpt lat="56.322178" lon="8.124568">
<ele>1.973071</ele>
<time>2026-07-13T09:48:10.000Z</time>
</trkpt>
<trkpt lat="56.322212" lon="8.124507">
<ele>1.966287</ele>
<time>2026-07-13T09:48:11.000Z</time>
</trkpt>
<trkpt lat="56.322250" lon="8.124455">
<ele>1.959540</ele>
<time>2026-07-13T09:48:12.000Z</time>
</trkpt>
<trkpt lat="56.322289" lon="8.124410">
<ele>1.952990</ele>
<time>2026-07-13T09:48:13.000Z</time>
</trkpt>
<trkpt lat="56.322327" lon="8.124371">
<ele>1.946805</ele>
<time>2026-07-13T09:48:14.000Z</time>
</trkpt>
<trkpt lat="56.322365" lon="8.124338">
<ele>1.940839</ele>
<time>2026-07-13T09:48:15.000Z</time>
</trkpt>
<trkpt lat="56.322403" lon="8.124312">
<ele>1.935090</ele>
<time>2026-07-13T09:48:16.000Z</time>
</trkpt>
<trkpt lat="56.322437" lon="8.124292">
<ele>1.930032</ele>
<time>2026-07-13T09:48:17.000Z</time>
</trkpt>
<trkpt lat="56.322475" lon="8.124274">
<ele>1.924474</ele>
<time>2026-07-13T09:48:18.000Z</time>
</trkpt>
<trkpt lat="56.322510" lon="8.124264">
<ele>1.919461</ele>
<time>2026-07-13T09:48:19.000Z</time>
</trkpt>
<trkpt lat="56.322548" lon="8.124260">
<ele>1.914077</ele>
<time>2026-07-13T09:48:20.000Z</time>
</trkpt>
<trkpt lat="56.322586" lon="8.124259">
<ele>1.908701</ele>
<time>2026-07-13T09:48:21.000Z</time>
</trkpt>
<trkpt lat="56.322624" lon="8.124265">
<ele>1.903305</ele>
<time>2026-07-13T09:48:22.000Z</time>
</trkpt>
<trkpt lat="56.322659" lon="8.124272">
<ele>1.898324</ele>
<time>2026-07-13T09:48:23.000Z</time>
</trkpt>
<trkpt lat="56.322689" lon="8.124274">
<ele>1.894078</ele>
<time>2026-07-13T09:48:24.000Z</time>
</trkpt>
<trkpt lat="56.322708" lon="8.124271">
<ele>1.891380</ele>
<time>2026-07-13T09:48:25.000Z</time>
</trkpt>
<trkpt lat="56.322723" lon="8.124266">
<ele>1.889222</ele>
<time>2026-07-13T09:48:26.000Z</time>
</trkpt>
<trkpt lat="56.322739" lon="8.124257">
<ele>1.886851</ele>
<time>2026-07-13T09:48:27.000Z</time>
</trkpt>
<trkpt lat="56.322659" lon="8.124187">
<ele>1.874273</ele>
<time>2026-07-13T09:50:18.000Z</time>
</trkpt>
<trkpt lat="56.322647" lon="8.124174">
<ele>1.872293</ele>
<time>2026-07-13T09:50:19.000Z</time>
</trkpt>
<trkpt lat="56.322636" lon="8.124156">
<ele>1.870704</ele>
<time>2026-07-13T09:50:20.000Z</time>
</trkpt>
<trkpt lat="56.322628" lon="8.124136">
<ele>1.869816</ele>
<time>2026-07-13T09:50:21.000Z</time>
</trkpt>
<trkpt lat="56.322620" lon="8.124120">
<ele>1.869040</ele>
<time>2026-07-13T09:50:22.000Z</time>
</trkpt>
<trkpt lat="56.322617" lon="8.124110">
<ele>1.868631</ele>
<time>2026-07-13T09:50:23.000Z</time>
</trkpt>
<trkpt lat="56.322617" lon="8.124106">
<ele>1.868487</ele>
<time>2026-07-13T09:50:24.000Z</time>
</trkpt>
<trkpt lat="56.322617" lon="8.124105">
<ele>1.868451</ele>
<time>2026-07-13T09:50:25.000Z</time>
</trkpt>
<trkpt lat="56.322617" lon="8.124105">
<ele>1.868451</ele>
<time>2026-07-13T09:50:26.000Z</time>
</trkpt>
<trkpt lat="56.322605" lon="8.124096">
<ele>1.867607</ele>
<time>2026-07-13T09:51:31.000Z</time>
</trkpt>
<trkpt lat="56.322586" lon="8.124079">
<ele>1.866230</ele>
<time>2026-07-13T09:51:32.000Z</time>
</trkpt>
<trkpt lat="56.322582" lon="8.124081">
<ele>1.865961</ele>
<time>2026-07-13T09:51:33.000Z</time>
</trkpt>
<trkpt lat="56.322578" lon="8.124084">
<ele>1.865680</ele>
<time>2026-07-13T09:51:34.000Z</time>
</trkpt>
<trkpt lat="56.322578" lon="8.124085">
<ele>1.865644</ele>
<time>2026-07-13T09:51:35.000Z</time>
</trkpt>
<trkpt lat="56.322578" lon="8.124085">
<ele>1.865644</ele>
<time>2026-07-13T09:52:33.000Z</time>
</trkpt>
<trkpt lat="56.322578" lon="8.124085">
<ele>1.865644</ele>
<time>2026-07-13T09:52:36.000Z</time>
</trkpt>
<trkpt lat="56.322662" lon="8.124197">
<ele>1.858861</ele>
<time>2026-07-13T10:01:00.000Z</time>
</trkpt>
<trkpt lat="56.322674" lon="8.124215">
<ele>1.857848</ele>
<time>2026-07-13T10:01:01.000Z</time>
</trkpt>
<trkpt lat="56.322685" lon="8.124237">
<ele>1.856782</ele>
<time>2026-07-13T10:01:02.000Z</time>
</trkpt>
<trkpt lat="56.322704" lon="8.124260">
<ele>1.855296</ele>
<time>2026-07-13T10:01:03.000Z</time>
</trkpt>
<trkpt lat="56.322723" lon="8.124284">
<ele>1.853790</ele>
<time>2026-07-13T10:01:04.000Z</time>
</trkpt>
<trkpt lat="56.322746" lon="8.124309">
<ele>1.852046</ele>
<time>2026-07-13T10:01:05.000Z</time>
</trkpt>
<trkpt lat="56.322773" lon="8.124335">
<ele>1.850059</ele>
<time>2026-07-13T10:01:06.000Z</time>
</trkpt>
<trkpt lat="56.322796" lon="8.124364">
<ele>1.848237</ele>
<time>2026-07-13T10:01:07.000Z</time>
</trkpt>
<trkpt lat="56.322826" lon="8.124392">
<ele>1.846044</ele>
<time>2026-07-13T10:01:08.000Z</time>
</trkpt>
<trkpt lat="56.322853" lon="8.124417">
<ele>1.844074</ele>
<time>2026-07-13T10:01:09.000Z</time>
</trkpt>
<trkpt lat="56.322880" lon="8.124440">
<ele>1.842135</ele>
<time>2026-07-13T10:01:10.000Z</time>
</trkpt>
<trkpt lat="56.322903" lon="8.124467">
<ele>1.840353</ele>
<time>2026-07-13T10:01:11.000Z</time>
</trkpt>
<trkpt lat="56.322922" lon="8.124496">
<ele>1.838737</ele>
<time>2026-07-13T10:01:12.000Z</time>
</trkpt>
<trkpt lat="56.322945" lon="8.124526">
<ele>1.836895</ele>
<time>2026-07-13T10:01:13.000Z</time>
</trkpt>
<trkpt lat="56.322964" lon="8.124556">
<ele>1.835255</ele>
<time>2026-07-13T10:01:14.000Z</time>
</trkpt>
<trkpt lat="56.322979" lon="8.124586">
<ele>1.833801</ele>
<time>2026-07-13T10:01:15.000Z</time>
</trkpt>
<trkpt lat="56.322994" lon="8.124618">
<ele>1.832292</ele>
<time>2026-07-13T10:01:16.000Z</time>
</trkpt>
<trkpt lat="56.323006" lon="8.124650">
<ele>1.830902</ele>
<time>2026-07-13T10:01:17.000Z</time>
</trkpt>
<trkpt lat="56.323009" lon="8.124677">
<ele>1.829910</ele>
<time>2026-07-13T10:01:18.000Z</time>
</trkpt>
<trkpt lat="56.323013" lon="8.124690">
<ele>1.829375</ele>
<time>2026-07-13T10:01:19.000Z</time>
</trkpt>
<trkpt lat="56.323017" lon="8.124694">
<ele>1.829078</ele>
<time>2026-07-13T10:01:20.000Z</time>
</trkpt>
<trkpt lat="56.323021" lon="8.124700">
<ele>1.828740</ele>
<time>2026-07-13T10:01:21.000Z</time>
</trkpt>
<trkpt lat="56.323025" lon="8.124711">
<ele>1.828267</ele>
<time>2026-07-13T10:01:22.000Z</time>
</trkpt>
<trkpt lat="56.323048" lon="8.124774">
<ele>1.825551</ele>
<time>2026-07-13T10:01:24.000Z</time>
</trkpt>
<trkpt lat="56.323059" lon="8.124814">
<ele>1.823944</ele>
<time>2026-07-13T10:01:25.000Z</time>
</trkpt>
<trkpt lat="56.323070" lon="8.124851">
<ele>1.822433</ele>
<time>2026-07-13T10:01:26.000Z</time>
</trkpt>
<trkpt lat="56.323090" lon="8.124870">
<ele>1.820965</ele>
<time>2026-07-13T10:01:27.000Z</time>
</trkpt>
<trkpt lat="56.323109" lon="8.124865">
<ele>1.819719</ele>
<time>2026-07-13T10:01:28.000Z</time>
</trkpt>
<trkpt lat="56.323132" lon="8.124841">
<ele>1.817993</ele>
<time>2026-07-13T10:01:29.000Z</time>
</trkpt>
<trkpt lat="56.323158" lon="8.124810">
<ele>1.815970</ele>
<time>2026-07-13T10:01:30.000Z</time>
</trkpt>
<trkpt lat="56.323193" lon="8.124772">
<ele>1.813318</ele>
<time>2026-07-13T10:01:31.000Z</time>
</trkpt>
<trkpt lat="56.323227" lon="8.124734">
<ele>1.810721</ele>
<time>2026-07-13T10:01:32.000Z</time>
</trkpt>
<trkpt lat="56.323265" lon="8.124691">
<ele>1.807808</ele>
<time>2026-07-13T10:01:33.000Z</time>
</trkpt>
<trkpt lat="56.323303" lon="8.124646">
<ele>1.804857</ele>
<time>2026-07-13T10:01:34.000Z</time>
</trkpt>
<trkpt lat="56.323345" lon="8.124602">
<ele>1.801703</ele>
<time>2026-07-13T10:01:35.000Z</time>
</trkpt>
<trkpt lat="56.323387" lon="8.124557">
<ele>1.798532</ele>
<time>2026-07-13T10:01:36.000Z</time>
</trkpt>
<trkpt lat="56.323433" lon="8.124513">
<ele>1.795151</ele>
<time>2026-07-13T10:01:37.000Z</time>
</trkpt>
<trkpt lat="56.323479" lon="8.124467">
<ele>1.791736</ele>
<time>2026-07-13T10:01:38.000Z</time>
</trkpt>
<trkpt lat="56.323524" lon="8.124423">
<ele>1.788413</ele>
<time>2026-07-13T10:01:39.000Z</time>
</trkpt>
<trkpt lat="56.323570" lon="8.124382">
<ele>1.785082</ele>
<time>2026-07-13T10:01:40.000Z</time>
</trkpt>
<trkpt lat="56.323616" lon="8.124343">
<ele>1.781782</ele>
<time>2026-07-13T10:01:41.000Z</time>
</trkpt>
<trkpt lat="56.323666" lon="8.124304">
<ele>1.778245</ele>
<time>2026-07-13T10:01:42.000Z</time>
</trkpt>
<trkpt lat="56.323715" lon="8.124264">
<ele>1.774753</ele>
<time>2026-07-13T10:01:43.000Z</time>
</trkpt>
<trkpt lat="56.323761" lon="8.124223">
<ele>1.771422</ele>
<time>2026-07-13T10:01:44.000Z</time>
</trkpt>
<trkpt lat="56.323811" lon="8.124185">
<ele>1.767899</ele>
<time>2026-07-13T10:01:45.000Z</time>
</trkpt>
<trkpt lat="56.323864" lon="8.124147">
<ele>1.764197</ele>
<time>2026-07-13T10:01:46.000Z</time>
</trkpt>
<trkpt lat="56.323917" lon="8.124111">
<ele>1.760520</ele>
<time>2026-07-13T10:01:47.000Z</time>
</trkpt>
<trkpt lat="56.323971" lon="8.124080">
<ele>1.756841</ele>
<time>2026-07-13T10:01:48.000Z</time>
</trkpt>
<trkpt lat="56.324020" lon="8.124049">
<ele>1.754669</ele>
<time>2026-07-13T10:01:49.000Z</time>
</trkpt>
<trkpt lat="56.324074" lon="8.124021">
<ele>1.755904</ele>
<time>2026-07-13T10:01:50.000Z</time>
</trkpt>
<trkpt lat="56.324127" lon="8.123993">
<ele>1.757118</ele>
<time>2026-07-13T10:01:51.000Z</time>
</trkpt>
<trkpt lat="56.324177" lon="8.123967">
<ele>1.758261</ele>
<time>2026-07-13T10:01:52.000Z</time>
</trkpt>
<trkpt lat="56.324226" lon="8.123944">
<ele>1.759374</ele>
<time>2026-07-13T10:01:53.000Z</time>
</trkpt>
<trkpt lat="56.324280" lon="8.123923">
<ele>1.760588</ele>
<time>2026-07-13T10:01:54.000Z</time>
</trkpt>
<trkpt lat="56.324333" lon="8.123906">
<ele>1.761771</ele>
<time>2026-07-13T10:01:55.000Z</time>
</trkpt>
<trkpt lat="56.324379" lon="8.123890">
<ele>1.762800</ele>
<time>2026-07-13T10:01:56.000Z</time>
</trkpt>
<trkpt lat="56.324432" lon="8.123874">
<ele>1.763981</ele>
<time>2026-07-13T10:01:57.000Z</time>
</trkpt>
<trkpt lat="56.324490" lon="8.123855">
<ele>1.765277</ele>
<time>2026-07-13T10:01:58.000Z</time>
</trkpt>
<trkpt lat="56.324543" lon="8.123837">
<ele>1.766462</ele>
<time>2026-07-13T10:01:59.000Z</time>
</trkpt>
<trkpt lat="56.324593" lon="8.123822">
<ele>1.767576</ele>
<time>2026-07-13T10:02:00.000Z</time>
</trkpt>
<trkpt lat="56.324646" lon="8.123807">
<ele>1.768755</ele>
<time>2026-07-13T10:02:01.000Z</time>
</trkpt>
<trkpt lat="56.324699" lon="8.123791">
<ele>1.769935</ele>
<time>2026-07-13T10:02:02.000Z</time>
</trkpt>
<trkpt lat="56.324749" lon="8.123776">
<ele>1.771049</ele>
<time>2026-07-13T10:02:03.000Z</time>
</trkpt>
<trkpt lat="56.324802" lon="8.123764">
<ele>1.772223</ele>
<time>2026-07-13T10:02:04.000Z</time>
</trkpt>
<trkpt lat="56.324852" lon="8.123751">
<ele>1.773333</ele>
<time>2026-07-13T10:02:05.000Z</time>
</trkpt>
<trkpt lat="56.324902" lon="8.123739">
<ele>1.774442</ele>
<time>2026-07-13T10:02:06.000Z</time>
</trkpt>
<trkpt lat="56.324951" lon="8.123726">
<ele>1.775530</ele>
<time>2026-07-13T10:02:07.000Z</time>
</trkpt>
<trkpt lat="56.324997" lon="8.123711">
<ele>1.776557</ele>
<time>2026-07-13T10:02:08.000Z</time>
</trkpt>
<trkpt lat="56.325043" lon="8.123695">
<ele>1.777587</ele>
<time>2026-07-13T10:02:09.000Z</time>
</trkpt>
<trkpt lat="56.325092" lon="8.123683">
<ele>1.778673</ele>
<time>2026-07-13T10:02:10.000Z</time>
</trkpt>
<trkpt lat="56.325138" lon="8.123672">
<ele>1.779693</ele>
<time>2026-07-13T10:02:11.000Z</time>
</trkpt>
<trkpt lat="56.325184" lon="8.123656">
<ele>1.780723</ele>
<time>2026-07-13T10:02:12.000Z</time>
</trkpt>
<trkpt lat="56.325230" lon="8.123639">
<ele>1.781754</ele>
<time>2026-07-13T10:02:13.000Z</time>
</trkpt>
<trkpt lat="56.325279" lon="8.123624">
<ele>1.782847</ele>
<time>2026-07-13T10:02:14.000Z</time>
</trkpt>
<trkpt lat="56.325329" lon="8.123610">
<ele>1.783959</ele>
<time>2026-07-13T10:02:15.000Z</time>
</trkpt>
<trkpt lat="56.325378" lon="8.123599">
<ele>1.785044</ele>
<time>2026-07-13T10:02:16.000Z</time>
</trkpt>
<trkpt lat="56.325428" lon="8.123590">
<ele>1.786148</ele>
<time>2026-07-13T10:02:17.000Z</time>
</trkpt>
<trkpt lat="56.325478" lon="8.123580">
<ele>1.787253</ele>
<time>2026-07-13T10:02:18.000Z</time>
</trkpt>
<trkpt lat="56.325527" lon="8.123568">
<ele>1.788340</ele>
<time>2026-07-13T10:02:19.000Z</time>
</trkpt>
<trkpt lat="56.325577" lon="8.123555">
<ele>1.789450</ele>
<time>2026-07-13T10:02:20.000Z</time>
</trkpt>
<trkpt lat="56.325626" lon="8.123543">
<ele>1.790537</ele>
<time>2026-07-13T10:02:21.000Z</time>
</trkpt>
<trkpt lat="56.325672" lon="8.123531">
<ele>1.791558</ele>
<time>2026-07-13T10:02:22.000Z</time>
</trkpt>
<trkpt lat="56.325722" lon="8.123520">
<ele>1.792665</ele>
<time>2026-07-13T10:02:23.000Z</time>
</trkpt>
<trkpt lat="56.325775" lon="8.123506">
<ele>1.793842</ele>
<time>2026-07-13T10:02:24.000Z</time>
</trkpt>
<trkpt lat="56.325825" lon="8.123493">
<ele>1.776101</ele>
<time>2026-07-13T10:02:25.000Z</time>
</trkpt>
<trkpt lat="56.325874" lon="8.123484">
<ele>1.757954</ele>
<time>2026-07-13T10:02:26.000Z</time>
</trkpt>
<trkpt lat="56.325928" lon="8.123476">
<ele>1.737990</ele>
<time>2026-07-13T10:02:27.000Z</time>
</trkpt>
<trkpt lat="56.325985" lon="8.123466">
<ele>1.716888</ele>
<time>2026-07-13T10:02:28.000Z</time>
</trkpt>
<trkpt lat="56.326038" lon="8.123456">
<ele>1.697254</ele>
<time>2026-07-13T10:02:29.000Z</time>
</trkpt>
<trkpt lat="56.326092" lon="8.123446">
<ele>1.677252</ele>
<time>2026-07-13T10:02:30.000Z</time>
</trkpt>
<trkpt lat="56.326145" lon="8.123440">
<ele>1.657685</ele>
<time>2026-07-13T10:02:31.000Z</time>
</trkpt>
<trkpt lat="56.326199" lon="8.123433">
<ele>1.637737</ele>
<time>2026-07-13T10:02:32.000Z</time>
</trkpt>
<trkpt lat="56.326252" lon="8.123426">
<ele>1.618157</ele>
<time>2026-07-13T10:02:33.000Z</time>
</trkpt>
<trkpt lat="56.326309" lon="8.123418">
<ele>1.597091</ele>
<time>2026-07-13T10:02:34.000Z</time>
</trkpt>
<trkpt lat="56.326363" lon="8.123407">
<ele>1.577068</ele>
<time>2026-07-13T10:02:35.000Z</time>
</trkpt>
<trkpt lat="56.326412" lon="8.123400">
<ele>1.558957</ele>
<time>2026-07-13T10:02:36.000Z</time>
</trkpt>
<trkpt lat="56.326469" lon="8.123396">
<ele>1.537939</ele>
<time>2026-07-13T10:02:37.000Z</time>
</trkpt>
<trkpt lat="56.326523" lon="8.123393">
<ele>1.518032</ele>
<time>2026-07-13T10:02:38.000Z</time>
</trkpt>
<trkpt lat="56.326576" lon="8.123386">
<ele>1.498452</ele>
<time>2026-07-13T10:02:39.000Z</time>
</trkpt>
<trkpt lat="56.326630" lon="8.123378">
<ele>1.478488</ele>
<time>2026-07-13T10:02:40.000Z</time>
</trkpt>
<trkpt lat="56.326687" lon="8.123373">
<ele>1.457461</ele>
<time>2026-07-13T10:02:41.000Z</time>
</trkpt>
<trkpt lat="56.326740" lon="8.123370">
<ele>1.437923</ele>
<time>2026-07-13T10:02:42.000Z</time>
</trkpt>
<trkpt lat="56.326798" lon="8.123369">
<ele>1.416551</ele>
<time>2026-07-13T10:02:43.000Z</time>
</trkpt>
<trkpt lat="56.326851" lon="8.123366">
<ele>1.397013</ele>
<time>2026-07-13T10:02:44.000Z</time>
</trkpt>
<trkpt lat="56.326904" lon="8.123364">
<ele>1.377481</ele>
<time>2026-07-13T10:02:45.000Z</time>
</trkpt>
<trkpt lat="56.326958" lon="8.123360">
<ele>1.357567</ele>
<time>2026-07-13T10:02:46.000Z</time>
</trkpt>
<trkpt lat="56.327007" lon="8.123356">
<ele>1.339494</ele>
<time>2026-07-13T10:02:47.000Z</time>
</trkpt>
<trkpt lat="56.327061" lon="8.123353">
<ele>1.319588</ele>
<time>2026-07-13T10:02:48.000Z</time>
</trkpt>
<trkpt lat="56.327114" lon="8.123352">
<ele>1.300059</ele>
<time>2026-07-13T10:02:49.000Z</time>
</trkpt>
<trkpt lat="56.327164" lon="8.123354">
<ele>1.281631</ele>
<time>2026-07-13T10:02:50.000Z</time>
</trkpt>
<trkpt lat="56.327213" lon="8.123358">
<ele>1.263558</ele>
<time>2026-07-13T10:02:51.000Z</time>
</trkpt>
<trkpt lat="56.327263" lon="8.123359">
<ele>1.245134</ele>
<time>2026-07-13T10:02:52.000Z</time>
</trkpt>
<trkpt lat="56.327309" lon="8.123359">
<ele>1.228185</ele>
<time>2026-07-13T10:02:53.000Z</time>
</trkpt>
<trkpt lat="56.327362" lon="8.123361">
<ele>1.208652</ele>
<time>2026-07-13T10:02:54.000Z</time>
</trkpt>
<trkpt lat="56.327415" lon="8.123362">
<ele>1.189123</ele>
<time>2026-07-13T10:02:55.000Z</time>
</trkpt>
<trkpt lat="56.327465" lon="8.123362">
<ele>1.170700</ele>
<time>2026-07-13T10:02:56.000Z</time>
</trkpt>
<trkpt lat="56.327518" lon="8.123361">
<ele>1.151170</ele>
<time>2026-07-13T10:02:57.000Z</time>
</trkpt>
<trkpt lat="56.327568" lon="8.123358">
<ele>1.132737</ele>
<time>2026-07-13T10:02:58.000Z</time>
</trkpt>
<trkpt lat="56.327621" lon="8.123356">
<ele>1.115708</ele>
<time>2026-07-13T10:02:59.000Z</time>
</trkpt>
<trkpt lat="56.327671" lon="8.123355">
<ele>1.099852</ele>
<time>2026-07-13T10:03:00.000Z</time>
</trkpt>
<trkpt lat="56.327724" lon="8.123354">
<ele>1.083044</ele>
<time>2026-07-13T10:03:01.000Z</time>
</trkpt>
<trkpt lat="56.327778" lon="8.123353">
<ele>1.065920</ele>
<time>2026-07-13T10:03:02.000Z</time>
</trkpt>
<trkpt lat="56.327831" lon="8.123352">
<ele>1.049112</ele>
<time>2026-07-13T10:03:03.000Z</time>
</trkpt>
<trkpt lat="56.327885" lon="8.123351">
<ele>1.031988</ele>
<time>2026-07-13T10:03:04.000Z</time>
</trkpt>
<trkpt lat="56.327942" lon="8.123347">
<ele>1.013899</ele>
<time>2026-07-13T10:03:05.000Z</time>
</trkpt>
<trkpt lat="56.327995" lon="8.123344">
<ele>0.997085</ele>
<time>2026-07-13T10:03:06.000Z</time>
</trkpt>
<trkpt lat="56.328053" lon="8.123342">
<ele>0.978689</ele>
<time>2026-07-13T10:03:07.000Z</time>
</trkpt>
<trkpt lat="56.328110" lon="8.123339">
<ele>0.960607</ele>
<time>2026-07-13T10:03:08.000Z</time>
</trkpt>
<trkpt lat="56.328167" lon="8.123336">
<ele>0.942524</ele>
<time>2026-07-13T10:03:09.000Z</time>
</trkpt>
<trkpt lat="56.328224" lon="8.123333">
<ele>0.924441</ele>
<time>2026-07-13T10:03:10.000Z</time>
</trkpt>
<trkpt lat="56.328281" lon="8.123332">
<ele>0.906366</ele>
<time>2026-07-13T10:03:11.000Z</time>
</trkpt>
<trkpt lat="56.328339" lon="8.123331">
<ele>0.887973</ele>
<time>2026-07-13T10:03:12.000Z</time>
</trkpt>
<trkpt lat="56.328396" lon="8.123329">
<ele>0.869894</ele>
<time>2026-07-13T10:03:13.000Z</time>
</trkpt>
<trkpt lat="56.328453" lon="8.123327">
<ele>0.851816</ele>
<time>2026-07-13T10:03:14.000Z</time>
</trkpt>
<trkpt lat="56.328514" lon="8.123325">
<ele>0.832470</ele>
<time>2026-07-13T10:03:15.000Z</time>
</trkpt>
<trkpt lat="56.328571" lon="8.123322">
<ele>0.814387</ele>
<time>2026-07-13T10:03:16.000Z</time>
</trkpt>
<trkpt lat="56.328629" lon="8.123320">
<ele>0.795992</ele>
<time>2026-07-13T10:03:17.000Z</time>
</trkpt>
<trkpt lat="56.328686" lon="8.123315">
<ele>0.777895</ele>
<time>2026-07-13T10:03:18.000Z</time>
</trkpt>
<trkpt lat="56.328739" lon="8.123310">
<ele>0.761066</ele>
<time>2026-07-13T10:03:19.000Z</time>
</trkpt>
<trkpt lat="56.328796" lon="8.123306">
<ele>0.742977</ele>
<time>2026-07-13T10:03:20.000Z</time>
</trkpt>
<trkpt lat="56.328854" lon="8.123306">
<ele>0.724585</ele>
<time>2026-07-13T10:03:21.000Z</time>
</trkpt>
<trkpt lat="56.328911" lon="8.123306">
<ele>0.706510</ele>
<time>2026-07-13T10:03:22.000Z</time>
</trkpt>
<trkpt lat="56.328968" lon="8.123306">
<ele>0.688435</ele>
<time>2026-07-13T10:03:23.000Z</time>
</trkpt>
<trkpt lat="56.329025" lon="8.123305">
<ele>0.670360</ele>
<time>2026-07-13T10:03:24.000Z</time>
</trkpt>
<trkpt lat="56.329083" lon="8.123304">
<ele>0.651967</ele>
<time>2026-07-13T10:03:25.000Z</time>
</trkpt>
<trkpt lat="56.329140" lon="8.123302">
<ele>0.633889</ele>
<time>2026-07-13T10:03:26.000Z</time>
</trkpt>
<trkpt lat="56.329193" lon="8.123300">
<ele>0.617078</ele>
<time>2026-07-13T10:03:27.000Z</time>
</trkpt>
<trkpt lat="56.329250" lon="8.123298">
<ele>0.599000</ele>
<time>2026-07-13T10:03:28.000Z</time>
</trkpt>
<trkpt lat="56.329308" lon="8.123294">
<ele>0.580595</ele>
<time>2026-07-13T10:03:29.000Z</time>
</trkpt>
<trkpt lat="56.329361" lon="8.123291">
<ele>0.563780</ele>
<time>2026-07-13T10:03:30.000Z</time>
</trkpt>
<trkpt lat="56.329418" lon="8.123287">
<ele>0.570003</ele>
<time>2026-07-13T10:03:31.000Z</time>
</trkpt>
<trkpt lat="56.329472" lon="8.123284">
<ele>0.580424</ele>
<time>2026-07-13T10:03:32.000Z</time>
</trkpt>
<trkpt lat="56.329521" lon="8.123281">
<ele>0.589880</ele>
<time>2026-07-13T10:03:33.000Z</time>
</trkpt>
<trkpt lat="56.329575" lon="8.123281">
<ele>0.600296</ele>
<time>2026-07-13T10:03:34.000Z</time>
</trkpt>
<trkpt lat="56.329628" lon="8.123279">
<ele>0.610521</ele>
<time>2026-07-13T10:03:35.000Z</time>
</trkpt>
<trkpt lat="56.329681" lon="8.123276">
<ele>0.620748</ele>
<time>2026-07-13T10:03:36.000Z</time>
</trkpt>
<trkpt lat="56.329739" lon="8.123273">
<ele>0.631940</ele>
<time>2026-07-13T10:03:37.000Z</time>
</trkpt>
<trkpt lat="56.329796" lon="8.123271">
<ele>0.642936</ele>
<time>2026-07-13T10:03:38.000Z</time>
</trkpt>
<trkpt lat="56.329849" lon="8.123267">
<ele>0.653168</ele>
<time>2026-07-13T10:03:39.000Z</time>
</trkpt>
<trkpt lat="56.329906" lon="8.123265">
<ele>0.664164</ele>
<time>2026-07-13T10:03:40.000Z</time>
</trkpt>
<trkpt lat="56.329960" lon="8.123262">
<ele>0.674585</ele>
<time>2026-07-13T10:03:41.000Z</time>
</trkpt>
<trkpt lat="56.330017" lon="8.123261">
<ele>0.685579</ele>
<time>2026-07-13T10:03:42.000Z</time>
</trkpt>
<trkpt lat="56.330074" lon="8.123260">
<ele>0.696574</ele>
<time>2026-07-13T10:03:43.000Z</time>
</trkpt>
<trkpt lat="56.330128" lon="8.123260">
<ele>0.706989</ele>
<time>2026-07-13T10:03:44.000Z</time>
</trkpt>
<trkpt lat="56.330185" lon="8.123259">
<ele>0.717984</ele>
<time>2026-07-13T10:03:45.000Z</time>
</trkpt>
<trkpt lat="56.330238" lon="8.123258">
<ele>0.728207</ele>
<time>2026-07-13T10:03:46.000Z</time>
</trkpt>
<trkpt lat="56.330296" lon="8.123254">
<ele>0.739403</ele>
<time>2026-07-13T10:03:47.000Z</time>
</trkpt>
<trkpt lat="56.330349" lon="8.123252">
<ele>0.749627</ele>
<time>2026-07-13T10:03:48.000Z</time>
</trkpt>
<trkpt lat="56.330399" lon="8.123249">
<ele>0.759277</ele>
<time>2026-07-13T10:03:49.000Z</time>
</trkpt>
<trkpt lat="56.330456" lon="8.123246">
<ele>0.770276</ele>
<time>2026-07-13T10:03:50.000Z</time>
</trkpt>
<trkpt lat="56.330509" lon="8.123244">
<ele>0.780501</ele>
<time>2026-07-13T10:03:51.000Z</time>
</trkpt>
<trkpt lat="56.330559" lon="8.123243">
<ele>0.790145</ele>
<time>2026-07-13T10:03:52.000Z</time>
</trkpt>
<trkpt lat="56.330608" lon="8.123243">
<ele>0.799596</ele>
<time>2026-07-13T10:03:53.000Z</time>
</trkpt>
<trkpt lat="56.330662" lon="8.123244">
<ele>0.810012</ele>
<time>2026-07-13T10:03:54.000Z</time>
</trkpt>
<trkpt lat="56.330708" lon="8.123247">
<ele>0.818891</ele>
<time>2026-07-13T10:03:55.000Z</time>
</trkpt>
<trkpt lat="56.330761" lon="8.123248">
<ele>0.829114</ele>
<time>2026-07-13T10:03:56.000Z</time>
</trkpt>
<trkpt lat="56.330814" lon="8.123247">
<ele>0.839337</ele>
<time>2026-07-13T10:03:57.000Z</time>
</trkpt>
<trkpt lat="56.330868" lon="8.123246">
<ele>0.849753</ele>
<time>2026-07-13T10:03:58.000Z</time>
</trkpt>
<trkpt lat="56.330921" lon="8.123246">
<ele>0.859976</ele>
<time>2026-07-13T10:03:59.000Z</time>
</trkpt>
<trkpt lat="56.330975" lon="8.123244">
<ele>0.870393</ele>
<time>2026-07-13T10:04:00.000Z</time>
</trkpt>
<trkpt lat="56.331028" lon="8.123242">
<ele>0.880618</ele>
<time>2026-07-13T10:04:01.000Z</time>
</trkpt>
<trkpt lat="56.331081" lon="8.123241">
<ele>0.890842</ele>
<time>2026-07-13T10:04:02.000Z</time>
</trkpt>
<trkpt lat="56.331135" lon="8.123241">
<ele>0.901257</ele>
<time>2026-07-13T10:04:03.000Z</time>
</trkpt>
<trkpt lat="56.331188" lon="8.123241">
<ele>0.908496</ele>
<time>2026-07-13T10:04:04.000Z</time>
</trkpt>
<trkpt lat="56.331242" lon="8.123239">
<ele>0.910621</ele>
<time>2026-07-13T10:04:05.000Z</time>
</trkpt>
<trkpt lat="56.331291" lon="8.123236">
<ele>0.912550</ele>
<time>2026-07-13T10:04:06.000Z</time>
</trkpt>
<trkpt lat="56.331345" lon="8.123233">
<ele>0.914675</ele>
<time>2026-07-13T10:04:07.000Z</time>
</trkpt>
<trkpt lat="56.331394" lon="8.123231">
<ele>0.916604</ele>
<time>2026-07-13T10:04:08.000Z</time>
</trkpt>
<trkpt lat="56.331444" lon="8.123229">
<ele>0.918571</ele>
<time>2026-07-13T10:04:09.000Z</time>
</trkpt>
<trkpt lat="56.331493" lon="8.123227">
<ele>0.920500</ele>
<time>2026-07-13T10:04:10.000Z</time>
</trkpt>
<trkpt lat="56.331547" lon="8.123225">
<ele>0.922625</ele>
<time>2026-07-13T10:04:11.000Z</time>
</trkpt>
<trkpt lat="56.331600" lon="8.123224">
<ele>0.924710</ele>
<time>2026-07-13T10:04:12.000Z</time>
</trkpt>
<trkpt lat="56.331650" lon="8.123222">
<ele>0.926678</ele>
<time>2026-07-13T10:04:13.000Z</time>
</trkpt>
<trkpt lat="56.331696" lon="8.123219">
<ele>0.928489</ele>
<time>2026-07-13T10:04:14.000Z</time>
</trkpt>
<trkpt lat="56.331745" lon="8.123216">
<ele>0.930418</ele>
<time>2026-07-13T10:04:15.000Z</time>
</trkpt>
<trkpt lat="56.331799" lon="8.123213">
<ele>0.932543</ele>
<time>2026-07-13T10:04:16.000Z</time>
</trkpt>
<trkpt lat="56.331848" lon="8.123211">
<ele>0.934472</ele>
<time>2026-07-13T10:04:17.000Z</time>
</trkpt>
<trkpt lat="56.331898" lon="8.123209">
<ele>0.936440</ele>
<time>2026-07-13T10:04:18.000Z</time>
</trkpt>
<trkpt lat="56.331951" lon="8.123205">
<ele>0.938527</ele>
<time>2026-07-13T10:04:19.000Z</time>
</trkpt>
<trkpt lat="56.332005" lon="8.123198">
<ele>0.940657</ele>
<time>2026-07-13T10:04:20.000Z</time>
</trkpt>
<trkpt lat="56.332058" lon="8.123194">
<ele>0.942744</ele>
<time>2026-07-13T10:04:21.000Z</time>
</trkpt>
<trkpt lat="56.332111" lon="8.123191">
<ele>0.944830</ele>
<time>2026-07-13T10:04:22.000Z</time>
</trkpt>
<trkpt lat="56.332161" lon="8.123189">
<ele>0.946798</ele>
<time>2026-07-13T10:04:23.000Z</time>
</trkpt>
<trkpt lat="56.332218" lon="8.123188">
<ele>0.949041</ele>
<time>2026-07-13T10:04:24.000Z</time>
</trkpt>
<trkpt lat="56.332272" lon="8.123186">
<ele>0.951166</ele>
<time>2026-07-13T10:04:25.000Z</time>
</trkpt>
<trkpt lat="56.332325" lon="8.123184">
<ele>0.953251</ele>
<time>2026-07-13T10:04:26.000Z</time>
</trkpt>
<trkpt lat="56.332382" lon="8.123181">
<ele>0.955495</ele>
<time>2026-07-13T10:04:27.000Z</time>
</trkpt>
<trkpt lat="56.332436" lon="8.123180">
<ele>0.957620</ele>
<time>2026-07-13T10:04:28.000Z</time>
</trkpt>
<trkpt lat="56.332489" lon="8.123179">
<ele>0.959705</ele>
<time>2026-07-13T10:04:29.000Z</time>
</trkpt>
<trkpt lat="56.332546" lon="8.123176">
<ele>0.961949</ele>
<time>2026-07-13T10:04:30.000Z</time>
</trkpt>
<trkpt lat="56.332600" lon="8.123175">
<ele>0.964073</ele>
<time>2026-07-13T10:04:31.000Z</time>
</trkpt>
<trkpt lat="56.332661" lon="8.123175">
<ele>0.966473</ele>
<time>2026-07-13T10:04:32.000Z</time>
</trkpt>
<trkpt lat="56.332718" lon="8.123173">
<ele>0.968717</ele>
<time>2026-07-13T10:04:33.000Z</time>
</trkpt>
<trkpt lat="56.332775" lon="8.123169">
<ele>0.970961</ele>
<time>2026-07-13T10:04:34.000Z</time>
</trkpt>
<trkpt lat="56.332832" lon="8.123166">
<ele>0.973204</ele>
<time>2026-07-13T10:04:35.000Z</time>
</trkpt>
<trkpt lat="56.332886" lon="8.123165">
<ele>0.975329</ele>
<time>2026-07-13T10:04:36.000Z</time>
</trkpt>
<trkpt lat="56.332947" lon="8.123164">
<ele>0.977729</ele>
<time>2026-07-13T10:04:37.000Z</time>
</trkpt>
<trkpt lat="56.333000" lon="8.123162">
<ele>0.975886</ele>
<time>2026-07-13T10:04:38.000Z</time>
</trkpt>
<trkpt lat="56.333054" lon="8.123158">
<ele>0.971670</ele>
<time>2026-07-13T10:04:39.000Z</time>
</trkpt>
<trkpt lat="56.333107" lon="8.123153">
<ele>0.967530</ele>
<time>2026-07-13T10:04:40.000Z</time>
</trkpt>
<trkpt lat="56.333160" lon="8.123148">
<ele>0.963390</ele>
<time>2026-07-13T10:04:41.000Z</time>
</trkpt>
<trkpt lat="56.333210" lon="8.123144">
<ele>0.959486</ele>
<time>2026-07-13T10:04:42.000Z</time>
</trkpt>
<trkpt lat="56.333263" lon="8.123141">
<ele>0.955350</ele>
<time>2026-07-13T10:04:43.000Z</time>
</trkpt>
<trkpt lat="56.333317" lon="8.123139">
<ele>0.951136</ele>
<time>2026-07-13T10:04:44.000Z</time>
</trkpt>
<trkpt lat="56.333374" lon="8.123136">
<ele>0.946688</ele>
<time>2026-07-13T10:04:45.000Z</time>
</trkpt>
<trkpt lat="56.333427" lon="8.123135">
<ele>0.942553</ele>
<time>2026-07-13T10:04:46.000Z</time>
</trkpt>
<trkpt lat="56.333481" lon="8.123133">
<ele>0.938340</ele>
<time>2026-07-13T10:04:47.000Z</time>
</trkpt>
<trkpt lat="56.333538" lon="8.123127">
<ele>0.933886</ele>
<time>2026-07-13T10:04:48.000Z</time>
</trkpt>
<trkpt lat="56.333591" lon="8.123121">
<ele>0.929744</ele>
<time>2026-07-13T10:04:49.000Z</time>
</trkpt>
<trkpt lat="56.333645" lon="8.123118">
<ele>0.925529</ele>
<time>2026-07-13T10:04:50.000Z</time>
</trkpt>
<trkpt lat="56.333694" lon="8.123119">
<ele>0.921707</ele>
<time>2026-07-13T10:04:51.000Z</time>
</trkpt>
<trkpt lat="56.333748" lon="8.123122">
<ele>0.917492</ele>
<time>2026-07-13T10:04:52.000Z</time>
</trkpt>
<trkpt lat="56.333805" lon="8.123122">
<ele>0.913046</ele>
<time>2026-07-13T10:04:53.000Z</time>
</trkpt>
<trkpt lat="56.333862" lon="8.123121">
<ele>0.908599</ele>
<time>2026-07-13T10:04:54.000Z</time>
</trkpt>
<trkpt lat="56.333916" lon="8.123120">
<ele>0.904387</ele>
<time>2026-07-13T10:04:55.000Z</time>
</trkpt>
<trkpt lat="56.333969" lon="8.123121">
<ele>0.900252</ele>
<time>2026-07-13T10:04:56.000Z</time>
</trkpt>
<trkpt lat="56.334023" lon="8.123119">
<ele>0.896039</ele>
<time>2026-07-13T10:04:57.000Z</time>
</trkpt>
<trkpt lat="56.334072" lon="8.123117">
<ele>0.892215</ele>
<time>2026-07-13T10:04:58.000Z</time>
</trkpt>
<trkpt lat="56.334126" lon="8.123117">
<ele>0.888003</ele>
<time>2026-07-13T10:04:59.000Z</time>
</trkpt>
<trkpt lat="56.334187" lon="8.123116">
<ele>0.883244</ele>
<time>2026-07-13T10:05:00.000Z</time>
</trkpt>
<trkpt lat="56.334240" lon="8.123115">
<ele>0.879110</ele>
<time>2026-07-13T10:05:01.000Z</time>
</trkpt>
<trkpt lat="56.334297" lon="8.123113">
<ele>0.874662</ele>
<time>2026-07-13T10:05:02.000Z</time>
</trkpt>
<trkpt lat="56.334351" lon="8.123111">
<ele>0.870449</ele>
<time>2026-07-13T10:05:03.000Z</time>
</trkpt>
<trkpt lat="56.334408" lon="8.123107">
<ele>0.865999</ele>
<time>2026-07-13T10:05:04.000Z</time>
</trkpt>
<trkpt lat="56.334465" lon="8.123104">
<ele>0.861551</ele>
<time>2026-07-13T10:05:05.000Z</time>
</trkpt>
<trkpt lat="56.334522" lon="8.123102">
<ele>0.857104</ele>
<time>2026-07-13T10:05:06.000Z</time>
</trkpt>
<trkpt lat="56.334579" lon="8.123100">
<ele>0.852657</ele>
<time>2026-07-13T10:05:07.000Z</time>
</trkpt>
<trkpt lat="56.334637" lon="8.123097">
<ele>0.848130</ele>
<time>2026-07-13T10:05:08.000Z</time>
</trkpt>
<trkpt lat="56.334690" lon="8.123095">
<ele>0.843995</ele>
<time>2026-07-13T10:05:09.000Z</time>
</trkpt>
<trkpt lat="56.334747" lon="8.123093">
<ele>0.839548</ele>
<time>2026-07-13T10:05:10.000Z</time>
</trkpt>
<trkpt lat="56.334805" lon="8.123091">
<ele>0.840813</ele>
<time>2026-07-13T10:05:11.000Z</time>
</trkpt>
<trkpt lat="56.334862" lon="8.123089">
<ele>0.844495</ele>
<time>2026-07-13T10:05:12.000Z</time>
</trkpt>
<trkpt lat="56.334919" lon="8.123086">
<ele>0.848178</ele>
<time>2026-07-13T10:05:13.000Z</time>
</trkpt>
<trkpt lat="56.334972" lon="8.123081">
<ele>0.851606</ele>
<time>2026-07-13T10:05:14.000Z</time>
</trkpt>
<trkpt lat="56.335026" lon="8.123076">
<ele>0.855098</ele>
<time>2026-07-13T10:05:15.000Z</time>
</trkpt>
<trkpt lat="56.335083" lon="8.123073">
<ele>0.858780</ele>
<time>2026-07-13T10:05:16.000Z</time>
</trkpt>
<trkpt lat="56.335136" lon="8.123069">
<ele>0.862206</ele>
<time>2026-07-13T10:05:17.000Z</time>
</trkpt>
<trkpt lat="56.335194" lon="8.123067">
<ele>0.865953</ele>
<time>2026-07-13T10:05:18.000Z</time>
</trkpt>
<trkpt lat="56.335251" lon="8.123066">
<ele>0.869634</ele>
<time>2026-07-13T10:05:19.000Z</time>
</trkpt>
<trkpt lat="56.335308" lon="8.123062">
<ele>0.873318</ele>
<time>2026-07-13T10:05:20.000Z</time>
</trkpt>
<trkpt lat="56.335365" lon="8.123059">
<ele>0.877001</ele>
<time>2026-07-13T10:05:21.000Z</time>
</trkpt>
<trkpt lat="56.335422" lon="8.123056">
<ele>0.880683</ele>
<time>2026-07-13T10:05:22.000Z</time>
</trkpt>
<trkpt lat="56.335476" lon="8.123051">
<ele>0.884176</ele>
<time>2026-07-13T10:05:23.000Z</time>
</trkpt>
<trkpt lat="56.335533" lon="8.123048">
<ele>0.887858</ele>
<time>2026-07-13T10:05:24.000Z</time>
</trkpt>
<trkpt lat="56.335590" lon="8.123046">
<ele>0.891540</ele>
<time>2026-07-13T10:05:25.000Z</time>
</trkpt>
<trkpt lat="56.335648" lon="8.123044">
<ele>0.895287</ele>
<time>2026-07-13T10:05:26.000Z</time>
</trkpt>
<trkpt lat="56.335701" lon="8.123043">
<ele>0.898710</ele>
<time>2026-07-13T10:05:27.000Z</time>
</trkpt>
<trkpt lat="56.335758" lon="8.123041">
<ele>0.902392</ele>
<time>2026-07-13T10:05:28.000Z</time>
</trkpt>
<trkpt lat="56.335815" lon="8.123039">
<ele>0.906073</ele>
<time>2026-07-13T10:05:29.000Z</time>
</trkpt>
<trkpt lat="56.335869" lon="8.123035">
<ele>0.909564</ele>
<time>2026-07-13T10:05:30.000Z</time>
</trkpt>
<trkpt lat="56.335926" lon="8.123033">
<ele>0.913246</ele>
<time>2026-07-13T10:05:31.000Z</time>
</trkpt>
<trkpt lat="56.335979" lon="8.123029">
<ele>0.916671</ele>
<time>2026-07-13T10:05:32.000Z</time>
</trkpt>
<trkpt lat="56.336037" lon="8.123026">
<ele>0.920419</ele>
<time>2026-07-13T10:05:33.000Z</time>
</trkpt>
<trkpt lat="56.336090" lon="8.123022">
<ele>0.923845</ele>
<time>2026-07-13T10:05:34.000Z</time>
</trkpt>
<trkpt lat="56.336144" lon="8.123020">
<ele>0.927333</ele>
<time>2026-07-13T10:05:35.000Z</time>
</trkpt>
<trkpt lat="56.336197" lon="8.123020">
<ele>0.930756</ele>
<time>2026-07-13T10:05:36.000Z</time>
</trkpt>
<trkpt lat="56.336254" lon="8.123019">
<ele>0.934437</ele>
<time>2026-07-13T10:05:37.000Z</time>
</trkpt>
<trkpt lat="56.336308" lon="8.123017">
<ele>0.937925</ele>
<time>2026-07-13T10:05:38.000Z</time>
</trkpt>
<trkpt lat="56.336361" lon="8.123016">
<ele>0.941348</ele>
<time>2026-07-13T10:05:39.000Z</time>
</trkpt>
<trkpt lat="56.336414" lon="8.123016">
<ele>0.944771</ele>
<time>2026-07-13T10:05:40.000Z</time>
</trkpt>
<trkpt lat="56.336468" lon="8.123014">
<ele>0.948259</ele>
<time>2026-07-13T10:05:41.000Z</time>
</trkpt>
<trkpt lat="56.336521" lon="8.123012">
<ele>0.951683</ele>
<time>2026-07-13T10:05:42.000Z</time>
</trkpt>
<trkpt lat="56.336578" lon="8.123012">
<ele>0.951875</ele>
<time>2026-07-13T10:05:43.000Z</time>
</trkpt>
<trkpt lat="56.336632" lon="8.123012">
<ele>0.943354</ele>
<time>2026-07-13T10:05:44.000Z</time>
</trkpt>
<trkpt lat="56.336685" lon="8.123012">
<ele>0.934990</ele>
<time>2026-07-13T10:05:45.000Z</time>
</trkpt>
<trkpt lat="56.336735" lon="8.123011">
<ele>0.927100</ele>
<time>2026-07-13T10:05:46.000Z</time>
</trkpt>
<trkpt lat="56.336784" lon="8.123008">
<ele>0.919363</ele>
<time>2026-07-13T10:05:47.000Z</time>
</trkpt>
<trkpt lat="56.336838" lon="8.123005">
<ele>0.910838</ele>
<time>2026-07-13T10:05:48.000Z</time>
</trkpt>
<trkpt lat="56.336887" lon="8.123005">
<ele>0.903106</ele>
<time>2026-07-13T10:05:49.000Z</time>
</trkpt>
<trkpt lat="56.336941" lon="8.123004">
<ele>0.894584</ele>
<time>2026-07-13T10:05:50.000Z</time>
</trkpt>
<trkpt lat="56.336994" lon="8.123003">
<ele>0.886220</ele>
<time>2026-07-13T10:05:51.000Z</time>
</trkpt>
<trkpt lat="56.337044" lon="8.123001">
<ele>0.878328</ele>
<time>2026-07-13T10:05:52.000Z</time>
</trkpt>
<trkpt lat="56.337097" lon="8.122997">
<ele>0.869958</ele>
<time>2026-07-13T10:05:53.000Z</time>
</trkpt>
<trkpt lat="56.337151" lon="8.122996">
<ele>0.861436</ele>
<time>2026-07-13T10:05:54.000Z</time>
</trkpt>
<trkpt lat="56.337204" lon="8.122994">
<ele>0.853071</ele>
<time>2026-07-13T10:05:55.000Z</time>
</trkpt>
<trkpt lat="56.337257" lon="8.122992">
<ele>0.844706</ele>
<time>2026-07-13T10:05:56.000Z</time>
</trkpt>
<trkpt lat="56.337311" lon="8.122988">
<ele>0.836177</ele>
<time>2026-07-13T10:05:57.000Z</time>
</trkpt>
<trkpt lat="56.337364" lon="8.122986">
<ele>0.827812</ele>
<time>2026-07-13T10:05:58.000Z</time>
</trkpt>
<trkpt lat="56.337421" lon="8.122982">
<ele>0.818811</ele>
<time>2026-07-13T10:05:59.000Z</time>
</trkpt>
<trkpt lat="56.337475" lon="8.122979">
<ele>0.810285</ele>
<time>2026-07-13T10:06:00.000Z</time>
</trkpt>
<trkpt lat="56.337528" lon="8.122978">
<ele>0.801922</ele>
<time>2026-07-13T10:06:01.000Z</time>
</trkpt>
<trkpt lat="56.337582" lon="8.122977">
<ele>0.793400</ele>
<time>2026-07-13T10:06:02.000Z</time>
</trkpt>
<trkpt lat="56.337635" lon="8.122976">
<ele>0.785036</ele>
<time>2026-07-13T10:06:03.000Z</time>
</trkpt>
<trkpt lat="56.337685" lon="8.122974">
<ele>0.777144</ele>
<time>2026-07-13T10:06:04.000Z</time>
</trkpt>
<trkpt lat="56.337738" lon="8.122973">
<ele>0.768780</ele>
<time>2026-07-13T10:06:05.000Z</time>
</trkpt>
<trkpt lat="56.337791" lon="8.122972">
<ele>0.760416</ele>
<time>2026-07-13T10:06:06.000Z</time>
</trkpt>
<trkpt lat="56.337845" lon="8.122971">
<ele>0.751895</ele>
<time>2026-07-13T10:06:07.000Z</time>
</trkpt>
<trkpt lat="56.337898" lon="8.122968">
<ele>0.743527</ele>
<time>2026-07-13T10:06:08.000Z</time>
</trkpt>
<trkpt lat="56.337952" lon="8.122964">
<ele>0.734999</ele>
<time>2026-07-13T10:06:09.000Z</time>
</trkpt>
<trkpt lat="56.338005" lon="8.122961">
<ele>0.726631</ele>
<time>2026-07-13T10:06:10.000Z</time>
</trkpt>
<trkpt lat="56.338058" lon="8.122957">
<ele>0.718261</ele>
<time>2026-07-13T10:06:11.000Z</time>
</trkpt>
<trkpt lat="56.338112" lon="8.122955">
<ele>0.709738</ele>
<time>2026-07-13T10:06:12.000Z</time>
</trkpt>
<trkpt lat="56.338169" lon="8.122953">
<ele>0.700741</ele>
<time>2026-07-13T10:06:13.000Z</time>
</trkpt>
<trkpt lat="56.338222" lon="8.122952">
<ele>0.692378</ele>
<time>2026-07-13T10:06:14.000Z</time>
</trkpt>
<trkpt lat="56.338280" lon="8.122951">
<ele>0.683225</ele>
<time>2026-07-13T10:06:15.000Z</time>
</trkpt>
<trkpt lat="56.338337" lon="8.122950">
<ele>0.674230</ele>
<time>2026-07-13T10:06:16.000Z</time>
</trkpt>
<trkpt lat="56.338394" lon="8.122950">
<ele>0.670738</ele>
<time>2026-07-13T10:06:17.000Z</time>
</trkpt>
<trkpt lat="56.338448" lon="8.122950">
<ele>0.671080</ele>
<time>2026-07-13T10:06:18.000Z</time>
</trkpt>
<trkpt lat="56.338501" lon="8.122948">
<ele>0.671416</ele>
<time>2026-07-13T10:06:19.000Z</time>
</trkpt>
<trkpt lat="56.338554" lon="8.122946">
<ele>0.671752</ele>
<time>2026-07-13T10:06:20.000Z</time>
</trkpt>
<trkpt lat="56.338608" lon="8.122942">
<ele>0.672094</ele>
<time>2026-07-13T10:06:21.000Z</time>
</trkpt>
<trkpt lat="56.338661" lon="8.122940">
<ele>0.672430</ele>
<time>2026-07-13T10:06:22.000Z</time>
</trkpt>
<trkpt lat="56.338715" lon="8.122941">
<ele>0.672773</ele>
<time>2026-07-13T10:06:23.000Z</time>
</trkpt>
<trkpt lat="56.338768" lon="8.122942">
<ele>0.673109</ele>
<time>2026-07-13T10:06:24.000Z</time>
</trkpt>
<trkpt lat="56.338821" lon="8.122943">
<ele>0.673445</ele>
<time>2026-07-13T10:06:25.000Z</time>
</trkpt>
<trkpt lat="56.338871" lon="8.122941">
<ele>0.673762</ele>
<time>2026-07-13T10:06:26.000Z</time>
</trkpt>
<trkpt lat="56.338924" lon="8.122937">
<ele>0.674098</ele>
<time>2026-07-13T10:06:27.000Z</time>
</trkpt>
<trkpt lat="56.338974" lon="8.122935">
<ele>0.674415</ele>
<time>2026-07-13T10:06:28.000Z</time>
</trkpt>
<trkpt lat="56.339024" lon="8.122931">
<ele>0.674732</ele>
<time>2026-07-13T10:06:29.000Z</time>
</trkpt>
<trkpt lat="56.339077" lon="8.122928">
<ele>0.675068</ele>
<time>2026-07-13T10:06:30.000Z</time>
</trkpt>
<trkpt lat="56.339130" lon="8.122924">
<ele>0.675405</ele>
<time>2026-07-13T10:06:31.000Z</time>
</trkpt>
<trkpt lat="56.339180" lon="8.122921">
<ele>0.675722</ele>
<time>2026-07-13T10:06:32.000Z</time>
</trkpt>
<trkpt lat="56.339237" lon="8.122919">
<ele>0.676083</ele>
<time>2026-07-13T10:06:33.000Z</time>
</trkpt>
<trkpt lat="56.339294" lon="8.122916">
<ele>0.676444</ele>
<time>2026-07-13T10:06:34.000Z</time>
</trkpt>
<trkpt lat="56.339348" lon="8.122915">
<ele>0.676787</ele>
<time>2026-07-13T10:06:35.000Z</time>
</trkpt>
<trkpt lat="56.339405" lon="8.122914">
<ele>0.677148</ele>
<time>2026-07-13T10:06:36.000Z</time>
</trkpt>
<trkpt lat="56.339458" lon="8.122909">
<ele>0.677484</ele>
<time>2026-07-13T10:06:37.000Z</time>
</trkpt>
<trkpt lat="56.339519" lon="8.122904">
<ele>0.677871</ele>
<time>2026-07-13T10:06:38.000Z</time>
</trkpt>
<trkpt lat="56.339573" lon="8.122901">
<ele>0.678214</ele>
<time>2026-07-13T10:06:39.000Z</time>
</trkpt>
<trkpt lat="56.339626" lon="8.122899">
<ele>0.678550</ele>
<time>2026-07-13T10:06:40.000Z</time>
</trkpt>
<trkpt lat="56.339684" lon="8.122900">
<ele>0.678918</ele>
<time>2026-07-13T10:06:41.000Z</time>
</trkpt>
<trkpt lat="56.339737" lon="8.122899">
<ele>0.679254</ele>
<time>2026-07-13T10:06:42.000Z</time>
</trkpt>
<trkpt lat="56.339779" lon="8.122892">
<ele>0.679521</ele>
<time>2026-07-13T10:06:43.000Z</time>
</trkpt>
<trkpt lat="56.339806" lon="8.122883">
<ele>0.679695</ele>
<time>2026-07-13T10:06:44.000Z</time>
</trkpt>
<trkpt lat="56.339832" lon="8.122873">
<ele>0.679863</ele>
<time>2026-07-13T10:06:45.000Z</time>
</trkpt>
<trkpt lat="56.339870" lon="8.122865">
<ele>0.680106</ele>
<time>2026-07-13T10:06:46.000Z</time>
</trkpt>
<trkpt lat="56.339931" lon="8.122860">
<ele>0.680493</ele>
<time>2026-07-13T10:06:47.000Z</time>
</trkpt>
<trkpt lat="56.339996" lon="8.122859">
<ele>0.680905</ele>
<time>2026-07-13T10:06:48.000Z</time>
</trkpt>
<trkpt lat="56.340050" lon="8.122856">
<ele>0.681247</ele>
<time>2026-07-13T10:06:49.000Z</time>
</trkpt>
<trkpt lat="56.340099" lon="8.122854">
<ele>0.681558</ele>
<time>2026-07-13T10:06:50.000Z</time>
</trkpt>
<trkpt lat="56.340164" lon="8.122855">
<ele>0.684949</ele>
<time>2026-07-13T10:06:51.000Z</time>
</trkpt>
<trkpt lat="56.340225" lon="8.122855">
<ele>0.711322</ele>
<time>2026-07-13T10:06:52.000Z</time>
</trkpt>
<trkpt lat="56.340282" lon="8.122855">
<ele>0.735967</ele>
<time>2026-07-13T10:06:53.000Z</time>
</trkpt>
<trkpt lat="56.340336" lon="8.122856">
<ele>0.759315</ele>
<time>2026-07-13T10:06:54.000Z</time>
</trkpt>
<trkpt lat="56.340389" lon="8.122856">
<ele>0.782230</ele>
<time>2026-07-13T10:06:55.000Z</time>
</trkpt>
<trkpt lat="56.340443" lon="8.122853">
<ele>0.805589</ele>
<time>2026-07-13T10:06:56.000Z</time>
</trkpt>
<trkpt lat="56.340488" lon="8.122847">
<ele>0.825098</ele>
<time>2026-07-13T10:06:57.000Z</time>
</trkpt>
<trkpt lat="56.340538" lon="8.122841">
<ele>0.846763</ele>
<time>2026-07-13T10:06:58.000Z</time>
</trkpt>
<trkpt lat="56.340588" lon="8.122839">
<ele>0.868387</ele>
<time>2026-07-13T10:06:59.000Z</time>
</trkpt>
<trkpt lat="56.340637" lon="8.122838">
<ele>0.889574</ele>
<time>2026-07-13T10:07:00.000Z</time>
</trkpt>
<trkpt lat="56.340691" lon="8.122836">
<ele>0.912926</ele>
<time>2026-07-13T10:07:01.000Z</time>
</trkpt>
<trkpt lat="56.340740" lon="8.122831">
<ele>0.934145</ele>
<time>2026-07-13T10:07:02.000Z</time>
</trkpt>
<trkpt lat="56.340794" lon="8.122826">
<ele>0.957523</ele>
<time>2026-07-13T10:07:03.000Z</time>
</trkpt>
<trkpt lat="56.340851" lon="8.122819">
<ele>0.982225</ele>
<time>2026-07-13T10:07:04.000Z</time>
</trkpt>
<trkpt lat="56.340904" lon="8.122816">
<ele>1.005151</ele>
<time>2026-07-13T10:07:05.000Z</time>
</trkpt>
<trkpt lat="56.340961" lon="8.122814">
<ele>1.029800</ele>
<time>2026-07-13T10:07:06.000Z</time>
</trkpt>
<trkpt lat="56.341011" lon="8.122812">
<ele>1.051423</ele>
<time>2026-07-13T10:07:07.000Z</time>
</trkpt>
<trkpt lat="56.341064" lon="8.122811">
<ele>1.074339</ele>
<time>2026-07-13T10:07:08.000Z</time>
</trkpt>
<trkpt lat="56.341118" lon="8.122811">
<ele>1.097687</ele>
<time>2026-07-13T10:07:09.000Z</time>
</trkpt>
<trkpt lat="56.341171" lon="8.122811">
<ele>1.120602</ele>
<time>2026-07-13T10:07:10.000Z</time>
</trkpt>
<trkpt lat="56.341225" lon="8.122809">
<ele>1.143954</ele>
<time>2026-07-13T10:07:11.000Z</time>
</trkpt>
<trkpt lat="56.341274" lon="8.122807">
<ele>1.165145</ele>
<time>2026-07-13T10:07:12.000Z</time>
</trkpt>
<trkpt lat="56.341328" lon="8.122806">
<ele>1.188493</ele>
<time>2026-07-13T10:07:13.000Z</time>
</trkpt>
<trkpt lat="56.341381" lon="8.122805">
<ele>1.211410</ele>
<time>2026-07-13T10:07:14.000Z</time>
</trkpt>
<trkpt lat="56.341434" lon="8.122803">
<ele>1.234330</ele>
<time>2026-07-13T10:07:15.000Z</time>
</trkpt>
<trkpt lat="56.341492" lon="8.122801">
<ele>1.259411</ele>
<time>2026-07-13T10:07:16.000Z</time>
</trkpt>
<trkpt lat="56.341541" lon="8.122798">
<ele>1.280609</ele>
<time>2026-07-13T10:07:17.000Z</time>
</trkpt>
<trkpt lat="56.341591" lon="8.122799">
<ele>1.302228</ele>
<time>2026-07-13T10:07:18.000Z</time>
</trkpt>
<trkpt lat="56.341644" lon="8.122801">
<ele>1.325148</ele>
<time>2026-07-13T10:07:19.000Z</time>
</trkpt>
<trkpt lat="56.341694" lon="8.122799">
<ele>1.346771</ele>
<time>2026-07-13T10:07:20.000Z</time>
</trkpt>
<trkpt lat="56.341740" lon="8.122794">
<ele>1.366695</ele>
<time>2026-07-13T10:07:21.000Z</time>
</trkpt>
<trkpt lat="56.341789" lon="8.122787">
<ele>1.387947</ele>
<time>2026-07-13T10:07:22.000Z</time>
</trkpt>
<trkpt lat="56.341835" lon="8.122783">
<ele>1.407859</ele>
<time>2026-07-13T10:07:23.000Z</time>
</trkpt>
<trkpt lat="56.341881" lon="8.122782">
<ele>1.427749</ele>
<time>2026-07-13T10:07:24.000Z</time>
</trkpt>
<trkpt lat="56.341930" lon="8.122781">
<ele>1.448936</ele>
<time>2026-07-13T10:07:25.000Z</time>
</trkpt>
<trkpt lat="56.341980" lon="8.122780">
<ele>1.455346</ele>
<time>2026-07-13T10:07:26.000Z</time>
</trkpt>
<trkpt lat="56.342033" lon="8.122779">
<ele>1.446497</ele>
<time>2026-07-13T10:07:27.000Z</time>
</trkpt>
<trkpt lat="56.342087" lon="8.122778">
<ele>1.437481</ele>
<time>2026-07-13T10:07:28.000Z</time>
</trkpt>
<trkpt lat="56.342140" lon="8.122776">
<ele>1.428631</ele>
<time>2026-07-13T10:07:29.000Z</time>
</trkpt>
<trkpt lat="56.342197" lon="8.122774">
<ele>1.419113</ele>
<time>2026-07-13T10:07:30.000Z</time>
</trkpt>
<trkpt lat="56.342247" lon="8.122771">
<ele>1.410760</ele>
<time>2026-07-13T10:07:31.000Z</time>
</trkpt>
<trkpt lat="56.342312" lon="8.122771">
<ele>1.399908</ele>
<time>2026-07-13T10:07:32.000Z</time>
</trkpt>
<trkpt lat="56.342365" lon="8.122769">
<ele>1.391058</ele>
<time>2026-07-13T10:07:33.000Z</time>
</trkpt>
<trkpt lat="56.342422" lon="8.122767">
<ele>1.381540</ele>
<time>2026-07-13T10:07:34.000Z</time>
</trkpt>
<trkpt lat="56.342476" lon="8.122767">
<ele>1.372524</ele>
<time>2026-07-13T10:07:35.000Z</time>
</trkpt>
<trkpt lat="56.342525" lon="8.122769">
<ele>1.364342</ele>
<time>2026-07-13T10:07:36.000Z</time>
</trkpt>
<trkpt lat="56.342583" lon="8.122771">
<ele>1.354656</ele>
<time>2026-07-13T10:07:37.000Z</time>
</trkpt>
<trkpt lat="56.342636" lon="8.122772">
<ele>1.345807</ele>
<time>2026-07-13T10:07:38.000Z</time>
</trkpt>
<trkpt lat="56.342693" lon="8.122771">
<ele>1.336291</ele>
<time>2026-07-13T10:07:39.000Z</time>
</trkpt>
<trkpt lat="56.342747" lon="8.122770">
<ele>1.327275</ele>
<time>2026-07-13T10:07:40.000Z</time>
</trkpt>
<trkpt lat="56.342804" lon="8.122771">
<ele>1.317758</ele>
<time>2026-07-13T10:07:41.000Z</time>
</trkpt>
<trkpt lat="56.342857" lon="8.122771">
<ele>1.308909</ele>
<time>2026-07-13T10:07:42.000Z</time>
</trkpt>
<trkpt lat="56.342911" lon="8.122771">
<ele>1.299894</ele>
<time>2026-07-13T10:07:43.000Z</time>
</trkpt>
<trkpt lat="56.342968" lon="8.122772">
<ele>1.290377</ele>
<time>2026-07-13T10:07:44.000Z</time>
</trkpt>
<trkpt lat="56.343021" lon="8.122775">
<ele>1.281524</ele>
<time>2026-07-13T10:07:45.000Z</time>
</trkpt>
<trkpt lat="56.343079" lon="8.122774">
<ele>1.271840</ele>
<time>2026-07-13T10:07:46.000Z</time>
</trkpt>
<trkpt lat="56.343136" lon="8.122771">
<ele>1.262320</ele>
<time>2026-07-13T10:07:47.000Z</time>
</trkpt>
<trkpt lat="56.343189" lon="8.122769">
<ele>1.253470</ele>
<time>2026-07-13T10:07:48.000Z</time>
</trkpt>
<trkpt lat="56.343243" lon="8.122766">
<ele>1.244450</ele>
<time>2026-07-13T10:07:49.000Z</time>
</trkpt>
<trkpt lat="56.343300" lon="8.122765">
<ele>1.234933</ele>
<time>2026-07-13T10:07:50.000Z</time>
</trkpt>
<trkpt lat="56.343353" lon="8.122764">
<ele>1.226084</ele>
<time>2026-07-13T10:07:51.000Z</time>
</trkpt>
<trkpt lat="56.343407" lon="8.122764">
<ele>1.217069</ele>
<time>2026-07-13T10:07:52.000Z</time>
</trkpt>
<trkpt lat="56.343460" lon="8.122766">
<ele>1.208218</ele>
<time>2026-07-13T10:07:53.000Z</time>
</trkpt>
<trkpt lat="56.343513" lon="8.122766">
<ele>1.199370</ele>
<time>2026-07-13T10:07:54.000Z</time>
</trkpt>
<trkpt lat="56.343567" lon="8.122766">
<ele>1.190354</ele>
<time>2026-07-13T10:07:55.000Z</time>
</trkpt>
<trkpt lat="56.343620" lon="8.122765">
<ele>1.181505</ele>
<time>2026-07-13T10:07:56.000Z</time>
</trkpt>
<trkpt lat="56.343677" lon="8.122764">
<ele>1.171988</ele>
<time>2026-07-13T10:07:57.000Z</time>
</trkpt>
<trkpt lat="56.343727" lon="8.122764">
<ele>1.163641</ele>
<time>2026-07-13T10:07:58.000Z</time>
</trkpt>
<trkpt lat="56.343781" lon="8.122763">
<ele>1.158853</ele>
<time>2026-07-13T10:07:59.000Z</time>
</trkpt>
<trkpt lat="56.343838" lon="8.122759">
<ele>1.157955</ele>
<time>2026-07-13T10:08:00.000Z</time>
</trkpt>
<trkpt lat="56.343891" lon="8.122756">
<ele>1.157120</ele>
<time>2026-07-13T10:08:01.000Z</time>
</trkpt>
<trkpt lat="56.343945" lon="8.122752">
<ele>1.156269</ele>
<time>2026-07-13T10:08:02.000Z</time>
</trkpt>
<trkpt lat="56.343994" lon="8.122752">
<ele>1.155497</ele>
<time>2026-07-13T10:08:03.000Z</time>
</trkpt>
<trkpt lat="56.344051" lon="8.122756">
<ele>1.154599</ele>
<time>2026-07-13T10:08:04.000Z</time>
</trkpt>
<trkpt lat="56.344101" lon="8.122758">
<ele>1.153812</ele>
<time>2026-07-13T10:08:05.000Z</time>
</trkpt>
<trkpt lat="56.344154" lon="8.122756">
<ele>1.152977</ele>
<time>2026-07-13T10:08:06.000Z</time>
</trkpt>
<trkpt lat="56.344212" lon="8.122755">
<ele>1.152063</ele>
<time>2026-07-13T10:08:07.000Z</time>
</trkpt>
<trkpt lat="56.344265" lon="8.122755">
<ele>1.151229</ele>
<time>2026-07-13T10:08:08.000Z</time>
</trkpt>
<trkpt lat="56.344318" lon="8.122754">
<ele>1.150394</ele>
<time>2026-07-13T10:08:09.000Z</time>
</trkpt>
<trkpt lat="56.344372" lon="8.122753">
<ele>1.149544</ele>
<time>2026-07-13T10:08:10.000Z</time>
</trkpt>
<trkpt lat="56.344425" lon="8.122753">
<ele>1.148709</ele>
<time>2026-07-13T10:08:11.000Z</time>
</trkpt>
<trkpt lat="56.344479" lon="8.122752">
<ele>1.147859</ele>
<time>2026-07-13T10:08:12.000Z</time>
</trkpt>
<trkpt lat="56.344536" lon="8.122751">
<ele>1.146962</ele>
<time>2026-07-13T10:08:13.000Z</time>
</trkpt>
<trkpt lat="56.344589" lon="8.122750">
<ele>1.146127</ele>
<time>2026-07-13T10:08:14.000Z</time>
</trkpt>
<trkpt lat="56.344639" lon="8.122749">
<ele>1.145340</ele>
<time>2026-07-13T10:08:15.000Z</time>
</trkpt>
<trkpt lat="56.344692" lon="8.122747">
<ele>1.144505</ele>
<time>2026-07-13T10:08:16.000Z</time>
</trkpt>
<trkpt lat="56.344746" lon="8.122748">
<ele>1.143655</ele>
<time>2026-07-13T10:08:17.000Z</time>
</trkpt>
<trkpt lat="56.344799" lon="8.122749">
<ele>1.142820</ele>
<time>2026-07-13T10:08:18.000Z</time>
</trkpt>
<trkpt lat="56.344852" lon="8.122750">
<ele>1.141985</ele>
<time>2026-07-13T10:08:19.000Z</time>
</trkpt>
<trkpt lat="56.344906" lon="8.122750">
<ele>1.141135</ele>
<time>2026-07-13T10:08:20.000Z</time>
</trkpt>
<trkpt lat="56.344952" lon="8.122749">
<ele>1.140411</ele>
<time>2026-07-13T10:08:21.000Z</time>
</trkpt>
<trkpt lat="56.345005" lon="8.122747">
<ele>1.139576</ele>
<time>2026-07-13T10:08:22.000Z</time>
</trkpt>
<trkpt lat="56.345062" lon="8.122743">
<ele>1.138678</ele>
<time>2026-07-13T10:08:23.000Z</time>
</trkpt>
<trkpt lat="56.345116" lon="8.122739">
<ele>1.137827</ele>
<time>2026-07-13T10:08:24.000Z</time>
</trkpt>
<trkpt lat="56.345169" lon="8.122739">
<ele>1.136992</ele>
<time>2026-07-13T10:08:25.000Z</time>
</trkpt>
<trkpt lat="56.345222" lon="8.122740">
<ele>1.136158</ele>
<time>2026-07-13T10:08:26.000Z</time>
</trkpt>
<trkpt lat="56.345272" lon="8.122739">
<ele>1.135370</ele>
<time>2026-07-13T10:08:27.000Z</time>
</trkpt>
<trkpt lat="56.345333" lon="8.122736">
<ele>1.134409</ele>
<time>2026-07-13T10:08:28.000Z</time>
</trkpt>
<trkpt lat="56.345383" lon="8.122732">
<ele>1.133621</ele>
<time>2026-07-13T10:08:29.000Z</time>
</trkpt>
<trkpt lat="56.345440" lon="8.122731">
<ele>1.132724</ele>
<time>2026-07-13T10:08:30.000Z</time>
</trkpt>
<trkpt lat="56.345493" lon="8.122730">
<ele>1.131889</ele>
<time>2026-07-13T10:08:31.000Z</time>
</trkpt>
<trkpt lat="56.345547" lon="8.122729">
<ele>1.131039</ele>
<time>2026-07-13T10:08:32.000Z</time>
</trkpt>
<trkpt lat="56.345600" lon="8.122726">
<ele>1.131242</ele>
<time>2026-07-13T10:08:33.000Z</time>
</trkpt>
<trkpt lat="56.345650" lon="8.122724">
<ele>1.131519</ele>
<time>2026-07-13T10:08:34.000Z</time>
</trkpt>
<trkpt lat="56.345703" lon="8.122723">
<ele>1.131812</ele>
<time>2026-07-13T10:08:35.000Z</time>
</trkpt>
<trkpt lat="56.345757" lon="8.122720">
<ele>1.132112</ele>
<time>2026-07-13T10:08:36.000Z</time>
</trkpt>
<trkpt lat="56.345806" lon="8.122719">
<ele>1.132383</ele>
<time>2026-07-13T10:08:37.000Z</time>
</trkpt>
<trkpt lat="56.345860" lon="8.122718">
<ele>1.132682</ele>
<time>2026-07-13T10:08:38.000Z</time>
</trkpt>
<trkpt lat="56.345913" lon="8.122718">
<ele>1.132976</ele>
<time>2026-07-13T10:08:39.000Z</time>
</trkpt>
<trkpt lat="56.345966" lon="8.122716">
<ele>1.133270</ele>
<time>2026-07-13T10:08:40.000Z</time>
</trkpt>
<trkpt lat="56.346016" lon="8.122714">
<ele>1.133547</ele>
<time>2026-07-13T10:08:41.000Z</time>
</trkpt>
<trkpt lat="56.346069" lon="8.122710">
<ele>1.133841</ele>
<time>2026-07-13T10:08:42.000Z</time>
</trkpt>
<trkpt lat="56.346119" lon="8.122705">
<ele>1.134118</ele>
<time>2026-07-13T10:08:43.000Z</time>
</trkpt>
<trkpt lat="56.346169" lon="8.122703">
<ele>1.134395</ele>
<time>2026-07-13T10:08:44.000Z</time>
</trkpt>
<trkpt lat="56.346222" lon="8.122701">
<ele>1.134689</ele>
<time>2026-07-13T10:08:45.000Z</time>
</trkpt>
<trkpt lat="56.346275" lon="8.122698">
<ele>1.134983</ele>
<time>2026-07-13T10:08:46.000Z</time>
</trkpt>
<trkpt lat="56.346329" lon="8.122697">
<ele>1.135282</ele>
<time>2026-07-13T10:08:47.000Z</time>
</trkpt>
<trkpt lat="56.346382" lon="8.122698">
<ele>1.135575</ele>
<time>2026-07-13T10:08:48.000Z</time>
</trkpt>
<trkpt lat="56.346436" lon="8.122699">
<ele>1.135875</ele>
<time>2026-07-13T10:08:49.000Z</time>
</trkpt>
<trkpt lat="56.346489" lon="8.122699">
<ele>1.136168</ele>
<time>2026-07-13T10:08:50.000Z</time>
</trkpt>
<trkpt lat="56.346542" lon="8.122698">
<ele>1.136462</ele>
<time>2026-07-13T10:08:51.000Z</time>
</trkpt>
<trkpt lat="56.346588" lon="8.122696">
<ele>1.136717</ele>
<time>2026-07-13T10:08:52.000Z</time>
</trkpt>
<trkpt lat="56.346638" lon="8.122693">
<ele>1.136994</ele>
<time>2026-07-13T10:08:53.000Z</time>
</trkpt>
<trkpt lat="56.346695" lon="8.122692">
<ele>1.137310</ele>
<time>2026-07-13T10:08:54.000Z</time>
</trkpt>
<trkpt lat="56.346745" lon="8.122692">
<ele>1.137587</ele>
<time>2026-07-13T10:08:55.000Z</time>
</trkpt>
<trkpt lat="56.346798" lon="8.122693">
<ele>1.137880</ele>
<time>2026-07-13T10:08:56.000Z</time>
</trkpt>
<trkpt lat="56.346851" lon="8.122694">
<ele>1.138174</ele>
<time>2026-07-13T10:08:57.000Z</time>
</trkpt>
<trkpt lat="56.346905" lon="8.122696">
<ele>1.138473</ele>
<time>2026-07-13T10:08:58.000Z</time>
</trkpt>
<trkpt lat="56.346954" lon="8.122697">
<ele>1.138745</ele>
<time>2026-07-13T10:08:59.000Z</time>
</trkpt>
<trkpt lat="56.347012" lon="8.122697">
<ele>1.139066</ele>
<time>2026-07-13T10:09:00.000Z</time>
</trkpt>
<trkpt lat="56.347065" lon="8.122697">
<ele>1.139360</ele>
<time>2026-07-13T10:09:01.000Z</time>
</trkpt>
<trkpt lat="56.347118" lon="8.122696">
<ele>1.139653</ele>
<time>2026-07-13T10:09:02.000Z</time>
</trkpt>
<trkpt lat="56.347164" lon="8.122694">
<ele>1.139908</ele>
<time>2026-07-13T10:09:03.000Z</time>
</trkpt>
<trkpt lat="56.347218" lon="8.122693">
<ele>1.140208</ele>
<time>2026-07-13T10:09:04.000Z</time>
</trkpt>
<trkpt lat="56.347271" lon="8.122693">
<ele>1.140501</ele>
<time>2026-07-13T10:09:05.000Z</time>
</trkpt>
<trkpt lat="56.347328" lon="8.122694">
<ele>1.140817</ele>
<time>2026-07-13T10:09:06.000Z</time>
</trkpt>
<trkpt lat="56.347382" lon="8.122695">
<ele>1.142789</ele>
<time>2026-07-13T10:09:07.000Z</time>
</trkpt>
<trkpt lat="56.347435" lon="8.122695">
<ele>1.145815</ele>
<time>2026-07-13T10:09:08.000Z</time>
</trkpt>
<trkpt lat="56.347485" lon="8.122695">
<ele>1.148670</ele>
<time>2026-07-13T10:09:09.000Z</time>
</trkpt>
<trkpt lat="56.347534" lon="8.122694">
<ele>1.151468</ele>
<time>2026-07-13T10:09:10.000Z</time>
</trkpt>
<trkpt lat="56.347584" lon="8.122691">
<ele>1.154324</ele>
<time>2026-07-13T10:09:11.000Z</time>
</trkpt>
<trkpt lat="56.347637" lon="8.122685">
<ele>1.157355</ele>
<time>2026-07-13T10:09:12.000Z</time>
</trkpt>
<trkpt lat="56.347691" lon="8.122683">
<ele>1.160439</ele>
<time>2026-07-13T10:09:13.000Z</time>
</trkpt>
<trkpt lat="56.347740" lon="8.122682">
<ele>1.163237</ele>
<time>2026-07-13T10:09:14.000Z</time>
</trkpt>
<trkpt lat="56.347797" lon="8.122683">
<ele>1.166491</ele>
<time>2026-07-13T10:09:15.000Z</time>
</trkpt>
<trkpt lat="56.347851" lon="8.122685">
<ele>1.169575</ele>
<time>2026-07-13T10:09:16.000Z</time>
</trkpt>
<trkpt lat="56.347904" lon="8.122683">
<ele>1.172601</ele>
<time>2026-07-13T10:09:17.000Z</time>
</trkpt>
<trkpt lat="56.347958" lon="8.122682">
<ele>1.175684</ele>
<time>2026-07-13T10:09:18.000Z</time>
</trkpt>
<trkpt lat="56.348011" lon="8.122683">
<ele>1.178710</ele>
<time>2026-07-13T10:09:19.000Z</time>
</trkpt>
<trkpt lat="56.348064" lon="8.122684">
<ele>1.181736</ele>
<time>2026-07-13T10:09:20.000Z</time>
</trkpt>
<trkpt lat="56.348118" lon="8.122683">
<ele>1.184819</ele>
<time>2026-07-13T10:09:21.000Z</time>
</trkpt>
<trkpt lat="56.348175" lon="8.122682">
<ele>1.188074</ele>
<time>2026-07-13T10:09:22.000Z</time>
</trkpt>
<trkpt lat="56.348228" lon="8.122683">
<ele>1.191100</ele>
<time>2026-07-13T10:09:23.000Z</time>
</trkpt>
<trkpt lat="56.348282" lon="8.122683">
<ele>1.194183</ele>
<time>2026-07-13T10:09:24.000Z</time>
</trkpt>
<trkpt lat="56.348339" lon="8.122681">
<ele>1.197437</ele>
<time>2026-07-13T10:09:25.000Z</time>
</trkpt>
<trkpt lat="56.348392" lon="8.122679">
<ele>1.200464</ele>
<time>2026-07-13T10:09:26.000Z</time>
</trkpt>
<trkpt lat="56.348446" lon="8.122680">
<ele>1.203547</ele>
<time>2026-07-13T10:09:27.000Z</time>
</trkpt>
<trkpt lat="56.348503" lon="8.122680">
<ele>1.206801</ele>
<time>2026-07-13T10:09:28.000Z</time>
</trkpt>
<trkpt lat="56.348557" lon="8.122679">
<ele>1.209884</ele>
<time>2026-07-13T10:09:29.000Z</time>
</trkpt>
<trkpt lat="56.348610" lon="8.122678">
<ele>1.212910</ele>
<time>2026-07-13T10:09:30.000Z</time>
</trkpt>
<trkpt lat="56.348663" lon="8.122674">
<ele>1.215939</ele>
<time>2026-07-13T10:09:31.000Z</time>
</trkpt>
<trkpt lat="56.348713" lon="8.122672">
<ele>1.218794</ele>
<time>2026-07-13T10:09:32.000Z</time>
</trkpt>
<trkpt lat="56.348766" lon="8.122672">
<ele>1.221820</ele>
<time>2026-07-13T10:09:33.000Z</time>
</trkpt>
<trkpt lat="56.348820" lon="8.122672">
<ele>1.224903</ele>
<time>2026-07-13T10:09:34.000Z</time>
</trkpt>
<trkpt lat="56.348869" lon="8.122672">
<ele>1.227700</ele>
<time>2026-07-13T10:09:35.000Z</time>
</trkpt>
<trkpt lat="56.348923" lon="8.122672">
<ele>1.230783</ele>
<time>2026-07-13T10:09:36.000Z</time>
</trkpt>
<trkpt lat="56.348972" lon="8.122671">
<ele>1.233581</ele>
<time>2026-07-13T10:09:37.000Z</time>
</trkpt>
<trkpt lat="56.349026" lon="8.122668">
<ele>1.236665</ele>
<time>2026-07-13T10:09:38.000Z</time>
</trkpt>
<trkpt lat="56.349075" lon="8.122665">
<ele>1.239464</ele>
<time>2026-07-13T10:09:39.000Z</time>
</trkpt>
<trkpt lat="56.349129" lon="8.122665">
<ele>1.242547</ele>
<time>2026-07-13T10:09:40.000Z</time>
</trkpt>
<trkpt lat="56.349178" lon="8.122664">
<ele>1.250984</ele>
<time>2026-07-13T10:09:41.000Z</time>
</trkpt>
<trkpt lat="56.349228" lon="8.122663">
<ele>1.263190</ele>
<time>2026-07-13T10:09:42.000Z</time>
</trkpt>
<trkpt lat="56.349281" lon="8.122660">
<ele>1.276133</ele>
<time>2026-07-13T10:09:43.000Z</time>
</trkpt>
<trkpt lat="56.349335" lon="8.122658">
<ele>1.289317</ele>
<time>2026-07-13T10:09:44.000Z</time>
</trkpt>
<trkpt lat="56.349384" lon="8.122657">
<ele>1.301278</ele>
<time>2026-07-13T10:09:45.000Z</time>
</trkpt>
<trkpt lat="56.349434" lon="8.122656">
<ele>1.313484</ele>
<time>2026-07-13T10:09:46.000Z</time>
</trkpt>
<trkpt lat="56.349487" lon="8.122654">
<ele>1.326424</ele>
<time>2026-07-13T10:09:47.000Z</time>
</trkpt>
<trkpt lat="56.349541" lon="8.122651">
<ele>1.339611</ele>
<time>2026-07-13T10:09:48.000Z</time>
</trkpt>
<trkpt lat="56.349594" lon="8.122649">
<ele>1.352551</ele>
<time>2026-07-13T10:09:49.000Z</time>
</trkpt>
<trkpt lat="56.349648" lon="8.122648">
<ele>1.365733</ele>
<time>2026-07-13T10:09:50.000Z</time>
</trkpt>
<trkpt lat="56.349701" lon="8.122647">
<ele>1.378670</ele>
<time>2026-07-13T10:09:51.000Z</time>
</trkpt>
<trkpt lat="56.349754" lon="8.122646">
<ele>1.391608</ele>
<time>2026-07-13T10:09:52.000Z</time>
</trkpt>
<trkpt lat="56.349808" lon="8.122646">
<ele>1.404789</ele>
<time>2026-07-13T10:09:53.000Z</time>
</trkpt>
<trkpt lat="56.349865" lon="8.122644">
<ele>1.418705</ele>
<time>2026-07-13T10:09:54.000Z</time>
</trkpt>
<trkpt lat="56.349918" lon="8.122643">
<ele>1.431643</ele>
<time>2026-07-13T10:09:55.000Z</time>
</trkpt>
<trkpt lat="56.349972" lon="8.122640">
<ele>1.444830</ele>
<time>2026-07-13T10:09:56.000Z</time>
</trkpt>
<trkpt lat="56.350025" lon="8.122638">
<ele>1.457770</ele>
<time>2026-07-13T10:09:57.000Z</time>
</trkpt>
<trkpt lat="56.350075" lon="8.122636">
<ele>1.469977</ele>
<time>2026-07-13T10:09:58.000Z</time>
</trkpt>
<trkpt lat="56.350128" lon="8.122635">
<ele>1.482915</ele>
<time>2026-07-13T10:09:59.000Z</time>
</trkpt>
<trkpt lat="56.350178" lon="8.122634">
<ele>1.495121</ele>
<time>2026-07-13T10:10:00.000Z</time>
</trkpt>
<trkpt lat="56.350231" lon="8.122634">
<ele>1.508058</ele>
<time>2026-07-13T10:10:01.000Z</time>
</trkpt>
<trkpt lat="56.350285" lon="8.122636">
<ele>1.521241</ele>
<time>2026-07-13T10:10:02.000Z</time>
</trkpt>
<trkpt lat="56.350338" lon="8.122639">
<ele>1.534185</ele>
<time>2026-07-13T10:10:03.000Z</time>
</trkpt>
<trkpt lat="56.350388" lon="8.122638">
<ele>1.546390</ele>
<time>2026-07-13T10:10:04.000Z</time>
</trkpt>
<trkpt lat="56.350437" lon="8.122636">
<ele>1.558354</ele>
<time>2026-07-13T10:10:05.000Z</time>
</trkpt>
<trkpt lat="56.350491" lon="8.122636">
<ele>1.571535</ele>
<time>2026-07-13T10:10:06.000Z</time>
</trkpt>
<trkpt lat="56.350544" lon="8.122638">
<ele>1.584475</ele>
<time>2026-07-13T10:10:07.000Z</time>
</trkpt>
<trkpt lat="56.350597" lon="8.122639">
<ele>1.597412</ele>
<time>2026-07-13T10:10:08.000Z</time>
</trkpt>
<trkpt lat="56.350647" lon="8.122640">
<ele>1.609618</ele>
<time>2026-07-13T10:10:09.000Z</time>
</trkpt>
<trkpt lat="56.350700" lon="8.122638">
<ele>1.622558</ele>
<time>2026-07-13T10:10:10.000Z</time>
</trkpt>
<trkpt lat="56.350754" lon="8.122638">
<ele>1.635739</ele>
<time>2026-07-13T10:10:11.000Z</time>
</trkpt>
<trkpt lat="56.350803" lon="8.122639">
<ele>1.647700</ele>
<time>2026-07-13T10:10:12.000Z</time>
</trkpt>
<trkpt lat="56.350849" lon="8.122640">
<ele>1.658929</ele>
<time>2026-07-13T10:10:13.000Z</time>
</trkpt>
<trkpt lat="56.350899" lon="8.122638">
<ele>1.671137</ele>
<time>2026-07-13T10:10:14.000Z</time>
</trkpt>
<trkpt lat="56.350945" lon="8.122636">
<ele>1.682368</ele>
<time>2026-07-13T10:10:15.000Z</time>
</trkpt>
<trkpt lat="56.350994" lon="8.122635">
<ele>1.673089</ele>
<time>2026-07-13T10:10:16.000Z</time>
</trkpt>
<trkpt lat="56.351040" lon="8.122634">
<ele>1.663879</ele>
<time>2026-07-13T10:10:17.000Z</time>
</trkpt>
<trkpt lat="56.351086" lon="8.122633">
<ele>1.654668</ele>
<time>2026-07-13T10:10:18.000Z</time>
</trkpt>
<trkpt lat="56.351131" lon="8.122631">
<ele>1.645655</ele>
<time>2026-07-13T10:10:19.000Z</time>
</trkpt>
<trkpt lat="56.351177" lon="8.122627">
<ele>1.636434</ele>
<time>2026-07-13T10:10:20.000Z</time>
</trkpt>
<trkpt lat="56.351227" lon="8.122626">
<ele>1.626422</ele>
<time>2026-07-13T10:10:21.000Z</time>
</trkpt>
<trkpt lat="56.351284" lon="8.122624">
<ele>1.615008</ele>
<time>2026-07-13T10:10:22.000Z</time>
</trkpt>
<trkpt lat="56.351337" lon="8.122623">
<ele>1.604395</ele>
<time>2026-07-13T10:10:23.000Z</time>
</trkpt>
<trkpt lat="56.351395" lon="8.122623">
<ele>1.592783</ele>
<time>2026-07-13T10:10:24.000Z</time>
</trkpt>
<trkpt lat="56.351452" lon="8.122624">
<ele>1.581369</ele>
<time>2026-07-13T10:10:25.000Z</time>
</trkpt>
<trkpt lat="56.351509" lon="8.122624">
<ele>1.569957</ele>
<time>2026-07-13T10:10:26.000Z</time>
</trkpt>
<trkpt lat="56.351563" lon="8.122622">
<ele>1.559143</ele>
<time>2026-07-13T10:10:27.000Z</time>
</trkpt>
<trkpt lat="56.351620" lon="8.122618">
<ele>1.547721</ele>
<time>2026-07-13T10:10:28.000Z</time>
</trkpt>
<trkpt lat="56.351677" lon="8.122613">
<ele>1.536295</ele>
<time>2026-07-13T10:10:29.000Z</time>
</trkpt>
<trkpt lat="56.351734" lon="8.122609">
<ele>1.524874</ele>
<time>2026-07-13T10:10:30.000Z</time>
</trkpt>
<trkpt lat="56.351795" lon="8.122605">
<ele>1.512652</ele>
<time>2026-07-13T10:10:31.000Z</time>
</trkpt>
<trkpt lat="56.351849" lon="8.122602">
<ele>1.501835</ele>
<time>2026-07-13T10:10:32.000Z</time>
</trkpt>
<trkpt lat="56.351906" lon="8.122600">
<ele>1.490421</ele>
<time>2026-07-13T10:10:33.000Z</time>
</trkpt>
<trkpt lat="56.351959" lon="8.122598">
<ele>1.479806</ele>
<time>2026-07-13T10:10:34.000Z</time>
</trkpt>
<trkpt lat="56.352009" lon="8.122599">
<ele>1.469795</ele>
<time>2026-07-13T10:10:35.000Z</time>
</trkpt>
<trkpt lat="56.352062" lon="8.122603">
<ele>1.459174</ele>
<time>2026-07-13T10:10:36.000Z</time>
</trkpt>
<trkpt lat="56.352112" lon="8.122608">
<ele>1.449147</ele>
<time>2026-07-13T10:10:37.000Z</time>
</trkpt>
<trkpt lat="56.352169" lon="8.122614">
<ele>1.437715</ele>
<time>2026-07-13T10:10:38.000Z</time>
</trkpt>
<trkpt lat="56.352222" lon="8.122619">
<ele>1.427089</ele>
<time>2026-07-13T10:10:39.000Z</time>
</trkpt>
<trkpt lat="56.352276" lon="8.122624">
<ele>1.416263</ele>
<time>2026-07-13T10:10:40.000Z</time>
</trkpt>
<trkpt lat="56.352333" lon="8.122627">
<ele>1.404845</ele>
<time>2026-07-13T10:10:41.000Z</time>
</trkpt>
<trkpt lat="56.352386" lon="8.122628">
<ele>1.394233</ele>
<time>2026-07-13T10:10:42.000Z</time>
</trkpt>
<trkpt lat="56.352444" lon="8.122627">
<ele>1.382620</ele>
<time>2026-07-13T10:10:43.000Z</time>
</trkpt>
<trkpt lat="56.352501" lon="8.122626">
<ele>1.371207</ele>
<time>2026-07-13T10:10:44.000Z</time>
</trkpt>
<trkpt lat="56.352554" lon="8.122625">
<ele>1.360594</ele>
<time>2026-07-13T10:10:45.000Z</time>
</trkpt>
<trkpt lat="56.352612" lon="8.122625">
<ele>1.348981</ele>
<time>2026-07-13T10:10:46.000Z</time>
</trkpt>
<trkpt lat="56.352669" lon="8.122626">
<ele>1.337568</ele>
<time>2026-07-13T10:10:47.000Z</time>
</trkpt>
<trkpt lat="56.352722" lon="8.122625">
<ele>1.326956</ele>
<time>2026-07-13T10:10:48.000Z</time>
</trkpt>
<trkpt lat="56.352776" lon="8.122622">
<ele>1.319025</ele>
<time>2026-07-13T10:10:49.000Z</time>
</trkpt>
<trkpt lat="56.352829" lon="8.122621">
<ele>1.313202</ele>
<time>2026-07-13T10:10:50.000Z</time>
</trkpt>
<trkpt lat="56.352882" lon="8.122618">
<ele>1.307377</ele>
<time>2026-07-13T10:10:51.000Z</time>
</trkpt>
<trkpt lat="56.352936" lon="8.122616">
<ele>1.301443</ele>
<time>2026-07-13T10:10:52.000Z</time>
</trkpt>
<trkpt lat="56.352985" lon="8.122616">
<ele>1.296060</ele>
<time>2026-07-13T10:10:53.000Z</time>
</trkpt>
<trkpt lat="56.353039" lon="8.122618">
<ele>1.290126</ele>
<time>2026-07-13T10:10:54.000Z</time>
</trkpt>
<trkpt lat="56.353092" lon="8.122619">
<ele>1.284303</ele>
<time>2026-07-13T10:10:55.000Z</time>
</trkpt>
<trkpt lat="56.353142" lon="8.122620">
<ele>1.278810</ele>
<time>2026-07-13T10:10:56.000Z</time>
</trkpt>
<trkpt lat="56.353199" lon="8.122621">
<ele>1.272547</ele>
<time>2026-07-13T10:10:57.000Z</time>
</trkpt>
<trkpt lat="56.353256" lon="8.122621">
<ele>1.266285</ele>
<time>2026-07-13T10:10:58.000Z</time>
</trkpt>
<trkpt lat="56.353306" lon="8.122620">
<ele>1.260792</ele>
<time>2026-07-13T10:10:59.000Z</time>
</trkpt>
<trkpt lat="56.353363" lon="8.122620">
<ele>1.254530</ele>
<time>2026-07-13T10:11:00.000Z</time>
</trkpt>
<trkpt lat="56.353420" lon="8.122619">
<ele>1.248268</ele>
<time>2026-07-13T10:11:01.000Z</time>
</trkpt>
<trkpt lat="56.353474" lon="8.122619">
<ele>1.242335</ele>
<time>2026-07-13T10:11:02.000Z</time>
</trkpt>
<trkpt lat="56.353531" lon="8.122620">
<ele>1.236073</ele>
<time>2026-07-13T10:11:03.000Z</time>
</trkpt>
<trkpt lat="56.353580" lon="8.122620">
<ele>1.230690</ele>
<time>2026-07-13T10:11:04.000Z</time>
</trkpt>
<trkpt lat="56.353645" lon="8.122620">
<ele>1.223549</ele>
<time>2026-07-13T10:11:05.000Z</time>
</trkpt>
<trkpt lat="56.353699" lon="8.122620">
<ele>1.217616</ele>
<time>2026-07-13T10:11:06.000Z</time>
</trkpt>
<trkpt lat="56.353752" lon="8.122619">
<ele>1.211793</ele>
<time>2026-07-13T10:11:07.000Z</time>
</trkpt>
<trkpt lat="56.353802" lon="8.122616">
<ele>1.206297</ele>
<time>2026-07-13T10:11:08.000Z</time>
</trkpt>
<trkpt lat="56.353851" lon="8.122615">
<ele>1.200914</ele>
<time>2026-07-13T10:11:09.000Z</time>
</trkpt>
<trkpt lat="56.353912" lon="8.122615">
<ele>1.194212</ele>
<time>2026-07-13T10:11:10.000Z</time>
</trkpt>
<trkpt lat="56.353966" lon="8.122615">
<ele>1.188280</ele>
<time>2026-07-13T10:11:11.000Z</time>
</trkpt>
<trkpt lat="56.354015" lon="8.122615">
<ele>1.182896</ele>
<time>2026-07-13T10:11:12.000Z</time>
</trkpt>
<trkpt lat="56.354065" lon="8.122615">
<ele>1.177403</ele>
<time>2026-07-13T10:11:13.000Z</time>
</trkpt>
<trkpt lat="56.354118" lon="8.122614">
<ele>1.171581</ele>
<time>2026-07-13T10:11:14.000Z</time>
</trkpt>
<trkpt lat="56.354168" lon="8.122613">
<ele>1.166087</ele>
<time>2026-07-13T10:11:15.000Z</time>
</trkpt>
<trkpt lat="56.354218" lon="8.122613">
<ele>1.160594</ele>
<time>2026-07-13T10:11:16.000Z</time>
</trkpt>
<trkpt lat="56.354271" lon="8.122612">
<ele>1.154771</ele>
<time>2026-07-13T10:11:17.000Z</time>
</trkpt>
<trkpt lat="56.354320" lon="8.122612">
<ele>1.149388</ele>
<time>2026-07-13T10:11:18.000Z</time>
</trkpt>
<trkpt lat="56.354374" lon="8.122612">
<ele>1.143456</ele>
<time>2026-07-13T10:11:19.000Z</time>
</trkpt>
<trkpt lat="56.354427" lon="8.122612">
<ele>1.137633</ele>
<time>2026-07-13T10:11:20.000Z</time>
</trkpt>
<trkpt lat="56.354477" lon="8.122612">
<ele>1.132140</ele>
<time>2026-07-13T10:11:21.000Z</time>
</trkpt>
<trkpt lat="56.354530" lon="8.122612">
<ele>1.126317</ele>
<time>2026-07-13T10:11:22.000Z</time>
</trkpt>
<trkpt lat="56.354580" lon="8.122611">
<ele>1.123498</ele>
<time>2026-07-13T10:11:23.000Z</time>
</trkpt>
<trkpt lat="56.354633" lon="8.122609">
<ele>1.121463</ele>
<time>2026-07-13T10:11:24.000Z</time>
</trkpt>
<trkpt lat="56.354683" lon="8.122605">
<ele>1.119541</ele>
<time>2026-07-13T10:11:25.000Z</time>
</trkpt>
<trkpt lat="56.354740" lon="8.122602">
<ele>1.117352</ele>
<time>2026-07-13T10:11:26.000Z</time>
</trkpt>
<trkpt lat="56.354794" lon="8.122598">
<ele>1.115277</ele>
<time>2026-07-13T10:11:27.000Z</time>
</trkpt>
<trkpt lat="56.354839" lon="8.122594">
<ele>1.113548</ele>
<time>2026-07-13T10:11:28.000Z</time>
</trkpt>
<trkpt lat="56.354889" lon="8.122592">
<ele>1.111628</ele>
<time>2026-07-13T10:11:29.000Z</time>
</trkpt>
<trkpt lat="56.354950" lon="8.122592">
<ele>1.109286</ele>
<time>2026-07-13T10:11:30.000Z</time>
</trkpt>
<trkpt lat="56.355007" lon="8.122591">
<ele>1.107097</ele>
<time>2026-07-13T10:11:31.000Z</time>
</trkpt>
<trkpt lat="56.355061" lon="8.122587">
<ele>1.105023</ele>
<time>2026-07-13T10:11:32.000Z</time>
</trkpt>
<trkpt lat="56.355114" lon="8.122585">
<ele>1.102987</ele>
<time>2026-07-13T10:11:33.000Z</time>
</trkpt>
<trkpt lat="56.355171" lon="8.122585">
<ele>1.100799</ele>
<time>2026-07-13T10:11:34.000Z</time>
</trkpt>
<trkpt lat="56.355228" lon="8.122587">
<ele>1.098610</ele>
<time>2026-07-13T10:11:35.000Z</time>
</trkpt>
<trkpt lat="56.355282" lon="8.122588">
<ele>1.096537</ele>
<time>2026-07-13T10:11:36.000Z</time>
</trkpt>
<trkpt lat="56.355339" lon="8.122589">
<ele>1.094349</ele>
<time>2026-07-13T10:11:37.000Z</time>
</trkpt>
<trkpt lat="56.355392" lon="8.122591">
<ele>1.092314</ele>
<time>2026-07-13T10:11:38.000Z</time>
</trkpt>
<trkpt lat="56.355450" lon="8.122592">
<ele>1.090087</ele>
<time>2026-07-13T10:11:39.000Z</time>
</trkpt>
<trkpt lat="56.355507" lon="8.122593">
<ele>1.087899</ele>
<time>2026-07-13T10:11:40.000Z</time>
</trkpt>
<trkpt lat="56.355564" lon="8.122592">
<ele>1.085710</ele>
<time>2026-07-13T10:11:41.000Z</time>
</trkpt>
<trkpt lat="56.355621" lon="8.122592">
<ele>1.083522</ele>
<time>2026-07-13T10:11:42.000Z</time>
</trkpt>
<trkpt lat="56.355679" lon="8.122591">
<ele>1.081295</ele>
<time>2026-07-13T10:11:43.000Z</time>
</trkpt>
<trkpt lat="56.355732" lon="8.122590">
<ele>1.079261</ele>
<time>2026-07-13T10:11:44.000Z</time>
</trkpt>
<trkpt lat="56.355789" lon="8.122589">
<ele>1.077072</ele>
<time>2026-07-13T10:11:45.000Z</time>
</trkpt>
<trkpt lat="56.355843" lon="8.122584">
<ele>1.074996</ele>
<time>2026-07-13T10:11:46.000Z</time>
</trkpt>
<trkpt lat="56.355896" lon="8.122580">
<ele>1.072960</ele>
<time>2026-07-13T10:11:47.000Z</time>
</trkpt>
<trkpt lat="56.355949" lon="8.122579">
<ele>1.070925</ele>
<time>2026-07-13T10:11:48.000Z</time>
</trkpt>
<trkpt lat="56.356003" lon="8.122579">
<ele>1.068852</ele>
<time>2026-07-13T10:11:49.000Z</time>
</trkpt>
<trkpt lat="56.356056" lon="8.122580">
<ele>1.066817</ele>
<time>2026-07-13T10:11:50.000Z</time>
</trkpt>
<trkpt lat="56.356110" lon="8.122579">
<ele>1.064744</ele>
<time>2026-07-13T10:11:51.000Z</time>
</trkpt>
<trkpt lat="56.356163" lon="8.122579">
<ele>1.062709</ele>
<time>2026-07-13T10:11:52.000Z</time>
</trkpt>
<trkpt lat="56.356220" lon="8.122578">
<ele>1.060521</ele>
<time>2026-07-13T10:11:53.000Z</time>
</trkpt>
<trkpt lat="56.356274" lon="8.122574">
<ele>1.058446</ele>
<time>2026-07-13T10:11:54.000Z</time>
</trkpt>
<trkpt lat="56.356327" lon="8.122571">
<ele>1.056411</ele>
<time>2026-07-13T10:11:55.000Z</time>
</trkpt>
<trkpt lat="56.356377" lon="8.122570">
<ele>1.046594</ele>
<time>2026-07-13T10:11:56.000Z</time>
</trkpt>
<trkpt lat="56.356434" lon="8.122570">
<ele>1.031997</ele>
<time>2026-07-13T10:11:57.000Z</time>
</trkpt>
<trkpt lat="56.356487" lon="8.122570">
<ele>1.018424</ele>
<time>2026-07-13T10:11:58.000Z</time>
</trkpt>
<trkpt lat="56.356541" lon="8.122569">
<ele>1.004594</ele>
<time>2026-07-13T10:11:59.000Z</time>
</trkpt>
<trkpt lat="56.356590" lon="8.122567">
<ele>0.992042</ele>
<time>2026-07-13T10:12:00.000Z</time>
</trkpt>
<trkpt lat="56.356644" lon="8.122564">
<ele>0.978207</ele>
<time>2026-07-13T10:12:01.000Z</time>
</trkpt>
<trkpt lat="56.356697" lon="8.122560">
<ele>0.964622</ele>
<time>2026-07-13T10:12:02.000Z</time>
</trkpt>
<trkpt lat="56.356750" lon="8.122560">
<ele>0.951049</ele>
<time>2026-07-13T10:12:03.000Z</time>
</trkpt>
<trkpt lat="56.356804" lon="8.122559">
<ele>0.937219</ele>
<time>2026-07-13T10:12:04.000Z</time>
</trkpt>
<trkpt lat="56.356857" lon="8.122559">
<ele>0.923646</ele>
<time>2026-07-13T10:12:05.000Z</time>
</trkpt>
<trkpt lat="56.356911" lon="8.122558">
<ele>0.909817</ele>
<time>2026-07-13T10:12:06.000Z</time>
</trkpt>
<trkpt lat="56.356960" lon="8.122557">
<ele>0.897267</ele>
<time>2026-07-13T10:12:07.000Z</time>
</trkpt>
<trkpt lat="56.357018" lon="8.122557">
<ele>0.882414</ele>
<time>2026-07-13T10:12:08.000Z</time>
</trkpt>
<trkpt lat="56.357071" lon="8.122556">
<ele>0.868840</ele>
<time>2026-07-13T10:12:09.000Z</time>
</trkpt>
<trkpt lat="56.357121" lon="8.122554">
<ele>0.856032</ele>
<time>2026-07-13T10:12:10.000Z</time>
</trkpt>
<trkpt lat="56.357174" lon="8.122553">
<ele>0.842459</ele>
<time>2026-07-13T10:12:11.000Z</time>
</trkpt>
<trkpt lat="56.357227" lon="8.122552">
<ele>0.828885</ele>
<time>2026-07-13T10:12:12.000Z</time>
</trkpt>
<trkpt lat="56.357277" lon="8.122552">
<ele>0.816080</ele>
<time>2026-07-13T10:12:13.000Z</time>
</trkpt>
<trkpt lat="56.357330" lon="8.122554">
<ele>0.802505</ele>
<time>2026-07-13T10:12:14.000Z</time>
</trkpt>
<trkpt lat="56.357384" lon="8.122555">
<ele>0.788675</ele>
<time>2026-07-13T10:12:15.000Z</time>
</trkpt>
<trkpt lat="56.357437" lon="8.122554">
<ele>0.775101</ele>
<time>2026-07-13T10:12:16.000Z</time>
</trkpt>
<trkpt lat="56.357491" lon="8.122553">
<ele>0.761271</ele>
<time>2026-07-13T10:12:17.000Z</time>
</trkpt>
<trkpt lat="56.357540" lon="8.122552">
<ele>0.748722</ele>
<time>2026-07-13T10:12:18.000Z</time>
</trkpt>
<trkpt lat="56.357586" lon="8.122552">
<ele>0.736942</ele>
<time>2026-07-13T10:12:19.000Z</time>
</trkpt>
<trkpt lat="56.357647" lon="8.122552">
<ele>0.721320</ele>
<time>2026-07-13T10:12:20.000Z</time>
</trkpt>
<trkpt lat="56.357700" lon="8.122551">
<ele>0.707746</ele>
<time>2026-07-13T10:12:21.000Z</time>
</trkpt>
<trkpt lat="56.357750" lon="8.122550">
<ele>0.694941</ele>
<time>2026-07-13T10:12:22.000Z</time>
</trkpt>
<trkpt lat="56.357803" lon="8.122550">
<ele>0.681368</ele>
<time>2026-07-13T10:12:23.000Z</time>
</trkpt>
<trkpt lat="56.357861" lon="8.122550">
<ele>0.666515</ele>
<time>2026-07-13T10:12:24.000Z</time>
</trkpt>
<trkpt lat="56.357910" lon="8.122550">
<ele>0.653966</ele>
<time>2026-07-13T10:12:25.000Z</time>
</trkpt>
<trkpt lat="56.357967" lon="8.122550">
<ele>0.639369</ele>
<time>2026-07-13T10:12:26.000Z</time>
</trkpt>
<trkpt lat="56.358021" lon="8.122550">
<ele>0.625540</ele>
<time>2026-07-13T10:12:27.000Z</time>
</trkpt>
<trkpt lat="56.358074" lon="8.122550">
<ele>0.611967</ele>
<time>2026-07-13T10:12:28.000Z</time>
</trkpt>
<trkpt lat="56.358128" lon="8.122551">
<ele>0.598137</ele>
<time>2026-07-13T10:12:29.000Z</time>
</trkpt>
<trkpt lat="56.358181" lon="8.122554">
<ele>0.587584</ele>
<time>2026-07-13T10:12:30.000Z</time>
</trkpt>
<trkpt lat="56.358234" lon="8.122558">
<ele>0.577839</ele>
<time>2026-07-13T10:12:31.000Z</time>
</trkpt>
<trkpt lat="56.358288" lon="8.122559">
<ele>0.567918</ele>
<time>2026-07-13T10:12:32.000Z</time>
</trkpt>
<trkpt lat="56.358345" lon="8.122560">
<ele>0.557447</ele>
<time>2026-07-13T10:12:33.000Z</time>
</trkpt>
<trkpt lat="56.358398" lon="8.122564">
<ele>0.547702</ele>
<time>2026-07-13T10:12:34.000Z</time>
</trkpt>
<trkpt lat="56.358456" lon="8.122565">
<ele>0.537047</ele>
<time>2026-07-13T10:12:35.000Z</time>
</trkpt>
<trkpt lat="56.358509" lon="8.122566">
<ele>0.527310</ele>
<time>2026-07-13T10:12:36.000Z</time>
</trkpt>
<trkpt lat="56.358562" lon="8.122567">
<ele>0.517573</ele>
<time>2026-07-13T10:12:37.000Z</time>
</trkpt>
<trkpt lat="56.358616" lon="8.122571">
<ele>0.507645</ele>
<time>2026-07-13T10:12:38.000Z</time>
</trkpt>
<trkpt lat="56.358669" lon="8.122574">
<ele>0.497904</ele>
<time>2026-07-13T10:12:39.000Z</time>
</trkpt>
<trkpt lat="56.358727" lon="8.122578">
<ele>0.487241</ele>
<time>2026-07-13T10:12:40.000Z</time>
</trkpt>
<trkpt lat="56.358784" lon="8.122579">
<ele>0.476770</ele>
<time>2026-07-13T10:12:41.000Z</time>
</trkpt>
<trkpt lat="56.358837" lon="8.122580">
<ele>0.467033</ele>
<time>2026-07-13T10:12:42.000Z</time>
</trkpt>
<trkpt lat="56.358891" lon="8.122579">
<ele>0.457113</ele>
<time>2026-07-13T10:12:43.000Z</time>
</trkpt>
<trkpt lat="56.358944" lon="8.122579">
<ele>0.447376</ele>
<time>2026-07-13T10:12:44.000Z</time>
</trkpt>
<trkpt lat="56.358993" lon="8.122579">
<ele>0.438375</ele>
<time>2026-07-13T10:12:45.000Z</time>
</trkpt>
<trkpt lat="56.359047" lon="8.122580">
<ele>0.428454</ele>
<time>2026-07-13T10:12:46.000Z</time>
</trkpt>
<trkpt lat="56.359100" lon="8.122583">
<ele>0.418713</ele>
<time>2026-07-13T10:12:47.000Z</time>
</trkpt>
<trkpt lat="56.359158" lon="8.122584">
<ele>0.408058</ele>
<time>2026-07-13T10:12:48.000Z</time>
</trkpt>
<trkpt lat="56.359215" lon="8.122588">
<ele>0.397579</ele>
<time>2026-07-13T10:12:49.000Z</time>
</trkpt>
<trkpt lat="56.359268" lon="8.122593">
<ele>0.387830</ele>
<time>2026-07-13T10:12:50.000Z</time>
</trkpt>
<trkpt lat="56.359322" lon="8.122596">
<ele>0.377905</ele>
<time>2026-07-13T10:12:51.000Z</time>
</trkpt>
<trkpt lat="56.359375" lon="8.122600">
<ele>0.368160</ele>
<time>2026-07-13T10:12:52.000Z</time>
</trkpt>
<trkpt lat="56.359421" lon="8.122602">
<ele>0.359707</ele>
<time>2026-07-13T10:12:53.000Z</time>
</trkpt>
<trkpt lat="56.359470" lon="8.122607">
<ele>0.350692</ele>
<time>2026-07-13T10:12:54.000Z</time>
</trkpt>
<trkpt lat="56.359524" lon="8.122611">
<ele>0.340763</ele>
<time>2026-07-13T10:12:55.000Z</time>
</trkpt>
<trkpt lat="56.359581" lon="8.122614">
<ele>0.330288</ele>
<time>2026-07-13T10:12:56.000Z</time>
</trkpt>
<trkpt lat="56.359634" lon="8.122619">
<ele>0.320538</ele>
<time>2026-07-13T10:12:57.000Z</time>
</trkpt>
<trkpt lat="56.359688" lon="8.122626">
<ele>0.310593</ele>
<time>2026-07-13T10:12:58.000Z</time>
</trkpt>
<trkpt lat="56.359741" lon="8.122635">
<ele>0.300813</ele>
<time>2026-07-13T10:12:59.000Z</time>
</trkpt>
<trkpt lat="56.359795" lon="8.122642">
<ele>0.290868</ele>
<time>2026-07-13T10:13:00.000Z</time>
</trkpt>
<trkpt lat="56.359848" lon="8.122647">
<ele>0.281118</ele>
<time>2026-07-13T10:13:01.000Z</time>
</trkpt>
<trkpt lat="56.359901" lon="8.122651">
<ele>0.271374</ele>
<time>2026-07-13T10:13:02.000Z</time>
</trkpt>
<trkpt lat="56.359955" lon="8.122654">
<ele>0.263440</ele>
<time>2026-07-13T10:13:03.000Z</time>
</trkpt>
<trkpt lat="56.360008" lon="8.122658">
<ele>0.259403</ele>
<time>2026-07-13T10:13:04.000Z</time>
</trkpt>
<trkpt lat="56.360062" lon="8.122660">
<ele>0.255293</ele>
<time>2026-07-13T10:13:05.000Z</time>
</trkpt>
<trkpt lat="56.360111" lon="8.122661">
<ele>0.251564</ele>
<time>2026-07-13T10:13:06.000Z</time>
</trkpt>
<trkpt lat="56.360165" lon="8.122664">
<ele>0.247453</ele>
<time>2026-07-13T10:13:07.000Z</time>
</trkpt>
<trkpt lat="56.360214" lon="8.122667">
<ele>0.243722</ele>
<time>2026-07-13T10:13:08.000Z</time>
</trkpt>
<trkpt lat="56.360268" lon="8.122671">
<ele>0.239610</ele>
<time>2026-07-13T10:13:09.000Z</time>
</trkpt>
<trkpt lat="56.360325" lon="8.122672">
<ele>0.235272</ele>
<time>2026-07-13T10:13:10.000Z</time>
</trkpt>
<trkpt lat="56.360378" lon="8.122672">
<ele>0.231239</ele>
<time>2026-07-13T10:13:11.000Z</time>
</trkpt>
<trkpt lat="56.360432" lon="8.122669">
<ele>0.227128</ele>
<time>2026-07-13T10:13:12.000Z</time>
</trkpt>
<trkpt lat="56.360489" lon="8.122669">
<ele>0.222791</ele>
<time>2026-07-13T10:13:13.000Z</time>
</trkpt>
<trkpt lat="56.360542" lon="8.122671">
<ele>0.218757</ele>
<time>2026-07-13T10:13:14.000Z</time>
</trkpt>
<trkpt lat="56.360600" lon="8.122674">
<ele>0.214341</ele>
<time>2026-07-13T10:13:15.000Z</time>
</trkpt>
<trkpt lat="56.360653" lon="8.122676">
<ele>0.210307</ele>
<time>2026-07-13T10:13:16.000Z</time>
</trkpt>
<trkpt lat="56.360706" lon="8.122678">
<ele>0.206273</ele>
<time>2026-07-13T10:13:17.000Z</time>
</trkpt>
<trkpt lat="56.360760" lon="8.122681">
<ele>0.202162</ele>
<time>2026-07-13T10:13:18.000Z</time>
</trkpt>
<trkpt lat="56.360813" lon="8.122688">
<ele>0.198119</ele>
<time>2026-07-13T10:13:19.000Z</time>
</trkpt>
<trkpt lat="56.360867" lon="8.122696">
<ele>0.193996</ele>
<time>2026-07-13T10:13:20.000Z</time>
</trkpt>
<trkpt lat="56.360924" lon="8.122704">
<ele>0.189645</ele>
<time>2026-07-13T10:13:21.000Z</time>
</trkpt>
<trkpt lat="56.360977" lon="8.122712">
<ele>0.185598</ele>
<time>2026-07-13T10:13:22.000Z</time>
</trkpt>
<trkpt lat="56.361031" lon="8.122716">
<ele>0.181485</ele>
<time>2026-07-13T10:13:23.000Z</time>
</trkpt>
<trkpt lat="56.361088" lon="8.122718">
<ele>0.177147</ele>
<time>2026-07-13T10:13:24.000Z</time>
</trkpt>
<trkpt lat="56.361145" lon="8.122718">
<ele>0.172810</ele>
<time>2026-07-13T10:13:25.000Z</time>
</trkpt>
<trkpt lat="56.361202" lon="8.122716">
<ele>0.168471</ele>
<time>2026-07-13T10:13:26.000Z</time>
</trkpt>
<trkpt lat="56.361259" lon="8.122715">
<ele>0.164134</ele>
<time>2026-07-13T10:13:27.000Z</time>
</trkpt>
<trkpt lat="56.361317" lon="8.122716">
<ele>0.159720</ele>
<time>2026-07-13T10:13:28.000Z</time>
</trkpt>
<trkpt lat="56.361374" lon="8.122719">
<ele>0.155381</ele>
<time>2026-07-13T10:13:29.000Z</time>
</trkpt>
<trkpt lat="56.361427" lon="8.122724">
<ele>0.151342</ele>
<time>2026-07-13T10:13:30.000Z</time>
</trkpt>
<trkpt lat="56.361485" lon="8.122727">
<ele>0.146927</ele>
<time>2026-07-13T10:13:31.000Z</time>
</trkpt>
<trkpt lat="56.361538" lon="8.122728">
<ele>0.142894</ele>
<time>2026-07-13T10:13:32.000Z</time>
</trkpt>
<trkpt lat="56.361588" lon="8.122727">
<ele>0.139089</ele>
<time>2026-07-13T10:13:33.000Z</time>
</trkpt>
<trkpt lat="56.361645" lon="8.122723">
<ele>0.134748</ele>
<time>2026-07-13T10:13:34.000Z</time>
</trkpt>
<trkpt lat="56.361710" lon="8.122717">
<ele>0.129795</ele>
<time>2026-07-13T10:13:35.000Z</time>
</trkpt>
<trkpt lat="56.361763" lon="8.122715">
<ele>0.125783</ele>
<time>2026-07-13T10:13:36.000Z</time>
</trkpt>
<trkpt lat="56.361816" lon="8.122715">
<ele>0.121788</ele>
<time>2026-07-13T10:13:37.000Z</time>
</trkpt>
<trkpt lat="56.361866" lon="8.122715">
<ele>0.118020</ele>
<time>2026-07-13T10:13:38.000Z</time>
</trkpt>
<trkpt lat="56.361931" lon="8.122717">
<ele>0.113120</ele>
<time>2026-07-13T10:13:39.000Z</time>
</trkpt>
<trkpt lat="56.361984" lon="8.122719">
<ele>0.109125</ele>
<time>2026-07-13T10:13:40.000Z</time>
</trkpt>
<trkpt lat="56.362045" lon="8.122723">
<ele>0.104524</ele>
<time>2026-07-13T10:13:41.000Z</time>
</trkpt>
<trkpt lat="56.362099" lon="8.122724">
<ele>0.100454</ele>
<time>2026-07-13T10:13:42.000Z</time>
</trkpt>
<trkpt lat="56.362152" lon="8.122726">
<ele>0.096459</ele>
<time>2026-07-13T10:13:43.000Z</time>
</trkpt>
<trkpt lat="56.362206" lon="8.122727">
<ele>0.092388</ele>
<time>2026-07-13T10:13:44.000Z</time>
</trkpt>
<trkpt lat="56.362259" lon="8.122730">
<ele>0.088392</ele>
<time>2026-07-13T10:13:45.000Z</time>
</trkpt>
<trkpt lat="56.362312" lon="8.122730">
<ele>0.084397</ele>
<time>2026-07-13T10:13:46.000Z</time>
</trkpt>
<trkpt lat="56.362370" lon="8.122722">
<ele>0.080013</ele>
<time>2026-07-13T10:13:47.000Z</time>
</trkpt>
<trkpt lat="56.362423" lon="8.122698">
<ele>0.075895</ele>
<time>2026-07-13T10:13:48.000Z</time>
</trkpt>
<trkpt lat="56.362473" lon="8.122666">
<ele>0.071897</ele>
<time>2026-07-13T10:13:49.000Z</time>
</trkpt>
<trkpt lat="56.362526" lon="8.122647">
<ele>0.067824</ele>
<time>2026-07-13T10:13:50.000Z</time>
</trkpt>
<trkpt lat="56.362575" lon="8.122644">
<ele>0.064129</ele>
<time>2026-07-13T10:13:51.000Z</time>
</trkpt>
<trkpt lat="56.362629" lon="8.122647">
<ele>0.060057</ele>
<time>2026-07-13T10:13:52.000Z</time>
</trkpt>
<trkpt lat="56.362682" lon="8.122653">
<ele>0.056055</ele>
<time>2026-07-13T10:13:53.000Z</time>
</trkpt>
<trkpt lat="56.362736" lon="8.122662">
<ele>0.051968</ele>
<time>2026-07-13T10:13:54.000Z</time>
</trkpt>
<trkpt lat="56.362793" lon="8.122670">
<ele>0.047659</ele>
<time>2026-07-13T10:13:55.000Z</time>
</trkpt>
<trkpt lat="56.362846" lon="8.122674">
<ele>0.043661</ele>
<time>2026-07-13T10:13:56.000Z</time>
</trkpt>
<trkpt lat="56.362904" lon="8.122678">
<ele>0.039286</ele>
<time>2026-07-13T10:13:57.000Z</time>
</trkpt>
<trkpt lat="56.362957" lon="8.122679">
<ele>0.035291</ele>
<time>2026-07-13T10:13:58.000Z</time>
</trkpt>
<trkpt lat="56.363014" lon="8.122681">
<ele>0.030994</ele>
<time>2026-07-13T10:13:59.000Z</time>
</trkpt>
<trkpt lat="56.363071" lon="8.122685">
<ele>0.026695</ele>
<time>2026-07-13T10:14:00.000Z</time>
</trkpt>
<trkpt lat="56.363125" lon="8.122685">
<ele>0.022625</ele>
<time>2026-07-13T10:14:01.000Z</time>
</trkpt>
<trkpt lat="56.363182" lon="8.122686">
<ele>0.018329</ele>
<time>2026-07-13T10:14:02.000Z</time>
</trkpt>
<trkpt lat="56.363239" lon="8.122689">
<ele>0.014031</ele>
<time>2026-07-13T10:14:03.000Z</time>
</trkpt>
<trkpt lat="56.363297" lon="8.122691">
<ele>0.009659</ele>
<time>2026-07-13T10:14:04.000Z</time>
</trkpt>
<trkpt lat="56.363354" lon="8.122694">
<ele>0.005361</ele>
<time>2026-07-13T10:14:05.000Z</time>
</trkpt>
<trkpt lat="56.363411" lon="8.122698">
<ele>0.001062</ele>
<time>2026-07-13T10:14:06.000Z</time>
</trkpt>
<trkpt lat="56.363468" lon="8.122699">
<ele>-0.003234</ele>
<time>2026-07-13T10:14:07.000Z</time>
</trkpt>
<trkpt lat="56.363525" lon="8.122702">
<ele>-0.007532</ele>
<time>2026-07-13T10:14:08.000Z</time>
</trkpt>
<trkpt lat="56.363583" lon="8.122705">
<ele>-0.011061</ele>
<time>2026-07-13T10:14:09.000Z</time>
</trkpt>
<trkpt lat="56.363640" lon="8.122707">
<ele>-0.014518</ele>
<time>2026-07-13T10:14:10.000Z</time>
</trkpt>
<trkpt lat="56.363697" lon="8.122709">
<ele>-0.017976</ele>
<time>2026-07-13T10:14:11.000Z</time>
</trkpt>
<trkpt lat="56.363754" lon="8.122711">
<ele>-0.021433</ele>
<time>2026-07-13T10:14:12.000Z</time>
</trkpt>
<trkpt lat="56.363808" lon="8.122713">
<ele>-0.024709</ele>
<time>2026-07-13T10:14:13.000Z</time>
</trkpt>
<trkpt lat="56.363865" lon="8.122716">
<ele>-0.028167</ele>
<time>2026-07-13T10:14:14.000Z</time>
</trkpt>
<trkpt lat="56.363922" lon="8.122718">
<ele>-0.031625</ele>
<time>2026-07-13T10:14:15.000Z</time>
</trkpt>
<trkpt lat="56.363979" lon="8.122721">
<ele>-0.035083</ele>
<time>2026-07-13T10:14:16.000Z</time>
</trkpt>
<trkpt lat="56.364040" lon="8.122724">
<ele>-0.038784</ele>
<time>2026-07-13T10:14:17.000Z</time>
</trkpt>
<trkpt lat="56.364098" lon="8.122727">
<ele>-0.042303</ele>
<time>2026-07-13T10:14:18.000Z</time>
</trkpt>
<trkpt lat="56.364155" lon="8.122731">
<ele>-0.045762</ele>
<time>2026-07-13T10:14:19.000Z</time>
</trkpt>
<trkpt lat="56.364216" lon="8.122734">
<ele>-0.049463</ele>
<time>2026-07-13T10:14:20.000Z</time>
</trkpt>
<trkpt lat="56.364277" lon="8.122738">
<ele>-0.053165</ele>
<time>2026-07-13T10:14:21.000Z</time>
</trkpt>
<trkpt lat="56.364334" lon="8.122741">
<ele>-0.056623</ele>
<time>2026-07-13T10:14:22.000Z</time>
</trkpt>
<trkpt lat="56.364395" lon="8.122743">
<ele>-0.060323</ele>
<time>2026-07-13T10:14:23.000Z</time>
</trkpt>
<trkpt lat="56.364452" lon="8.122746">
<ele>-0.063781</ele>
<time>2026-07-13T10:14:24.000Z</time>
</trkpt>
<trkpt lat="56.364513" lon="8.122747">
<ele>-0.067481</ele>
<time>2026-07-13T10:14:25.000Z</time>
</trkpt>
<trkpt lat="56.364571" lon="8.122749">
<ele>-0.070999</ele>
<time>2026-07-13T10:14:26.000Z</time>
</trkpt>
<trkpt lat="56.364624" lon="8.122751">
<ele>-0.074214</ele>
<time>2026-07-13T10:14:27.000Z</time>
</trkpt>
<trkpt lat="56.364689" lon="8.122754">
<ele>-0.078157</ele>
<time>2026-07-13T10:14:28.000Z</time>
</trkpt>
<trkpt lat="56.364750" lon="8.122756">
<ele>-0.081857</ele>
<time>2026-07-13T10:14:29.000Z</time>
</trkpt>
<trkpt lat="56.364811" lon="8.122759">
<ele>-0.085558</ele>
<time>2026-07-13T10:14:30.000Z</time>
</trkpt>
<trkpt lat="56.364872" lon="8.122763">
<ele>-0.089260</ele>
<time>2026-07-13T10:14:31.000Z</time>
</trkpt>
<trkpt lat="56.364929" lon="8.122766">
<ele>-0.092718</ele>
<time>2026-07-13T10:14:32.000Z</time>
</trkpt>
<trkpt lat="56.364986" lon="8.122767">
<ele>-0.096175</ele>
<time>2026-07-13T10:14:33.000Z</time>
</trkpt>
<trkpt lat="56.365044" lon="8.122771">
<ele>-0.099695</ele>
<time>2026-07-13T10:14:34.000Z</time>
</trkpt>
<trkpt lat="56.365105" lon="8.122774">
<ele>-0.103396</ele>
<time>2026-07-13T10:14:35.000Z</time>
</trkpt>
<trkpt lat="56.365162" lon="8.122778">
<ele>-0.106855</ele>
<time>2026-07-13T10:14:36.000Z</time>
</trkpt>
<trkpt lat="56.365219" lon="8.122781">
<ele>-0.110313</ele>
<time>2026-07-13T10:14:37.000Z</time>
</trkpt>
<trkpt lat="56.365276" lon="8.122783">
<ele>-0.113771</ele>
<time>2026-07-13T10:14:38.000Z</time>
</trkpt>
<trkpt lat="56.365337" lon="8.122784">
<ele>-0.120828</ele>
<time>2026-07-13T10:14:39.000Z</time>
</trkpt>
<trkpt lat="56.365395" lon="8.122786">
<ele>-0.138962</ele>
<time>2026-07-13T10:14:40.000Z</time>
</trkpt>
<trkpt lat="56.365452" lon="8.122789">
<ele>-0.156789</ele>
<time>2026-07-13T10:14:41.000Z</time>
</trkpt>
<trkpt lat="56.365509" lon="8.122792">
<ele>-0.174615</ele>
<time>2026-07-13T10:14:42.000Z</time>
</trkpt>
<trkpt lat="56.365570" lon="8.122797">
<ele>-0.193704</ele>
<time>2026-07-13T10:14:43.000Z</time>
</trkpt>
<trkpt lat="56.365627" lon="8.122802">
<ele>-0.211543</ele>
<time>2026-07-13T10:14:44.000Z</time>
</trkpt>
<trkpt lat="56.365685" lon="8.122808">
<ele>-0.229705</ele>
<time>2026-07-13T10:14:45.000Z</time>
</trkpt>
<trkpt lat="56.365742" lon="8.122823">
<ele>-0.247712</ele>
<time>2026-07-13T10:14:46.000Z</time>
</trkpt>
<trkpt lat="56.365795" lon="8.122847">
<ele>-0.264793</ele>
<time>2026-07-13T10:14:47.000Z</time>
</trkpt>
<trkpt lat="56.365849" lon="8.122876">
<ele>-0.282405</ele>
<time>2026-07-13T10:14:48.000Z</time>
</trkpt>
<trkpt lat="56.365906" lon="8.122902">
<ele>-0.300784</ele>
<time>2026-07-13T10:14:49.000Z</time>
</trkpt>
<trkpt lat="56.365963" lon="8.122920">
<ele>-0.318873</ele>
<time>2026-07-13T10:14:50.000Z</time>
</trkpt>
<trkpt lat="56.366024" lon="8.122932">
<ele>-0.338055</ele>
<time>2026-07-13T10:14:51.000Z</time>
</trkpt>
<trkpt lat="56.366085" lon="8.122941">
<ele>-0.357188</ele>
<time>2026-07-13T10:14:52.000Z</time>
</trkpt>
<trkpt lat="56.366146" lon="8.122950">
<ele>-0.376320</ele>
<time>2026-07-13T10:14:53.000Z</time>
</trkpt>
<trkpt lat="56.366203" lon="8.122956">
<ele>-0.394169</ele>
<time>2026-07-13T10:14:54.000Z</time>
</trkpt>
<trkpt lat="56.366261" lon="8.122964">
<ele>-0.412353</ele>
<time>2026-07-13T10:14:55.000Z</time>
</trkpt>
<trkpt lat="56.366322" lon="8.122971">
<ele>-0.431461</ele>
<time>2026-07-13T10:14:56.000Z</time>
</trkpt>
<trkpt lat="56.366383" lon="8.122977">
<ele>-0.450558</ele>
<time>2026-07-13T10:14:57.000Z</time>
</trkpt>
<trkpt lat="56.366444" lon="8.122984">
<ele>-0.469666</ele>
<time>2026-07-13T10:14:58.000Z</time>
</trkpt>
<trkpt lat="56.366501" lon="8.122989">
<ele>-0.487506</ele>
<time>2026-07-13T10:14:59.000Z</time>
</trkpt>
<trkpt lat="56.366562" lon="8.122993">
<ele>-0.506588</ele>
<time>2026-07-13T10:15:00.000Z</time>
</trkpt>
<trkpt lat="56.366619" lon="8.122998">
<ele>-0.524427</ele>
<time>2026-07-13T10:15:01.000Z</time>
</trkpt>
<trkpt lat="56.366680" lon="8.123003">
<ele>-0.543516</ele>
<time>2026-07-13T10:15:02.000Z</time>
</trkpt>
<trkpt lat="56.366737" lon="8.123006">
<ele>-0.561342</ele>
<time>2026-07-13T10:15:03.000Z</time>
</trkpt>
<trkpt lat="56.366798" lon="8.123006">
<ele>-0.580412</ele>
<time>2026-07-13T10:15:04.000Z</time>
</trkpt>
<trkpt lat="56.366856" lon="8.123008">
<ele>-0.598546</ele>
<time>2026-07-13T10:15:05.000Z</time>
</trkpt>
<trkpt lat="56.366913" lon="8.123020">
<ele>-0.616486</ele>
<time>2026-07-13T10:15:06.000Z</time>
</trkpt>
<trkpt lat="56.366962" lon="8.123054">
<ele>-0.632896</ele>
<time>2026-07-13T10:15:07.000Z</time>
</trkpt>
<trkpt lat="56.367001" lon="8.123115">
<ele>-0.649026</ele>
<time>2026-07-13T10:15:08.000Z</time>
</trkpt>
<trkpt lat="56.367031" lon="8.123195">
<ele>-0.665754</ele>
<time>2026-07-13T10:15:09.000Z</time>
</trkpt>
<trkpt lat="56.367050" lon="8.123281">
<ele>-0.678208</ele>
<time>2026-07-13T10:15:10.000Z</time>
</trkpt>
<trkpt lat="56.367069" lon="8.123367">
<ele>-0.674124</ele>
<time>2026-07-13T10:15:11.000Z</time>
</trkpt>
<trkpt lat="56.367088" lon="8.123453">
<ele>-0.670040</ele>
<time>2026-07-13T10:15:12.000Z</time>
</trkpt>
<trkpt lat="56.367107" lon="8.123527">
<ele>-0.666442</ele>
<time>2026-07-13T10:15:13.000Z</time>
</trkpt>
<trkpt lat="56.367138" lon="8.123574">
<ele>-0.663219</ele>
<time>2026-07-13T10:15:14.000Z</time>
</trkpt>
<trkpt lat="56.367180" lon="8.123594">
<ele>-0.659759</ele>
<time>2026-07-13T10:15:15.000Z</time>
</trkpt>
<trkpt lat="56.367222" lon="8.123601">
<ele>-0.656400</ele>
<time>2026-07-13T10:15:16.000Z</time>
</trkpt>
<trkpt lat="56.367260" lon="8.123603">
<ele>-0.653373</ele>
<time>2026-07-13T10:15:17.000Z</time>
</trkpt>
<trkpt lat="56.367302" lon="8.123607">
<ele>-0.650023</ele>
<time>2026-07-13T10:15:18.000Z</time>
</trkpt>
<trkpt lat="56.367344" lon="8.123614">
<ele>-0.646664</ele>
<time>2026-07-13T10:15:19.000Z</time>
</trkpt>
<trkpt lat="56.367382" lon="8.123621">
<ele>-0.643622</ele>
<time>2026-07-13T10:15:20.000Z</time>
</trkpt>
<trkpt lat="56.367424" lon="8.123627">
<ele>-0.640267</ele>
<time>2026-07-13T10:15:21.000Z</time>
</trkpt>
<trkpt lat="56.367466" lon="8.123630">
<ele>-0.636920</ele>
<time>2026-07-13T10:15:22.000Z</time>
</trkpt>
<trkpt lat="56.367508" lon="8.123636">
<ele>-0.633564</ele>
<time>2026-07-13T10:15:23.000Z</time>
</trkpt>
<trkpt lat="56.367554" lon="8.123647">
<ele>-0.629869</ele>
<time>2026-07-13T10:15:24.000Z</time>
</trkpt>
<trkpt lat="56.367600" lon="8.123657">
<ele>-0.626179</ele>
<time>2026-07-13T10:15:25.000Z</time>
</trkpt>
<trkpt lat="56.367649" lon="8.123662">
<ele>-0.622271</ele>
<time>2026-07-13T10:15:26.000Z</time>
</trkpt>
<trkpt lat="56.367695" lon="8.123664">
<ele>-0.618606</ele>
<time>2026-07-13T10:15:27.000Z</time>
</trkpt>
<trkpt lat="56.367744" lon="8.123668">
<ele>-0.614700</ele>
<time>2026-07-13T10:15:28.000Z</time>
</trkpt>
<trkpt lat="56.367794" lon="8.123672">
<ele>-0.610714</ele>
<time>2026-07-13T10:15:29.000Z</time>
</trkpt>
<trkpt lat="56.367847" lon="8.123676">
<ele>-0.606490</ele>
<time>2026-07-13T10:15:30.000Z</time>
</trkpt>
<trkpt lat="56.367901" lon="8.123679">
<ele>-0.602187</ele>
<time>2026-07-13T10:15:31.000Z</time>
</trkpt>
<trkpt lat="56.367954" lon="8.123682">
<ele>-0.597964</ele>
<time>2026-07-13T10:15:32.000Z</time>
</trkpt>
<trkpt lat="56.368000" lon="8.123684">
<ele>-0.594300</ele>
<time>2026-07-13T10:15:33.000Z</time>
</trkpt>
<trkpt lat="56.368053" lon="8.123687">
<ele>-0.590077</ele>
<time>2026-07-13T10:15:34.000Z</time>
</trkpt>
<trkpt lat="56.368103" lon="8.123693">
<ele>-0.586086</ele>
<time>2026-07-13T10:15:35.000Z</time>
</trkpt>
<trkpt lat="56.368153" lon="8.123697">
<ele>-0.582100</ele>
<time>2026-07-13T10:15:36.000Z</time>
</trkpt>
<trkpt lat="56.368202" lon="8.123701">
<ele>-0.578194</ele>
<time>2026-07-13T10:15:37.000Z</time>
</trkpt>
<trkpt lat="56.368252" lon="8.123705">
<ele>-0.574208</ele>
<time>2026-07-13T10:15:38.000Z</time>
</trkpt>
<trkpt lat="56.368301" lon="8.123709">
<ele>-0.570302</ele>
<time>2026-07-13T10:15:39.000Z</time>
</trkpt>
<trkpt lat="56.368359" lon="8.123709">
<ele>-0.565683</ele>
<time>2026-07-13T10:15:40.000Z</time>
</trkpt>
<trkpt lat="56.368408" lon="8.123706">
<ele>-0.561778</ele>
<time>2026-07-13T10:15:41.000Z</time>
</trkpt>
<trkpt lat="56.368454" lon="8.123700">
<ele>-0.558106</ele>
<time>2026-07-13T10:15:42.000Z</time>
</trkpt>
<trkpt lat="56.368504" lon="8.123692">
<ele>-0.554108</ele>
<time>2026-07-13T10:15:43.000Z</time>
</trkpt>
<trkpt lat="56.368557" lon="8.123677">
<ele>-0.549836</ele>
<time>2026-07-13T10:15:44.000Z</time>
</trkpt>
<trkpt lat="56.368610" lon="8.123659">
<ele>-0.545541</ele>
<time>2026-07-13T10:15:45.000Z</time>
</trkpt>
<trkpt lat="56.368660" lon="8.123635">
<ele>-0.541421</ele>
<time>2026-07-13T10:15:46.000Z</time>
</trkpt>
<trkpt lat="56.368710" lon="8.123609">
<ele>-0.537277</ele>
<time>2026-07-13T10:15:47.000Z</time>
</trkpt>
<trkpt lat="56.368763" lon="8.123580">
<ele>-0.532541</ele>
<time>2026-07-13T10:15:48.000Z</time>
</trkpt>
<trkpt lat="56.368809" lon="8.123549">
<ele>-0.528180</ele>
<time>2026-07-13T10:15:49.000Z</time>
</trkpt>
<trkpt lat="56.368858" lon="8.123515">
<ele>-0.523517</ele>
<time>2026-07-13T10:15:50.000Z</time>
</trkpt>
<trkpt lat="56.368908" lon="8.123474">
<ele>-0.518640</ele>
<time>2026-07-13T10:15:51.000Z</time>
</trkpt>
<trkpt lat="56.368954" lon="8.123426">
<ele>-0.513921</ele>
<time>2026-07-13T10:15:52.000Z</time>
</trkpt>
<trkpt lat="56.368999" lon="8.123378">
<ele>-0.509279</ele>
<time>2026-07-13T10:15:53.000Z</time>
</trkpt>
<trkpt lat="56.369041" lon="8.123328">
<ele>-0.504810</ele>
<time>2026-07-13T10:15:54.000Z</time>
</trkpt>
<trkpt lat="56.369091" lon="8.123269">
<ele>-0.499505</ele>
<time>2026-07-13T10:15:55.000Z</time>
</trkpt>
<trkpt lat="56.369133" lon="8.123212">
<ele>-0.494838</ele>
<time>2026-07-13T10:15:56.000Z</time>
</trkpt>
<trkpt lat="56.369175" lon="8.123153">
<ele>-0.490112</ele>
<time>2026-07-13T10:15:57.000Z</time>
</trkpt>
<trkpt lat="56.369217" lon="8.123094">
<ele>-0.485386</ele>
<time>2026-07-13T10:15:58.000Z</time>
</trkpt>
<trkpt lat="56.369263" lon="8.123034">
<ele>-0.480345</ele>
<time>2026-07-13T10:15:59.000Z</time>
</trkpt>
<trkpt lat="56.369305" lon="8.122975">
<ele>-0.475619</ele>
<time>2026-07-13T10:16:00.000Z</time>
</trkpt>
<trkpt lat="56.369347" lon="8.122917">
<ele>-0.470923</ele>
<time>2026-07-13T10:16:01.000Z</time>
</trkpt>
<trkpt lat="56.369389" lon="8.122861">
<ele>-0.466285</ele>
<time>2026-07-13T10:16:02.000Z</time>
</trkpt>
<trkpt lat="56.369431" lon="8.122804">
<ele>-0.461619</ele>
<time>2026-07-13T10:16:03.000Z</time>
</trkpt>
<trkpt lat="56.369476" lon="8.122747">
<ele>-0.456736</ele>
<time>2026-07-13T10:16:04.000Z</time>
</trkpt>
<trkpt lat="56.369518" lon="8.122691">
<ele>-0.452099</ele>
<time>2026-07-13T10:16:05.000Z</time>
</trkpt>
<trkpt lat="56.369560" lon="8.122632">
<ele>-0.447373</ele>
<time>2026-07-13T10:16:06.000Z</time>
</trkpt>
<trkpt lat="56.369606" lon="8.122573">
<ele>-0.442361</ele>
<time>2026-07-13T10:16:07.000Z</time>
</trkpt>
<trkpt lat="56.369648" lon="8.122514">
<ele>-0.437635</ele>
<time>2026-07-13T10:16:08.000Z</time>
</trkpt>
<trkpt lat="56.369690" lon="8.122455">
<ele>-0.432908</ele>
<time>2026-07-13T10:16:09.000Z</time>
</trkpt>
<trkpt lat="56.369728" lon="8.122398">
<ele>-0.428521</ele>
<time>2026-07-13T10:16:10.000Z</time>
</trkpt>
<trkpt lat="56.369770" lon="8.122348">
<ele>-0.424052</ele>
<time>2026-07-13T10:16:11.000Z</time>
</trkpt>
<trkpt lat="56.369816" lon="8.122288">
<ele>-0.419012</ele>
<time>2026-07-13T10:16:12.000Z</time>
</trkpt>
<trkpt lat="56.369862" lon="8.122233">
<ele>-0.414112</ele>
<time>2026-07-13T10:16:13.000Z</time>
</trkpt>
<trkpt lat="56.369904" lon="8.122178">
<ele>-0.409504</ele>
<time>2026-07-13T10:16:14.000Z</time>
</trkpt>
<trkpt lat="56.369949" lon="8.122130">
<ele>-0.404862</ele>
<time>2026-07-13T10:16:15.000Z</time>
</trkpt>
<trkpt lat="56.369999" lon="8.122094">
<ele>-0.400081</ele>
<time>2026-07-13T10:16:16.000Z</time>
</trkpt>
<trkpt lat="56.370052" lon="8.122068">
<ele>-0.395203</ele>
<time>2026-07-13T10:16:17.000Z</time>
</trkpt>
<trkpt lat="56.370102" lon="8.122054">
<ele>-0.390709</ele>
<time>2026-07-13T10:16:18.000Z</time>
</trkpt>
<trkpt lat="56.370155" lon="8.122050">
<ele>-0.385997</ele>
<time>2026-07-13T10:16:19.000Z</time>
</trkpt>
<trkpt lat="56.370205" lon="8.122054">
<ele>-0.381552</ele>
<time>2026-07-13T10:16:20.000Z</time>
</trkpt>
<trkpt lat="56.370254" lon="8.122069">
<ele>-0.377138</ele>
<time>2026-07-13T10:16:21.000Z</time>
</trkpt>
<trkpt lat="56.370308" lon="8.122090">
<ele>-0.316019</ele>
<time>2026-07-13T10:16:22.000Z</time>
</trkpt>
<trkpt lat="56.370358" lon="8.122113">
<ele>-0.241980</ele>
<time>2026-07-13T10:16:23.000Z</time>
</trkpt>
<trkpt lat="56.370407" lon="8.122137">
<ele>-0.169126</ele>
<time>2026-07-13T10:16:24.000Z</time>
</trkpt>
<trkpt lat="56.370457" lon="8.122164">
<ele>-0.094239</ele>
<time>2026-07-13T10:16:25.000Z</time>
</trkpt>
<trkpt lat="56.370510" lon="8.122186">
<ele>-0.016203</ele>
<time>2026-07-13T10:16:26.000Z</time>
</trkpt>
<trkpt lat="56.370560" lon="8.122201">
<ele>0.056528</ele>
<time>2026-07-13T10:16:27.000Z</time>
</trkpt>
<trkpt lat="56.370609" lon="8.122211">
<ele>0.127289</ele>
<time>2026-07-13T10:16:28.000Z</time>
</trkpt>
<trkpt lat="56.370659" lon="8.122211">
<ele>0.199036</ele>
<time>2026-07-13T10:16:29.000Z</time>
</trkpt>
<trkpt lat="56.370708" lon="8.122199">
<ele>0.269992</ele>
<time>2026-07-13T10:16:30.000Z</time>
</trkpt>
<trkpt lat="56.370754" lon="8.122176">
<ele>0.338484</ele>
<time>2026-07-13T10:16:31.000Z</time>
</trkpt>
<trkpt lat="56.370800" lon="8.122145">
<ele>0.408939</ele>
<time>2026-07-13T10:16:32.000Z</time>
</trkpt>
<trkpt lat="56.370842" lon="8.122108">
<ele>0.475998</ele>
<time>2026-07-13T10:16:33.000Z</time>
</trkpt>
<trkpt lat="56.370880" lon="8.122068">
<ele>0.539115</ele>
<time>2026-07-13T10:16:34.000Z</time>
</trkpt>
<trkpt lat="56.370926" lon="8.122011">
<ele>0.619170</ele>
<time>2026-07-13T10:16:35.000Z</time>
</trkpt>
<trkpt lat="56.370964" lon="8.121959">
<ele>0.687588</ele>
<time>2026-07-13T10:16:36.000Z</time>
</trkpt>
<trkpt lat="56.371002" lon="8.121905">
<ele>0.756978</ele>
<time>2026-07-13T10:16:37.000Z</time>
</trkpt>
<trkpt lat="56.371040" lon="8.121847">
<ele>0.828377</ele>
<time>2026-07-13T10:16:38.000Z</time>
</trkpt>
<trkpt lat="56.371079" lon="8.121791">
<ele>0.899877</ele>
<time>2026-07-13T10:16:39.000Z</time>
</trkpt>
<trkpt lat="56.371117" lon="8.121737">
<ele>0.969267</ele>
<time>2026-07-13T10:16:40.000Z</time>
</trkpt>
<trkpt lat="56.371151" lon="8.121684">
<ele>1.033720</ele>
<time>2026-07-13T10:16:41.000Z</time>
</trkpt>
<trkpt lat="56.371189" lon="8.121631">
<ele>1.102621</ele>
<time>2026-07-13T10:16:42.000Z</time>
</trkpt>
<trkpt lat="56.371227" lon="8.121580">
<ele>1.170562</ele>
<time>2026-07-13T10:16:43.000Z</time>
</trkpt>
<trkpt lat="56.371262" lon="8.121538">
<ele>1.230864</ele>
<time>2026-07-13T10:16:44.000Z</time>
</trkpt>
<trkpt lat="56.371300" lon="8.121505">
<ele>1.291371</ele>
<time>2026-07-13T10:16:45.000Z</time>
</trkpt>
<trkpt lat="56.371334" lon="8.121473">
<ele>1.346389</ele>
<time>2026-07-13T10:16:46.000Z</time>
</trkpt>
<trkpt lat="56.371368" lon="8.121439">
<ele>1.402159</ele>
<time>2026-07-13T10:16:47.000Z</time>
</trkpt>
<trkpt lat="56.371403" lon="8.121398">
<ele>1.462026</ele>
<time>2026-07-13T10:16:48.000Z</time>
</trkpt>
<trkpt lat="56.371429" lon="8.121345">
<ele>1.518292</ele>
<time>2026-07-13T10:16:49.000Z</time>
</trkpt>
<trkpt lat="56.371445" lon="8.121285">
<ele>1.571213</ele>
<time>2026-07-13T10:16:50.000Z</time>
</trkpt>
<trkpt lat="56.371456" lon="8.121221">
<ele>1.624466</ele>
<time>2026-07-13T10:16:51.000Z</time>
</trkpt>
<trkpt lat="56.371464" lon="8.121162">
<ele>1.672737</ele>
<time>2026-07-13T10:16:52.000Z</time>
</trkpt>
<trkpt lat="56.371475" lon="8.121107">
<ele>1.719207</ele>
<time>2026-07-13T10:16:53.000Z</time>
</trkpt>
<trkpt lat="56.371494" lon="8.121061">
<ele>1.764810</ele>
<time>2026-07-13T10:16:54.000Z</time>
</trkpt>
<trkpt lat="56.371525" lon="8.121029">
<ele>1.816050</ele>
<time>2026-07-13T10:16:55.000Z</time>
</trkpt>
<trkpt lat="56.371552" lon="8.121010">
<ele>1.857631</ele>
<time>2026-07-13T10:16:56.000Z</time>
</trkpt>
<trkpt lat="56.371594" lon="8.121006">
<ele>1.917983</ele>
<time>2026-07-13T10:16:57.000Z</time>
</trkpt>
<trkpt lat="56.371632" lon="8.121009">
<ele>1.972563</ele>
<time>2026-07-13T10:16:58.000Z</time>
</trkpt>
<trkpt lat="56.371674" lon="8.121014">
<ele>2.032962</ele>
<time>2026-07-13T10:16:59.000Z</time>
</trkpt>
<trkpt lat="56.371719" lon="8.121017">
<ele>2.097579</ele>
<time>2026-07-13T10:17:00.000Z</time>
</trkpt>
<trkpt lat="56.371765" lon="8.121021">
<ele>2.163663</ele>
<time>2026-07-13T10:17:01.000Z</time>
</trkpt>
<trkpt lat="56.371819" lon="8.121024">
<ele>2.178251</ele>
<time>2026-07-13T10:17:02.000Z</time>
</trkpt>
<trkpt lat="56.371872" lon="8.121028">
<ele>2.121900</ele>
<time>2026-07-13T10:17:03.000Z</time>
</trkpt>
<trkpt lat="56.371922" lon="8.121031">
<ele>2.068755</ele>
<time>2026-07-13T10:17:04.000Z</time>
</trkpt>
<trkpt lat="56.371975" lon="8.121036">
<ele>2.012376</ele>
<time>2026-07-13T10:17:05.000Z</time>
</trkpt>
<trkpt lat="56.372028" lon="8.121039">
<ele>1.956046</ele>
<time>2026-07-13T10:17:06.000Z</time>
</trkpt>
<trkpt lat="56.372078" lon="8.121042">
<ele>1.902901</ele>
<time>2026-07-13T10:17:07.000Z</time>
</trkpt>
<trkpt lat="56.372131" lon="8.121046">
<ele>1.846549</ele>
<time>2026-07-13T10:17:08.000Z</time>
</trkpt>
<trkpt lat="56.372185" lon="8.121049">
<ele>1.789157</ele>
<time>2026-07-13T10:17:09.000Z</time>
</trkpt>
<trkpt lat="56.372238" lon="8.121054">
<ele>1.732778</ele>
<time>2026-07-13T10:17:10.000Z</time>
</trkpt>
<trkpt lat="56.372292" lon="8.121058">
<ele>1.675365</ele>
<time>2026-07-13T10:17:11.000Z</time>
</trkpt>
<trkpt lat="56.372345" lon="8.121062">
<ele>1.619013</ele>
<time>2026-07-13T10:17:12.000Z</time>
</trkpt>
<trkpt lat="56.372398" lon="8.121064">
<ele>1.562699</ele>
<time>2026-07-13T10:17:13.000Z</time>
</trkpt>
<trkpt lat="56.372452" lon="8.121069">
<ele>1.505259</ele>
<time>2026-07-13T10:17:14.000Z</time>
</trkpt>
<trkpt lat="56.372505" lon="8.121075">
<ele>1.448846</ele>
<time>2026-07-13T10:17:15.000Z</time>
</trkpt>
<trkpt lat="56.372562" lon="8.121078">
<ele>1.388268</ele>
<time>2026-07-13T10:17:16.000Z</time>
</trkpt>
<trkpt lat="56.372616" lon="8.121081">
<ele>1.330876</ele>
<time>2026-07-13T10:17:17.000Z</time>
</trkpt>
<trkpt lat="56.372669" lon="8.121084">
<ele>1.274546</ele>
<time>2026-07-13T10:17:18.000Z</time>
</trkpt>
<trkpt lat="56.372723" lon="8.121088">
<ele>1.217133</ele>
<time>2026-07-13T10:17:19.000Z</time>
</trkpt>
<trkpt lat="56.372772" lon="8.121091">
<ele>1.165050</ele>
<time>2026-07-13T10:17:20.000Z</time>
</trkpt>
<trkpt lat="56.372822" lon="8.121095">
<ele>1.111882</ele>
<time>2026-07-13T10:17:21.000Z</time>
</trkpt>
<trkpt lat="56.372868" lon="8.121106">
<ele>1.062589</ele>
<time>2026-07-13T10:17:22.000Z</time>
</trkpt>
<trkpt lat="56.372910" lon="8.121127">
<ele>1.016294</ele>
<time>2026-07-13T10:17:23.000Z</time>
</trkpt>
<trkpt lat="56.372944" lon="8.121148">
<ele>0.978121</ele>
<time>2026-07-13T10:17:24.000Z</time>
</trkpt>
<trkpt lat="56.372974" lon="8.121159">
<ele>0.945601</ele>
<time>2026-07-13T10:17:25.000Z</time>
</trkpt>
<trkpt lat="56.372993" lon="8.121157">
<ele>0.925383</ele>
<time>2026-07-13T10:17:26.000Z</time>
</trkpt>
<trkpt lat="56.373005" lon="8.121149">
<ele>0.911794</ele>
<time>2026-07-13T10:17:27.000Z</time>
</trkpt>
<trkpt lat="56.373028" lon="8.121102">
<ele>0.874896</ele>
<time>2026-07-13T10:18:24.000Z</time>
</trkpt>
<trkpt lat="56.373047" lon="8.121101">
<ele>0.854703</ele>
<time>2026-07-13T10:18:25.000Z</time>
</trkpt>
<trkpt lat="56.373070" lon="8.121103">
<ele>0.830242</ele>
<time>2026-07-13T10:18:26.000Z</time>
</trkpt>
<trkpt lat="56.373100" lon="8.121108">
<ele>0.798237</ele>
<time>2026-07-13T10:18:27.000Z</time>
</trkpt>
<trkpt lat="56.373138" lon="8.121111">
<ele>0.757831</ele>
<time>2026-07-13T10:18:28.000Z</time>
</trkpt>
<trkpt lat="56.373177" lon="8.121114">
<ele>0.716363</ele>
<time>2026-07-13T10:18:29.000Z</time>
</trkpt>
<trkpt lat="56.373219" lon="8.121116">
<ele>0.671731</ele>
<time>2026-07-13T10:18:30.000Z</time>
</trkpt>
<trkpt lat="56.373264" lon="8.121120">
<ele>0.623869</ele>
<time>2026-07-13T10:18:31.000Z</time>
</trkpt>
<trkpt lat="56.373314" lon="8.121121">
<ele>0.570750</ele>
<time>2026-07-13T10:18:32.000Z</time>
</trkpt>
<trkpt lat="56.373364" lon="8.121126">
<ele>0.517553</ele>
<time>2026-07-13T10:18:33.000Z</time>
</trkpt>
<trkpt lat="56.373413" lon="8.121133">
<ele>0.465337</ele>
<time>2026-07-13T10:18:34.000Z</time>
</trkpt>
<trkpt lat="56.373463" lon="8.121141">
<ele>0.412014</ele>
<time>2026-07-13T10:18:35.000Z</time>
</trkpt>
<trkpt lat="56.373520" lon="8.121147">
<ele>0.351359</ele>
<time>2026-07-13T10:18:36.000Z</time>
</trkpt>
<trkpt lat="56.373573" lon="8.121154">
<ele>0.294906</ele>
<time>2026-07-13T10:18:37.000Z</time>
</trkpt>
<trkpt lat="56.373631" lon="8.121159">
<ele>0.268739</ele>
<time>2026-07-13T10:18:38.000Z</time>
</trkpt>
<trkpt lat="56.373688" lon="8.121164">
<ele>0.243364</ele>
<time>2026-07-13T10:18:39.000Z</time>
</trkpt>
<trkpt lat="56.373745" lon="8.121167">
<ele>0.218009</ele>
<time>2026-07-13T10:18:40.000Z</time>
</trkpt>
<trkpt lat="56.373802" lon="8.121169">
<ele>0.192660</ele>
<time>2026-07-13T10:18:41.000Z</time>
</trkpt>
<trkpt lat="56.373859" lon="8.121164">
<ele>0.167285</ele>
<time>2026-07-13T10:18:42.000Z</time>
</trkpt>
<trkpt lat="56.373917" lon="8.121157">
<ele>0.141439</ele>
<time>2026-07-13T10:18:43.000Z</time>
</trkpt>
<trkpt lat="56.373974" lon="8.121147">
<ele>0.115975</ele>
<time>2026-07-13T10:18:44.000Z</time>
</trkpt>
<trkpt lat="56.374027" lon="8.121135">
<ele>0.092224</ele>
<time>2026-07-13T10:18:45.000Z</time>
</trkpt>
<trkpt lat="56.374084" lon="8.121121">
<ele>0.066646</ele>
<time>2026-07-13T10:18:46.000Z</time>
</trkpt>
<trkpt lat="56.374142" lon="8.121104">
<ele>0.040520</ele>
<time>2026-07-13T10:18:47.000Z</time>
</trkpt>
<trkpt lat="56.374199" lon="8.121086">
<ele>0.014791</ele>
<time>2026-07-13T10:18:48.000Z</time>
</trkpt>
<trkpt lat="56.374252" lon="8.121065">
<ele>-0.009336</ele>
<time>2026-07-13T10:18:49.000Z</time>
</trkpt>
<trkpt lat="56.374310" lon="8.121042">
<ele>-0.035740</ele>
<time>2026-07-13T10:18:50.000Z</time>
</trkpt>
<trkpt lat="56.374363" lon="8.121021">
<ele>-0.059866</ele>
<time>2026-07-13T10:18:51.000Z</time>
</trkpt>
<trkpt lat="56.374420" lon="8.121000">
<ele>-0.085733</ele>
<time>2026-07-13T10:18:52.000Z</time>
</trkpt>
<trkpt lat="56.374477" lon="8.120980">
<ele>-0.111551</ele>
<time>2026-07-13T10:18:53.000Z</time>
</trkpt>
<trkpt lat="56.374535" lon="8.120960">
<ele>-0.137806</ele>
<time>2026-07-13T10:18:54.000Z</time>
</trkpt>
<trkpt lat="56.374596" lon="8.120940">
<ele>-0.165373</ele>
<time>2026-07-13T10:18:55.000Z</time>
</trkpt>
<trkpt lat="56.374657" lon="8.120922">
<ele>-0.192856</ele>
<time>2026-07-13T10:18:56.000Z</time>
</trkpt>
<trkpt lat="56.374714" lon="8.120902">
<ele>-0.218674</ele>
<time>2026-07-13T10:18:57.000Z</time>
</trkpt>
<trkpt lat="56.374775" lon="8.120880">
<ele>-0.246333</ele>
<time>2026-07-13T10:18:58.000Z</time>
</trkpt>
<trkpt lat="56.374832" lon="8.120856">
<ele>-0.272357</ele>
<time>2026-07-13T10:18:59.000Z</time>
</trkpt>
<trkpt lat="56.374893" lon="8.120834">
<ele>-0.300016</ele>
<time>2026-07-13T10:19:00.000Z</time>
</trkpt>
<trkpt lat="56.374958" lon="8.120814">
<ele>-0.329334</ele>
<time>2026-07-13T10:19:01.000Z</time>
</trkpt>
<trkpt lat="56.375019" lon="8.120791">
<ele>-0.357042</ele>
<time>2026-07-13T10:19:02.000Z</time>
</trkpt>
<trkpt lat="56.375080" lon="8.120768">
<ele>-0.384750</ele>
<time>2026-07-13T10:19:03.000Z</time>
</trkpt>
<trkpt lat="56.375137" lon="8.120743">
<ele>-0.410832</ele>
<time>2026-07-13T10:19:04.000Z</time>
</trkpt>
<trkpt lat="56.375198" lon="8.120722">
<ele>-0.438443</ele>
<time>2026-07-13T10:19:05.000Z</time>
</trkpt>
<trkpt lat="56.375256" lon="8.120703">
<ele>-0.464653</ele>
<time>2026-07-13T10:19:06.000Z</time>
</trkpt>
<trkpt lat="56.375317" lon="8.120684">
<ele>-0.492177</ele>
<time>2026-07-13T10:19:07.000Z</time>
</trkpt>
<trkpt lat="56.375374" lon="8.120666">
<ele>-0.512888</ele>
<time>2026-07-13T10:19:08.000Z</time>
</trkpt>
<trkpt lat="56.375431" lon="8.120646">
<ele>-0.528310</ele>
<time>2026-07-13T10:19:09.000Z</time>
</trkpt>
<trkpt lat="56.375496" lon="8.120623">
<ele>-0.545903</ele>
<time>2026-07-13T10:19:10.000Z</time>
</trkpt>
<trkpt lat="56.375557" lon="8.120601">
<ele>-0.562424</ele>
<time>2026-07-13T10:19:11.000Z</time>
</trkpt>
<trkpt lat="56.375614" lon="8.120579">
<ele>-0.577905</ele>
<time>2026-07-13T10:19:12.000Z</time>
</trkpt>
<trkpt lat="56.375675" lon="8.120560">
<ele>-0.594346</ele>
<time>2026-07-13T10:19:13.000Z</time>
</trkpt>
<trkpt lat="56.375736" lon="8.120539">
<ele>-0.610839</ele>
<time>2026-07-13T10:19:14.000Z</time>
</trkpt>
<trkpt lat="56.375793" lon="8.120518">
<ele>-0.626290</ele>
<time>2026-07-13T10:19:15.000Z</time>
</trkpt>
<trkpt lat="56.375855" lon="8.120499">
<ele>-0.642993</ele>
<time>2026-07-13T10:19:16.000Z</time>
</trkpt>
<trkpt lat="56.375912" lon="8.120480">
<ele>-0.658388</ele>
<time>2026-07-13T10:19:17.000Z</time>
</trkpt>
<trkpt lat="56.375969" lon="8.120461">
<ele>-0.673783</ele>
<time>2026-07-13T10:19:18.000Z</time>
</trkpt>
<trkpt lat="56.376030" lon="8.120441">
<ele>-0.690249</ele>
<time>2026-07-13T10:19:19.000Z</time>
</trkpt>
<trkpt lat="56.376095" lon="8.120420">
<ele>-0.707787</ele>
<time>2026-07-13T10:19:20.000Z</time>
</trkpt>
<trkpt lat="56.376152" lon="8.120398">
<ele>-0.723268</ele>
<time>2026-07-13T10:19:21.000Z</time>
</trkpt>
<trkpt lat="56.376213" lon="8.120373">
<ele>-0.739882</ele>
<time>2026-07-13T10:19:22.000Z</time>
</trkpt>
<trkpt lat="56.376270" lon="8.120352">
<ele>-0.755333</ele>
<time>2026-07-13T10:19:23.000Z</time>
</trkpt>
<trkpt lat="56.376331" lon="8.120332">
<ele>-0.771799</ele>
<time>2026-07-13T10:19:24.000Z</time>
</trkpt>
<trkpt lat="56.376389" lon="8.120311">
<ele>-0.787511</ele>
<time>2026-07-13T10:19:25.000Z</time>
</trkpt>
<trkpt lat="56.376446" lon="8.120292">
<ele>-0.802906</ele>
<time>2026-07-13T10:19:26.000Z</time>
</trkpt>
<trkpt lat="56.376503" lon="8.120276">
<ele>-0.818227</ele>
<time>2026-07-13T10:19:27.000Z</time>
</trkpt>
<trkpt lat="56.376556" lon="8.120261">
<ele>-0.832475</ele>
<time>2026-07-13T10:19:28.000Z</time>
</trkpt>
<trkpt lat="56.376614" lon="8.120243">
<ele>-0.848106</ele>
<time>2026-07-13T10:19:29.000Z</time>
</trkpt>
<trkpt lat="56.376675" lon="8.120228">
<ele>-0.864457</ele>
<time>2026-07-13T10:19:30.000Z</time>
</trkpt>
<trkpt lat="56.376736" lon="8.120217">
<ele>-0.880739</ele>
<time>2026-07-13T10:19:31.000Z</time>
</trkpt>
<trkpt lat="56.376797" lon="8.120209">
<ele>-0.896983</ele>
<time>2026-07-13T10:19:32.000Z</time>
</trkpt>
<trkpt lat="56.376854" lon="8.120201">
<ele>-0.912168</ele>
<time>2026-07-13T10:19:33.000Z</time>
</trkpt>
<trkpt lat="56.376907" lon="8.120194">
<ele>-0.926283</ele>
<time>2026-07-13T10:19:34.000Z</time>
</trkpt>
<trkpt lat="56.376972" lon="8.120186">
<ele>-0.943587</ele>
<time>2026-07-13T10:19:35.000Z</time>
</trkpt>
<trkpt lat="56.377033" lon="8.120177">
<ele>-0.959842</ele>
<time>2026-07-13T10:19:36.000Z</time>
</trkpt>
<trkpt lat="56.377090" lon="8.120170">
<ele>-0.975016</ele>
<time>2026-07-13T10:19:37.000Z</time>
</trkpt>
<trkpt lat="56.377148" lon="8.120164">
<ele>-0.983366</ele>
<time>2026-07-13T10:19:38.000Z</time>
</trkpt>
<trkpt lat="56.377205" lon="8.120160">
<ele>-0.983787</ele>
<time>2026-07-13T10:19:39.000Z</time>
</trkpt>
<trkpt lat="56.377270" lon="8.120154">
<ele>-0.984267</ele>
<time>2026-07-13T10:19:40.000Z</time>
</trkpt>
<trkpt lat="56.377331" lon="8.120150">
<ele>-0.984717</ele>
<time>2026-07-13T10:19:41.000Z</time>
</trkpt>
<trkpt lat="56.377392" lon="8.120145">
<ele>-0.985168</ele>
<time>2026-07-13T10:19:42.000Z</time>
</trkpt>
<trkpt lat="56.377449" lon="8.120138">
<ele>-0.985589</ele>
<time>2026-07-13T10:19:43.000Z</time>
</trkpt>
<trkpt lat="56.377510" lon="8.120132">
<ele>-0.986040</ele>
<time>2026-07-13T10:19:44.000Z</time>
</trkpt>
<trkpt lat="56.377571" lon="8.120126">
<ele>-0.986491</ele>
<time>2026-07-13T10:19:45.000Z</time>
</trkpt>
<trkpt lat="56.377628" lon="8.120118">
<ele>-0.986913</ele>
<time>2026-07-13T10:19:46.000Z</time>
</trkpt>
<trkpt lat="56.377689" lon="8.120113">
<ele>-0.987363</ele>
<time>2026-07-13T10:19:47.000Z</time>
</trkpt>
<trkpt lat="56.377747" lon="8.120107">
<ele>-0.987792</ele>
<time>2026-07-13T10:19:48.000Z</time>
</trkpt>
<trkpt lat="56.377804" lon="8.120102">
<ele>-0.988213</ele>
<time>2026-07-13T10:19:49.000Z</time>
</trkpt>
<trkpt lat="56.377861" lon="8.120099">
<ele>-0.988633</ele>
<time>2026-07-13T10:19:50.000Z</time>
</trkpt>
<trkpt lat="56.377922" lon="8.120096">
<ele>-0.989084</ele>
<time>2026-07-13T10:19:51.000Z</time>
</trkpt>
<trkpt lat="56.377979" lon="8.120091">
<ele>-0.989505</ele>
<time>2026-07-13T10:19:52.000Z</time>
</trkpt>
<trkpt lat="56.378037" lon="8.120088">
<ele>-0.989933</ele>
<time>2026-07-13T10:19:53.000Z</time>
</trkpt>
<trkpt lat="56.378098" lon="8.120087">
<ele>-0.990383</ele>
<time>2026-07-13T10:19:54.000Z</time>
</trkpt>
<trkpt lat="56.378151" lon="8.120088">
<ele>-0.990774</ele>
<time>2026-07-13T10:19:55.000Z</time>
</trkpt>
<trkpt lat="56.378212" lon="8.120091">
<ele>-0.991224</ele>
<time>2026-07-13T10:19:56.000Z</time>
</trkpt>
<trkpt lat="56.378273" lon="8.120098">
<ele>-0.991675</ele>
<time>2026-07-13T10:19:57.000Z</time>
</trkpt>
<trkpt lat="56.378330" lon="8.120106">
<ele>-0.992097</ele>
<time>2026-07-13T10:19:58.000Z</time>
</trkpt>
<trkpt lat="56.378387" lon="8.120115">
<ele>-0.992519</ele>
<time>2026-07-13T10:19:59.000Z</time>
</trkpt>
<trkpt lat="56.378445" lon="8.120128">
<ele>-0.992950</ele>
<time>2026-07-13T10:20:00.000Z</time>
</trkpt>
<trkpt lat="56.378502" lon="8.120142">
<ele>-0.993375</ele>
<time>2026-07-13T10:20:01.000Z</time>
</trkpt>
<trkpt lat="56.378563" lon="8.120157">
<ele>-0.993829</ele>
<time>2026-07-13T10:20:02.000Z</time>
</trkpt>
<trkpt lat="56.378620" lon="8.120172">
<ele>-0.994254</ele>
<time>2026-07-13T10:20:03.000Z</time>
</trkpt>
<trkpt lat="56.378681" lon="8.120188">
<ele>-0.994709</ele>
<time>2026-07-13T10:20:04.000Z</time>
</trkpt>
<trkpt lat="56.378738" lon="8.120206">
<ele>-0.995136</ele>
<time>2026-07-13T10:20:05.000Z</time>
</trkpt>
<trkpt lat="56.378796" lon="8.120226">
<ele>-0.995571</ele>
<time>2026-07-13T10:20:06.000Z</time>
</trkpt>
<trkpt lat="56.378853" lon="8.120249">
<ele>-0.996002</ele>
<time>2026-07-13T10:20:07.000Z</time>
</trkpt>
<trkpt lat="56.378910" lon="8.120273">
<ele>-0.996441</ele>
<time>2026-07-13T10:20:08.000Z</time>
</trkpt>
<trkpt lat="56.378967" lon="8.120296">
<ele>-1.020383</ele>
<time>2026-07-13T10:20:09.000Z</time>
</trkpt>
<trkpt lat="56.379028" lon="8.120318">
<ele>-1.045882</ele>
<time>2026-07-13T10:20:10.000Z</time>
</trkpt>
<trkpt lat="56.379085" lon="8.120342">
<ele>-1.069874</ele>
<time>2026-07-13T10:20:11.000Z</time>
</trkpt>
<trkpt lat="56.379139" lon="8.120367">
<ele>-1.092725</ele>
<time>2026-07-13T10:20:12.000Z</time>
</trkpt>
<trkpt lat="56.379196" lon="8.120393">
<ele>-1.116824</ele>
<time>2026-07-13T10:20:13.000Z</time>
</trkpt>
<trkpt lat="56.379257" lon="8.120419">
<ele>-1.142517</ele>
<time>2026-07-13T10:20:14.000Z</time>
</trkpt>
<trkpt lat="56.379314" lon="8.120446">
<ele>-1.166672</ele>
<time>2026-07-13T10:20:15.000Z</time>
</trkpt>
<trkpt lat="56.379372" lon="8.120476">
<ele>-1.191404</ele>
<time>2026-07-13T10:20:16.000Z</time>
</trkpt>
<trkpt lat="56.379429" lon="8.120506">
<ele>-1.215741</ele>
<time>2026-07-13T10:20:17.000Z</time>
</trkpt>
<trkpt lat="56.379482" lon="8.120540">
<ele>-1.238797</ele>
<time>2026-07-13T10:20:18.000Z</time>
</trkpt>
<trkpt lat="56.379539" lon="8.120578">
<ele>-1.263703</ele>
<time>2026-07-13T10:20:19.000Z</time>
</trkpt>
<trkpt lat="56.379593" lon="8.120618">
<ele>-1.287629</ele>
<time>2026-07-13T10:20:20.000Z</time>
</trkpt>
<trkpt lat="56.379654" lon="8.120660">
<ele>-1.314389</ele>
<time>2026-07-13T10:20:21.000Z</time>
</trkpt>
<trkpt lat="56.379707" lon="8.120703">
<ele>-1.338207</ele>
<time>2026-07-13T10:20:22.000Z</time>
</trkpt>
<trkpt lat="56.379765" lon="8.120746">
<ele>-1.363907</ele>
<time>2026-07-13T10:20:23.000Z</time>
</trkpt>
<trkpt lat="56.379822" lon="8.120790">
<ele>-1.389318</ele>
<time>2026-07-13T10:20:24.000Z</time>
</trkpt>
<trkpt lat="56.379879" lon="8.120834">
<ele>-1.414728</ele>
<time>2026-07-13T10:20:25.000Z</time>
</trkpt>
<trkpt lat="56.379932" lon="8.120879">
<ele>-1.438735</ele>
<time>2026-07-13T10:20:26.000Z</time>
</trkpt>
<trkpt lat="56.379990" lon="8.120925">
<ele>-1.464702</ele>
<time>2026-07-13T10:20:27.000Z</time>
</trkpt>
<trkpt lat="56.380047" lon="8.120969">
<ele>-1.490112</ele>
<time>2026-07-13T10:20:28.000Z</time>
</trkpt>
<trkpt lat="56.380104" lon="8.121012">
<ele>-1.515434</ele>
<time>2026-07-13T10:20:29.000Z</time>
</trkpt>
<trkpt lat="56.380154" lon="8.121054">
<ele>-1.538038</ele>
<time>2026-07-13T10:20:30.000Z</time>
</trkpt>
<trkpt lat="56.380207" lon="8.121096">
<ele>-1.561763</ele>
<time>2026-07-13T10:20:31.000Z</time>
</trkpt>
<trkpt lat="56.380264" lon="8.121140">
<ele>-1.587173</ele>
<time>2026-07-13T10:20:32.000Z</time>
</trkpt>
<trkpt lat="56.380318" lon="8.121183">
<ele>-1.611365</ele>
<time>2026-07-13T10:20:33.000Z</time>
</trkpt>
<trkpt lat="56.380371" lon="8.121226">
<ele>-1.635182</ele>
<time>2026-07-13T10:20:34.000Z</time>
</trkpt>
<trkpt lat="56.380425" lon="8.121271">
<ele>-1.659561</ele>
<time>2026-07-13T10:20:35.000Z</time>
</trkpt>
<trkpt lat="56.380482" lon="8.121315">
<ele>-1.684971</ele>
<time>2026-07-13T10:20:36.000Z</time>
</trkpt>
<trkpt lat="56.380535" lon="8.121360">
<ele>-1.708978</ele>
<time>2026-07-13T10:20:37.000Z</time>
</trkpt>
<trkpt lat="56.380589" lon="8.121405">
<ele>-1.733356</ele>
<time>2026-07-13T10:20:38.000Z</time>
</trkpt>
<trkpt lat="56.380642" lon="8.121449">
<ele>-1.698314</ele>
<time>2026-07-13T10:20:39.000Z</time>
</trkpt>
<trkpt lat="56.380699" lon="8.121491">
<ele>-1.660323</ele>
<time>2026-07-13T10:20:40.000Z</time>
</trkpt>
<trkpt lat="56.380753" lon="8.121533">
<ele>-1.624039</ele>
<time>2026-07-13T10:20:41.000Z</time>
</trkpt>
<trkpt lat="56.380806" lon="8.121575">
<ele>-1.588322</ele>
<time>2026-07-13T10:20:42.000Z</time>
</trkpt>
<trkpt lat="56.380859" lon="8.121616">
<ele>-1.552740</ele>
<time>2026-07-13T10:20:43.000Z</time>
</trkpt>
<trkpt lat="56.380913" lon="8.121656">
<ele>-1.516721</ele>
<time>2026-07-13T10:20:44.000Z</time>
</trkpt>
<trkpt lat="56.380970" lon="8.121696">
<ele>-1.478983</ele>
<time>2026-07-13T10:20:45.000Z</time>
</trkpt>
<trkpt lat="56.381027" lon="8.121736">
<ele>-1.441245</ele>
<time>2026-07-13T10:20:46.000Z</time>
</trkpt>
<trkpt lat="56.381081" lon="8.121775">
<ele>-1.405354</ele>
<time>2026-07-13T10:20:47.000Z</time>
</trkpt>
<trkpt lat="56.381134" lon="8.121810">
<ele>-1.370529</ele>
<time>2026-07-13T10:20:48.000Z</time>
</trkpt>
<trkpt lat="56.381187" lon="8.121843">
<ele>-1.335932</ele>
<time>2026-07-13T10:20:49.000Z</time>
</trkpt>
<trkpt lat="56.381248" lon="8.121881">
<ele>-1.296111</ele>
<time>2026-07-13T10:20:50.000Z</time>
</trkpt>
<trkpt lat="56.381306" lon="8.121912">
<ele>-1.258783</ele>
<time>2026-07-13T10:20:51.000Z</time>
</trkpt>
<trkpt lat="56.381363" lon="8.121944">
<ele>-1.221947</ele>
<time>2026-07-13T10:20:52.000Z</time>
</trkpt>
<trkpt lat="56.381420" lon="8.121974">
<ele>-1.185307</ele>
<time>2026-07-13T10:20:53.000Z</time>
</trkpt>
<trkpt lat="56.381474" lon="8.121997">
<ele>-1.151068</ele>
<time>2026-07-13T10:20:54.000Z</time>
</trkpt>
<trkpt lat="56.381531" lon="8.122019">
<ele>-1.115098</ele>
<time>2026-07-13T10:20:55.000Z</time>
</trkpt>
<trkpt lat="56.381588" lon="8.122041">
<ele>-1.079127</ele>
<time>2026-07-13T10:20:56.000Z</time>
</trkpt>
<trkpt lat="56.381645" lon="8.122062">
<ele>-1.043227</ele>
<time>2026-07-13T10:20:57.000Z</time>
</trkpt>
<trkpt lat="56.381702" lon="8.122082">
<ele>-1.007393</ele>
<time>2026-07-13T10:20:58.000Z</time>
</trkpt>
<trkpt lat="56.381760" lon="8.122099">
<ele>-0.971131</ele>
<time>2026-07-13T10:20:59.000Z</time>
</trkpt>
<trkpt lat="56.381817" lon="8.122115">
<ele>-0.935532</ele>
<time>2026-07-13T10:21:00.000Z</time>
</trkpt>
<trkpt lat="56.381874" lon="8.122129">
<ele>-0.900032</ele>
<time>2026-07-13T10:21:01.000Z</time>
</trkpt>
<trkpt lat="56.381935" lon="8.122146">
<ele>-0.861942</ele>
<time>2026-07-13T10:21:02.000Z</time>
</trkpt>
<trkpt lat="56.381992" lon="8.122162">
<ele>-0.826343</ele>
<time>2026-07-13T10:21:03.000Z</time>
</trkpt>
<trkpt lat="56.382053" lon="8.122173">
<ele>-0.788511</ele>
<time>2026-07-13T10:21:04.000Z</time>
</trkpt>
<trkpt lat="56.382111" lon="8.122179">
<ele>-0.752659</ele>
<time>2026-07-13T10:21:05.000Z</time>
</trkpt>
<trkpt lat="56.382172" lon="8.122183">
<ele>-0.714990</ele>
<time>2026-07-13T10:21:06.000Z</time>
</trkpt>
<trkpt lat="56.382233" lon="8.122184">
<ele>-0.677343</ele>
<time>2026-07-13T10:21:07.000Z</time>
</trkpt>
<trkpt lat="56.382294" lon="8.122184">
<ele>-0.639698</ele>
<time>2026-07-13T10:21:08.000Z</time>
</trkpt>
<trkpt lat="56.382355" lon="8.122184">
<ele>-0.621729</ele>
<time>2026-07-13T10:21:09.000Z</time>
</trkpt>
<trkpt lat="56.382416" lon="8.122186">
<ele>-0.618231</ele>
<time>2026-07-13T10:21:10.000Z</time>
</trkpt>
<trkpt lat="56.382473" lon="8.122188">
<ele>-0.614963</ele>
<time>2026-07-13T10:21:11.000Z</time>
</trkpt>
<trkpt lat="56.382534" lon="8.122186">
<ele>-0.611466</ele>
<time>2026-07-13T10:21:12.000Z</time>
</trkpt>
<trkpt lat="56.382595" lon="8.122183">
<ele>-0.607968</ele>
<time>2026-07-13T10:21:13.000Z</time>
</trkpt>
<trkpt lat="56.382652" lon="8.122179">
<ele>-0.604698</ele>
<time>2026-07-13T10:21:14.000Z</time>
</trkpt>
<trkpt lat="56.382713" lon="8.122175">
<ele>-0.601199</ele>
<time>2026-07-13T10:21:15.000Z</time>
</trkpt>
<trkpt lat="56.382774" lon="8.122170">
<ele>-0.597699</ele>
<time>2026-07-13T10:21:16.000Z</time>
</trkpt>
<trkpt lat="56.382832" lon="8.122167">
<ele>-0.594373</ele>
<time>2026-07-13T10:21:17.000Z</time>
</trkpt>
<trkpt lat="56.382889" lon="8.122163">
<ele>-0.591103</ele>
<time>2026-07-13T10:21:18.000Z</time>
</trkpt>
<trkpt lat="56.382954" lon="8.122158">
<ele>-0.587373</ele>
<time>2026-07-13T10:21:19.000Z</time>
</trkpt>
<trkpt lat="56.383011" lon="8.122153">
<ele>-0.584102</ele>
<time>2026-07-13T10:21:20.000Z</time>
</trkpt>
<trkpt lat="56.383072" lon="8.122150">
<ele>-0.580604</ele>
<time>2026-07-13T10:21:21.000Z</time>
</trkpt>
<trkpt lat="56.383129" lon="8.122145">
<ele>-0.577333</ele>
<time>2026-07-13T10:21:22.000Z</time>
</trkpt>
<trkpt lat="56.383186" lon="8.122140">
<ele>-0.574061</ele>
<time>2026-07-13T10:21:23.000Z</time>
</trkpt>
<trkpt lat="56.383244" lon="8.122133">
<ele>-0.570729</ele>
<time>2026-07-13T10:21:24.000Z</time>
</trkpt>
<trkpt lat="56.383305" lon="8.122128">
<ele>-0.567229</ele>
<time>2026-07-13T10:21:25.000Z</time>
</trkpt>
<trkpt lat="56.383362" lon="8.122122">
<ele>-0.563956</ele>
<time>2026-07-13T10:21:26.000Z</time>
</trkpt>
<trkpt lat="56.383419" lon="8.122116">
<ele>-0.560683</ele>
<time>2026-07-13T10:21:27.000Z</time>
</trkpt>
<trkpt lat="56.383476" lon="8.122111">
<ele>-0.557412</ele>
<time>2026-07-13T10:21:28.000Z</time>
</trkpt>
<trkpt lat="56.383533" lon="8.122109">
<ele>-0.554143</ele>
<time>2026-07-13T10:21:29.000Z</time>
</trkpt>
<trkpt lat="56.383591" lon="8.122108">
<ele>-0.550819</ele>
<time>2026-07-13T10:21:30.000Z</time>
</trkpt>
<trkpt lat="56.383652" lon="8.122105">
<ele>-0.547321</ele>
<time>2026-07-13T10:21:31.000Z</time>
</trkpt>
<trkpt lat="56.383709" lon="8.122103">
<ele>-0.544052</ele>
<time>2026-07-13T10:21:32.000Z</time>
</trkpt>
<trkpt lat="56.383770" lon="8.122099">
<ele>-0.540553</ele>
<time>2026-07-13T10:21:33.000Z</time>
</trkpt>
<trkpt lat="56.383827" lon="8.122096">
<ele>-0.537285</ele>
<time>2026-07-13T10:21:34.000Z</time>
</trkpt>
<trkpt lat="56.383884" lon="8.122093">
<ele>-0.534016</ele>
<time>2026-07-13T10:21:35.000Z</time>
</trkpt>
<trkpt lat="56.383942" lon="8.122088">
<ele>-0.530687</ele>
<time>2026-07-13T10:21:36.000Z</time>
</trkpt>
<trkpt lat="56.383999" lon="8.122083">
<ele>-0.527416</ele>
<time>2026-07-13T10:21:37.000Z</time>
</trkpt>
<trkpt lat="56.384060" lon="8.122078">
<ele>-0.523916</ele>
<time>2026-07-13T10:21:38.000Z</time>
</trkpt>
<trkpt lat="56.384117" lon="8.122074">
<ele>-0.520646</ele>
<time>2026-07-13T10:21:39.000Z</time>
</trkpt>
<trkpt lat="56.384174" lon="8.122070">
<ele>-0.522500</ele>
<time>2026-07-13T10:21:40.000Z</time>
</trkpt>
<trkpt lat="56.384232" lon="8.122066">
<ele>-0.524397</ele>
<time>2026-07-13T10:21:41.000Z</time>
</trkpt>
<trkpt lat="56.384285" lon="8.122061">
<ele>-0.526132</ele>
<time>2026-07-13T10:21:42.000Z</time>
</trkpt>
<trkpt lat="56.384327" lon="8.122057">
<ele>-0.527507</ele>
<time>2026-07-13T10:21:43.000Z</time>
</trkpt>
<trkpt lat="56.384407" lon="8.122050">
<ele>-0.530125</ele>
<time>2026-07-13T10:21:44.000Z</time>
</trkpt>
<trkpt lat="56.384464" lon="8.122045">
<ele>-0.531991</ele>
<time>2026-07-13T10:21:45.000Z</time>
</trkpt>
<trkpt lat="56.384525" lon="8.122040">
<ele>-0.533987</ele>
<time>2026-07-13T10:21:46.000Z</time>
</trkpt>
<trkpt lat="56.384583" lon="8.122036">
<ele>-0.535884</ele>
<time>2026-07-13T10:21:47.000Z</time>
</trkpt>
<trkpt lat="56.384640" lon="8.122032">
<ele>-0.537749</ele>
<time>2026-07-13T10:21:48.000Z</time>
</trkpt>
<trkpt lat="56.384701" lon="8.122030">
<ele>-0.539744</ele>
<time>2026-07-13T10:21:49.000Z</time>
</trkpt>
<trkpt lat="56.384762" lon="8.122027">
<ele>-0.541739</ele>
<time>2026-07-13T10:21:50.000Z</time>
</trkpt>
<trkpt lat="56.384819" lon="8.122024">
<ele>-0.543603</ele>
<time>2026-07-13T10:21:51.000Z</time>
</trkpt>
<trkpt lat="56.384872" lon="8.122021">
<ele>-0.545336</ele>
<time>2026-07-13T10:21:52.000Z</time>
</trkpt>
<trkpt lat="56.384933" lon="8.122016">
<ele>-0.547332</ele>
<time>2026-07-13T10:21:53.000Z</time>
</trkpt>
<trkpt lat="56.384991" lon="8.122012">
<ele>-0.549230</ele>
<time>2026-07-13T10:21:54.000Z</time>
</trkpt>
<trkpt lat="56.385048" lon="8.122009">
<ele>-0.551094</ele>
<time>2026-07-13T10:21:55.000Z</time>
</trkpt>
<trkpt lat="56.385105" lon="8.122007">
<ele>-0.552958</ele>
<time>2026-07-13T10:21:56.000Z</time>
</trkpt>
<trkpt lat="56.385166" lon="8.122004">
<ele>-0.554952</ele>
<time>2026-07-13T10:21:57.000Z</time>
</trkpt>
<trkpt lat="56.385223" lon="8.121997">
<ele>-0.556820</ele>
<time>2026-07-13T10:21:58.000Z</time>
</trkpt>
<trkpt lat="56.385281" lon="8.121993">
<ele>-0.558718</ele>
<time>2026-07-13T10:21:59.000Z</time>
</trkpt>
<trkpt lat="56.385342" lon="8.121991">
<ele>-0.560712</ele>
<time>2026-07-13T10:22:00.000Z</time>
</trkpt>
<trkpt lat="56.385403" lon="8.121989">
<ele>-0.562706</ele>
<time>2026-07-13T10:22:01.000Z</time>
</trkpt>
<trkpt lat="56.385464" lon="8.121985">
<ele>-0.564702</ele>
<time>2026-07-13T10:22:02.000Z</time>
</trkpt>
<trkpt lat="56.385521" lon="8.121982">
<ele>-0.566566</ele>
<time>2026-07-13T10:22:03.000Z</time>
</trkpt>
<trkpt lat="56.385582" lon="8.121977">
<ele>-0.568562</ele>
<time>2026-07-13T10:22:04.000Z</time>
</trkpt>
<trkpt lat="56.385643" lon="8.121973">
<ele>-0.570558</ele>
<time>2026-07-13T10:22:05.000Z</time>
</trkpt>
<trkpt lat="56.385700" lon="8.121971">
<ele>-0.572421</ele>
<time>2026-07-13T10:22:06.000Z</time>
</trkpt>
<trkpt lat="56.385761" lon="8.121969">
<ele>-0.574416</ele>
<time>2026-07-13T10:22:07.000Z</time>
</trkpt>
<trkpt lat="56.385822" lon="8.121966">
<ele>-0.576411</ele>
<time>2026-07-13T10:22:08.000Z</time>
</trkpt>
<trkpt lat="56.385883" lon="8.121962">
<ele>-0.578406</ele>
<time>2026-07-13T10:22:09.000Z</time>
</trkpt>
<trkpt lat="56.385941" lon="8.121957">
<ele>-0.578668</ele>
<time>2026-07-13T10:22:10.000Z</time>
</trkpt>
<trkpt lat="56.386002" lon="8.121951">
<ele>-0.576896</ele>
<time>2026-07-13T10:22:11.000Z</time>
</trkpt>
<trkpt lat="56.386063" lon="8.121947">
<ele>-0.575125</ele>
<time>2026-07-13T10:22:12.000Z</time>
</trkpt>
<trkpt lat="56.386120" lon="8.121944">
<ele>-0.573470</ele>
<time>2026-07-13T10:22:13.000Z</time>
</trkpt>
<trkpt lat="56.386185" lon="8.121940">
<ele>-0.571583</ele>
<time>2026-07-13T10:22:14.000Z</time>
</trkpt>
<trkpt lat="56.386242" lon="8.121936">
<ele>-0.569928</ele>
<time>2026-07-13T10:22:15.000Z</time>
</trkpt>
<trkpt lat="56.386303" lon="8.121932">
<ele>-0.568157</ele>
<time>2026-07-13T10:22:16.000Z</time>
</trkpt>
<trkpt lat="56.386364" lon="8.121929">
<ele>-0.566386</ele>
<time>2026-07-13T10:22:17.000Z</time>
</trkpt>
<trkpt lat="56.386421" lon="8.121924">
<ele>-0.564730</ele>
<time>2026-07-13T10:22:18.000Z</time>
</trkpt>
<trkpt lat="56.386486" lon="8.121918">
<ele>-0.562842</ele>
<time>2026-07-13T10:22:19.000Z</time>
</trkpt>
<trkpt lat="56.386543" lon="8.121914">
<ele>-0.561187</ele>
<time>2026-07-13T10:22:20.000Z</time>
</trkpt>
<trkpt lat="56.386608" lon="8.121911">
<ele>-0.559300</ele>
<time>2026-07-13T10:22:21.000Z</time>
</trkpt>
<trkpt lat="56.386669" lon="8.121907">
<ele>-0.557529</ele>
<time>2026-07-13T10:22:22.000Z</time>
</trkpt>
<trkpt lat="56.386730" lon="8.121903">
<ele>-0.555758</ele>
<time>2026-07-13T10:22:23.000Z</time>
</trkpt>
<trkpt lat="56.386791" lon="8.121898">
<ele>-0.553986</ele>
<time>2026-07-13T10:22:24.000Z</time>
</trkpt>
<trkpt lat="56.386848" lon="8.121893">
<ele>-0.552331</ele>
<time>2026-07-13T10:22:25.000Z</time>
</trkpt>
<trkpt lat="56.386910" lon="8.121888">
<ele>-0.550530</ele>
<time>2026-07-13T10:22:26.000Z</time>
</trkpt>
<trkpt lat="56.386967" lon="8.121884">
<ele>-0.548875</ele>
<time>2026-07-13T10:22:27.000Z</time>
</trkpt>
<trkpt lat="56.387028" lon="8.121882">
<ele>-0.547105</ele>
<time>2026-07-13T10:22:28.000Z</time>
</trkpt>
<trkpt lat="56.387085" lon="8.121879">
<ele>-0.545450</ele>
<time>2026-07-13T10:22:29.000Z</time>
</trkpt>
<trkpt lat="56.387146" lon="8.121875">
<ele>-0.543679</ele>
<time>2026-07-13T10:22:30.000Z</time>
</trkpt>
<trkpt lat="56.387207" lon="8.121870">
<ele>-0.541907</ele>
<time>2026-07-13T10:22:31.000Z</time>
</trkpt>
<trkpt lat="56.387264" lon="8.121865">
<ele>-0.540251</ele>
<time>2026-07-13T10:22:32.000Z</time>
</trkpt>
<trkpt lat="56.387321" lon="8.121862">
<ele>-0.538597</ele>
<time>2026-07-13T10:22:33.000Z</time>
</trkpt>
<trkpt lat="56.387379" lon="8.121859">
<ele>-0.536913</ele>
<time>2026-07-13T10:22:34.000Z</time>
</trkpt>
<trkpt lat="56.387444" lon="8.121854">
<ele>-0.535026</ele>
<time>2026-07-13T10:22:35.000Z</time>
</trkpt>
<trkpt lat="56.387501" lon="8.121850">
<ele>-0.533371</ele>
<time>2026-07-13T10:22:36.000Z</time>
</trkpt>
<trkpt lat="56.387566" lon="8.121843">
<ele>-0.531481</ele>
<time>2026-07-13T10:22:37.000Z</time>
</trkpt>
<trkpt lat="56.387623" lon="8.121837">
<ele>-0.529825</ele>
<time>2026-07-13T10:22:38.000Z</time>
</trkpt>
<trkpt lat="56.387680" lon="8.121830">
<ele>-0.528167</ele>
<time>2026-07-13T10:22:39.000Z</time>
</trkpt>
<trkpt lat="56.387745" lon="8.121824">
<ele>-0.528539</ele>
<time>2026-07-13T10:22:40.000Z</time>
</trkpt>
<trkpt lat="56.387806" lon="8.121823">
<ele>-0.530887</ele>
<time>2026-07-13T10:22:41.000Z</time>
</trkpt>
<trkpt lat="56.387867" lon="8.121822">
<ele>-0.533234</ele>
<time>2026-07-13T10:22:42.000Z</time>
</trkpt>
<trkpt lat="56.387928" lon="8.121820">
<ele>-0.535582</ele>
<time>2026-07-13T10:22:43.000Z</time>
</trkpt>
<trkpt lat="56.387989" lon="8.121818">
<ele>-0.537930</ele>
<time>2026-07-13T10:22:44.000Z</time>
</trkpt>
<trkpt lat="56.388050" lon="8.121814">
<ele>-0.540279</ele>
<time>2026-07-13T10:22:45.000Z</time>
</trkpt>
<trkpt lat="56.388111" lon="8.121809">
<ele>-0.542630</ele>
<time>2026-07-13T10:22:46.000Z</time>
</trkpt>
<trkpt lat="56.388172" lon="8.121803">
<ele>-0.544981</ele>
<time>2026-07-13T10:22:47.000Z</time>
</trkpt>
<trkpt lat="56.388233" lon="8.121799">
<ele>-0.547330</ele>
<time>2026-07-13T10:22:48.000Z</time>
</trkpt>
<trkpt lat="56.388294" lon="8.121793">
<ele>-0.549681</ele>
<time>2026-07-13T10:22:49.000Z</time>
</trkpt>
<trkpt lat="56.388351" lon="8.121789">
<ele>-0.551876</ele>
<time>2026-07-13T10:22:50.000Z</time>
</trkpt>
<trkpt lat="56.388416" lon="8.121786">
<ele>-0.554379</ele>
<time>2026-07-13T10:22:51.000Z</time>
</trkpt>
<trkpt lat="56.388477" lon="8.121782">
<ele>-0.556728</ele>
<time>2026-07-13T10:22:52.000Z</time>
</trkpt>
<trkpt lat="56.388546" lon="8.121779">
<ele>-0.559384</ele>
<time>2026-07-13T10:22:53.000Z</time>
</trkpt>
<trkpt lat="56.388607" lon="8.121777">
<ele>-0.561732</ele>
<time>2026-07-13T10:22:54.000Z</time>
</trkpt>
<trkpt lat="56.388668" lon="8.121773">
<ele>-0.564081</ele>
<time>2026-07-13T10:22:55.000Z</time>
</trkpt>
<trkpt lat="56.388733" lon="8.121768">
<ele>-0.566585</ele>
<time>2026-07-13T10:22:56.000Z</time>
</trkpt>
<trkpt lat="56.388794" lon="8.121764">
<ele>-0.568934</ele>
<time>2026-07-13T10:22:57.000Z</time>
</trkpt>
<trkpt lat="56.388855" lon="8.121759">
<ele>-0.571284</ele>
<time>2026-07-13T10:22:58.000Z</time>
</trkpt>
<trkpt lat="56.388912" lon="8.121756">
<ele>-0.573479</ele>
<time>2026-07-13T10:22:59.000Z</time>
</trkpt>
<trkpt lat="56.388973" lon="8.121752">
<ele>-0.575828</ele>
<time>2026-07-13T10:23:00.000Z</time>
</trkpt>
<trkpt lat="56.389030" lon="8.121746">
<ele>-0.578025</ele>
<time>2026-07-13T10:23:01.000Z</time>
</trkpt>
<trkpt lat="56.389088" lon="8.121740">
<ele>-0.580261</ele>
<time>2026-07-13T10:23:02.000Z</time>
</trkpt>
<trkpt lat="56.389149" lon="8.121736">
<ele>-0.582610</ele>
<time>2026-07-13T10:23:03.000Z</time>
</trkpt>
<trkpt lat="56.389210" lon="8.121735">
<ele>-0.584958</ele>
<time>2026-07-13T10:23:04.000Z</time>
</trkpt>
<trkpt lat="56.389267" lon="8.121733">
<ele>-0.587152</ele>
<time>2026-07-13T10:23:05.000Z</time>
</trkpt>
<trkpt lat="56.389324" lon="8.121730">
<ele>-0.589347</ele>
<time>2026-07-13T10:23:06.000Z</time>
</trkpt>
<trkpt lat="56.389385" lon="8.121726">
<ele>-0.591696</ele>
<time>2026-07-13T10:23:07.000Z</time>
</trkpt>
<trkpt lat="56.389442" lon="8.121721">
<ele>-0.593892</ele>
<time>2026-07-13T10:23:08.000Z</time>
</trkpt>
<trkpt lat="56.389500" lon="8.121717">
<ele>-0.596126</ele>
<time>2026-07-13T10:23:09.000Z</time>
</trkpt>
<trkpt lat="56.389557" lon="8.121716">
<ele>-0.610033</ele>
<time>2026-07-13T10:23:10.000Z</time>
</trkpt>
<trkpt lat="56.389614" lon="8.121714">
<ele>-0.626135</ele>
<time>2026-07-13T10:23:11.000Z</time>
</trkpt>
<trkpt lat="56.389675" lon="8.121711">
<ele>-0.643370</ele>
<time>2026-07-13T10:23:12.000Z</time>
</trkpt>
<trkpt lat="56.389732" lon="8.121706">
<ele>-0.659488</ele>
<time>2026-07-13T10:23:13.000Z</time>
</trkpt>
<trkpt lat="56.389793" lon="8.121702">
<ele>-0.676729</ele>
<time>2026-07-13T10:23:14.000Z</time>
</trkpt>
<trkpt lat="56.389851" lon="8.121698">
<ele>-0.693122</ele>
<time>2026-07-13T10:23:15.000Z</time>
</trkpt>
<trkpt lat="56.389912" lon="8.121694">
<ele>-0.710362</ele>
<time>2026-07-13T10:23:16.000Z</time>
</trkpt>
<trkpt lat="56.389969" lon="8.121690">
<ele>-0.726473</ele>
<time>2026-07-13T10:23:17.000Z</time>
</trkpt>
<trkpt lat="56.390030" lon="8.121685">
<ele>-0.743720</ele>
<time>2026-07-13T10:23:18.000Z</time>
</trkpt>
<trkpt lat="56.390087" lon="8.121679">
<ele>-0.759846</ele>
<time>2026-07-13T10:23:19.000Z</time>
</trkpt>
<trkpt lat="56.390148" lon="8.121674">
<ele>-0.777093</ele>
<time>2026-07-13T10:23:20.000Z</time>
</trkpt>
<trkpt lat="56.390209" lon="8.121671">
<ele>-0.794328</ele>
<time>2026-07-13T10:23:21.000Z</time>
</trkpt>
<trkpt lat="56.390270" lon="8.121667">
<ele>-0.811568</ele>
<time>2026-07-13T10:23:22.000Z</time>
</trkpt>
<trkpt lat="56.390327" lon="8.121663">
<ele>-0.827679</ele>
<time>2026-07-13T10:23:23.000Z</time>
</trkpt>
<trkpt lat="56.390385" lon="8.121659">
<ele>-0.844073</ele>
<time>2026-07-13T10:23:24.000Z</time>
</trkpt>
<trkpt lat="56.390446" lon="8.121655">
<ele>-0.861313</ele>
<time>2026-07-13T10:23:25.000Z</time>
</trkpt>
<trkpt lat="56.390507" lon="8.121652">
<ele>-0.878548</ele>
<time>2026-07-13T10:23:26.000Z</time>
</trkpt>
<trkpt lat="56.390568" lon="8.121648">
<ele>-0.895788</ele>
<time>2026-07-13T10:23:27.000Z</time>
</trkpt>
<trkpt lat="56.390625" lon="8.121646">
<ele>-0.911890</ele>
<time>2026-07-13T10:23:28.000Z</time>
</trkpt>
<trkpt lat="56.390686" lon="8.121642">
<ele>-0.929130</ele>
<time>2026-07-13T10:23:29.000Z</time>
</trkpt>
<trkpt lat="56.390747" lon="8.121639">
<ele>-0.946366</ele>
<time>2026-07-13T10:23:30.000Z</time>
</trkpt>
<trkpt lat="56.390808" lon="8.121636">
<ele>-0.963601</ele>
<time>2026-07-13T10:23:31.000Z</time>
</trkpt>
<trkpt lat="56.390873" lon="8.121635">
<ele>-0.981960</ele>
<time>2026-07-13T10:23:32.000Z</time>
</trkpt>
<trkpt lat="56.390934" lon="8.121630">
<ele>-0.999207</ele>
<time>2026-07-13T10:23:33.000Z</time>
</trkpt>
<trkpt lat="56.390991" lon="8.121625">
<ele>-1.015325</ele>
<time>2026-07-13T10:23:34.000Z</time>
</trkpt>
<trkpt lat="56.391048" lon="8.121621">
<ele>-1.031436</ele>
<time>2026-07-13T10:23:35.000Z</time>
</trkpt>
<trkpt lat="56.391110" lon="8.121616">
<ele>-1.048964</ele>
<time>2026-07-13T10:23:36.000Z</time>
</trkpt>
<trkpt lat="56.391167" lon="8.121613">
<ele>-1.065070</ele>
<time>2026-07-13T10:23:37.000Z</time>
</trkpt>
<trkpt lat="56.391228" lon="8.121609">
<ele>-1.082310</ele>
<time>2026-07-13T10:23:38.000Z</time>
</trkpt>
<trkpt lat="56.391289" lon="8.121605">
<ele>-1.099551</ele>
<time>2026-07-13T10:23:39.000Z</time>
</trkpt>
<trkpt lat="56.391350" lon="8.121600">
<ele>-1.097913</ele>
<time>2026-07-13T10:23:40.000Z</time>
</trkpt>
<trkpt lat="56.391407" lon="8.121595">
<ele>-1.089320</ele>
<time>2026-07-13T10:23:41.000Z</time>
</trkpt>
<trkpt lat="56.391468" lon="8.121593">
<ele>-1.080133</ele>
<time>2026-07-13T10:23:42.000Z</time>
</trkpt>
<trkpt lat="56.391525" lon="8.121590">
<ele>-1.071547</ele>
<time>2026-07-13T10:23:43.000Z</time>
</trkpt>
<trkpt lat="56.391586" lon="8.121586">
<ele>-1.062356</ele>
<time>2026-07-13T10:23:44.000Z</time>
</trkpt>
<trkpt lat="56.391644" lon="8.121581">
<ele>-1.053612</ele>
<time>2026-07-13T10:23:45.000Z</time>
</trkpt>
<trkpt lat="56.391705" lon="8.121575">
<ele>-1.044414</ele>
<time>2026-07-13T10:23:46.000Z</time>
</trkpt>
<trkpt lat="56.391762" lon="8.121570">
<ele>-1.035821</ele>
<time>2026-07-13T10:23:47.000Z</time>
</trkpt>
<trkpt lat="56.391819" lon="8.121566">
<ele>-1.027231</ele>
<time>2026-07-13T10:23:48.000Z</time>
</trkpt>
<trkpt lat="56.391876" lon="8.121563">
<ele>-1.018645</ele>
<time>2026-07-13T10:23:49.000Z</time>
</trkpt>
<trkpt lat="56.391937" lon="8.121561">
<ele>-1.009458</ele>
<time>2026-07-13T10:23:50.000Z</time>
</trkpt>
<trkpt lat="56.391998" lon="8.121558">
<ele>-1.000269</ele>
<time>2026-07-13T10:23:51.000Z</time>
</trkpt>
<trkpt lat="56.392059" lon="8.121553">
<ele>-0.991075</ele>
<time>2026-07-13T10:23:52.000Z</time>
</trkpt>
<trkpt lat="56.392117" lon="8.121548">
<ele>-0.982332</ele>
<time>2026-07-13T10:23:53.000Z</time>
</trkpt>
<trkpt lat="56.392174" lon="8.121541">
<ele>-0.973729</ele>
<time>2026-07-13T10:23:54.000Z</time>
</trkpt>
<trkpt lat="56.392235" lon="8.121534">
<ele>-0.964525</ele>
<time>2026-07-13T10:23:55.000Z</time>
</trkpt>
<trkpt lat="56.392292" lon="8.121532">
<ele>-0.955941</ele>
<time>2026-07-13T10:23:56.000Z</time>
</trkpt>
<trkpt lat="56.392361" lon="8.121532">
<ele>-0.945551</ele>
<time>2026-07-13T10:23:57.000Z</time>
</trkpt>
<trkpt lat="56.392422" lon="8.121530">
<ele>-0.936364</ele>
<time>2026-07-13T10:23:58.000Z</time>
</trkpt>
<trkpt lat="56.392483" lon="8.121526">
<ele>-0.927173</ele>
<time>2026-07-13T10:23:59.000Z</time>
</trkpt>
<trkpt lat="56.392540" lon="8.121521">
<ele>-0.918580</ele>
<time>2026-07-13T10:24:00.000Z</time>
</trkpt>
<trkpt lat="56.392601" lon="8.121517">
<ele>-0.909389</ele>
<time>2026-07-13T10:24:01.000Z</time>
</trkpt>
<trkpt lat="56.392662" lon="8.121514">
<ele>-0.900200</ele>
<time>2026-07-13T10:24:02.000Z</time>
</trkpt>
<trkpt lat="56.392719" lon="8.121510">
<ele>-0.891611</ele>
<time>2026-07-13T10:24:03.000Z</time>
</trkpt>
<trkpt lat="56.392780" lon="8.121508">
<ele>-0.882424</ele>
<time>2026-07-13T10:24:04.000Z</time>
</trkpt>
<trkpt lat="56.392841" lon="8.121503">
<ele>-0.873230</ele>
<time>2026-07-13T10:24:05.000Z</time>
</trkpt>
<trkpt lat="56.392899" lon="8.121498">
<ele>-0.864486</ele>
<time>2026-07-13T10:24:06.000Z</time>
</trkpt>
<trkpt lat="56.392960" lon="8.121494">
<ele>-0.855295</ele>
<time>2026-07-13T10:24:07.000Z</time>
</trkpt>
<trkpt lat="56.393017" lon="8.121491">
<ele>-0.846709</ele>
<time>2026-07-13T10:24:08.000Z</time>
</trkpt>
<trkpt lat="56.393078" lon="8.121488">
<ele>-0.837520</ele>
<time>2026-07-13T10:24:09.000Z</time>
</trkpt>
<trkpt lat="56.393139" lon="8.121484">
<ele>-0.848873</ele>
<time>2026-07-13T10:24:10.000Z</time>
</trkpt>
<trkpt lat="56.393196" lon="8.121480">
<ele>-0.873468</ele>
<time>2026-07-13T10:24:11.000Z</time>
</trkpt>
<trkpt lat="56.393257" lon="8.121475">
<ele>-0.899796</ele>
<time>2026-07-13T10:24:12.000Z</time>
</trkpt>
<trkpt lat="56.393314" lon="8.121469">
<ele>-0.924413</ele>
<time>2026-07-13T10:24:13.000Z</time>
</trkpt>
<trkpt lat="56.393375" lon="8.121466">
<ele>-0.950724</ele>
<time>2026-07-13T10:24:14.000Z</time>
</trkpt>
<trkpt lat="56.393436" lon="8.121462">
<ele>-0.977042</ele>
<time>2026-07-13T10:24:15.000Z</time>
</trkpt>
<trkpt lat="56.393494" lon="8.121456">
<ele>-1.002090</ele>
<time>2026-07-13T10:24:16.000Z</time>
</trkpt>
<trkpt lat="56.393551" lon="8.121452">
<ele>-1.026685</ele>
<time>2026-07-13T10:24:17.000Z</time>
</trkpt>
<trkpt lat="56.393612" lon="8.121450">
<ele>-1.052990</ele>
<time>2026-07-13T10:24:18.000Z</time>
</trkpt>
<trkpt lat="56.393669" lon="8.121449">
<ele>-1.077567</ele>
<time>2026-07-13T10:24:19.000Z</time>
</trkpt>
<trkpt lat="56.393730" lon="8.121445">
<ele>-1.103886</ele>
<time>2026-07-13T10:24:20.000Z</time>
</trkpt>
<trkpt lat="56.393787" lon="8.121440">
<ele>-1.128491</ele>
<time>2026-07-13T10:24:21.000Z</time>
</trkpt>
<trkpt lat="56.393837" lon="8.121436">
<ele>-1.150070</ele>
<time>2026-07-13T10:24:22.000Z</time>
</trkpt>
<trkpt lat="56.393902" lon="8.121430">
<ele>-1.178132</ele>
<time>2026-07-13T10:24:23.000Z</time>
</trkpt>
<trkpt lat="56.393963" lon="8.121428">
<ele>-1.204437</ele>
<time>2026-07-13T10:24:24.000Z</time>
</trkpt>
<trkpt lat="56.394024" lon="8.121425">
<ele>-1.230747</ele>
<time>2026-07-13T10:24:25.000Z</time>
</trkpt>
<trkpt lat="56.394081" lon="8.121423">
<ele>-1.255328</ele>
<time>2026-07-13T10:24:26.000Z</time>
</trkpt>
<trkpt lat="56.394138" lon="8.121419">
<ele>-1.279923</ele>
<time>2026-07-13T10:24:27.000Z</time>
</trkpt>
<trkpt lat="56.394196" lon="8.121416">
<ele>-1.304940</ele>
<time>2026-07-13T10:24:28.000Z</time>
</trkpt>
<trkpt lat="56.394257" lon="8.121412">
<ele>-1.331259</ele>
<time>2026-07-13T10:24:29.000Z</time>
</trkpt>
<trkpt lat="56.394314" lon="8.121411">
<ele>-1.355836</ele>
<time>2026-07-13T10:24:30.000Z</time>
</trkpt>
<trkpt lat="56.394375" lon="8.121410">
<ele>-1.382138</ele>
<time>2026-07-13T10:24:31.000Z</time>
</trkpt>
<trkpt lat="56.394440" lon="8.121410">
<ele>-1.410163</ele>
<time>2026-07-13T10:24:32.000Z</time>
</trkpt>
<trkpt lat="56.394501" lon="8.121410">
<ele>-1.436464</ele>
<time>2026-07-13T10:24:33.000Z</time>
</trkpt>
<trkpt lat="56.394562" lon="8.121410">
<ele>-1.462765</ele>
<time>2026-07-13T10:24:34.000Z</time>
</trkpt>
<trkpt lat="56.394623" lon="8.121412">
<ele>-1.489070</ele>
<time>2026-07-13T10:24:35.000Z</time>
</trkpt>
<trkpt lat="56.394680" lon="8.121413">
<ele>-1.513647</ele>
<time>2026-07-13T10:24:36.000Z</time>
</trkpt>
<trkpt lat="56.394741" lon="8.121414">
<ele>-1.539949</ele>
<time>2026-07-13T10:24:37.000Z</time>
</trkpt>
<trkpt lat="56.394802" lon="8.121416">
<ele>-1.566254</ele>
<time>2026-07-13T10:24:38.000Z</time>
</trkpt>
<trkpt lat="56.394859" lon="8.121418">
<ele>-1.590835</ele>
<time>2026-07-13T10:24:39.000Z</time>
</trkpt>
<trkpt lat="56.394920" lon="8.121421">
<ele>-1.612552</ele>
<time>2026-07-13T10:24:40.000Z</time>
</trkpt>
<trkpt lat="56.394981" lon="8.121425">
<ele>-1.623748</ele>
<time>2026-07-13T10:24:41.000Z</time>
</trkpt>
<trkpt lat="56.395035" lon="8.121428">
<ele>-1.633657</ele>
<time>2026-07-13T10:24:42.000Z</time>
</trkpt>
<trkpt lat="56.395092" lon="8.121431">
<ele>-1.644117</ele>
<time>2026-07-13T10:24:43.000Z</time>
</trkpt>
<trkpt lat="56.395153" lon="8.121434">
<ele>-1.655310</ele>
<time>2026-07-13T10:24:44.000Z</time>
</trkpt>
<trkpt lat="56.395210" lon="8.121437">
<ele>-1.665769</ele>
<time>2026-07-13T10:24:45.000Z</time>
</trkpt>
<trkpt lat="56.395268" lon="8.121439">
<ele>-1.676410</ele>
<time>2026-07-13T10:24:46.000Z</time>
</trkpt>
<trkpt lat="56.395325" lon="8.121441">
<ele>-1.686867</ele>
<time>2026-07-13T10:24:47.000Z</time>
</trkpt>
<trkpt lat="56.395382" lon="8.121445">
<ele>-1.697330</ele>
<time>2026-07-13T10:24:48.000Z</time>
</trkpt>
<trkpt lat="56.395435" lon="8.121448">
<ele>-1.707056</ele>
<time>2026-07-13T10:24:49.000Z</time>
</trkpt>
<trkpt lat="56.395500" lon="8.121449">
<ele>-1.718979</ele>
<time>2026-07-13T10:24:50.000Z</time>
</trkpt>
<trkpt lat="56.395557" lon="8.121454">
<ele>-1.729446</ele>
<time>2026-07-13T10:24:51.000Z</time>
</trkpt>
<trkpt lat="56.395618" lon="8.121460">
<ele>-1.740652</ele>
<time>2026-07-13T10:24:52.000Z</time>
</trkpt>
<trkpt lat="56.395672" lon="8.121466">
<ele>-1.750575</ele>
<time>2026-07-13T10:24:53.000Z</time>
</trkpt>
<trkpt lat="56.395729" lon="8.121470">
<ele>-1.761038</ele>
<time>2026-07-13T10:24:54.000Z</time>
</trkpt>
<trkpt lat="56.395790" lon="8.121477">
<ele>-1.772249</ele>
<time>2026-07-13T10:24:55.000Z</time>
</trkpt>
<trkpt lat="56.395847" lon="8.121484">
<ele>-1.782729</ele>
<time>2026-07-13T10:24:56.000Z</time>
</trkpt>
<trkpt lat="56.395908" lon="8.121488">
<ele>-1.793925</ele>
<time>2026-07-13T10:24:57.000Z</time>
</trkpt>
<trkpt lat="56.395962" lon="8.121491">
<ele>-1.803834</ele>
<time>2026-07-13T10:24:58.000Z</time>
</trkpt>
<trkpt lat="56.396019" lon="8.121494">
<ele>-1.814294</ele>
<time>2026-07-13T10:24:59.000Z</time>
</trkpt>
<trkpt lat="56.396080" lon="8.121499">
<ele>-1.825494</ele>
<time>2026-07-13T10:25:00.000Z</time>
</trkpt>
<trkpt lat="56.396141" lon="8.121504">
<ele>-1.836694</ele>
<time>2026-07-13T10:25:01.000Z</time>
</trkpt>
<trkpt lat="56.396202" lon="8.121508">
<ele>-1.847890</ele>
<time>2026-07-13T10:25:02.000Z</time>
</trkpt>
<trkpt lat="56.396255" lon="8.121510">
<ele>-1.857614</ele>
<time>2026-07-13T10:25:03.000Z</time>
</trkpt>
<trkpt lat="56.396317" lon="8.121515">
<ele>-1.868997</ele>
<time>2026-07-13T10:25:04.000Z</time>
</trkpt>
<trkpt lat="56.396378" lon="8.121519">
<ele>-1.880194</ele>
<time>2026-07-13T10:25:05.000Z</time>
</trkpt>
<trkpt lat="56.396431" lon="8.121523">
<ele>-1.889923</ele>
<time>2026-07-13T10:25:06.000Z</time>
</trkpt>
<trkpt lat="56.396484" lon="8.121526">
<ele>-1.899650</ele>
<time>2026-07-13T10:25:07.000Z</time>
</trkpt>
<trkpt lat="56.396545" lon="8.121530">
<ele>-1.910846</ele>
<time>2026-07-13T10:25:08.000Z</time>
</trkpt>
<trkpt lat="56.396603" lon="8.121535">
<ele>-1.921496</ele>
<time>2026-07-13T10:25:09.000Z</time>
</trkpt>
<trkpt lat="56.396660" lon="8.121540">
<ele>-1.931964</ele>
<time>2026-07-13T10:25:10.000Z</time>
</trkpt>
<trkpt lat="56.396717" lon="8.121544">
<ele>-1.944660</ele>
<time>2026-07-13T10:25:11.000Z</time>
</trkpt>
<trkpt lat="56.396778" lon="8.121549">
<ele>-1.963293</ele>
<time>2026-07-13T10:25:12.000Z</time>
</trkpt>
<trkpt lat="56.396831" lon="8.121552">
<ele>-1.979473</ele>
<time>2026-07-13T10:25:13.000Z</time>
</trkpt>
<trkpt lat="56.396885" lon="8.121556">
<ele>-1.995965</ele>
<time>2026-07-13T10:25:14.000Z</time>
</trkpt>
<trkpt lat="56.396954" lon="8.121563">
<ele>-2.017053</ele>
<time>2026-07-13T10:25:15.000Z</time>
</trkpt>
<trkpt lat="56.397011" lon="8.121566">
<ele>-2.034454</ele>
<time>2026-07-13T10:25:16.000Z</time>
</trkpt>
<trkpt lat="56.397079" lon="8.121571">
<ele>-2.055221</ele>
<time>2026-07-13T10:25:17.000Z</time>
</trkpt>
<trkpt lat="56.397141" lon="8.121575">
<ele>-2.074152</ele>
<time>2026-07-13T10:25:18.000Z</time>
</trkpt>
<trkpt lat="56.397202" lon="8.121579">
<ele>-2.092778</ele>
<time>2026-07-13T10:25:19.000Z</time>
</trkpt>
<trkpt lat="56.397266" lon="8.121582">
<ele>-2.112314</ele>
<time>2026-07-13T10:25:20.000Z</time>
</trkpt>
<trkpt lat="56.397327" lon="8.121585">
<ele>-2.130935</ele>
<time>2026-07-13T10:25:21.000Z</time>
</trkpt>
<trkpt lat="56.397388" lon="8.121590">
<ele>-2.149568</ele>
<time>2026-07-13T10:25:22.000Z</time>
</trkpt>
<trkpt lat="56.397449" lon="8.121593">
<ele>-2.168189</ele>
<time>2026-07-13T10:25:23.000Z</time>
</trkpt>
<trkpt lat="56.397507" lon="8.121600">
<ele>-2.185927</ele>
<time>2026-07-13T10:25:24.000Z</time>
</trkpt>
<trkpt lat="56.397572" lon="8.121605">
<ele>-2.205779</ele>
<time>2026-07-13T10:25:25.000Z</time>
</trkpt>
<trkpt lat="56.397633" lon="8.121611">
<ele>-2.224421</ele>
<time>2026-07-13T10:25:26.000Z</time>
</trkpt>
<trkpt lat="56.397694" lon="8.121615">
<ele>-2.243047</ele>
<time>2026-07-13T10:25:27.000Z</time>
</trkpt>
<trkpt lat="56.397755" lon="8.121619">
<ele>-2.261673</ele>
<time>2026-07-13T10:25:28.000Z</time>
</trkpt>
<trkpt lat="56.397820" lon="8.121624">
<ele>-2.281525</ele>
<time>2026-07-13T10:25:29.000Z</time>
</trkpt>
<trkpt lat="56.397881" lon="8.121628">
<ele>-2.300151</ele>
<time>2026-07-13T10:25:30.000Z</time>
</trkpt>
<trkpt lat="56.397942" lon="8.121631">
<ele>-2.318772</ele>
<time>2026-07-13T10:25:31.000Z</time>
</trkpt>
<trkpt lat="56.398006" lon="8.121635">
<ele>-2.338313</ele>
<time>2026-07-13T10:25:32.000Z</time>
</trkpt>
<trkpt lat="56.398064" lon="8.121640">
<ele>-2.356032</ele>
<time>2026-07-13T10:25:33.000Z</time>
</trkpt>
<trkpt lat="56.398125" lon="8.121646">
<ele>-2.374673</ele>
<time>2026-07-13T10:25:34.000Z</time>
</trkpt>
<trkpt lat="56.398190" lon="8.121655">
<ele>-2.394566</ele>
<time>2026-07-13T10:25:35.000Z</time>
</trkpt>
<trkpt lat="56.398254" lon="8.121662">
<ele>-2.414131</ele>
<time>2026-07-13T10:25:36.000Z</time>
</trkpt>
<trkpt lat="56.398312" lon="8.121666">
<ele>-2.431842</ele>
<time>2026-07-13T10:25:37.000Z</time>
</trkpt>
<trkpt lat="56.398373" lon="8.121669">
<ele>-2.450463</ele>
<time>2026-07-13T10:25:38.000Z</time>
</trkpt>
<trkpt lat="56.398441" lon="8.121674">
<ele>-2.471230</ele>
<time>2026-07-13T10:25:39.000Z</time>
</trkpt>
<trkpt lat="56.398502" lon="8.121678">
<ele>-2.488571</ele>
<time>2026-07-13T10:25:40.000Z</time>
</trkpt>
<trkpt lat="56.398563" lon="8.121683">
<ele>-2.494895</ele>
<time>2026-07-13T10:25:41.000Z</time>
</trkpt>
<trkpt lat="56.398624" lon="8.121690">
<ele>-2.501225</ele>
<time>2026-07-13T10:25:42.000Z</time>
</trkpt>
<trkpt lat="56.398682" lon="8.121696">
<ele>-2.507241</ele>
<time>2026-07-13T10:25:43.000Z</time>
</trkpt>
<trkpt lat="56.398739" lon="8.121700">
<ele>-2.513148</ele>
<time>2026-07-13T10:25:44.000Z</time>
</trkpt>
<trkpt lat="56.398800" lon="8.121704">
<ele>-2.519469</ele>
<time>2026-07-13T10:25:45.000Z</time>
</trkpt>
<trkpt lat="56.398861" lon="8.121709">
<ele>-2.525793</ele>
<time>2026-07-13T10:25:46.000Z</time>
</trkpt>
<trkpt lat="56.398922" lon="8.121714">
<ele>-2.532117</ele>
<time>2026-07-13T10:25:47.000Z</time>
</trkpt>
<trkpt lat="56.398979" lon="8.121718">
<ele>-2.538024</ele>
<time>2026-07-13T10:25:48.000Z</time>
</trkpt>
<trkpt lat="56.399040" lon="8.121722">
<ele>-2.544345</ele>
<time>2026-07-13T10:25:49.000Z</time>
</trkpt>
<trkpt lat="56.399101" lon="8.121726">
<ele>-2.550667</ele>
<time>2026-07-13T10:25:50.000Z</time>
</trkpt>
<trkpt lat="56.399162" lon="8.121729">
<ele>-2.556986</ele>
<time>2026-07-13T10:25:51.000Z</time>
</trkpt>
<trkpt lat="56.399220" lon="8.121734">
<ele>-2.562999</ele>
<time>2026-07-13T10:25:52.000Z</time>
</trkpt>
<trkpt lat="56.399277" lon="8.121738">
<ele>-2.568907</ele>
<time>2026-07-13T10:25:53.000Z</time>
</trkpt>
<trkpt lat="56.399342" lon="8.121742">
<ele>-2.575642</ele>
<time>2026-07-13T10:25:54.000Z</time>
</trkpt>
<trkpt lat="56.399399" lon="8.121746">
<ele>-2.581549</ele>
<time>2026-07-13T10:25:55.000Z</time>
</trkpt>
<trkpt lat="56.399460" lon="8.121749">
<ele>-2.587869</ele>
<time>2026-07-13T10:25:56.000Z</time>
</trkpt>
<trkpt lat="56.399517" lon="8.121754">
<ele>-2.593779</ele>
<time>2026-07-13T10:25:57.000Z</time>
</trkpt>
<trkpt lat="56.399570" lon="8.121759">
<ele>-2.599275</ele>
<time>2026-07-13T10:25:58.000Z</time>
</trkpt>
<trkpt lat="56.399635" lon="8.121765">
<ele>-2.606015</ele>
<time>2026-07-13T10:25:59.000Z</time>
</trkpt>
<trkpt lat="56.399696" lon="8.121771">
<ele>-2.612341</ele>
<time>2026-07-13T10:26:00.000Z</time>
</trkpt>
<trkpt lat="56.399757" lon="8.121775">
<ele>-2.618663</ele>
<time>2026-07-13T10:26:01.000Z</time>
</trkpt>
<trkpt lat="56.399815" lon="8.121778">
<ele>-2.624672</ele>
<time>2026-07-13T10:26:02.000Z</time>
</trkpt>
<trkpt lat="56.399876" lon="8.121780">
<ele>-2.630990</ele>
<time>2026-07-13T10:26:03.000Z</time>
</trkpt>
<trkpt lat="56.399937" lon="8.121785">
<ele>-2.637313</ele>
<time>2026-07-13T10:26:04.000Z</time>
</trkpt>
<trkpt lat="56.399998" lon="8.121789">
<ele>-2.643635</ele>
<time>2026-07-13T10:26:05.000Z</time>
</trkpt>
<trkpt lat="56.400059" lon="8.121791">
<ele>-2.649953</ele>
<time>2026-07-13T10:26:06.000Z</time>
</trkpt>
<trkpt lat="56.400116" lon="8.121794">
<ele>-2.655858</ele>
<time>2026-07-13T10:26:07.000Z</time>
</trkpt>
<trkpt lat="56.400177" lon="8.121799">
<ele>-2.662182</ele>
<time>2026-07-13T10:26:08.000Z</time>
</trkpt>
<trkpt lat="56.400242" lon="8.121805">
<ele>-2.668922</ele>
<time>2026-07-13T10:26:09.000Z</time>
</trkpt>
<trkpt lat="56.400303" lon="8.121810">
<ele>-2.670788</ele>
<time>2026-07-13T10:26:10.000Z</time>
</trkpt>
<trkpt lat="56.400360" lon="8.121815">
<ele>-2.652039</ele>
<time>2026-07-13T10:26:11.000Z</time>
</trkpt>
<trkpt lat="56.400421" lon="8.121819">
<ele>-2.631985</ele>
<time>2026-07-13T10:26:12.000Z</time>
</trkpt>
<trkpt lat="56.400486" lon="8.121822">
<ele>-2.610623</ele>
<time>2026-07-13T10:26:13.000Z</time>
</trkpt>
<trkpt lat="56.400547" lon="8.121826">
<ele>-2.590568</ele>
<time>2026-07-13T10:26:14.000Z</time>
</trkpt>
<trkpt lat="56.400608" lon="8.121829">
<ele>-2.570520</ele>
<time>2026-07-13T10:26:15.000Z</time>
</trkpt>
<trkpt lat="56.400665" lon="8.121834">
<ele>-2.551771</ele>
<time>2026-07-13T10:26:16.000Z</time>
</trkpt>
<trkpt lat="56.400723" lon="8.121839">
<ele>-2.532694</ele>
<time>2026-07-13T10:26:17.000Z</time>
</trkpt>
<trkpt lat="56.400784" lon="8.121843">
<ele>-2.512639</ele>
<time>2026-07-13T10:26:18.000Z</time>
</trkpt>
<trkpt lat="56.400848" lon="8.121848">
<ele>-2.491593</ele>
<time>2026-07-13T10:26:19.000Z</time>
</trkpt>
<trkpt lat="56.400906" lon="8.121854">
<ele>-2.472506</ele>
<time>2026-07-13T10:26:20.000Z</time>
</trkpt>
<trkpt lat="56.400967" lon="8.121860">
<ele>-2.452436</ele>
<time>2026-07-13T10:26:21.000Z</time>
</trkpt>
<trkpt lat="56.401028" lon="8.121864">
<ele>-2.432381</ele>
<time>2026-07-13T10:26:22.000Z</time>
</trkpt>
<trkpt lat="56.401085" lon="8.121867">
<ele>-2.413647</ele>
<time>2026-07-13T10:26:23.000Z</time>
</trkpt>
<trkpt lat="56.401146" lon="8.121871">
<ele>-2.393592</ele>
<time>2026-07-13T10:26:24.000Z</time>
</trkpt>
<trkpt lat="56.401207" lon="8.121873">
<ele>-2.373548</ele>
<time>2026-07-13T10:26:25.000Z</time>
</trkpt>
<trkpt lat="56.401268" lon="8.121877">
<ele>-2.353494</ele>
<time>2026-07-13T10:26:26.000Z</time>
</trkpt>
<trkpt lat="56.401325" lon="8.121881">
<ele>-2.334753</ele>
<time>2026-07-13T10:26:27.000Z</time>
</trkpt>
<trkpt lat="56.401386" lon="8.121884">
<ele>-2.314704</ele>
<time>2026-07-13T10:26:28.000Z</time>
</trkpt>
<trkpt lat="56.401443" lon="8.121889">
<ele>-2.295955</ele>
<time>2026-07-13T10:26:29.000Z</time>
</trkpt>
<trkpt lat="56.401504" lon="8.121895">
<ele>-2.275884</ele>
<time>2026-07-13T10:26:30.000Z</time>
</trkpt>
<trkpt lat="56.401566" lon="8.121901">
<ele>-2.255485</ele>
<time>2026-07-13T10:26:31.000Z</time>
</trkpt>
<trkpt lat="56.401623" lon="8.121905">
<ele>-2.236744</ele>
<time>2026-07-13T10:26:32.000Z</time>
</trkpt>
<trkpt lat="56.401676" lon="8.121909">
<ele>-2.219316</ele>
<time>2026-07-13T10:26:33.000Z</time>
</trkpt>
<trkpt lat="56.401749" lon="8.121915">
<ele>-2.195308</ele>
<time>2026-07-13T10:26:34.000Z</time>
</trkpt>
<trkpt lat="56.401810" lon="8.121921">
<ele>-2.175237</ele>
<time>2026-07-13T10:26:35.000Z</time>
</trkpt>
<trkpt lat="56.401871" lon="8.121924">
<ele>-2.155189</ele>
<time>2026-07-13T10:26:36.000Z</time>
</trkpt>
<trkpt lat="56.401924" lon="8.121928">
<ele>-2.137761</ele>
<time>2026-07-13T10:26:37.000Z</time>
</trkpt>
<trkpt lat="56.401985" lon="8.121934">
<ele>-2.117690</ele>
<time>2026-07-13T10:26:38.000Z</time>
</trkpt>
<trkpt lat="56.402050" lon="8.121941">
<ele>-2.096297</ele>
<time>2026-07-13T10:26:39.000Z</time>
</trkpt>
<trkpt lat="56.402111" lon="8.121945">
<ele>-2.087756</ele>
<time>2026-07-13T10:26:40.000Z</time>
</trkpt>
<trkpt lat="56.402172" lon="8.121950">
<ele>-2.100674</ele>
<time>2026-07-13T10:26:41.000Z</time>
</trkpt>
<trkpt lat="56.402233" lon="8.121954">
<ele>-2.113587</ele>
<time>2026-07-13T10:26:42.000Z</time>
</trkpt>
<trkpt lat="56.402294" lon="8.121958">
<ele>-2.126500</ele>
<time>2026-07-13T10:26:43.000Z</time>
</trkpt>
<trkpt lat="56.402359" lon="8.121962">
<ele>-2.140259</ele>
<time>2026-07-13T10:26:44.000Z</time>
</trkpt>
<trkpt lat="56.402420" lon="8.121967">
<ele>-2.153176</ele>
<time>2026-07-13T10:26:45.000Z</time>
</trkpt>
<trkpt lat="56.402481" lon="8.121972">
<ele>-2.166094</ele>
<time>2026-07-13T10:26:46.000Z</time>
</trkpt>
<trkpt lat="56.402542" lon="8.121976">
<ele>-2.179007</ele>
<time>2026-07-13T10:26:47.000Z</time>
</trkpt>
<trkpt lat="56.402599" lon="8.121980">
<ele>-2.191074</ele>
<time>2026-07-13T10:26:48.000Z</time>
</trkpt>
<trkpt lat="56.402664" lon="8.121984">
<ele>-2.204833</ele>
<time>2026-07-13T10:26:49.000Z</time>
</trkpt>
<trkpt lat="56.402721" lon="8.121987">
<ele>-2.216896</ele>
<time>2026-07-13T10:26:50.000Z</time>
</trkpt>
<trkpt lat="56.402782" lon="8.121991">
<ele>-2.229809</ele>
<time>2026-07-13T10:26:51.000Z</time>
</trkpt>
<trkpt lat="56.402844" lon="8.121994">
<ele>-2.242930</ele>
<time>2026-07-13T10:26:52.000Z</time>
</trkpt>
<trkpt lat="56.402901" lon="8.121999">
<ele>-2.255003</ele>
<time>2026-07-13T10:26:53.000Z</time>
</trkpt>
<trkpt lat="56.402962" lon="8.122003">
<ele>-2.267915</ele>
<time>2026-07-13T10:26:54.000Z</time>
</trkpt>
<trkpt lat="56.403023" lon="8.122005">
<ele>-2.280822</ele>
<time>2026-07-13T10:26:55.000Z</time>
</trkpt>
<trkpt lat="56.403084" lon="8.122008">
<ele>-2.293731</ele>
<time>2026-07-13T10:26:56.000Z</time>
</trkpt>
<trkpt lat="56.403141" lon="8.122013">
<ele>-2.305804</ele>
<time>2026-07-13T10:26:57.000Z</time>
</trkpt>
<trkpt lat="56.403194" lon="8.122018">
<ele>-2.317031</ele>
<time>2026-07-13T10:26:58.000Z</time>
</trkpt>
<trkpt lat="56.403255" lon="8.122025">
<ele>-2.329962</ele>
<time>2026-07-13T10:26:59.000Z</time>
</trkpt>
<trkpt lat="56.403324" lon="8.122032">
<ele>-2.344581</ele>
<time>2026-07-13T10:27:00.000Z</time>
</trkpt>
<trkpt lat="56.403381" lon="8.122036">
<ele>-2.356649</ele>
<time>2026-07-13T10:27:01.000Z</time>
</trkpt>
<trkpt lat="56.403446" lon="8.122039">
<ele>-2.370404</ele>
<time>2026-07-13T10:27:02.000Z</time>
</trkpt>
<trkpt lat="56.403496" lon="8.122042">
<ele>-2.380987</ele>
<time>2026-07-13T10:27:03.000Z</time>
</trkpt>
<trkpt lat="56.403564" lon="8.122046">
<ele>-2.395380</ele>
<time>2026-07-13T10:27:04.000Z</time>
</trkpt>
<trkpt lat="56.403629" lon="8.122052">
<ele>-2.409149</ele>
<time>2026-07-13T10:27:05.000Z</time>
</trkpt>
<trkpt lat="56.403687" lon="8.122057">
<ele>-2.421432</ele>
<time>2026-07-13T10:27:06.000Z</time>
</trkpt>
<trkpt lat="56.403748" lon="8.122061">
<ele>-2.434345</ele>
<time>2026-07-13T10:27:07.000Z</time>
</trkpt>
<trkpt lat="56.403809" lon="8.122067">
<ele>-2.447269</ele>
<time>2026-07-13T10:27:08.000Z</time>
</trkpt>
<trkpt lat="56.403866" lon="8.122072">
<ele>-2.459341</ele>
<time>2026-07-13T10:27:09.000Z</time>
</trkpt>
<trkpt lat="56.403923" lon="8.122077">
<ele>-2.466286</ele>
<time>2026-07-13T10:27:10.000Z</time>
</trkpt>
<trkpt lat="56.403984" lon="8.122081">
<ele>-2.470562</ele>
<time>2026-07-13T10:27:11.000Z</time>
</trkpt>
<trkpt lat="56.404041" lon="8.122084">
<ele>-2.474557</ele>
<time>2026-07-13T10:27:12.000Z</time>
</trkpt>
<trkpt lat="56.404099" lon="8.122084">
<ele>-2.478620</ele>
<time>2026-07-13T10:27:13.000Z</time>
</trkpt>
<trkpt lat="56.404160" lon="8.122086">
<ele>-2.482894</ele>
<time>2026-07-13T10:27:14.000Z</time>
</trkpt>
<trkpt lat="56.404217" lon="8.122091">
<ele>-2.486891</ele>
<time>2026-07-13T10:27:15.000Z</time>
</trkpt>
<trkpt lat="56.404278" lon="8.122097">
<ele>-2.491171</ele>
<time>2026-07-13T10:27:16.000Z</time>
</trkpt>
<trkpt lat="56.404335" lon="8.122101">
<ele>-2.495167</ele>
<time>2026-07-13T10:27:17.000Z</time>
</trkpt>
<trkpt lat="56.404392" lon="8.122106">
<ele>-2.499165</ele>
<time>2026-07-13T10:27:18.000Z</time>
</trkpt>
<trkpt lat="56.404449" lon="8.122112">
<ele>-2.503165</ele>
<time>2026-07-13T10:27:19.000Z</time>
</trkpt>
<trkpt lat="56.404510" lon="8.122118">
<ele>-2.507444</ele>
<time>2026-07-13T10:27:20.000Z</time>
</trkpt>
<trkpt lat="56.404572" lon="8.122121">
<ele>-2.511789</ele>
<time>2026-07-13T10:27:21.000Z</time>
</trkpt>
<trkpt lat="56.404625" lon="8.122125">
<ele>-2.515505</ele>
<time>2026-07-13T10:27:22.000Z</time>
</trkpt>
<trkpt lat="56.404667" lon="8.122127">
<ele>-2.518448</ele>
<time>2026-07-13T10:27:23.000Z</time>
</trkpt>
<trkpt lat="56.404751" lon="8.122133">
<ele>-2.524337</ele>
<time>2026-07-13T10:27:24.000Z</time>
</trkpt>
<trkpt lat="56.404812" lon="8.122138">
<ele>-2.528615</ele>
<time>2026-07-13T10:27:25.000Z</time>
</trkpt>
<trkpt lat="56.404869" lon="8.122141">
<ele>-2.532610</ele>
<time>2026-07-13T10:27:26.000Z</time>
</trkpt>
<trkpt lat="56.404922" lon="8.122143">
<ele>-2.536324</ele>
<time>2026-07-13T10:27:27.000Z</time>
</trkpt>
<trkpt lat="56.404987" lon="8.122145">
<ele>-2.540878</ele>
<time>2026-07-13T10:27:28.000Z</time>
</trkpt>
<trkpt lat="56.405048" lon="8.122150">
<ele>-2.545155</ele>
<time>2026-07-13T10:27:29.000Z</time>
</trkpt>
<trkpt lat="56.405109" lon="8.122157">
<ele>-2.549437</ele>
<time>2026-07-13T10:27:30.000Z</time>
</trkpt>
<trkpt lat="56.405167" lon="8.122163">
<ele>-2.553507</ele>
<time>2026-07-13T10:27:31.000Z</time>
</trkpt>
<trkpt lat="56.405228" lon="8.122168">
<ele>-2.557785</ele>
<time>2026-07-13T10:27:32.000Z</time>
</trkpt>
<trkpt lat="56.405289" lon="8.122171">
<ele>-2.562059</ele>
<time>2026-07-13T10:27:33.000Z</time>
</trkpt>
<trkpt lat="56.405346" lon="8.122174">
<ele>-2.566054</ele>
<time>2026-07-13T10:27:34.000Z</time>
</trkpt>
<trkpt lat="56.405407" lon="8.122178">
<ele>-2.570330</ele>
<time>2026-07-13T10:27:35.000Z</time>
</trkpt>
<trkpt lat="56.405464" lon="8.122181">
<ele>-2.574325</ele>
<time>2026-07-13T10:27:36.000Z</time>
</trkpt>
<trkpt lat="56.405525" lon="8.122186">
<ele>-2.578603</ele>
<time>2026-07-13T10:27:37.000Z</time>
</trkpt>
<trkpt lat="56.405582" lon="8.122190">
<ele>-2.582599</ele>
<time>2026-07-13T10:27:38.000Z</time>
</trkpt>
<trkpt lat="56.405640" lon="8.122195">
<ele>-2.586666</ele>
<time>2026-07-13T10:27:39.000Z</time>
</trkpt>
<trkpt lat="56.405701" lon="8.122203">
<ele>-2.591802</ele>
<time>2026-07-13T10:27:40.000Z</time>
</trkpt>
<trkpt lat="56.405762" lon="8.122211">
<ele>-2.599116</ele>
<time>2026-07-13T10:27:41.000Z</time>
</trkpt>
<trkpt lat="56.405819" lon="8.122215">
<ele>-2.605938</ele>
<time>2026-07-13T10:27:42.000Z</time>
</trkpt>
<trkpt lat="56.405880" lon="8.122220">
<ele>-2.613241</ele>
<time>2026-07-13T10:27:43.000Z</time>
</trkpt>
<trkpt lat="56.405941" lon="8.122224">
<ele>-2.620542</ele>
<time>2026-07-13T10:27:44.000Z</time>
</trkpt>
<trkpt lat="56.406002" lon="8.122229">
<ele>-2.627844</ele>
<time>2026-07-13T10:27:45.000Z</time>
</trkpt>
<trkpt lat="56.406059" lon="8.122232">
<ele>-2.634664</ele>
<time>2026-07-13T10:27:46.000Z</time>
</trkpt>
<trkpt lat="56.406120" lon="8.122236">
<ele>-2.641965</ele>
<time>2026-07-13T10:27:47.000Z</time>
</trkpt>
<trkpt lat="56.406177" lon="8.122239">
<ele>-2.648785</ele>
<time>2026-07-13T10:27:48.000Z</time>
</trkpt>
<trkpt lat="56.406227" lon="8.122244">
<ele>-2.654774</ele>
<time>2026-07-13T10:27:49.000Z</time>
</trkpt>
<trkpt lat="56.406296" lon="8.122252">
<ele>-2.663043</ele>
<time>2026-07-13T10:27:50.000Z</time>
</trkpt>
<trkpt lat="56.406357" lon="8.122257">
<ele>-2.670346</ele>
<time>2026-07-13T10:27:51.000Z</time>
</trkpt>
<trkpt lat="56.406422" lon="8.122262">
<ele>-2.678126</ele>
<time>2026-07-13T10:27:52.000Z</time>
</trkpt>
<trkpt lat="56.406479" lon="8.122267">
<ele>-2.684952</ele>
<time>2026-07-13T10:27:53.000Z</time>
</trkpt>
<trkpt lat="56.406540" lon="8.122271">
<ele>-2.692252</ele>
<time>2026-07-13T10:27:54.000Z</time>
</trkpt>
<trkpt lat="56.406597" lon="8.122275">
<ele>-2.699074</ele>
<time>2026-07-13T10:27:55.000Z</time>
</trkpt>
<trkpt lat="56.406658" lon="8.122280">
<ele>-2.706377</ele>
<time>2026-07-13T10:27:56.000Z</time>
</trkpt>
<trkpt lat="56.406715" lon="8.122285">
<ele>-2.713202</ele>
<time>2026-07-13T10:27:57.000Z</time>
</trkpt>
<trkpt lat="56.406773" lon="8.122291">
<ele>-2.720150</ele>
<time>2026-07-13T10:27:58.000Z</time>
</trkpt>
<trkpt lat="56.406826" lon="8.122294">
<ele>-2.726492</ele>
<time>2026-07-13T10:27:59.000Z</time>
</trkpt>
<trkpt lat="56.406887" lon="8.122299">
<ele>-2.733795</ele>
<time>2026-07-13T10:28:00.000Z</time>
</trkpt>
<trkpt lat="56.406948" lon="8.122300">
<ele>-2.741090</ele>
<time>2026-07-13T10:28:01.000Z</time>
</trkpt>
<trkpt lat="56.407009" lon="8.122300">
<ele>-2.748386</ele>
<time>2026-07-13T10:28:02.000Z</time>
</trkpt>
<trkpt lat="56.407066" lon="8.122300">
<ele>-2.755203</ele>
<time>2026-07-13T10:28:03.000Z</time>
</trkpt>
<trkpt lat="56.407127" lon="8.122300">
<ele>-2.762498</ele>
<time>2026-07-13T10:28:04.000Z</time>
</trkpt>
<trkpt lat="56.407188" lon="8.122300">
<ele>-2.769794</ele>
<time>2026-07-13T10:28:05.000Z</time>
</trkpt>
<trkpt lat="56.407249" lon="8.122301">
<ele>-2.777089</ele>
<time>2026-07-13T10:28:06.000Z</time>
</trkpt>
<trkpt lat="56.407310" lon="8.122304">
<ele>-2.784387</ele>
<time>2026-07-13T10:28:07.000Z</time>
</trkpt>
<trkpt lat="56.407371" lon="8.122306">
<ele>-2.791684</ele>
<time>2026-07-13T10:28:08.000Z</time>
</trkpt>
<trkpt lat="56.407433" lon="8.122310">
<ele>-2.799104</ele>
<time>2026-07-13T10:28:09.000Z</time>
</trkpt>
<trkpt lat="56.407494" lon="8.122313">
<ele>-2.803942</ele>
<time>2026-07-13T10:28:10.000Z</time>
</trkpt>
<trkpt lat="56.407555" lon="8.122316">
<ele>-2.799589</ele>
<time>2026-07-13T10:28:11.000Z</time>
</trkpt>
<trkpt lat="56.407620" lon="8.122321">
<ele>-2.794949</ele>
<time>2026-07-13T10:28:12.000Z</time>
</trkpt>
<trkpt lat="56.407684" lon="8.122332">
<ele>-2.790364</ele>
<time>2026-07-13T10:28:13.000Z</time>
</trkpt>
<trkpt lat="56.407738" lon="8.122343">
<ele>-2.786488</ele>
<time>2026-07-13T10:28:14.000Z</time>
</trkpt>
<trkpt lat="56.407787" lon="8.122353">
<ele>-2.782971</ele>
<time>2026-07-13T10:28:15.000Z</time>
</trkpt>
<trkpt lat="56.407867" lon="8.122362">
<ele>-2.777255</ele>
<time>2026-07-13T10:28:16.000Z</time>
</trkpt>
<trkpt lat="56.407925" lon="8.122369">
<ele>-2.773109</ele>
<time>2026-07-13T10:28:17.000Z</time>
</trkpt>
<trkpt lat="56.407982" lon="8.122374">
<ele>-2.769039</ele>
<time>2026-07-13T10:28:18.000Z</time>
</trkpt>
<trkpt lat="56.408043" lon="8.122377">
<ele>-2.764687</ele>
<time>2026-07-13T10:28:19.000Z</time>
</trkpt>
<trkpt lat="56.408100" lon="8.122382">
<ele>-2.760616</ele>
<time>2026-07-13T10:28:20.000Z</time>
</trkpt>
<trkpt lat="56.408161" lon="8.122387">
<ele>-2.756261</ele>
<time>2026-07-13T10:28:21.000Z</time>
</trkpt>
<trkpt lat="56.408222" lon="8.122392">
<ele>-2.751906</ele>
<time>2026-07-13T10:28:22.000Z</time>
</trkpt>
<trkpt lat="56.408283" lon="8.122395">
<ele>-2.747554</ele>
<time>2026-07-13T10:28:23.000Z</time>
</trkpt>
<trkpt lat="56.408340" lon="8.122398">
<ele>-2.743487</ele>
<time>2026-07-13T10:28:24.000Z</time>
</trkpt>
<trkpt lat="56.408398" lon="8.122402">
<ele>-2.739347</ele>
<time>2026-07-13T10:28:25.000Z</time>
</trkpt>
<trkpt lat="56.408459" lon="8.122407">
<ele>-2.734992</ele>
<time>2026-07-13T10:28:26.000Z</time>
</trkpt>
<trkpt lat="56.408520" lon="8.122412">
<ele>-2.730637</ele>
<time>2026-07-13T10:28:27.000Z</time>
</trkpt>
<trkpt lat="56.408577" lon="8.122416">
<ele>-2.726569</ele>
<time>2026-07-13T10:28:28.000Z</time>
</trkpt>
<trkpt lat="56.408638" lon="8.122422">
<ele>-2.722212</ele>
<time>2026-07-13T10:28:29.000Z</time>
</trkpt>
<trkpt lat="56.408695" lon="8.122426">
<ele>-2.718143</ele>
<time>2026-07-13T10:28:30.000Z</time>
</trkpt>
<trkpt lat="56.408756" lon="8.122430">
<ele>-2.713790</ele>
<time>2026-07-13T10:28:31.000Z</time>
</trkpt>
<trkpt lat="56.408814" lon="8.122435">
<ele>-2.709649</ele>
<time>2026-07-13T10:28:32.000Z</time>
</trkpt>
<trkpt lat="56.408875" lon="8.122438">
<ele>-2.705296</ele>
<time>2026-07-13T10:28:33.000Z</time>
</trkpt>
<trkpt lat="56.408932" lon="8.122442">
<ele>-2.701228</ele>
<time>2026-07-13T10:28:34.000Z</time>
</trkpt>
<trkpt lat="56.408993" lon="8.122447">
<ele>-2.696873</ele>
<time>2026-07-13T10:28:35.000Z</time>
</trkpt>
<trkpt lat="56.409054" lon="8.122454">
<ele>-2.692514</ele>
<time>2026-07-13T10:28:36.000Z</time>
</trkpt>
<trkpt lat="56.409115" lon="8.122458">
<ele>-2.688160</ele>
<time>2026-07-13T10:28:37.000Z</time>
</trkpt>
<trkpt lat="56.409172" lon="8.122463">
<ele>-2.684090</ele>
<time>2026-07-13T10:28:38.000Z</time>
</trkpt>
<trkpt lat="56.409225" lon="8.122468">
<ele>-2.680305</ele>
<time>2026-07-13T10:28:39.000Z</time>
</trkpt>
<trkpt lat="56.409290" lon="8.122472">
<ele>-2.679712</ele>
<time>2026-07-13T10:28:40.000Z</time>
</trkpt>
<trkpt lat="56.409351" lon="8.122477">
<ele>-2.694659</ele>
<time>2026-07-13T10:28:41.000Z</time>
</trkpt>
<trkpt lat="56.409412" lon="8.122481">
<ele>-2.709600</ele>
<time>2026-07-13T10:28:42.000Z</time>
</trkpt>
<trkpt lat="56.409470" lon="8.122484">
<ele>-2.723803</ele>
<time>2026-07-13T10:28:43.000Z</time>
</trkpt>
<trkpt lat="56.409531" lon="8.122486">
<ele>-2.738738</ele>
<time>2026-07-13T10:28:44.000Z</time>
</trkpt>
<trkpt lat="56.409592" lon="8.122490">
<ele>-2.753679</ele>
<time>2026-07-13T10:28:45.000Z</time>
</trkpt>
<trkpt lat="56.409657" lon="8.122496">
<ele>-2.769611</ele>
<time>2026-07-13T10:28:46.000Z</time>
</trkpt>
<trkpt lat="56.409718" lon="8.122502">
<ele>-2.784564</ele>
<time>2026-07-13T10:28:47.000Z</time>
</trkpt>
<trkpt lat="56.409779" lon="8.122506">
<ele>-2.799506</ele>
<time>2026-07-13T10:28:48.000Z</time>
</trkpt>
<trkpt lat="56.409840" lon="8.122509">
<ele>-2.814443</ele>
<time>2026-07-13T10:28:49.000Z</time>
</trkpt>
<trkpt lat="56.409905" lon="8.122511">
<ele>-2.830356</ele>
<time>2026-07-13T10:28:50.000Z</time>
</trkpt>
<trkpt lat="56.409966" lon="8.122516">
<ele>-2.845303</ele>
<time>2026-07-13T10:28:51.000Z</time>
</trkpt>
<trkpt lat="56.410027" lon="8.122520">
<ele>-2.860245</ele>
<time>2026-07-13T10:28:52.000Z</time>
</trkpt>
<trkpt lat="56.410091" lon="8.122525">
<ele>-2.875925</ele>
<time>2026-07-13T10:28:53.000Z</time>
</trkpt>
<trkpt lat="56.410152" lon="8.122529">
<ele>-2.890867</ele>
<time>2026-07-13T10:28:54.000Z</time>
</trkpt>
<trkpt lat="56.410213" lon="8.122533">
<ele>-2.905808</ele>
<time>2026-07-13T10:28:55.000Z</time>
</trkpt>
<trkpt lat="56.410274" lon="8.122537">
<ele>-2.920750</ele>
<time>2026-07-13T10:28:56.000Z</time>
</trkpt>
<trkpt lat="56.410336" lon="8.122542">
<ele>-2.935941</ele>
<time>2026-07-13T10:28:57.000Z</time>
</trkpt>
<trkpt lat="56.410397" lon="8.122547">
<ele>-2.950888</ele>
<time>2026-07-13T10:28:58.000Z</time>
</trkpt>
<trkpt lat="56.410461" lon="8.122551">
<ele>-2.966564</ele>
<time>2026-07-13T10:28:59.000Z</time>
</trkpt>
<trkpt lat="56.410522" lon="8.122555">
<ele>-2.981505</ele>
<time>2026-07-13T10:29:00.000Z</time>
</trkpt>
<trkpt lat="56.410584" lon="8.122560">
<ele>-2.996697</ele>
<time>2026-07-13T10:29:01.000Z</time>
</trkpt>
<trkpt lat="56.410648" lon="8.122565">
<ele>-3.012378</ele>
<time>2026-07-13T10:29:02.000Z</time>
</trkpt>
<trkpt lat="56.410709" lon="8.122571">
<ele>-3.027331</ele>
<time>2026-07-13T10:29:03.000Z</time>
</trkpt>
<trkpt lat="56.410774" lon="8.122577">
<ele>-3.043263</ele>
<time>2026-07-13T10:29:04.000Z</time>
</trkpt>
<trkpt lat="56.410831" lon="8.122582">
<ele>-3.057232</ele>
<time>2026-07-13T10:29:05.000Z</time>
</trkpt>
<trkpt lat="56.410889" lon="8.122586">
<ele>-3.071439</ele>
<time>2026-07-13T10:29:06.000Z</time>
</trkpt>
<trkpt lat="56.410961" lon="8.122589">
<ele>-3.089068</ele>
<time>2026-07-13T10:29:07.000Z</time>
</trkpt>
<trkpt lat="56.411018" lon="8.122594">
<ele>-3.103037</ele>
<time>2026-07-13T10:29:08.000Z</time>
</trkpt>
<trkpt lat="56.411079" lon="8.122601">
<ele>-3.118091</ele>
<time>2026-07-13T10:29:09.000Z</time>
</trkpt>
<trkpt lat="56.411140" lon="8.122604">
<ele>-3.134228</ele>
<time>2026-07-13T10:29:10.000Z</time>
</trkpt>
<trkpt lat="56.411202" lon="8.122607">
<ele>-3.150629</ele>
<time>2026-07-13T10:29:11.000Z</time>
</trkpt>
<trkpt lat="56.411263" lon="8.122612">
<ele>-3.166776</ele>
<time>2026-07-13T10:29:12.000Z</time>
</trkpt>
<trkpt lat="56.411320" lon="8.122617">
<ele>-3.181867</ele>
<time>2026-07-13T10:29:13.000Z</time>
</trkpt>
<trkpt lat="56.411385" lon="8.122622">
<ele>-3.199071</ele>
<time>2026-07-13T10:29:14.000Z</time>
</trkpt>
<trkpt lat="56.411446" lon="8.122629">
<ele>-3.215234</ele>
<time>2026-07-13T10:29:15.000Z</time>
</trkpt>
<trkpt lat="56.411507" lon="8.122634">
<ele>-3.231381</ele>
<time>2026-07-13T10:29:16.000Z</time>
</trkpt>
<trkpt lat="56.411564" lon="8.122639">
<ele>-3.246472</ele>
<time>2026-07-13T10:29:17.000Z</time>
</trkpt>
<trkpt lat="56.411625" lon="8.122643">
<ele>-3.262613</ele>
<time>2026-07-13T10:29:18.000Z</time>
</trkpt>
<trkpt lat="56.411690" lon="8.122647">
<ele>-3.279812</ele>
<time>2026-07-13T10:29:19.000Z</time>
</trkpt>
<trkpt lat="56.411747" lon="8.122652">
<ele>-3.294902</ele>
<time>2026-07-13T10:29:20.000Z</time>
</trkpt>
<trkpt lat="56.411808" lon="8.122657">
<ele>-3.311050</ele>
<time>2026-07-13T10:29:21.000Z</time>
</trkpt>
<trkpt lat="56.411869" lon="8.122661">
<ele>-3.327191</ele>
<time>2026-07-13T10:29:22.000Z</time>
</trkpt>
<trkpt lat="56.411930" lon="8.122664">
<ele>-3.343328</ele>
<time>2026-07-13T10:29:23.000Z</time>
</trkpt>
<trkpt lat="56.411987" lon="8.122667">
<ele>-3.358407</ele>
<time>2026-07-13T10:29:24.000Z</time>
</trkpt>
<trkpt lat="56.412048" lon="8.122671">
<ele>-3.374548</ele>
<time>2026-07-13T10:29:25.000Z</time>
</trkpt>
<trkpt lat="56.412106" lon="8.122675">
<ele>-3.389897</ele>
<time>2026-07-13T10:29:26.000Z</time>
</trkpt>
<trkpt lat="56.412163" lon="8.122680">
<ele>-3.404988</ele>
<time>2026-07-13T10:29:27.000Z</time>
</trkpt>
<trkpt lat="56.412224" lon="8.122684">
<ele>-3.421129</ele>
<time>2026-07-13T10:29:28.000Z</time>
</trkpt>
<trkpt lat="56.412285" lon="8.122688">
<ele>-3.437270</ele>
<time>2026-07-13T10:29:29.000Z</time>
</trkpt>
<trkpt lat="56.412346" lon="8.122693">
<ele>-3.453417</ele>
<time>2026-07-13T10:29:30.000Z</time>
</trkpt>
<trkpt lat="56.412403" lon="8.122696">
<ele>-3.468497</ele>
<time>2026-07-13T10:29:31.000Z</time>
</trkpt>
<trkpt lat="56.412453" lon="8.122701">
<ele>-3.481739</ele>
<time>2026-07-13T10:29:32.000Z</time>
</trkpt>
<trkpt lat="56.412525" lon="8.122705">
<ele>-3.500787</ele>
<time>2026-07-13T10:29:33.000Z</time>
</trkpt>
<trkpt lat="56.412582" lon="8.122710">
<ele>-3.515878</ele>
<time>2026-07-13T10:29:34.000Z</time>
</trkpt>
<trkpt lat="56.412643" lon="8.122715">
<ele>-3.532025</ele>
<time>2026-07-13T10:29:35.000Z</time>
</trkpt>
<trkpt lat="56.412708" lon="8.122720">
<ele>-3.549229</ele>
<time>2026-07-13T10:29:36.000Z</time>
</trkpt>
<trkpt lat="56.412765" lon="8.122726">
<ele>-3.564328</ele>
<time>2026-07-13T10:29:37.000Z</time>
</trkpt>
<trkpt lat="56.412823" lon="8.122729">
<ele>-3.579672</ele>
<time>2026-07-13T10:29:38.000Z</time>
</trkpt>
<trkpt lat="56.412884" lon="8.122732">
<ele>-3.595235</ele>
<time>2026-07-13T10:29:39.000Z</time>
</trkpt>
<trkpt lat="56.412945" lon="8.122736">
<ele>-3.608591</ele>
<time>2026-07-13T10:29:40.000Z</time>
</trkpt>
<trkpt lat="56.413002" lon="8.122740">
<ele>-3.621074</ele>
<time>2026-07-13T10:29:41.000Z</time>
</trkpt>
<trkpt lat="56.413063" lon="8.122746">
<ele>-3.634441</ele>
<time>2026-07-13T10:29:42.000Z</time>
</trkpt>
<trkpt lat="56.413120" lon="8.122750">
<ele>-3.646924</ele>
<time>2026-07-13T10:29:43.000Z</time>
</trkpt>
<trkpt lat="56.413181" lon="8.122755">
<ele>-3.660285</ele>
<time>2026-07-13T10:29:44.000Z</time>
</trkpt>
<trkpt lat="56.413242" lon="8.122760">
<ele>-3.673647</ele>
<time>2026-07-13T10:29:45.000Z</time>
</trkpt>
<trkpt lat="56.413303" lon="8.122766">
<ele>-3.687015</ele>
<time>2026-07-13T10:29:46.000Z</time>
</trkpt>
<trkpt lat="56.413361" lon="8.122770">
<ele>-3.699716</ele>
<time>2026-07-13T10:29:47.000Z</time>
</trkpt>
<trkpt lat="56.413422" lon="8.122774">
<ele>-3.713073</ele>
<time>2026-07-13T10:29:48.000Z</time>
</trkpt>
<trkpt lat="56.413483" lon="8.122779">
<ele>-3.726435</ele>
<time>2026-07-13T10:29:49.000Z</time>
</trkpt>
<trkpt lat="56.413540" lon="8.122783">
<ele>-3.738917</ele>
<time>2026-07-13T10:29:50.000Z</time>
</trkpt>
<trkpt lat="56.413605" lon="8.122786">
<ele>-3.753145</ele>
<time>2026-07-13T10:29:51.000Z</time>
</trkpt>
<trkpt lat="56.413666" lon="8.122790">
<ele>-3.766502</ele>
<time>2026-07-13T10:29:52.000Z</time>
</trkpt>
<trkpt lat="56.413727" lon="8.122795">
<ele>-3.779864</ele>
<time>2026-07-13T10:29:53.000Z</time>
</trkpt>
<trkpt lat="56.413784" lon="8.122800">
<ele>-3.792351</ele>
<time>2026-07-13T10:29:54.000Z</time>
</trkpt>
<trkpt lat="56.413849" lon="8.122806">
<ele>-3.806593</ele>
<time>2026-07-13T10:29:55.000Z</time>
</trkpt>
<trkpt lat="56.413906" lon="8.122809">
<ele>-3.819071</ele>
<time>2026-07-13T10:29:56.000Z</time>
</trkpt>
<trkpt lat="56.413971" lon="8.122813">
<ele>-3.833303</ele>
<time>2026-07-13T10:29:57.000Z</time>
</trkpt>
<trkpt lat="56.414032" lon="8.122818">
<ele>-3.846664</ele>
<time>2026-07-13T10:29:58.000Z</time>
</trkpt>
<trkpt lat="56.414093" lon="8.122823">
<ele>-3.860026</ele>
<time>2026-07-13T10:29:59.000Z</time>
</trkpt>
<trkpt lat="56.414154" lon="8.122829">
<ele>-3.873394</ele>
<time>2026-07-13T10:30:00.000Z</time>
</trkpt>
<trkpt lat="56.414215" lon="8.122832">
<ele>-3.886747</ele>
<time>2026-07-13T10:30:01.000Z</time>
</trkpt>
<trkpt lat="56.414276" lon="8.122836">
<ele>-3.900104</ele>
<time>2026-07-13T10:30:02.000Z</time>
</trkpt>
<trkpt lat="56.414333" lon="8.122840">
<ele>-3.912586</ele>
<time>2026-07-13T10:30:03.000Z</time>
</trkpt>
<trkpt lat="56.414394" lon="8.122844">
<ele>-3.925943</ele>
<time>2026-07-13T10:30:04.000Z</time>
</trkpt>
<trkpt lat="56.414455" lon="8.122846">
<ele>-3.939293</ele>
<time>2026-07-13T10:30:05.000Z</time>
</trkpt>
<trkpt lat="56.414513" lon="8.122849">
<ele>-3.951990</ele>
<time>2026-07-13T10:30:06.000Z</time>
</trkpt>
<trkpt lat="56.414574" lon="8.122853">
<ele>-3.965347</ele>
<time>2026-07-13T10:30:07.000Z</time>
</trkpt>
<trkpt lat="56.414631" lon="8.122859">
<ele>-3.977841</ele>
<time>2026-07-13T10:30:08.000Z</time>
</trkpt>
<trkpt lat="56.414688" lon="8.122864">
<ele>-3.984632</ele>
<time>2026-07-13T10:30:09.000Z</time>
</trkpt>
<trkpt lat="56.414749" lon="8.122869">
<ele>-3.980144</ele>
<time>2026-07-13T10:30:10.000Z</time>
</trkpt>
<trkpt lat="56.414810" lon="8.122873">
<ele>-3.975658</ele>
<time>2026-07-13T10:30:11.000Z</time>
</trkpt>
<trkpt lat="56.414871" lon="8.122879">
<ele>-3.971168</ele>
<time>2026-07-13T10:30:12.000Z</time>
</trkpt>
<trkpt lat="56.414932" lon="8.122883">
<ele>-3.966682</ele>
<time>2026-07-13T10:30:13.000Z</time>
</trkpt>
<trkpt lat="56.414993" lon="8.122887">
<ele>-3.962196</ele>
<time>2026-07-13T10:30:14.000Z</time>
</trkpt>
<trkpt lat="56.415054" lon="8.122891">
<ele>-3.957710</ele>
<time>2026-07-13T10:30:15.000Z</time>
</trkpt>
<trkpt lat="56.415112" lon="8.122897">
<ele>-3.953440</ele>
<time>2026-07-13T10:30:16.000Z</time>
</trkpt>
<trkpt lat="56.415173" lon="8.122901">
<ele>-3.948954</ele>
<time>2026-07-13T10:30:17.000Z</time>
</trkpt>
<trkpt lat="56.415230" lon="8.122903">
<ele>-3.944764</ele>
<time>2026-07-13T10:30:18.000Z</time>
</trkpt>
<trkpt lat="56.415291" lon="8.122906">
<ele>-3.940279</ele>
<time>2026-07-13T10:30:19.000Z</time>
</trkpt>
<trkpt lat="56.415352" lon="8.122910">
<ele>-3.935793</ele>
<time>2026-07-13T10:30:20.000Z</time>
</trkpt>
<trkpt lat="56.415409" lon="8.122914">
<ele>-3.931600</ele>
<time>2026-07-13T10:30:21.000Z</time>
</trkpt>
<trkpt lat="56.415466" lon="8.122920">
<ele>-3.927404</ele>
<time>2026-07-13T10:30:22.000Z</time>
</trkpt>
<trkpt lat="56.415535" lon="8.122927">
<ele>-3.922325</ele>
<time>2026-07-13T10:30:23.000Z</time>
</trkpt>
<trkpt lat="56.415592" lon="8.122933">
<ele>-3.918128</ele>
<time>2026-07-13T10:30:24.000Z</time>
</trkpt>
<trkpt lat="56.415653" lon="8.122937">
<ele>-3.913642</ele>
<time>2026-07-13T10:30:25.000Z</time>
</trkpt>
<trkpt lat="56.415718" lon="8.122942">
<ele>-3.908861</ele>
<time>2026-07-13T10:30:26.000Z</time>
</trkpt>
<trkpt lat="56.415775" lon="8.122946">
<ele>-3.904668</ele>
<time>2026-07-13T10:30:27.000Z</time>
</trkpt>
<trkpt lat="56.415836" lon="8.122951">
<ele>-3.900180</ele>
<time>2026-07-13T10:30:28.000Z</time>
</trkpt>
<trkpt lat="56.415894" lon="8.122954">
<ele>-3.895916</ele>
<time>2026-07-13T10:30:29.000Z</time>
</trkpt>
<trkpt lat="56.415955" lon="8.122958">
<ele>-3.891430</ele>
<time>2026-07-13T10:30:30.000Z</time>
</trkpt>
<trkpt lat="56.416019" lon="8.122963">
<ele>-3.886722</ele>
<time>2026-07-13T10:30:31.000Z</time>
</trkpt>
<trkpt lat="56.416077" lon="8.122966">
<ele>-3.882457</ele>
<time>2026-07-13T10:30:32.000Z</time>
</trkpt>
<trkpt lat="56.416141" lon="8.122969">
<ele>-3.877752</ele>
<time>2026-07-13T10:30:33.000Z</time>
</trkpt>
<trkpt lat="56.416199" lon="8.122973">
<ele>-3.873486</ele>
<time>2026-07-13T10:30:34.000Z</time>
</trkpt>
<trkpt lat="56.416260" lon="8.122979">
<ele>-3.868996</ele>
<time>2026-07-13T10:30:35.000Z</time>
</trkpt>
<trkpt lat="56.416321" lon="8.122986">
<ele>-3.864504</ele>
<time>2026-07-13T10:30:36.000Z</time>
</trkpt>
<trkpt lat="56.416382" lon="8.122992">
<ele>-3.860014</ele>
<time>2026-07-13T10:30:37.000Z</time>
</trkpt>
<trkpt lat="56.416443" lon="8.122997">
<ele>-3.855526</ele>
<time>2026-07-13T10:30:38.000Z</time>
</trkpt>
<trkpt lat="56.416504" lon="8.123001">
<ele>-3.849833</ele>
<time>2026-07-13T10:30:39.000Z</time>
</trkpt>
<trkpt lat="56.416565" lon="8.123004">
<ele>-3.843436</ele>
<time>2026-07-13T10:30:40.000Z</time>
</trkpt>
<trkpt lat="56.416626" lon="8.123008">
<ele>-3.837038</ele>
<time>2026-07-13T10:30:41.000Z</time>
</trkpt>
<trkpt lat="56.416687" lon="8.123011">
<ele>-3.830641</ele>
<time>2026-07-13T10:30:42.000Z</time>
</trkpt>
<trkpt lat="56.416748" lon="8.123016">
<ele>-3.824240</ele>
<time>2026-07-13T10:30:43.000Z</time>
</trkpt>
<trkpt lat="56.416805" lon="8.123022">
<ele>-3.818255</ele>
<time>2026-07-13T10:30:44.000Z</time>
</trkpt>
<trkpt lat="56.416866" lon="8.123027">
<ele>-3.811854</ele>
<time>2026-07-13T10:30:45.000Z</time>
</trkpt>
<trkpt lat="56.416927" lon="8.123032">
<ele>-3.805453</ele>
<time>2026-07-13T10:30:46.000Z</time>
</trkpt>
<trkpt lat="56.416988" lon="8.123037">
<ele>-3.799052</ele>
<time>2026-07-13T10:30:47.000Z</time>
</trkpt>
<trkpt lat="56.417046" lon="8.123041">
<ele>-3.792968</ele>
<time>2026-07-13T10:30:48.000Z</time>
</trkpt>
<trkpt lat="56.417099" lon="8.123044">
<ele>-3.787409</ele>
<time>2026-07-13T10:30:49.000Z</time>
</trkpt>
<trkpt lat="56.417171" lon="8.123048">
<ele>-3.779858</ele>
<time>2026-07-13T10:30:50.000Z</time>
</trkpt>
<trkpt lat="56.417233" lon="8.123051">
<ele>-3.773357</ele>
<time>2026-07-13T10:30:51.000Z</time>
</trkpt>
<trkpt lat="56.417290" lon="8.123055">
<ele>-3.767377</ele>
<time>2026-07-13T10:30:52.000Z</time>
</trkpt>
<trkpt lat="56.417355" lon="8.123060">
<ele>-3.760557</ele>
<time>2026-07-13T10:30:53.000Z</time>
</trkpt>
<trkpt lat="56.417412" lon="8.123065">
<ele>-3.754575</ele>
<time>2026-07-13T10:30:54.000Z</time>
</trkpt>
<trkpt lat="56.417477" lon="8.123071">
<ele>-3.747753</ele>
<time>2026-07-13T10:30:55.000Z</time>
</trkpt>
<trkpt lat="56.417538" lon="8.123075">
<ele>-3.741354</ele>
<time>2026-07-13T10:30:56.000Z</time>
</trkpt>
<trkpt lat="56.417595" lon="8.123080">
<ele>-3.735372</ele>
<time>2026-07-13T10:30:57.000Z</time>
</trkpt>
<trkpt lat="56.417656" lon="8.123084">
<ele>-3.728974</ele>
<time>2026-07-13T10:30:58.000Z</time>
</trkpt>
<trkpt lat="56.417725" lon="8.123088">
<ele>-3.721737</ele>
<time>2026-07-13T10:30:59.000Z</time>
</trkpt>
<trkpt lat="56.417786" lon="8.123091">
<ele>-3.715340</ele>
<time>2026-07-13T10:31:00.000Z</time>
</trkpt>
<trkpt lat="56.417847" lon="8.123095">
<ele>-3.708942</ele>
<time>2026-07-13T10:31:01.000Z</time>
</trkpt>
<trkpt lat="56.417908" lon="8.123099">
<ele>-3.702543</ele>
<time>2026-07-13T10:31:02.000Z</time>
</trkpt>
<trkpt lat="56.417969" lon="8.123102">
<ele>-3.696146</ele>
<time>2026-07-13T10:31:03.000Z</time>
</trkpt>
<trkpt lat="56.418030" lon="8.123106">
<ele>-3.689748</ele>
<time>2026-07-13T10:31:04.000Z</time>
</trkpt>
<trkpt lat="56.418091" lon="8.123109">
<ele>-3.683351</ele>
<time>2026-07-13T10:31:05.000Z</time>
</trkpt>
<trkpt lat="56.418152" lon="8.123114">
<ele>-3.676950</ele>
<time>2026-07-13T10:31:06.000Z</time>
</trkpt>
<trkpt lat="56.418213" lon="8.123119">
<ele>-3.670549</ele>
<time>2026-07-13T10:31:07.000Z</time>
</trkpt>
<trkpt lat="56.418270" lon="8.123127">
<ele>-3.666275</ele>
<time>2026-07-13T10:31:08.000Z</time>
</trkpt>
<trkpt lat="56.418331" lon="8.123131">
<ele>-3.674116</ele>
<time>2026-07-13T10:31:09.000Z</time>
</trkpt>
<trkpt lat="56.418392" lon="8.123136">
<ele>-3.681960</ele>
<time>2026-07-13T10:31:10.000Z</time>
</trkpt>
<trkpt lat="56.418453" lon="8.123140">
<ele>-3.689801</ele>
<time>2026-07-13T10:31:11.000Z</time>
</trkpt>
<trkpt lat="56.418514" lon="8.123145">
<ele>-3.697645</ele>
<time>2026-07-13T10:31:12.000Z</time>
</trkpt>
<trkpt lat="56.418568" lon="8.123151">
<ele>-3.704595</ele>
<time>2026-07-13T10:31:13.000Z</time>
</trkpt>
<trkpt lat="56.418632" lon="8.123155">
<ele>-3.712822</ele>
<time>2026-07-13T10:31:14.000Z</time>
</trkpt>
<trkpt lat="56.418686" lon="8.123158">
<ele>-3.719762</ele>
<time>2026-07-13T10:31:15.000Z</time>
</trkpt>
<trkpt lat="56.418758" lon="8.123162">
<ele>-3.729015</ele>
<time>2026-07-13T10:31:16.000Z</time>
</trkpt>
<trkpt lat="56.418819" lon="8.123167">
<ele>-3.736859</ele>
<time>2026-07-13T10:31:17.000Z</time>
</trkpt>
<trkpt lat="56.418880" lon="8.123172">
<ele>-3.744704</ele>
<time>2026-07-13T10:31:18.000Z</time>
</trkpt>
<trkpt lat="56.418938" lon="8.123176">
<ele>-3.752160</ele>
<time>2026-07-13T10:31:19.000Z</time>
</trkpt>
<trkpt lat="56.418999" lon="8.123180">
<ele>-3.760001</ele>
<time>2026-07-13T10:31:20.000Z</time>
</trkpt>
<trkpt lat="56.419060" lon="8.123184">
<ele>-3.767842</ele>
<time>2026-07-13T10:31:21.000Z</time>
</trkpt>
<trkpt lat="56.419121" lon="8.123189">
<ele>-3.775686</ele>
<time>2026-07-13T10:31:22.000Z</time>
</trkpt>
<trkpt lat="56.419182" lon="8.123193">
<ele>-3.783527</ele>
<time>2026-07-13T10:31:23.000Z</time>
</trkpt>
<trkpt lat="56.419239" lon="8.123197">
<ele>-3.790855</ele>
<time>2026-07-13T10:31:24.000Z</time>
</trkpt>
<trkpt lat="56.419296" lon="8.123202">
<ele>-3.798186</ele>
<time>2026-07-13T10:31:25.000Z</time>
</trkpt>
<trkpt lat="56.419357" lon="8.123207">
<ele>-3.806030</ele>
<time>2026-07-13T10:31:26.000Z</time>
</trkpt>
<trkpt lat="56.419418" lon="8.123212">
<ele>-3.813874</ele>
<time>2026-07-13T10:31:27.000Z</time>
</trkpt>
<trkpt lat="56.419483" lon="8.123217">
<ele>-3.822232</ele>
<time>2026-07-13T10:31:28.000Z</time>
</trkpt>
<trkpt lat="56.419544" lon="8.123223">
<ele>-3.830079</ele>
<time>2026-07-13T10:31:29.000Z</time>
</trkpt>
<trkpt lat="56.419605" lon="8.123229">
<ele>-3.837927</ele>
<time>2026-07-13T10:31:30.000Z</time>
</trkpt>
<trkpt lat="56.419666" lon="8.123233">
<ele>-3.845768</ele>
<time>2026-07-13T10:31:31.000Z</time>
</trkpt>
<trkpt lat="56.419731" lon="8.123236">
<ele>-3.854121</ele>
<time>2026-07-13T10:31:32.000Z</time>
</trkpt>
<trkpt lat="56.419788" lon="8.123241">
<ele>-3.861452</ele>
<time>2026-07-13T10:31:33.000Z</time>
</trkpt>
<trkpt lat="56.419849" lon="8.123247">
<ele>-3.869299</ele>
<time>2026-07-13T10:31:34.000Z</time>
</trkpt>
<trkpt lat="56.419910" lon="8.123254">
<ele>-3.877151</ele>
<time>2026-07-13T10:31:35.000Z</time>
</trkpt>
<trkpt lat="56.419972" lon="8.123259">
<ele>-3.885124</ele>
<time>2026-07-13T10:31:36.000Z</time>
</trkpt>
<trkpt lat="56.420033" lon="8.123263">
<ele>-3.892965</ele>
<time>2026-07-13T10:31:37.000Z</time>
</trkpt>
<trkpt lat="56.420090" lon="8.123268">
<ele>-3.897694</ele>
<time>2026-07-13T10:31:38.000Z</time>
</trkpt>
<trkpt lat="56.420151" lon="8.123274">
<ele>-3.900323</ele>
<time>2026-07-13T10:31:39.000Z</time>
</trkpt>
<trkpt lat="56.420212" lon="8.123278">
<ele>-3.902951</ele>
<time>2026-07-13T10:31:40.000Z</time>
</trkpt>
<trkpt lat="56.420265" lon="8.123282">
<ele>-3.905234</ele>
<time>2026-07-13T10:31:41.000Z</time>
</trkpt>
<trkpt lat="56.420338" lon="8.123289">
<ele>-3.908381</ele>
<time>2026-07-13T10:31:42.000Z</time>
</trkpt>
<trkpt lat="56.420399" lon="8.123294">
<ele>-3.911010</ele>
<time>2026-07-13T10:31:43.000Z</time>
</trkpt>
<trkpt lat="56.420460" lon="8.123299">
<ele>-3.913638</ele>
<time>2026-07-13T10:31:44.000Z</time>
</trkpt>
<trkpt lat="56.420521" lon="8.123302">
<ele>-3.916265</ele>
<time>2026-07-13T10:31:45.000Z</time>
</trkpt>
<trkpt lat="56.420582" lon="8.123306">
<ele>-3.918892</ele>
<time>2026-07-13T10:31:46.000Z</time>
</trkpt>
<trkpt lat="56.420639" lon="8.123309">
<ele>-3.921347</ele>
<time>2026-07-13T10:31:47.000Z</time>
</trkpt>
<trkpt lat="56.420700" lon="8.123313">
<ele>-3.923975</ele>
<time>2026-07-13T10:31:48.000Z</time>
</trkpt>
<trkpt lat="56.420757" lon="8.123316">
<ele>-3.926429</ele>
<time>2026-07-13T10:31:49.000Z</time>
</trkpt>
<trkpt lat="56.420818" lon="8.123321">
<ele>-3.929058</ele>
<time>2026-07-13T10:31:50.000Z</time>
</trkpt>
<trkpt lat="56.420876" lon="8.123327">
<ele>-3.931559</ele>
<time>2026-07-13T10:31:51.000Z</time>
</trkpt>
<trkpt lat="56.420940" lon="8.123333">
<ele>-3.934317</ele>
<time>2026-07-13T10:31:52.000Z</time>
</trkpt>
<trkpt lat="56.420998" lon="8.123336">
<ele>-3.936815</ele>
<time>2026-07-13T10:31:53.000Z</time>
</trkpt>
<trkpt lat="56.421055" lon="8.123341">
<ele>-3.939271</ele>
<time>2026-07-13T10:31:54.000Z</time>
</trkpt>
<trkpt lat="56.421116" lon="8.123345">
<ele>-3.941899</ele>
<time>2026-07-13T10:31:55.000Z</time>
</trkpt>
<trkpt lat="56.421177" lon="8.123351">
<ele>-3.944529</ele>
<time>2026-07-13T10:31:56.000Z</time>
</trkpt>
<trkpt lat="56.421238" lon="8.123355">
<ele>-3.947156</ele>
<time>2026-07-13T10:31:57.000Z</time>
</trkpt>
<trkpt lat="56.421299" lon="8.123361">
<ele>-3.949786</ele>
<time>2026-07-13T10:31:58.000Z</time>
</trkpt>
<trkpt lat="56.421364" lon="8.123365">
<ele>-3.952585</ele>
<time>2026-07-13T10:31:59.000Z</time>
</trkpt>
<trkpt lat="56.421425" lon="8.123369">
<ele>-3.955213</ele>
<time>2026-07-13T10:32:00.000Z</time>
</trkpt>
<trkpt lat="56.421486" lon="8.123374">
<ele>-3.957841</ele>
<time>2026-07-13T10:32:01.000Z</time>
</trkpt>
<trkpt lat="56.421543" lon="8.123380">
<ele>-3.960299</ele>
<time>2026-07-13T10:32:02.000Z</time>
</trkpt>
<trkpt lat="56.421604" lon="8.123385">
<ele>-3.962928</ele>
<time>2026-07-13T10:32:03.000Z</time>
</trkpt>
<trkpt lat="56.421665" lon="8.123390">
<ele>-3.965556</ele>
<time>2026-07-13T10:32:04.000Z</time>
</trkpt>
<trkpt lat="56.421722" lon="8.123394">
<ele>-3.968012</ele>
<time>2026-07-13T10:32:05.000Z</time>
</trkpt>
<trkpt lat="56.421780" lon="8.123398">
<ele>-3.970510</ele>
<time>2026-07-13T10:32:06.000Z</time>
</trkpt>
<trkpt lat="56.421841" lon="8.123400">
<ele>-3.973136</ele>
<time>2026-07-13T10:32:07.000Z</time>
</trkpt>
<trkpt lat="56.421894" lon="8.123403">
<ele>-3.981409</ele>
<time>2026-07-13T10:32:08.000Z</time>
</trkpt>
<trkpt lat="56.421963" lon="8.123410">
<ele>-3.995435</ele>
<time>2026-07-13T10:32:09.000Z</time>
</trkpt>
<trkpt lat="56.422020" lon="8.123416">
<ele>-4.007024</ele>
<time>2026-07-13T10:32:10.000Z</time>
</trkpt>
<trkpt lat="56.422085" lon="8.123422">
<ele>-4.020234</ele>
<time>2026-07-13T10:32:11.000Z</time>
</trkpt>
<trkpt lat="56.422146" lon="8.123426">
<ele>-4.032623</ele>
<time>2026-07-13T10:32:12.000Z</time>
</trkpt>
<trkpt lat="56.422211" lon="8.123431">
<ele>-4.045827</ele>
<time>2026-07-13T10:32:13.000Z</time>
</trkpt>
<trkpt lat="56.422268" lon="8.123434">
<ele>-4.057401</ele>
<time>2026-07-13T10:32:14.000Z</time>
</trkpt>
<trkpt lat="56.422333" lon="8.123437">
<ele>-4.070598</ele>
<time>2026-07-13T10:32:15.000Z</time>
</trkpt>
<trkpt lat="56.422390" lon="8.123441">
<ele>-4.082176</ele>
<time>2026-07-13T10:32:16.000Z</time>
</trkpt>
<trkpt lat="56.422451" lon="8.123446">
<ele>-4.094570</ele>
<time>2026-07-13T10:32:17.000Z</time>
</trkpt>
<trkpt lat="56.422516" lon="8.123453">
<ele>-4.107786</ele>
<time>2026-07-13T10:32:18.000Z</time>
</trkpt>
<trkpt lat="56.422581" lon="8.123458">
<ele>-4.120990</ele>
<time>2026-07-13T10:32:19.000Z</time>
</trkpt>
<trkpt lat="56.422642" lon="8.123462">
<ele>-4.133379</ele>
<time>2026-07-13T10:32:20.000Z</time>
</trkpt>
<trkpt lat="56.422703" lon="8.123466">
<ele>-4.145768</ele>
<time>2026-07-13T10:32:21.000Z</time>
</trkpt>
<trkpt lat="56.422768" lon="8.123471">
<ele>-4.158973</ele>
<time>2026-07-13T10:32:22.000Z</time>
</trkpt>
<trkpt lat="56.422825" lon="8.123475">
<ele>-4.170551</ele>
<time>2026-07-13T10:32:23.000Z</time>
</trkpt>
<trkpt lat="56.422890" lon="8.123480">
<ele>-4.183756</ele>
<time>2026-07-13T10:32:24.000Z</time>
</trkpt>
<trkpt lat="56.422951" lon="8.123485">
<ele>-4.196149</ele>
<time>2026-07-13T10:32:25.000Z</time>
</trkpt>
<trkpt lat="56.423012" lon="8.123488">
<ele>-4.208535</ele>
<time>2026-07-13T10:32:26.000Z</time>
</trkpt>
<trkpt lat="56.423069" lon="8.123491">
<ele>-4.220108</ele>
<time>2026-07-13T10:32:27.000Z</time>
</trkpt>
<trkpt lat="56.423130" lon="8.123495">
<ele>-4.232497</ele>
<time>2026-07-13T10:32:28.000Z</time>
</trkpt>
<trkpt lat="56.423191" lon="8.123499">
<ele>-4.244886</ele>
<time>2026-07-13T10:32:29.000Z</time>
</trkpt>
<trkpt lat="56.423252" lon="8.123503">
<ele>-4.257275</ele>
<time>2026-07-13T10:32:30.000Z</time>
</trkpt>
<trkpt lat="56.423321" lon="8.123508">
<ele>-4.271291</ele>
<time>2026-07-13T10:32:31.000Z</time>
</trkpt>
<trkpt lat="56.423382" lon="8.123513">
<ele>-4.283685</ele>
<time>2026-07-13T10:32:32.000Z</time>
</trkpt>
<trkpt lat="56.423443" lon="8.123519">
<ele>-4.296084</ele>
<time>2026-07-13T10:32:33.000Z</time>
</trkpt>
<trkpt lat="56.423508" lon="8.123523">
<ele>-4.309284</ele>
<time>2026-07-13T10:32:34.000Z</time>
</trkpt>
<trkpt lat="56.423569" lon="8.123527">
<ele>-4.321673</ele>
<time>2026-07-13T10:32:35.000Z</time>
</trkpt>
<trkpt lat="56.423630" lon="8.123532">
<ele>-4.334067</ele>
<time>2026-07-13T10:32:36.000Z</time>
</trkpt>
<trkpt lat="56.423695" lon="8.123536">
<ele>-4.333769</ele>
<time>2026-07-13T10:32:37.000Z</time>
</trkpt>
<trkpt lat="56.423756" lon="8.123540">
<ele>-4.326247</ele>
<time>2026-07-13T10:32:38.000Z</time>
</trkpt>
<trkpt lat="56.423817" lon="8.123545">
<ele>-4.318723</ele>
<time>2026-07-13T10:32:39.000Z</time>
</trkpt>
<trkpt lat="56.423878" lon="8.123549">
<ele>-4.311201</ele>
<time>2026-07-13T10:32:40.000Z</time>
</trkpt>
<trkpt lat="56.423943" lon="8.123553">
<ele>-4.303186</ele>
<time>2026-07-13T10:32:41.000Z</time>
</trkpt>
<trkpt lat="56.424004" lon="8.123559">
<ele>-4.295658</ele>
<time>2026-07-13T10:32:42.000Z</time>
</trkpt>
<trkpt lat="56.424061" lon="8.123564">
<ele>-4.288626</ele>
<time>2026-07-13T10:32:43.000Z</time>
</trkpt>
<trkpt lat="56.424122" lon="8.123568">
<ele>-4.281104</ele>
<time>2026-07-13T10:32:44.000Z</time>
</trkpt>
<trkpt lat="56.424183" lon="8.123572">
<ele>-4.273582</ele>
<time>2026-07-13T10:32:45.000Z</time>
</trkpt>
<trkpt lat="56.424244" lon="8.123577">
<ele>-4.266058</ele>
<time>2026-07-13T10:32:46.000Z</time>
</trkpt>
<trkpt lat="56.424305" lon="8.123582">
<ele>-4.258533</ele>
<time>2026-07-13T10:32:47.000Z</time>
</trkpt>
<trkpt lat="56.424362" lon="8.123587">
<ele>-4.251501</ele>
<time>2026-07-13T10:32:48.000Z</time>
</trkpt>
<trkpt lat="56.424423" lon="8.123592">
<ele>-4.243976</ele>
<time>2026-07-13T10:32:49.000Z</time>
</trkpt>
<trkpt lat="56.424488" lon="8.123598">
<ele>-4.235956</ele>
<time>2026-07-13T10:32:50.000Z</time>
</trkpt>
<trkpt lat="56.424553" lon="8.123603">
<ele>-4.227939</ele>
<time>2026-07-13T10:32:51.000Z</time>
</trkpt>
<trkpt lat="56.424614" lon="8.123606">
<ele>-4.220419</ele>
<time>2026-07-13T10:32:52.000Z</time>
</trkpt>
<trkpt lat="56.424671" lon="8.123610">
<ele>-4.213390</ele>
<time>2026-07-13T10:32:53.000Z</time>
</trkpt>
<trkpt lat="56.424732" lon="8.123613">
<ele>-4.205870</ele>
<time>2026-07-13T10:32:54.000Z</time>
</trkpt>
<trkpt lat="56.424797" lon="8.123617">
<ele>-4.197856</ele>
<time>2026-07-13T10:32:55.000Z</time>
</trkpt>
<trkpt lat="56.424858" lon="8.123621">
<ele>-4.190334</ele>
<time>2026-07-13T10:32:56.000Z</time>
</trkpt>
<trkpt lat="56.424923" lon="8.123624">
<ele>-4.182321</ele>
<time>2026-07-13T10:32:57.000Z</time>
</trkpt>
<trkpt lat="56.424980" lon="8.123629">
<ele>-4.175289</ele>
<time>2026-07-13T10:32:58.000Z</time>
</trkpt>
<trkpt lat="56.425041" lon="8.123633">
<ele>-4.167767</ele>
<time>2026-07-13T10:32:59.000Z</time>
</trkpt>
<trkpt lat="56.425106" lon="8.123638">
<ele>-4.159750</ele>
<time>2026-07-13T10:33:00.000Z</time>
</trkpt>
<trkpt lat="56.425171" lon="8.123644">
<ele>-4.151730</ele>
<time>2026-07-13T10:33:01.000Z</time>
</trkpt>
<trkpt lat="56.425232" lon="8.123650">
<ele>-4.144202</ele>
<time>2026-07-13T10:33:02.000Z</time>
</trkpt>
<trkpt lat="56.425293" lon="8.123654">
<ele>-4.136680</ele>
<time>2026-07-13T10:33:03.000Z</time>
</trkpt>
<trkpt lat="56.425350" lon="8.123658">
<ele>-4.129651</ele>
<time>2026-07-13T10:33:04.000Z</time>
</trkpt>
<trkpt lat="56.425415" lon="8.123664">
<ele>-4.121630</ele>
<time>2026-07-13T10:33:05.000Z</time>
</trkpt>
<trkpt lat="56.425472" lon="8.123669">
<ele>-4.110623</ele>
<time>2026-07-13T10:33:06.000Z</time>
</trkpt>
<trkpt lat="56.425537" lon="8.123672">
<ele>-4.090487</ele>
<time>2026-07-13T10:33:07.000Z</time>
</trkpt>
<trkpt lat="56.425594" lon="8.123676">
<ele>-4.072822</ele>
<time>2026-07-13T10:33:08.000Z</time>
</trkpt>
<trkpt lat="56.425655" lon="8.123679">
<ele>-4.053924</ele>
<time>2026-07-13T10:33:09.000Z</time>
</trkpt>
<trkpt lat="56.425720" lon="8.123684">
<ele>-4.033776</ele>
<time>2026-07-13T10:33:10.000Z</time>
</trkpt>
<trkpt lat="56.425777" lon="8.123689">
<ele>-4.016103</ele>
<time>2026-07-13T10:33:11.000Z</time>
</trkpt>
<trkpt lat="56.425838" lon="8.123693">
<ele>-3.997200</ele>
<time>2026-07-13T10:33:12.000Z</time>
</trkpt>
<trkpt lat="56.425900" lon="8.123697">
<ele>-3.977987</ele>
<time>2026-07-13T10:33:13.000Z</time>
</trkpt>
<trkpt lat="56.425957" lon="8.123702">
<ele>-3.960314</ele>
<time>2026-07-13T10:33:14.000Z</time>
</trkpt>
<trkpt lat="56.426018" lon="8.123706">
<ele>-3.941411</ele>
<time>2026-07-13T10:33:15.000Z</time>
</trkpt>
<trkpt lat="56.426075" lon="8.123711">
<ele>-3.923738</ele>
<time>2026-07-13T10:33:16.000Z</time>
</trkpt>
<trkpt lat="56.426136" lon="8.123715">
<ele>-3.904835</ele>
<time>2026-07-13T10:33:17.000Z</time>
</trkpt>
<trkpt lat="56.426193" lon="8.123720">
<ele>-3.887162</ele>
<time>2026-07-13T10:33:18.000Z</time>
</trkpt>
<trkpt lat="56.426254" lon="8.123725">
<ele>-3.868251</ele>
<time>2026-07-13T10:33:19.000Z</time>
</trkpt>
<trkpt lat="56.426315" lon="8.123730">
<ele>-3.849341</ele>
<time>2026-07-13T10:33:20.000Z</time>
</trkpt>
<trkpt lat="56.426373" lon="8.123734">
<ele>-3.831366</ele>
<time>2026-07-13T10:33:21.000Z</time>
</trkpt>
<trkpt lat="56.426434" lon="8.123738">
<ele>-3.812463</ele>
<time>2026-07-13T10:33:22.000Z</time>
</trkpt>
<trkpt lat="56.426487" lon="8.123742">
<ele>-3.796035</ele>
<time>2026-07-13T10:33:23.000Z</time>
</trkpt>
<trkpt lat="56.426537" lon="8.123744">
<ele>-3.780547</ele>
<time>2026-07-13T10:33:24.000Z</time>
</trkpt>
<trkpt lat="56.426605" lon="8.123748">
<ele>-3.759477</ele>
<time>2026-07-13T10:33:25.000Z</time>
</trkpt>
<trkpt lat="56.426662" lon="8.123751">
<ele>-3.741818</ele>
<time>2026-07-13T10:33:26.000Z</time>
</trkpt>
<trkpt lat="56.426723" lon="8.123755">
<ele>-3.722914</ele>
<time>2026-07-13T10:33:27.000Z</time>
</trkpt>
<trkpt lat="56.426781" lon="8.123760">
<ele>-3.704932</ele>
<time>2026-07-13T10:33:28.000Z</time>
</trkpt>
<trkpt lat="56.426842" lon="8.123765">
<ele>-3.686022</ele>
<time>2026-07-13T10:33:29.000Z</time>
</trkpt>
<trkpt lat="56.426903" lon="8.123771">
<ele>-3.667103</ele>
<time>2026-07-13T10:33:30.000Z</time>
</trkpt>
<trkpt lat="56.426960" lon="8.123775">
<ele>-3.649437</ele>
<time>2026-07-13T10:33:31.000Z</time>
</trkpt>
<trkpt lat="56.427017" lon="8.123777">
<ele>-3.631782</ele>
<time>2026-07-13T10:33:32.000Z</time>
</trkpt>
<trkpt lat="56.427082" lon="8.123781">
<ele>-3.611641</ele>
<time>2026-07-13T10:33:33.000Z</time>
</trkpt>
<trkpt lat="56.427139" lon="8.123785">
<ele>-3.593975</ele>
<time>2026-07-13T10:33:34.000Z</time>
</trkpt>
<trkpt lat="56.427200" lon="8.123792">
<ele>-3.575046</ele>
<time>2026-07-13T10:33:35.000Z</time>
</trkpt>
<trkpt lat="56.427258" lon="8.123796">
<ele>-3.562143</ele>
<time>2026-07-13T10:33:36.000Z</time>
</trkpt>
<trkpt lat="56.427319" lon="8.123799">
<ele>-3.573795</ele>
<time>2026-07-13T10:33:37.000Z</time>
</trkpt>
<trkpt lat="56.427380" lon="8.123802">
<ele>-3.585448</ele>
<time>2026-07-13T10:33:38.000Z</time>
</trkpt>
<trkpt lat="56.427437" lon="8.123807">
<ele>-3.596344</ele>
<time>2026-07-13T10:33:39.000Z</time>
</trkpt>
<trkpt lat="56.427498" lon="8.123812">
<ele>-3.608004</ele>
<time>2026-07-13T10:33:40.000Z</time>
</trkpt>
<trkpt lat="56.427555" lon="8.123817">
<ele>-3.618901</ele>
<time>2026-07-13T10:33:41.000Z</time>
</trkpt>
<trkpt lat="56.427612" lon="8.123821">
<ele>-3.629793</ele>
<time>2026-07-13T10:33:42.000Z</time>
</trkpt>
<trkpt lat="56.427673" lon="8.123825">
<ele>-3.641449</ele>
<time>2026-07-13T10:33:43.000Z</time>
</trkpt>
<trkpt lat="56.427731" lon="8.123830">
<ele>-3.652537</ele>
<time>2026-07-13T10:33:44.000Z</time>
</trkpt>
<trkpt lat="56.427788" lon="8.123836">
<ele>-3.663439</ele>
<time>2026-07-13T10:33:45.000Z</time>
</trkpt>
<trkpt lat="56.427849" lon="8.123839">
<ele>-3.675091</ele>
<time>2026-07-13T10:33:46.000Z</time>
</trkpt>
<trkpt lat="56.427910" lon="8.123841">
<ele>-3.686741</ele>
<time>2026-07-13T10:33:47.000Z</time>
</trkpt>
<trkpt lat="56.427963" lon="8.123844">
<ele>-3.696866</ele>
<time>2026-07-13T10:33:48.000Z</time>
</trkpt>
<trkpt lat="56.428017" lon="8.123848">
<ele>-3.707186</ele>
<time>2026-07-13T10:33:49.000Z</time>
</trkpt>
<trkpt lat="56.428089" lon="8.123856">
<ele>-3.720960</ele>
<time>2026-07-13T10:33:50.000Z</time>
</trkpt>
<trkpt lat="56.428146" lon="8.123860">
<ele>-3.731853</ele>
<time>2026-07-13T10:33:51.000Z</time>
</trkpt>
<trkpt lat="56.428207" lon="8.123865">
<ele>-3.743512</ele>
<time>2026-07-13T10:33:52.000Z</time>
</trkpt>
<trkpt lat="56.428265" lon="8.123869">
<ele>-3.754595</ele>
<time>2026-07-13T10:33:53.000Z</time>
</trkpt>
<trkpt lat="56.428326" lon="8.123874">
<ele>-3.766255</ele>
<time>2026-07-13T10:33:54.000Z</time>
</trkpt>
<trkpt lat="56.428387" lon="8.123878">
<ele>-3.777911</ele>
<time>2026-07-13T10:33:55.000Z</time>
</trkpt>
<trkpt lat="56.428444" lon="8.123879">
<ele>-3.788795</ele>
<time>2026-07-13T10:33:56.000Z</time>
</trkpt>
<trkpt lat="56.428505" lon="8.123882">
<ele>-3.800448</ele>
<time>2026-07-13T10:33:57.000Z</time>
</trkpt>
<trkpt lat="56.428566" lon="8.123887">
<ele>-3.812107</ele>
<time>2026-07-13T10:33:58.000Z</time>
</trkpt>
<trkpt lat="56.428627" lon="8.123892">
<ele>-3.823767</ele>
<time>2026-07-13T10:33:59.000Z</time>
</trkpt>
<trkpt lat="56.428688" lon="8.123897">
<ele>-3.835427</ele>
<time>2026-07-13T10:34:00.000Z</time>
</trkpt>
<trkpt lat="56.428749" lon="8.123902">
<ele>-3.847087</ele>
<time>2026-07-13T10:34:01.000Z</time>
</trkpt>
<trkpt lat="56.428806" lon="8.123909">
<ele>-3.857996</ele>
<time>2026-07-13T10:34:02.000Z</time>
</trkpt>
<trkpt lat="56.428867" lon="8.123914">
<ele>-3.869656</ele>
<time>2026-07-13T10:34:03.000Z</time>
</trkpt>
<trkpt lat="56.428928" lon="8.123919">
<ele>-3.881316</ele>
<time>2026-07-13T10:34:04.000Z</time>
</trkpt>
<trkpt lat="56.428986" lon="8.123922">
<ele>-3.892395</ele>
<time>2026-07-13T10:34:05.000Z</time>
</trkpt>
<trkpt lat="56.429050" lon="8.123926">
<ele>-3.904080</ele>
<time>2026-07-13T10:34:06.000Z</time>
</trkpt>
<trkpt lat="56.429111" lon="8.123930">
<ele>-3.909183</ele>
<time>2026-07-13T10:34:07.000Z</time>
</trkpt>
<trkpt lat="56.429169" lon="8.123935">
<ele>-3.914037</ele>
<time>2026-07-13T10:34:08.000Z</time>
</trkpt>
<trkpt lat="56.429230" lon="8.123939">
<ele>-3.919139</ele>
<time>2026-07-13T10:34:09.000Z</time>
</trkpt>
<trkpt lat="56.429291" lon="8.123943">
<ele>-3.924242</ele>
<time>2026-07-13T10:34:10.000Z</time>
</trkpt>
<trkpt lat="56.429348" lon="8.123948">
<ele>-3.929012</ele>
<time>2026-07-13T10:34:11.000Z</time>
</trkpt>
<trkpt lat="56.429409" lon="8.123954">
<ele>-3.934119</ele>
<time>2026-07-13T10:34:12.000Z</time>
</trkpt>
<trkpt lat="56.429470" lon="8.123959">
<ele>-3.939224</ele>
<time>2026-07-13T10:34:13.000Z</time>
</trkpt>
<trkpt lat="56.429531" lon="8.123962">
<ele>-3.944325</ele>
<time>2026-07-13T10:34:14.000Z</time>
</trkpt>
<trkpt lat="56.429588" lon="8.123966">
<ele>-3.949094</ele>
<time>2026-07-13T10:34:15.000Z</time>
</trkpt>
<trkpt lat="56.429649" lon="8.123971">
<ele>-3.954198</ele>
<time>2026-07-13T10:34:16.000Z</time>
</trkpt>
<trkpt lat="56.429707" lon="8.123975">
<ele>-3.959050</ele>
<time>2026-07-13T10:34:17.000Z</time>
</trkpt>
<trkpt lat="56.429768" lon="8.123980">
<ele>-3.964155</ele>
<time>2026-07-13T10:34:18.000Z</time>
</trkpt>
<trkpt lat="56.429829" lon="8.123982">
<ele>-3.969255</ele>
<time>2026-07-13T10:34:19.000Z</time>
</trkpt>
<trkpt lat="56.429890" lon="8.123987">
<ele>-3.974359</ele>
<time>2026-07-13T10:34:20.000Z</time>
</trkpt>
<trkpt lat="56.429947" lon="8.123992">
<ele>-3.979130</ele>
<time>2026-07-13T10:34:21.000Z</time>
</trkpt>
<trkpt lat="56.430008" lon="8.123997">
<ele>-3.984234</ele>
<time>2026-07-13T10:34:22.000Z</time>
</trkpt>
<trkpt lat="56.430069" lon="8.124001">
<ele>-3.989337</ele>
<time>2026-07-13T10:34:23.000Z</time>
</trkpt>
<trkpt lat="56.430130" lon="8.124007">
<ele>-3.994444</ele>
<time>2026-07-13T10:34:24.000Z</time>
</trkpt>
<trkpt lat="56.430191" lon="8.124012">
<ele>-3.999548</ele>
<time>2026-07-13T10:34:25.000Z</time>
</trkpt>
<trkpt lat="56.430252" lon="8.124017">
<ele>-4.004653</ele>
<time>2026-07-13T10:34:26.000Z</time>
</trkpt>
<trkpt lat="56.430313" lon="8.124021">
<ele>-4.009755</ele>
<time>2026-07-13T10:34:27.000Z</time>
</trkpt>
<trkpt lat="56.430370" lon="8.124025">
<ele>-4.014524</ele>
<time>2026-07-13T10:34:28.000Z</time>
</trkpt>
<trkpt lat="56.430431" lon="8.124032">
<ele>-4.019633</ele>
<time>2026-07-13T10:34:29.000Z</time>
</trkpt>
<trkpt lat="56.430496" lon="8.124036">
<ele>-4.025070</ele>
<time>2026-07-13T10:34:30.000Z</time>
</trkpt>
<trkpt lat="56.430557" lon="8.124041">
<ele>-4.030175</ele>
<time>2026-07-13T10:34:31.000Z</time>
</trkpt>
<trkpt lat="56.430618" lon="8.124045">
<ele>-4.035277</ele>
<time>2026-07-13T10:34:32.000Z</time>
</trkpt>
<trkpt lat="56.430679" lon="8.124049">
<ele>-4.040380</ele>
<time>2026-07-13T10:34:33.000Z</time>
</trkpt>
<trkpt lat="56.430737" lon="8.124053">
<ele>-4.045232</ele>
<time>2026-07-13T10:34:34.000Z</time>
</trkpt>
<trkpt lat="56.430798" lon="8.124057">
<ele>-4.050335</ele>
<time>2026-07-13T10:34:35.000Z</time>
</trkpt>
<trkpt lat="56.430855" lon="8.124064">
<ele>-4.057811</ele>
<time>2026-07-13T10:34:36.000Z</time>
</trkpt>
<trkpt lat="56.430912" lon="8.124068">
<ele>-4.074326</ele>
<time>2026-07-13T10:34:37.000Z</time>
</trkpt>
<trkpt lat="56.430969" lon="8.124072">
<ele>-4.090841</ele>
<time>2026-07-13T10:34:38.000Z</time>
</trkpt>
<trkpt lat="56.431030" lon="8.124074">
<ele>-4.108505</ele>
<time>2026-07-13T10:34:39.000Z</time>
</trkpt>
<trkpt lat="56.431084" lon="8.124078">
<ele>-4.124152</ele>
<time>2026-07-13T10:34:40.000Z</time>
</trkpt>
<trkpt lat="56.431133" lon="8.124083">
<ele>-4.138362</ele>
<time>2026-07-13T10:34:41.000Z</time>
</trkpt>
<trkpt lat="56.431194" lon="8.124088">
<ele>-4.156041</ele>
<time>2026-07-13T10:34:42.000Z</time>
</trkpt>
<trkpt lat="56.431252" lon="8.124094">
<ele>-4.172860</ele>
<time>2026-07-13T10:34:43.000Z</time>
</trkpt>
<trkpt lat="56.431309" lon="8.124099">
<ele>-4.189383</ele>
<time>2026-07-13T10:34:44.000Z</time>
</trkpt>
<trkpt lat="56.431366" lon="8.124103">
<ele>-4.205898</ele>
<time>2026-07-13T10:34:45.000Z</time>
</trkpt>
<trkpt lat="56.431427" lon="8.124106">
<ele>-4.223565</ele>
<time>2026-07-13T10:34:46.000Z</time>
</trkpt>
<trkpt lat="56.431484" lon="8.124110">
<ele>-4.240081</ele>
<time>2026-07-13T10:34:47.000Z</time>
</trkpt>
<trkpt lat="56.431538" lon="8.124117">
<ele>-4.255755</ele>
<time>2026-07-13T10:34:48.000Z</time>
</trkpt>
<trkpt lat="56.431599" lon="8.124121">
<ele>-4.273427</ele>
<time>2026-07-13T10:34:49.000Z</time>
</trkpt>
<trkpt lat="56.431656" lon="8.124125">
<ele>-4.289943</ele>
<time>2026-07-13T10:34:50.000Z</time>
</trkpt>
<trkpt lat="56.431717" lon="8.124130">
<ele>-4.307622</ele>
<time>2026-07-13T10:34:51.000Z</time>
</trkpt>
<trkpt lat="56.431774" lon="8.124134">
<ele>-4.324137</ele>
<time>2026-07-13T10:34:52.000Z</time>
</trkpt>
<trkpt lat="56.431831" lon="8.124139">
<ele>-4.340659</ele>
<time>2026-07-13T10:34:53.000Z</time>
</trkpt>
<trkpt lat="56.431889" lon="8.124144">
<ele>-4.357471</ele>
<time>2026-07-13T10:34:54.000Z</time>
</trkpt>
<trkpt lat="56.431946" lon="8.124148">
<ele>-4.373986</ele>
<time>2026-07-13T10:34:55.000Z</time>
</trkpt>
<trkpt lat="56.432003" lon="8.124152">
<ele>-4.390501</ele>
<time>2026-07-13T10:34:56.000Z</time>
</trkpt>
<trkpt lat="56.432060" lon="8.124157">
<ele>-4.407023</ele>
<time>2026-07-13T10:34:57.000Z</time>
</trkpt>
<trkpt lat="56.432117" lon="8.124163">
<ele>-4.423554</ele>
<time>2026-07-13T10:34:58.000Z</time>
</trkpt>
<trkpt lat="56.432175" lon="8.124166">
<ele>-4.440353</ele>
<time>2026-07-13T10:34:59.000Z</time>
</trkpt>
<trkpt lat="56.432236" lon="8.124170">
<ele>-4.458026</ele>
<time>2026-07-13T10:35:00.000Z</time>
</trkpt>
<trkpt lat="56.432293" lon="8.124174">
<ele>-4.474541</ele>
<time>2026-07-13T10:35:01.000Z</time>
</trkpt>
<trkpt lat="56.432350" lon="8.124179">
<ele>-4.491063</ele>
<time>2026-07-13T10:35:02.000Z</time>
</trkpt>
<trkpt lat="56.432411" lon="8.124184">
<ele>-4.508742</ele>
<time>2026-07-13T10:35:03.000Z</time>
</trkpt>
<trkpt lat="56.432472" lon="8.124187">
<ele>-4.526410</ele>
<time>2026-07-13T10:35:04.000Z</time>
</trkpt>
<trkpt lat="56.432529" lon="8.124192">
<ele>-4.542932</ele>
<time>2026-07-13T10:35:05.000Z</time>
</trkpt>
<trkpt lat="56.432587" lon="8.124197">
<ele>-4.559743</ele>
<time>2026-07-13T10:35:06.000Z</time>
</trkpt>
<trkpt lat="56.432644" lon="8.124201">
<ele>-4.574866</ele>
<time>2026-07-13T10:35:07.000Z</time>
</trkpt>
<trkpt lat="56.432697" lon="8.124205">
<ele>-4.575914</ele>
<time>2026-07-13T10:35:08.000Z</time>
</trkpt>
<trkpt lat="56.432766" lon="8.124210">
<ele>-4.577280</ele>
<time>2026-07-13T10:35:09.000Z</time>
</trkpt>
<trkpt lat="56.432823" lon="8.124214">
<ele>-4.578408</ele>
<time>2026-07-13T10:35:10.000Z</time>
</trkpt>
<trkpt lat="56.432884" lon="8.124218">
<ele>-4.579614</ele>
<time>2026-07-13T10:35:11.000Z</time>
</trkpt>
<trkpt lat="56.432941" lon="8.124221">
<ele>-4.580742</ele>
<time>2026-07-13T10:35:12.000Z</time>
</trkpt>
<trkpt lat="56.432999" lon="8.124225">
<ele>-4.581889</ele>
<time>2026-07-13T10:35:13.000Z</time>
</trkpt>
<trkpt lat="56.433060" lon="8.124228">
<ele>-4.583096</ele>
<time>2026-07-13T10:35:14.000Z</time>
</trkpt>
<trkpt lat="56.433121" lon="8.124231">
<ele>-4.584302</ele>
<time>2026-07-13T10:35:15.000Z</time>
</trkpt>
<trkpt lat="56.433178" lon="8.124235">
<ele>-4.585430</ele>
<time>2026-07-13T10:35:16.000Z</time>
</trkpt>
<trkpt lat="56.433235" lon="8.124240">
<ele>-4.586558</ele>
<time>2026-07-13T10:35:17.000Z</time>
</trkpt>
<trkpt lat="56.433292" lon="8.124247">
<ele>-4.587688</ele>
<time>2026-07-13T10:35:18.000Z</time>
</trkpt>
<trkpt lat="56.433353" lon="8.124252">
<ele>-4.588895</ele>
<time>2026-07-13T10:35:19.000Z</time>
</trkpt>
<trkpt lat="56.433414" lon="8.124256">
<ele>-4.590102</ele>
<time>2026-07-13T10:35:20.000Z</time>
</trkpt>
<trkpt lat="56.433472" lon="8.124260">
<ele>-4.591249</ele>
<time>2026-07-13T10:35:21.000Z</time>
</trkpt>
<trkpt lat="56.433529" lon="8.124266">
<ele>-4.592378</ele>
<time>2026-07-13T10:35:22.000Z</time>
</trkpt>
<trkpt lat="56.433586" lon="8.124269">
<ele>-4.593506</ele>
<time>2026-07-13T10:35:23.000Z</time>
</trkpt>
<trkpt lat="56.433647" lon="8.124272">
<ele>-4.594712</ele>
<time>2026-07-13T10:35:24.000Z</time>
</trkpt>
<trkpt lat="56.433708" lon="8.124275">
<ele>-4.595919</ele>
<time>2026-07-13T10:35:25.000Z</time>
</trkpt>
<trkpt lat="56.433765" lon="8.124279">
<ele>-4.597047</ele>
<time>2026-07-13T10:35:26.000Z</time>
</trkpt>
<trkpt lat="56.433826" lon="8.124284">
<ele>-4.598254</ele>
<time>2026-07-13T10:35:27.000Z</time>
</trkpt>
<trkpt lat="56.433887" lon="8.124288">
<ele>-4.599461</ele>
<time>2026-07-13T10:35:28.000Z</time>
</trkpt>
<trkpt lat="56.433945" lon="8.124291">
<ele>-4.600608</ele>
<time>2026-07-13T10:35:29.000Z</time>
</trkpt>
<trkpt lat="56.434006" lon="8.124295">
<ele>-4.601815</ele>
<time>2026-07-13T10:35:30.000Z</time>
</trkpt>
<trkpt lat="56.434067" lon="8.124300">
<ele>-4.603022</ele>
<time>2026-07-13T10:35:31.000Z</time>
</trkpt>
<trkpt lat="56.434124" lon="8.124304">
<ele>-4.604150</ele>
<time>2026-07-13T10:35:32.000Z</time>
</trkpt>
<trkpt lat="56.434174" lon="8.124307">
<ele>-4.605139</ele>
<time>2026-07-13T10:35:33.000Z</time>
</trkpt>
<trkpt lat="56.434246" lon="8.124313">
<ele>-4.606564</ele>
<time>2026-07-13T10:35:34.000Z</time>
</trkpt>
<trkpt lat="56.434311" lon="8.124320">
<ele>-4.607851</ele>
<time>2026-07-13T10:35:35.000Z</time>
</trkpt>
<trkpt lat="56.434368" lon="8.124325">
<ele>-4.608979</ele>
<time>2026-07-13T10:35:36.000Z</time>
</trkpt>
<trkpt lat="56.434429" lon="8.124331">
<ele>-4.610187</ele>
<time>2026-07-13T10:35:37.000Z</time>
</trkpt>
<trkpt lat="56.434490" lon="8.124335">
<ele>-4.587463</ele>
<time>2026-07-13T10:35:38.000Z</time>
</trkpt>
<trkpt lat="56.434547" lon="8.124339">
<ele>-4.563358</ele>
<time>2026-07-13T10:35:39.000Z</time>
</trkpt>
<trkpt lat="56.434608" lon="8.124343">
<ele>-4.537564</ele>
<time>2026-07-13T10:35:40.000Z</time>
</trkpt>
<trkpt lat="56.434662" lon="8.124346">
<ele>-4.514734</ele>
<time>2026-07-13T10:35:41.000Z</time>
</trkpt>
<trkpt lat="56.434734" lon="8.124349">
<ele>-4.484300</ele>
<time>2026-07-13T10:35:42.000Z</time>
</trkpt>
<trkpt lat="56.434795" lon="8.124351">
<ele>-4.458519</ele>
<time>2026-07-13T10:35:43.000Z</time>
</trkpt>
<trkpt lat="56.434856" lon="8.124356">
<ele>-4.432715</ele>
<time>2026-07-13T10:35:44.000Z</time>
</trkpt>
<trkpt lat="56.434917" lon="8.124363">
<ele>-4.406886</ele>
<time>2026-07-13T10:35:45.000Z</time>
</trkpt>
<trkpt lat="56.434975" lon="8.124371">
<ele>-4.382306</ele>
<time>2026-07-13T10:35:46.000Z</time>
</trkpt>
<trkpt lat="56.435036" lon="8.124375">
<ele>-4.356511</ele>
<time>2026-07-13T10:35:47.000Z</time>
</trkpt>
<trkpt lat="56.435097" lon="8.124379">
<ele>-4.330717</ele>
<time>2026-07-13T10:35:48.000Z</time>
</trkpt>
<trkpt lat="56.435158" lon="8.124384">
<ele>-4.304914</ele>
<time>2026-07-13T10:35:49.000Z</time>
</trkpt>
<trkpt lat="56.435219" lon="8.124389">
<ele>-4.279110</ele>
<time>2026-07-13T10:35:50.000Z</time>
</trkpt>
<trkpt lat="56.435280" lon="8.124392">
<ele>-4.253323</ele>
<time>2026-07-13T10:35:51.000Z</time>
</trkpt>
<trkpt lat="56.435337" lon="8.124396">
<ele>-4.229218</ele>
<time>2026-07-13T10:35:52.000Z</time>
</trkpt>
<trkpt lat="56.435398" lon="8.124400">
<ele>-4.203424</ele>
<time>2026-07-13T10:35:53.000Z</time>
</trkpt>
<trkpt lat="56.435459" lon="8.124405">
<ele>-4.177620</ele>
<time>2026-07-13T10:35:54.000Z</time>
</trkpt>
<trkpt lat="56.435516" lon="8.124411">
<ele>-4.153493</ele>
<time>2026-07-13T10:35:55.000Z</time>
</trkpt>
<trkpt lat="56.435574" lon="8.124416">
<ele>-4.128955</ele>
<time>2026-07-13T10:35:56.000Z</time>
</trkpt>
<trkpt lat="56.435638" lon="8.124422">
<ele>-4.101874</ele>
<time>2026-07-13T10:35:57.000Z</time>
</trkpt>
<trkpt lat="56.435699" lon="8.124427">
<ele>-4.076070</ele>
<time>2026-07-13T10:35:58.000Z</time>
</trkpt>
<trkpt lat="56.435757" lon="8.124432">
<ele>-4.051533</ele>
<time>2026-07-13T10:35:59.000Z</time>
</trkpt>
<trkpt lat="56.435818" lon="8.124436">
<ele>-4.025739</ele>
<time>2026-07-13T10:36:00.000Z</time>
</trkpt>
<trkpt lat="56.435879" lon="8.124442">
<ele>-3.999924</ele>
<time>2026-07-13T10:36:01.000Z</time>
</trkpt>
<trkpt lat="56.435940" lon="8.124446">
<ele>-3.974129</ele>
<time>2026-07-13T10:36:02.000Z</time>
</trkpt>
<trkpt lat="56.436001" lon="8.124450">
<ele>-3.948335</ele>
<time>2026-07-13T10:36:03.000Z</time>
</trkpt>
<trkpt lat="56.436062" lon="8.124454">
<ele>-3.922541</ele>
<time>2026-07-13T10:36:04.000Z</time>
</trkpt>
<trkpt lat="56.436119" lon="8.124457">
<ele>-3.898444</ele>
<time>2026-07-13T10:36:05.000Z</time>
</trkpt>
<trkpt lat="56.436180" lon="8.124461">
<ele>-3.872650</ele>
<time>2026-07-13T10:36:06.000Z</time>
</trkpt>
<trkpt lat="56.436241" lon="8.124465">
<ele>-3.850903</ele>
<time>2026-07-13T10:36:07.000Z</time>
</trkpt>
<trkpt lat="56.436302" lon="8.124471">
<ele>-3.855794</ele>
<time>2026-07-13T10:36:08.000Z</time>
</trkpt>
<trkpt lat="56.436363" lon="8.124476">
<ele>-3.860683</ele>
<time>2026-07-13T10:36:09.000Z</time>
</trkpt>
<trkpt lat="56.436424" lon="8.124482">
<ele>-3.865574</ele>
<time>2026-07-13T10:36:10.000Z</time>
</trkpt>
<trkpt lat="56.436485" lon="8.124487">
<ele>-3.870463</ele>
<time>2026-07-13T10:36:11.000Z</time>
</trkpt>
<trkpt lat="56.436546" lon="8.124493">
<ele>-3.875354</ele>
<time>2026-07-13T10:36:12.000Z</time>
</trkpt>
<trkpt lat="56.436607" lon="8.124497">
<ele>-3.880241</ele>
<time>2026-07-13T10:36:13.000Z</time>
</trkpt>
<trkpt lat="56.436668" lon="8.124502">
<ele>-3.885130</ele>
<time>2026-07-13T10:36:14.000Z</time>
</trkpt>
<trkpt lat="56.436729" lon="8.124506">
<ele>-3.890018</ele>
<time>2026-07-13T10:36:15.000Z</time>
</trkpt>
<trkpt lat="56.436794" lon="8.124510">
<ele>-3.895225</ele>
<time>2026-07-13T10:36:16.000Z</time>
</trkpt>
<trkpt lat="56.436855" lon="8.124513">
<ele>-3.900110</ele>
<time>2026-07-13T10:36:17.000Z</time>
</trkpt>
<trkpt lat="56.436916" lon="8.124516">
<ele>-3.904996</ele>
<time>2026-07-13T10:36:18.000Z</time>
</trkpt>
<trkpt lat="56.436977" lon="8.124521">
<ele>-3.909885</ele>
<time>2026-07-13T10:36:19.000Z</time>
</trkpt>
<trkpt lat="56.437038" lon="8.124525">
<ele>-3.914772</ele>
<time>2026-07-13T10:36:20.000Z</time>
</trkpt>
<trkpt lat="56.437099" lon="8.124529">
<ele>-3.919659</ele>
<time>2026-07-13T10:36:21.000Z</time>
</trkpt>
<trkpt lat="56.437157" lon="8.124534">
<ele>-3.924308</ele>
<time>2026-07-13T10:36:22.000Z</time>
</trkpt>
<trkpt lat="56.437218" lon="8.124538">
<ele>-3.929195</ele>
<time>2026-07-13T10:36:23.000Z</time>
</trkpt>
<trkpt lat="56.437279" lon="8.124542">
<ele>-3.934083</ele>
<time>2026-07-13T10:36:24.000Z</time>
</trkpt>
<trkpt lat="56.437340" lon="8.124547">
<ele>-3.938972</ele>
<time>2026-07-13T10:36:25.000Z</time>
</trkpt>
<trkpt lat="56.437401" lon="8.124553">
<ele>-3.943863</ele>
<time>2026-07-13T10:36:26.000Z</time>
</trkpt>
<trkpt lat="56.437462" lon="8.124557">
<ele>-3.948750</ele>
<time>2026-07-13T10:36:27.000Z</time>
</trkpt>
<trkpt lat="56.437523" lon="8.124562">
<ele>-3.953639</ele>
<time>2026-07-13T10:36:28.000Z</time>
</trkpt>
<trkpt lat="56.437580" lon="8.124566">
<ele>-3.958206</ele>
<time>2026-07-13T10:36:29.000Z</time>
</trkpt>
<trkpt lat="56.437641" lon="8.124569">
<ele>-3.963092</ele>
<time>2026-07-13T10:36:30.000Z</time>
</trkpt>
<trkpt lat="56.437706" lon="8.124571">
<ele>-3.968296</ele>
<time>2026-07-13T10:36:31.000Z</time>
</trkpt>
<trkpt lat="56.437767" lon="8.124577">
<ele>-3.973188</ele>
<time>2026-07-13T10:36:32.000Z</time>
</trkpt>
<trkpt lat="56.437828" lon="8.124583">
<ele>-3.978079</ele>
<time>2026-07-13T10:36:33.000Z</time>
</trkpt>
<trkpt lat="56.437885" lon="8.124589">
<ele>-3.982650</ele>
<time>2026-07-13T10:36:34.000Z</time>
</trkpt>
<trkpt lat="56.437946" lon="8.124594">
<ele>-3.987539</ele>
<time>2026-07-13T10:36:35.000Z</time>
</trkpt>
<trkpt lat="56.438007" lon="8.124599">
<ele>-3.992428</ele>
<time>2026-07-13T10:36:36.000Z</time>
</trkpt>
<trkpt lat="56.438068" lon="8.124602">
<ele>-4.001753</ele>
<time>2026-07-13T10:36:37.000Z</time>
</trkpt>
<trkpt lat="56.438126" lon="8.124604">
<ele>-4.013162</ele>
<time>2026-07-13T10:36:38.000Z</time>
</trkpt>
<trkpt lat="56.438187" lon="8.124608">
<ele>-4.025167</ele>
<time>2026-07-13T10:36:39.000Z</time>
</trkpt>
<trkpt lat="56.438248" lon="8.124612">
<ele>-4.037172</ele>
<time>2026-07-13T10:36:40.000Z</time>
</trkpt>
<trkpt lat="56.438309" lon="8.124617">
<ele>-4.049182</ele>
<time>2026-07-13T10:36:41.000Z</time>
</trkpt>
<trkpt lat="56.438370" lon="8.124622">
<ele>-4.061191</ele>
<time>2026-07-13T10:36:42.000Z</time>
</trkpt>
<trkpt lat="56.438431" lon="8.124627">
<ele>-4.073200</ele>
<time>2026-07-13T10:36:43.000Z</time>
</trkpt>
<trkpt lat="56.438492" lon="8.124632">
<ele>-4.085210</ele>
<time>2026-07-13T10:36:44.000Z</time>
</trkpt>
<trkpt lat="56.438553" lon="8.124637">
<ele>-4.097219</ele>
<time>2026-07-13T10:36:45.000Z</time>
</trkpt>
<trkpt lat="56.438610" lon="8.124642">
<ele>-4.108442</ele>
<time>2026-07-13T10:36:46.000Z</time>
</trkpt>
<trkpt lat="56.438671" lon="8.124647">
<ele>-4.120452</ele>
<time>2026-07-13T10:36:47.000Z</time>
</trkpt>
<trkpt lat="56.438732" lon="8.124651">
<ele>-4.132457</ele>
<time>2026-07-13T10:36:48.000Z</time>
</trkpt>
<trkpt lat="56.438793" lon="8.124654">
<ele>-4.144458</ele>
<time>2026-07-13T10:36:49.000Z</time>
</trkpt>
<trkpt lat="56.438854" lon="8.124659">
<ele>-4.156467</ele>
<time>2026-07-13T10:36:50.000Z</time>
</trkpt>
<trkpt lat="56.438915" lon="8.124664">
<ele>-4.168477</ele>
<time>2026-07-13T10:36:51.000Z</time>
</trkpt>
<trkpt lat="56.438972" lon="8.124669">
<ele>-4.179700</ele>
<time>2026-07-13T10:36:52.000Z</time>
</trkpt>
<trkpt lat="56.439034" lon="8.124674">
<ele>-4.191906</ele>
<time>2026-07-13T10:36:53.000Z</time>
</trkpt>
<trkpt lat="56.439095" lon="8.124678">
<ele>-4.203911</ele>
<time>2026-07-13T10:36:54.000Z</time>
</trkpt>
<trkpt lat="56.439152" lon="8.124682">
<ele>-4.215130</ele>
<time>2026-07-13T10:36:55.000Z</time>
</trkpt>
<trkpt lat="56.439213" lon="8.124686">
<ele>-4.227135</ele>
<time>2026-07-13T10:36:56.000Z</time>
</trkpt>
<trkpt lat="56.439274" lon="8.124689">
<ele>-4.239136</ele>
<time>2026-07-13T10:36:57.000Z</time>
</trkpt>
<trkpt lat="56.439335" lon="8.124694">
<ele>-4.251145</ele>
<time>2026-07-13T10:36:58.000Z</time>
</trkpt>
<trkpt lat="56.439392" lon="8.124700">
<ele>-4.262375</ele>
<time>2026-07-13T10:36:59.000Z</time>
</trkpt>
<trkpt lat="56.439453" lon="8.124704">
<ele>-4.274379</ele>
<time>2026-07-13T10:37:00.000Z</time>
</trkpt>
<trkpt lat="56.439514" lon="8.124708">
<ele>-4.286384</ele>
<time>2026-07-13T10:37:01.000Z</time>
</trkpt>
<trkpt lat="56.439575" lon="8.124714">
<ele>-4.298399</ele>
<time>2026-07-13T10:37:02.000Z</time>
</trkpt>
<trkpt lat="56.439636" lon="8.124718">
<ele>-4.310404</ele>
<time>2026-07-13T10:37:03.000Z</time>
</trkpt>
<trkpt lat="56.439697" lon="8.124720">
<ele>-4.322403</ele>
<time>2026-07-13T10:37:04.000Z</time>
</trkpt>
<trkpt lat="56.439762" lon="8.124723">
<ele>-4.335191</ele>
<time>2026-07-13T10:37:05.000Z</time>
</trkpt>
<trkpt lat="56.439823" lon="8.124728">
<ele>-4.347200</ele>
<time>2026-07-13T10:37:06.000Z</time>
</trkpt>
<trkpt lat="56.439888" lon="8.124734">
<ele>-4.356476</ele>
<time>2026-07-13T10:37:07.000Z</time>
</trkpt>
<trkpt lat="56.439953" lon="8.124739">
<ele>-4.365511</ele>
<time>2026-07-13T10:37:08.000Z</time>
</trkpt>
<trkpt lat="56.440014" lon="8.124743">
<ele>-4.373987</ele>
<time>2026-07-13T10:37:09.000Z</time>
</trkpt>
<trkpt lat="56.440075" lon="8.124748">
<ele>-4.382467</ele>
<time>2026-07-13T10:37:10.000Z</time>
</trkpt>
<trkpt lat="56.440136" lon="8.124754">
<ele>-4.390951</ele>
<time>2026-07-13T10:37:11.000Z</time>
</trkpt>
<trkpt lat="56.440197" lon="8.124759">
<ele>-4.399431</ele>
<time>2026-07-13T10:37:12.000Z</time>
</trkpt>
<trkpt lat="56.440258" lon="8.124764">
<ele>-4.407910</ele>
<time>2026-07-13T10:37:13.000Z</time>
</trkpt>
<trkpt lat="56.440315" lon="8.124770">
<ele>-4.415839</ele>
<time>2026-07-13T10:37:14.000Z</time>
</trkpt>
<trkpt lat="56.440376" lon="8.124777">
<ele>-4.424327</ele>
<time>2026-07-13T10:37:15.000Z</time>
</trkpt>
<trkpt lat="56.440441" lon="8.124782">
<ele>-4.433362</ele>
<time>2026-07-13T10:37:16.000Z</time>
</trkpt>
<trkpt lat="56.440498" lon="8.124786">
<ele>-4.441284</ele>
<time>2026-07-13T10:37:17.000Z</time>
</trkpt>
<trkpt lat="56.440559" lon="8.124790">
<ele>-4.449760</ele>
<time>2026-07-13T10:37:18.000Z</time>
</trkpt>
<trkpt lat="56.440620" lon="8.124794">
<ele>-4.458237</ele>
<time>2026-07-13T10:37:19.000Z</time>
</trkpt>
<trkpt lat="56.440681" lon="8.124798">
<ele>-4.466714</ele>
<time>2026-07-13T10:37:20.000Z</time>
</trkpt>
<trkpt lat="56.440743" lon="8.124802">
<ele>-4.475329</ele>
<time>2026-07-13T10:37:21.000Z</time>
</trkpt>
<trkpt lat="56.440800" lon="8.124806">
<ele>-4.483251</ele>
<time>2026-07-13T10:37:22.000Z</time>
</trkpt>
<trkpt lat="56.440861" lon="8.124810">
<ele>-4.491727</ele>
<time>2026-07-13T10:37:23.000Z</time>
</trkpt>
<trkpt lat="56.440922" lon="8.124814">
<ele>-4.500204</ele>
<time>2026-07-13T10:37:24.000Z</time>
</trkpt>
<trkpt lat="56.440983" lon="8.124818">
<ele>-4.508680</ele>
<time>2026-07-13T10:37:25.000Z</time>
</trkpt>
<trkpt lat="56.441044" lon="8.124821">
<ele>-4.517155</ele>
<time>2026-07-13T10:37:26.000Z</time>
</trkpt>
<trkpt lat="56.441105" lon="8.124824">
<ele>-4.525629</ele>
<time>2026-07-13T10:37:27.000Z</time>
</trkpt>
<trkpt lat="56.441162" lon="8.124827">
<ele>-4.533548</ele>
<time>2026-07-13T10:37:28.000Z</time>
</trkpt>
<trkpt lat="56.441223" lon="8.124831">
<ele>-4.542024</ele>
<time>2026-07-13T10:37:29.000Z</time>
</trkpt>
<trkpt lat="56.441280" lon="8.124835">
<ele>-4.549946</ele>
<time>2026-07-13T10:37:30.000Z</time>
</trkpt>
<trkpt lat="56.441341" lon="8.124839">
<ele>-4.558423</ele>
<time>2026-07-13T10:37:31.000Z</time>
</trkpt>
<trkpt lat="56.441402" lon="8.124844">
<ele>-4.566902</ele>
<time>2026-07-13T10:37:32.000Z</time>
</trkpt>
<trkpt lat="56.441460" lon="8.124848">
<ele>-4.574963</ele>
<time>2026-07-13T10:37:33.000Z</time>
</trkpt>
<trkpt lat="56.441524" lon="8.124853">
<ele>-4.583859</ele>
<time>2026-07-13T10:37:34.000Z</time>
</trkpt>
<trkpt lat="56.441582" lon="8.124859">
<ele>-4.591926</ele>
<time>2026-07-13T10:37:35.000Z</time>
</trkpt>
<trkpt lat="56.441639" lon="8.124864">
<ele>-4.604912</ele>
<time>2026-07-13T10:37:36.000Z</time>
</trkpt>
<trkpt lat="56.441700" lon="8.124867">
<ele>-4.634156</ele>
<time>2026-07-13T10:37:37.000Z</time>
</trkpt>
<trkpt lat="56.441761" lon="8.124872">
<ele>-4.663420</ele>
<time>2026-07-13T10:37:38.000Z</time>
</trkpt>
<trkpt lat="56.441818" lon="8.124876">
<ele>-4.690757</ele>
<time>2026-07-13T10:37:39.000Z</time>
</trkpt>
<trkpt lat="56.441879" lon="8.124880">
<ele>-4.720010</ele>
<time>2026-07-13T10:37:40.000Z</time>
</trkpt>
<trkpt lat="56.441937" lon="8.124885">
<ele>-4.747838</ele>
<time>2026-07-13T10:37:41.000Z</time>
</trkpt>
<trkpt lat="56.441998" lon="8.124887">
<ele>-4.777076</ele>
<time>2026-07-13T10:37:42.000Z</time>
</trkpt>
<trkpt lat="56.442059" lon="8.124890">
<ele>-4.806321</ele>
<time>2026-07-13T10:37:43.000Z</time>
</trkpt>
<trkpt lat="56.442120" lon="8.124895">
<ele>-4.835584</ele>
<time>2026-07-13T10:37:44.000Z</time>
</trkpt>
<trkpt lat="56.442177" lon="8.124900">
<ele>-4.862933</ele>
<time>2026-07-13T10:37:45.000Z</time>
</trkpt>
<trkpt lat="56.442238" lon="8.124906">
<ele>-4.892210</ele>
<time>2026-07-13T10:37:46.000Z</time>
</trkpt>
<trkpt lat="56.442299" lon="8.124909">
<ele>-4.921455</ele>
<time>2026-07-13T10:37:47.000Z</time>
</trkpt>
<trkpt lat="56.442360" lon="8.124913">
<ele>-4.950708</ele>
<time>2026-07-13T10:37:48.000Z</time>
</trkpt>
<trkpt lat="56.442421" lon="8.124919">
<ele>-4.979985</ele>
<time>2026-07-13T10:37:49.000Z</time>
</trkpt>
<trkpt lat="56.442482" lon="8.124923">
<ele>-5.009237</ele>
<time>2026-07-13T10:37:50.000Z</time>
</trkpt>
<trkpt lat="56.442539" lon="8.124926">
<ele>-5.036566</ele>
<time>2026-07-13T10:37:51.000Z</time>
</trkpt>
<trkpt lat="56.442600" lon="8.124930">
<ele>-5.065819</ele>
<time>2026-07-13T10:37:52.000Z</time>
</trkpt>
<trkpt lat="56.442661" lon="8.124935">
<ele>-5.095082</ele>
<time>2026-07-13T10:37:53.000Z</time>
</trkpt>
<trkpt lat="56.442722" lon="8.124940">
<ele>-5.124346</ele>
<time>2026-07-13T10:37:54.000Z</time>
</trkpt>
<trkpt lat="56.442783" lon="8.124945">
<ele>-5.153610</ele>
<time>2026-07-13T10:37:55.000Z</time>
</trkpt>
<trkpt lat="56.442844" lon="8.124948">
<ele>-5.182854</ele>
<time>2026-07-13T10:37:56.000Z</time>
</trkpt>
<trkpt lat="56.442905" lon="8.124953">
<ele>-5.212118</ele>
<time>2026-07-13T10:37:57.000Z</time>
</trkpt>
<trkpt lat="56.442963" lon="8.124959">
<ele>-5.239959</ele>
<time>2026-07-13T10:37:58.000Z</time>
</trkpt>
<trkpt lat="56.443024" lon="8.124963">
<ele>-5.269212</ele>
<time>2026-07-13T10:37:59.000Z</time>
</trkpt>
<trkpt lat="56.443081" lon="8.124967">
<ele>-5.296550</ele>
<time>2026-07-13T10:38:00.000Z</time>
</trkpt>
<trkpt lat="56.443142" lon="8.124972">
<ele>-5.325813</ele>
<time>2026-07-13T10:38:01.000Z</time>
</trkpt>
<trkpt lat="56.443203" lon="8.124976">
<ele>-5.355066</ele>
<time>2026-07-13T10:38:02.000Z</time>
</trkpt>
<trkpt lat="56.443260" lon="8.124980">
<ele>-5.382403</ele>
<time>2026-07-13T10:38:03.000Z</time>
</trkpt>
<trkpt lat="56.443317" lon="8.124986">
<ele>-5.409766</ele>
<time>2026-07-13T10:38:04.000Z</time>
</trkpt>
<trkpt lat="56.443378" lon="8.124990">
<ele>-5.439019</ele>
<time>2026-07-13T10:38:05.000Z</time>
</trkpt>
<trkpt lat="56.443436" lon="8.124993">
<ele>-5.458356</ele>
<time>2026-07-13T10:38:06.000Z</time>
</trkpt>
<trkpt lat="56.443497" lon="8.124998">
<ele>-5.452493</ele>
<time>2026-07-13T10:38:07.000Z</time>
</trkpt>
<trkpt lat="56.443558" lon="8.125002">
<ele>-5.446631</ele>
<time>2026-07-13T10:38:08.000Z</time>
</trkpt>
<trkpt lat="56.443615" lon="8.125007">
<ele>-5.441151</ele>
<time>2026-07-13T10:38:09.000Z</time>
</trkpt>
<trkpt lat="56.443676" lon="8.125011">
<ele>-5.435290</ele>
<time>2026-07-13T10:38:10.000Z</time>
</trkpt>
<trkpt lat="56.443737" lon="8.125015">
<ele>-5.429429</ele>
<time>2026-07-13T10:38:11.000Z</time>
</trkpt>
<trkpt lat="56.443798" lon="8.125017">
<ele>-5.423570</ele>
<time>2026-07-13T10:38:12.000Z</time>
</trkpt>
<trkpt lat="56.443855" lon="8.125022">
<ele>-5.418090</ele>
<time>2026-07-13T10:38:13.000Z</time>
</trkpt>
<trkpt lat="56.443916" lon="8.125027">
<ele>-5.412227</ele>
<time>2026-07-13T10:38:14.000Z</time>
</trkpt>
<trkpt lat="56.443977" lon="8.125032">
<ele>-5.406363</ele>
<time>2026-07-13T10:38:15.000Z</time>
</trkpt>
<trkpt lat="56.444038" lon="8.125038">
<ele>-5.400497</ele>
<time>2026-07-13T10:38:16.000Z</time>
</trkpt>
<trkpt lat="56.444096" lon="8.125044">
<ele>-5.394918</ele>
<time>2026-07-13T10:38:17.000Z</time>
</trkpt>
<trkpt lat="56.444157" lon="8.125048">
<ele>-5.389057</ele>
<time>2026-07-13T10:38:18.000Z</time>
</trkpt>
<trkpt lat="56.444218" lon="8.125051">
<ele>-5.383197</ele>
<time>2026-07-13T10:38:19.000Z</time>
</trkpt>
<trkpt lat="56.444279" lon="8.125057">
<ele>-5.377331</ele>
<time>2026-07-13T10:38:20.000Z</time>
</trkpt>
<trkpt lat="56.444340" lon="8.125061">
<ele>-5.371470</ele>
<time>2026-07-13T10:38:21.000Z</time>
</trkpt>
<trkpt lat="56.444401" lon="8.125065">
<ele>-5.365608</ele>
<time>2026-07-13T10:38:22.000Z</time>
</trkpt>
<trkpt lat="56.444462" lon="8.125071">
<ele>-5.359742</ele>
<time>2026-07-13T10:38:23.000Z</time>
</trkpt>
<trkpt lat="56.444523" lon="8.125075">
<ele>-5.353881</ele>
<time>2026-07-13T10:38:24.000Z</time>
</trkpt>
<trkpt lat="56.444584" lon="8.125081">
<ele>-5.348014</ele>
<time>2026-07-13T10:38:25.000Z</time>
</trkpt>
<trkpt lat="56.444645" lon="8.125084">
<ele>-5.342155</ele>
<time>2026-07-13T10:38:26.000Z</time>
</trkpt>
<trkpt lat="56.444710" lon="8.125086">
<ele>-5.335912</ele>
<time>2026-07-13T10:38:27.000Z</time>
</trkpt>
<trkpt lat="56.444771" lon="8.125091">
<ele>-5.330049</ele>
<time>2026-07-13T10:38:28.000Z</time>
</trkpt>
<trkpt lat="56.444832" lon="8.125096">
<ele>-5.324185</ele>
<time>2026-07-13T10:38:29.000Z</time>
</trkpt>
<trkpt lat="56.444893" lon="8.125102">
<ele>-5.318319</ele>
<time>2026-07-13T10:38:30.000Z</time>
</trkpt>
<trkpt lat="56.444958" lon="8.125107">
<ele>-5.312072</ele>
<time>2026-07-13T10:38:31.000Z</time>
</trkpt>
<trkpt lat="56.445023" lon="8.125111">
<ele>-5.305826</ele>
<time>2026-07-13T10:38:32.000Z</time>
</trkpt>
<trkpt lat="56.445084" lon="8.125115">
<ele>-5.299965</ele>
<time>2026-07-13T10:38:33.000Z</time>
</trkpt>
<trkpt lat="56.445145" lon="8.125119">
<ele>-5.294104</ele>
<time>2026-07-13T10:38:34.000Z</time>
</trkpt>
<trkpt lat="56.445209" lon="8.125123">
<ele>-5.287954</ele>
<time>2026-07-13T10:38:35.000Z</time>
</trkpt>
<trkpt lat="56.445271" lon="8.125127">
<ele>-5.276152</ele>
<time>2026-07-13T10:38:36.000Z</time>
</trkpt>
<trkpt lat="56.445332" lon="8.125132">
<ele>-5.263513</ele>
<time>2026-07-13T10:38:37.000Z</time>
</trkpt>
<trkpt lat="56.445393" lon="8.125137">
<ele>-5.250874</ele>
<time>2026-07-13T10:38:38.000Z</time>
</trkpt>
<trkpt lat="56.445454" lon="8.125142">
<ele>-5.238234</ele>
<time>2026-07-13T10:38:39.000Z</time>
</trkpt>
<trkpt lat="56.445515" lon="8.125147">
<ele>-5.225595</ele>
<time>2026-07-13T10:38:40.000Z</time>
</trkpt>
<trkpt lat="56.445576" lon="8.125151">
<ele>-5.212960</ele>
<time>2026-07-13T10:38:41.000Z</time>
</trkpt>
<trkpt lat="56.445637" lon="8.125155">
<ele>-5.200326</ele>
<time>2026-07-13T10:38:42.000Z</time>
</trkpt>
<trkpt lat="56.445698" lon="8.125160">
<ele>-5.187686</ele>
<time>2026-07-13T10:38:43.000Z</time>
</trkpt>
<trkpt lat="56.445759" lon="8.125164">
<ele>-5.175052</ele>
<time>2026-07-13T10:38:44.000Z</time>
</trkpt>
<trkpt lat="56.445820" lon="8.125169">
<ele>-5.162412</ele>
<time>2026-07-13T10:38:45.000Z</time>
</trkpt>
<trkpt lat="56.445881" lon="8.125173">
<ele>-5.149778</ele>
<time>2026-07-13T10:38:46.000Z</time>
</trkpt>
<trkpt lat="56.445942" lon="8.125177">
<ele>-5.137143</ele>
<time>2026-07-13T10:38:47.000Z</time>
</trkpt>
<trkpt lat="56.446003" lon="8.125183">
<ele>-5.124498</ele>
<time>2026-07-13T10:38:48.000Z</time>
</trkpt>
<trkpt lat="56.446068" lon="8.125190">
<ele>-5.111020</ele>
<time>2026-07-13T10:38:49.000Z</time>
</trkpt>
<trkpt lat="56.446129" lon="8.125195">
<ele>-5.098381</ele>
<time>2026-07-13T10:38:50.000Z</time>
</trkpt>
<trkpt lat="56.446190" lon="8.125198">
<ele>-5.085750</ele>
<time>2026-07-13T10:38:51.000Z</time>
</trkpt>
<trkpt lat="56.446251" lon="8.125203">
<ele>-5.073110</ele>
<time>2026-07-13T10:38:52.000Z</time>
</trkpt>
<trkpt lat="56.446312" lon="8.125209">
<ele>-5.060465</ele>
<time>2026-07-13T10:38:53.000Z</time>
</trkpt>
<trkpt lat="56.446373" lon="8.125214">
<ele>-5.047826</ele>
<time>2026-07-13T10:38:54.000Z</time>
</trkpt>
<trkpt lat="56.446438" lon="8.125218">
<ele>-5.034364</ele>
<time>2026-07-13T10:38:55.000Z</time>
</trkpt>
<trkpt lat="56.446499" lon="8.125222">
<ele>-5.021729</ele>
<time>2026-07-13T10:38:56.000Z</time>
</trkpt>
<trkpt lat="56.446564" lon="8.125226">
<ele>-5.008267</ele>
<time>2026-07-13T10:38:57.000Z</time>
</trkpt>
<trkpt lat="56.446625" lon="8.125229">
<ele>-4.995636</ele>
<time>2026-07-13T10:38:58.000Z</time>
</trkpt>
<trkpt lat="56.446686" lon="8.125234">
<ele>-4.982997</ele>
<time>2026-07-13T10:38:59.000Z</time>
</trkpt>
<trkpt lat="56.446751" lon="8.125238">
<ele>-4.969535</ele>
<time>2026-07-13T10:39:00.000Z</time>
</trkpt>
<trkpt lat="56.446812" lon="8.125243">
<ele>-4.956896</ele>
<time>2026-07-13T10:39:01.000Z</time>
</trkpt>
<trkpt lat="56.446873" lon="8.125250">
<ele>-4.944244</ele>
<time>2026-07-13T10:39:02.000Z</time>
</trkpt>
<trkpt lat="56.446938" lon="8.125256">
<ele>-4.930772</ele>
<time>2026-07-13T10:39:03.000Z</time>
</trkpt>
<trkpt lat="56.446999" lon="8.125259">
<ele>-4.918141</ele>
<time>2026-07-13T10:39:04.000Z</time>
</trkpt>
<trkpt lat="56.447063" lon="8.125262">
<ele>-4.914314</ele>
<time>2026-07-13T10:39:05.000Z</time>
</trkpt>
<trkpt lat="56.447125" lon="8.125267">
<ele>-4.913740</ele>
<time>2026-07-13T10:39:06.000Z</time>
</trkpt>
<trkpt lat="56.447189" lon="8.125271">
<ele>-4.913148</ele>
<time>2026-07-13T10:39:07.000Z</time>
</trkpt>
<trkpt lat="56.447250" lon="8.125275">
<ele>-4.912583</ele>
<time>2026-07-13T10:39:08.000Z</time>
</trkpt>
<trkpt lat="56.447311" lon="8.125278">
<ele>-4.912019</ele>
<time>2026-07-13T10:39:09.000Z</time>
</trkpt>
<trkpt lat="56.447376" lon="8.125282">
<ele>-4.911417</ele>
<time>2026-07-13T10:39:10.000Z</time>
</trkpt>
<trkpt lat="56.447437" lon="8.125288">
<ele>-4.910852</ele>
<time>2026-07-13T10:39:11.000Z</time>
</trkpt>
<trkpt lat="56.447498" lon="8.125295">
<ele>-4.910287</ele>
<time>2026-07-13T10:39:12.000Z</time>
</trkpt>
<trkpt lat="56.447559" lon="8.125300">
<ele>-4.909722</ele>
<time>2026-07-13T10:39:13.000Z</time>
</trkpt>
<trkpt lat="56.447620" lon="8.125305">
<ele>-4.909158</ele>
<time>2026-07-13T10:39:14.000Z</time>
</trkpt>
<trkpt lat="56.447678" lon="8.125310">
<ele>-4.908621</ele>
<time>2026-07-13T10:39:15.000Z</time>
</trkpt>
<trkpt lat="56.447739" lon="8.125315">
<ele>-4.908056</ele>
<time>2026-07-13T10:39:16.000Z</time>
</trkpt>
<trkpt lat="56.447796" lon="8.125318">
<ele>-4.907529</ele>
<time>2026-07-13T10:39:17.000Z</time>
</trkpt>
<trkpt lat="56.447857" lon="8.125321">
<ele>-4.906964</ele>
<time>2026-07-13T10:39:18.000Z</time>
</trkpt>
<trkpt lat="56.447918" lon="8.125325">
<ele>-4.906400</ele>
<time>2026-07-13T10:39:19.000Z</time>
</trkpt>
<trkpt lat="56.447979" lon="8.125330">
<ele>-4.905835</ele>
<time>2026-07-13T10:39:20.000Z</time>
</trkpt>
<trkpt lat="56.448040" lon="8.125336">
<ele>-4.905270</ele>
<time>2026-07-13T10:39:21.000Z</time>
</trkpt>
<trkpt lat="56.448101" lon="8.125340">
<ele>-4.904705</ele>
<time>2026-07-13T10:39:22.000Z</time>
</trkpt>
<trkpt lat="56.448162" lon="8.125344">
<ele>-4.904141</ele>
<time>2026-07-13T10:39:23.000Z</time>
</trkpt>
<trkpt lat="56.448227" lon="8.125349">
<ele>-4.903539</ele>
<time>2026-07-13T10:39:24.000Z</time>
</trkpt>
<trkpt lat="56.448288" lon="8.125353">
<ele>-4.902975</ele>
<time>2026-07-13T10:39:25.000Z</time>
</trkpt>
<trkpt lat="56.448349" lon="8.125356">
<ele>-4.902410</ele>
<time>2026-07-13T10:39:26.000Z</time>
</trkpt>
<trkpt lat="56.448410" lon="8.125360">
<ele>-4.901846</ele>
<time>2026-07-13T10:39:27.000Z</time>
</trkpt>
<trkpt lat="56.448471" lon="8.125363">
<ele>-4.901282</ele>
<time>2026-07-13T10:39:28.000Z</time>
</trkpt>
<trkpt lat="56.448536" lon="8.125369">
<ele>-4.900680</ele>
<time>2026-07-13T10:39:29.000Z</time>
</trkpt>
<trkpt lat="56.448597" lon="8.125376">
<ele>-4.900114</ele>
<time>2026-07-13T10:39:30.000Z</time>
</trkpt>
<trkpt lat="56.448658" lon="8.125381">
<ele>-4.899550</ele>
<time>2026-07-13T10:39:31.000Z</time>
</trkpt>
<trkpt lat="56.448719" lon="8.125385">
<ele>-4.898985</ele>
<time>2026-07-13T10:39:32.000Z</time>
</trkpt>
<trkpt lat="56.448780" lon="8.125389">
<ele>-4.898421</ele>
<time>2026-07-13T10:39:33.000Z</time>
</trkpt>
<trkpt lat="56.448837" lon="8.125393">
<ele>-4.903463</ele>
<time>2026-07-13T10:39:34.000Z</time>
</trkpt>
<trkpt lat="56.448898" lon="8.125397">
<ele>-4.916729</ele>
<time>2026-07-13T10:39:35.000Z</time>
</trkpt>
<trkpt lat="56.448959" lon="8.125401">
<ele>-4.929995</ele>
<time>2026-07-13T10:39:36.000Z</time>
</trkpt>
<trkpt lat="56.449020" lon="8.125405">
<ele>-4.943262</ele>
<time>2026-07-13T10:39:37.000Z</time>
</trkpt>
<trkpt lat="56.449078" lon="8.125410">
<ele>-4.955881</ele>
<time>2026-07-13T10:39:38.000Z</time>
</trkpt>
<trkpt lat="56.449139" lon="8.125414">
<ele>-4.969148</ele>
<time>2026-07-13T10:39:39.000Z</time>
</trkpt>
<trkpt lat="56.449196" lon="8.125418">
<ele>-4.981545</ele>
<time>2026-07-13T10:39:40.000Z</time>
</trkpt>
<trkpt lat="56.449257" lon="8.125422">
<ele>-4.994812</ele>
<time>2026-07-13T10:39:41.000Z</time>
</trkpt>
<trkpt lat="56.449314" lon="8.125428">
<ele>-5.007221</ele>
<time>2026-07-13T10:39:42.000Z</time>
</trkpt>
<trkpt lat="56.449375" lon="8.125433">
<ele>-5.020492</ele>
<time>2026-07-13T10:39:43.000Z</time>
</trkpt>
<trkpt lat="56.449436" lon="8.125436">
<ele>-5.033755</ele>
<time>2026-07-13T10:39:44.000Z</time>
</trkpt>
<trkpt lat="56.449493" lon="8.125441">
<ele>-5.046158</ele>
<time>2026-07-13T10:39:45.000Z</time>
</trkpt>
<trkpt lat="56.449554" lon="8.125445">
<ele>-5.059424</ele>
<time>2026-07-13T10:39:46.000Z</time>
</trkpt>
<trkpt lat="56.449615" lon="8.125450">
<ele>-5.072695</ele>
<time>2026-07-13T10:39:47.000Z</time>
</trkpt>
<trkpt lat="56.449677" lon="8.125454">
<ele>-5.086179</ele>
<time>2026-07-13T10:39:48.000Z</time>
</trkpt>
<trkpt lat="56.449738" lon="8.125458">
<ele>-5.099445</ele>
<time>2026-07-13T10:39:49.000Z</time>
</trkpt>
<trkpt lat="56.449799" lon="8.125462">
<ele>-5.112711</ele>
<time>2026-07-13T10:39:50.000Z</time>
</trkpt>
<trkpt lat="56.449860" lon="8.125467">
<ele>-5.125982</ele>
<time>2026-07-13T10:39:51.000Z</time>
</trkpt>
<trkpt lat="56.449921" lon="8.125472">
<ele>-5.139254</ele>
<time>2026-07-13T10:39:52.000Z</time>
</trkpt>
<trkpt lat="56.449982" lon="8.125477">
<ele>-5.152525</ele>
<time>2026-07-13T10:39:53.000Z</time>
</trkpt>
<trkpt lat="56.450043" lon="8.125482">
<ele>-5.165796</ele>
<time>2026-07-13T10:39:54.000Z</time>
</trkpt>
<trkpt lat="56.450108" lon="8.125487">
<ele>-5.179936</ele>
<time>2026-07-13T10:39:55.000Z</time>
</trkpt>
<trkpt lat="56.450169" lon="8.125492">
<ele>-5.193207</ele>
<time>2026-07-13T10:39:56.000Z</time>
</trkpt>
<trkpt lat="56.450230" lon="8.125496">
<ele>-5.206473</ele>
<time>2026-07-13T10:39:57.000Z</time>
</trkpt>
<trkpt lat="56.450294" lon="8.125501">
<ele>-5.220396</ele>
<time>2026-07-13T10:39:58.000Z</time>
</trkpt>
<trkpt lat="56.450356" lon="8.125505">
<ele>-5.233880</ele>
<time>2026-07-13T10:39:59.000Z</time>
</trkpt>
<trkpt lat="56.450417" lon="8.125510">
<ele>-5.247151</ele>
<time>2026-07-13T10:40:00.000Z</time>
</trkpt>
<trkpt lat="56.450474" lon="8.125516">
<ele>-5.259560</ele>
<time>2026-07-13T10:40:01.000Z</time>
</trkpt>
<trkpt lat="56.450535" lon="8.125521">
<ele>-5.272831</ele>
<time>2026-07-13T10:40:02.000Z</time>
</trkpt>
<trkpt lat="56.450596" lon="8.125525">
<ele>-5.286098</ele>
<time>2026-07-13T10:40:03.000Z</time>
</trkpt>
<trkpt lat="56.450657" lon="8.125531">
<ele>-5.289385</ele>
<time>2026-07-13T10:40:04.000Z</time>
</trkpt>
<trkpt lat="56.450718" lon="8.125537">
<ele>-5.289835</ele>
<time>2026-07-13T10:40:05.000Z</time>
</trkpt>
<trkpt lat="56.450779" lon="8.125542">
<ele>-5.290285</ele>
<time>2026-07-13T10:40:06.000Z</time>
</trkpt>
<trkpt lat="56.450840" lon="8.125547">
<ele>-5.290736</ele>
<time>2026-07-13T10:40:07.000Z</time>
</trkpt>
<trkpt lat="56.450901" lon="8.125554">
<ele>-5.291186</ele>
<time>2026-07-13T10:40:08.000Z</time>
</trkpt>
<trkpt lat="56.450962" lon="8.125564">
<ele>-5.291638</ele>
<time>2026-07-13T10:40:09.000Z</time>
</trkpt>
<trkpt lat="56.451023" lon="8.125574">
<ele>-5.292089</ele>
<time>2026-07-13T10:40:10.000Z</time>
</trkpt>
<trkpt lat="56.451088" lon="8.125584">
<ele>-5.292570</ele>
<time>2026-07-13T10:40:11.000Z</time>
</trkpt>
<trkpt lat="56.451149" lon="8.125595">
<ele>-5.293022</ele>
<time>2026-07-13T10:40:12.000Z</time>
</trkpt>
<trkpt lat="56.451210" lon="8.125611">
<ele>-5.293476</ele>
<time>2026-07-13T10:40:13.000Z</time>
</trkpt>
<trkpt lat="56.451271" lon="8.125628">
<ele>-5.293931</ele>
<time>2026-07-13T10:40:14.000Z</time>
</trkpt>
<trkpt lat="56.451332" lon="8.125649">
<ele>-5.294389</ele>
<time>2026-07-13T10:40:15.000Z</time>
</trkpt>
<trkpt lat="56.451389" lon="8.125669">
<ele>-5.294817</ele>
<time>2026-07-13T10:40:16.000Z</time>
</trkpt>
<trkpt lat="56.451450" lon="8.125690">
<ele>-5.295275</ele>
<time>2026-07-13T10:40:17.000Z</time>
</trkpt>
<trkpt lat="56.451508" lon="8.125713">
<ele>-5.295713</ele>
<time>2026-07-13T10:40:18.000Z</time>
</trkpt>
<trkpt lat="56.451565" lon="8.125738">
<ele>-5.296145</ele>
<time>2026-07-13T10:40:19.000Z</time>
</trkpt>
<trkpt lat="56.451622" lon="8.125766">
<ele>-5.296580</ele>
<time>2026-07-13T10:40:20.000Z</time>
</trkpt>
<trkpt lat="56.451679" lon="8.125798">
<ele>-5.297020</ele>
<time>2026-07-13T10:40:21.000Z</time>
</trkpt>
<trkpt lat="56.451736" lon="8.125833">
<ele>-5.297464</ele>
<time>2026-07-13T10:40:22.000Z</time>
</trkpt>
<trkpt lat="56.451794" lon="8.125866">
<ele>-5.297912</ele>
<time>2026-07-13T10:40:23.000Z</time>
</trkpt>
<trkpt lat="56.451851" lon="8.125902">
<ele>-5.298357</ele>
<time>2026-07-13T10:40:24.000Z</time>
</trkpt>
<trkpt lat="56.451908" lon="8.125941">
<ele>-5.298807</ele>
<time>2026-07-13T10:40:25.000Z</time>
</trkpt>
<trkpt lat="56.451965" lon="8.125979">
<ele>-5.299254</ele>
<time>2026-07-13T10:40:26.000Z</time>
</trkpt>
<trkpt lat="56.452026" lon="8.126020">
<ele>-5.299734</ele>
<time>2026-07-13T10:40:27.000Z</time>
</trkpt>
<trkpt lat="56.452084" lon="8.126061">
<ele>-5.300193</ele>
<time>2026-07-13T10:40:28.000Z</time>
</trkpt>
<trkpt lat="56.452137" lon="8.126104">
<ele>-5.300621</ele>
<time>2026-07-13T10:40:29.000Z</time>
</trkpt>
<trkpt lat="56.452190" lon="8.126150">
<ele>-5.301055</ele>
<time>2026-07-13T10:40:30.000Z</time>
</trkpt>
<trkpt lat="56.452244" lon="8.126198">
<ele>-5.301498</ele>
<time>2026-07-13T10:40:31.000Z</time>
</trkpt>
<trkpt lat="56.452297" lon="8.126246">
<ele>-5.301935</ele>
<time>2026-07-13T10:40:32.000Z</time>
</trkpt>
<trkpt lat="56.452351" lon="8.126296">
<ele>-5.305047</ele>
<time>2026-07-13T10:40:33.000Z</time>
</trkpt>
<trkpt lat="56.452404" lon="8.126349">
<ele>-5.318909</ele>
<time>2026-07-13T10:40:34.000Z</time>
</trkpt>
<trkpt lat="56.452457" lon="8.126406">
<ele>-5.333022</ele>
<time>2026-07-13T10:40:35.000Z</time>
</trkpt>
<trkpt lat="56.452511" lon="8.126464">
<ele>-5.347397</ele>
<time>2026-07-13T10:40:36.000Z</time>
</trkpt>
<trkpt lat="56.452560" lon="8.126521">
<ele>-5.360731</ele>
<time>2026-07-13T10:40:37.000Z</time>
</trkpt>
<trkpt lat="56.452614" lon="8.126581">
<ele>-5.375237</ele>
<time>2026-07-13T10:40:38.000Z</time>
</trkpt>
<trkpt lat="56.452663" lon="8.126642">
<ele>-5.388851</ele>
<time>2026-07-13T10:40:39.000Z</time>
</trkpt>
<trkpt lat="56.452713" lon="8.126705">
<ele>-5.402798</ele>
<time>2026-07-13T10:40:40.000Z</time>
</trkpt>
<trkpt lat="56.452763" lon="8.126768">
<ele>-5.416745</ele>
<time>2026-07-13T10:40:41.000Z</time>
</trkpt>
<trkpt lat="56.452812" lon="8.126832">
<ele>-5.430578</ele>
<time>2026-07-13T10:40:42.000Z</time>
</trkpt>
<trkpt lat="56.452858" lon="8.126896">
<ele>-5.443861</ele>
<time>2026-07-13T10:40:43.000Z</time>
</trkpt>
<trkpt lat="56.452904" lon="8.126962">
<ele>-5.457299</ele>
<time>2026-07-13T10:40:44.000Z</time>
</trkpt>
<trkpt lat="56.452950" lon="8.127029">
<ele>-5.470816</ele>
<time>2026-07-13T10:40:45.000Z</time>
</trkpt>
<trkpt lat="56.452995" lon="8.127098">
<ele>-5.484318</ele>
<time>2026-07-13T10:40:46.000Z</time>
</trkpt>
<trkpt lat="56.453041" lon="8.127167">
<ele>-5.497995</ele>
<time>2026-07-13T10:40:47.000Z</time>
</trkpt>
<trkpt lat="56.453087" lon="8.127237">
<ele>-5.511753</ele>
<time>2026-07-13T10:40:48.000Z</time>
</trkpt>
<trkpt lat="56.453129" lon="8.127309">
<ele>-5.524996</ele>
<time>2026-07-13T10:40:49.000Z</time>
</trkpt>
<trkpt lat="56.453175" lon="8.127379">
<ele>-5.538755</ele>
<time>2026-07-13T10:40:50.000Z</time>
</trkpt>
<trkpt lat="56.453220" lon="8.127451">
<ele>-5.552505</ele>
<time>2026-07-13T10:40:51.000Z</time>
</trkpt>
<trkpt lat="56.453262" lon="8.127522">
<ele>-5.565662</ele>
<time>2026-07-13T10:40:52.000Z</time>
</trkpt>
<trkpt lat="56.453308" lon="8.127592">
<ele>-5.579420</ele>
<time>2026-07-13T10:40:53.000Z</time>
</trkpt>
<trkpt lat="56.453350" lon="8.127664">
<ele>-5.592663</ele>
<time>2026-07-13T10:40:54.000Z</time>
</trkpt>
<trkpt lat="56.453396" lon="8.127735">
<ele>-5.606503</ele>
<time>2026-07-13T10:40:55.000Z</time>
</trkpt>
<trkpt lat="56.453442" lon="8.127805">
<ele>-5.620261</ele>
<time>2026-07-13T10:40:56.000Z</time>
</trkpt>
<trkpt lat="56.453487" lon="8.127875">
<ele>-5.633845</ele>
<time>2026-07-13T10:40:57.000Z</time>
</trkpt>
<trkpt lat="56.453533" lon="8.127948">
<ele>-5.647850</ele>
<time>2026-07-13T10:40:58.000Z</time>
</trkpt>
<trkpt lat="56.453579" lon="8.128021">
<ele>-5.661856</ele>
<time>2026-07-13T10:40:59.000Z</time>
</trkpt>
<trkpt lat="56.453625" lon="8.128095">
<ele>-5.675945</ele>
<time>2026-07-13T10:41:00.000Z</time>
</trkpt>
<trkpt lat="56.453671" lon="8.128168">
<ele>-5.689950</ele>
<time>2026-07-13T10:41:01.000Z</time>
</trkpt>
<trkpt lat="56.453716" lon="8.128241">
<ele>-5.703785</ele>
<time>2026-07-13T10:41:02.000Z</time>
</trkpt>
<trkpt lat="56.453762" lon="8.128312">
<ele>-5.705404</ele>
<time>2026-07-13T10:41:03.000Z</time>
</trkpt>
<trkpt lat="56.453808" lon="8.128382">
<ele>-5.672508</ele>
<time>2026-07-13T10:41:04.000Z</time>
</trkpt>
<trkpt lat="56.453854" lon="8.128449">
<ele>-5.640188</ele>
<time>2026-07-13T10:41:05.000Z</time>
</trkpt>
<trkpt lat="56.453896" lon="8.128518">
<ele>-5.609140</ele>
<time>2026-07-13T10:41:06.000Z</time>
</trkpt>
<trkpt lat="56.453941" lon="8.128587">
<ele>-5.576857</ele>
<time>2026-07-13T10:41:07.000Z</time>
</trkpt>
<trkpt lat="56.453987" lon="8.128654">
<ele>-5.544537</ele>
<time>2026-07-13T10:41:08.000Z</time>
</trkpt>
<trkpt lat="56.454029" lon="8.128725">
<ele>-5.513079</ele>
<time>2026-07-13T10:41:09.000Z</time>
</trkpt>
<trkpt lat="56.454075" lon="8.128798">
<ele>-5.479592</ele>
<time>2026-07-13T10:41:10.000Z</time>
</trkpt>
<trkpt lat="56.454117" lon="8.128868">
<ele>-5.448339</ele>
<time>2026-07-13T10:41:11.000Z</time>
</trkpt>
<trkpt lat="56.454163" lon="8.128936">
<ele>-5.415829</ele>
<time>2026-07-13T10:41:12.000Z</time>
</trkpt>
<trkpt lat="56.454208" lon="8.129000">
<ele>-5.384503</ele>
<time>2026-07-13T10:41:13.000Z</time>
</trkpt>
<trkpt lat="56.454258" lon="8.129063">
<ele>-5.351156</ele>
<time>2026-07-13T10:41:14.000Z</time>
</trkpt>
<trkpt lat="56.454304" lon="8.129127">
<ele>-5.319397</ele>
<time>2026-07-13T10:41:15.000Z</time>
</trkpt>
<trkpt lat="56.454353" lon="8.129188">
<ele>-5.286844</ele>
<time>2026-07-13T10:41:16.000Z</time>
</trkpt>
<trkpt lat="56.454403" lon="8.129246">
<ele>-5.254338</ele>
<time>2026-07-13T10:41:17.000Z</time>
</trkpt>
<trkpt lat="56.454453" lon="8.129303">
<ele>-5.221993</ele>
<time>2026-07-13T10:41:18.000Z</time>
</trkpt>
<trkpt lat="56.454502" lon="8.129361">
<ele>-5.189946</ele>
<time>2026-07-13T10:41:19.000Z</time>
</trkpt>
<trkpt lat="56.454552" lon="8.129417">
<ele>-5.157762</ele>
<time>2026-07-13T10:41:20.000Z</time>
</trkpt>
<trkpt lat="56.454601" lon="8.129468">
<ele>-5.126823</ele>
<time>2026-07-13T10:41:21.000Z</time>
</trkpt>
<trkpt lat="56.454655" lon="8.129519">
<ele>-5.093484</ele>
<time>2026-07-13T10:41:22.000Z</time>
</trkpt>
<trkpt lat="56.454704" lon="8.129568">
<ele>-5.062842</ele>
<time>2026-07-13T10:41:23.000Z</time>
</trkpt>
<trkpt lat="56.454754" lon="8.129617">
<ele>-5.031720</ele>
<time>2026-07-13T10:41:24.000Z</time>
</trkpt>
<trkpt lat="56.454804" lon="8.129663">
<ele>-5.001020</ele>
<time>2026-07-13T10:41:25.000Z</time>
</trkpt>
<trkpt lat="56.454853" lon="8.129708">
<ele>-4.970945</ele>
<time>2026-07-13T10:41:26.000Z</time>
</trkpt>
<trkpt lat="56.454903" lon="8.129749">
<ele>-4.940900</ele>
<time>2026-07-13T10:41:27.000Z</time>
</trkpt>
<trkpt lat="56.454956" lon="8.129789">
<ele>-4.909469</ele>
<time>2026-07-13T10:41:28.000Z</time>
</trkpt>
<trkpt lat="56.455006" lon="8.129827">
<ele>-4.879787</ele>
<time>2026-07-13T10:41:29.000Z</time>
</trkpt>
<trkpt lat="56.455055" lon="8.129863">
<ele>-4.850842</ele>
<time>2026-07-13T10:41:30.000Z</time>
</trkpt>
<trkpt lat="56.455109" lon="8.129900">
<ele>-4.819238</ele>
<time>2026-07-13T10:41:31.000Z</time>
</trkpt>
<trkpt lat="56.455162" lon="8.129937">
<ele>-4.788146</ele>
<time>2026-07-13T10:41:32.000Z</time>
</trkpt>
<trkpt lat="56.455212" lon="8.129971">
<ele>-4.758911</ele>
<time>2026-07-13T10:41:33.000Z</time>
</trkpt>
<trkpt lat="56.455261" lon="8.129999">
<ele>-4.730786</ele>
<time>2026-07-13T10:41:34.000Z</time>
</trkpt>
<trkpt lat="56.455311" lon="8.130025">
<ele>-4.674576</ele>
<time>2026-07-13T10:41:35.000Z</time>
</trkpt>
<trkpt lat="56.455364" lon="8.130053">
<ele>-4.613597</ele>
<time>2026-07-13T10:41:36.000Z</time>
</trkpt>
<trkpt lat="56.455418" lon="8.130078">
<ele>-4.552036</ele>
<time>2026-07-13T10:41:37.000Z</time>
</trkpt>
<trkpt lat="56.455467" lon="8.130103">
<ele>-4.495809</ele>
<time>2026-07-13T10:41:38.000Z</time>
</trkpt>
<trkpt lat="56.455517" lon="8.130126">
<ele>-4.438831</ele>
<time>2026-07-13T10:41:39.000Z</time>
</trkpt>
<trkpt lat="56.455566" lon="8.130149">
<ele>-4.382923</ele>
<time>2026-07-13T10:41:40.000Z</time>
</trkpt>
<trkpt lat="56.455616" lon="8.130170">
<ele>-4.326233</ele>
<time>2026-07-13T10:41:41.000Z</time>
</trkpt>
<trkpt lat="56.455666" lon="8.130187">
<ele>-4.270045</ele>
<time>2026-07-13T10:41:42.000Z</time>
</trkpt>
<trkpt lat="56.455719" lon="8.130201">
<ele>-4.210889</ele>
<time>2026-07-13T10:41:43.000Z</time>
</trkpt>
<trkpt lat="56.455765" lon="8.130216">
<ele>-4.159267</ele>
<time>2026-07-13T10:41:44.000Z</time>
</trkpt>
<trkpt lat="56.455814" lon="8.130230">
<ele>-4.104479</ele>
<time>2026-07-13T10:41:45.000Z</time>
</trkpt>
<trkpt lat="56.455864" lon="8.130244">
<ele>-4.048600</ele>
<time>2026-07-13T10:41:46.000Z</time>
</trkpt>
<trkpt lat="56.455917" lon="8.130261">
<ele>-3.989152</ele>
<time>2026-07-13T10:41:47.000Z</time>
</trkpt>
<trkpt lat="56.455967" lon="8.130280">
<ele>-3.932726</ele>
<time>2026-07-13T10:41:48.000Z</time>
</trkpt>
<trkpt lat="56.456017" lon="8.130296">
<ele>-3.876647</ele>
<time>2026-07-13T10:41:49.000Z</time>
</trkpt>
<trkpt lat="56.456066" lon="8.130313">
<ele>-3.821544</ele>
<time>2026-07-13T10:41:50.000Z</time>
</trkpt>
<trkpt lat="56.456120" lon="8.130330">
<ele>-3.761009</ele>
<time>2026-07-13T10:41:51.000Z</time>
</trkpt>
<trkpt lat="56.456169" lon="8.130348">
<ele>-3.705787</ele>
<time>2026-07-13T10:41:52.000Z</time>
</trkpt>
<trkpt lat="56.456223" lon="8.130365">
<ele>-3.645252</ele>
<time>2026-07-13T10:41:53.000Z</time>
</trkpt>
<trkpt lat="56.456272" lon="8.130382">
<ele>-3.590149</ele>
<time>2026-07-13T10:41:54.000Z</time>
</trkpt>
<trkpt lat="56.456325" lon="8.130398">
<ele>-3.530805</ele>
<time>2026-07-13T10:41:55.000Z</time>
</trkpt>
<trkpt lat="56.456375" lon="8.130416">
<ele>-3.474501</ele>
<time>2026-07-13T10:41:56.000Z</time>
</trkpt>
<trkpt lat="56.456429" lon="8.130436">
<ele>-3.413625</ele>
<time>2026-07-13T10:41:57.000Z</time>
</trkpt>
<trkpt lat="56.456478" lon="8.130453">
<ele>-3.358522</ele>
<time>2026-07-13T10:41:58.000Z</time>
</trkpt>
<trkpt lat="56.456532" lon="8.130469">
<ele>-3.298088</ele>
<time>2026-07-13T10:41:59.000Z</time>
</trkpt>
<trkpt lat="56.456581" lon="8.130486">
<ele>-3.242985</ele>
<time>2026-07-13T10:42:00.000Z</time>
</trkpt>
<trkpt lat="56.456631" lon="8.130505">
<ele>-3.186559</ele>
<time>2026-07-13T10:42:01.000Z</time>
</trkpt>
<trkpt lat="56.456684" lon="8.130521">
<ele>-3.127214</ele>
<time>2026-07-13T10:42:02.000Z</time>
</trkpt>
<trkpt lat="56.456734" lon="8.130538">
<ele>-3.071026</ele>
<time>2026-07-13T10:42:03.000Z</time>
</trkpt>
<trkpt lat="56.456783" lon="8.130557">
<ele>-3.015680</ele>
<time>2026-07-13T10:42:04.000Z</time>
</trkpt>
<trkpt lat="56.456837" lon="8.130574">
<ele>-2.955145</ele>
<time>2026-07-13T10:42:05.000Z</time>
</trkpt>
<trkpt lat="56.456886" lon="8.130590">
<ele>-2.900154</ele>
<time>2026-07-13T10:42:06.000Z</time>
</trkpt>
<trkpt lat="56.456936" lon="8.130607">
<ele>-2.843965</ele>
<time>2026-07-13T10:42:07.000Z</time>
</trkpt>
<trkpt lat="56.456989" lon="8.130623">
<ele>-2.784621</ele>
<time>2026-07-13T10:42:08.000Z</time>
</trkpt>
<trkpt lat="56.457039" lon="8.130639">
<ele>-2.732433</ele>
<time>2026-07-13T10:42:09.000Z</time>
</trkpt>
<trkpt lat="56.457092" lon="8.130656">
<ele>-2.688907</ele>
<time>2026-07-13T10:42:10.000Z</time>
</trkpt>
<trkpt lat="56.457146" lon="8.130675">
<ele>-2.644422</ele>
<time>2026-07-13T10:42:11.000Z</time>
</trkpt>
<trkpt lat="56.457195" lon="8.130693">
<ele>-2.603990</ele>
<time>2026-07-13T10:42:12.000Z</time>
</trkpt>
<trkpt lat="56.457249" lon="8.130709">
<ele>-2.559742</ele>
<time>2026-07-13T10:42:13.000Z</time>
</trkpt>
<trkpt lat="56.457298" lon="8.130725">
<ele>-2.519478</ele>
<time>2026-07-13T10:42:14.000Z</time>
</trkpt>
<trkpt lat="56.457352" lon="8.130743">
<ele>-2.475076</ele>
<time>2026-07-13T10:42:15.000Z</time>
</trkpt>
<trkpt lat="56.457401" lon="8.130760">
<ele>-2.434731</ele>
<time>2026-07-13T10:42:16.000Z</time>
</trkpt>
<trkpt lat="56.457455" lon="8.130778">
<ele>-2.390329</ele>
<time>2026-07-13T10:42:17.000Z</time>
</trkpt>
<trkpt lat="56.457508" lon="8.130795">
<ele>-2.346803</ele>
<time>2026-07-13T10:42:18.000Z</time>
</trkpt>
<trkpt lat="56.457558" lon="8.130811">
<ele>-2.305743</ele>
<time>2026-07-13T10:42:19.000Z</time>
</trkpt>
<trkpt lat="56.457611" lon="8.130828">
<ele>-2.262217</ele>
<time>2026-07-13T10:42:20.000Z</time>
</trkpt>
<trkpt lat="56.457665" lon="8.130847">
<ele>-2.217732</ele>
<time>2026-07-13T10:42:21.000Z</time>
</trkpt>
<trkpt lat="56.457718" lon="8.130864">
<ele>-2.174206</ele>
<time>2026-07-13T10:42:22.000Z</time>
</trkpt>
<trkpt lat="56.457768" lon="8.130881">
<ele>-2.133066</ele>
<time>2026-07-13T10:42:23.000Z</time>
</trkpt>
<trkpt lat="56.457821" lon="8.130901">
<ele>-2.089286</ele>
<time>2026-07-13T10:42:24.000Z</time>
</trkpt>
<trkpt lat="56.457874" lon="8.130921">
<ele>-2.045506</ele>
<time>2026-07-13T10:42:25.000Z</time>
</trkpt>
<trkpt lat="56.457924" lon="8.130941">
<ele>-2.004098</ele>
<time>2026-07-13T10:42:26.000Z</time>
</trkpt>
<trkpt lat="56.457977" lon="8.130960">
<ele>-1.960407</ele>
<time>2026-07-13T10:42:27.000Z</time>
</trkpt>
<trkpt lat="56.458027" lon="8.130973">
<ele>-1.919559</ele>
<time>2026-07-13T10:42:28.000Z</time>
</trkpt>
<trkpt lat="56.458080" lon="8.130987">
<ele>-1.876246</ele>
<time>2026-07-13T10:42:29.000Z</time>
</trkpt>
<trkpt lat="56.458130" lon="8.131004">
<ele>-1.835107</ele>
<time>2026-07-13T10:42:30.000Z</time>
</trkpt>
<trkpt lat="56.458183" lon="8.131021">
<ele>-1.791580</ele>
<time>2026-07-13T10:42:31.000Z</time>
</trkpt>
<trkpt lat="56.458233" lon="8.131041">
<ele>-1.750172</ele>
<time>2026-07-13T10:42:32.000Z</time>
</trkpt>
<trkpt lat="56.458286" lon="8.131060">
<ele>-1.706481</ele>
<time>2026-07-13T10:42:33.000Z</time>
</trkpt>
<trkpt lat="56.458336" lon="8.131078">
<ele>-1.665256</ele>
<time>2026-07-13T10:42:34.000Z</time>
</trkpt>
<trkpt lat="56.458389" lon="8.131098">
<ele>-1.621476</ele>
<time>2026-07-13T10:42:35.000Z</time>
</trkpt>
<trkpt lat="56.458443" lon="8.131117">
<ele>-1.576992</ele>
<time>2026-07-13T10:42:36.000Z</time>
</trkpt>
<trkpt lat="56.458496" lon="8.131135">
<ele>-1.533385</ele>
<time>2026-07-13T10:42:37.000Z</time>
</trkpt>
<trkpt lat="56.458549" lon="8.131153">
<ele>-1.489779</ele>
<time>2026-07-13T10:42:38.000Z</time>
</trkpt>
<trkpt lat="56.458603" lon="8.131171">
<ele>-1.445377</ele>
<time>2026-07-13T10:42:39.000Z</time>
</trkpt>
<trkpt lat="56.458656" lon="8.131190">
<ele>-1.401686</ele>
<time>2026-07-13T10:42:40.000Z</time>
</trkpt>
<trkpt lat="56.458710" lon="8.131209">
<ele>-1.357201</ele>
<time>2026-07-13T10:42:41.000Z</time>
</trkpt>
<trkpt lat="56.458763" lon="8.131228">
<ele>-1.313510</ele>
<time>2026-07-13T10:42:42.000Z</time>
</trkpt>
<trkpt lat="56.458813" lon="8.131248">
<ele>-1.284074</ele>
<time>2026-07-13T10:42:43.000Z</time>
</trkpt>
<trkpt lat="56.458866" lon="8.131267">
<ele>-1.272093</ele>
<time>2026-07-13T10:42:44.000Z</time>
</trkpt>
<trkpt lat="56.458920" lon="8.131287">
<ele>-1.259872</ele>
<time>2026-07-13T10:42:45.000Z</time>
</trkpt>
<trkpt lat="56.458973" lon="8.131308">
<ele>-1.247841</ele>
<time>2026-07-13T10:42:46.000Z</time>
</trkpt>
<trkpt lat="56.459026" lon="8.131328">
<ele>-1.235837</ele>
<time>2026-07-13T10:42:47.000Z</time>
</trkpt>
<trkpt lat="56.459076" lon="8.131351">
<ele>-1.224398</ele>
<time>2026-07-13T10:42:48.000Z</time>
</trkpt>
<trkpt lat="56.459129" lon="8.131375">
<ele>-1.212284</ele>
<time>2026-07-13T10:42:49.000Z</time>
</trkpt>
<trkpt lat="56.459179" lon="8.131400">
<ele>-1.200782</ele>
<time>2026-07-13T10:42:50.000Z</time>
</trkpt>
<trkpt lat="56.459232" lon="8.131425">
<ele>-1.188637</ele>
<time>2026-07-13T10:42:51.000Z</time>
</trkpt>
<trkpt lat="56.459286" lon="8.131450">
<ele>-1.176278</ele>
<time>2026-07-13T10:42:52.000Z</time>
</trkpt>
<trkpt lat="56.459335" lon="8.131476">
<ele>-1.164956</ele>
<time>2026-07-13T10:42:53.000Z</time>
</trkpt>
<trkpt lat="56.459385" lon="8.131501">
<ele>-1.153454</ele>
<time>2026-07-13T10:42:54.000Z</time>
</trkpt>
<trkpt lat="56.459435" lon="8.131526">
<ele>-1.141952</ele>
<time>2026-07-13T10:42:55.000Z</time>
</trkpt>
<trkpt lat="56.459488" lon="8.131554">
<ele>-1.129710</ele>
<time>2026-07-13T10:42:56.000Z</time>
</trkpt>
<trkpt lat="56.459538" lon="8.131581">
<ele>-1.118140</ele>
<time>2026-07-13T10:42:57.000Z</time>
</trkpt>
<trkpt lat="56.459587" lon="8.131609">
<ele>-1.106746</ele>
<time>2026-07-13T10:42:58.000Z</time>
</trkpt>
<trkpt lat="56.459637" lon="8.131637">
<ele>-1.095141</ele>
<time>2026-07-13T10:42:59.000Z</time>
</trkpt>
<trkpt lat="56.459690" lon="8.131665">
<ele>-1.082899</ele>
<time>2026-07-13T10:43:00.000Z</time>
</trkpt>
<trkpt lat="56.459740" lon="8.131693">
<ele>-1.071294</ele>
<time>2026-07-13T10:43:01.000Z</time>
</trkpt>
<trkpt lat="56.459789" lon="8.131721">
<ele>-1.059900</ele>
<time>2026-07-13T10:43:02.000Z</time>
</trkpt>
<trkpt lat="56.459839" lon="8.131754">
<ele>-1.048099</ele>
<time>2026-07-13T10:43:03.000Z</time>
</trkpt>
<trkpt lat="56.459892" lon="8.131786">
<ele>-1.035711</ele>
<time>2026-07-13T10:43:04.000Z</time>
</trkpt>
<trkpt lat="56.459942" lon="8.131817">
<ele>-1.023992</ele>
<time>2026-07-13T10:43:05.000Z</time>
</trkpt>
<trkpt lat="56.459991" lon="8.131849">
<ele>-1.012441</ele>
<time>2026-07-13T10:43:06.000Z</time>
</trkpt>
<trkpt lat="56.460041" lon="8.131883">
<ele>-1.000598</ele>
<time>2026-07-13T10:43:07.000Z</time>
</trkpt>
<trkpt lat="56.460091" lon="8.131916">
<ele>-0.988797</ele>
<time>2026-07-13T10:43:08.000Z</time>
</trkpt>
<trkpt lat="56.460140" lon="8.131949">
<ele>-0.977204</ele>
<time>2026-07-13T10:43:09.000Z</time>
</trkpt>
<trkpt lat="56.460190" lon="8.131982">
<ele>-0.965403</ele>
<time>2026-07-13T10:43:10.000Z</time>
</trkpt>
<trkpt lat="56.460239" lon="8.132014">
<ele>-0.953853</ele>
<time>2026-07-13T10:43:11.000Z</time>
</trkpt>
<trkpt lat="56.460289" lon="8.132050">
<ele>-0.941921</ele>
<time>2026-07-13T10:43:12.000Z</time>
</trkpt>
<trkpt lat="56.460335" lon="8.132084">
<ele>-0.930903</ele>
<time>2026-07-13T10:43:13.000Z</time>
</trkpt>
<trkpt lat="56.460384" lon="8.132120">
<ele>-0.919178</ele>
<time>2026-07-13T10:43:14.000Z</time>
</trkpt>
<trkpt lat="56.460434" lon="8.132157">
<ele>-0.907200</ele>
<time>2026-07-13T10:43:15.000Z</time>
</trkpt>
<trkpt lat="56.460480" lon="8.132196">
<ele>-0.895937</ele>
<time>2026-07-13T10:43:16.000Z</time>
</trkpt>
<trkpt lat="56.460529" lon="8.132234">
<ele>-0.889783</ele>
<time>2026-07-13T10:43:17.000Z</time>
</trkpt>
<trkpt lat="56.460575" lon="8.132271">
<ele>-0.889793</ele>
<time>2026-07-13T10:43:18.000Z</time>
</trkpt>
<trkpt lat="56.460621" lon="8.132309">
<ele>-0.889803</ele>
<time>2026-07-13T10:43:19.000Z</time>
</trkpt>
<trkpt lat="56.460667" lon="8.132348">
<ele>-0.889814</ele>
<time>2026-07-13T10:43:20.000Z</time>
</trkpt>
<trkpt lat="56.460716" lon="8.132386">
<ele>-0.889824</ele>
<time>2026-07-13T10:43:21.000Z</time>
</trkpt>
<trkpt lat="56.460762" lon="8.132425">
<ele>-0.889835</ele>
<time>2026-07-13T10:43:22.000Z</time>
</trkpt>
<trkpt lat="56.460808" lon="8.132464">
<ele>-0.889845</ele>
<time>2026-07-13T10:43:23.000Z</time>
</trkpt>
<trkpt lat="56.460854" lon="8.132503">
<ele>-0.889855</ele>
<time>2026-07-13T10:43:24.000Z</time>
</trkpt>
<trkpt lat="56.460899" lon="8.132544">
<ele>-0.889866</ele>
<time>2026-07-13T10:43:25.000Z</time>
</trkpt>
<trkpt lat="56.460945" lon="8.132585">
<ele>-0.889876</ele>
<time>2026-07-13T10:43:26.000Z</time>
</trkpt>
<trkpt lat="56.460995" lon="8.132625">
<ele>-0.889887</ele>
<time>2026-07-13T10:43:27.000Z</time>
</trkpt>
<trkpt lat="56.461040" lon="8.132665">
<ele>-0.889898</ele>
<time>2026-07-13T10:43:28.000Z</time>
</trkpt>
<trkpt lat="56.461086" lon="8.132706">
<ele>-0.889908</ele>
<time>2026-07-13T10:43:29.000Z</time>
</trkpt>
<trkpt lat="56.461132" lon="8.132748">
<ele>-0.889919</ele>
<time>2026-07-13T10:43:30.000Z</time>
</trkpt>
<trkpt lat="56.461178" lon="8.132792">
<ele>-0.889929</ele>
<time>2026-07-13T10:43:31.000Z</time>
</trkpt>
<trkpt lat="56.461224" lon="8.132835">
<ele>-0.889940</ele>
<time>2026-07-13T10:43:32.000Z</time>
</trkpt>
<trkpt lat="56.461269" lon="8.132877">
<ele>-0.889950</ele>
<time>2026-07-13T10:43:33.000Z</time>
</trkpt>
<trkpt lat="56.461315" lon="8.132920">
<ele>-0.889961</ele>
<time>2026-07-13T10:43:34.000Z</time>
</trkpt>
<trkpt lat="56.461357" lon="8.132961">
<ele>-0.889970</ele>
<time>2026-07-13T10:43:35.000Z</time>
</trkpt>
<trkpt lat="56.461407" lon="8.133005">
<ele>-0.889982</ele>
<time>2026-07-13T10:43:36.000Z</time>
</trkpt>
<trkpt lat="56.461452" lon="8.133047">
<ele>-0.889992</ele>
<time>2026-07-13T10:43:37.000Z</time>
</trkpt>
<trkpt lat="56.461498" lon="8.133090">
<ele>-0.890003</ele>
<time>2026-07-13T10:43:38.000Z</time>
</trkpt>
<trkpt lat="56.461544" lon="8.133132">
<ele>-0.890013</ele>
<time>2026-07-13T10:43:39.000Z</time>
</trkpt>
<trkpt lat="56.461590" lon="8.133173">
<ele>-0.890024</ele>
<time>2026-07-13T10:43:40.000Z</time>
</trkpt>
<trkpt lat="56.461632" lon="8.133214">
<ele>-0.890033</ele>
<time>2026-07-13T10:43:41.000Z</time>
</trkpt>
<trkpt lat="56.461678" lon="8.133257">
<ele>-0.890044</ele>
<time>2026-07-13T10:43:42.000Z</time>
</trkpt>
<trkpt lat="56.461723" lon="8.133300">
<ele>-0.890054</ele>
<time>2026-07-13T10:43:43.000Z</time>
</trkpt>
<trkpt lat="56.461769" lon="8.133342">
<ele>-0.890065</ele>
<time>2026-07-13T10:43:44.000Z</time>
</trkpt>
<trkpt lat="56.461815" lon="8.133383">
<ele>-0.890075</ele>
<time>2026-07-13T10:43:45.000Z</time>
</trkpt>
<trkpt lat="56.461857" lon="8.133419">
<ele>-0.890085</ele>
<time>2026-07-13T10:43:46.000Z</time>
</trkpt>
<trkpt lat="56.461903" lon="8.133455">
<ele>-0.890095</ele>
<time>2026-07-13T10:43:47.000Z</time>
</trkpt>
<trkpt lat="56.461952" lon="8.133490">
<ele>-0.890106</ele>
<time>2026-07-13T10:43:48.000Z</time>
</trkpt>
<trkpt lat="56.461998" lon="8.133521">
<ele>-0.890116</ele>
<time>2026-07-13T10:43:49.000Z</time>
</trkpt>
<trkpt lat="56.462048" lon="8.133555">
<ele>-0.890127</ele>
<time>2026-07-13T10:43:50.000Z</time>
</trkpt>
<trkpt lat="56.462093" lon="8.133592">
<ele>-0.890137</ele>
<time>2026-07-13T10:43:51.000Z</time>
</trkpt>
<trkpt lat="56.462143" lon="8.133629">
<ele>-0.906752</ele>
<time>2026-07-13T10:43:52.000Z</time>
</trkpt>
<trkpt lat="56.462189" lon="8.133667">
<ele>-0.957223</ele>
<time>2026-07-13T10:43:53.000Z</time>
</trkpt>
<trkpt lat="56.462238" lon="8.133706">
<ele>-1.010652</ele>
<time>2026-07-13T10:43:54.000Z</time>
</trkpt>
<trkpt lat="56.462284" lon="8.133746">
<ele>-1.061590</ele>
<time>2026-07-13T10:43:55.000Z</time>
</trkpt>
<trkpt lat="56.462330" lon="8.133783">
<ele>-1.111834</ele>
<time>2026-07-13T10:43:56.000Z</time>
</trkpt>
<trkpt lat="56.462376" lon="8.133807">
<ele>-1.159618</ele>
<time>2026-07-13T10:43:57.000Z</time>
</trkpt>
<trkpt lat="56.462421" lon="8.133803">
<ele>-1.204588</ele>
<time>2026-07-13T10:43:58.000Z</time>
</trkpt>
<trkpt lat="56.462463" lon="8.133766">
<ele>-1.251212</ele>
<time>2026-07-13T10:43:59.000Z</time>
</trkpt>
<trkpt lat="56.462498" lon="8.133705">
<ele>-1.299710</ele>
<time>2026-07-13T10:44:00.000Z</time>
</trkpt>
<trkpt lat="56.462524" lon="8.133624">
<ele>-1.351370</ele>
<time>2026-07-13T10:44:01.000Z</time>
</trkpt>
<trkpt lat="56.462540" lon="8.133535">
<ele>-1.402982</ele>
<time>2026-07-13T10:44:02.000Z</time>
</trkpt>
<trkpt lat="56.462551" lon="8.133445">
<ele>-1.453813</ele>
<time>2026-07-13T10:44:03.000Z</time>
</trkpt>
<trkpt lat="56.462559" lon="8.133351">
<ele>-1.506261</ele>
<time>2026-07-13T10:44:04.000Z</time>
</trkpt>
<trkpt lat="56.462566" lon="8.133253">
<ele>-1.560754</ele>
<time>2026-07-13T10:44:05.000Z</time>
</trkpt>
<trkpt lat="56.462570" lon="8.133160">
<ele>-1.612194</ele>
<time>2026-07-13T10:44:06.000Z</time>
</trkpt>
<trkpt lat="56.462570" lon="8.133066">
<ele>-1.664031</ele>
<time>2026-07-13T10:44:07.000Z</time>
</trkpt>
<trkpt lat="56.462574" lon="8.132972">
<ele>-1.716021</ele>
<time>2026-07-13T10:44:08.000Z</time>
</trkpt>
<trkpt lat="56.462578" lon="8.132875">
<ele>-1.769661</ele>
<time>2026-07-13T10:44:09.000Z</time>
</trkpt>
<trkpt lat="56.462582" lon="8.132777">
<ele>-1.823851</ele>
<time>2026-07-13T10:44:10.000Z</time>
</trkpt>
<trkpt lat="56.462585" lon="8.132682">
<ele>-1.876325</ele>
<time>2026-07-13T10:44:11.000Z</time>
</trkpt>
<trkpt lat="56.462589" lon="8.132585">
<ele>-1.929965</ele>
<time>2026-07-13T10:44:12.000Z</time>
</trkpt>
<trkpt lat="56.462593" lon="8.132493">
<ele>-1.980855</ele>
<time>2026-07-13T10:44:13.000Z</time>
</trkpt>
<trkpt lat="56.462597" lon="8.132402">
<ele>-2.031196</ele>
<time>2026-07-13T10:44:14.000Z</time>
</trkpt>
<trkpt lat="56.462601" lon="8.132301">
<ele>-2.087036</ele>
<time>2026-07-13T10:44:15.000Z</time>
</trkpt>
<trkpt lat="56.462601" lon="8.132208">
<ele>-2.138322</ele>
<time>2026-07-13T10:44:16.000Z</time>
</trkpt>
<trkpt lat="56.462605" lon="8.132116">
<ele>-2.189212</ele>
<time>2026-07-13T10:44:17.000Z</time>
</trkpt>
<trkpt lat="56.462608" lon="8.132026">
<ele>-2.238933</ele>
<time>2026-07-13T10:44:18.000Z</time>
</trkpt>
<trkpt lat="56.462608" lon="8.131935">
<ele>-2.289116</ele>
<time>2026-07-13T10:44:19.000Z</time>
</trkpt>
<trkpt lat="56.462616" lon="8.131843">
<ele>-2.340474</ele>
<time>2026-07-13T10:44:20.000Z</time>
</trkpt>
<trkpt lat="56.462620" lon="8.131748">
<ele>-2.393014</ele>
<time>2026-07-13T10:44:21.000Z</time>
</trkpt>
<trkpt lat="56.462620" lon="8.131650">
<ele>-2.447057</ele>
<time>2026-07-13T10:44:22.000Z</time>
</trkpt>
<trkpt lat="56.462624" lon="8.131548">
<ele>-2.503447</ele>
<time>2026-07-13T10:44:23.000Z</time>
</trkpt>
<trkpt lat="56.462627" lon="8.131445">
<ele>-2.560325</ele>
<time>2026-07-13T10:44:24.000Z</time>
</trkpt>
<trkpt lat="56.462631" lon="8.131339">
<ele>-2.618916</ele>
<time>2026-07-13T10:44:25.000Z</time>
</trkpt>
<trkpt lat="56.462635" lon="8.131234">
<ele>-2.676956</ele>
<time>2026-07-13T10:44:26.000Z</time>
</trkpt>
<trkpt lat="56.462639" lon="8.131130">
<ele>-2.683801</ele>
<time>2026-07-13T10:44:27.000Z</time>
</trkpt>
<trkpt lat="56.462643" lon="8.131026">
<ele>-2.681872</ele>
<time>2026-07-13T10:44:28.000Z</time>
</trkpt>
<trkpt lat="56.462646" lon="8.130922">
<ele>-2.679944</ele>
<time>2026-07-13T10:44:29.000Z</time>
</trkpt>
<trkpt lat="56.462650" lon="8.130820">
<ele>-2.678051</ele>
<time>2026-07-13T10:44:30.000Z</time>
</trkpt>
<trkpt lat="56.462654" lon="8.130719">
<ele>-2.676177</ele>
<time>2026-07-13T10:44:31.000Z</time>
</trkpt>
<trkpt lat="56.462658" lon="8.130615">
<ele>-2.674247</ele>
<time>2026-07-13T10:44:32.000Z</time>
</trkpt>
<trkpt lat="56.462658" lon="8.130515">
<ele>-2.672396</ele>
<time>2026-07-13T10:44:33.000Z</time>
</trkpt>
<trkpt lat="56.462662" lon="8.130417">
<ele>-2.670577</ele>
<time>2026-07-13T10:44:34.000Z</time>
</trkpt>
<trkpt lat="56.462666" lon="8.130322">
<ele>-2.668814</ele>
<time>2026-07-13T10:44:35.000Z</time>
</trkpt>
<trkpt lat="56.462669" lon="8.130228">
<ele>-2.667071</ele>
<time>2026-07-13T10:44:36.000Z</time>
</trkpt>
<trkpt lat="56.462677" lon="8.130138">
<ele>-2.665383</ele>
<time>2026-07-13T10:44:37.000Z</time>
</trkpt>
<trkpt lat="56.462685" lon="8.130052">
<ele>-2.663769</ele>
<time>2026-07-13T10:44:38.000Z</time>
</trkpt>
<trkpt lat="56.462700" lon="8.129970">
<ele>-2.662170</ele>
<time>2026-07-13T10:44:39.000Z</time>
</trkpt>
<trkpt lat="56.462719" lon="8.129894">
<ele>-2.660626</ele>
<time>2026-07-13T10:44:40.000Z</time>
</trkpt>
<trkpt lat="56.462746" lon="8.129826">
<ele>-2.659076</ele>
<time>2026-07-13T10:44:41.000Z</time>
</trkpt>
<trkpt lat="56.462776" lon="8.129766">
<ele>-2.657578</ele>
<time>2026-07-13T10:44:42.000Z</time>
</trkpt>
<trkpt lat="56.462814" lon="8.129723">
<ele>-2.656077</ele>
<time>2026-07-13T10:44:43.000Z</time>
</trkpt>
<trkpt lat="56.462856" lon="8.129694">
<ele>-2.654571</ele>
<time>2026-07-13T10:44:44.000Z</time>
</trkpt>
<trkpt lat="56.462902" lon="8.129678">
<ele>-2.653001</ele>
<time>2026-07-13T10:44:45.000Z</time>
</trkpt>
<trkpt lat="56.462940" lon="8.129669">
<ele>-2.651717</ele>
<time>2026-07-13T10:44:46.000Z</time>
</trkpt>
<trkpt lat="56.462982" lon="8.129666">
<ele>-2.650309</ele>
<time>2026-07-13T10:44:47.000Z</time>
</trkpt>
<trkpt lat="56.463024" lon="8.129665">
<ele>-2.648902</ele>
<time>2026-07-13T10:44:48.000Z</time>
</trkpt>
<trkpt lat="56.463066" lon="8.129666">
<ele>-2.647494</ele>
<time>2026-07-13T10:44:49.000Z</time>
</trkpt>
<trkpt lat="56.463108" lon="8.129663">
<ele>-2.646086</ele>
<time>2026-07-13T10:44:50.000Z</time>
</trkpt>
<trkpt lat="56.463150" lon="8.129657">
<ele>-2.644675</ele>
<time>2026-07-13T10:44:51.000Z</time>
</trkpt>
<trkpt lat="56.463196" lon="8.129647">
<ele>-2.643122</ele>
<time>2026-07-13T10:44:52.000Z</time>
</trkpt>
<trkpt lat="56.463238" lon="8.129634">
<ele>-2.641695</ele>
<time>2026-07-13T10:44:53.000Z</time>
</trkpt>
<trkpt lat="56.463284" lon="8.129621">
<ele>-2.640135</ele>
<time>2026-07-13T10:44:54.000Z</time>
</trkpt>
<trkpt lat="56.463329" lon="8.129607">
<ele>-2.638605</ele>
<time>2026-07-13T10:44:55.000Z</time>
</trkpt>
<trkpt lat="56.463375" lon="8.129593">
<ele>-2.637042</ele>
<time>2026-07-13T10:44:56.000Z</time>
</trkpt>
<trkpt lat="56.463417" lon="8.129584">
<ele>-2.635625</ele>
<time>2026-07-13T10:44:57.000Z</time>
</trkpt>
<trkpt lat="56.463467" lon="8.129580">
<ele>-2.633948</ele>
<time>2026-07-13T10:44:58.000Z</time>
</trkpt>
<trkpt lat="56.463516" lon="8.129573">
<ele>-2.632302</ele>
<time>2026-07-13T10:44:59.000Z</time>
</trkpt>
<trkpt lat="56.463562" lon="8.129561">
<ele>-2.630744</ele>
<time>2026-07-13T10:45:00.000Z</time>
</trkpt>
<trkpt lat="56.463608" lon="8.129548">
<ele>-2.629185</ele>
<time>2026-07-13T10:45:01.000Z</time>
</trkpt>
<trkpt lat="56.463657" lon="8.129535">
<ele>-2.627525</ele>
<time>2026-07-13T10:45:02.000Z</time>
</trkpt>
<trkpt lat="56.463707" lon="8.129524">
<ele>-2.625838</ele>
<time>2026-07-13T10:45:03.000Z</time>
</trkpt>
<trkpt lat="56.463757" lon="8.129515">
<ele>-2.593917</ele>
<time>2026-07-13T10:45:04.000Z</time>
</trkpt>
<trkpt lat="56.463806" lon="8.129505">
<ele>-2.543767</ele>
<time>2026-07-13T10:45:05.000Z</time>
</trkpt>
<trkpt lat="56.463856" lon="8.129499">
<ele>-2.492804</ele>
<time>2026-07-13T10:45:06.000Z</time>
</trkpt>
<trkpt lat="56.463909" lon="8.129490">
<ele>-2.438665</ele>
<time>2026-07-13T10:45:07.000Z</time>
</trkpt>
<trkpt lat="56.463955" lon="8.129479">
<ele>-2.391476</ele>
<time>2026-07-13T10:45:08.000Z</time>
</trkpt>
<trkpt lat="56.464004" lon="8.129471">
<ele>-2.341439</ele>
<time>2026-07-13T10:45:09.000Z</time>
</trkpt>
<trkpt lat="56.464054" lon="8.129464">
<ele>-2.290436</ele>
<time>2026-07-13T10:45:10.000Z</time>
</trkpt>
<trkpt lat="56.464104" lon="8.129460">
<ele>-2.239535</ele>
<time>2026-07-13T10:45:11.000Z</time>
</trkpt>
<trkpt lat="56.464153" lon="8.129458">
<ele>-2.189688</ele>
<time>2026-07-13T10:45:12.000Z</time>
</trkpt>
<trkpt lat="56.464203" lon="8.129456">
<ele>-2.138825</ele>
<time>2026-07-13T10:45:13.000Z</time>
</trkpt>
<trkpt lat="56.464249" lon="8.129453">
<ele>-2.092011</ele>
<time>2026-07-13T10:45:14.000Z</time>
</trkpt>
<trkpt lat="56.464298" lon="8.129449">
<ele>-2.042126</ele>
<time>2026-07-13T10:45:15.000Z</time>
</trkpt>
<trkpt lat="56.464348" lon="8.129448">
<ele>-1.991272</ele>
<time>2026-07-13T10:45:16.000Z</time>
</trkpt>
<trkpt lat="56.464397" lon="8.129446">
<ele>-1.941425</ele>
<time>2026-07-13T10:45:17.000Z</time>
</trkpt>
<trkpt lat="56.464443" lon="8.129442">
<ele>-1.894588</ele>
<time>2026-07-13T10:45:18.000Z</time>
</trkpt>
<trkpt lat="56.464493" lon="8.129440">
<ele>-1.843724</ele>
<time>2026-07-13T10:45:19.000Z</time>
</trkpt>
<trkpt lat="56.464542" lon="8.129438">
<ele>-1.793877</ele>
<time>2026-07-13T10:45:20.000Z</time>
</trkpt>
<trkpt lat="56.464588" lon="8.129438">
<ele>-1.747094</ele>
<time>2026-07-13T10:45:21.000Z</time>
</trkpt>
<trkpt lat="56.464638" lon="8.129438">
<ele>-1.696243</ele>
<time>2026-07-13T10:45:22.000Z</time>
</trkpt>
<trkpt lat="56.464684" lon="8.129437">
<ele>-1.649456</ele>
<time>2026-07-13T10:45:23.000Z</time>
</trkpt>
<trkpt lat="56.464729" lon="8.129434">
<ele>-1.603659</ele>
<time>2026-07-13T10:45:24.000Z</time>
</trkpt>
<trkpt lat="56.464775" lon="8.129431">
<ele>-1.556846</ele>
<time>2026-07-13T10:45:25.000Z</time>
</trkpt>
<trkpt lat="56.464821" lon="8.129430">
<ele>-1.510059</ele>
<time>2026-07-13T10:45:26.000Z</time>
</trkpt>
<trkpt lat="56.464867" lon="8.129429">
<ele>-1.463273</ele>
<time>2026-07-13T10:45:27.000Z</time>
</trkpt>
<trkpt lat="56.464909" lon="8.129428">
<ele>-1.420554</ele>
<time>2026-07-13T10:45:28.000Z</time>
</trkpt>
<trkpt lat="56.464954" lon="8.129427">
<ele>-1.374784</ele>
<time>2026-07-13T10:45:29.000Z</time>
</trkpt>
<trkpt lat="56.465000" lon="8.129426">
<ele>-1.327998</ele>
<time>2026-07-13T10:45:30.000Z</time>
</trkpt>
<trkpt lat="56.465046" lon="8.129424">
<ele>-1.281201</ele>
<time>2026-07-13T10:45:31.000Z</time>
</trkpt>
<trkpt lat="56.465092" lon="8.129422">
<ele>-1.234405</ele>
<time>2026-07-13T10:45:32.000Z</time>
</trkpt>
<trkpt lat="56.465141" lon="8.129417">
<ele>-1.184491</ele>
<time>2026-07-13T10:45:33.000Z</time>
</trkpt>
<trkpt lat="56.465187" lon="8.129414">
<ele>-1.137678</ele>
<time>2026-07-13T10:45:34.000Z</time>
</trkpt>
<trkpt lat="56.465233" lon="8.129415">
<ele>-1.090891</ele>
<time>2026-07-13T10:45:35.000Z</time>
</trkpt>
<trkpt lat="56.465282" lon="8.129412">
<ele>-1.041029</ele>
<time>2026-07-13T10:45:36.000Z</time>
</trkpt>
<trkpt lat="56.465332" lon="8.129407">
<ele>-0.990100</ele>
<time>2026-07-13T10:45:37.000Z</time>
</trkpt>
<trkpt lat="56.465382" lon="8.129405">
<ele>-0.939236</ele>
<time>2026-07-13T10:45:38.000Z</time>
</trkpt>
<trkpt lat="56.465431" lon="8.129406">
<ele>-0.889399</ele>
<time>2026-07-13T10:45:39.000Z</time>
</trkpt>
<trkpt lat="56.465481" lon="8.129406">
<ele>-0.838547</ele>
<time>2026-07-13T10:45:40.000Z</time>
</trkpt>
<trkpt lat="56.465527" lon="8.129403">
<ele>-0.795466</ele>
<time>2026-07-13T10:45:41.000Z</time>
</trkpt>
<trkpt lat="56.465576" lon="8.129397">
<ele>-0.790056</ele>
<time>2026-07-13T10:45:42.000Z</time>
</trkpt>
<trkpt lat="56.465626" lon="8.129392">
<ele>-0.784539</ele>
<time>2026-07-13T10:45:43.000Z</time>
</trkpt>
<trkpt lat="56.465675" lon="8.129386">
<ele>-0.779128</ele>
<time>2026-07-13T10:45:44.000Z</time>
</trkpt>
<trkpt lat="56.465721" lon="8.129379">
<ele>-0.774043</ele>
<time>2026-07-13T10:45:45.000Z</time>
</trkpt>
<trkpt lat="56.465771" lon="8.129369">
<ele>-0.768501</ele>
<time>2026-07-13T10:45:46.000Z</time>
</trkpt>
<trkpt lat="56.465816" lon="8.129355">
<ele>-0.763470</ele>
<time>2026-07-13T10:45:47.000Z</time>
</trkpt>
<trkpt lat="56.465862" lon="8.129342">
<ele>-0.758341</ele>
<time>2026-07-13T10:45:48.000Z</time>
</trkpt>
<trkpt lat="56.465908" lon="8.129328">
<ele>-0.753202</ele>
<time>2026-07-13T10:45:49.000Z</time>
</trkpt>
<trkpt lat="56.465954" lon="8.129313">
<ele>-0.748053</ele>
<time>2026-07-13T10:45:50.000Z</time>
</trkpt>
<trkpt lat="56.466000" lon="8.129296">
<ele>-0.742881</ele>
<time>2026-07-13T10:45:51.000Z</time>
</trkpt>
<trkpt lat="56.466045" lon="8.129278">
<ele>-0.737804</ele>
<time>2026-07-13T10:45:52.000Z</time>
</trkpt>
<trkpt lat="56.466091" lon="8.129259">
<ele>-0.732606</ele>
<time>2026-07-13T10:45:53.000Z</time>
</trkpt>
<trkpt lat="56.466137" lon="8.129240">
<ele>-0.727408</ele>
<time>2026-07-13T10:45:54.000Z</time>
</trkpt>
<trkpt lat="56.466183" lon="8.129223">
<ele>-0.722235</ele>
<time>2026-07-13T10:45:55.000Z</time>
</trkpt>
<trkpt lat="56.466232" lon="8.129207">
<ele>-0.716750</ele>
<time>2026-07-13T10:45:56.000Z</time>
</trkpt>
<trkpt lat="56.466278" lon="8.129192">
<ele>-0.711601</ele>
<time>2026-07-13T10:45:57.000Z</time>
</trkpt>
<trkpt lat="56.466328" lon="8.129183">
<ele>-0.706065</ele>
<time>2026-07-13T10:45:58.000Z</time>
</trkpt>
<trkpt lat="56.466377" lon="8.129179">
<ele>-0.700661</ele>
<time>2026-07-13T10:45:59.000Z</time>
</trkpt>
<trkpt lat="56.466427" lon="8.129177">
<ele>-0.695152</ele>
<time>2026-07-13T10:46:00.000Z</time>
</trkpt>
<trkpt lat="56.466473" lon="8.129177">
<ele>-0.690084</ele>
<time>2026-07-13T10:46:01.000Z</time>
</trkpt>
<trkpt lat="56.466522" lon="8.129179">
<ele>-0.684684</ele>
<time>2026-07-13T10:46:02.000Z</time>
</trkpt>
<trkpt lat="56.466568" lon="8.129185">
<ele>-0.679603</ele>
<time>2026-07-13T10:46:03.000Z</time>
</trkpt>
<trkpt lat="56.466618" lon="8.129195">
<ele>-0.674061</ele>
<time>2026-07-13T10:46:04.000Z</time>
</trkpt>
<trkpt lat="56.466663" lon="8.129212">
<ele>-0.668997</ele>
<time>2026-07-13T10:46:05.000Z</time>
</trkpt>
<trkpt lat="56.466705" lon="8.129234">
<ele>-0.664180</ele>
<time>2026-07-13T10:46:06.000Z</time>
</trkpt>
<trkpt lat="56.466751" lon="8.129262">
<ele>-0.658834</ele>
<time>2026-07-13T10:46:07.000Z</time>
</trkpt>
<trkpt lat="56.466797" lon="8.129291">
<ele>-0.653467</ele>
<time>2026-07-13T10:46:08.000Z</time>
</trkpt>
<trkpt lat="56.466843" lon="8.129320">
<ele>-0.648101</ele>
<time>2026-07-13T10:46:09.000Z</time>
</trkpt>
<trkpt lat="56.466888" lon="8.129352">
<ele>-0.642775</ele>
<time>2026-07-13T10:46:10.000Z</time>
</trkpt>
<trkpt lat="56.466934" lon="8.129383">
<ele>-0.637367</ele>
<time>2026-07-13T10:46:11.000Z</time>
</trkpt>
<trkpt lat="56.466980" lon="8.129416">
<ele>-0.631916</ele>
<time>2026-07-13T10:46:12.000Z</time>
</trkpt>
<trkpt lat="56.467026" lon="8.129450">
<ele>-0.626442</ele>
<time>2026-07-13T10:46:13.000Z</time>
</trkpt>
<trkpt lat="56.467072" lon="8.129482">
<ele>-0.621013</ele>
<time>2026-07-13T10:46:14.000Z</time>
</trkpt>
<trkpt lat="56.467117" lon="8.129516">
<ele>-0.615641</ele>
<time>2026-07-13T10:46:15.000Z</time>
</trkpt>
<trkpt lat="56.467163" lon="8.129542">
<ele>-0.610332</ele>
<time>2026-07-13T10:46:16.000Z</time>
</trkpt>
<trkpt lat="56.467213" lon="8.129561">
<ele>-0.604703</ele>
<time>2026-07-13T10:46:17.000Z</time>
</trkpt>
<trkpt lat="56.467258" lon="8.129580">
<ele>-0.599613</ele>
<time>2026-07-13T10:46:18.000Z</time>
</trkpt>
<trkpt lat="56.467304" lon="8.129602">
<ele>-0.596569</ele>
<time>2026-07-13T10:46:19.000Z</time>
</trkpt>
<trkpt lat="56.467350" lon="8.129624">
<ele>-0.594721</ele>
<time>2026-07-13T10:46:20.000Z</time>
</trkpt>
<trkpt lat="56.467400" lon="8.129646">
<ele>-0.592722</ele>
<time>2026-07-13T10:46:21.000Z</time>
</trkpt>
<trkpt lat="56.467445" lon="8.129664">
<ele>-0.590932</ele>
<time>2026-07-13T10:46:22.000Z</time>
</trkpt>
<trkpt lat="56.467487" lon="8.129679">
<ele>-0.589269</ele>
<time>2026-07-13T10:46:23.000Z</time>
</trkpt>
<trkpt lat="56.467533" lon="8.129693">
<ele>-0.587457</ele>
<time>2026-07-13T10:46:24.000Z</time>
</trkpt>
<trkpt lat="56.467575" lon="8.129710">
<ele>-0.585785</ele>
<time>2026-07-13T10:46:25.000Z</time>
</trkpt>
<trkpt lat="56.467617" lon="8.129725">
<ele>-0.584122</ele>
<time>2026-07-13T10:46:26.000Z</time>
</trkpt>
<trkpt lat="56.467655" lon="8.129735">
<ele>-0.582630</ele>
<time>2026-07-13T10:46:27.000Z</time>
</trkpt>
<trkpt lat="56.467693" lon="8.129742">
<ele>-0.581146</ele>
<time>2026-07-13T10:46:28.000Z</time>
</trkpt>
<trkpt lat="56.467732" lon="8.129747">
<ele>-0.579627</ele>
<time>2026-07-13T10:46:29.000Z</time>
</trkpt>
<trkpt lat="56.467770" lon="8.129753">
<ele>-0.578145</ele>
<time>2026-07-13T10:46:30.000Z</time>
</trkpt>
<trkpt lat="56.467812" lon="8.129758">
<ele>-0.576510</ele>
<time>2026-07-13T10:46:31.000Z</time>
</trkpt>
<trkpt lat="56.467857" lon="8.129759">
<ele>-0.574762</ele>
<time>2026-07-13T10:46:32.000Z</time>
</trkpt>
<trkpt lat="56.467903" lon="8.129754">
<ele>-0.572972</ele>
<time>2026-07-13T10:46:33.000Z</time>
</trkpt>
<trkpt lat="56.467949" lon="8.129746">
<ele>-0.571177</ele>
<time>2026-07-13T10:46:34.000Z</time>
</trkpt>
<trkpt lat="56.467995" lon="8.129738">
<ele>-0.569382</ele>
<time>2026-07-13T10:46:35.000Z</time>
</trkpt>
<trkpt lat="56.468044" lon="8.129729">
<ele>-0.567468</ele>
<time>2026-07-13T10:46:36.000Z</time>
</trkpt>
<trkpt lat="56.468090" lon="8.129720">
<ele>-0.565671</ele>
<time>2026-07-13T10:46:37.000Z</time>
</trkpt>
<trkpt lat="56.468140" lon="8.129710">
<ele>-0.563717</ele>
<time>2026-07-13T10:46:38.000Z</time>
</trkpt>
<trkpt lat="56.468185" lon="8.129701">
<ele>-0.561958</ele>
<time>2026-07-13T10:46:39.000Z</time>
</trkpt>
<trkpt lat="56.468231" lon="8.129692">
<ele>-0.560161</ele>
<time>2026-07-13T10:46:40.000Z</time>
</trkpt>
<trkpt lat="56.468277" lon="8.129685">
<ele>-0.558367</ele>
<time>2026-07-13T10:46:41.000Z</time>
</trkpt>
<trkpt lat="56.468323" lon="8.129680">
<ele>-0.556577</ele>
<time>2026-07-13T10:46:42.000Z</time>
</trkpt>
<trkpt lat="56.468369" lon="8.129673">
<ele>-0.554784</ele>
<time>2026-07-13T10:46:43.000Z</time>
</trkpt>
<trkpt lat="56.468414" lon="8.129667">
<ele>-0.553031</ele>
<time>2026-07-13T10:46:44.000Z</time>
</trkpt>
<trkpt lat="56.468460" lon="8.129661">
<ele>-0.551239</ele>
<time>2026-07-13T10:46:45.000Z</time>
</trkpt>
<trkpt lat="56.468502" lon="8.129655">
<ele>-0.549603</ele>
<time>2026-07-13T10:46:46.000Z</time>
</trkpt>
<trkpt lat="56.468540" lon="8.129651">
<ele>-0.548124</ele>
<time>2026-07-13T10:46:47.000Z</time>
</trkpt>
<trkpt lat="56.468582" lon="8.129649">
<ele>-0.546492</ele>
<time>2026-07-13T10:46:48.000Z</time>
</trkpt>
<trkpt lat="56.468620" lon="8.129655">
<ele>-0.545010</ele>
<time>2026-07-13T10:46:49.000Z</time>
</trkpt>
<trkpt lat="56.468662" lon="8.129662">
<ele>-0.543372</ele>
<time>2026-07-13T10:46:50.000Z</time>
</trkpt>
<trkpt lat="56.468700" lon="8.129675">
<ele>-0.541869</ele>
<time>2026-07-13T10:46:51.000Z</time>
</trkpt>
<trkpt lat="56.468746" lon="8.129700">
<ele>-0.540004</ele>
<time>2026-07-13T10:46:52.000Z</time>
</trkpt>
<trkpt lat="56.468792" lon="8.129724">
<ele>-0.538144</ele>
<time>2026-07-13T10:46:53.000Z</time>
</trkpt>
<trkpt lat="56.468830" lon="8.129750">
<ele>-0.536566</ele>
<time>2026-07-13T10:46:54.000Z</time>
</trkpt>
<trkpt lat="56.468872" lon="8.129781">
<ele>-0.534804</ele>
<time>2026-07-13T10:46:55.000Z</time>
</trkpt>
<trkpt lat="56.468914" lon="8.129817">
<ele>-0.532999</ele>
<time>2026-07-13T10:46:56.000Z</time>
</trkpt>
<trkpt lat="56.468956" lon="8.129854">
<ele>-0.531184</ele>
<time>2026-07-13T10:46:57.000Z</time>
</trkpt>
<trkpt lat="56.468994" lon="8.129891">
<ele>-0.529508</ele>
<time>2026-07-13T10:46:58.000Z</time>
</trkpt>
<trkpt lat="56.469036" lon="8.129931">
<ele>-0.525541</ele>
<time>2026-07-13T10:46:59.000Z</time>
</trkpt>
<trkpt lat="56.469078" lon="8.129971">
<ele>-0.506662</ele>
<time>2026-07-13T10:47:00.000Z</time>
</trkpt>
<trkpt lat="56.469116" lon="8.130012">
<ele>-0.489064</ele>
<time>2026-07-13T10:47:01.000Z</time>
</trkpt>
<trkpt lat="56.469158" lon="8.130054">
<ele>-0.469976</ele>
<time>2026-07-13T10:47:02.000Z</time>
</trkpt>
<trkpt lat="56.469200" lon="8.130091">
<ele>-0.451394</ele>
<time>2026-07-13T10:47:03.000Z</time>
</trkpt>
<trkpt lat="56.469242" lon="8.130122">
<ele>-0.433350</ele>
<time>2026-07-13T10:47:04.000Z</time>
</trkpt>
<trkpt lat="56.469280" lon="8.130152">
<ele>-0.416859</ele>
<time>2026-07-13T10:47:05.000Z</time>
</trkpt>
<trkpt lat="56.469322" lon="8.130178">
<ele>-0.399200</ele>
<time>2026-07-13T10:47:06.000Z</time>
</trkpt>
<trkpt lat="56.469364" lon="8.130203">
<ele>-0.381612</ele>
<time>2026-07-13T10:47:07.000Z</time>
</trkpt>
<trkpt lat="56.469406" lon="8.130225">
<ele>-0.364219</ele>
<time>2026-07-13T10:47:08.000Z</time>
</trkpt>
<trkpt lat="56.469448" lon="8.130242">
<ele>-0.347098</ele>
<time>2026-07-13T10:47:09.000Z</time>
</trkpt>
<trkpt lat="56.469490" lon="8.130261">
<ele>-0.329876</ele>
<time>2026-07-13T10:47:10.000Z</time>
</trkpt>
<trkpt lat="56.469536" lon="8.130278">
<ele>-0.311199</ele>
<time>2026-07-13T10:47:11.000Z</time>
</trkpt>
<trkpt lat="56.469578" lon="8.130290">
<ele>-0.294284</ele>
<time>2026-07-13T10:47:12.000Z</time>
</trkpt>
<trkpt lat="56.469624" lon="8.130300">
<ele>-0.275853</ele>
<time>2026-07-13T10:47:13.000Z</time>
</trkpt>
<trkpt lat="56.469666" lon="8.130309">
<ele>-0.259028</ele>
<time>2026-07-13T10:47:14.000Z</time>
</trkpt>
<trkpt lat="56.469707" lon="8.130319">
<ele>-0.242570</ele>
<time>2026-07-13T10:47:15.000Z</time>
</trkpt>
<trkpt lat="56.469753" lon="8.130330">
<ele>-0.224112</ele>
<time>2026-07-13T10:47:16.000Z</time>
</trkpt>
<trkpt lat="56.469795" lon="8.130340">
<ele>-0.207260</ele>
<time>2026-07-13T10:47:17.000Z</time>
</trkpt>
<trkpt lat="56.469837" lon="8.130348">
<ele>-0.190459</ele>
<time>2026-07-13T10:47:18.000Z</time>
</trkpt>
<trkpt lat="56.469883" lon="8.130355">
<ele>-0.172095</ele>
<time>2026-07-13T10:47:19.000Z</time>
</trkpt>
<trkpt lat="56.469925" lon="8.130364">
<ele>-0.155270</ele>
<time>2026-07-13T10:47:20.000Z</time>
</trkpt>
<trkpt lat="56.469963" lon="8.130378">
<ele>-0.139843</ele>
<time>2026-07-13T10:47:21.000Z</time>
</trkpt>
<trkpt lat="56.470001" lon="8.130394">
<ele>-0.124323</ele>
<time>2026-07-13T10:47:22.000Z</time>
</trkpt>
<trkpt lat="56.470043" lon="8.130409">
<ele>-0.107293</ele>
<time>2026-07-13T10:47:23.000Z</time>
</trkpt>
<trkpt lat="56.470078" lon="8.130424">
<ele>-0.092984</ele>
<time>2026-07-13T10:47:24.000Z</time>
</trkpt>
<trkpt lat="56.470120" lon="8.130437">
<ele>-0.076033</ele>
<time>2026-07-13T10:47:25.000Z</time>
</trkpt>
<trkpt lat="56.470161" lon="8.130454">
<ele>-0.059301</ele>
<time>2026-07-13T10:47:26.000Z</time>
</trkpt>
<trkpt lat="56.470200" lon="8.130475">
<ele>-0.043114</ele>
<time>2026-07-13T10:47:27.000Z</time>
</trkpt>
<trkpt lat="56.470238" lon="8.130499">
<ele>-0.027104</ele>
<time>2026-07-13T10:47:28.000Z</time>
</trkpt>
<trkpt lat="56.470280" lon="8.130519">
<ele>-0.009827</ele>
<time>2026-07-13T10:47:29.000Z</time>
</trkpt>
<trkpt lat="56.470322" lon="8.130534">
<ele>0.007203</ele>
<time>2026-07-13T10:47:30.000Z</time>
</trkpt>
<trkpt lat="56.470364" lon="8.130551">
<ele>0.024324</ele>
<time>2026-07-13T10:47:31.000Z</time>
</trkpt>
<trkpt lat="56.470402" lon="8.130571">
<ele>0.040067</ele>
<time>2026-07-13T10:47:32.000Z</time>
</trkpt>
<trkpt lat="56.470444" lon="8.130592">
<ele>0.057401</ele>
<time>2026-07-13T10:47:33.000Z</time>
</trkpt>
<trkpt lat="56.470486" lon="8.130615">
<ele>0.074856</ele>
<time>2026-07-13T10:47:34.000Z</time>
</trkpt>
<trkpt lat="56.470531" lon="8.130639">
<ele>0.093519</ele>
<time>2026-07-13T10:47:35.000Z</time>
</trkpt>
<trkpt lat="56.470573" lon="8.130665">
<ele>0.111177</ele>
<time>2026-07-13T10:47:36.000Z</time>
</trkpt>
<trkpt lat="56.470619" lon="8.130688">
<ele>0.130162</ele>
<time>2026-07-13T10:47:37.000Z</time>
</trkpt>
<trkpt lat="56.470665" lon="8.130711">
<ele>0.149146</ele>
<time>2026-07-13T10:47:38.000Z</time>
</trkpt>
<trkpt lat="56.470711" lon="8.130735">
<ele>0.168190</ele>
<time>2026-07-13T10:47:39.000Z</time>
</trkpt>
<trkpt lat="56.470753" lon="8.130762">
<ele>0.185921</ele>
<time>2026-07-13T10:47:40.000Z</time>
</trkpt>
<trkpt lat="56.470795" lon="8.130785">
<ele>0.201533</ele>
<time>2026-07-13T10:47:41.000Z</time>
</trkpt>
<trkpt lat="56.470837" lon="8.130802">
<ele>0.216648</ele>
<time>2026-07-13T10:47:42.000Z</time>
</trkpt>
<trkpt lat="56.470879" lon="8.130820">
<ele>0.231807</ele>
<time>2026-07-13T10:47:43.000Z</time>
</trkpt>
<trkpt lat="56.470917" lon="8.130838">
<ele>0.245603</ele>
<time>2026-07-13T10:47:44.000Z</time>
</trkpt>
<trkpt lat="56.470955" lon="8.130857">
<ele>0.259449</ele>
<time>2026-07-13T10:47:45.000Z</time>
</trkpt>
<trkpt lat="56.470997" lon="8.130874">
<ele>0.274565</ele>
<time>2026-07-13T10:47:46.000Z</time>
</trkpt>
<trkpt lat="56.471035" lon="8.130889">
<ele>0.288225</ele>
<time>2026-07-13T10:47:47.000Z</time>
</trkpt>
<trkpt lat="56.471077" lon="8.130905">
<ele>0.303299</ele>
<time>2026-07-13T10:47:48.000Z</time>
</trkpt>
<trkpt lat="56.471115" lon="8.130924">
<ele>0.317145</ele>
<time>2026-07-13T10:47:49.000Z</time>
</trkpt>
<trkpt lat="56.471157" lon="8.130942">
<ele>0.332304</ele>
<time>2026-07-13T10:47:50.000Z</time>
</trkpt>
<trkpt lat="56.471199" lon="8.130958">
<ele>0.347379</ele>
<time>2026-07-13T10:47:51.000Z</time>
</trkpt>
<trkpt lat="56.471241" lon="8.130973">
<ele>0.362414</ele>
<time>2026-07-13T10:47:52.000Z</time>
</trkpt>
<trkpt lat="56.471287" lon="8.130985">
<ele>0.378737</ele>
<time>2026-07-13T10:47:53.000Z</time>
</trkpt>
<trkpt lat="56.471329" lon="8.130997">
<ele>0.393671</ele>
<time>2026-07-13T10:47:54.000Z</time>
</trkpt>
<trkpt lat="56.471375" lon="8.131012">
<ele>0.410088</ele>
<time>2026-07-13T10:47:55.000Z</time>
</trkpt>
<trkpt lat="56.471420" lon="8.131029">
<ele>0.426233</ele>
<time>2026-07-13T10:47:56.000Z</time>
</trkpt>
<trkpt lat="56.471466" lon="8.131045">
<ele>0.442685</ele>
<time>2026-07-13T10:47:57.000Z</time>
</trkpt>
<trkpt lat="56.471512" lon="8.131062">
<ele>0.459174</ele>
<time>2026-07-13T10:47:58.000Z</time>
</trkpt>
<trkpt lat="56.471554" lon="8.131078">
<ele>0.474248</ele>
<time>2026-07-13T10:47:59.000Z</time>
</trkpt>
<trkpt lat="56.471596" lon="8.131095">
<ele>0.489364</ele>
<time>2026-07-13T10:48:00.000Z</time>
</trkpt>
<trkpt lat="56.471638" lon="8.131113">
<ele>0.504523</ele>
<time>2026-07-13T10:48:01.000Z</time>
</trkpt>
<trkpt lat="56.471680" lon="8.131135">
<ele>0.519879</ele>
<time>2026-07-13T10:48:02.000Z</time>
</trkpt>
<trkpt lat="56.471722" lon="8.131161">
<ele>0.535469</ele>
<time>2026-07-13T10:48:03.000Z</time>
</trkpt>
<trkpt lat="56.471760" lon="8.131189">
<ele>0.549879</ele>
<time>2026-07-13T10:48:04.000Z</time>
</trkpt>
<trkpt lat="56.471794" lon="8.131223">
<ele>0.563521</ele>
<time>2026-07-13T10:48:05.000Z</time>
</trkpt>
<trkpt lat="56.471828" lon="8.131256">
<ele>0.577070</ele>
<time>2026-07-13T10:48:06.000Z</time>
</trkpt>
<trkpt lat="56.471867" lon="8.131289">
<ele>0.592190</ele>
<time>2026-07-13T10:48:07.000Z</time>
</trkpt>
<trkpt lat="56.471901" lon="8.131324">
<ele>0.605927</ele>
<time>2026-07-13T10:48:08.000Z</time>
</trkpt>
<trkpt lat="56.471935" lon="8.131362">
<ele>0.619961</ele>
<time>2026-07-13T10:48:09.000Z</time>
</trkpt>
<trkpt lat="56.471973" lon="8.131400">
<ele>0.635208</ele>
<time>2026-07-13T10:48:10.000Z</time>
</trkpt>
<trkpt lat="56.472008" lon="8.131441">
<ele>0.649849</ele>
<time>2026-07-13T10:48:11.000Z</time>
</trkpt>
<trkpt lat="56.472046" lon="8.131484">
<ele>0.665588</ele>
<time>2026-07-13T10:48:12.000Z</time>
</trkpt>
<trkpt lat="56.472084" lon="8.131523">
<ele>0.680930</ele>
<time>2026-07-13T10:48:13.000Z</time>
</trkpt>
<trkpt lat="56.472122" lon="8.131560">
<ele>0.696084</ele>
<time>2026-07-13T10:48:14.000Z</time>
</trkpt>
<trkpt lat="56.472160" lon="8.131597">
<ele>0.711238</ele>
<time>2026-07-13T10:48:15.000Z</time>
</trkpt>
<trkpt lat="56.472202" lon="8.131635">
<ele>0.727729</ele>
<time>2026-07-13T10:48:16.000Z</time>
</trkpt>
<trkpt lat="56.472240" lon="8.131671">
<ele>0.742792</ele>
<time>2026-07-13T10:48:17.000Z</time>
</trkpt>
<trkpt lat="56.472282" lon="8.131703">
<ele>0.758797</ele>
<time>2026-07-13T10:48:18.000Z</time>
</trkpt>
<trkpt lat="56.472324" lon="8.131735">
<ele>0.774801</ele>
<time>2026-07-13T10:48:19.000Z</time>
</trkpt>
<trkpt lat="56.472366" lon="8.131770">
<ele>0.791040</ele>
<time>2026-07-13T10:48:20.000Z</time>
</trkpt>
<trkpt lat="56.472408" lon="8.131805">
<ele>0.807279</ele>
<time>2026-07-13T10:48:21.000Z</time>
</trkpt>
<trkpt lat="56.472450" lon="8.131839">
<ele>0.821330</ele>
<time>2026-07-13T10:48:22.000Z</time>
</trkpt>
<trkpt lat="56.472488" lon="8.131870">
<ele>0.828406</ele>
<time>2026-07-13T10:48:23.000Z</time>
</trkpt>
<trkpt lat="56.472534" lon="8.131898">
<ele>0.836646</ele>
<time>2026-07-13T10:48:24.000Z</time>
</trkpt>
<trkpt lat="56.472580" lon="8.131923">
<ele>0.844800</ele>
<time>2026-07-13T10:48:25.000Z</time>
</trkpt>
<trkpt lat="56.472622" lon="8.131949">
<ele>0.852336</ele>
<time>2026-07-13T10:48:26.000Z</time>
</trkpt>
<trkpt lat="56.472664" lon="8.131974">
<ele>0.859842</ele>
<time>2026-07-13T10:48:27.000Z</time>
</trkpt>
<trkpt lat="56.472710" lon="8.132001">
<ele>0.868052</ele>
<time>2026-07-13T10:48:28.000Z</time>
</trkpt>
<trkpt lat="56.472752" lon="8.132027">
<ele>0.875588</ele>
<time>2026-07-13T10:48:29.000Z</time>
</trkpt>
<trkpt lat="56.472794" lon="8.132050">
<ele>0.883037</ele>
<time>2026-07-13T10:48:30.000Z</time>
</trkpt>
<trkpt lat="56.472836" lon="8.132069">
<ele>0.890387</ele>
<time>2026-07-13T10:48:31.000Z</time>
</trkpt>
<trkpt lat="56.472877" lon="8.132086">
<ele>0.897528</ele>
<time>2026-07-13T10:48:32.000Z</time>
</trkpt>
<trkpt lat="56.472919" lon="8.132100">
<ele>0.904779</ele>
<time>2026-07-13T10:48:33.000Z</time>
</trkpt>
<trkpt lat="56.472961" lon="8.132115">
<ele>0.912047</ele>
<time>2026-07-13T10:48:34.000Z</time>
</trkpt>
<trkpt lat="56.473003" lon="8.132131">
<ele>0.919333</ele>
<time>2026-07-13T10:48:35.000Z</time>
</trkpt>
<trkpt lat="56.473045" lon="8.132142">
<ele>0.926538</ele>
<time>2026-07-13T10:48:36.000Z</time>
</trkpt>
<trkpt lat="56.473087" lon="8.132154">
<ele>0.933757</ele>
<time>2026-07-13T10:48:37.000Z</time>
</trkpt>
<trkpt lat="56.473133" lon="8.132165">
<ele>0.941635</ele>
<time>2026-07-13T10:48:38.000Z</time>
</trkpt>
<trkpt lat="56.473175" lon="8.132173">
<ele>0.948805</ele>
<time>2026-07-13T10:48:39.000Z</time>
</trkpt>
<trkpt lat="56.473217" lon="8.132178">
<ele>0.955951</ele>
<time>2026-07-13T10:48:40.000Z</time>
</trkpt>
<trkpt lat="56.473263" lon="8.132184">
<ele>0.963780</ele>
<time>2026-07-13T10:48:41.000Z</time>
</trkpt>
<trkpt lat="56.473309" lon="8.132190">
<ele>0.971610</ele>
<time>2026-07-13T10:48:42.000Z</time>
</trkpt>
<trkpt lat="56.473354" lon="8.132196">
<ele>0.979271</ele>
<time>2026-07-13T10:48:43.000Z</time>
</trkpt>
<trkpt lat="56.473400" lon="8.132201">
<ele>0.987095</ele>
<time>2026-07-13T10:48:44.000Z</time>
</trkpt>
<trkpt lat="56.473442" lon="8.132204">
<ele>0.994231</ele>
<time>2026-07-13T10:48:45.000Z</time>
</trkpt>
<trkpt lat="56.473488" lon="8.132209">
<ele>1.002055</ele>
<time>2026-07-13T10:48:46.000Z</time>
</trkpt>
<trkpt lat="56.473530" lon="8.132216">
<ele>1.009216</ele>
<time>2026-07-13T10:48:47.000Z</time>
</trkpt>
<trkpt lat="56.473572" lon="8.132223">
<ele>1.016376</ele>
<time>2026-07-13T10:48:48.000Z</time>
</trkpt>
<trkpt lat="56.473614" lon="8.132231">
<ele>1.023546</ele>
<time>2026-07-13T10:48:49.000Z</time>
</trkpt>
<trkpt lat="56.473656" lon="8.132236">
<ele>1.030692</ele>
<time>2026-07-13T10:48:50.000Z</time>
</trkpt>
<trkpt lat="56.473698" lon="8.132236">
<ele>1.037823</ele>
<time>2026-07-13T10:48:51.000Z</time>
</trkpt>
<trkpt lat="56.473736" lon="8.132235">
<ele>1.044275</ele>
<time>2026-07-13T10:48:52.000Z</time>
</trkpt>
<trkpt lat="56.473770" lon="8.132233">
<ele>1.050051</ele>
<time>2026-07-13T10:48:53.000Z</time>
</trkpt>
<trkpt lat="56.473808" lon="8.132230">
<ele>1.056508</ele>
<time>2026-07-13T10:48:54.000Z</time>
</trkpt>
<trkpt lat="56.473843" lon="8.132226">
<ele>1.062462</ele>
<time>2026-07-13T10:48:55.000Z</time>
</trkpt>
<trkpt lat="56.473869" lon="8.132222">
<ele>1.066892</ele>
<time>2026-07-13T10:48:56.000Z</time>
</trkpt>
<trkpt lat="56.473896" lon="8.132217">
<ele>1.071500</ele>
<time>2026-07-13T10:48:57.000Z</time>
</trkpt>
<trkpt lat="56.473911" lon="8.132205">
<ele>1.074284</ele>
<time>2026-07-13T10:48:58.000Z</time>
</trkpt>
<trkpt lat="56.473927" lon="8.132194">
<ele>1.077190</ele>
<time>2026-07-13T10:48:59.000Z</time>
</trkpt>
<trkpt lat="56.473942" lon="8.132209">
<ele>1.080099</ele>
<time>2026-07-13T10:49:20.000Z</time>
</trkpt>
<trkpt lat="56.473949" lon="8.132251">
<ele>1.084213</ele>
<time>2026-07-13T10:49:21.000Z</time>
</trkpt>
<trkpt lat="56.473953" lon="8.132288">
<ele>1.087748</ele>
<time>2026-07-13T10:49:22.000Z</time>
</trkpt>
<trkpt lat="56.473953" lon="8.132334">
<ele>1.092062</ele>
<time>2026-07-13T10:49:23.000Z</time>
</trkpt>
<trkpt lat="56.473949" lon="8.132385">
<ele>1.096892</ele>
<time>2026-07-13T10:49:24.000Z</time>
</trkpt>
<trkpt lat="56.473946" lon="8.132443">
<ele>1.102355</ele>
<time>2026-07-13T10:49:25.000Z</time>
</trkpt>
<trkpt lat="56.473942" lon="8.132505">
<ele>1.108208</ele>
<time>2026-07-13T10:49:26.000Z</time>
</trkpt>
<trkpt lat="56.473938" lon="8.132570">
<ele>1.114341</ele>
<time>2026-07-13T10:49:27.000Z</time>
</trkpt>
<trkpt lat="56.473934" lon="8.132638">
<ele>1.120753</ele>
<time>2026-07-13T10:49:28.000Z</time>
</trkpt>
<trkpt lat="56.473930" lon="8.132710">
<ele>1.125994</ele>
<time>2026-07-13T10:49:29.000Z</time>
</trkpt>
<trkpt lat="56.473923" lon="8.132780">
<ele>1.129003</ele>
<time>2026-07-13T10:49:30.000Z</time>
</trkpt>
<trkpt lat="56.473911" lon="8.132854">
<ele>1.132265</ele>
<time>2026-07-13T10:49:31.000Z</time>
</trkpt>
<trkpt lat="56.473904" lon="8.132932">
<ele>1.135607</ele>
<time>2026-07-13T10:49:32.000Z</time>
</trkpt>
<trkpt lat="56.473896" lon="8.133012">
<ele>1.139045</ele>
<time>2026-07-13T10:49:33.000Z</time>
</trkpt>
<trkpt lat="56.473885" lon="8.133092">
<ele>1.142531</ele>
<time>2026-07-13T10:49:34.000Z</time>
</trkpt>
<trkpt lat="56.473877" lon="8.133173">
<ele>1.146011</ele>
<time>2026-07-13T10:49:35.000Z</time>
</trkpt>
<trkpt lat="56.473873" lon="8.133256">
<ele>1.149535</ele>
<time>2026-07-13T10:49:36.000Z</time>
</trkpt>
<trkpt lat="56.473869" lon="8.133340">
<ele>1.153100</ele>
<time>2026-07-13T10:49:37.000Z</time>
</trkpt>
<trkpt lat="56.473866" lon="8.133425">
<ele>1.156703</ele>
<time>2026-07-13T10:49:38.000Z</time>
</trkpt>
<trkpt lat="56.473858" lon="8.133507">
<ele>1.160224</ele>
<time>2026-07-13T10:49:39.000Z</time>
</trkpt>
<trkpt lat="56.473850" lon="8.133588">
<ele>1.163704</ele>
<time>2026-07-13T10:49:40.000Z</time>
</trkpt>
<trkpt lat="56.473843" lon="8.133668">
<ele>1.167130</ele>
<time>2026-07-13T10:49:41.000Z</time>
</trkpt>
<trkpt lat="56.473839" lon="8.133745">
<ele>1.170400</ele>
<time>2026-07-13T10:49:42.000Z</time>
</trkpt>
<trkpt lat="56.473835" lon="8.133823">
<ele>1.173713</ele>
<time>2026-07-13T10:49:43.000Z</time>
</trkpt>
<trkpt lat="56.473831" lon="8.133904">
<ele>1.177153</ele>
<time>2026-07-13T10:49:44.000Z</time>
</trkpt>
<trkpt lat="56.473827" lon="8.133981">
<ele>1.180423</ele>
<time>2026-07-13T10:49:45.000Z</time>
</trkpt>
<trkpt lat="56.473820" lon="8.134059">
<ele>1.183765</ele>
<time>2026-07-13T10:49:46.000Z</time>
</trkpt>
<trkpt lat="56.473808" lon="8.134137">
<ele>1.187190</ele>
<time>2026-07-13T10:49:47.000Z</time>
</trkpt>
<trkpt lat="56.473801" lon="8.134212">
<ele>1.190407</ele>
<time>2026-07-13T10:49:48.000Z</time>
</trkpt>
<trkpt lat="56.473789" lon="8.134285">
<ele>1.193628</ele>
<time>2026-07-13T10:49:49.000Z</time>
</trkpt>
<trkpt lat="56.473778" lon="8.134359">
<ele>1.196869</ele>
<time>2026-07-13T10:49:50.000Z</time>
</trkpt>
<trkpt lat="56.473766" lon="8.134436">
<ele>1.200252</ele>
<time>2026-07-13T10:49:51.000Z</time>
</trkpt>
<trkpt lat="56.473759" lon="8.134511">
<ele>1.203469</ele>
<time>2026-07-13T10:49:52.000Z</time>
</trkpt>
<trkpt lat="56.473751" lon="8.134588">
<ele>1.206783</ele>
<time>2026-07-13T10:49:53.000Z</time>
</trkpt>
<trkpt lat="56.473747" lon="8.134666">
<ele>1.210095</ele>
<time>2026-07-13T10:49:54.000Z</time>
</trkpt>
<trkpt lat="56.473740" lon="8.134744">
<ele>1.213437</ele>
<time>2026-07-13T10:49:55.000Z</time>
</trkpt>
<trkpt lat="56.473736" lon="8.134822">
<ele>1.216750</ele>
<time>2026-07-13T10:49:56.000Z</time>
</trkpt>
<trkpt lat="56.473728" lon="8.134901">
<ele>1.220147</ele>
<time>2026-07-13T10:49:57.000Z</time>
</trkpt>
<trkpt lat="56.473721" lon="8.134977">
<ele>1.223406</ele>
<time>2026-07-13T10:49:58.000Z</time>
</trkpt>
<trkpt lat="56.473717" lon="8.135055">
<ele>1.226719</ele>
<time>2026-07-13T10:49:59.000Z</time>
</trkpt>
<trkpt lat="56.473709" lon="8.135130">
<ele>1.229949</ele>
<time>2026-07-13T10:50:00.000Z</time>
</trkpt>
<trkpt lat="56.473705" lon="8.135205">
<ele>1.233136</ele>
<time>2026-07-13T10:50:01.000Z</time>
</trkpt>
<trkpt lat="56.473702" lon="8.135280">
<ele>1.236316</ele>
<time>2026-07-13T10:50:02.000Z</time>
</trkpt>
<trkpt lat="56.473702" lon="8.135356">
<ele>1.239530</ele>
<time>2026-07-13T10:50:03.000Z</time>
</trkpt>
<trkpt lat="56.473694" lon="8.135432">
<ele>1.242802</ele>
<time>2026-07-13T10:50:04.000Z</time>
</trkpt>
<trkpt lat="56.473686" lon="8.135509">
<ele>1.246115</ele>
<time>2026-07-13T10:50:05.000Z</time>
</trkpt>
<trkpt lat="56.473679" lon="8.135582">
<ele>1.249249</ele>
<time>2026-07-13T10:50:06.000Z</time>
</trkpt>
<trkpt lat="56.473671" lon="8.135657">
<ele>1.252479</ele>
<time>2026-07-13T10:50:07.000Z</time>
</trkpt>
<trkpt lat="56.473663" lon="8.135734">
<ele>1.255793</ele>
<time>2026-07-13T10:50:08.000Z</time>
</trkpt>
<trkpt lat="56.473660" lon="8.135806">
<ele>1.258847</ele>
<time>2026-07-13T10:50:09.000Z</time>
</trkpt>
<trkpt lat="56.473656" lon="8.135880">
<ele>1.261991</ele>
<time>2026-07-13T10:50:10.000Z</time>
</trkpt>
<trkpt lat="56.473652" lon="8.135953">
<ele>1.317861</ele>
<time>2026-07-13T10:50:11.000Z</time>
</trkpt>
<trkpt lat="56.473644" lon="8.136024">
<ele>1.382073</ele>
<time>2026-07-13T10:50:12.000Z</time>
</trkpt>
<trkpt lat="56.473640" lon="8.136094">
<ele>1.444434</ele>
<time>2026-07-13T10:50:13.000Z</time>
</trkpt>
<trkpt lat="56.473637" lon="8.136166">
<ele>1.508417</ele>
<time>2026-07-13T10:50:14.000Z</time>
</trkpt>
<trkpt lat="56.473629" lon="8.136236">
<ele>1.571761</ele>
<time>2026-07-13T10:50:15.000Z</time>
</trkpt>
<trkpt lat="56.473621" lon="8.136305">
<ele>1.634237</ele>
<time>2026-07-13T10:50:16.000Z</time>
</trkpt>
<trkpt lat="56.473618" lon="8.136377">
<ele>1.698221</ele>
<time>2026-07-13T10:50:17.000Z</time>
</trkpt>
<trkpt lat="56.473614" lon="8.136448">
<ele>1.761463</ele>
<time>2026-07-13T10:50:18.000Z</time>
</trkpt>
<trkpt lat="56.473610" lon="8.136518">
<ele>1.823824</ele>
<time>2026-07-13T10:50:19.000Z</time>
</trkpt>
<trkpt lat="56.473606" lon="8.136586">
<ele>1.884422</ele>
<time>2026-07-13T10:50:20.000Z</time>
</trkpt>
<trkpt lat="56.473602" lon="8.136655">
<ele>1.945902</ele>
<time>2026-07-13T10:50:21.000Z</time>
</trkpt>
<trkpt lat="56.473598" lon="8.136723">
<ele>2.006500</ele>
<time>2026-07-13T10:50:22.000Z</time>
</trkpt>
<trkpt lat="56.473591" lon="8.136790">
<ele>2.066924</ele>
<time>2026-07-13T10:50:23.000Z</time>
</trkpt>
<trkpt lat="56.473587" lon="8.136860">
<ele>2.129285</ele>
<time>2026-07-13T10:50:24.000Z</time>
</trkpt>
<trkpt lat="56.473579" lon="8.136929">
<ele>2.191762</ele>
<time>2026-07-13T10:50:25.000Z</time>
</trkpt>
<trkpt lat="56.473572" lon="8.136997">
<ele>2.253057</ele>
<time>2026-07-13T10:50:26.000Z</time>
</trkpt>
<trkpt lat="56.473568" lon="8.137069">
<ele>2.317181</ele>
<time>2026-07-13T10:50:27.000Z</time>
</trkpt>
<trkpt lat="56.473564" lon="8.137138">
<ele>2.378661</ele>
<time>2026-07-13T10:50:28.000Z</time>
</trkpt>
<trkpt lat="56.473560" lon="8.137209">
<ele>2.441903</ele>
<time>2026-07-13T10:50:29.000Z</time>
</trkpt>
<trkpt lat="56.473553" lon="8.137280">
<ele>2.505814</ele>
<time>2026-07-13T10:50:30.000Z</time>
</trkpt>
<trkpt lat="56.473545" lon="8.137349">
<ele>2.568290</ele>
<time>2026-07-13T10:50:31.000Z</time>
</trkpt>
<trkpt lat="56.473537" lon="8.137417">
<ele>2.629900</ele>
<time>2026-07-13T10:50:32.000Z</time>
</trkpt>
<trkpt lat="56.473534" lon="8.137484">
<ele>2.689466</ele>
<time>2026-07-13T10:50:33.000Z</time>
</trkpt>
<trkpt lat="56.473530" lon="8.137554">
<ele>2.751827</ele>
<time>2026-07-13T10:50:34.000Z</time>
</trkpt>
<trkpt lat="56.473522" lon="8.137624">
<ele>2.815171</ele>
<time>2026-07-13T10:50:35.000Z</time>
</trkpt>
<trkpt lat="56.473515" lon="8.137695">
<ele>2.879082</ele>
<time>2026-07-13T10:50:36.000Z</time>
</trkpt>
<trkpt lat="56.473507" lon="8.137771">
<ele>2.947641</ele>
<time>2026-07-13T10:50:37.000Z</time>
</trkpt>
<trkpt lat="56.473503" lon="8.137841">
<ele>3.010002</ele>
<time>2026-07-13T10:50:38.000Z</time>
</trkpt>
<trkpt lat="56.473499" lon="8.137909">
<ele>3.070600</ele>
<time>2026-07-13T10:50:39.000Z</time>
</trkpt>
<trkpt lat="56.473495" lon="8.137980">
<ele>3.133843</ele>
<time>2026-07-13T10:50:40.000Z</time>
</trkpt>
<trkpt lat="56.473488" lon="8.138053">
<ele>3.199499</ele>
<time>2026-07-13T10:50:41.000Z</time>
</trkpt>
<trkpt lat="56.473484" lon="8.138126">
<ele>3.264505</ele>
<time>2026-07-13T10:50:42.000Z</time>
</trkpt>
<trkpt lat="56.473480" lon="8.138200">
<ele>3.330393</ele>
<time>2026-07-13T10:50:43.000Z</time>
</trkpt>
<trkpt lat="56.473473" lon="8.138275">
<ele>3.397796</ele>
<time>2026-07-13T10:50:44.000Z</time>
</trkpt>
<trkpt lat="56.473469" lon="8.138349">
<ele>3.463684</ele>
<time>2026-07-13T10:50:45.000Z</time>
</trkpt>
<trkpt lat="56.473461" lon="8.138424">
<ele>3.531372</ele>
<time>2026-07-13T10:50:46.000Z</time>
</trkpt>
<trkpt lat="56.473457" lon="8.138501">
<ele>3.599907</ele>
<time>2026-07-13T10:50:47.000Z</time>
</trkpt>
<trkpt lat="56.473453" lon="8.138577">
<ele>3.667559</ele>
<time>2026-07-13T10:50:48.000Z</time>
</trkpt>
<trkpt lat="56.473446" lon="8.138655">
<ele>3.737584</ele>
<time>2026-07-13T10:50:49.000Z</time>
</trkpt>
<trkpt lat="56.473438" lon="8.138731">
<ele>3.806143</ele>
<time>2026-07-13T10:50:50.000Z</time>
</trkpt>
<trkpt lat="56.473431" lon="8.138808">
<ele>3.875295</ele>
<time>2026-07-13T10:50:51.000Z</time>
</trkpt>
<trkpt lat="56.473427" lon="8.138884">
<ele>3.942947</ele>
<time>2026-07-13T10:50:52.000Z</time>
</trkpt>
<trkpt lat="56.473427" lon="8.138957">
<ele>4.007635</ele>
<time>2026-07-13T10:50:53.000Z</time>
</trkpt>
<trkpt lat="56.473423" lon="8.139029">
<ele>4.071760</ele>
<time>2026-07-13T10:50:54.000Z</time>
</trkpt>
<trkpt lat="56.473423" lon="8.139102">
<ele>4.136448</ele>
<time>2026-07-13T10:50:55.000Z</time>
</trkpt>
<trkpt lat="56.473419" lon="8.139175">
<ele>4.069624</ele>
<time>2026-07-13T10:50:56.000Z</time>
</trkpt>
<trkpt lat="56.473408" lon="8.139246">
<ele>3.973268</ele>
<time>2026-07-13T10:50:57.000Z</time>
</trkpt>
<trkpt lat="56.473396" lon="8.139316">
<ele>3.877495</ele>
<time>2026-07-13T10:50:58.000Z</time>
</trkpt>
<trkpt lat="56.473385" lon="8.139385">
<ele>3.783653</ele>
<time>2026-07-13T10:50:59.000Z</time>
</trkpt>
<trkpt lat="56.473373" lon="8.139454">
<ele>3.689127</ele>
<time>2026-07-13T10:51:00.000Z</time>
</trkpt>
<trkpt lat="56.473362" lon="8.139520">
<ele>3.599044</ele>
<time>2026-07-13T10:51:01.000Z</time>
</trkpt>
<trkpt lat="56.473347" lon="8.139580">
<ele>3.512985</ele>
<time>2026-07-13T10:51:02.000Z</time>
</trkpt>
<trkpt lat="56.473339" lon="8.139630">
<ele>3.444965</ele>
<time>2026-07-13T10:51:03.000Z</time>
</trkpt>
<trkpt lat="56.473335" lon="8.139674">
<ele>3.386696</ele>
<time>2026-07-13T10:51:04.000Z</time>
</trkpt>
<trkpt lat="56.473331" lon="8.139715">
<ele>3.332293</ele>
<time>2026-07-13T10:51:05.000Z</time>
</trkpt>
<trkpt lat="56.473328" lon="8.139752">
<ele>3.283427</ele>
<time>2026-07-13T10:51:06.000Z</time>
</trkpt>
<trkpt lat="56.473328" lon="8.139792">
<ele>3.231159</ele>
<time>2026-07-13T10:51:07.000Z</time>
</trkpt>
<trkpt lat="56.473331" lon="8.139832">
<ele>3.178411</ele>
<time>2026-07-13T10:51:08.000Z</time>
</trkpt>
<trkpt lat="56.473335" lon="8.139869">
<ele>3.129146</ele>
<time>2026-07-13T10:51:09.000Z</time>
</trkpt>
<trkpt lat="56.473339" lon="8.139900">
<ele>3.087548</ele>
<time>2026-07-13T10:51:10.000Z</time>
</trkpt>
<trkpt lat="56.473278" lon="8.140094">
<ele>2.795849</ele>
<time>2026-07-13T11:59:27.000Z</time>
</trkpt>
<trkpt lat="56.473293" lon="8.140149">
<ele>2.715697</ele>
<time>2026-07-13T11:59:41.000Z</time>
</trkpt>
<trkpt lat="56.473305" lon="8.140176">
<ele>2.670412</ele>
<time>2026-07-13T11:59:42.000Z</time>
</trkpt>
<trkpt lat="56.473324" lon="8.140193">
<ele>2.620272</ele>
<time>2026-07-13T11:59:43.000Z</time>
</trkpt>
<trkpt lat="56.473351" lon="8.140209">
<ele>2.553061</ele>
<time>2026-07-13T11:59:44.000Z</time>
</trkpt>
<trkpt lat="56.473370" lon="8.140220">
<ele>2.505869</ele>
<time>2026-07-13T11:59:45.000Z</time>
</trkpt>
<trkpt lat="56.473396" lon="8.140225">
<ele>2.444012</ele>
<time>2026-07-13T11:59:46.000Z</time>
</trkpt>
<trkpt lat="56.473427" lon="8.140227">
<ele>2.370625</ele>
<time>2026-07-13T11:59:47.000Z</time>
</trkpt>
<trkpt lat="56.473453" lon="8.140232">
<ele>2.308768</ele>
<time>2026-07-13T11:59:48.000Z</time>
</trkpt>
<trkpt lat="56.473488" lon="8.140235">
<ele>2.225872</ele>
<time>2026-07-13T11:59:49.000Z</time>
</trkpt>
<trkpt lat="56.473522" lon="8.140233">
<ele>2.145392</ele>
<time>2026-07-13T11:59:50.000Z</time>
</trkpt>
<trkpt lat="56.473557" lon="8.140236">
<ele>2.062496</ele>
<time>2026-07-13T11:59:51.000Z</time>
</trkpt>
<trkpt lat="56.473583" lon="8.140239">
<ele>2.000860</ele>
<time>2026-07-13T11:59:52.000Z</time>
</trkpt>
<trkpt lat="56.473621" lon="8.140242">
<ele>1.910874</ele>
<time>2026-07-13T11:59:53.000Z</time>
</trkpt>
<trkpt lat="56.473660" lon="8.140242">
<ele>1.818608</ele>
<time>2026-07-13T11:59:54.000Z</time>
</trkpt>
<trkpt lat="56.473694" lon="8.140240">
<ele>1.738128</ele>
<time>2026-07-13T11:59:55.000Z</time>
</trkpt>
<trkpt lat="56.473724" lon="8.140240">
<ele>1.667154</ele>
<time>2026-07-13T11:59:56.000Z</time>
</trkpt>
<trkpt lat="56.473763" lon="8.140239">
<ele>1.574878</ele>
<time>2026-07-13T11:59:57.000Z</time>
</trkpt>
<trkpt lat="56.473793" lon="8.140237">
<ele>1.503856</ele>
<time>2026-07-13T11:59:58.000Z</time>
</trkpt>
<trkpt lat="56.473824" lon="8.140235">
<ele>1.430469</ele>
<time>2026-07-13T11:59:59.000Z</time>
</trkpt>
<trkpt lat="56.473858" lon="8.140237">
<ele>1.349989</ele>
<time>2026-07-13T12:00:00.000Z</time>
</trkpt>
<trkpt lat="56.473892" lon="8.140235">
<ele>1.269509</ele>
<time>2026-07-13T12:00:01.000Z</time>
</trkpt>
<trkpt lat="56.473915" lon="8.140232">
<ele>1.214955</ele>
<time>2026-07-13T12:00:02.000Z</time>
</trkpt>
<trkpt lat="56.473949" lon="8.140235">
<ele>1.134422</ele>
<time>2026-07-13T12:00:03.000Z</time>
</trkpt>
<trkpt lat="56.473980" lon="8.140237">
<ele>1.061035</ele>
<time>2026-07-13T12:00:04.000Z</time>
</trkpt>
<trkpt lat="56.474033" lon="8.140239">
<ele>0.935620</ele>
<time>2026-07-13T12:00:05.000Z</time>
</trkpt>
<trkpt lat="56.474071" lon="8.140243">
<ele>0.845568</ele>
<time>2026-07-13T12:00:06.000Z</time>
</trkpt>
<trkpt lat="56.474094" lon="8.140244">
<ele>0.791138</ele>
<time>2026-07-13T12:00:07.000Z</time>
</trkpt>
<trkpt lat="56.474113" lon="8.140244">
<ele>0.746188</ele>
<time>2026-07-13T12:00:08.000Z</time>
</trkpt>
<trkpt lat="56.474148" lon="8.140241">
<ele>0.663292</ele>
<time>2026-07-13T12:00:09.000Z</time>
</trkpt>
<trkpt lat="56.474205" lon="8.140240">
<ele>0.528435</ele>
<time>2026-07-13T12:00:10.000Z</time>
</trkpt>
<trkpt lat="56.474251" lon="8.140242">
<ele>0.419576</ele>
<time>2026-07-13T12:00:11.000Z</time>
</trkpt>
<trkpt lat="56.474281" lon="8.140242">
<ele>0.348602</ele>
<time>2026-07-13T12:00:12.000Z</time>
</trkpt>
<trkpt lat="56.474312" lon="8.140242">
<ele>0.275262</ele>
<time>2026-07-13T12:00:13.000Z</time>
</trkpt>
<trkpt lat="56.474346" lon="8.140245">
<ele>0.194729</ele>
<time>2026-07-13T12:00:14.000Z</time>
</trkpt>
<trkpt lat="56.474377" lon="8.140247">
<ele>0.121343</ele>
<time>2026-07-13T12:00:15.000Z</time>
</trkpt>
<trkpt lat="56.474407" lon="8.140248">
<ele>0.050356</ele>
<time>2026-07-13T12:00:16.000Z</time>
</trkpt>
<trkpt lat="56.474438" lon="8.140248">
<ele>-0.022984</ele>
<time>2026-07-13T12:00:17.000Z</time>
</trkpt>
<trkpt lat="56.474468" lon="8.140247">
<ele>-0.093970</ele>
<time>2026-07-13T12:00:18.000Z</time>
</trkpt>
<trkpt lat="56.474499" lon="8.140246">
<ele>-0.138625</ele>
<time>2026-07-13T12:00:19.000Z</time>
</trkpt>
<trkpt lat="56.474529" lon="8.140247">
<ele>-0.175806</ele>
<time>2026-07-13T12:00:20.000Z</time>
</trkpt>
<trkpt lat="56.474552" lon="8.140253">
<ele>-0.204601</ele>
<time>2026-07-13T12:00:21.000Z</time>
</trkpt>
<trkpt lat="56.474579" lon="8.140256">
<ele>-0.238122</ele>
<time>2026-07-13T12:00:22.000Z</time>
</trkpt>
<trkpt lat="56.474613" lon="8.140255">
<ele>-0.280259</ele>
<time>2026-07-13T12:00:23.000Z</time>
</trkpt>
<trkpt lat="56.474640" lon="8.140253">
<ele>-0.313744</ele>
<time>2026-07-13T12:00:24.000Z</time>
</trkpt>
<trkpt lat="56.474674" lon="8.140248">
<ele>-0.356014</ele>
<time>2026-07-13T12:00:25.000Z</time>
</trkpt>
<trkpt lat="56.474701" lon="8.140244">
<ele>-0.389583</ele>
<time>2026-07-13T12:00:26.000Z</time>
</trkpt>
<trkpt lat="56.474728" lon="8.140241">
<ele>-0.423104</ele>
<time>2026-07-13T12:00:27.000Z</time>
</trkpt>
<trkpt lat="56.474758" lon="8.140236">
<ele>-0.460436</ele>
<time>2026-07-13T12:00:28.000Z</time>
</trkpt>
<trkpt lat="56.474785" lon="8.140230">
<ele>-0.494144</ele>
<time>2026-07-13T12:00:29.000Z</time>
</trkpt>
<trkpt lat="56.474815" lon="8.140226">
<ele>-0.531419</ele>
<time>2026-07-13T12:00:30.000Z</time>
</trkpt>
<trkpt lat="56.474846" lon="8.140226">
<ele>-0.569833</ele>
<time>2026-07-13T12:00:31.000Z</time>
</trkpt>
<trkpt lat="56.474873" lon="8.140225">
<ele>-0.603298</ele>
<time>2026-07-13T12:00:32.000Z</time>
</trkpt>
<trkpt lat="56.474907" lon="8.140222">
<ele>-0.645479</ele>
<time>2026-07-13T12:00:33.000Z</time>
</trkpt>
<trkpt lat="56.474941" lon="8.140218">
<ele>-0.687700</ele>
<time>2026-07-13T12:00:34.000Z</time>
</trkpt>
<trkpt lat="56.474976" lon="8.140218">
<ele>-0.731070</ele>
<time>2026-07-13T12:00:35.000Z</time>
</trkpt>
<trkpt lat="56.475014" lon="8.140222">
<ele>-0.778238</ele>
<time>2026-07-13T12:00:36.000Z</time>
</trkpt>
<trkpt lat="56.475052" lon="8.140227">
<ele>-0.825450</ele>
<time>2026-07-13T12:00:37.000Z</time>
</trkpt>
<trkpt lat="56.475086" lon="8.140229">
<ele>-0.867604</ele>
<time>2026-07-13T12:00:38.000Z</time>
</trkpt>
<trkpt lat="56.475117" lon="8.140230">
<ele>-0.906024</ele>
<time>2026-07-13T12:00:39.000Z</time>
</trkpt>
<trkpt lat="56.475155" lon="8.140230">
<ele>-0.953112</ele>
<time>2026-07-13T12:00:40.000Z</time>
</trkpt>
<trkpt lat="56.475193" lon="8.140230">
<ele>-1.000200</ele>
<time>2026-07-13T12:00:41.000Z</time>
</trkpt>
<trkpt lat="56.475231" lon="8.140230">
<ele>-1.047288</ele>
<time>2026-07-13T12:00:42.000Z</time>
</trkpt>
<trkpt lat="56.475273" lon="8.140228">
<ele>-1.099351</ele>
<time>2026-07-13T12:00:43.000Z</time>
</trkpt>
<trkpt lat="56.475307" lon="8.140224">
<ele>-1.141571</ele>
<time>2026-07-13T12:00:44.000Z</time>
</trkpt>
<trkpt lat="56.475342" lon="8.140223">
<ele>-1.184947</ele>
<time>2026-07-13T12:00:45.000Z</time>
</trkpt>
<trkpt lat="56.475376" lon="8.140222">
<ele>-1.227084</ele>
<time>2026-07-13T12:00:46.000Z</time>
</trkpt>
<trkpt lat="56.475414" lon="8.140223">
<ele>-1.274178</ele>
<time>2026-07-13T12:00:47.000Z</time>
</trkpt>
<trkpt lat="56.475445" lon="8.140222">
<ele>-1.312598</ele>
<time>2026-07-13T12:00:48.000Z</time>
</trkpt>
<trkpt lat="56.475475" lon="8.140217">
<ele>-1.349930</ele>
<time>2026-07-13T12:00:49.000Z</time>
</trkpt>
<trkpt lat="56.475510" lon="8.140213">
<ele>-1.393387</ele>
<time>2026-07-13T12:00:50.000Z</time>
</trkpt>
<trkpt lat="56.475536" lon="8.140212">
<ele>-1.425612</ele>
<time>2026-07-13T12:00:51.000Z</time>
</trkpt>
<trkpt lat="56.475578" lon="8.140209">
<ele>-1.477697</ele>
<time>2026-07-13T12:00:52.000Z</time>
</trkpt>
<trkpt lat="56.475605" lon="8.140206">
<ele>-1.511218</ele>
<time>2026-07-13T12:00:53.000Z</time>
</trkpt>
<trkpt lat="56.475647" lon="8.140203">
<ele>-1.563303</ele>
<time>2026-07-13T12:00:54.000Z</time>
</trkpt>
<trkpt lat="56.475685" lon="8.140199">
<ele>-1.610470</ele>
<time>2026-07-13T12:00:55.000Z</time>
</trkpt>
<trkpt lat="56.475727" lon="8.140197">
<ele>-1.662533</ele>
<time>2026-07-13T12:00:56.000Z</time>
</trkpt>
<trkpt lat="56.475754" lon="8.140193">
<ele>-1.696102</ele>
<time>2026-07-13T12:00:57.000Z</time>
</trkpt>
<trkpt lat="56.475792" lon="8.140190">
<ele>-1.743235</ele>
<time>2026-07-13T12:00:58.000Z</time>
</trkpt>
<trkpt lat="56.475826" lon="8.140190">
<ele>-1.785367</ele>
<time>2026-07-13T12:00:59.000Z</time>
</trkpt>
<trkpt lat="56.475876" lon="8.140189">
<ele>-1.847328</ele>
<time>2026-07-13T12:01:00.000Z</time>
</trkpt>
<trkpt lat="56.475910" lon="8.140183">
<ele>-1.889660</ele>
<time>2026-07-13T12:01:01.000Z</time>
</trkpt>
<trkpt lat="56.475948" lon="8.140173">
<ele>-1.937242</ele>
<time>2026-07-13T12:01:02.000Z</time>
</trkpt>
<trkpt lat="56.475987" lon="8.140162">
<ele>-1.986152</ele>
<time>2026-07-13T12:01:03.000Z</time>
</trkpt>
<trkpt lat="56.476055" lon="8.140144">
<ele>-2.071311</ele>
<time>2026-07-13T12:01:04.000Z</time>
</trkpt>
<trkpt lat="56.476109" lon="8.140135">
<ele>-2.138509</ele>
<time>2026-07-13T12:01:05.000Z</time>
</trkpt>
<trkpt lat="56.476151" lon="8.140127">
<ele>-2.190841</ele>
<time>2026-07-13T12:01:06.000Z</time>
</trkpt>
<trkpt lat="56.476189" lon="8.140119">
<ele>-2.238246</ele>
<time>2026-07-13T12:01:07.000Z</time>
</trkpt>
<trkpt lat="56.476231" lon="8.140106">
<ele>-2.291046</ele>
<time>2026-07-13T12:01:08.000Z</time>
</trkpt>
<trkpt lat="56.476273" lon="8.140091">
<ele>-2.338542</ele>
<time>2026-07-13T12:01:09.000Z</time>
</trkpt>
<trkpt lat="56.476315" lon="8.140078">
<ele>-2.355693</ele>
<time>2026-07-13T12:01:10.000Z</time>
</trkpt>
<trkpt lat="56.476360" lon="8.140061">
<ele>-2.374197</ele>
<time>2026-07-13T12:01:11.000Z</time>
</trkpt>
<trkpt lat="56.476406" lon="8.140044">
<ele>-2.393095</ele>
<time>2026-07-13T12:01:12.000Z</time>
</trkpt>
<trkpt lat="56.476444" lon="8.140031">
<ele>-2.408661</ele>
<time>2026-07-13T12:01:13.000Z</time>
</trkpt>
<trkpt lat="56.476482" lon="8.140019">
<ele>-2.424188</ele>
<time>2026-07-13T12:01:14.000Z</time>
</trkpt>
<trkpt lat="56.476521" lon="8.140015">
<ele>-2.439912</ele>
<time>2026-07-13T12:01:15.000Z</time>
</trkpt>
<trkpt lat="56.476563" lon="8.140018">
<ele>-2.456831</ele>
<time>2026-07-13T12:01:16.000Z</time>
</trkpt>
<trkpt lat="56.476605" lon="8.140025">
<ele>-2.473809</ele>
<time>2026-07-13T12:01:17.000Z</time>
</trkpt>
<trkpt lat="56.476635" lon="8.140029">
<ele>-2.485917</ele>
<time>2026-07-13T12:01:18.000Z</time>
</trkpt>
<trkpt lat="56.476662" lon="8.140029">
<ele>-2.496785</ele>
<time>2026-07-13T12:01:19.000Z</time>
</trkpt>
<trkpt lat="56.476681" lon="8.140023">
<ele>-2.504549</ele>
<time>2026-07-13T12:01:20.000Z</time>
</trkpt>
<trkpt lat="56.476692" lon="8.140009">
<ele>-2.509961</ele>
<time>2026-07-13T12:01:21.000Z</time>
</trkpt>
<trkpt lat="56.476696" lon="8.139984">
<ele>-2.515747</ele>
<time>2026-07-13T12:01:22.000Z</time>
</trkpt>
<trkpt lat="56.476688" lon="8.139959">
<ele>-2.522170</ele>
<time>2026-07-13T12:01:23.000Z</time>
</trkpt>
<trkpt lat="56.476681" lon="8.139950">
<ele>-2.525626</ele>
<time>2026-07-13T12:01:24.000Z</time>
</trkpt>
<trkpt lat="56.476662" lon="8.139949">
<ele>-2.533277</ele>
<time>2026-07-13T12:01:25.000Z</time>
</trkpt>
<trkpt lat="56.476643" lon="8.139960">
<ele>-2.541307</ele>
<time>2026-07-13T12:01:26.000Z</time>
</trkpt>
<trkpt lat="56.476624" lon="8.139976">
<ele>-2.549741</ele>
<time>2026-07-13T12:01:27.000Z</time>
</trkpt>
<trkpt lat="56.476601" lon="8.139991">
<ele>-2.559582</ele>
<time>2026-07-13T12:01:28.000Z</time>
</trkpt>
<trkpt lat="56.476582" lon="8.140002">
<ele>-2.567611</ele>
<time>2026-07-13T12:01:29.000Z</time>
</trkpt>
<trkpt lat="56.476563" lon="8.140003">
<ele>-2.575262</ele>
<time>2026-07-13T12:01:30.000Z</time>
</trkpt>
<trkpt lat="56.476540" lon="8.139994">
<ele>-2.584734</ele>
<time>2026-07-13T12:01:31.000Z</time>
</trkpt>
<trkpt lat="56.476517" lon="8.139986">
<ele>-2.594161</ele>
<time>2026-07-13T12:01:32.000Z</time>
</trkpt>
<trkpt lat="56.476486" lon="8.139993">
<ele>-2.606736</ele>
<time>2026-07-13T12:01:33.000Z</time>
</trkpt>
<trkpt lat="56.476467" lon="8.140005">
<ele>-2.614836</ele>
<time>2026-07-13T12:01:34.000Z</time>
</trkpt>
<trkpt lat="56.476437" lon="8.140018">
<ele>-2.627253</ele>
<time>2026-07-13T12:01:35.000Z</time>
</trkpt>
<trkpt lat="56.476410" lon="8.140025">
<ele>-2.638232</ele>
<time>2026-07-13T12:01:36.000Z</time>
</trkpt>
<trkpt lat="56.476379" lon="8.140031">
<ele>-2.650781</ele>
<time>2026-07-13T12:01:37.000Z</time>
</trkpt>
<trkpt lat="56.476356" lon="8.140032">
<ele>-2.660042</ele>
<time>2026-07-13T12:01:38.000Z</time>
</trkpt>
<trkpt lat="56.476326" lon="8.140029">
<ele>-2.672136</ele>
<time>2026-07-13T12:01:39.000Z</time>
</trkpt>
<trkpt lat="56.476299" lon="8.140029">
<ele>-2.683004</ele>
<time>2026-07-13T12:01:40.000Z</time>
</trkpt>
<trkpt lat="56.476276" lon="8.140040">
<ele>-2.692580</ele>
<time>2026-07-13T12:01:41.000Z</time>
</trkpt>
<trkpt lat="56.476265" lon="8.140062">
<ele>-2.699177</ele>
<time>2026-07-13T12:01:42.000Z</time>
</trkpt>
<trkpt lat="56.476265" lon="8.140085">
<ele>-2.704290</ele>
<time>2026-07-13T12:01:43.000Z</time>
</trkpt>
<trkpt lat="56.476273" lon="8.140096">
<ele>-2.708334</ele>
<time>2026-07-13T12:01:44.000Z</time>
</trkpt>
<trkpt lat="56.476273" lon="8.140098">
<ele>-2.708779</ele>
<time>2026-07-13T12:01:45.000Z</time>
</trkpt>
<trkpt lat="56.476269" lon="8.140097">
<ele>-2.710404</ele>
<time>2026-07-13T12:01:46.000Z</time>
</trkpt>
<trkpt lat="56.476265" lon="8.140093">
<ele>-2.712243</ele>
<time>2026-07-13T12:01:47.000Z</time>
</trkpt>
<trkpt lat="56.476265" lon="8.140092">
<ele>-2.712466</ele>
<time>2026-07-13T12:01:48.000Z</time>
</trkpt>
<trkpt lat="56.476269" lon="8.140082">
<ele>-2.715210</ele>
<time>2026-07-13T12:01:49.000Z</time>
</trkpt>
<trkpt lat="56.476265" lon="8.140070">
<ele>-2.718326</ele>
<time>2026-07-13T12:01:50.000Z</time>
</trkpt>
<trkpt lat="56.476265" lon="8.140057">
<ele>-2.721216</ele>
<time>2026-07-13T12:01:51.000Z</time>
</trkpt>
<trkpt lat="56.476269" lon="8.140047">
<ele>-2.723961</ele>
<time>2026-07-13T12:01:52.000Z</time>
</trkpt>
<trkpt lat="56.476284" lon="8.140041">
<ele>-2.730145</ele>
<time>2026-07-13T12:02:44.000Z</time>
</trkpt>
<trkpt lat="56.476299" lon="8.140041">
<ele>-2.736183</ele>
<time>2026-07-13T12:02:45.000Z</time>
</trkpt>
<trkpt lat="56.476318" lon="8.140039">
<ele>-2.743844</ele>
<time>2026-07-13T12:02:46.000Z</time>
</trkpt>
<trkpt lat="56.476341" lon="8.140039">
<ele>-2.753102</ele>
<time>2026-07-13T12:02:47.000Z</time>
</trkpt>
<trkpt lat="56.476364" lon="8.140043">
<ele>-2.762402</ele>
<time>2026-07-13T12:02:48.000Z</time>
</trkpt>
<trkpt lat="56.476395" lon="8.140044">
<ele>-2.774883</ele>
<time>2026-07-13T12:02:49.000Z</time>
</trkpt>
<trkpt lat="56.476425" lon="8.140042">
<ele>-2.786967</ele>
<time>2026-07-13T12:02:50.000Z</time>
</trkpt>
<trkpt lat="56.476452" lon="8.140042">
<ele>-2.797835</ele>
<time>2026-07-13T12:02:51.000Z</time>
</trkpt>
<trkpt lat="56.476486" lon="8.140045">
<ele>-2.811537</ele>
<time>2026-07-13T12:02:52.000Z</time>
</trkpt>
<trkpt lat="56.476532" lon="8.140052">
<ele>-2.830118</ele>
<time>2026-07-13T12:02:53.000Z</time>
</trkpt>
<trkpt lat="56.476570" lon="8.140052">
<ele>-2.845414</ele>
<time>2026-07-13T12:02:54.000Z</time>
</trkpt>
<trkpt lat="56.476608" lon="8.140047">
<ele>-2.860750</ele>
<time>2026-07-13T12:02:55.000Z</time>
</trkpt>
<trkpt lat="56.476650" lon="8.140039">
<ele>-2.877750</ele>
<time>2026-07-13T12:02:56.000Z</time>
</trkpt>
<trkpt lat="56.476696" lon="8.140033">
<ele>-2.896314</ele>
<time>2026-07-13T12:02:57.000Z</time>
</trkpt>
<trkpt lat="56.476734" lon="8.140030">
<ele>-2.911624</ele>
<time>2026-07-13T12:02:58.000Z</time>
</trkpt>
<trkpt lat="56.476784" lon="8.140028">
<ele>-2.931756</ele>
<time>2026-07-13T12:02:59.000Z</time>
</trkpt>
<trkpt lat="56.476826" lon="8.140030">
<ele>-2.948668</ele>
<time>2026-07-13T12:03:00.000Z</time>
</trkpt>
<trkpt lat="56.476875" lon="8.140030">
<ele>-2.968391</ele>
<time>2026-07-13T12:03:01.000Z</time>
</trkpt>
<trkpt lat="56.476913" lon="8.140030">
<ele>-2.983687</ele>
<time>2026-07-13T12:03:02.000Z</time>
</trkpt>
<trkpt lat="56.476955" lon="8.140028">
<ele>-3.000599</ele>
<time>2026-07-13T12:03:03.000Z</time>
</trkpt>
<trkpt lat="56.476997" lon="8.140027">
<ele>-3.017507</ele>
<time>2026-07-13T12:03:04.000Z</time>
</trkpt>
<trkpt lat="56.477043" lon="8.140027">
<ele>-3.036023</ele>
<time>2026-07-13T12:03:05.000Z</time>
</trkpt>
<trkpt lat="56.477081" lon="8.140027">
<ele>-3.051319</ele>
<time>2026-07-13T12:03:06.000Z</time>
</trkpt>
<trkpt lat="56.477131" lon="8.140034">
<ele>-3.057491</ele>
<time>2026-07-13T12:03:07.000Z</time>
</trkpt>
<trkpt lat="56.477173" lon="8.140038">
<ele>-3.054028</ele>
<time>2026-07-13T12:03:08.000Z</time>
</trkpt>
<trkpt lat="56.477207" lon="8.140039">
<ele>-3.051228</ele>
<time>2026-07-13T12:03:09.000Z</time>
</trkpt>
<trkpt lat="56.477287" lon="8.140045">
<ele>-3.044635</ele>
<time>2026-07-13T12:03:10.000Z</time>
</trkpt>
<trkpt lat="56.477345" lon="8.140049">
<ele>-3.039855</ele>
<time>2026-07-13T12:03:11.000Z</time>
</trkpt>
<trkpt lat="56.477386" lon="8.140053">
<ele>-3.036475</ele>
<time>2026-07-13T12:03:12.000Z</time>
</trkpt>
<trkpt lat="56.477432" lon="8.140058">
<ele>-3.032680</ele>
<time>2026-07-13T12:03:13.000Z</time>
</trkpt>
<trkpt lat="56.477470" lon="8.140064">
<ele>-3.029539</ele>
<time>2026-07-13T12:03:14.000Z</time>
</trkpt>
<trkpt lat="56.477516" lon="8.140070">
<ele>-3.025742</ele>
<time>2026-07-13T12:03:15.000Z</time>
</trkpt>
<trkpt lat="56.477562" lon="8.140079">
<ele>-3.021932</ele>
<time>2026-07-13T12:03:16.000Z</time>
</trkpt>
<trkpt lat="56.477612" lon="8.140088">
<ele>-3.017795</ele>
<time>2026-07-13T12:03:17.000Z</time>
</trkpt>
<trkpt lat="56.477653" lon="8.140097">
<ele>-3.014394</ele>
<time>2026-07-13T12:03:18.000Z</time>
</trkpt>
<trkpt lat="56.477692" lon="8.140104">
<ele>-3.011167</ele>
<time>2026-07-13T12:03:19.000Z</time>
</trkpt>
<trkpt lat="56.477741" lon="8.140116">
<ele>-3.007096</ele>
<time>2026-07-13T12:03:20.000Z</time>
</trkpt>
<trkpt lat="56.477779" lon="8.140127">
<ele>-3.003927</ele>
<time>2026-07-13T12:03:21.000Z</time>
</trkpt>
<trkpt lat="56.477825" lon="8.140141">
<ele>-3.000086</ele>
<time>2026-07-13T12:03:22.000Z</time>
</trkpt>
<trkpt lat="56.477875" lon="8.140156">
<ele>-2.995913</ele>
<time>2026-07-13T12:03:23.000Z</time>
</trkpt>
<trkpt lat="56.477917" lon="8.140165">
<ele>-2.992430</ele>
<time>2026-07-13T12:03:24.000Z</time>
</trkpt>
<trkpt lat="56.477959" lon="8.140178">
<ele>-2.988922</ele>
<time>2026-07-13T12:03:25.000Z</time>
</trkpt>
<trkpt lat="56.477993" lon="8.140186">
<ele>-2.986099</ele>
<time>2026-07-13T12:03:26.000Z</time>
</trkpt>
<trkpt lat="56.478062" lon="8.140201">
<ele>-2.980376</ele>
<time>2026-07-13T12:03:27.000Z</time>
</trkpt>
<trkpt lat="56.478126" lon="8.140215">
<ele>-2.975068</ele>
<time>2026-07-13T12:03:28.000Z</time>
</trkpt>
<trkpt lat="56.478172" lon="8.140228">
<ele>-2.971235</ele>
<time>2026-07-13T12:03:29.000Z</time>
</trkpt>
<trkpt lat="56.478214" lon="8.140239">
<ele>-2.967740</ele>
<time>2026-07-13T12:03:30.000Z</time>
</trkpt>
<trkpt lat="56.478256" lon="8.140247">
<ele>-2.964263</ele>
<time>2026-07-13T12:03:31.000Z</time>
</trkpt>
<trkpt lat="56.478302" lon="8.140255">
<ele>-2.960458</ele>
<time>2026-07-13T12:03:32.000Z</time>
</trkpt>
<trkpt lat="56.478348" lon="8.140263">
<ele>-2.956653</ele>
<time>2026-07-13T12:03:33.000Z</time>
</trkpt>
<trkpt lat="56.478397" lon="8.140271">
<ele>-2.952602</ele>
<time>2026-07-13T12:03:34.000Z</time>
</trkpt>
<trkpt lat="56.478439" lon="8.140279">
<ele>-2.949124</ele>
<time>2026-07-13T12:03:35.000Z</time>
</trkpt>
<trkpt lat="56.478485" lon="8.140285">
<ele>-2.945327</ele>
<time>2026-07-13T12:03:36.000Z</time>
</trkpt>
<trkpt lat="56.478519" lon="8.140288">
<ele>-2.942524</ele>
<time>2026-07-13T12:03:37.000Z</time>
</trkpt>
<trkpt lat="56.478569" lon="8.140293">
<ele>-2.938401</ele>
<time>2026-07-13T12:03:38.000Z</time>
</trkpt>
<trkpt lat="56.478607" lon="8.140297">
<ele>-2.935266</ele>
<time>2026-07-13T12:03:39.000Z</time>
</trkpt>
<trkpt lat="56.478653" lon="8.140300">
<ele>-2.931476</ele>
<time>2026-07-13T12:03:40.000Z</time>
</trkpt>
<trkpt lat="56.478695" lon="8.140300">
<ele>-2.928018</ele>
<time>2026-07-13T12:03:41.000Z</time>
</trkpt>
<trkpt lat="56.478733" lon="8.140300">
<ele>-2.924889</ele>
<time>2026-07-13T12:03:42.000Z</time>
</trkpt>
<trkpt lat="56.478794" lon="8.140305">
<ele>-2.919861</ele>
<time>2026-07-13T12:03:43.000Z</time>
</trkpt>
<trkpt lat="56.478851" lon="8.140306">
<ele>-2.915167</ele>
<time>2026-07-13T12:03:44.000Z</time>
</trkpt>
<trkpt lat="56.478901" lon="8.140300">
<ele>-2.906799</ele>
<time>2026-07-13T12:03:45.000Z</time>
</trkpt>
<trkpt lat="56.478966" lon="8.140294">
<ele>-2.870182</ele>
<time>2026-07-13T12:03:46.000Z</time>
</trkpt>
<trkpt lat="56.479015" lon="8.140296">
<ele>-2.842607</ele>
<time>2026-07-13T12:03:47.000Z</time>
</trkpt>
<trkpt lat="56.479065" lon="8.140299">
<ele>-2.814461</ele>
<time>2026-07-13T12:03:48.000Z</time>
</trkpt>
<trkpt lat="56.479115" lon="8.140300">
<ele>-2.786329</ele>
<time>2026-07-13T12:03:49.000Z</time>
</trkpt>
<trkpt lat="56.479164" lon="8.140296">
<ele>-2.758733</ele>
<time>2026-07-13T12:03:50.000Z</time>
</trkpt>
<trkpt lat="56.479210" lon="8.140292">
<ele>-2.732824</ele>
<time>2026-07-13T12:03:51.000Z</time>
</trkpt>
<trkpt lat="56.479263" lon="8.140289">
<ele>-2.702991</ele>
<time>2026-07-13T12:03:52.000Z</time>
</trkpt>
<trkpt lat="56.479313" lon="8.140287">
<ele>-2.674854</ele>
<time>2026-07-13T12:03:53.000Z</time>
</trkpt>
<trkpt lat="56.479362" lon="8.140285">
<ele>-2.647279</ele>
<time>2026-07-13T12:03:54.000Z</time>
</trkpt>
<trkpt lat="56.479412" lon="8.140283">
<ele>-2.619142</ele>
<time>2026-07-13T12:03:55.000Z</time>
</trkpt>
<trkpt lat="56.479458" lon="8.140279">
<ele>-2.593232</ele>
<time>2026-07-13T12:03:56.000Z</time>
</trkpt>
<trkpt lat="56.479507" lon="8.140276">
<ele>-2.565648</ele>
<time>2026-07-13T12:03:57.000Z</time>
</trkpt>
<trkpt lat="56.479553" lon="8.140274">
<ele>-2.539761</ele>
<time>2026-07-13T12:03:58.000Z</time>
</trkpt>
<trkpt lat="56.479599" lon="8.140272">
<ele>-2.513873</ele>
<time>2026-07-13T12:03:59.000Z</time>
</trkpt>
<trkpt lat="56.479645" lon="8.140272">
<ele>-2.487993</ele>
<time>2026-07-13T12:04:00.000Z</time>
</trkpt>
<trkpt lat="56.479691" lon="8.140273">
<ele>-2.462112</ele>
<time>2026-07-13T12:04:01.000Z</time>
</trkpt>
<trkpt lat="56.479736" lon="8.140272">
<ele>-2.436792</ele>
<time>2026-07-13T12:04:02.000Z</time>
</trkpt>
<trkpt lat="56.479782" lon="8.140273">
<ele>-2.410911</ele>
<time>2026-07-13T12:04:03.000Z</time>
</trkpt>
<trkpt lat="56.479828" lon="8.140277">
<ele>-2.385001</ele>
<time>2026-07-13T12:04:04.000Z</time>
</trkpt>
<trkpt lat="56.479874" lon="8.140286">
<ele>-2.358970</ele>
<time>2026-07-13T12:04:05.000Z</time>
</trkpt>
<trkpt lat="56.479916" lon="8.140300">
<ele>-2.334944</ele>
<time>2026-07-13T12:04:06.000Z</time>
</trkpt>
<trkpt lat="56.479961" lon="8.140315">
<ele>-2.309201</ele>
<time>2026-07-13T12:04:07.000Z</time>
</trkpt>
<trkpt lat="56.480003" lon="8.140333">
<ele>-2.284919</ele>
<time>2026-07-13T12:04:08.000Z</time>
</trkpt>
<trkpt lat="56.480045" lon="8.140354">
<ele>-2.260405</ele>
<time>2026-07-13T12:04:09.000Z</time>
</trkpt>
<trkpt lat="56.480083" lon="8.140378">
<ele>-2.237763</ele>
<time>2026-07-13T12:04:10.000Z</time>
</trkpt>
<trkpt lat="56.480125" lon="8.140408">
<ele>-2.212361</ele>
<time>2026-07-13T12:04:11.000Z</time>
</trkpt>
<trkpt lat="56.480167" lon="8.140437">
<ele>-2.187072</ele>
<time>2026-07-13T12:04:12.000Z</time>
</trkpt>
<trkpt lat="56.480202" lon="8.140471">
<ele>-2.164727</ele>
<time>2026-07-13T12:04:13.000Z</time>
</trkpt>
<trkpt lat="56.480240" lon="8.140512">
<ele>-2.139840</ele>
<time>2026-07-13T12:04:14.000Z</time>
</trkpt>
<trkpt lat="56.480274" lon="8.140559">
<ele>-2.115775</ele>
<time>2026-07-13T12:04:15.000Z</time>
</trkpt>
<trkpt lat="56.480309" lon="8.140610">
<ele>-2.090501</ele>
<time>2026-07-13T12:04:16.000Z</time>
</trkpt>
<trkpt lat="56.480339" lon="8.140657">
<ele>-2.068182</ele>
<time>2026-07-13T12:04:17.000Z</time>
</trkpt>
<trkpt lat="56.480373" lon="8.140709">
<ele>-2.043144</ele>
<time>2026-07-13T12:04:18.000Z</time>
</trkpt>
<trkpt lat="56.480400" lon="8.140755">
<ele>-2.022288</ele>
<time>2026-07-13T12:04:19.000Z</time>
</trkpt>
<trkpt lat="56.480434" lon="8.140810">
<ele>-1.996638</ele>
<time>2026-07-13T12:04:20.000Z</time>
</trkpt>
<trkpt lat="56.480465" lon="8.140861">
<ele>-1.973075</ele>
<time>2026-07-13T12:04:21.000Z</time>
</trkpt>
<trkpt lat="56.480499" lon="8.140913">
<ele>-1.948037</ele>
<time>2026-07-13T12:04:22.000Z</time>
</trkpt>
<trkpt lat="56.480526" lon="8.140964">
<ele>-1.926086</ele>
<time>2026-07-13T12:04:23.000Z</time>
</trkpt>
<trkpt lat="56.480560" lon="8.141016">
<ele>-1.901048</ele>
<time>2026-07-13T12:04:24.000Z</time>
</trkpt>
<trkpt lat="56.480591" lon="8.141065">
<ele>-1.858862</ele>
<time>2026-07-13T12:04:25.000Z</time>
</trkpt>
<trkpt lat="56.480621" lon="8.141114">
<ele>-1.816411</ele>
<time>2026-07-13T12:04:26.000Z</time>
</trkpt>
<trkpt lat="56.480656" lon="8.141166">
<ele>-1.768841</ele>
<time>2026-07-13T12:04:27.000Z</time>
</trkpt>
<trkpt lat="56.480682" lon="8.141219">
<ele>-1.727705</ele>
<time>2026-07-13T12:04:28.000Z</time>
</trkpt>
<trkpt lat="56.480717" lon="8.141274">
<ele>-1.679013</ele>
<time>2026-07-13T12:04:29.000Z</time>
</trkpt>
<trkpt lat="56.480747" lon="8.141329">
<ele>-1.634155</ele>
<time>2026-07-13T12:04:30.000Z</time>
</trkpt>
<trkpt lat="56.480782" lon="8.141385">
<ele>-1.585080</ele>
<time>2026-07-13T12:04:31.000Z</time>
</trkpt>
<trkpt lat="56.480812" lon="8.141441">
<ele>-1.539809</ele>
<time>2026-07-13T12:04:32.000Z</time>
</trkpt>
<trkpt lat="56.480843" lon="8.141499">
<ele>-1.492972</ele>
<time>2026-07-13T12:04:33.000Z</time>
</trkpt>
<trkpt lat="56.480873" lon="8.141554">
<ele>-1.448115</ele>
<time>2026-07-13T12:04:34.000Z</time>
</trkpt>
<trkpt lat="56.480907" lon="8.141609">
<ele>-1.400211</ele>
<time>2026-07-13T12:04:35.000Z</time>
</trkpt>
<trkpt lat="56.480938" lon="8.141663">
<ele>-1.355014</ele>
<time>2026-07-13T12:04:36.000Z</time>
</trkpt>
<trkpt lat="56.480968" lon="8.141719">
<ele>-1.309742</ele>
<time>2026-07-13T12:04:37.000Z</time>
</trkpt>
<trkpt lat="56.480999" lon="8.141774">
<ele>-1.264141</ele>
<time>2026-07-13T12:04:38.000Z</time>
</trkpt>
<trkpt lat="56.481033" lon="8.141830">
<ele>-1.215848</ele>
<time>2026-07-13T12:04:39.000Z</time>
</trkpt>
<trkpt lat="56.481068" lon="8.141887">
<ele>-1.166387</ele>
<time>2026-07-13T12:04:40.000Z</time>
</trkpt>
<trkpt lat="56.481102" lon="8.141943">
<ele>-1.118095</ele>
<time>2026-07-13T12:04:41.000Z</time>
</trkpt>
<trkpt lat="56.481136" lon="8.142005">
<ele>-1.067394</ele>
<time>2026-07-13T12:04:42.000Z</time>
</trkpt>
<trkpt lat="56.481174" lon="8.142067">
<ele>-1.013649</ele>
<time>2026-07-13T12:04:43.000Z</time>
</trkpt>
<trkpt lat="56.481209" lon="8.142125">
<ele>-0.963799</ele>
<time>2026-07-13T12:04:44.000Z</time>
</trkpt>
<trkpt lat="56.481247" lon="8.142181">
<ele>-0.912319</ele>
<time>2026-07-13T12:04:45.000Z</time>
</trkpt>
<trkpt lat="56.481285" lon="8.142238">
<ele>-0.860472</ele>
<time>2026-07-13T12:04:46.000Z</time>
</trkpt>
<trkpt lat="56.481323" lon="8.142296">
<ele>-0.808252</ele>
<time>2026-07-13T12:04:47.000Z</time>
</trkpt>
<trkpt lat="56.481365" lon="8.142350">
<ele>-0.754128</ele>
<time>2026-07-13T12:04:48.000Z</time>
</trkpt>
<trkpt lat="56.481400" lon="8.142401">
<ele>-0.706924</ele>
<time>2026-07-13T12:04:49.000Z</time>
</trkpt>
<trkpt lat="56.481438" lon="8.142446">
<ele>-0.659216</ele>
<time>2026-07-13T12:04:50.000Z</time>
</trkpt>
<trkpt lat="56.481480" lon="8.142491">
<ele>-0.607939</ele>
<time>2026-07-13T12:04:51.000Z</time>
</trkpt>
<trkpt lat="56.481518" lon="8.142534">
<ele>-0.560855</ele>
<time>2026-07-13T12:04:52.000Z</time>
</trkpt>
<trkpt lat="56.481560" lon="8.142572">
<ele>-0.511522</ele>
<time>2026-07-13T12:04:53.000Z</time>
</trkpt>
<trkpt lat="56.481602" lon="8.142611">
<ele>-0.461927</ele>
<time>2026-07-13T12:04:54.000Z</time>
</trkpt>
<trkpt lat="56.481640" lon="8.142649">
<ele>-0.416315</ele>
<time>2026-07-13T12:04:55.000Z</time>
</trkpt>
<trkpt lat="56.481682" lon="8.142686">
<ele>-0.367238</ele>
<time>2026-07-13T12:04:56.000Z</time>
</trkpt>
<trkpt lat="56.481728" lon="8.142717">
<ele>-0.315665</ele>
<time>2026-07-13T12:04:57.000Z</time>
</trkpt>
<trkpt lat="56.481773" lon="8.142745">
<ele>-0.265667</ele>
<time>2026-07-13T12:04:58.000Z</time>
</trkpt>
<trkpt lat="56.481819" lon="8.142773">
<ele>-0.214675</ele>
<time>2026-07-13T12:04:59.000Z</time>
</trkpt>
<trkpt lat="56.481861" lon="8.142802">
<ele>-0.167444</ele>
<time>2026-07-13T12:05:00.000Z</time>
</trkpt>
<trkpt lat="56.481903" lon="8.142828">
<ele>-0.120805</ele>
<time>2026-07-13T12:05:01.000Z</time>
</trkpt>
<trkpt lat="56.481945" lon="8.142850">
<ele>-0.074864</ele>
<time>2026-07-13T12:05:02.000Z</time>
</trkpt>
<trkpt lat="56.481987" lon="8.142870">
<ele>-0.029232</ele>
<time>2026-07-13T12:05:03.000Z</time>
</trkpt>
<trkpt lat="56.482025" lon="8.142893">
<ele>0.032373</ele>
<time>2026-07-13T12:05:04.000Z</time>
</trkpt>
<trkpt lat="56.482063" lon="8.142914">
<ele>0.109886</ele>
<time>2026-07-13T12:05:05.000Z</time>
</trkpt>
<trkpt lat="56.482105" lon="8.142935">
<ele>0.194894</ele>
<time>2026-07-13T12:05:06.000Z</time>
</trkpt>
<trkpt lat="56.482143" lon="8.142954">
<ele>0.271806</ele>
<time>2026-07-13T12:05:07.000Z</time>
</trkpt>
<trkpt lat="56.482185" lon="8.142974">
<ele>0.356534</ele>
<time>2026-07-13T12:05:08.000Z</time>
</trkpt>
<trkpt lat="56.482227" lon="8.142993">
<ele>0.440994</ele>
<time>2026-07-13T12:05:09.000Z</time>
</trkpt>
<trkpt lat="56.482265" lon="8.143009">
<ele>0.517110</ele>
<time>2026-07-13T12:05:10.000Z</time>
</trkpt>
<trkpt lat="56.482304" lon="8.143023">
<ele>0.594680</ele>
<time>2026-07-13T12:05:11.000Z</time>
</trkpt>
<trkpt lat="56.482342" lon="8.143039">
<ele>0.670796</ele>
<time>2026-07-13T12:05:12.000Z</time>
</trkpt>
<trkpt lat="56.482380" lon="8.143051">
<ele>0.746052</ele>
<time>2026-07-13T12:05:13.000Z</time>
</trkpt>
<trkpt lat="56.482426" lon="8.143063">
<ele>0.836725</ele>
<time>2026-07-13T12:05:14.000Z</time>
</trkpt>
<trkpt lat="56.482464" lon="8.143073">
<ele>0.911642</ele>
<time>2026-07-13T12:05:15.000Z</time>
</trkpt>
<trkpt lat="56.482506" lon="8.143084">
<ele>0.994437</ele>
<time>2026-07-13T12:05:16.000Z</time>
</trkpt>
<trkpt lat="56.482544" lon="8.143096">
<ele>1.069694</ele>
<time>2026-07-13T12:05:17.000Z</time>
</trkpt>
<trkpt lat="56.482586" lon="8.143104">
<ele>1.152088</ele>
<time>2026-07-13T12:05:18.000Z</time>
</trkpt>
<trkpt lat="56.482632" lon="8.143097">
<ele>1.242151</ele>
<time>2026-07-13T12:05:19.000Z</time>
</trkpt>
<trkpt lat="56.482674" lon="8.143084">
<ele>1.325281</ele>
<time>2026-07-13T12:05:20.000Z</time>
</trkpt>
<trkpt lat="56.482723" lon="8.143069">
<ele>1.422237</ele>
<time>2026-07-13T12:05:21.000Z</time>
</trkpt>
<trkpt lat="56.482769" lon="8.143049">
<ele>1.514533</ele>
<time>2026-07-13T12:05:22.000Z</time>
</trkpt>
<trkpt lat="56.482811" lon="8.143023">
<ele>1.601130</ele>
<time>2026-07-13T12:05:23.000Z</time>
</trkpt>
<trkpt lat="56.482853" lon="8.142995">
<ele>1.688449</ele>
<time>2026-07-13T12:05:24.000Z</time>
</trkpt>
<trkpt lat="56.482895" lon="8.142964">
<ele>1.776935</ele>
<time>2026-07-13T12:05:25.000Z</time>
</trkpt>
<trkpt lat="56.482929" lon="8.142930">
<ele>1.852711</ele>
<time>2026-07-13T12:05:26.000Z</time>
</trkpt>
<trkpt lat="56.482967" lon="8.142886">
<ele>1.940707</ele>
<time>2026-07-13T12:05:27.000Z</time>
</trkpt>
<trkpt lat="56.483002" lon="8.142837">
<ele>2.027018</ele>
<time>2026-07-13T12:05:28.000Z</time>
</trkpt>
<trkpt lat="56.483032" lon="8.142783">
<ele>2.109541</ele>
<time>2026-07-13T12:05:29.000Z</time>
</trkpt>
<trkpt lat="56.483067" lon="8.142731">
<ele>2.197865</ele>
<time>2026-07-13T12:05:30.000Z</time>
</trkpt>
<trkpt lat="56.483101" lon="8.142675">
<ele>2.287531</ele>
<time>2026-07-13T12:05:31.000Z</time>
</trkpt>
<trkpt lat="56.483131" lon="8.142626">
<ele>2.366349</ele>
<time>2026-07-13T12:05:32.000Z</time>
</trkpt>
<trkpt lat="56.483166" lon="8.142569">
<ele>2.458184</ele>
<time>2026-07-13T12:05:33.000Z</time>
</trkpt>
<trkpt lat="56.483208" lon="8.142516">
<ele>2.558057</ele>
<time>2026-07-13T12:05:34.000Z</time>
</trkpt>
<trkpt lat="56.483242" lon="8.142470">
<ele>2.640859</ele>
<time>2026-07-13T12:05:35.000Z</time>
</trkpt>
<trkpt lat="56.483280" lon="8.142427">
<ele>2.728280</ele>
<time>2026-07-13T12:05:36.000Z</time>
</trkpt>
<trkpt lat="56.483311" lon="8.142393">
<ele>2.798987</ele>
<time>2026-07-13T12:05:37.000Z</time>
</trkpt>
<trkpt lat="56.483353" lon="8.142353">
<ele>2.891570</ele>
<time>2026-07-13T12:05:38.000Z</time>
</trkpt>
<trkpt lat="56.483391" lon="8.142317">
<ele>2.975239</ele>
<time>2026-07-13T12:05:39.000Z</time>
</trkpt>
<trkpt lat="56.483429" lon="8.142280">
<ele>3.059414</ele>
<time>2026-07-13T12:05:40.000Z</time>
</trkpt>
<trkpt lat="56.483463" lon="8.142242">
<ele>3.137363</ele>
<time>2026-07-13T12:05:41.000Z</time>
</trkpt>
<trkpt lat="56.483505" lon="8.142204">
<ele>3.228962</ele>
<time>2026-07-13T12:05:42.000Z</time>
</trkpt>
<trkpt lat="56.483540" lon="8.142167">
<ele>3.308030</ele>
<time>2026-07-13T12:05:43.000Z</time>
</trkpt>
<trkpt lat="56.483582" lon="8.142129">
<ele>3.399629</ele>
<time>2026-07-13T12:05:44.000Z</time>
</trkpt>
<trkpt lat="56.483624" lon="8.142093">
<ele>3.490286</ele>
<time>2026-07-13T12:05:45.000Z</time>
</trkpt>
<trkpt lat="56.483662" lon="8.142058">
<ele>3.518746</ele>
<time>2026-07-13T12:05:46.000Z</time>
</trkpt>
<trkpt lat="56.483700" lon="8.142021">
<ele>3.540846</ele>
<time>2026-07-13T12:05:47.000Z</time>
</trkpt>
<trkpt lat="56.483738" lon="8.141981">
<ele>3.563360</ele>
<time>2026-07-13T12:05:48.000Z</time>
</trkpt>
<trkpt lat="56.483776" lon="8.141943">
<ele>3.585595</ele>
<time>2026-07-13T12:05:49.000Z</time>
</trkpt>
<trkpt lat="56.483810" lon="8.141906">
<ele>3.605914</ele>
<time>2026-07-13T12:05:50.000Z</time>
</trkpt>
<trkpt lat="56.483852" lon="8.141868">
<ele>3.629963</ele>
<time>2026-07-13T12:05:51.000Z</time>
</trkpt>
<trkpt lat="56.483891" lon="8.141830">
<ele>3.652648</ele>
<time>2026-07-13T12:05:52.000Z</time>
</trkpt>
<trkpt lat="56.483925" lon="8.141792">
<ele>3.673113</ele>
<time>2026-07-13T12:05:53.000Z</time>
</trkpt>
<trkpt lat="56.483963" lon="8.141752">
<ele>3.695627</ele>
<time>2026-07-13T12:05:54.000Z</time>
</trkpt>
<trkpt lat="56.484001" lon="8.141711">
<ele>3.718285</ele>
<time>2026-07-13T12:05:55.000Z</time>
</trkpt>
<trkpt lat="56.484035" lon="8.141670">
<ele>3.739208</ele>
<time>2026-07-13T12:05:56.000Z</time>
</trkpt>
<trkpt lat="56.484074" lon="8.141628">
<ele>3.762451</ele>
<time>2026-07-13T12:05:57.000Z</time>
</trkpt>
<trkpt lat="56.484104" lon="8.141592">
<ele>3.780885</ele>
<time>2026-07-13T12:05:58.000Z</time>
</trkpt>
<trkpt lat="56.484142" lon="8.141550">
<ele>3.803689</ele>
<time>2026-07-13T12:05:59.000Z</time>
</trkpt>
<trkpt lat="56.484173" lon="8.141512">
<ele>3.822863</ele>
<time>2026-07-13T12:06:00.000Z</time>
</trkpt>
<trkpt lat="56.484211" lon="8.141472">
<ele>3.845377</ele>
<time>2026-07-13T12:06:01.000Z</time>
</trkpt>
<trkpt lat="56.484242" lon="8.141439">
<ele>3.863797</ele>
<time>2026-07-13T12:06:02.000Z</time>
</trkpt>
<trkpt lat="56.484283" lon="8.141397">
<ele>3.887925</ele>
<time>2026-07-13T12:06:03.000Z</time>
</trkpt>
<trkpt lat="56.484322" lon="8.141352">
<ele>3.911612</ele>
<time>2026-07-13T12:06:04.000Z</time>
</trkpt>
<trkpt lat="56.484360" lon="8.141309">
<ele>3.934565</ele>
<time>2026-07-13T12:06:05.000Z</time>
</trkpt>
<trkpt lat="56.484394" lon="8.141263">
<ele>3.956304</ele>
<time>2026-07-13T12:06:06.000Z</time>
</trkpt>
<trkpt lat="56.484432" lon="8.141219">
<ele>3.979407</ele>
<time>2026-07-13T12:06:07.000Z</time>
</trkpt>
<trkpt lat="56.484467" lon="8.141179">
<ele>4.000606</ele>
<time>2026-07-13T12:06:08.000Z</time>
</trkpt>
<trkpt lat="56.484501" lon="8.141135">
<ele>4.022012</ele>
<time>2026-07-13T12:06:09.000Z</time>
</trkpt>
<trkpt lat="56.484535" lon="8.141093">
<ele>4.043093</ele>
<time>2026-07-13T12:06:10.000Z</time>
</trkpt>
<trkpt lat="56.484573" lon="8.141047">
<ele>4.066506</ele>
<time>2026-07-13T12:06:11.000Z</time>
</trkpt>
<trkpt lat="56.484611" lon="8.140999">
<ele>4.090238</ele>
<time>2026-07-13T12:06:12.000Z</time>
</trkpt>
<trkpt lat="56.484646" lon="8.140953">
<ele>4.112390</ele>
<time>2026-07-13T12:06:13.000Z</time>
</trkpt>
<trkpt lat="56.484688" lon="8.140908">
<ele>4.137386</ele>
<time>2026-07-13T12:06:14.000Z</time>
</trkpt>
<trkpt lat="56.484722" lon="8.140862">
<ele>4.159125</ele>
<time>2026-07-13T12:06:15.000Z</time>
</trkpt>
<trkpt lat="56.484764" lon="8.140814">
<ele>4.184565</ele>
<time>2026-07-13T12:06:16.000Z</time>
</trkpt>
<trkpt lat="56.484806" lon="8.140765">
<ele>4.210156</ele>
<time>2026-07-13T12:06:17.000Z</time>
</trkpt>
<trkpt lat="56.484848" lon="8.140718">
<ele>4.235446</ele>
<time>2026-07-13T12:06:18.000Z</time>
</trkpt>
<trkpt lat="56.484890" lon="8.140670">
<ele>4.260885</ele>
<time>2026-07-13T12:06:19.000Z</time>
</trkpt>
<trkpt lat="56.484936" lon="8.140622">
<ele>4.288079</ele>
<time>2026-07-13T12:06:20.000Z</time>
</trkpt>
<trkpt lat="56.484982" lon="8.140570">
<ele>4.315855</ele>
<time>2026-07-13T12:06:21.000Z</time>
</trkpt>
<trkpt lat="56.485024" lon="8.140522">
<ele>4.341294</ele>
<time>2026-07-13T12:06:22.000Z</time>
</trkpt>
<trkpt lat="56.485065" lon="8.140480">
<ele>4.365423</ele>
<time>2026-07-13T12:06:23.000Z</time>
</trkpt>
<trkpt lat="56.485119" lon="8.140431">
<ele>4.396361</ele>
<time>2026-07-13T12:06:24.000Z</time>
</trkpt>
<trkpt lat="56.485168" lon="8.140384">
<ele>4.395985</ele>
<time>2026-07-13T12:06:25.000Z</time>
</trkpt>
<trkpt lat="56.485214" lon="8.140341">
<ele>4.239432</ele>
<time>2026-07-13T12:06:26.000Z</time>
</trkpt>
<trkpt lat="56.485260" lon="8.140298">
<ele>4.082879</ele>
<time>2026-07-13T12:06:27.000Z</time>
</trkpt>
<trkpt lat="56.485302" lon="8.140254">
<ele>3.936141</ele>
<time>2026-07-13T12:06:28.000Z</time>
</trkpt>
<trkpt lat="56.485344" lon="8.140209">
<ele>3.788560</ele>
<time>2026-07-13T12:06:29.000Z</time>
</trkpt>
<trkpt lat="56.485390" lon="8.140166">
<ele>3.632006</ele>
<time>2026-07-13T12:06:30.000Z</time>
</trkpt>
<trkpt lat="56.485436" lon="8.140127">
<ele>3.478402</ele>
<time>2026-07-13T12:06:31.000Z</time>
</trkpt>
<trkpt lat="56.485485" lon="8.140086">
<ele>3.315163</ele>
<time>2026-07-13T12:06:32.000Z</time>
</trkpt>
<trkpt lat="56.485535" lon="8.140045">
<ele>3.149173</ele>
<time>2026-07-13T12:06:33.000Z</time>
</trkpt>
<trkpt lat="56.485584" lon="8.140004">
<ele>2.985934</ele>
<time>2026-07-13T12:06:34.000Z</time>
</trkpt>
<trkpt lat="56.485638" lon="8.139964">
<ele>2.809493</ele>
<time>2026-07-13T12:06:35.000Z</time>
</trkpt>
<trkpt lat="56.485691" lon="8.139922">
<ele>2.634536</ele>
<time>2026-07-13T12:06:36.000Z</time>
</trkpt>
<trkpt lat="56.485748" lon="8.139880">
<ele>2.448433</ele>
<time>2026-07-13T12:06:37.000Z</time>
</trkpt>
<trkpt lat="56.485805" lon="8.139839">
<ele>2.262953</ele>
<time>2026-07-13T12:06:38.000Z</time>
</trkpt>
<trkpt lat="56.485867" lon="8.139797">
<ele>2.062762</ele>
<time>2026-07-13T12:06:39.000Z</time>
</trkpt>
<trkpt lat="56.485928" lon="8.139756">
<ele>1.865989</ele>
<time>2026-07-13T12:06:40.000Z</time>
</trkpt>
<trkpt lat="56.485992" lon="8.139718">
<ele>1.662301</ele>
<time>2026-07-13T12:06:41.000Z</time>
</trkpt>
<trkpt lat="56.486054" lon="8.139681">
<ele>1.464880</ele>
<time>2026-07-13T12:06:42.000Z</time>
</trkpt>
<trkpt lat="56.486118" lon="8.139641">
<ele>1.260127</ele>
<time>2026-07-13T12:06:43.000Z</time>
</trkpt>
<trkpt lat="56.486187" lon="8.139601">
<ele>1.041025</ele>
<time>2026-07-13T12:06:44.000Z</time>
</trkpt>
<trkpt lat="56.486256" lon="8.139562">
<ele>0.822426</ele>
<time>2026-07-13T12:06:45.000Z</time>
</trkpt>
<trkpt lat="56.486324" lon="8.139523">
<ele>0.606712</ele>
<time>2026-07-13T12:06:46.000Z</time>
</trkpt>
<trkpt lat="56.486393" lon="8.139488">
<ele>0.390009</ele>
<time>2026-07-13T12:06:47.000Z</time>
</trkpt>
<trkpt lat="56.486469" lon="8.139455">
<ele>0.153652</ele>
<time>2026-07-13T12:06:48.000Z</time>
</trkpt>
<trkpt lat="56.486538" lon="8.139420">
<ele>-0.063051</ele>
<time>2026-07-13T12:06:49.000Z</time>
</trkpt>
<trkpt lat="56.486610" lon="8.139381">
<ele>-0.290327</ele>
<time>2026-07-13T12:06:50.000Z</time>
</trkpt>
<trkpt lat="56.486683" lon="8.139342">
<ele>-0.520501</ele>
<time>2026-07-13T12:06:51.000Z</time>
</trkpt>
<trkpt lat="56.486759" lon="8.139302">
<ele>-0.759853</ele>
<time>2026-07-13T12:06:52.000Z</time>
</trkpt>
<trkpt lat="56.486828" lon="8.139269">
<ele>-0.975679</ele>
<time>2026-07-13T12:06:53.000Z</time>
</trkpt>
<trkpt lat="56.486908" lon="8.139235">
<ele>-1.098318</ele>
<time>2026-07-13T12:06:54.000Z</time>
</trkpt>
<trkpt lat="56.486988" lon="8.139200">
<ele>-1.194561</ele>
<time>2026-07-13T12:06:55.000Z</time>
</trkpt>
<trkpt lat="56.487064" lon="8.139166">
<ele>-1.286107</ele>
<time>2026-07-13T12:06:56.000Z</time>
</trkpt>
<trkpt lat="56.487144" lon="8.139127">
<ele>-1.382988</ele>
<time>2026-07-13T12:06:57.000Z</time>
</trkpt>
<trkpt lat="56.487221" lon="8.139087">
<ele>-1.476663</ele>
<time>2026-07-13T12:06:58.000Z</time>
</trkpt>
<trkpt lat="56.487301" lon="8.139048">
<ele>-1.573545</ele>
<time>2026-07-13T12:06:59.000Z</time>
</trkpt>
<trkpt lat="56.487381" lon="8.139008">
<ele>-1.670597</ele>
<time>2026-07-13T12:07:00.000Z</time>
</trkpt>
<trkpt lat="56.487461" lon="8.138970">
<ele>-1.767313</ele>
<time>2026-07-13T12:07:01.000Z</time>
</trkpt>
<trkpt lat="56.487545" lon="8.138930">
<ele>-1.868881</ele>
<time>2026-07-13T12:07:02.000Z</time>
</trkpt>
<trkpt lat="56.487625" lon="8.138890">
<ele>-1.965932</ele>
<time>2026-07-13T12:07:03.000Z</time>
</trkpt>
<trkpt lat="56.487705" lon="8.138850">
<ele>-2.062984</ele>
<time>2026-07-13T12:07:04.000Z</time>
</trkpt>
<trkpt lat="56.487789" lon="8.138807">
<ele>-2.165062</ele>
<time>2026-07-13T12:07:05.000Z</time>
</trkpt>
<trkpt lat="56.487869" lon="8.138769">
<ele>-2.261778</ele>
<time>2026-07-13T12:07:06.000Z</time>
</trkpt>
<trkpt lat="56.487946" lon="8.138733">
<ele>-2.354773</ele>
<time>2026-07-13T12:07:07.000Z</time>
</trkpt>
<trkpt lat="56.488018" lon="8.138695">
<ele>-2.442472</ele>
<time>2026-07-13T12:07:08.000Z</time>
</trkpt>
<trkpt lat="56.488094" lon="8.138658">
<ele>-2.534502</ele>
<time>2026-07-13T12:07:09.000Z</time>
</trkpt>
<trkpt lat="56.488167" lon="8.138621">
<ele>-2.623147</ele>
<time>2026-07-13T12:07:10.000Z</time>
</trkpt>
<trkpt lat="56.488239" lon="8.138584">
<ele>-2.710668</ele>
<time>2026-07-13T12:07:11.000Z</time>
</trkpt>
<trkpt lat="56.488304" lon="8.138551">
<ele>-2.789609</ele>
<time>2026-07-13T12:07:12.000Z</time>
</trkpt>
<trkpt lat="56.488373" lon="8.138517">
<ele>-2.873230</ele>
<time>2026-07-13T12:07:13.000Z</time>
</trkpt>
<trkpt lat="56.488438" lon="8.138486">
<ele>-2.951832</ele>
<time>2026-07-13T12:07:14.000Z</time>
</trkpt>
<trkpt lat="56.488495" lon="8.138456">
<ele>-3.021246</ele>
<time>2026-07-13T12:07:15.000Z</time>
</trkpt>
<trkpt lat="56.488560" lon="8.138420">
<ele>-3.100731</ele>
<time>2026-07-13T12:07:16.000Z</time>
</trkpt>
<trkpt lat="56.488617" lon="8.138384">
<ele>-3.114725</ele>
<time>2026-07-13T12:07:17.000Z</time>
</trkpt>
<trkpt lat="56.488674" lon="8.138348">
<ele>-3.103817</ele>
<time>2026-07-13T12:07:18.000Z</time>
</trkpt>
<trkpt lat="56.488728" lon="8.138311">
<ele>-3.093384</ele>
<time>2026-07-13T12:07:19.000Z</time>
</trkpt>
<trkpt lat="56.488785" lon="8.138270">
<ele>-3.082301</ele>
<time>2026-07-13T12:07:20.000Z</time>
</trkpt>
<trkpt lat="56.488846" lon="8.138228">
<ele>-3.070508</ele>
<time>2026-07-13T12:07:21.000Z</time>
</trkpt>
<trkpt lat="56.488903" lon="8.138183">
<ele>-3.059272</ele>
<time>2026-07-13T12:07:22.000Z</time>
</trkpt>
<trkpt lat="56.488960" lon="8.138139">
<ele>-3.048075</ele>
<time>2026-07-13T12:07:23.000Z</time>
</trkpt>
<trkpt lat="56.489010" lon="8.138097">
<ele>-3.038115</ele>
<time>2026-07-13T12:07:24.000Z</time>
</trkpt>
<trkpt lat="56.489063" lon="8.138053">
<ele>-3.027580</ele>
<time>2026-07-13T12:07:25.000Z</time>
</trkpt>
<trkpt lat="56.489117" lon="8.138008">
<ele>-3.016838</ele>
<time>2026-07-13T12:07:26.000Z</time>
</trkpt>
<trkpt lat="56.489170" lon="8.137964">
<ele>-3.006303</ele>
<time>2026-07-13T12:07:27.000Z</time>
</trkpt>
<trkpt lat="56.489220" lon="8.137917">
<ele>-2.996123</ele>
<time>2026-07-13T12:07:28.000Z</time>
</trkpt>
<trkpt lat="56.489273" lon="8.137866">
<ele>-2.985278</ele>
<time>2026-07-13T12:07:29.000Z</time>
</trkpt>
<trkpt lat="56.489323" lon="8.137814">
<ele>-2.974859</ele>
<time>2026-07-13T12:07:30.000Z</time>
</trkpt>
<trkpt lat="56.489368" lon="8.137760">
<ele>-2.965105</ele>
<time>2026-07-13T12:07:31.000Z</time>
</trkpt>
<trkpt lat="56.489422" lon="8.137705">
<ele>-2.953910</ele>
<time>2026-07-13T12:07:32.000Z</time>
</trkpt>
<trkpt lat="56.489475" lon="8.137650">
<ele>-2.942872</ele>
<time>2026-07-13T12:07:33.000Z</time>
</trkpt>
<trkpt lat="56.489521" lon="8.137593">
<ele>-2.932800</ele>
<time>2026-07-13T12:07:34.000Z</time>
</trkpt>
<trkpt lat="56.489571" lon="8.137541">
<ele>-2.922381</ele>
<time>2026-07-13T12:07:35.000Z</time>
</trkpt>
<trkpt lat="56.489620" lon="8.137486">
<ele>-2.911964</ele>
<time>2026-07-13T12:07:36.000Z</time>
</trkpt>
<trkpt lat="56.489666" lon="8.137432">
<ele>-2.902059</ele>
<time>2026-07-13T12:07:37.000Z</time>
</trkpt>
<trkpt lat="56.489719" lon="8.137374">
<ele>-2.890869</ele>
<time>2026-07-13T12:07:38.000Z</time>
</trkpt>
<trkpt lat="56.489765" lon="8.137314">
<ele>-2.880625</ele>
<time>2026-07-13T12:07:39.000Z</time>
</trkpt>
<trkpt lat="56.489815" lon="8.137258">
<ele>-2.870002</ele>
<time>2026-07-13T12:07:40.000Z</time>
</trkpt>
<trkpt lat="56.489861" lon="8.137195">
<ele>-2.859581</ele>
<time>2026-07-13T12:07:41.000Z</time>
</trkpt>
<trkpt lat="56.489910" lon="8.137135">
<ele>-2.848893</ele>
<time>2026-07-13T12:07:42.000Z</time>
</trkpt>
<trkpt lat="56.489960" lon="8.137075">
<ele>-2.838054</ele>
<time>2026-07-13T12:07:43.000Z</time>
</trkpt>
<trkpt lat="56.490009" lon="8.137017">
<ele>-2.827477</ele>
<time>2026-07-13T12:07:44.000Z</time>
</trkpt>
<trkpt lat="56.490055" lon="8.136962">
<ele>-2.817517</ele>
<time>2026-07-13T12:07:45.000Z</time>
</trkpt>
<trkpt lat="56.490101" lon="8.136902">
<ele>-2.807273</ele>
<time>2026-07-13T12:07:46.000Z</time>
</trkpt>
<trkpt lat="56.490154" lon="8.136838">
<ele>-2.789034</ele>
<time>2026-07-13T12:07:47.000Z</time>
</trkpt>
<trkpt lat="56.490204" lon="8.136776">
<ele>-2.729316</ele>
<time>2026-07-13T12:07:48.000Z</time>
</trkpt>
<trkpt lat="56.490250" lon="8.136716">
<ele>-2.673449</ele>
<time>2026-07-13T12:07:49.000Z</time>
</trkpt>
<trkpt lat="56.490299" lon="8.136657">
<ele>-2.615460</ele>
<time>2026-07-13T12:07:50.000Z</time>
</trkpt>
<trkpt lat="56.490349" lon="8.136597">
<ele>-2.556349</ele>
<time>2026-07-13T12:07:51.000Z</time>
</trkpt>
<trkpt lat="56.490402" lon="8.136539">
<ele>-2.495321</ele>
<time>2026-07-13T12:07:52.000Z</time>
</trkpt>
<trkpt lat="56.490448" lon="8.136480">
<ele>-2.439771</ele>
<time>2026-07-13T12:07:53.000Z</time>
</trkpt>
<trkpt lat="56.490498" lon="8.136422">
<ele>-2.381254</ele>
<time>2026-07-13T12:07:54.000Z</time>
</trkpt>
<trkpt lat="56.490543" lon="8.136363">
<ele>-2.326505</ele>
<time>2026-07-13T12:07:55.000Z</time>
</trkpt>
<trkpt lat="56.490585" lon="8.136301">
<ele>-2.273106</ele>
<time>2026-07-13T12:07:56.000Z</time>
</trkpt>
<trkpt lat="56.490635" lon="8.136234">
<ele>-2.211809</ele>
<time>2026-07-13T12:07:57.000Z</time>
</trkpt>
<trkpt lat="56.490681" lon="8.136170">
<ele>-2.154643</ele>
<time>2026-07-13T12:07:58.000Z</time>
</trkpt>
<trkpt lat="56.490726" lon="8.136105">
<ele>-2.097918</ele>
<time>2026-07-13T12:07:59.000Z</time>
</trkpt>
<trkpt lat="56.490761" lon="8.136047">
<ele>-2.051166</ele>
<time>2026-07-13T12:08:00.000Z</time>
</trkpt>
<trkpt lat="56.490807" lon="8.135971">
<ele>-1.989804</ele>
<time>2026-07-13T12:08:01.000Z</time>
</trkpt>
<trkpt lat="56.490852" lon="8.135896">
<ele>-1.929537</ele>
<time>2026-07-13T12:08:02.000Z</time>
</trkpt>
<trkpt lat="56.490894" lon="8.135820">
<ele>-1.871027</ele>
<time>2026-07-13T12:08:03.000Z</time>
</trkpt>
<trkpt lat="56.490936" lon="8.135745">
<ele>-1.812901</ele>
<time>2026-07-13T12:08:04.000Z</time>
</trkpt>
<trkpt lat="56.490974" lon="8.135673">
<ele>-1.758705</ele>
<time>2026-07-13T12:08:05.000Z</time>
</trkpt>
<trkpt lat="56.491013" lon="8.135596">
<ele>-1.701849</ele>
<time>2026-07-13T12:08:06.000Z</time>
</trkpt>
<trkpt lat="56.491051" lon="8.135522">
<ele>-1.646860</ele>
<time>2026-07-13T12:08:07.000Z</time>
</trkpt>
<trkpt lat="56.491089" lon="8.135447">
<ele>-1.591473</ele>
<time>2026-07-13T12:08:08.000Z</time>
</trkpt>
<trkpt lat="56.491127" lon="8.135371">
<ele>-1.535683</ele>
<time>2026-07-13T12:08:09.000Z</time>
</trkpt>
<trkpt lat="56.491169" lon="8.135291">
<ele>-1.475616</ele>
<time>2026-07-13T12:08:10.000Z</time>
</trkpt>
<trkpt lat="56.491203" lon="8.135211">
<ele>-1.420684</ele>
<time>2026-07-13T12:08:11.000Z</time>
</trkpt>
<trkpt lat="56.491241" lon="8.135130">
<ele>-1.362849</ele>
<time>2026-07-13T12:08:12.000Z</time>
</trkpt>
<trkpt lat="56.491280" lon="8.135053">
<ele>-1.305993</ele>
<time>2026-07-13T12:08:13.000Z</time>
</trkpt>
<trkpt lat="56.491314" lon="8.134978">
<ele>-1.253191</ele>
<time>2026-07-13T12:08:14.000Z</time>
</trkpt>
<trkpt lat="56.491352" lon="8.134907">
<ele>-1.199387</ele>
<time>2026-07-13T12:08:15.000Z</time>
</trkpt>
<trkpt lat="56.491386" lon="8.134836">
<ele>-1.148248</ele>
<time>2026-07-13T12:08:16.000Z</time>
</trkpt>
<trkpt lat="56.491425" lon="8.134764">
<ele>-1.093366</ele>
<time>2026-07-13T12:08:17.000Z</time>
</trkpt>
<trkpt lat="56.491463" lon="8.134691">
<ele>-1.038775</ele>
<time>2026-07-13T12:08:18.000Z</time>
</trkpt>
<trkpt lat="56.491501" lon="8.134626">
<ele>-0.938394</ele>
<time>2026-07-13T12:08:19.000Z</time>
</trkpt>
<trkpt lat="56.491539" lon="8.134558">
<ele>-0.816847</ele>
<time>2026-07-13T12:08:20.000Z</time>
</trkpt>
<trkpt lat="56.491577" lon="8.134491">
<ele>-0.696180</ele>
<time>2026-07-13T12:08:21.000Z</time>
</trkpt>
<trkpt lat="56.491615" lon="8.134431">
<ele>-0.581473</ele>
<time>2026-07-13T12:08:22.000Z</time>
</trkpt>
<trkpt lat="56.491661" lon="8.134366">
<ele>-0.448719</ele>
<time>2026-07-13T12:08:23.000Z</time>
</trkpt>
<trkpt lat="56.491703" lon="8.134309">
<ele>-0.329301</ele>
<time>2026-07-13T12:08:24.000Z</time>
</trkpt>
<trkpt lat="56.491745" lon="8.134251">
<ele>-0.209125</ele>
<time>2026-07-13T12:08:25.000Z</time>
</trkpt>
<trkpt lat="56.491791" lon="8.134194">
<ele>-0.082305</ele>
<time>2026-07-13T12:08:26.000Z</time>
</trkpt>
<trkpt lat="56.491833" lon="8.134143">
<ele>0.032752</ele>
<time>2026-07-13T12:08:27.000Z</time>
</trkpt>
<trkpt lat="56.491879" lon="8.134092">
<ele>0.155474</ele>
<time>2026-07-13T12:08:28.000Z</time>
</trkpt>
<trkpt lat="56.491924" lon="8.134048">
<ele>0.271836</ele>
<time>2026-07-13T12:08:29.000Z</time>
</trkpt>
<trkpt lat="56.491970" lon="8.134004">
<ele>0.390205</ele>
<time>2026-07-13T12:08:30.000Z</time>
</trkpt>
<trkpt lat="56.492020" lon="8.133956">
<ele>0.518970</ele>
<time>2026-07-13T12:08:31.000Z</time>
</trkpt>
<trkpt lat="56.492065" lon="8.133913">
<ele>0.634741</ele>
<time>2026-07-13T12:08:32.000Z</time>
</trkpt>
<trkpt lat="56.492119" lon="8.133867">
<ele>0.770526</ele>
<time>2026-07-13T12:08:33.000Z</time>
</trkpt>
<trkpt lat="56.492172" lon="8.133824">
<ele>0.902670</ele>
<time>2026-07-13T12:08:34.000Z</time>
</trkpt>
<trkpt lat="56.492222" lon="8.133788">
<ele>1.025103</ele>
<time>2026-07-13T12:08:35.000Z</time>
</trkpt>
<trkpt lat="56.492275" lon="8.133756">
<ele>1.152226</ele>
<time>2026-07-13T12:08:36.000Z</time>
</trkpt>
<trkpt lat="56.492325" lon="8.133726">
<ele>1.272079</ele>
<time>2026-07-13T12:08:37.000Z</time>
</trkpt>
<trkpt lat="56.492382" lon="8.133693">
<ele>1.408245</ele>
<time>2026-07-13T12:08:38.000Z</time>
</trkpt>
<trkpt lat="56.492435" lon="8.133659">
<ele>1.536185</ele>
<time>2026-07-13T12:08:39.000Z</time>
</trkpt>
<trkpt lat="56.492485" lon="8.133629">
<ele>1.656038</ele>
<time>2026-07-13T12:08:40.000Z</time>
</trkpt>
<trkpt lat="56.492535" lon="8.133599">
<ele>1.775891</ele>
<time>2026-07-13T12:08:41.000Z</time>
</trkpt>
<trkpt lat="56.492588" lon="8.133572">
<ele>1.901170</ele>
<time>2026-07-13T12:08:42.000Z</time>
</trkpt>
<trkpt lat="56.492638" lon="8.133541">
<ele>2.021424</ele>
<time>2026-07-13T12:08:43.000Z</time>
</trkpt>
<trkpt lat="56.492687" lon="8.133512">
<ele>2.138723</ele>
<time>2026-07-13T12:08:44.000Z</time>
</trkpt>
<trkpt lat="56.492737" lon="8.133484">
<ele>2.257810</ele>
<time>2026-07-13T12:08:45.000Z</time>
</trkpt>
<trkpt lat="56.492786" lon="8.133456">
<ele>2.374724</ele>
<time>2026-07-13T12:08:46.000Z</time>
</trkpt>
<trkpt lat="56.492832" lon="8.133430">
<ele>2.484374</ele>
<time>2026-07-13T12:08:47.000Z</time>
</trkpt>
<trkpt lat="56.492878" lon="8.133406">
<ele>2.593301</ele>
<time>2026-07-13T12:08:48.000Z</time>
</trkpt>
<trkpt lat="56.492924" lon="8.133383">
<ele>2.701888</ele>
<time>2026-07-13T12:08:49.000Z</time>
</trkpt>
<trkpt lat="56.492966" lon="8.133359">
<ele>2.802100</ele>
<time>2026-07-13T12:08:50.000Z</time>
</trkpt>
<trkpt lat="56.493008" lon="8.133336">
<ele>2.901942</ele>
<time>2026-07-13T12:08:51.000Z</time>
</trkpt>
<trkpt lat="56.493046" lon="8.133310">
<ele>2.994373</ele>
<time>2026-07-13T12:08:52.000Z</time>
</trkpt>
<trkpt lat="56.493084" lon="8.133287">
<ele>3.090573</ele>
<time>2026-07-13T12:08:53.000Z</time>
</trkpt>
<trkpt lat="56.493118" lon="8.133268">
<ele>3.195008</ele>
<time>2026-07-13T12:08:54.000Z</time>
</trkpt>
<trkpt lat="56.493153" lon="8.133248">
<ele>3.302728</ele>
<time>2026-07-13T12:08:55.000Z</time>
</trkpt>
<trkpt lat="56.493187" lon="8.133229">
<ele>3.407162</ele>
<time>2026-07-13T12:08:56.000Z</time>
</trkpt>
<trkpt lat="56.493217" lon="8.133212">
<ele>3.499424</ele>
<time>2026-07-13T12:08:57.000Z</time>
</trkpt>
<trkpt lat="56.493248" lon="8.133193">
<ele>3.595480</ele>
<time>2026-07-13T12:08:58.000Z</time>
</trkpt>
<trkpt lat="56.493282" lon="8.133176">
<ele>3.699006</ele>
<time>2026-07-13T12:08:59.000Z</time>
</trkpt>
<trkpt lat="56.493309" lon="8.133158">
<ele>3.783451</ele>
<time>2026-07-13T12:09:00.000Z</time>
</trkpt>
<trkpt lat="56.493340" lon="8.133143">
<ele>3.877630</ele>
<time>2026-07-13T12:09:01.000Z</time>
</trkpt>
<trkpt lat="56.493370" lon="8.133127">
<ele>3.969421</ele>
<time>2026-07-13T12:09:02.000Z</time>
</trkpt>
<trkpt lat="56.493401" lon="8.133108">
<ele>4.065476</ele>
<time>2026-07-13T12:09:03.000Z</time>
</trkpt>
<trkpt lat="56.493431" lon="8.133088">
<ele>4.159304</ele>
<time>2026-07-13T12:09:04.000Z</time>
</trkpt>
<trkpt lat="56.493462" lon="8.133070">
<ele>4.254853</ele>
<time>2026-07-13T12:09:05.000Z</time>
</trkpt>
<trkpt lat="56.493496" lon="8.133050">
<ele>4.359777</ele>
<time>2026-07-13T12:09:06.000Z</time>
</trkpt>
<trkpt lat="56.493526" lon="8.133029">
<ele>4.454176</ele>
<time>2026-07-13T12:09:07.000Z</time>
</trkpt>
<trkpt lat="56.493557" lon="8.133007">
<ele>4.551898</ele>
<time>2026-07-13T12:09:08.000Z</time>
</trkpt>
<trkpt lat="56.493591" lon="8.132988">
<ele>4.656333</ele>
<time>2026-07-13T12:09:09.000Z</time>
</trkpt>
<trkpt lat="56.493626" lon="8.132975">
<ele>4.761200</ele>
<time>2026-07-13T12:09:10.000Z</time>
</trkpt>
<trkpt lat="56.493664" lon="8.132958">
<ele>4.876085</ele>
<time>2026-07-13T12:09:11.000Z</time>
</trkpt>
<trkpt lat="56.493702" lon="8.132937">
<ele>4.992695</ele>
<time>2026-07-13T12:09:12.000Z</time>
</trkpt>
<trkpt lat="56.493740" lon="8.132914">
<ele>5.110291</ele>
<time>2026-07-13T12:09:13.000Z</time>
</trkpt>
<trkpt lat="56.493778" lon="8.132891">
<ele>5.227886</ele>
<time>2026-07-13T12:09:14.000Z</time>
</trkpt>
<trkpt lat="56.493813" lon="8.132866">
<ele>5.338314</ele>
<time>2026-07-13T12:09:15.000Z</time>
</trkpt>
<trkpt lat="56.493851" lon="8.132845">
<ele>5.454923</ele>
<time>2026-07-13T12:09:16.000Z</time>
</trkpt>
<trkpt lat="56.493885" lon="8.132828">
<ele>5.558449</ele>
<time>2026-07-13T12:09:17.000Z</time>
</trkpt>
<trkpt lat="56.493927" lon="8.132813">
<ele>5.684097</ele>
<time>2026-07-13T12:09:18.000Z</time>
</trkpt>
<trkpt lat="56.493961" lon="8.132794">
<ele>5.788532</ele>
<time>2026-07-13T12:09:19.000Z</time>
</trkpt>
<trkpt lat="56.493999" lon="8.132776">
<ele>5.903817</ele>
<time>2026-07-13T12:09:20.000Z</time>
</trkpt>
<trkpt lat="56.494034" lon="8.132758">
<ele>6.010606</ele>
<time>2026-07-13T12:09:21.000Z</time>
</trkpt>
<trkpt lat="56.494068" lon="8.132740">
<ele>6.114574</ele>
<time>2026-07-13T12:09:22.000Z</time>
</trkpt>
<trkpt lat="56.494106" lon="8.132721">
<ele>6.230280</ele>
<time>2026-07-13T12:09:23.000Z</time>
</trkpt>
<trkpt lat="56.494144" lon="8.132699">
<ele>6.347372</ele>
<time>2026-07-13T12:09:24.000Z</time>
</trkpt>
<trkpt lat="56.494179" lon="8.132680">
<ele>6.454615</ele>
<time>2026-07-13T12:09:25.000Z</time>
</trkpt>
<trkpt lat="56.494221" lon="8.132653">
<ele>6.585422</ele>
<time>2026-07-13T12:09:26.000Z</time>
</trkpt>
<trkpt lat="56.494259" lon="8.132629">
<ele>6.703542</ele>
<time>2026-07-13T12:09:27.000Z</time>
</trkpt>
<trkpt lat="56.494297" lon="8.132613">
<ele>6.818049</ele>
<time>2026-07-13T12:09:28.000Z</time>
</trkpt>
<trkpt lat="56.494335" lon="8.132602">
<ele>6.930999</ele>
<time>2026-07-13T12:09:29.000Z</time>
</trkpt>
<trkpt lat="56.494377" lon="8.132587">
<ele>7.056647</ele>
<time>2026-07-13T12:09:30.000Z</time>
</trkpt>
<trkpt lat="56.494419" lon="8.132570">
<ele>7.182962</ele>
<time>2026-07-13T12:09:31.000Z</time>
</trkpt>
<trkpt lat="56.494461" lon="8.132547">
<ele>7.311747</ele>
<time>2026-07-13T12:09:32.000Z</time>
</trkpt>
<trkpt lat="56.494503" lon="8.132528">
<ele>7.438808</ele>
<time>2026-07-13T12:09:33.000Z</time>
</trkpt>
<trkpt lat="56.494541" lon="8.132510">
<ele>7.554093</ele>
<time>2026-07-13T12:09:34.000Z</time>
</trkpt>
<trkpt lat="56.494579" lon="8.132491">
<ele>7.669798</ele>
<time>2026-07-13T12:09:35.000Z</time>
</trkpt>
<trkpt lat="56.494621" lon="8.132469">
<ele>7.798123</ele>
<time>2026-07-13T12:09:36.000Z</time>
</trkpt>
<trkpt lat="56.494659" lon="8.132446">
<ele>7.915719</ele>
<time>2026-07-13T12:09:37.000Z</time>
</trkpt>
<trkpt lat="56.494701" lon="8.132423">
<ele>8.044504</ele>
<time>2026-07-13T12:09:38.000Z</time>
</trkpt>
<trkpt lat="56.494747" lon="8.132400">
<ele>8.184568</ele>
<time>2026-07-13T12:09:39.000Z</time>
</trkpt>
<trkpt lat="56.494789" lon="8.132377">
<ele>8.313353</ele>
<time>2026-07-13T12:09:40.000Z</time>
</trkpt>
<trkpt lat="56.494839" lon="8.132352">
<ele>8.354546</ele>
<time>2026-07-13T12:09:41.000Z</time>
</trkpt>
<trkpt lat="56.494885" lon="8.132329">
<ele>8.362987</ele>
<time>2026-07-13T12:09:42.000Z</time>
</trkpt>
<trkpt lat="56.494930" lon="8.132305">
<ele>8.371285</ele>
<time>2026-07-13T12:09:43.000Z</time>
</trkpt>
<trkpt lat="56.494976" lon="8.132281">
<ele>8.379752</ele>
<time>2026-07-13T12:09:44.000Z</time>
</trkpt>
<trkpt lat="56.495022" lon="8.132258">
<ele>8.388193</ele>
<time>2026-07-13T12:09:45.000Z</time>
</trkpt>
<trkpt lat="56.495068" lon="8.132234">
<ele>8.396660</ele>
<time>2026-07-13T12:09:46.000Z</time>
</trkpt>
<trkpt lat="56.495110" lon="8.132209">
<ele>8.404480</ele>
<time>2026-07-13T12:09:47.000Z</time>
</trkpt>
<trkpt lat="56.495155" lon="8.132186">
<ele>8.412751</ele>
<time>2026-07-13T12:09:48.000Z</time>
</trkpt>
<trkpt lat="56.495201" lon="8.132166">
<ele>8.421119</ele>
<time>2026-07-13T12:09:49.000Z</time>
</trkpt>
<trkpt lat="56.495243" lon="8.132145">
<ele>8.428826</ele>
<time>2026-07-13T12:09:50.000Z</time>
</trkpt>
<trkpt lat="56.495281" lon="8.132130">
<ele>8.435705</ele>
<time>2026-07-13T12:09:51.000Z</time>
</trkpt>
<trkpt lat="56.495327" lon="8.132108">
<ele>8.444121</ele>
<time>2026-07-13T12:09:52.000Z</time>
</trkpt>
<trkpt lat="56.495369" lon="8.132087">
<ele>8.451828</ele>
<time>2026-07-13T12:09:53.000Z</time>
</trkpt>
<trkpt lat="56.495415" lon="8.132062">
<ele>8.460323</ele>
<time>2026-07-13T12:09:54.000Z</time>
</trkpt>
<trkpt lat="56.495457" lon="8.132035">
<ele>8.468206</ele>
<time>2026-07-13T12:09:55.000Z</time>
</trkpt>
<trkpt lat="56.495503" lon="8.132008">
<ele>8.476759</ele>
<time>2026-07-13T12:09:56.000Z</time>
</trkpt>
<trkpt lat="56.495548" lon="8.131981">
<ele>8.485144</ele>
<time>2026-07-13T12:09:57.000Z</time>
</trkpt>
<trkpt lat="56.495590" lon="8.131955">
<ele>8.492995</ele>
<time>2026-07-13T12:09:58.000Z</time>
</trkpt>
<trkpt lat="56.495636" lon="8.131930">
<ele>8.501490</ele>
<time>2026-07-13T12:09:59.000Z</time>
</trkpt>
<trkpt lat="56.495682" lon="8.131907">
<ele>8.509931</ele>
<time>2026-07-13T12:10:00.000Z</time>
</trkpt>
<trkpt lat="56.495724" lon="8.131892">
<ele>8.517503</ele>
<time>2026-07-13T12:10:01.000Z</time>
</trkpt>
<trkpt lat="56.495769" lon="8.131883">
<ele>8.525511</ele>
<time>2026-07-13T12:10:02.000Z</time>
</trkpt>
<trkpt lat="56.495815" lon="8.131878">
<ele>8.533663</ele>
<time>2026-07-13T12:10:03.000Z</time>
</trkpt>
<trkpt lat="56.495861" lon="8.131881">
<ele>8.541805</ele>
<time>2026-07-13T12:10:04.000Z</time>
</trkpt>
<trkpt lat="56.495903" lon="8.131887">
<ele>8.549257</ele>
<time>2026-07-13T12:10:05.000Z</time>
</trkpt>
<trkpt lat="56.495949" lon="8.131893">
<ele>8.557415</ele>
<time>2026-07-13T12:10:06.000Z</time>
</trkpt>
<trkpt lat="56.495991" lon="8.131901">
<ele>8.564885</ele>
<time>2026-07-13T12:10:07.000Z</time>
</trkpt>
<trkpt lat="56.496033" lon="8.131914">
<ele>8.572422</ele>
<time>2026-07-13T12:10:08.000Z</time>
</trkpt>
<trkpt lat="56.496075" lon="8.131937">
<ele>8.580183</ele>
<time>2026-07-13T12:10:09.000Z</time>
</trkpt>
<trkpt lat="56.496113" lon="8.131969">
<ele>8.587595</ele>
<time>2026-07-13T12:10:10.000Z</time>
</trkpt>
<trkpt lat="56.496151" lon="8.131993">
<ele>8.594714</ele>
<time>2026-07-13T12:10:11.000Z</time>
</trkpt>
<trkpt lat="56.496193" lon="8.132008">
<ele>8.602286</ele>
<time>2026-07-13T12:10:12.000Z</time>
</trkpt>
<trkpt lat="56.496231" lon="8.131999">
<ele>8.609065</ele>
<time>2026-07-13T12:10:13.000Z</time>
</trkpt>
<trkpt lat="56.496265" lon="8.131964">
<ele>8.615982</ele>
<time>2026-07-13T12:10:14.000Z</time>
</trkpt>
<trkpt lat="56.496288" lon="8.131912">
<ele>8.622488</ele>
<time>2026-07-13T12:10:15.000Z</time>
</trkpt>
<trkpt lat="56.496311" lon="8.131843">
<ele>8.630358</ele>
<time>2026-07-13T12:10:16.000Z</time>
</trkpt>
<trkpt lat="56.496323" lon="8.131763">
<ele>8.638453</ele>
<time>2026-07-13T12:10:17.000Z</time>
</trkpt>
<trkpt lat="56.496334" lon="8.131680">
<ele>8.646787</ele>
<time>2026-07-13T12:10:18.000Z</time>
</trkpt>
<trkpt lat="56.496342" lon="8.131599">
<ele>8.654821</ele>
<time>2026-07-13T12:10:19.000Z</time>
</trkpt>
<trkpt lat="56.496349" lon="8.131516">
<ele>8.663019</ele>
<time>2026-07-13T12:10:20.000Z</time>
</trkpt>
<trkpt lat="56.496361" lon="8.131434">
<ele>8.677413</ele>
<time>2026-07-13T12:10:21.000Z</time>
</trkpt>
<trkpt lat="56.496372" lon="8.131370">
<ele>8.690944</ele>
<time>2026-07-13T12:10:22.000Z</time>
</trkpt>
<trkpt lat="56.496380" lon="8.131289">
<ele>8.707555</ele>
<time>2026-07-13T12:10:23.000Z</time>
</trkpt>
<trkpt lat="56.496391" lon="8.131207">
<ele>8.724589</ele>
<time>2026-07-13T12:10:24.000Z</time>
</trkpt>
<trkpt lat="56.496399" lon="8.131135">
<ele>8.739415</ele>
<time>2026-07-13T12:10:25.000Z</time>
</trkpt>
<trkpt lat="56.496410" lon="8.131060">
<ele>8.755080</ele>
<time>2026-07-13T12:10:26.000Z</time>
</trkpt>
<trkpt lat="56.496418" lon="8.130983">
<ele>8.770897</ele>
<time>2026-07-13T12:10:27.000Z</time>
</trkpt>
<trkpt lat="56.496429" lon="8.130907">
<ele>8.786757</ele>
<time>2026-07-13T12:10:28.000Z</time>
</trkpt>
<trkpt lat="56.496441" lon="8.130827">
<ele>8.803492</ele>
<time>2026-07-13T12:10:29.000Z</time>
</trkpt>
<trkpt lat="56.496445" lon="8.130747">
<ele>8.819708</ele>
<time>2026-07-13T12:10:30.000Z</time>
</trkpt>
<trkpt lat="56.496456" lon="8.130665">
<ele>8.836742</ele>
<time>2026-07-13T12:10:31.000Z</time>
</trkpt>
<trkpt lat="56.496464" lon="8.130584">
<ele>8.853353</ele>
<time>2026-07-13T12:10:32.000Z</time>
</trkpt>
<trkpt lat="56.496475" lon="8.130503">
<ele>8.870192</ele>
<time>2026-07-13T12:10:33.000Z</time>
</trkpt>
<trkpt lat="56.496487" lon="8.130424">
<ele>8.886732</ele>
<time>2026-07-13T12:10:34.000Z</time>
</trkpt>
<trkpt lat="56.496498" lon="8.130342">
<ele>8.903766</ele>
<time>2026-07-13T12:10:35.000Z</time>
</trkpt>
<trkpt lat="56.496510" lon="8.130258">
<ele>8.921282</ele>
<time>2026-07-13T12:10:36.000Z</time>
</trkpt>
<trkpt lat="56.496521" lon="8.130173">
<ele>8.938905</ele>
<time>2026-07-13T12:10:37.000Z</time>
</trkpt>
<trkpt lat="56.496536" lon="8.130090">
<ele>8.956535</ele>
<time>2026-07-13T12:10:38.000Z</time>
</trkpt>
<trkpt lat="56.496555" lon="8.130014">
<ele>8.973377</ele>
<time>2026-07-13T12:10:39.000Z</time>
</trkpt>
<trkpt lat="56.496574" lon="8.129938">
<ele>8.990219</ele>
<time>2026-07-13T12:10:40.000Z</time>
</trkpt>
<trkpt lat="56.496597" lon="8.129865">
<ele>9.007187</ele>
<time>2026-07-13T12:10:41.000Z</time>
</trkpt>
<trkpt lat="56.496624" lon="8.129797">
<ele>9.024096</ele>
<time>2026-07-13T12:10:42.000Z</time>
</trkpt>
<trkpt lat="56.496651" lon="8.129732">
<ele>9.040517</ele>
<time>2026-07-13T12:10:43.000Z</time>
</trkpt>
<trkpt lat="56.496685" lon="8.129674">
<ele>9.057596</ele>
<time>2026-07-13T12:10:44.000Z</time>
</trkpt>
<trkpt lat="56.496716" lon="8.129619">
<ele>9.073464</ele>
<time>2026-07-13T12:10:45.000Z</time>
</trkpt>
<trkpt lat="56.496750" lon="8.129563">
<ele>9.090268</ele>
<time>2026-07-13T12:10:46.000Z</time>
</trkpt>
<trkpt lat="56.496788" lon="8.129509">
<ele>9.107930</ele>
<time>2026-07-13T12:10:47.000Z</time>
</trkpt>
<trkpt lat="56.496822" lon="8.129458">
<ele>9.124073</ele>
<time>2026-07-13T12:10:48.000Z</time>
</trkpt>
<trkpt lat="56.496857" lon="8.129409">
<ele>9.140249</ele>
<time>2026-07-13T12:10:49.000Z</time>
</trkpt>
<trkpt lat="56.496895" lon="8.129355">
<ele>9.157911</ele>
<time>2026-07-13T12:10:50.000Z</time>
</trkpt>
<trkpt lat="56.496933" lon="8.129301">
<ele>9.175573</ele>
<time>2026-07-13T12:10:51.000Z</time>
</trkpt>
<trkpt lat="56.496967" lon="8.129244">
<ele>9.192514</ele>
<time>2026-07-13T12:10:52.000Z</time>
</trkpt>
<trkpt lat="56.497005" lon="8.129189">
<ele>9.210301</ele>
<time>2026-07-13T12:10:53.000Z</time>
</trkpt>
<trkpt lat="56.497040" lon="8.129134">
<ele>9.227245</ele>
<time>2026-07-13T12:10:54.000Z</time>
</trkpt>
<trkpt lat="56.497074" lon="8.129081">
<ele>9.243648</ele>
<time>2026-07-13T12:10:55.000Z</time>
</trkpt>
<trkpt lat="56.497108" lon="8.129029">
<ele>9.259921</ele>
<time>2026-07-13T12:10:56.000Z</time>
</trkpt>
<trkpt lat="56.497143" lon="8.128979">
<ele>9.276221</ele>
<time>2026-07-13T12:10:57.000Z</time>
</trkpt>
<trkpt lat="56.497181" lon="8.128928">
<ele>9.293516</ele>
<time>2026-07-13T12:10:58.000Z</time>
</trkpt>
<trkpt lat="56.497215" lon="8.128876">
<ele>9.309788</ele>
<time>2026-07-13T12:10:59.000Z</time>
</trkpt>
<trkpt lat="56.497250" lon="8.128821">
<ele>9.329157</ele>
<time>2026-07-13T12:11:00.000Z</time>
</trkpt>
<trkpt lat="56.497284" lon="8.128771">
<ele>9.356658</ele>
<time>2026-07-13T12:11:01.000Z</time>
</trkpt>
<trkpt lat="56.497314" lon="8.128717">
<ele>9.383216</ele>
<time>2026-07-13T12:11:02.000Z</time>
</trkpt>
<trkpt lat="56.497345" lon="8.128672">
<ele>9.408162</ele>
<time>2026-07-13T12:11:03.000Z</time>
</trkpt>
<trkpt lat="56.497383" lon="8.128618">
<ele>9.438491</ele>
<time>2026-07-13T12:11:04.000Z</time>
</trkpt>
<trkpt lat="56.497417" lon="8.128569">
<ele>9.465775</ele>
<time>2026-07-13T12:11:05.000Z</time>
</trkpt>
<trkpt lat="56.497452" lon="8.128517">
<ele>9.494201</ele>
<time>2026-07-13T12:11:06.000Z</time>
</trkpt>
<trkpt lat="56.497486" lon="8.128464">
<ele>9.522369</ele>
<time>2026-07-13T12:11:07.000Z</time>
</trkpt>
<trkpt lat="56.497520" lon="8.128408">
<ele>9.551226</ele>
<time>2026-07-13T12:11:08.000Z</time>
</trkpt>
<trkpt lat="56.497551" lon="8.128359">
<ele>9.577062</ele>
<time>2026-07-13T12:11:09.000Z</time>
</trkpt>
<trkpt lat="56.497585" lon="8.128303">
<ele>9.605918</ele>
<time>2026-07-13T12:11:10.000Z</time>
</trkpt>
<trkpt lat="56.497623" lon="8.128247">
<ele>9.636680</ele>
<time>2026-07-13T12:11:11.000Z</time>
</trkpt>
<trkpt lat="56.497658" lon="8.128198">
<ele>9.664458</ele>
<time>2026-07-13T12:11:12.000Z</time>
</trkpt>
<trkpt lat="56.497692" lon="8.128148">
<ele>9.691959</ele>
<time>2026-07-13T12:11:13.000Z</time>
</trkpt>
<trkpt lat="56.497726" lon="8.128098">
<ele>9.719460</ele>
<time>2026-07-13T12:11:14.000Z</time>
</trkpt>
<trkpt lat="56.497761" lon="8.128046">
<ele>9.747886</ele>
<time>2026-07-13T12:11:15.000Z</time>
</trkpt>
<trkpt lat="56.497795" lon="8.127993">
<ele>9.776053</ele>
<time>2026-07-13T12:11:16.000Z</time>
</trkpt>
<trkpt lat="56.497829" lon="8.127941">
<ele>9.803996</ele>
<time>2026-07-13T12:11:17.000Z</time>
</trkpt>
<trkpt lat="56.497860" lon="8.127893">
<ele>9.829606</ele>
<time>2026-07-13T12:11:18.000Z</time>
</trkpt>
<trkpt lat="56.497891" lon="8.127849">
<ele>9.854337</ele>
<time>2026-07-13T12:11:19.000Z</time>
</trkpt>
<trkpt lat="56.497921" lon="8.127798">
<ele>9.880172</ele>
<time>2026-07-13T12:11:20.000Z</time>
</trkpt>
<trkpt lat="56.497955" lon="8.127749">
<ele>9.907456</ele>
<time>2026-07-13T12:11:21.000Z</time>
</trkpt>
<trkpt lat="56.497986" lon="8.127699">
<ele>9.933521</ele>
<time>2026-07-13T12:11:22.000Z</time>
</trkpt>
<trkpt lat="56.498016" lon="8.127646">
<ele>9.959835</ele>
<time>2026-07-13T12:11:23.000Z</time>
</trkpt>
<trkpt lat="56.498051" lon="8.127592">
<ele>9.988705</ele>
<time>2026-07-13T12:11:24.000Z</time>
</trkpt>
<trkpt lat="56.498077" lon="8.127540">
<ele>10.013026</ele>
<time>2026-07-13T12:11:25.000Z</time>
</trkpt>
<trkpt lat="56.498104" lon="8.127477">
<ele>10.040674</ele>
<time>2026-07-13T12:11:26.000Z</time>
</trkpt>
<trkpt lat="56.498127" lon="8.127412">
<ele>10.067437</ele>
<time>2026-07-13T12:11:27.000Z</time>
</trkpt>
<trkpt lat="56.498150" lon="8.127341">
<ele>10.095974</ele>
<time>2026-07-13T12:11:28.000Z</time>
</trkpt>
<trkpt lat="56.498173" lon="8.127270">
<ele>10.124510</ele>
<time>2026-07-13T12:11:29.000Z</time>
</trkpt>
<trkpt lat="56.498188" lon="8.127195">
<ele>10.152161</ele>
<time>2026-07-13T12:11:30.000Z</time>
</trkpt>
<trkpt lat="56.498199" lon="8.127119">
<ele>10.179396</ele>
<time>2026-07-13T12:11:31.000Z</time>
</trkpt>
<trkpt lat="56.498211" lon="8.127043">
<ele>10.206797</ele>
<time>2026-07-13T12:11:32.000Z</time>
</trkpt>
<trkpt lat="56.498218" lon="8.126967">
<ele>10.233505</ele>
<time>2026-07-13T12:11:33.000Z</time>
</trkpt>
<trkpt lat="56.498226" lon="8.126889">
<ele>10.261005</ele>
<time>2026-07-13T12:11:34.000Z</time>
</trkpt>
<trkpt lat="56.498234" lon="8.126820">
<ele>10.285444</ele>
<time>2026-07-13T12:11:35.000Z</time>
</trkpt>
<trkpt lat="56.498245" lon="8.126736">
<ele>10.315370</ele>
<time>2026-07-13T12:11:36.000Z</time>
</trkpt>
<trkpt lat="56.498253" lon="8.126652">
<ele>10.344917</ele>
<time>2026-07-13T12:11:37.000Z</time>
</trkpt>
<trkpt lat="56.498264" lon="8.126570">
<ele>10.374168</ele>
<time>2026-07-13T12:11:38.000Z</time>
</trkpt>
<trkpt lat="56.498272" lon="8.126490">
<ele>10.402350</ele>
<time>2026-07-13T12:11:39.000Z</time>
</trkpt>
<trkpt lat="56.498280" lon="8.126407">
<ele>10.431556</ele>
<time>2026-07-13T12:11:40.000Z</time>
</trkpt>
<trkpt lat="56.498287" lon="8.126325">
<ele>10.447893</ele>
<time>2026-07-13T12:11:41.000Z</time>
</trkpt>
<trkpt lat="56.498299" lon="8.126242">
<ele>10.427855</ele>
<time>2026-07-13T12:11:42.000Z</time>
</trkpt>
<trkpt lat="56.498306" lon="8.126160">
<ele>10.408478</ele>
<time>2026-07-13T12:11:43.000Z</time>
</trkpt>
<trkpt lat="56.498314" lon="8.126080">
<ele>10.389490</ele>
<time>2026-07-13T12:11:44.000Z</time>
</trkpt>
<trkpt lat="56.498322" lon="8.125999">
<ele>10.370274</ele>
<time>2026-07-13T12:11:45.000Z</time>
</trkpt>
<trkpt lat="56.498333" lon="8.125921">
<ele>10.351473</ele>
<time>2026-07-13T12:11:46.000Z</time>
</trkpt>
<trkpt lat="56.498341" lon="8.125841">
<ele>10.332485</ele>
<time>2026-07-13T12:11:47.000Z</time>
</trkpt>
<trkpt lat="56.498348" lon="8.125761">
<ele>10.313569</ele>
<time>2026-07-13T12:11:48.000Z</time>
</trkpt>
<trkpt lat="56.498360" lon="8.125684">
<ele>10.294884</ele>
<time>2026-07-13T12:11:49.000Z</time>
</trkpt>
<trkpt lat="56.498367" lon="8.125602">
<ele>10.275506</ele>
<time>2026-07-13T12:11:50.000Z</time>
</trkpt>
<trkpt lat="56.498379" lon="8.125524">
<ele>10.256596</ele>
<time>2026-07-13T12:11:51.000Z</time>
</trkpt>
<trkpt lat="56.498386" lon="8.125442">
<ele>10.237218</ele>
<time>2026-07-13T12:11:52.000Z</time>
</trkpt>
<trkpt lat="56.498398" lon="8.125361">
<ele>10.217633</ele>
<time>2026-07-13T12:11:53.000Z</time>
</trkpt>
<trkpt lat="56.498405" lon="8.125282">
<ele>10.198947</ele>
<time>2026-07-13T12:11:54.000Z</time>
</trkpt>
<trkpt lat="56.498413" lon="8.125199">
<ele>10.179270</ele>
<time>2026-07-13T12:11:55.000Z</time>
</trkpt>
<trkpt lat="56.498425" lon="8.125118">
<ele>10.159684</ele>
<time>2026-07-13T12:11:56.000Z</time>
</trkpt>
<trkpt lat="56.498432" lon="8.125040">
<ele>10.141229</ele>
<time>2026-07-13T12:11:57.000Z</time>
</trkpt>
<trkpt lat="56.498444" lon="8.124963">
<ele>10.122544</ele>
<time>2026-07-13T12:11:58.000Z</time>
</trkpt>
<trkpt lat="56.498455" lon="8.124883">
<ele>10.103290</ele>
<time>2026-07-13T12:11:59.000Z</time>
</trkpt>
<trkpt lat="56.498463" lon="8.124807">
<ele>10.085221</ele>
<time>2026-07-13T12:12:00.000Z</time>
</trkpt>
<trkpt lat="56.498474" lon="8.124729">
<ele>10.066421</ele>
<time>2026-07-13T12:12:01.000Z</time>
</trkpt>
<trkpt lat="56.498478" lon="8.124661">
<ele>10.050450</ele>
<time>2026-07-13T12:12:02.000Z</time>
</trkpt>
<trkpt lat="56.498486" lon="8.124583">
<ele>10.031923</ele>
<time>2026-07-13T12:12:03.000Z</time>
</trkpt>
<trkpt lat="56.498497" lon="8.124510">
<ele>10.014251</ele>
<time>2026-07-13T12:12:04.000Z</time>
</trkpt>
<trkpt lat="56.498508" lon="8.124440">
<ele>9.997254</ele>
<time>2026-07-13T12:12:05.000Z</time>
</trkpt>
<trkpt lat="56.498512" lon="8.124372">
<ele>9.981283</ele>
<time>2026-07-13T12:12:06.000Z</time>
</trkpt>
<trkpt lat="56.498524" lon="8.124301">
<ele>9.963942</ele>
<time>2026-07-13T12:12:07.000Z</time>
</trkpt>
<trkpt lat="56.498531" lon="8.124236">
<ele>9.948476</ele>
<time>2026-07-13T12:12:08.000Z</time>
</trkpt>
<trkpt lat="56.498539" lon="8.124169">
<ele>9.932467</ele>
<time>2026-07-13T12:12:09.000Z</time>
</trkpt>
<trkpt lat="56.498543" lon="8.124105">
<ele>9.917426</ele>
<time>2026-07-13T12:12:10.000Z</time>
</trkpt>
<trkpt lat="56.498550" lon="8.124042">
<ele>9.902418</ele>
<time>2026-07-13T12:12:11.000Z</time>
</trkpt>
<trkpt lat="56.498554" lon="8.123979">
<ele>9.887608</ele>
<time>2026-07-13T12:12:12.000Z</time>
</trkpt>
<trkpt lat="56.498562" lon="8.123920">
<ele>9.873420</ele>
<time>2026-07-13T12:12:13.000Z</time>
</trkpt>
<trkpt lat="56.498570" lon="8.123865">
<ele>9.860137</ele>
<time>2026-07-13T12:12:14.000Z</time>
</trkpt>
<trkpt lat="56.498581" lon="8.123812">
<ele>9.846913</ele>
<time>2026-07-13T12:12:15.000Z</time>
</trkpt>
<trkpt lat="56.498589" lon="8.123754">
<ele>9.832952</ele>
<time>2026-07-13T12:12:16.000Z</time>
</trkpt>
<trkpt lat="56.498592" lon="8.123693">
<ele>9.818650</ele>
<time>2026-07-13T12:12:17.000Z</time>
</trkpt>
<trkpt lat="56.498596" lon="8.123632">
<ele>9.804304</ele>
<time>2026-07-13T12:12:18.000Z</time>
</trkpt>
<trkpt lat="56.498600" lon="8.123561">
<ele>9.787637</ele>
<time>2026-07-13T12:12:19.000Z</time>
</trkpt>
<trkpt lat="56.498604" lon="8.123482">
<ele>9.769110</ele>
<time>2026-07-13T12:12:20.000Z</time>
</trkpt>
<trkpt lat="56.498615" lon="8.123396">
<ele>9.748494</ele>
<time>2026-07-13T12:12:21.000Z</time>
</trkpt>
<trkpt lat="56.498631" lon="8.123309">
<ele>9.727078</ele>
<time>2026-07-13T12:12:22.000Z</time>
</trkpt>
<trkpt lat="56.498646" lon="8.123214">
<ele>9.704003</ele>
<time>2026-07-13T12:12:23.000Z</time>
</trkpt>
<trkpt lat="56.498661" lon="8.123112">
<ele>9.731306</ele>
<time>2026-07-13T12:12:24.000Z</time>
</trkpt>
<trkpt lat="56.498672" lon="8.123014">
<ele>9.804779</ele>
<time>2026-07-13T12:12:25.000Z</time>
</trkpt>
<trkpt lat="56.498688" lon="8.122911">
<ele>9.883391</ele>
<time>2026-07-13T12:12:26.000Z</time>
</trkpt>
<trkpt lat="56.498699" lon="8.122809">
<ele>9.959746</ele>
<time>2026-07-13T12:12:27.000Z</time>
</trkpt>
<trkpt lat="56.498711" lon="8.122711">
<ele>10.033496</ele>
<time>2026-07-13T12:12:28.000Z</time>
</trkpt>
<trkpt lat="56.498718" lon="8.122615">
<ele>10.104639</ele>
<time>2026-07-13T12:12:29.000Z</time>
</trkpt>
<trkpt lat="56.498718" lon="8.122522">
<ele>10.172965</ele>
<time>2026-07-13T12:12:30.000Z</time>
</trkpt>
<trkpt lat="56.498711" lon="8.122427">
<ele>10.243379</ele>
<time>2026-07-13T12:12:31.000Z</time>
</trkpt>
<trkpt lat="56.498699" lon="8.122337">
<ele>10.311403</ele>
<time>2026-07-13T12:12:32.000Z</time>
</trkpt>
<trkpt lat="56.498684" lon="8.122256">
<ele>10.374173</ele>
<time>2026-07-13T12:12:33.000Z</time>
</trkpt>
<trkpt lat="56.498665" lon="8.122183">
<ele>10.433469</ele>
<time>2026-07-13T12:12:34.000Z</time>
</trkpt>
<trkpt lat="56.498638" lon="8.122115">
<ele>10.495011</ele>
<time>2026-07-13T12:12:35.000Z</time>
</trkpt>
<trkpt lat="56.498611" lon="8.122050">
<ele>10.554778</ele>
<time>2026-07-13T12:12:36.000Z</time>
</trkpt>
<trkpt lat="56.498589" lon="8.121994">
<ele>10.605278</ele>
<time>2026-07-13T12:12:37.000Z</time>
</trkpt>
<trkpt lat="56.498558" lon="8.121941">
<ele>10.662013</ele>
<time>2026-07-13T12:12:38.000Z</time>
</trkpt>
<trkpt lat="56.498528" lon="8.121897">
<ele>10.713389</ele>
<time>2026-07-13T12:12:39.000Z</time>
</trkpt>
<trkpt lat="56.498489" lon="8.121858">
<ele>10.772683</ele>
<time>2026-07-13T12:12:40.000Z</time>
</trkpt>
<trkpt lat="56.498455" lon="8.121824">
<ele>10.824375</ele>
<time>2026-07-13T12:12:41.000Z</time>
</trkpt>
<trkpt lat="56.498425" lon="8.121793">
<ele>10.870346</ele>
<time>2026-07-13T12:12:42.000Z</time>
</trkpt>
<trkpt lat="56.498390" lon="8.121764">
<ele>10.921574</ele>
<time>2026-07-13T12:12:43.000Z</time>
</trkpt>
<trkpt lat="56.498356" lon="8.121735">
<ele>10.971594</ele>
<time>2026-07-13T12:12:44.000Z</time>
</trkpt>
<trkpt lat="56.498322" lon="8.121705">
<ele>11.021932</ele>
<time>2026-07-13T12:12:45.000Z</time>
</trkpt>
<trkpt lat="56.498291" lon="8.121674">
<ele>11.069064</ele>
<time>2026-07-13T12:12:46.000Z</time>
</trkpt>
<trkpt lat="56.498260" lon="8.121651">
<ele>11.113652</ele>
<time>2026-07-13T12:12:47.000Z</time>
</trkpt>
<trkpt lat="56.498226" lon="8.121628">
<ele>11.161960</ele>
<time>2026-07-13T12:12:48.000Z</time>
</trkpt>
<trkpt lat="56.498199" lon="8.121604">
<ele>11.201992</ele>
<time>2026-07-13T12:12:49.000Z</time>
</trkpt>
<trkpt lat="56.498173" lon="8.121578">
<ele>11.241521</ele>
<time>2026-07-13T12:12:50.000Z</time>
</trkpt>
<trkpt lat="56.498142" lon="8.121553">
<ele>11.286687</ele>
<time>2026-07-13T12:12:51.000Z</time>
</trkpt>
<trkpt lat="56.498116" lon="8.121530">
<ele>11.325200</ele>
<time>2026-07-13T12:12:52.000Z</time>
</trkpt>
<trkpt lat="56.498089" lon="8.121508">
<ele>11.364606</ele>
<time>2026-07-13T12:12:53.000Z</time>
</trkpt>
<trkpt lat="56.498062" lon="8.121486">
<ele>11.404012</ele>
<time>2026-07-13T12:12:54.000Z</time>
</trkpt>
<trkpt lat="56.498035" lon="8.121463">
<ele>11.443725</ele>
<time>2026-07-13T12:12:55.000Z</time>
</trkpt>
<trkpt lat="56.498009" lon="8.121439">
<ele>11.482566</ele>
<time>2026-07-13T12:12:56.000Z</time>
</trkpt>
<trkpt lat="56.497986" lon="8.121417">
<ele>11.517185</ele>
<time>2026-07-13T12:12:57.000Z</time>
</trkpt>
<trkpt lat="56.497959" lon="8.121391">
<ele>11.557885</ele>
<time>2026-07-13T12:12:58.000Z</time>
</trkpt>
<trkpt lat="56.497932" lon="8.121367">
<ele>11.597917</ele>
<time>2026-07-13T12:12:59.000Z</time>
</trkpt>
<trkpt lat="56.497906" lon="8.121344">
<ele>11.636429</ele>
<time>2026-07-13T12:13:00.000Z</time>
</trkpt>
<trkpt lat="56.497887" lon="8.121323">
<ele>11.666054</ele>
<time>2026-07-13T12:13:01.000Z</time>
</trkpt>
<trkpt lat="56.497860" lon="8.121299">
<ele>11.706086</ele>
<time>2026-07-13T12:13:02.000Z</time>
</trkpt>
<trkpt lat="56.497841" lon="8.121273">
<ele>11.737779</ele>
<time>2026-07-13T12:13:03.000Z</time>
</trkpt>
<trkpt lat="56.497818" lon="8.121242">
<ele>11.775937</ele>
<time>2026-07-13T12:13:04.000Z</time>
</trkpt>
<trkpt lat="56.497799" lon="8.121213">
<ele>11.809006</ele>
<time>2026-07-13T12:13:05.000Z</time>
</trkpt>
<trkpt lat="56.497772" lon="8.121186">
<ele>11.850055</ele>
<time>2026-07-13T12:13:06.000Z</time>
</trkpt>
<trkpt lat="56.497753" lon="8.121159">
<ele>11.882197</ele>
<time>2026-07-13T12:13:07.000Z</time>
</trkpt>
<trkpt lat="56.497734" lon="8.121129">
<ele>11.915744</ele>
<time>2026-07-13T12:13:08.000Z</time>
</trkpt>
<trkpt lat="56.497719" lon="8.121098">
<ele>11.946033</ele>
<time>2026-07-13T12:13:09.000Z</time>
</trkpt>
<trkpt lat="56.497704" lon="8.121062">
<ele>11.979172</ele>
<time>2026-07-13T12:13:10.000Z</time>
</trkpt>
<trkpt lat="56.497692" lon="8.121021">
<ele>12.013268</ele>
<time>2026-07-13T12:13:11.000Z</time>
</trkpt>
<trkpt lat="56.497681" lon="8.120979">
<ele>12.047423</ele>
<time>2026-07-13T12:13:12.000Z</time>
</trkpt>
<trkpt lat="56.497673" lon="8.120934">
<ele>12.082157</ele>
<time>2026-07-13T12:13:13.000Z</time>
</trkpt>
<trkpt lat="56.497669" lon="8.120885">
<ele>12.053599</ele>
<time>2026-07-13T12:13:14.000Z</time>
</trkpt>
<trkpt lat="56.497673" lon="8.120840">
<ele>12.020291</ele>
<time>2026-07-13T12:13:15.000Z</time>
</trkpt>
<trkpt lat="56.497684" lon="8.120808">
<ele>11.992743</ele>
<time>2026-07-13T12:13:16.000Z</time>
</trkpt>
<trkpt lat="56.497700" lon="8.120788">
<ele>11.967007</ele>
<time>2026-07-13T12:13:17.000Z</time>
</trkpt>
<trkpt lat="56.497711" lon="8.120778">
<ele>11.950714</ele>
<time>2026-07-13T12:13:18.000Z</time>
</trkpt>
<trkpt lat="56.497726" lon="8.120770">
<ele>11.930012</ele>
<time>2026-07-13T12:13:19.000Z</time>
</trkpt>
<trkpt lat="56.497742" lon="8.120766">
<ele>11.908629</ele>
<time>2026-07-13T12:13:20.000Z</time>
</trkpt>
<trkpt lat="56.497753" lon="8.120765">
<ele>11.894048</ele>
<time>2026-07-13T12:13:21.000Z</time>
</trkpt>
<trkpt lat="56.497768" lon="8.120767">
<ele>11.874135</ele>
<time>2026-07-13T12:14:54.000Z</time>
</trkpt>
<trkpt lat="56.497791" lon="8.120759">
<ele>11.843129</ele>
<time>2026-07-13T12:14:56.000Z</time>
</trkpt>
<trkpt lat="56.497810" lon="8.120754">
<ele>11.817711</ele>
<time>2026-07-13T12:14:57.000Z</time>
</trkpt>
<trkpt lat="56.497826" lon="8.120751">
<ele>11.796415</ele>
<time>2026-07-13T12:14:58.000Z</time>
</trkpt>
<trkpt lat="56.497845" lon="8.120748">
<ele>11.771165</ele>
<time>2026-07-13T12:14:59.000Z</time>
</trkpt>
<trkpt lat="56.497856" lon="8.120742">
<ele>11.755957</ele>
<time>2026-07-13T12:15:00.000Z</time>
</trkpt>
<trkpt lat="56.497879" lon="8.120734">
<ele>11.724951</ele>
<time>2026-07-13T12:15:01.000Z</time>
</trkpt>
<trkpt lat="56.497902" lon="8.120727">
<ele>11.694074</ele>
<time>2026-07-13T12:15:02.000Z</time>
</trkpt>
<trkpt lat="56.497921" lon="8.120721">
<ele>11.668540</ele>
<time>2026-07-13T12:15:03.000Z</time>
</trkpt>
<trkpt lat="56.497940" lon="8.120718">
<ele>11.643291</ele>
<time>2026-07-13T12:15:04.000Z</time>
</trkpt>
<trkpt lat="56.497967" lon="8.120714">
<ele>11.607426</ele>
<time>2026-07-13T12:15:05.000Z</time>
</trkpt>
<trkpt lat="56.497986" lon="8.120709">
<ele>11.582007</ele>
<time>2026-07-13T12:15:06.000Z</time>
</trkpt>
<trkpt lat="56.498009" lon="8.120706">
<ele>11.551478</ele>
<time>2026-07-13T12:15:07.000Z</time>
</trkpt>
<trkpt lat="56.498032" lon="8.120701">
<ele>11.520810</ele>
<time>2026-07-13T12:15:08.000Z</time>
</trkpt>
<trkpt lat="56.498055" lon="8.120696">
<ele>11.490142</ele>
<time>2026-07-13T12:15:09.000Z</time>
</trkpt>
<trkpt lat="56.498077" lon="8.120691">
<ele>11.460787</ele>
<time>2026-07-13T12:15:10.000Z</time>
</trkpt>
<trkpt lat="56.498104" lon="8.120683">
<ele>11.424567</ele>
<time>2026-07-13T12:15:11.000Z</time>
</trkpt>
<trkpt lat="56.498131" lon="8.120674">
<ele>11.388221</ele>
<time>2026-07-13T12:15:12.000Z</time>
</trkpt>
<trkpt lat="56.498157" lon="8.120666">
<ele>11.353306</ele>
<time>2026-07-13T12:15:13.000Z</time>
</trkpt>
<trkpt lat="56.498188" lon="8.120658">
<ele>11.311851</ele>
<time>2026-07-13T12:15:14.000Z</time>
</trkpt>
<trkpt lat="56.498222" lon="8.120647">
<ele>11.266126</ele>
<time>2026-07-13T12:15:15.000Z</time>
</trkpt>
<trkpt lat="56.498253" lon="8.120640">
<ele>11.224767</ele>
<time>2026-07-13T12:15:16.000Z</time>
</trkpt>
<trkpt lat="56.498287" lon="8.120631">
<ele>11.179276</ele>
<time>2026-07-13T12:15:17.000Z</time>
</trkpt>
<trkpt lat="56.498318" lon="8.120621">
<ele>11.137589</ele>
<time>2026-07-13T12:15:18.000Z</time>
</trkpt>
<trkpt lat="56.498356" lon="8.120613">
<ele>11.086942</ele>
<time>2026-07-13T12:15:19.000Z</time>
</trkpt>
<trkpt lat="56.498386" lon="8.120607">
<ele>11.046983</ele>
<time>2026-07-13T12:15:20.000Z</time>
</trkpt>
<trkpt lat="56.498421" lon="8.120598">
<ele>11.000182</ele>
<time>2026-07-13T12:15:21.000Z</time>
</trkpt>
<trkpt lat="56.498451" lon="8.120591">
<ele>10.960137</ele>
<time>2026-07-13T12:15:22.000Z</time>
</trkpt>
<trkpt lat="56.498486" lon="8.120585">
<ele>10.913593</ele>
<time>2026-07-13T12:15:23.000Z</time>
</trkpt>
<trkpt lat="56.498516" lon="8.120579">
<ele>10.873634</ele>
<time>2026-07-13T12:15:24.000Z</time>
</trkpt>
<trkpt lat="56.498550" lon="8.120576">
<ele>10.828568</ele>
<time>2026-07-13T12:15:25.000Z</time>
</trkpt>
<trkpt lat="56.498585" lon="8.120580">
<ele>10.782139</ele>
<time>2026-07-13T12:15:26.000Z</time>
</trkpt>
<trkpt lat="56.498619" lon="8.120590">
<ele>10.736536</ele>
<time>2026-07-13T12:15:27.000Z</time>
</trkpt>
<trkpt lat="56.498653" lon="8.120603">
<ele>10.690532</ele>
<time>2026-07-13T12:15:28.000Z</time>
</trkpt>
<trkpt lat="56.498695" lon="8.120620">
<ele>10.633557</ele>
<time>2026-07-13T12:15:29.000Z</time>
</trkpt>
<trkpt lat="56.498737" lon="8.120633">
<ele>10.577147</ele>
<time>2026-07-13T12:15:30.000Z</time>
</trkpt>
<trkpt lat="56.498787" lon="8.120644">
<ele>10.510465</ele>
<time>2026-07-13T12:15:31.000Z</time>
</trkpt>
<trkpt lat="56.498844" lon="8.120651">
<ele>10.434829</ele>
<time>2026-07-13T12:15:32.000Z</time>
</trkpt>
<trkpt lat="56.498909" lon="8.120660">
<ele>10.348523</ele>
<time>2026-07-13T12:15:33.000Z</time>
</trkpt>
<trkpt lat="56.498974" lon="8.120664">
<ele>10.262419</ele>
<time>2026-07-13T12:15:34.000Z</time>
</trkpt>
<trkpt lat="56.499043" lon="8.120666">
<ele>10.171058</ele>
<time>2026-07-13T12:15:35.000Z</time>
</trkpt>
<trkpt lat="56.499104" lon="8.120665">
<ele>10.090296</ele>
<time>2026-07-13T12:15:36.000Z</time>
</trkpt>
<trkpt lat="56.499153" lon="8.120659">
<ele>10.025276</ele>
<time>2026-07-13T12:15:37.000Z</time>
</trkpt>
<trkpt lat="56.499214" lon="8.120646">
<ele>9.943961</ele>
<time>2026-07-13T12:15:38.000Z</time>
</trkpt>
<trkpt lat="56.499279" lon="8.120624">
<ele>9.856417</ele>
<time>2026-07-13T12:15:39.000Z</time>
</trkpt>
<trkpt lat="56.499336" lon="8.120603">
<ele>9.779410</ele>
<time>2026-07-13T12:15:40.000Z</time>
</trkpt>
<trkpt lat="56.499393" lon="8.120581">
<ele>9.701995</ele>
<time>2026-07-13T12:15:41.000Z</time>
</trkpt>
<trkpt lat="56.499454" lon="8.120557">
<ele>9.610751</ele>
<time>2026-07-13T12:15:42.000Z</time>
</trkpt>
<trkpt lat="56.499516" lon="8.120529">
<ele>9.517350</ele>
<time>2026-07-13T12:15:43.000Z</time>
</trkpt>
<trkpt lat="56.499584" lon="8.120496">
<ele>9.414448</ele>
<time>2026-07-13T12:15:44.000Z</time>
</trkpt>
<trkpt lat="56.499657" lon="8.120461">
<ele>9.304068</ele>
<time>2026-07-13T12:15:45.000Z</time>
</trkpt>
<trkpt lat="56.499729" lon="8.120429">
<ele>9.195703</ele>
<time>2026-07-13T12:15:46.000Z</time>
</trkpt>
<trkpt lat="56.499805" lon="8.120402">
<ele>9.082495</ele>
<time>2026-07-13T12:15:47.000Z</time>
</trkpt>
<trkpt lat="56.499878" lon="8.120380">
<ele>8.974322</ele>
<time>2026-07-13T12:15:48.000Z</time>
</trkpt>
<trkpt lat="56.499954" lon="8.120357">
<ele>8.861691</ele>
<time>2026-07-13T12:15:49.000Z</time>
</trkpt>
<trkpt lat="56.500023" lon="8.120332">
<ele>8.758834</ele>
<time>2026-07-13T12:15:50.000Z</time>
</trkpt>
<trkpt lat="56.500092" lon="8.120305">
<ele>8.655649</ele>
<time>2026-07-13T12:15:51.000Z</time>
</trkpt>
<trkpt lat="56.500153" lon="8.120280">
<ele>8.564230</ele>
<time>2026-07-13T12:15:52.000Z</time>
</trkpt>
<trkpt lat="56.500217" lon="8.120250">
<ele>8.467599</ele>
<time>2026-07-13T12:15:53.000Z</time>
</trkpt>
<trkpt lat="56.500278" lon="8.120214">
<ele>8.373822</ele>
<time>2026-07-13T12:15:54.000Z</time>
</trkpt>
<trkpt lat="56.500343" lon="8.120172">
<ele>8.272948</ele>
<time>2026-07-13T12:15:55.000Z</time>
</trkpt>
<trkpt lat="56.500404" lon="8.120132">
<ele>8.178122</ele>
<time>2026-07-13T12:15:56.000Z</time>
</trkpt>
<trkpt lat="56.500465" lon="8.120090">
<ele>8.082734</ele>
<time>2026-07-13T12:15:57.000Z</time>
</trkpt>
<trkpt lat="56.500526" lon="8.120057">
<ele>7.989679</ele>
<time>2026-07-13T12:15:58.000Z</time>
</trkpt>
<trkpt lat="56.500580" lon="8.120035">
<ele>7.908774</ele>
<time>2026-07-13T12:15:59.000Z</time>
</trkpt>
<trkpt lat="56.500637" lon="8.120025">
<ele>7.825065</ele>
<time>2026-07-13T12:16:00.000Z</time>
</trkpt>
<trkpt lat="56.500698" lon="8.120019">
<ele>7.735768</ele>
<time>2026-07-13T12:16:01.000Z</time>
</trkpt>
<trkpt lat="56.500744" lon="8.120015">
<ele>7.668451</ele>
<time>2026-07-13T12:16:02.000Z</time>
</trkpt>
<trkpt lat="56.500801" lon="8.120010">
<ele>7.585034</ele>
<time>2026-07-13T12:16:03.000Z</time>
</trkpt>
<trkpt lat="56.500870" lon="8.120004">
<ele>7.484058</ele>
<time>2026-07-13T12:16:04.000Z</time>
</trkpt>
<trkpt lat="56.500935" lon="8.119993">
<ele>7.388632</ele>
<time>2026-07-13T12:16:05.000Z</time>
</trkpt>
<trkpt lat="56.500999" lon="8.119979">
<ele>7.294401</ele>
<time>2026-07-13T12:16:06.000Z</time>
</trkpt>
<trkpt lat="56.501064" lon="8.119964">
<ele>7.198621</ele>
<time>2026-07-13T12:16:07.000Z</time>
</trkpt>
<trkpt lat="56.501133" lon="8.119950">
<ele>7.097131</ele>
<time>2026-07-13T12:16:08.000Z</time>
</trkpt>
<trkpt lat="56.501198" lon="8.119940">
<ele>7.247153</ele>
<time>2026-07-13T12:16:09.000Z</time>
</trkpt>
<trkpt lat="56.501263" lon="8.119927">
<ele>7.469296</ele>
<time>2026-07-13T12:16:10.000Z</time>
</trkpt>
<trkpt lat="56.501324" lon="8.119916">
<ele>7.677534</ele>
<time>2026-07-13T12:16:11.000Z</time>
</trkpt>
<trkpt lat="56.501385" lon="8.119903">
<ele>7.886177</ele>
<time>2026-07-13T12:16:12.000Z</time>
</trkpt>
<trkpt lat="56.501450" lon="8.119889">
<ele>8.108533</ele>
<time>2026-07-13T12:16:13.000Z</time>
</trkpt>
<trkpt lat="56.501507" lon="8.119876">
<ele>8.303688</ele>
<time>2026-07-13T12:16:14.000Z</time>
</trkpt>
<trkpt lat="56.501564" lon="8.119864">
<ele>8.498617</ele>
<time>2026-07-13T12:16:15.000Z</time>
</trkpt>
<trkpt lat="56.501617" lon="8.119852">
<ele>8.680056</ele>
<time>2026-07-13T12:16:16.000Z</time>
</trkpt>
<trkpt lat="56.501671" lon="8.119839">
<ele>8.865103</ele>
<time>2026-07-13T12:16:17.000Z</time>
</trkpt>
<trkpt lat="56.501720" lon="8.119825">
<ele>9.033611</ele>
<time>2026-07-13T12:16:18.000Z</time>
</trkpt>
<trkpt lat="56.501762" lon="8.119813">
<ele>9.178046</ele>
<time>2026-07-13T12:16:19.000Z</time>
</trkpt>
<trkpt lat="56.501804" lon="8.119805">
<ele>9.321504</ele>
<time>2026-07-13T12:16:20.000Z</time>
</trkpt>
<trkpt lat="56.501842" lon="8.119799">
<ele>9.451077</ele>
<time>2026-07-13T12:16:21.000Z</time>
</trkpt>
<trkpt lat="56.501884" lon="8.119789">
<ele>9.594976</ele>
<time>2026-07-13T12:16:22.000Z</time>
</trkpt>
<trkpt lat="56.501923" lon="8.119782">
<ele>9.728105</ele>
<time>2026-07-13T12:16:23.000Z</time>
</trkpt>
<trkpt lat="56.501957" lon="8.119772">
<ele>9.845114</ele>
<time>2026-07-13T12:16:24.000Z</time>
</trkpt>
<trkpt lat="56.501995" lon="8.119761">
<ele>9.975835</ele>
<time>2026-07-13T12:16:25.000Z</time>
</trkpt>
<trkpt lat="56.502026" lon="8.119746">
<ele>10.084831</ele>
<time>2026-07-13T12:16:26.000Z</time>
</trkpt>
<trkpt lat="56.502060" lon="8.119728">
<ele>10.205156</ele>
<time>2026-07-13T12:16:27.000Z</time>
</trkpt>
<trkpt lat="56.502098" lon="8.119703">
<ele>10.342486</ele>
<time>2026-07-13T12:16:28.000Z</time>
</trkpt>
<trkpt lat="56.502129" lon="8.119676">
<ele>10.459326</ele>
<time>2026-07-13T12:16:29.000Z</time>
</trkpt>
<trkpt lat="56.502163" lon="8.119639">
<ele>10.594053</ele>
<time>2026-07-13T12:16:30.000Z</time>
</trkpt>
<trkpt lat="56.502201" lon="8.119605">
<ele>10.738018</ele>
<time>2026-07-13T12:16:31.000Z</time>
</trkpt>
<trkpt lat="56.502243" lon="8.119580">
<ele>10.888192</ele>
<time>2026-07-13T12:16:32.000Z</time>
</trkpt>
<trkpt lat="56.502281" lon="8.119565">
<ele>11.020304</ele>
<time>2026-07-13T12:16:33.000Z</time>
</trkpt>
<trkpt lat="56.502323" lon="8.119556">
<ele>11.163970</ele>
<time>2026-07-13T12:16:34.000Z</time>
</trkpt>
<trkpt lat="56.502365" lon="8.119555">
<ele>11.306654</ele>
<time>2026-07-13T12:16:35.000Z</time>
</trkpt>
<trkpt lat="56.502407" lon="8.119556">
<ele>11.449339</ele>
<time>2026-07-13T12:16:36.000Z</time>
</trkpt>
<trkpt lat="56.502445" lon="8.119556">
<ele>11.578423</ele>
<time>2026-07-13T12:16:37.000Z</time>
</trkpt>
<trkpt lat="56.502487" lon="8.119555">
<ele>11.721107</ele>
<time>2026-07-13T12:16:38.000Z</time>
</trkpt>
<trkpt lat="56.502525" lon="8.119555">
<ele>11.850191</ele>
<time>2026-07-13T12:16:39.000Z</time>
</trkpt>
<trkpt lat="56.502564" lon="8.119555">
<ele>11.982673</ele>
<time>2026-07-13T12:16:40.000Z</time>
</trkpt>
<trkpt lat="56.502602" lon="8.119557">
<ele>12.111811</ele>
<time>2026-07-13T12:16:41.000Z</time>
</trkpt>
<trkpt lat="56.502640" lon="8.119558">
<ele>12.240909</ele>
<time>2026-07-13T12:16:42.000Z</time>
</trkpt>
<trkpt lat="56.502678" lon="8.119556">
<ele>12.370048</ele>
<time>2026-07-13T12:16:43.000Z</time>
</trkpt>
<trkpt lat="56.502712" lon="8.119552">
<ele>12.485787</ele>
<time>2026-07-13T12:16:44.000Z</time>
</trkpt>
<trkpt lat="56.502750" lon="8.119545">
<ele>12.615537</ele>
<time>2026-07-13T12:16:45.000Z</time>
</trkpt>
<trkpt lat="56.502789" lon="8.119541">
<ele>12.748230</ele>
<time>2026-07-13T12:16:46.000Z</time>
</trkpt>
<trkpt lat="56.502827" lon="8.119535">
<ele>12.877804</ele>
<time>2026-07-13T12:16:47.000Z</time>
</trkpt>
<trkpt lat="56.502865" lon="8.119530">
<ele>13.007228</ele>
<time>2026-07-13T12:16:48.000Z</time>
</trkpt>
<trkpt lat="56.502903" lon="8.119525">
<ele>13.136652</ele>
<time>2026-07-13T12:16:49.000Z</time>
</trkpt>
<trkpt lat="56.502941" lon="8.119519">
<ele>13.251239</ele>
<time>2026-07-13T12:16:50.000Z</time>
</trkpt>
<trkpt lat="56.502979" lon="8.119513">
<ele>13.356757</ele>
<time>2026-07-13T12:16:51.000Z</time>
</trkpt>
<trkpt lat="56.503021" lon="8.119508">
<ele>13.473192</ele>
<time>2026-07-13T12:16:52.000Z</time>
</trkpt>
<trkpt lat="56.503056" lon="8.119505">
<ele>13.570120</ele>
<time>2026-07-13T12:16:53.000Z</time>
</trkpt>
<trkpt lat="56.503098" lon="8.119500">
<ele>13.686555</ele>
<time>2026-07-13T12:16:54.000Z</time>
</trkpt>
<trkpt lat="56.503136" lon="8.119493">
<ele>13.792216</ele>
<time>2026-07-13T12:16:55.000Z</time>
</trkpt>
<trkpt lat="56.503181" lon="8.119483">
<ele>13.917632</ele>
<time>2026-07-13T12:16:56.000Z</time>
</trkpt>
<trkpt lat="56.503220" lon="8.119476">
<ele>14.026045</ele>
<time>2026-07-13T12:16:57.000Z</time>
</trkpt>
<trkpt lat="56.503258" lon="8.119473">
<ele>14.131264</ele>
<time>2026-07-13T12:16:58.000Z</time>
</trkpt>
<trkpt lat="56.503296" lon="8.119471">
<ele>14.236428</ele>
<time>2026-07-13T12:16:59.000Z</time>
</trkpt>
<trkpt lat="56.503342" lon="8.119465">
<ele>14.364006</ele>
<time>2026-07-13T12:17:00.000Z</time>
</trkpt>
<trkpt lat="56.503384" lon="8.119461">
<ele>14.480351</ele>
<time>2026-07-13T12:17:01.000Z</time>
</trkpt>
<trkpt lat="56.503422" lon="8.119456">
<ele>14.585747</ele>
<time>2026-07-13T12:17:02.000Z</time>
</trkpt>
<trkpt lat="56.503464" lon="8.119452">
<ele>14.702092</ele>
<time>2026-07-13T12:17:03.000Z</time>
</trkpt>
<trkpt lat="56.503502" lon="8.119450">
<ele>14.807255</ele>
<time>2026-07-13T12:17:04.000Z</time>
</trkpt>
<trkpt lat="56.503540" lon="8.119445">
<ele>14.912651</ele>
<time>2026-07-13T12:17:05.000Z</time>
</trkpt>
<trkpt lat="56.503582" lon="8.119439">
<ele>15.029196</ele>
<time>2026-07-13T12:17:06.000Z</time>
</trkpt>
<trkpt lat="56.503620" lon="8.119434">
<ele>15.134592</ele>
<time>2026-07-13T12:17:07.000Z</time>
</trkpt>
<trkpt lat="56.503662" lon="8.119429">
<ele>15.251027</ele>
<time>2026-07-13T12:17:08.000Z</time>
</trkpt>
<trkpt lat="56.503700" lon="8.119423">
<ele>15.356544</ele>
<time>2026-07-13T12:17:09.000Z</time>
</trkpt>
<trkpt lat="56.503738" lon="8.119417">
<ele>15.462062</ele>
<time>2026-07-13T12:17:10.000Z</time>
</trkpt>
<trkpt lat="56.503780" lon="8.119412">
<ele>15.578497</ele>
<time>2026-07-13T12:17:11.000Z</time>
</trkpt>
<trkpt lat="56.503819" lon="8.119410">
<ele>15.686425</ele>
<time>2026-07-13T12:17:12.000Z</time>
</trkpt>
<trkpt lat="56.503857" lon="8.119405">
<ele>15.791821</ele>
<time>2026-07-13T12:17:13.000Z</time>
</trkpt>
<trkpt lat="56.503902" lon="8.119399">
<ele>15.916641</ele>
<time>2026-07-13T12:17:14.000Z</time>
</trkpt>
<trkpt lat="56.503944" lon="8.119396">
<ele>16.032915</ele>
<time>2026-07-13T12:17:15.000Z</time>
</trkpt>
<trkpt lat="56.503990" lon="8.119392">
<ele>16.160311</ele>
<time>2026-07-13T12:17:16.000Z</time>
</trkpt>
<trkpt lat="56.504036" lon="8.119385">
<ele>16.288009</ele>
<time>2026-07-13T12:17:17.000Z</time>
</trkpt>
<trkpt lat="56.504070" lon="8.119379">
<ele>16.382508</ele>
<time>2026-07-13T12:17:18.000Z</time>
</trkpt>
<trkpt lat="56.504120" lon="8.119373">
<ele>16.521125</ele>
<time>2026-07-13T12:17:19.000Z</time>
</trkpt>
<trkpt lat="56.504173" lon="8.119368">
<ele>16.667937</ele>
<time>2026-07-13T12:17:20.000Z</time>
</trkpt>
<trkpt lat="56.504215" lon="8.119363">
<ele>16.784372</ele>
<time>2026-07-13T12:17:21.000Z</time>
</trkpt>
<trkpt lat="56.504261" lon="8.119358">
<ele>16.911851</ele>
<time>2026-07-13T12:17:22.000Z</time>
</trkpt>
<trkpt lat="56.504307" lon="8.119352">
<ele>17.039429</ele>
<time>2026-07-13T12:17:23.000Z</time>
</trkpt>
<trkpt lat="56.504349" lon="8.119346">
<ele>17.155974</ele>
<time>2026-07-13T12:17:24.000Z</time>
</trkpt>
<trkpt lat="56.504391" lon="8.119339">
<ele>17.272649</ele>
<time>2026-07-13T12:17:25.000Z</time>
</trkpt>
<trkpt lat="56.504437" lon="8.119333">
<ele>17.400228</ele>
<time>2026-07-13T12:17:26.000Z</time>
</trkpt>
<trkpt lat="56.504478" lon="8.119328">
<ele>17.513902</ele>
<time>2026-07-13T12:17:27.000Z</time>
</trkpt>
<trkpt lat="56.504520" lon="8.119323">
<ele>17.630337</ele>
<time>2026-07-13T12:17:28.000Z</time>
</trkpt>
<trkpt lat="56.504562" lon="8.119317">
<ele>17.746882</ele>
<time>2026-07-13T12:17:29.000Z</time>
</trkpt>
<trkpt lat="56.504604" lon="8.119308">
<ele>17.863876</ele>
<time>2026-07-13T12:17:30.000Z</time>
</trkpt>
<trkpt lat="56.504646" lon="8.119302">
<ele>17.980421</ele>
<time>2026-07-13T12:17:31.000Z</time>
</trkpt>
<trkpt lat="56.504688" lon="8.119295">
<ele>18.097095</ele>
<time>2026-07-13T12:17:32.000Z</time>
</trkpt>
<trkpt lat="56.504730" lon="8.119290">
<ele>18.187918</ele>
<time>2026-07-13T12:17:33.000Z</time>
</trkpt>
<trkpt lat="56.504768" lon="8.119286">
<ele>18.241797</ele>
<time>2026-07-13T12:17:34.000Z</time>
</trkpt>
<trkpt lat="56.504810" lon="8.119280">
<ele>18.301431</ele>
<time>2026-07-13T12:17:35.000Z</time>
</trkpt>
<trkpt lat="56.504852" lon="8.119274">
<ele>18.361065</ele>
<time>2026-07-13T12:17:36.000Z</time>
</trkpt>
<trkpt lat="56.504894" lon="8.119268">
<ele>18.420700</ele>
<time>2026-07-13T12:17:37.000Z</time>
</trkpt>
<trkpt lat="56.504936" lon="8.119262">
<ele>18.480334</ele>
<time>2026-07-13T12:17:38.000Z</time>
</trkpt>
<trkpt lat="56.504978" lon="8.119255">
<ele>18.540035</ele>
<time>2026-07-13T12:17:39.000Z</time>
</trkpt>
<trkpt lat="56.505016" lon="8.119251">
<ele>18.593914</ele>
<time>2026-07-13T12:17:40.000Z</time>
</trkpt>
<trkpt lat="56.505058" lon="8.119247">
<ele>18.653446</ele>
<time>2026-07-13T12:17:41.000Z</time>
</trkpt>
<trkpt lat="56.505096" lon="8.119240">
<ele>18.707512</ele>
<time>2026-07-13T12:17:42.000Z</time>
</trkpt>
<trkpt lat="56.505135" lon="8.119233">
<ele>18.762985</ele>
<time>2026-07-13T12:17:43.000Z</time>
</trkpt>
<trkpt lat="56.505173" lon="8.119227">
<ele>18.816977</ele>
<time>2026-07-13T12:17:44.000Z</time>
</trkpt>
<trkpt lat="56.505218" lon="8.119222">
<ele>18.880793</ele>
<time>2026-07-13T12:17:45.000Z</time>
</trkpt>
<trkpt lat="56.505257" lon="8.119220">
<ele>18.936019</ele>
<time>2026-07-13T12:17:46.000Z</time>
</trkpt>
<trkpt lat="56.505302" lon="8.119218">
<ele>18.999735</ele>
<time>2026-07-13T12:17:47.000Z</time>
</trkpt>
<trkpt lat="56.505348" lon="8.119211">
<ele>19.065076</ele>
<time>2026-07-13T12:17:48.000Z</time>
</trkpt>
<trkpt lat="56.505390" lon="8.119204">
<ele>19.124777</ele>
<time>2026-07-13T12:17:49.000Z</time>
</trkpt>
<trkpt lat="56.505432" lon="8.119198">
<ele>19.184411</ele>
<time>2026-07-13T12:17:50.000Z</time>
</trkpt>
<trkpt lat="56.505474" lon="8.119193">
<ele>19.243989</ele>
<time>2026-07-13T12:17:51.000Z</time>
</trkpt>
<trkpt lat="56.505516" lon="8.119188">
<ele>19.303567</ele>
<time>2026-07-13T12:17:52.000Z</time>
</trkpt>
<trkpt lat="56.505562" lon="8.119184">
<ele>19.368754</ele>
<time>2026-07-13T12:17:53.000Z</time>
</trkpt>
<trkpt lat="56.505604" lon="8.119180">
<ele>19.428286</ele>
<time>2026-07-13T12:17:54.000Z</time>
</trkpt>
<trkpt lat="56.505650" lon="8.119175">
<ele>19.493515</ele>
<time>2026-07-13T12:17:55.000Z</time>
</trkpt>
<trkpt lat="56.505692" lon="8.119167">
<ele>19.553293</ele>
<time>2026-07-13T12:17:56.000Z</time>
</trkpt>
<trkpt lat="56.505741" lon="8.119162">
<ele>19.622761</ele>
<time>2026-07-13T12:17:57.000Z</time>
</trkpt>
<trkpt lat="56.505787" lon="8.119156">
<ele>19.688041</ele>
<time>2026-07-13T12:17:58.000Z</time>
</trkpt>
<trkpt lat="56.505836" lon="8.119151">
<ele>19.757510</ele>
<time>2026-07-13T12:17:59.000Z</time>
</trkpt>
<trkpt lat="56.505878" lon="8.119145">
<ele>19.817144</ele>
<time>2026-07-13T12:18:00.000Z</time>
</trkpt>
<trkpt lat="56.505924" lon="8.119140">
<ele>19.882373</ele>
<time>2026-07-13T12:18:01.000Z</time>
</trkpt>
<trkpt lat="56.505970" lon="8.119135">
<ele>19.947602</ele>
<time>2026-07-13T12:18:02.000Z</time>
</trkpt>
<trkpt lat="56.506016" lon="8.119129">
<ele>20.012882</ele>
<time>2026-07-13T12:18:03.000Z</time>
</trkpt>
<trkpt lat="56.506062" lon="8.119123">
<ele>20.078163</ele>
<time>2026-07-13T12:18:04.000Z</time>
</trkpt>
<trkpt lat="56.506107" lon="8.119118">
<ele>20.141979</ele>
<time>2026-07-13T12:18:05.000Z</time>
</trkpt>
<trkpt lat="56.506153" lon="8.119112">
<ele>20.207259</ele>
<time>2026-07-13T12:18:06.000Z</time>
</trkpt>
<trkpt lat="56.506195" lon="8.119104">
<ele>20.267037</ele>
<time>2026-07-13T12:18:07.000Z</time>
</trkpt>
<trkpt lat="56.506241" lon="8.119095">
<ele>20.332527</ele>
<time>2026-07-13T12:18:08.000Z</time>
</trkpt>
<trkpt lat="56.506275" lon="8.119089">
<ele>20.380881</ele>
<time>2026-07-13T12:18:09.000Z</time>
</trkpt>
<trkpt lat="56.506325" lon="8.119083">
<ele>20.451810</ele>
<time>2026-07-13T12:18:10.000Z</time>
</trkpt>
<trkpt lat="56.506367" lon="8.119080">
<ele>20.511306</ele>
<time>2026-07-13T12:18:11.000Z</time>
</trkpt>
<trkpt lat="56.506412" lon="8.119076">
<ele>20.575079</ele>
<time>2026-07-13T12:18:12.000Z</time>
</trkpt>
<trkpt lat="56.506454" lon="8.119070">
<ele>20.634713</ele>
<time>2026-07-13T12:18:13.000Z</time>
</trkpt>
<trkpt lat="56.506500" lon="8.119064">
<ele>20.699994</ele>
<time>2026-07-13T12:18:14.000Z</time>
</trkpt>
<trkpt lat="56.506542" lon="8.119059">
<ele>20.767645</ele>
<time>2026-07-13T12:18:15.000Z</time>
</trkpt>
<trkpt lat="56.506588" lon="8.119052">
<ele>20.843022</ele>
<time>2026-07-13T12:18:16.000Z</time>
</trkpt>
<trkpt lat="56.506634" lon="8.119045">
<ele>20.918400</ele>
<time>2026-07-13T12:18:17.000Z</time>
</trkpt>
<trkpt lat="56.506676" lon="8.119039">
<ele>20.987194</ele>
<time>2026-07-13T12:18:18.000Z</time>
</trkpt>
<trkpt lat="56.506714" lon="8.119032">
<ele>21.049564</ele>
<time>2026-07-13T12:18:19.000Z</time>
</trkpt>
<trkpt lat="56.506760" lon="8.119026">
<ele>21.124872</ele>
<time>2026-07-13T12:18:20.000Z</time>
</trkpt>
<trkpt lat="56.506802" lon="8.119019">
<ele>21.193743</ele>
<time>2026-07-13T12:18:21.000Z</time>
</trkpt>
<trkpt lat="56.506844" lon="8.119010">
<ele>21.262803</ele>
<time>2026-07-13T12:18:22.000Z</time>
</trkpt>
<trkpt lat="56.506882" lon="8.119003">
<ele>21.325173</ele>
<time>2026-07-13T12:18:23.000Z</time>
</trkpt>
<trkpt lat="56.506924" lon="8.119001">
<ele>21.393778</ele>
<time>2026-07-13T12:18:24.000Z</time>
</trkpt>
<trkpt lat="56.506966" lon="8.119000">
<ele>21.462366</ele>
<time>2026-07-13T12:18:25.000Z</time>
</trkpt>
<trkpt lat="56.507011" lon="8.118996">
<ele>21.535935</ele>
<time>2026-07-13T12:18:26.000Z</time>
</trkpt>
<trkpt lat="56.507053" lon="8.118987">
<ele>21.604994</ele>
<time>2026-07-13T12:18:27.000Z</time>
</trkpt>
<trkpt lat="56.507095" lon="8.118978">
<ele>21.674054</ele>
<time>2026-07-13T12:18:28.000Z</time>
</trkpt>
<trkpt lat="56.507137" lon="8.118970">
<ele>21.743013</ele>
<time>2026-07-13T12:18:29.000Z</time>
</trkpt>
<trkpt lat="56.507179" lon="8.118962">
<ele>21.811973</ele>
<time>2026-07-13T12:18:30.000Z</time>
</trkpt>
<trkpt lat="56.507221" lon="8.118955">
<ele>21.880844</ele>
<time>2026-07-13T12:18:31.000Z</time>
</trkpt>
<trkpt lat="56.507267" lon="8.118947">
<ele>21.956303</ele>
<time>2026-07-13T12:18:32.000Z</time>
</trkpt>
<trkpt lat="56.507305" lon="8.118939">
<ele>22.018770</ele>
<time>2026-07-13T12:18:33.000Z</time>
</trkpt>
<trkpt lat="56.507347" lon="8.118933">
<ele>22.087565</ele>
<time>2026-07-13T12:18:34.000Z</time>
</trkpt>
<trkpt lat="56.507385" lon="8.118923">
<ele>22.150266</ele>
<time>2026-07-13T12:18:35.000Z</time>
</trkpt>
<trkpt lat="56.507427" lon="8.118911">
<ele>22.219694</ele>
<time>2026-07-13T12:18:36.000Z</time>
</trkpt>
<trkpt lat="56.507462" lon="8.118900">
<ele>22.277699</ele>
<time>2026-07-13T12:18:37.000Z</time>
</trkpt>
<trkpt lat="56.507504" lon="8.118890">
<ele>22.346870</ele>
<time>2026-07-13T12:18:38.000Z</time>
</trkpt>
<trkpt lat="56.507545" lon="8.118879">
<ele>22.414549</ele>
<time>2026-07-13T12:18:39.000Z</time>
</trkpt>
<trkpt lat="56.507587" lon="8.118867">
<ele>22.483978</ele>
<time>2026-07-13T12:18:40.000Z</time>
</trkpt>
<trkpt lat="56.507626" lon="8.118854">
<ele>22.548729</ele>
<time>2026-07-13T12:18:41.000Z</time>
</trkpt>
<trkpt lat="56.507668" lon="8.118841">
<ele>22.618304</ele>
<time>2026-07-13T12:18:42.000Z</time>
</trkpt>
<trkpt lat="56.507709" lon="8.118830">
<ele>22.685983</ele>
<time>2026-07-13T12:18:43.000Z</time>
</trkpt>
<trkpt lat="56.507751" lon="8.118817">
<ele>22.755558</ele>
<time>2026-07-13T12:18:44.000Z</time>
</trkpt>
<trkpt lat="56.507793" lon="8.118804">
<ele>22.825133</ele>
<time>2026-07-13T12:18:45.000Z</time>
</trkpt>
<trkpt lat="56.507835" lon="8.118791">
<ele>22.894708</ele>
<time>2026-07-13T12:18:46.000Z</time>
</trkpt>
<trkpt lat="56.507881" lon="8.118777">
<ele>22.970873</ele>
<time>2026-07-13T12:18:47.000Z</time>
</trkpt>
<trkpt lat="56.507927" lon="8.118764">
<ele>23.046894</ele>
<time>2026-07-13T12:18:48.000Z</time>
</trkpt>
<trkpt lat="56.507969" lon="8.118749">
<ele>23.116795</ele>
<time>2026-07-13T12:18:49.000Z</time>
</trkpt>
<trkpt lat="56.508015" lon="8.118733">
<ele>23.193279</ele>
<time>2026-07-13T12:18:50.000Z</time>
</trkpt>
<trkpt lat="56.508060" lon="8.118718">
<ele>23.267993</ele>
<time>2026-07-13T12:18:51.000Z</time>
</trkpt>
<trkpt lat="56.508102" lon="8.118703">
<ele>23.337893</ele>
<time>2026-07-13T12:18:52.000Z</time>
</trkpt>
<trkpt lat="56.508148" lon="8.118688">
<ele>23.414213</ele>
<time>2026-07-13T12:18:53.000Z</time>
</trkpt>
<trkpt lat="56.508194" lon="8.118672">
<ele>23.490698</ele>
<time>2026-07-13T12:18:54.000Z</time>
</trkpt>
<trkpt lat="56.508240" lon="8.118658">
<ele>23.566863</ele>
<time>2026-07-13T12:18:55.000Z</time>
</trkpt>
<trkpt lat="56.508282" lon="8.118645">
<ele>23.636438</ele>
<time>2026-07-13T12:18:56.000Z</time>
</trkpt>
<trkpt lat="56.508327" lon="8.118632">
<ele>23.673941</ele>
<time>2026-07-13T12:18:57.000Z</time>
</trkpt>
<trkpt lat="56.508373" lon="8.118617">
<ele>23.708114</ele>
<time>2026-07-13T12:18:58.000Z</time>
</trkpt>
<trkpt lat="56.508415" lon="8.118604">
<ele>23.739266</ele>
<time>2026-07-13T12:18:59.000Z</time>
</trkpt>
<trkpt lat="56.508465" lon="8.118588">
<ele>23.776389</ele>
<time>2026-07-13T12:19:00.000Z</time>
</trkpt>
<trkpt lat="56.508503" lon="8.118576">
<ele>23.804591</ele>
<time>2026-07-13T12:19:01.000Z</time>
</trkpt>
<trkpt lat="56.508553" lon="8.118562">
<ele>23.841582</ele>
<time>2026-07-13T12:19:02.000Z</time>
</trkpt>
<trkpt lat="56.508595" lon="8.118547">
<ele>23.872881</ele>
<time>2026-07-13T12:19:03.000Z</time>
</trkpt>
<trkpt lat="56.508640" lon="8.118534">
<ele>23.906198</ele>
<time>2026-07-13T12:19:04.000Z</time>
</trkpt>
<trkpt lat="56.508682" lon="8.118523">
<ele>23.937225</ele>
<time>2026-07-13T12:19:05.000Z</time>
</trkpt>
<trkpt lat="56.508728" lon="8.118511">
<ele>23.971204</ele>
<time>2026-07-13T12:19:06.000Z</time>
</trkpt>
<trkpt lat="56.508770" lon="8.118501">
<ele>24.002176</ele>
<time>2026-07-13T12:19:07.000Z</time>
</trkpt>
<trkpt lat="56.508820" lon="8.118487">
<ele>24.039167</ele>
<time>2026-07-13T12:19:08.000Z</time>
</trkpt>
<trkpt lat="56.508862" lon="8.118473">
<ele>24.070390</ele>
<time>2026-07-13T12:19:09.000Z</time>
</trkpt>
<trkpt lat="56.508907" lon="8.118460">
<ele>24.103707</ele>
<time>2026-07-13T12:19:10.000Z</time>
</trkpt>
<trkpt lat="56.508957" lon="8.118449">
<ele>24.140533</ele>
<time>2026-07-13T12:19:11.000Z</time>
</trkpt>
<trkpt lat="56.508999" lon="8.118439">
<ele>24.171505</ele>
<time>2026-07-13T12:19:12.000Z</time>
</trkpt>
<trkpt lat="56.509045" lon="8.118425">
<ele>24.205608</ele>
<time>2026-07-13T12:19:13.000Z</time>
</trkpt>
<trkpt lat="56.509090" lon="8.118412">
<ele>24.238925</ele>
<time>2026-07-13T12:19:14.000Z</time>
</trkpt>
<trkpt lat="56.509136" lon="8.118399">
<ele>24.272964</ele>
<time>2026-07-13T12:19:15.000Z</time>
</trkpt>
<trkpt lat="56.509182" lon="8.118386">
<ele>24.307003</ele>
<time>2026-07-13T12:19:16.000Z</time>
</trkpt>
<trkpt lat="56.509228" lon="8.118375">
<ele>24.340927</ele>
<time>2026-07-13T12:19:17.000Z</time>
</trkpt>
<trkpt lat="56.509274" lon="8.118367">
<ele>24.374714</ele>
<time>2026-07-13T12:19:18.000Z</time>
</trkpt>
<trkpt lat="56.509319" lon="8.118367">
<ele>24.407616</ele>
<time>2026-07-13T12:19:19.000Z</time>
</trkpt>
<trkpt lat="56.509369" lon="8.118373">
<ele>24.444253</ele>
<time>2026-07-13T12:19:20.000Z</time>
</trkpt>
<trkpt lat="56.509415" lon="8.118384">
<ele>24.478177</ele>
<time>2026-07-13T12:19:21.000Z</time>
</trkpt>
<trkpt lat="56.509460" lon="8.118402">
<ele>24.511871</ele>
<time>2026-07-13T12:19:22.000Z</time>
</trkpt>
<trkpt lat="56.509506" lon="8.118426">
<ele>24.546869</ele>
<time>2026-07-13T12:19:23.000Z</time>
</trkpt>
<trkpt lat="56.509548" lon="8.118448">
<ele>24.578834</ele>
<time>2026-07-13T12:19:24.000Z</time>
</trkpt>
<trkpt lat="56.509594" lon="8.118473">
<ele>24.613947</ele>
<time>2026-07-13T12:19:25.000Z</time>
</trkpt>
<trkpt lat="56.509640" lon="8.118498">
<ele>24.649059</ele>
<time>2026-07-13T12:19:26.000Z</time>
</trkpt>
<trkpt lat="56.509678" lon="8.118515">
<ele>24.677677</ele>
<time>2026-07-13T12:19:27.000Z</time>
</trkpt>
<trkpt lat="56.509724" lon="8.118530">
<ele>24.711849</ele>
<time>2026-07-13T12:19:28.000Z</time>
</trkpt>
<trkpt lat="56.509781" lon="8.118530">
<ele>24.753524</ele>
<time>2026-07-13T12:19:29.000Z</time>
</trkpt>
<trkpt lat="56.509823" lon="8.118510">
<ele>24.785275</ele>
<time>2026-07-13T12:19:30.000Z</time>
</trkpt>
<trkpt lat="56.509865" lon="8.118482">
<ele>24.817995</ele>
<time>2026-07-13T12:19:31.000Z</time>
</trkpt>
<trkpt lat="56.509907" lon="8.118450">
<ele>24.851306</ele>
<time>2026-07-13T12:19:32.000Z</time>
</trkpt>
<trkpt lat="56.509953" lon="8.118421">
<ele>24.886916</ele>
<time>2026-07-13T12:19:33.000Z</time>
</trkpt>
<trkpt lat="56.509998" lon="8.118393">
<ele>24.921702</ele>
<time>2026-07-13T12:19:34.000Z</time>
</trkpt>
<trkpt lat="56.510044" lon="8.118361">
<ele>24.957728</ele>
<time>2026-07-13T12:19:35.000Z</time>
</trkpt>
<trkpt lat="56.510086" lon="8.118329">
<ele>25.005449</ele>
<time>2026-07-13T12:19:36.000Z</time>
</trkpt>
<trkpt lat="56.510128" lon="8.118300">
<ele>25.053130</ele>
<time>2026-07-13T12:19:37.000Z</time>
</trkpt>
<trkpt lat="56.510162" lon="8.118276">
<ele>25.091838</ele>
<time>2026-07-13T12:19:38.000Z</time>
</trkpt>
<trkpt lat="56.510201" lon="8.118252">
<ele>25.135532</ele>
<time>2026-07-13T12:19:39.000Z</time>
</trkpt>
<trkpt lat="56.510239" lon="8.118230">
<ele>25.177852</ele>
<time>2026-07-13T12:19:40.000Z</time>
</trkpt>
<trkpt lat="56.510273" lon="8.118214">
<ele>25.215117</ele>
<time>2026-07-13T12:19:41.000Z</time>
</trkpt>
<trkpt lat="56.510304" lon="8.118203">
<ele>25.248628</ele>
<time>2026-07-13T12:19:42.000Z</time>
</trkpt>
<trkpt lat="56.510345" lon="8.118196">
<ele>25.292316</ele>
<time>2026-07-13T12:19:43.000Z</time>
</trkpt>
<trkpt lat="56.510384" lon="8.118189">
<ele>25.333892</ele>
<time>2026-07-13T12:19:44.000Z</time>
</trkpt>
<trkpt lat="56.510422" lon="8.118183">
<ele>25.374357</ele>
<time>2026-07-13T12:19:45.000Z</time>
</trkpt>
<trkpt lat="56.510464" lon="8.118179">
<ele>25.418975</ele>
<time>2026-07-13T12:19:46.000Z</time>
</trkpt>
<trkpt lat="56.510506" lon="8.118175">
<ele>25.463592</ele>
<time>2026-07-13T12:19:47.000Z</time>
</trkpt>
<trkpt lat="56.510544" lon="8.118171">
<ele>25.503973</ele>
<time>2026-07-13T12:19:48.000Z</time>
</trkpt>
<trkpt lat="56.510586" lon="8.118166">
<ele>25.548625</ele>
<time>2026-07-13T12:19:49.000Z</time>
</trkpt>
<trkpt lat="56.510624" lon="8.118161">
<ele>25.589044</ele>
<time>2026-07-13T12:19:50.000Z</time>
</trkpt>
<trkpt lat="56.510666" lon="8.118155">
<ele>25.633738</ele>
<time>2026-07-13T12:19:51.000Z</time>
</trkpt>
<trkpt lat="56.510704" lon="8.118151">
<ele>25.674119</ele>
<time>2026-07-13T12:19:52.000Z</time>
</trkpt>
<trkpt lat="56.510746" lon="8.118147">
<ele>25.718736</ele>
<time>2026-07-13T12:19:53.000Z</time>
</trkpt>
<trkpt lat="56.510792" lon="8.118142">
<ele>25.767623</ele>
<time>2026-07-13T12:19:54.000Z</time>
</trkpt>
<trkpt lat="56.510834" lon="8.118137">
<ele>25.812275</ele>
<time>2026-07-13T12:19:55.000Z</time>
</trkpt>
<trkpt lat="56.510872" lon="8.118135">
<ele>25.852605</ele>
<time>2026-07-13T12:19:56.000Z</time>
</trkpt>
<trkpt lat="56.510899" lon="8.118135">
<ele>25.881248</ele>
<time>2026-07-13T12:19:57.000Z</time>
</trkpt>
<trkpt lat="56.510918" lon="8.118136">
<ele>25.901413</ele>
<time>2026-07-13T12:19:58.000Z</time>
</trkpt>
<trkpt lat="56.510929" lon="8.118136">
<ele>25.913083</ele>
<time>2026-07-13T12:21:24.000Z</time>
</trkpt>
<trkpt lat="56.510948" lon="8.118131">
<ele>25.933450</ele>
<time>2026-07-13T12:21:25.000Z</time>
</trkpt>
<trkpt lat="56.510967" lon="8.118124">
<ele>25.954019</ele>
<time>2026-07-13T12:21:26.000Z</time>
</trkpt>
<trkpt lat="56.510994" lon="8.118122">
<ele>25.982686</ele>
<time>2026-07-13T12:21:27.000Z</time>
</trkpt>
<trkpt lat="56.511028" lon="8.118123">
<ele>26.018760</ele>
<time>2026-07-13T12:21:28.000Z</time>
</trkpt>
<trkpt lat="56.511063" lon="8.118121">
<ele>26.055908</ele>
<time>2026-07-13T12:21:29.000Z</time>
</trkpt>
<trkpt lat="56.511097" lon="8.118116">
<ele>26.092096</ele>
<time>2026-07-13T12:21:30.000Z</time>
</trkpt>
<trkpt lat="56.511131" lon="8.118110">
<ele>26.128336</ele>
<time>2026-07-13T12:21:31.000Z</time>
</trkpt>
<trkpt lat="56.511169" lon="8.118104">
<ele>26.168801</ele>
<time>2026-07-13T12:21:32.000Z</time>
</trkpt>
<trkpt lat="56.511208" lon="8.118104">
<ele>26.210175</ele>
<time>2026-07-13T12:21:33.000Z</time>
</trkpt>
<trkpt lat="56.511250" lon="8.118108">
<ele>26.254792</ele>
<time>2026-07-13T12:21:34.000Z</time>
</trkpt>
<trkpt lat="56.511288" lon="8.118109">
<ele>26.295109</ele>
<time>2026-07-13T12:21:35.000Z</time>
</trkpt>
<trkpt lat="56.511330" lon="8.118106">
<ele>26.339700</ele>
<time>2026-07-13T12:21:36.000Z</time>
</trkpt>
<trkpt lat="56.511372" lon="8.118098">
<ele>26.384501</ele>
<time>2026-07-13T12:21:37.000Z</time>
</trkpt>
<trkpt lat="56.511414" lon="8.118091">
<ele>26.429245</ele>
<time>2026-07-13T12:21:38.000Z</time>
</trkpt>
<trkpt lat="56.511456" lon="8.118086">
<ele>26.473898</ele>
<time>2026-07-13T12:21:39.000Z</time>
</trkpt>
<trkpt lat="56.511498" lon="8.118084">
<ele>26.518469</ele>
<time>2026-07-13T12:21:40.000Z</time>
</trkpt>
<trkpt lat="56.511539" lon="8.118080">
<ele>26.562027</ele>
<time>2026-07-13T12:21:41.000Z</time>
</trkpt>
<trkpt lat="56.511581" lon="8.118073">
<ele>26.606771</ele>
<time>2026-07-13T12:21:42.000Z</time>
</trkpt>
<trkpt lat="56.511616" lon="8.118070">
<ele>26.643943</ele>
<time>2026-07-13T12:21:43.000Z</time>
</trkpt>
<trkpt lat="56.511658" lon="8.118068">
<ele>26.688514</ele>
<time>2026-07-13T12:21:44.000Z</time>
</trkpt>
<trkpt lat="56.511700" lon="8.118065">
<ele>26.733105</ele>
<time>2026-07-13T12:21:45.000Z</time>
</trkpt>
<trkpt lat="56.511745" lon="8.118068">
<ele>26.780876</ele>
<time>2026-07-13T12:21:46.000Z</time>
</trkpt>
<trkpt lat="56.511787" lon="8.118071">
<ele>26.825467</ele>
<time>2026-07-13T12:21:47.000Z</time>
</trkpt>
<trkpt lat="56.511833" lon="8.118076">
<ele>26.866428</ele>
<time>2026-07-13T12:21:48.000Z</time>
</trkpt>
<trkpt lat="56.511875" lon="8.118083">
<ele>26.861660</ele>
<time>2026-07-13T12:21:49.000Z</time>
</trkpt>
<trkpt lat="56.511921" lon="8.118089">
<ele>26.856446</ele>
<time>2026-07-13T12:21:50.000Z</time>
</trkpt>
<trkpt lat="56.511967" lon="8.118093">
<ele>26.851239</ele>
<time>2026-07-13T12:21:51.000Z</time>
</trkpt>
<trkpt lat="56.512013" lon="8.118097">
<ele>26.846033</ele>
<time>2026-07-13T12:21:52.000Z</time>
</trkpt>
<trkpt lat="56.512054" lon="8.118102">
<ele>26.841387</ele>
<time>2026-07-13T12:21:53.000Z</time>
</trkpt>
<trkpt lat="56.512096" lon="8.118107">
<ele>26.836629</ele>
<time>2026-07-13T12:21:54.000Z</time>
</trkpt>
<trkpt lat="56.512138" lon="8.118113">
<ele>26.831866</ele>
<time>2026-07-13T12:21:55.000Z</time>
</trkpt>
<trkpt lat="56.512180" lon="8.118114">
<ele>26.827117</ele>
<time>2026-07-13T12:21:56.000Z</time>
</trkpt>
<trkpt lat="56.512226" lon="8.118111">
<ele>26.821913</ele>
<time>2026-07-13T12:21:57.000Z</time>
</trkpt>
<trkpt lat="56.512268" lon="8.118111">
<ele>26.817165</ele>
<time>2026-07-13T12:21:58.000Z</time>
</trkpt>
<trkpt lat="56.512310" lon="8.118120">
<ele>26.812383</ele>
<time>2026-07-13T12:21:59.000Z</time>
</trkpt>
<trkpt lat="56.512344" lon="8.118138">
<ele>26.808379</ele>
<time>2026-07-13T12:22:00.000Z</time>
</trkpt>
<trkpt lat="56.512386" lon="8.118168">
<ele>26.803275</ele>
<time>2026-07-13T12:22:01.000Z</time>
</trkpt>
<trkpt lat="56.512413" lon="8.118196">
<ele>26.799758</ele>
<time>2026-07-13T12:22:02.000Z</time>
</trkpt>
<trkpt lat="56.512447" lon="8.118233">
<ele>26.795275</ele>
<time>2026-07-13T12:22:03.000Z</time>
</trkpt>
<trkpt lat="56.512482" lon="8.118266">
<ele>26.790814</ele>
<time>2026-07-13T12:22:04.000Z</time>
</trkpt>
<trkpt lat="56.512508" lon="8.118291">
<ele>26.787487</ele>
<time>2026-07-13T12:22:05.000Z</time>
</trkpt>
<trkpt lat="56.512539" lon="8.118309">
<ele>26.783807</ele>
<time>2026-07-13T12:22:06.000Z</time>
</trkpt>
<trkpt lat="56.512566" lon="8.118319">
<ele>26.780691</ele>
<time>2026-07-13T12:22:07.000Z</time>
</trkpt>
<trkpt lat="56.512592" lon="8.118319">
<ele>26.777752</ele>
<time>2026-07-13T12:22:08.000Z</time>
</trkpt>
<trkpt lat="56.512611" lon="8.118315">
<ele>26.775589</ele>
<time>2026-07-13T12:22:09.000Z</time>
</trkpt>
<trkpt lat="56.512630" lon="8.118314">
<ele>26.773440</ele>
<time>2026-07-13T12:22:10.000Z</time>
</trkpt>
<trkpt lat="56.512650" lon="8.118314">
<ele>26.771179</ele>
<time>2026-07-13T12:22:11.000Z</time>
</trkpt>
<trkpt lat="56.512665" lon="8.118309">
<ele>26.769455</ele>
<time>2026-07-13T12:22:12.000Z</time>
</trkpt>
<trkpt lat="56.512684" lon="8.118300">
<ele>26.767235</ele>
<time>2026-07-13T12:22:13.000Z</time>
</trkpt>
<trkpt lat="56.512707" lon="8.118284">
<ele>26.764450</ele>
<time>2026-07-13T12:22:14.000Z</time>
</trkpt>
<trkpt lat="56.512730" lon="8.118267">
<ele>26.761641</ele>
<time>2026-07-13T12:22:15.000Z</time>
</trkpt>
<trkpt lat="56.512753" lon="8.118248">
<ele>26.758784</ele>
<time>2026-07-13T12:22:16.000Z</time>
</trkpt>
<trkpt lat="56.512768" lon="8.118226">
<ele>26.756602</ele>
<time>2026-07-13T12:22:17.000Z</time>
</trkpt>
<trkpt lat="56.512787" lon="8.118209">
<ele>26.754207</ele>
<time>2026-07-13T12:22:18.000Z</time>
</trkpt>
<trkpt lat="56.512810" lon="8.118202">
<ele>26.751570</ele>
<time>2026-07-13T12:22:19.000Z</time>
</trkpt>
<trkpt lat="56.512833" lon="8.118204">
<ele>26.748967</ele>
<time>2026-07-13T12:22:20.000Z</time>
</trkpt>
<trkpt lat="56.512863" lon="8.118206">
<ele>26.745573</ele>
<time>2026-07-13T12:22:21.000Z</time>
</trkpt>
<trkpt lat="56.512890" lon="8.118207">
<ele>26.742520</ele>
<time>2026-07-13T12:22:22.000Z</time>
</trkpt>
<trkpt lat="56.512920" lon="8.118206">
<ele>26.739128</ele>
<time>2026-07-13T12:22:23.000Z</time>
</trkpt>
<trkpt lat="56.512951" lon="8.118205">
<ele>26.735622</ele>
<time>2026-07-13T12:22:24.000Z</time>
</trkpt>
<trkpt lat="56.512981" lon="8.118206">
<ele>26.732230</ele>
<time>2026-07-13T12:22:25.000Z</time>
</trkpt>
<trkpt lat="56.513016" lon="8.118206">
<ele>26.728273</ele>
<time>2026-07-13T12:22:26.000Z</time>
</trkpt>
<trkpt lat="56.513046" lon="8.118203">
<ele>26.724876</ele>
<time>2026-07-13T12:22:27.000Z</time>
</trkpt>
<trkpt lat="56.513081" lon="8.118201">
<ele>26.720917</ele>
<time>2026-07-13T12:22:28.000Z</time>
</trkpt>
<trkpt lat="56.513115" lon="8.118198">
<ele>26.717069</ele>
<time>2026-07-13T12:22:29.000Z</time>
</trkpt>
<trkpt lat="56.513149" lon="8.118197">
<ele>26.713225</ele>
<time>2026-07-13T12:22:30.000Z</time>
</trkpt>
<trkpt lat="56.513187" lon="8.118198">
<ele>26.708928</ele>
<time>2026-07-13T12:22:31.000Z</time>
</trkpt>
<trkpt lat="56.513222" lon="8.118200">
<ele>26.704969</ele>
<time>2026-07-13T12:22:32.000Z</time>
</trkpt>
<trkpt lat="56.513256" lon="8.118200">
<ele>26.701125</ele>
<time>2026-07-13T12:22:33.000Z</time>
</trkpt>
<trkpt lat="56.513290" lon="8.118200">
<ele>26.697282</ele>
<time>2026-07-13T12:22:34.000Z</time>
</trkpt>
<trkpt lat="56.513325" lon="8.118201">
<ele>26.693324</ele>
<time>2026-07-13T12:22:35.000Z</time>
</trkpt>
<trkpt lat="56.513359" lon="8.118200">
<ele>26.689480</ele>
<time>2026-07-13T12:22:36.000Z</time>
</trkpt>
<trkpt lat="56.513393" lon="8.118197">
<ele>26.685631</ele>
<time>2026-07-13T12:22:37.000Z</time>
</trkpt>
<trkpt lat="56.513428" lon="8.118193">
<ele>26.681667</ele>
<time>2026-07-13T12:22:38.000Z</time>
</trkpt>
<trkpt lat="56.513462" lon="8.118187">
<ele>26.677805</ele>
<time>2026-07-13T12:22:39.000Z</time>
</trkpt>
<trkpt lat="56.513496" lon="8.118180">
<ele>26.673936</ele>
<time>2026-07-13T12:22:40.000Z</time>
</trkpt>
<trkpt lat="56.513531" lon="8.118174">
<ele>26.669961</ele>
<time>2026-07-13T12:22:41.000Z</time>
</trkpt>
<trkpt lat="56.513565" lon="8.118169">
<ele>26.666105</ele>
<time>2026-07-13T12:22:42.000Z</time>
</trkpt>
<trkpt lat="56.513599" lon="8.118166">
<ele>26.640216</ele>
<time>2026-07-13T12:22:43.000Z</time>
</trkpt>
<trkpt lat="56.513634" lon="8.118167">
<ele>26.581399</ele>
<time>2026-07-13T12:22:44.000Z</time>
</trkpt>
<trkpt lat="56.513664" lon="8.118173">
<ele>26.530684</ele>
<time>2026-07-13T12:22:45.000Z</time>
</trkpt>
<trkpt lat="56.513691" lon="8.118179">
<ele>26.484976</ele>
<time>2026-07-13T12:22:46.000Z</time>
</trkpt>
<trkpt lat="56.513721" lon="8.118184">
<ele>26.434355</ele>
<time>2026-07-13T12:22:47.000Z</time>
</trkpt>
<trkpt lat="56.513748" lon="8.118182">
<ele>26.388949</ele>
<time>2026-07-13T12:22:48.000Z</time>
</trkpt>
<trkpt lat="56.513771" lon="8.118172">
<ele>26.349206</ele>
<time>2026-07-13T12:22:49.000Z</time>
</trkpt>
<trkpt lat="56.513794" lon="8.118151">
<ele>26.305932</ele>
<time>2026-07-13T12:22:50.000Z</time>
</trkpt>
<trkpt lat="56.513817" lon="8.118126">
<ele>26.260869</ele>
<time>2026-07-13T12:22:51.000Z</time>
</trkpt>
<trkpt lat="56.513840" lon="8.118107">
<ele>26.218397</ele>
<time>2026-07-13T12:22:52.000Z</time>
</trkpt>
<trkpt lat="56.513855" lon="8.118094">
<ele>26.190459</ele>
<time>2026-07-13T12:22:53.000Z</time>
</trkpt>
<trkpt lat="56.513878" lon="8.118092">
<ele>26.151768</ele>
<time>2026-07-13T12:22:54.000Z</time>
</trkpt>
<trkpt lat="56.513905" lon="8.118098">
<ele>26.106061</ele>
<time>2026-07-13T12:22:55.000Z</time>
</trkpt>
<trkpt lat="56.513935" lon="8.118107">
<ele>26.054966</ele>
<time>2026-07-13T12:22:56.000Z</time>
</trkpt>
<trkpt lat="56.513969" lon="8.118111">
<ele>25.997716</ele>
<time>2026-07-13T12:22:57.000Z</time>
</trkpt>
<trkpt lat="56.514008" lon="8.118112">
<ele>25.932178</ele>
<time>2026-07-13T12:22:58.000Z</time>
</trkpt>
<trkpt lat="56.514038" lon="8.118112">
<ele>25.881769</ele>
<time>2026-07-13T12:22:59.000Z</time>
</trkpt>
<trkpt lat="56.514065" lon="8.118111">
<ele>25.836392</ele>
<time>2026-07-13T12:23:00.000Z</time>
</trkpt>
<trkpt lat="56.514107" lon="8.118109">
<ele>25.765795</ele>
<time>2026-07-13T12:23:01.000Z</time>
</trkpt>
<trkpt lat="56.514152" lon="8.118113">
<ele>25.690091</ele>
<time>2026-07-13T12:23:02.000Z</time>
</trkpt>
<trkpt lat="56.514191" lon="8.118117">
<ele>25.624455</ele>
<time>2026-07-13T12:23:03.000Z</time>
</trkpt>
<trkpt lat="56.514229" lon="8.118121">
<ele>25.560496</ele>
<time>2026-07-13T12:23:04.000Z</time>
</trkpt>
<trkpt lat="56.514267" lon="8.118123">
<ele>25.496618</ele>
<time>2026-07-13T12:23:05.000Z</time>
</trkpt>
<trkpt lat="56.514305" lon="8.118121">
<ele>25.432740</ele>
<time>2026-07-13T12:23:06.000Z</time>
</trkpt>
<trkpt lat="56.514343" lon="8.118117">
<ele>25.368781</ele>
<time>2026-07-13T12:23:07.000Z</time>
</trkpt>
<trkpt lat="56.514381" lon="8.118113">
<ele>25.304823</ele>
<time>2026-07-13T12:23:08.000Z</time>
</trkpt>
<trkpt lat="56.514420" lon="8.118112">
<ele>25.239285</ele>
<time>2026-07-13T12:23:09.000Z</time>
</trkpt>
<trkpt lat="56.514462" lon="8.118112">
<ele>25.168713</ele>
<time>2026-07-13T12:23:10.000Z</time>
</trkpt>
<trkpt lat="56.514503" lon="8.118113">
<ele>25.099814</ele>
<time>2026-07-13T12:23:11.000Z</time>
</trkpt>
<trkpt lat="56.514542" lon="8.118111">
<ele>25.034257</ele>
<time>2026-07-13T12:23:12.000Z</time>
</trkpt>
<trkpt lat="56.514584" lon="8.118109">
<ele>24.963660</ele>
<time>2026-07-13T12:23:13.000Z</time>
</trkpt>
<trkpt lat="56.514622" lon="8.118110">
<ele>24.899802</ele>
<time>2026-07-13T12:23:14.000Z</time>
</trkpt>
<trkpt lat="56.514656" lon="8.118112">
<ele>24.842642</ele>
<time>2026-07-13T12:23:15.000Z</time>
</trkpt>
<trkpt lat="56.514687" lon="8.118114">
<ele>24.790520</ele>
<time>2026-07-13T12:23:16.000Z</time>
</trkpt>
<trkpt lat="56.514721" lon="8.118116">
<ele>24.733360</ele>
<time>2026-07-13T12:23:17.000Z</time>
</trkpt>
<trkpt lat="56.514755" lon="8.118114">
<ele>24.676200</ele>
<time>2026-07-13T12:23:18.000Z</time>
</trkpt>
<trkpt lat="56.514790" lon="8.118110">
<ele>24.617273</ele>
<time>2026-07-13T12:23:19.000Z</time>
</trkpt>
<trkpt lat="56.514824" lon="8.118106">
<ele>24.560023</ele>
<time>2026-07-13T12:23:20.000Z</time>
</trkpt>
<trkpt lat="56.514862" lon="8.118101">
<ele>24.496004</ele>
<time>2026-07-13T12:23:21.000Z</time>
</trkpt>
<trkpt lat="56.514900" lon="8.118095">
<ele>24.431911</ele>
<time>2026-07-13T12:23:22.000Z</time>
</trkpt>
<trkpt lat="56.514935" lon="8.118090">
<ele>24.372918</ele>
<time>2026-07-13T12:23:23.000Z</time>
</trkpt>
<trkpt lat="56.514977" lon="8.118088">
<ele>24.302322</ele>
<time>2026-07-13T12:23:24.000Z</time>
</trkpt>
<trkpt lat="56.515015" lon="8.118089">
<ele>24.238464</ele>
<time>2026-07-13T12:23:25.000Z</time>
</trkpt>
<trkpt lat="56.515057" lon="8.118096">
<ele>24.167594</ele>
<time>2026-07-13T12:23:26.000Z</time>
</trkpt>
<trkpt lat="56.515095" lon="8.118102">
<ele>24.103501</ele>
<time>2026-07-13T12:23:27.000Z</time>
</trkpt>
<trkpt lat="56.515129" lon="8.118103">
<ele>24.046364</ele>
<time>2026-07-13T12:23:28.000Z</time>
</trkpt>
<trkpt lat="56.515167" lon="8.118105">
<ele>23.982486</ele>
<time>2026-07-13T12:23:29.000Z</time>
</trkpt>
<trkpt lat="56.515205" lon="8.118105">
<ele>23.918634</ele>
<time>2026-07-13T12:23:30.000Z</time>
</trkpt>
<trkpt lat="56.515244" lon="8.118106">
<ele>23.853096</ele>
<time>2026-07-13T12:23:31.000Z</time>
</trkpt>
<trkpt lat="56.515285" lon="8.118109">
<ele>23.784148</ele>
<time>2026-07-13T12:23:32.000Z</time>
</trkpt>
<trkpt lat="56.515324" lon="8.118112">
<ele>23.718558</ele>
<time>2026-07-13T12:23:33.000Z</time>
</trkpt>
<trkpt lat="56.515362" lon="8.118113">
<ele>23.654700</ele>
<time>2026-07-13T12:23:34.000Z</time>
</trkpt>
<trkpt lat="56.515408" lon="8.118113">
<ele>23.542198</ele>
<time>2026-07-13T12:23:35.000Z</time>
</trkpt>
<trkpt lat="56.515453" lon="8.118113">
<ele>23.425112</ele>
<time>2026-07-13T12:23:36.000Z</time>
</trkpt>
<trkpt lat="56.515499" lon="8.118115">
<ele>23.305390</ele>
<time>2026-07-13T12:23:37.000Z</time>
</trkpt>
<trkpt lat="56.515545" lon="8.118119">
<ele>23.185565</ele>
<time>2026-07-13T12:23:38.000Z</time>
</trkpt>
<trkpt lat="56.515595" lon="8.118119">
<ele>23.055470</ele>
<time>2026-07-13T12:23:39.000Z</time>
</trkpt>
<trkpt lat="56.515644" lon="8.118117">
<ele>22.927944</ele>
<time>2026-07-13T12:23:40.000Z</time>
</trkpt>
<trkpt lat="56.515694" lon="8.118113">
<ele>22.797722</ele>
<time>2026-07-13T12:23:41.000Z</time>
</trkpt>
<trkpt lat="56.515747" lon="8.118108">
<ele>22.659635</ele>
<time>2026-07-13T12:23:42.000Z</time>
</trkpt>
<trkpt lat="56.515797" lon="8.118105">
<ele>22.529468</ele>
<time>2026-07-13T12:23:43.000Z</time>
</trkpt>
<trkpt lat="56.515850" lon="8.118103">
<ele>22.391537</ele>
<time>2026-07-13T12:23:44.000Z</time>
</trkpt>
<trkpt lat="56.515903" lon="8.118103">
<ele>22.253636</ele>
<time>2026-07-13T12:23:45.000Z</time>
</trkpt>
<trkpt lat="56.515957" lon="8.118101">
<ele>22.113104</ele>
<time>2026-07-13T12:23:46.000Z</time>
</trkpt>
<trkpt lat="56.516010" lon="8.118097">
<ele>21.975084</ele>
<time>2026-07-13T12:23:47.000Z</time>
</trkpt>
<trkpt lat="56.516064" lon="8.118094">
<ele>21.834515</ele>
<time>2026-07-13T12:23:48.000Z</time>
</trkpt>
<trkpt lat="56.516121" lon="8.118091">
<ele>21.686144</ele>
<time>2026-07-13T12:23:49.000Z</time>
</trkpt>
<trkpt lat="56.516178" lon="8.118090">
<ele>21.537829</ele>
<time>2026-07-13T12:23:50.000Z</time>
</trkpt>
<trkpt lat="56.516232" lon="8.118092">
<ele>21.397296</ele>
<time>2026-07-13T12:23:51.000Z</time>
</trkpt>
<trkpt lat="56.516293" lon="8.118094">
<ele>21.238554</ele>
<time>2026-07-13T12:23:52.000Z</time>
</trkpt>
<trkpt lat="56.516350" lon="8.118099">
<ele>21.090072</ele>
<time>2026-07-13T12:23:53.000Z</time>
</trkpt>
<trkpt lat="56.516411" lon="8.118107">
<ele>20.930941</ele>
<time>2026-07-13T12:23:54.000Z</time>
</trkpt>
<trkpt lat="56.516476" lon="8.118113">
<ele>20.761598</ele>
<time>2026-07-13T12:23:55.000Z</time>
</trkpt>
<trkpt lat="56.516544" lon="8.118115">
<ele>20.584646</ele>
<time>2026-07-13T12:23:56.000Z</time>
</trkpt>
<trkpt lat="56.516613" lon="8.118121">
<ele>20.404908</ele>
<time>2026-07-13T12:23:57.000Z</time>
</trkpt>
<trkpt lat="56.516678" lon="8.118123">
<ele>20.235760</ele>
<time>2026-07-13T12:23:58.000Z</time>
</trkpt>
<trkpt lat="56.516747" lon="8.118123">
<ele>20.056228</ele>
<time>2026-07-13T12:23:59.000Z</time>
</trkpt>
<trkpt lat="56.516811" lon="8.118123">
<ele>19.889706</ele>
<time>2026-07-13T12:24:00.000Z</time>
</trkpt>
<trkpt lat="56.516876" lon="8.118126">
<ele>19.720528</ele>
<time>2026-07-13T12:24:01.000Z</time>
</trkpt>
<trkpt lat="56.516937" lon="8.118131">
<ele>19.561650</ele>
<time>2026-07-13T12:24:02.000Z</time>
</trkpt>
<trkpt lat="56.516994" lon="8.118135">
<ele>19.413230</ele>
<time>2026-07-13T12:24:03.000Z</time>
</trkpt>
<trkpt lat="56.517040" lon="8.118141">
<ele>19.293233</ele>
<time>2026-07-13T12:24:04.000Z</time>
</trkpt>
<trkpt lat="56.517078" lon="8.118144">
<ele>19.194267</ele>
<time>2026-07-13T12:24:05.000Z</time>
</trkpt>
<trkpt lat="56.517101" lon="8.118147">
<ele>19.134268</ele>
<time>2026-07-13T12:24:06.000Z</time>
</trkpt>
<trkpt lat="56.517117" lon="8.118147">
<ele>19.092638</ele>
<time>2026-07-13T12:24:38.000Z</time>
</trkpt>
<trkpt lat="56.517151" lon="8.118139">
<ele>19.003431</ele>
<time>2026-07-13T12:24:39.000Z</time>
</trkpt>
<trkpt lat="56.517193" lon="8.118135">
<ele>18.905983</ele>
<time>2026-07-13T12:24:40.000Z</time>
</trkpt>
<trkpt lat="56.517231" lon="8.118134">
<ele>18.824602</ele>
<time>2026-07-13T12:24:41.000Z</time>
</trkpt>
<trkpt lat="56.517273" lon="8.118134">
<ele>18.734664</ele>
<time>2026-07-13T12:24:42.000Z</time>
</trkpt>
<trkpt lat="56.517319" lon="8.118133">
<ele>18.636154</ele>
<time>2026-07-13T12:24:43.000Z</time>
</trkpt>
<trkpt lat="56.517368" lon="8.118130">
<ele>18.531166</ele>
<time>2026-07-13T12:24:44.000Z</time>
</trkpt>
<trkpt lat="56.517418" lon="8.118128">
<ele>18.424071</ele>
<time>2026-07-13T12:24:45.000Z</time>
</trkpt>
<trkpt lat="56.517471" lon="8.118127">
<ele>18.310572</ele>
<time>2026-07-13T12:24:46.000Z</time>
</trkpt>
<trkpt lat="56.517521" lon="8.118125">
<ele>18.203477</ele>
<time>2026-07-13T12:24:47.000Z</time>
</trkpt>
<trkpt lat="56.517574" lon="8.118125">
<ele>18.089984</ele>
<time>2026-07-13T12:24:48.000Z</time>
</trkpt>
<trkpt lat="56.517624" lon="8.118126">
<ele>17.982909</ele>
<time>2026-07-13T12:24:49.000Z</time>
</trkpt>
<trkpt lat="56.517681" lon="8.118127">
<ele>17.860844</ele>
<time>2026-07-13T12:24:50.000Z</time>
</trkpt>
<trkpt lat="56.517734" lon="8.118125">
<ele>17.747326</ele>
<time>2026-07-13T12:24:51.000Z</time>
</trkpt>
<trkpt lat="56.517788" lon="8.118123">
<ele>17.631668</ele>
<time>2026-07-13T12:24:52.000Z</time>
</trkpt>
<trkpt lat="56.517845" lon="8.118123">
<ele>17.509609</ele>
<time>2026-07-13T12:24:53.000Z</time>
</trkpt>
<trkpt lat="56.517902" lon="8.118121">
<ele>17.387528</ele>
<time>2026-07-13T12:24:54.000Z</time>
</trkpt>
<trkpt lat="56.517960" lon="8.118120">
<ele>17.263322</ele>
<time>2026-07-13T12:24:55.000Z</time>
</trkpt>
<trkpt lat="56.518021" lon="8.118122">
<ele>17.132677</ele>
<time>2026-07-13T12:24:56.000Z</time>
</trkpt>
<trkpt lat="56.518082" lon="8.118123">
<ele>17.002047</ele>
<time>2026-07-13T12:24:57.000Z</time>
</trkpt>
<trkpt lat="56.518139" lon="8.118122">
<ele>16.879983</ele>
<time>2026-07-13T12:24:58.000Z</time>
</trkpt>
<trkpt lat="56.518200" lon="8.118120">
<ele>16.749337</ele>
<time>2026-07-13T12:24:59.000Z</time>
</trkpt>
<trkpt lat="56.518257" lon="8.118122">
<ele>16.627256</ele>
<time>2026-07-13T12:25:00.000Z</time>
</trkpt>
<trkpt lat="56.518314" lon="8.118124">
<ele>16.505174</ele>
<time>2026-07-13T12:25:01.000Z</time>
</trkpt>
<trkpt lat="56.518372" lon="8.118128">
<ele>16.380884</ele>
<time>2026-07-13T12:25:02.000Z</time>
</trkpt>
<trkpt lat="56.518429" lon="8.118129">
<ele>16.258820</ele>
<time>2026-07-13T12:25:03.000Z</time>
</trkpt>
<trkpt lat="56.518486" lon="8.118126">
<ele>16.136710</ele>
<time>2026-07-13T12:25:04.000Z</time>
</trkpt>
<trkpt lat="56.518543" lon="8.118123">
<ele>16.014600</ele>
<time>2026-07-13T12:25:05.000Z</time>
</trkpt>
<trkpt lat="56.518600" lon="8.118122">
<ele>15.892535</ele>
<time>2026-07-13T12:25:06.000Z</time>
</trkpt>
<trkpt lat="56.518658" lon="8.118120">
<ele>15.768313</ele>
<time>2026-07-13T12:25:07.000Z</time>
</trkpt>
<trkpt lat="56.518719" lon="8.118122">
<ele>15.637667</ele>
<time>2026-07-13T12:25:08.000Z</time>
</trkpt>
<trkpt lat="56.518780" lon="8.118124">
<ele>15.507022</ele>
<time>2026-07-13T12:25:09.000Z</time>
</trkpt>
<trkpt lat="56.518841" lon="8.118123">
<ele>15.376392</ele>
<time>2026-07-13T12:25:10.000Z</time>
</trkpt>
<trkpt lat="56.518902" lon="8.118123">
<ele>15.245768</ele>
<time>2026-07-13T12:25:11.000Z</time>
</trkpt>
<trkpt lat="56.518963" lon="8.118123">
<ele>15.115144</ele>
<time>2026-07-13T12:25:12.000Z</time>
</trkpt>
<trkpt lat="56.519020" lon="8.118123">
<ele>15.054012</ele>
<time>2026-07-13T12:25:13.000Z</time>
</trkpt>
<trkpt lat="56.519081" lon="8.118125">
<ele>14.991374</ele>
<time>2026-07-13T12:25:14.000Z</time>
</trkpt>
<trkpt lat="56.519142" lon="8.118123">
<ele>14.928737</ele>
<time>2026-07-13T12:25:15.000Z</time>
</trkpt>
<trkpt lat="56.519203" lon="8.118123">
<ele>14.866110</ele>
<time>2026-07-13T12:25:16.000Z</time>
</trkpt>
<trkpt lat="56.519264" lon="8.118125">
<ele>14.803473</ele>
<time>2026-07-13T12:25:17.000Z</time>
</trkpt>
<trkpt lat="56.519329" lon="8.118126">
<ele>14.736737</ele>
<time>2026-07-13T12:25:18.000Z</time>
</trkpt>
<trkpt lat="56.519394" lon="8.118127">
<ele>14.670001</ele>
<time>2026-07-13T12:25:19.000Z</time>
</trkpt>
<trkpt lat="56.519459" lon="8.118127">
<ele>14.603267</ele>
<time>2026-07-13T12:25:20.000Z</time>
</trkpt>
<trkpt lat="56.519520" lon="8.118125">
<ele>14.540630</ele>
<time>2026-07-13T12:25:21.000Z</time>
</trkpt>
<trkpt lat="56.519585" lon="8.118126">
<ele>14.473894</ele>
<time>2026-07-13T12:25:22.000Z</time>
</trkpt>
<trkpt lat="56.519642" lon="8.118128">
<ele>14.415362</ele>
<time>2026-07-13T12:25:23.000Z</time>
</trkpt>
<trkpt lat="56.519703" lon="8.118129">
<ele>14.352733</ele>
<time>2026-07-13T12:25:24.000Z</time>
</trkpt>
<trkpt lat="56.519764" lon="8.118129">
<ele>14.290106</ele>
<time>2026-07-13T12:25:25.000Z</time>
</trkpt>
<trkpt lat="56.519825" lon="8.118128">
<ele>14.227476</ele>
<time>2026-07-13T12:25:26.000Z</time>
</trkpt>
<trkpt lat="56.519882" lon="8.118125">
<ele>14.168931</ele>
<time>2026-07-13T12:25:27.000Z</time>
</trkpt>
<trkpt lat="56.519943" lon="8.118125">
<ele>14.106304</ele>
<time>2026-07-13T12:25:28.000Z</time>
</trkpt>
<trkpt lat="56.520004" lon="8.118127">
<ele>14.043667</ele>
<time>2026-07-13T12:25:29.000Z</time>
</trkpt>
<trkpt lat="56.520061" lon="8.118129">
<ele>13.985136</ele>
<time>2026-07-13T12:25:30.000Z</time>
</trkpt>
<trkpt lat="56.520123" lon="8.118134">
<ele>13.921419</ele>
<time>2026-07-13T12:25:31.000Z</time>
</trkpt>
<trkpt lat="56.520180" lon="8.118137">
<ele>13.862874</ele>
<time>2026-07-13T12:25:32.000Z</time>
</trkpt>
<trkpt lat="56.520233" lon="8.118138">
<ele>13.808458</ele>
<time>2026-07-13T12:25:33.000Z</time>
</trkpt>
<trkpt lat="56.520287" lon="8.118138">
<ele>13.753017</ele>
<time>2026-07-13T12:25:34.000Z</time>
</trkpt>
<trkpt lat="56.520340" lon="8.118138">
<ele>13.698604</ele>
<time>2026-07-13T12:25:35.000Z</time>
</trkpt>
<trkpt lat="56.520393" lon="8.118140">
<ele>13.644178</ele>
<time>2026-07-13T12:25:36.000Z</time>
</trkpt>
<trkpt lat="56.520451" lon="8.118138">
<ele>13.584620</ele>
<time>2026-07-13T12:25:37.000Z</time>
</trkpt>
<trkpt lat="56.520504" lon="8.118137">
<ele>13.530204</ele>
<time>2026-07-13T12:25:38.000Z</time>
</trkpt>
<trkpt lat="56.520561" lon="8.118135">
<ele>13.471673</ele>
<time>2026-07-13T12:25:39.000Z</time>
</trkpt>
<trkpt lat="56.520618" lon="8.118135">
<ele>13.413152</ele>
<time>2026-07-13T12:25:40.000Z</time>
</trkpt>
<trkpt lat="56.520672" lon="8.118135">
<ele>13.357712</ele>
<time>2026-07-13T12:25:41.000Z</time>
</trkpt>
<trkpt lat="56.520721" lon="8.118136">
<ele>13.307402</ele>
<time>2026-07-13T12:25:42.000Z</time>
</trkpt>
<trkpt lat="56.520775" lon="8.118136">
<ele>13.260120</ele>
<time>2026-07-13T12:25:43.000Z</time>
</trkpt>
<trkpt lat="56.520832" lon="8.118138">
<ele>13.242941</ele>
<time>2026-07-13T12:25:44.000Z</time>
</trkpt>
<trkpt lat="56.520889" lon="8.118140">
<ele>13.225763</ele>
<time>2026-07-13T12:25:45.000Z</time>
</trkpt>
<trkpt lat="56.520947" lon="8.118142">
<ele>13.208283</ele>
<time>2026-07-13T12:25:46.000Z</time>
</trkpt>
<trkpt lat="56.521004" lon="8.118142">
<ele>13.191107</ele>
<time>2026-07-13T12:25:47.000Z</time>
</trkpt>
<trkpt lat="56.521057" lon="8.118139">
<ele>13.175129</ele>
<time>2026-07-13T12:25:48.000Z</time>
</trkpt>
<trkpt lat="56.521118" lon="8.118138">
<ele>13.156748</ele>
<time>2026-07-13T12:25:49.000Z</time>
</trkpt>
<trkpt lat="56.521175" lon="8.118141">
<ele>13.139565</ele>
<time>2026-07-13T12:25:50.000Z</time>
</trkpt>
<trkpt lat="56.521233" lon="8.118144">
<ele>13.122081</ele>
<time>2026-07-13T12:25:51.000Z</time>
</trkpt>
<trkpt lat="56.521290" lon="8.118147">
<ele>13.104899</ele>
<time>2026-07-13T12:25:52.000Z</time>
</trkpt>
<trkpt lat="56.521347" lon="8.118148">
<ele>13.087722</ele>
<time>2026-07-13T12:25:53.000Z</time>
</trkpt>
<trkpt lat="56.521404" lon="8.118146">
<ele>13.070544</ele>
<time>2026-07-13T12:25:54.000Z</time>
</trkpt>
<trkpt lat="56.521462" lon="8.118143">
<ele>13.053060</ele>
<time>2026-07-13T12:25:55.000Z</time>
</trkpt>
<trkpt lat="56.521519" lon="8.118140">
<ele>13.035877</ele>
<time>2026-07-13T12:25:56.000Z</time>
</trkpt>
<trkpt lat="56.521572" lon="8.118136">
<ele>13.019893</ele>
<time>2026-07-13T12:25:57.000Z</time>
</trkpt>
<trkpt lat="56.521626" lon="8.118133">
<ele>13.003614</ele>
<time>2026-07-13T12:25:58.000Z</time>
</trkpt>
<trkpt lat="56.521683" lon="8.118127">
<ele>12.986410</ele>
<time>2026-07-13T12:25:59.000Z</time>
</trkpt>
<trkpt lat="56.521740" lon="8.118120">
<ele>12.969195</ele>
<time>2026-07-13T12:26:00.000Z</time>
</trkpt>
<trkpt lat="56.521793" lon="8.118112">
<ele>12.953170</ele>
<time>2026-07-13T12:26:01.000Z</time>
</trkpt>
<trkpt lat="56.521847" lon="8.118104">
<ele>12.936844</ele>
<time>2026-07-13T12:26:02.000Z</time>
</trkpt>
<trkpt lat="56.521900" lon="8.118097">
<ele>12.920831</ele>
<time>2026-07-13T12:26:03.000Z</time>
</trkpt>
<trkpt lat="56.521954" lon="8.118092">
<ele>12.904539</ele>
<time>2026-07-13T12:26:04.000Z</time>
</trkpt>
<trkpt lat="56.522007" lon="8.118084">
<ele>12.888513</ele>
<time>2026-07-13T12:26:05.000Z</time>
</trkpt>
<trkpt lat="56.522060" lon="8.118075">
<ele>12.872473</ele>
<time>2026-07-13T12:26:06.000Z</time>
</trkpt>
<trkpt lat="56.522118" lon="8.118066">
<ele>12.854933</ele>
<time>2026-07-13T12:26:07.000Z</time>
</trkpt>
<trkpt lat="56.522175" lon="8.118055">
<ele>12.837660</ele>
<time>2026-07-13T12:26:08.000Z</time>
</trkpt>
<trkpt lat="56.522228" lon="8.118049">
<ele>12.821659</ele>
<time>2026-07-13T12:26:09.000Z</time>
</trkpt>
<trkpt lat="56.522278" lon="8.118044">
<ele>12.806570</ele>
<time>2026-07-13T12:26:10.000Z</time>
</trkpt>
<trkpt lat="56.522331" lon="8.118041">
<ele>12.790592</ele>
<time>2026-07-13T12:26:11.000Z</time>
</trkpt>
<trkpt lat="56.522388" lon="8.118033">
<ele>12.773365</ele>
<time>2026-07-13T12:26:12.000Z</time>
</trkpt>
<trkpt lat="56.522442" lon="8.118028">
<ele>12.757072</ele>
<time>2026-07-13T12:26:13.000Z</time>
</trkpt>
<trkpt lat="56.522495" lon="8.118024">
<ele>12.741088</ele>
<time>2026-07-13T12:26:14.000Z</time>
</trkpt>
<trkpt lat="56.522553" lon="8.118021">
<ele>12.723605</ele>
<time>2026-07-13T12:26:15.000Z</time>
</trkpt>
<trkpt lat="56.522610" lon="8.118016">
<ele>12.698722</ele>
<time>2026-07-13T12:26:16.000Z</time>
</trkpt>
<trkpt lat="56.522663" lon="8.118009">
<ele>12.674573</ele>
<time>2026-07-13T12:26:17.000Z</time>
</trkpt>
<trkpt lat="56.522720" lon="8.117999">
<ele>12.648549</ele>
<time>2026-07-13T12:26:18.000Z</time>
</trkpt>
<trkpt lat="56.522774" lon="8.117991">
<ele>12.623928</ele>
<time>2026-07-13T12:26:19.000Z</time>
</trkpt>
<trkpt lat="56.522831" lon="8.117990">
<ele>12.598023</ele>
<time>2026-07-13T12:26:20.000Z</time>
</trkpt>
<trkpt lat="56.522884" lon="8.117992">
<ele>12.573933</ele>
<time>2026-07-13T12:26:21.000Z</time>
</trkpt>
<trkpt lat="56.522942" lon="8.117997">
<ele>12.547545</ele>
<time>2026-07-13T12:26:22.000Z</time>
</trkpt>
<trkpt lat="56.522995" lon="8.118005">
<ele>12.523377</ele>
<time>2026-07-13T12:26:23.000Z</time>
</trkpt>
<trkpt lat="56.523052" lon="8.118015">
<ele>12.497352</ele>
<time>2026-07-13T12:26:24.000Z</time>
</trkpt>
<trkpt lat="56.523109" lon="8.118026">
<ele>12.471303</ele>
<time>2026-07-13T12:26:25.000Z</time>
</trkpt>
<trkpt lat="56.523163" lon="8.118037">
<ele>12.446609</ele>
<time>2026-07-13T12:26:26.000Z</time>
</trkpt>
<trkpt lat="56.523216" lon="8.118048">
<ele>12.422366</ele>
<time>2026-07-13T12:26:27.000Z</time>
</trkpt>
<trkpt lat="56.523266" lon="8.118057">
<ele>12.399532</ele>
<time>2026-07-13T12:26:28.000Z</time>
</trkpt>
<trkpt lat="56.523319" lon="8.118067">
<ele>12.375317</ele>
<time>2026-07-13T12:26:29.000Z</time>
</trkpt>
<trkpt lat="56.523373" lon="8.118077">
<ele>12.350649</ele>
<time>2026-07-13T12:26:30.000Z</time>
</trkpt>
<trkpt lat="56.523426" lon="8.118088">
<ele>12.326407</ele>
<time>2026-07-13T12:26:31.000Z</time>
</trkpt>
<trkpt lat="56.523476" lon="8.118099">
<ele>12.303518</ele>
<time>2026-07-13T12:26:32.000Z</time>
</trkpt>
<trkpt lat="56.523525" lon="8.118109">
<ele>12.281110</ele>
<time>2026-07-13T12:26:33.000Z</time>
</trkpt>
<trkpt lat="56.523579" lon="8.118118">
<ele>12.256467</ele>
<time>2026-07-13T12:26:34.000Z</time>
</trkpt>
<trkpt lat="56.523632" lon="8.118127">
<ele>12.232276</ele>
<time>2026-07-13T12:26:35.000Z</time>
</trkpt>
<trkpt lat="56.523685" lon="8.118134">
<ele>12.208127</ele>
<time>2026-07-13T12:26:36.000Z</time>
</trkpt>
<trkpt lat="56.523739" lon="8.118144">
<ele>12.183459</ele>
<time>2026-07-13T12:26:37.000Z</time>
</trkpt>
<trkpt lat="56.523788" lon="8.118153">
<ele>12.161077</ele>
<time>2026-07-13T12:26:38.000Z</time>
</trkpt>
<trkpt lat="56.523842" lon="8.118162">
<ele>12.136434</ele>
<time>2026-07-13T12:26:39.000Z</time>
</trkpt>
<trkpt lat="56.523891" lon="8.118172">
<ele>12.114026</ele>
<time>2026-07-13T12:26:40.000Z</time>
</trkpt>
<trkpt lat="56.523945" lon="8.118179">
<ele>12.089424</ele>
<time>2026-07-13T12:26:41.000Z</time>
</trkpt>
<trkpt lat="56.523994" lon="8.118189">
<ele>12.067015</ele>
<time>2026-07-13T12:26:42.000Z</time>
</trkpt>
<trkpt lat="56.524048" lon="8.118198">
<ele>12.042372</ele>
<time>2026-07-13T12:26:43.000Z</time>
</trkpt>
<trkpt lat="56.524097" lon="8.118206">
<ele>12.020014</ele>
<time>2026-07-13T12:26:44.000Z</time>
</trkpt>
<trkpt lat="56.524151" lon="8.118213">
<ele>11.995412</ele>
<time>2026-07-13T12:26:45.000Z</time>
</trkpt>
<trkpt lat="56.524200" lon="8.118217">
<ele>11.973122</ele>
<time>2026-07-13T12:26:46.000Z</time>
</trkpt>
<trkpt lat="56.524250" lon="8.118223">
<ele>11.950350</ele>
<time>2026-07-13T12:26:47.000Z</time>
</trkpt>
<trkpt lat="56.524300" lon="8.118232">
<ele>11.927516</ele>
<time>2026-07-13T12:26:48.000Z</time>
</trkpt>
<trkpt lat="56.524349" lon="8.118241">
<ele>11.905135</ele>
<time>2026-07-13T12:26:49.000Z</time>
</trkpt>
<trkpt lat="56.524395" lon="8.118251">
<ele>11.793688</ele>
<time>2026-07-13T12:26:50.000Z</time>
</trkpt>
<trkpt lat="56.524445" lon="8.118259">
<ele>11.668188</ele>
<time>2026-07-13T12:26:51.000Z</time>
</trkpt>
<trkpt lat="56.524490" lon="8.118266">
<ele>11.555261</ele>
<time>2026-07-13T12:26:52.000Z</time>
</trkpt>
<trkpt lat="56.524536" lon="8.118271">
<ele>11.440041</ele>
<time>2026-07-13T12:26:53.000Z</time>
</trkpt>
<trkpt lat="56.524582" lon="8.118272">
<ele>11.325019</ele>
<time>2026-07-13T12:26:54.000Z</time>
</trkpt>
<trkpt lat="56.524624" lon="8.118268">
<ele>11.219862</ele>
<time>2026-07-13T12:26:55.000Z</time>
</trkpt>
<trkpt lat="56.524673" lon="8.118260">
<ele>11.096851</ele>
<time>2026-07-13T12:26:56.000Z</time>
</trkpt>
<trkpt lat="56.524719" lon="8.118251">
<ele>10.981170</ele>
<time>2026-07-13T12:26:57.000Z</time>
</trkpt>
<trkpt lat="56.524765" lon="8.118243">
<ele>10.865628</ele>
<time>2026-07-13T12:26:58.000Z</time>
</trkpt>
<trkpt lat="56.524815" lon="8.118237">
<ele>10.740340</ele>
<time>2026-07-13T12:26:59.000Z</time>
</trkpt>
<trkpt lat="56.524864" lon="8.118229">
<ele>10.617330</ele>
<time>2026-07-13T12:27:00.000Z</time>
</trkpt>
<trkpt lat="56.524910" lon="8.118222">
<ele>10.501912</ele>
<time>2026-07-13T12:27:01.000Z</time>
</trkpt>
<trkpt lat="56.524960" lon="8.118217">
<ele>10.376707</ele>
<time>2026-07-13T12:27:02.000Z</time>
</trkpt>
<trkpt lat="56.525002" lon="8.118216">
<ele>10.271686</ele>
<time>2026-07-13T12:27:03.000Z</time>
</trkpt>
<trkpt lat="56.525044" lon="8.118218">
<ele>10.166637</ele>
<time>2026-07-13T12:27:04.000Z</time>
</trkpt>
<trkpt lat="56.525074" lon="8.118230">
<ele>10.089824</ele>
<time>2026-07-13T12:27:05.000Z</time>
</trkpt>
<trkpt lat="56.525101" lon="8.118250">
<ele>10.016899</ele>
<time>2026-07-13T12:27:06.000Z</time>
</trkpt>
<trkpt lat="56.525127" lon="8.118281">
<ele>9.939093</ele>
<time>2026-07-13T12:27:07.000Z</time>
</trkpt>
<trkpt lat="56.525146" lon="8.118317">
<ele>9.870379</ele>
<time>2026-07-13T12:27:08.000Z</time>
</trkpt>
<trkpt lat="56.525166" lon="8.118345">
<ele>9.807199</ele>
<time>2026-07-13T12:27:09.000Z</time>
</trkpt>
<trkpt lat="56.525173" lon="8.118362">
<ele>9.777942</ele>
<time>2026-07-13T12:27:10.000Z</time>
</trkpt>
<trkpt lat="56.525223" lon="8.118336">
<ele>9.647887</ele>
<time>2026-07-13T12:27:25.000Z</time>
</trkpt>
<trkpt lat="56.525257" lon="8.118341">
<ele>9.562598</ele>
<time>2026-07-13T12:27:26.000Z</time>
</trkpt>
<trkpt lat="56.525307" lon="8.118344">
<ele>9.437515</ele>
<time>2026-07-13T12:27:27.000Z</time>
</trkpt>
<trkpt lat="56.525345" lon="8.118347">
<ele>9.342413</ele>
<time>2026-07-13T12:27:28.000Z</time>
</trkpt>
<trkpt lat="56.525387" lon="8.118351">
<ele>9.237256</ele>
<time>2026-07-13T12:27:29.000Z</time>
</trkpt>
<trkpt lat="56.525429" lon="8.118356">
<ele>9.132018</ele>
<time>2026-07-13T12:27:30.000Z</time>
</trkpt>
<trkpt lat="56.525478" lon="8.118361">
<ele>9.009309</ele>
<time>2026-07-13T12:27:31.000Z</time>
</trkpt>
<trkpt lat="56.525517" lon="8.118365">
<ele>8.911642</ele>
<time>2026-07-13T12:27:32.000Z</time>
</trkpt>
<trkpt lat="56.525566" lon="8.118367">
<ele>8.789096</ele>
<time>2026-07-13T12:27:33.000Z</time>
</trkpt>
<trkpt lat="56.525608" lon="8.118371">
<ele>8.683939</ele>
<time>2026-07-13T12:27:34.000Z</time>
</trkpt>
<trkpt lat="56.525658" lon="8.118376">
<ele>8.558734</ele>
<time>2026-07-13T12:27:35.000Z</time>
</trkpt>
<trkpt lat="56.525707" lon="8.118378">
<ele>8.436189</ele>
<time>2026-07-13T12:27:36.000Z</time>
</trkpt>
<trkpt lat="56.525753" lon="8.118380">
<ele>8.321142</ele>
<time>2026-07-13T12:27:37.000Z</time>
</trkpt>
<trkpt lat="56.525799" lon="8.118383">
<ele>8.206054</ele>
<time>2026-07-13T12:27:38.000Z</time>
</trkpt>
<trkpt lat="56.525845" lon="8.118386">
<ele>8.090966</ele>
<time>2026-07-13T12:27:39.000Z</time>
</trkpt>
<trkpt lat="56.525890" lon="8.118387">
<ele>7.978444</ele>
<time>2026-07-13T12:27:40.000Z</time>
</trkpt>
<trkpt lat="56.525940" lon="8.118389">
<ele>7.853399</ele>
<time>2026-07-13T12:27:41.000Z</time>
</trkpt>
<trkpt lat="56.525982" lon="8.118390">
<ele>7.748378</ele>
<time>2026-07-13T12:27:42.000Z</time>
</trkpt>
<trkpt lat="56.526028" lon="8.118390">
<ele>7.633364</ele>
<time>2026-07-13T12:27:43.000Z</time>
</trkpt>
<trkpt lat="56.526077" lon="8.118391">
<ele>7.510842</ele>
<time>2026-07-13T12:27:44.000Z</time>
</trkpt>
<trkpt lat="56.526119" lon="8.118394">
<ele>7.405831</ele>
<time>2026-07-13T12:27:45.000Z</time>
</trkpt>
<trkpt lat="56.526161" lon="8.118400">
<ele>7.307425</ele>
<time>2026-07-13T12:27:46.000Z</time>
</trkpt>
<trkpt lat="56.526203" lon="8.118409">
<ele>7.208640</ele>
<time>2026-07-13T12:27:47.000Z</time>
</trkpt>
<trkpt lat="56.526238" lon="8.118425">
<ele>7.124330</ele>
<time>2026-07-13T12:27:48.000Z</time>
</trkpt>
<trkpt lat="56.526264" lon="8.118449">
<ele>7.056182</ele>
<time>2026-07-13T12:27:49.000Z</time>
</trkpt>
<trkpt lat="56.526283" lon="8.118478">
<ele>6.998170</ele>
<time>2026-07-13T12:27:50.000Z</time>
</trkpt>
<trkpt lat="56.526295" lon="8.118505">
<ele>6.953498</ele>
<time>2026-07-13T12:27:51.000Z</time>
</trkpt>
<trkpt lat="56.526310" lon="8.118526">
<ele>6.909232</ele>
<time>2026-07-13T12:27:52.000Z</time>
</trkpt>
<trkpt lat="56.526329" lon="8.118538">
<ele>6.862237</ele>
<time>2026-07-13T12:27:53.000Z</time>
</trkpt>
<trkpt lat="56.526348" lon="8.118545">
<ele>6.816950</ele>
<time>2026-07-13T12:27:54.000Z</time>
</trkpt>
<trkpt lat="56.526379" lon="8.118549">
<ele>6.744358</ele>
<time>2026-07-13T12:27:55.000Z</time>
</trkpt>
<trkpt lat="56.526409" lon="8.118552">
<ele>6.674179</ele>
<time>2026-07-13T12:27:56.000Z</time>
</trkpt>
<trkpt lat="56.526447" lon="8.118557">
<ele>6.585186</ele>
<time>2026-07-13T12:27:57.000Z</time>
</trkpt>
<trkpt lat="56.526482" lon="8.118566">
<ele>6.502616</ele>
<time>2026-07-13T12:27:58.000Z</time>
</trkpt>
<trkpt lat="56.526516" lon="8.118576">
<ele>6.422162</ele>
<time>2026-07-13T12:27:59.000Z</time>
</trkpt>
<trkpt lat="56.526550" lon="8.118583">
<ele>6.342235</ele>
<time>2026-07-13T12:28:00.000Z</time>
</trkpt>
<trkpt lat="56.526588" lon="8.118588">
<ele>6.253243</ele>
<time>2026-07-13T12:28:01.000Z</time>
</trkpt>
<trkpt lat="56.526627" lon="8.118588">
<ele>6.162148</ele>
<time>2026-07-13T12:28:02.000Z</time>
</trkpt>
<trkpt lat="56.526665" lon="8.118580">
<ele>6.072792</ele>
<time>2026-07-13T12:28:03.000Z</time>
</trkpt>
<trkpt lat="56.526707" lon="8.118573">
<ele>5.974276</ele>
<time>2026-07-13T12:28:04.000Z</time>
</trkpt>
<trkpt lat="56.526749" lon="8.118570">
<ele>5.876098</ele>
<time>2026-07-13T12:28:05.000Z</time>
</trkpt>
<trkpt lat="56.526791" lon="8.118574">
<ele>5.777860</ele>
<time>2026-07-13T12:28:06.000Z</time>
</trkpt>
<trkpt lat="56.526833" lon="8.118583">
<ele>5.679075</ele>
<time>2026-07-13T12:28:07.000Z</time>
</trkpt>
<trkpt lat="56.526878" lon="8.118591">
<ele>5.573462</ele>
<time>2026-07-13T12:28:08.000Z</time>
</trkpt>
<trkpt lat="56.526924" lon="8.118592">
<ele>5.466009</ele>
<time>2026-07-13T12:28:09.000Z</time>
</trkpt>
<trkpt lat="56.526974" lon="8.118588">
<ele>5.349107</ele>
<time>2026-07-13T12:28:10.000Z</time>
</trkpt>
<trkpt lat="56.527023" lon="8.118585">
<ele>5.234589</ele>
<time>2026-07-13T12:28:11.000Z</time>
</trkpt>
<trkpt lat="56.527073" lon="8.118585">
<ele>5.117800</ele>
<time>2026-07-13T12:28:12.000Z</time>
</trkpt>
<trkpt lat="56.527122" lon="8.118587">
<ele>5.003319</ele>
<time>2026-07-13T12:28:13.000Z</time>
</trkpt>
<trkpt lat="56.527176" lon="8.118590">
<ele>4.877128</ele>
<time>2026-07-13T12:28:14.000Z</time>
</trkpt>
<trkpt lat="56.527222" lon="8.118596">
<ele>4.769405</ele>
<time>2026-07-13T12:28:15.000Z</time>
</trkpt>
<trkpt lat="56.527275" lon="8.118605">
<ele>4.645068</ele>
<time>2026-07-13T12:28:16.000Z</time>
</trkpt>
<trkpt lat="56.527317" lon="8.118618">
<ele>4.545546</ele>
<time>2026-07-13T12:28:17.000Z</time>
</trkpt>
<trkpt lat="56.527355" lon="8.118642">
<ele>4.451556</ele>
<time>2026-07-13T12:28:18.000Z</time>
</trkpt>
<trkpt lat="56.527390" lon="8.118678">
<ele>4.357565</ele>
<time>2026-07-13T12:28:19.000Z</time>
</trkpt>
<trkpt lat="56.527420" lon="8.118726">
<ele>4.264109</ele>
<time>2026-07-13T12:28:20.000Z</time>
</trkpt>
<trkpt lat="56.527443" lon="8.118775">
<ele>4.181218</ele>
<time>2026-07-13T12:28:21.000Z</time>
</trkpt>
<trkpt lat="56.527462" lon="8.118833">
<ele>4.094313</ele>
<time>2026-07-13T12:28:22.000Z</time>
</trkpt>
<trkpt lat="56.527477" lon="8.118879">
<ele>4.025471</ele>
<time>2026-07-13T12:28:23.000Z</time>
</trkpt>
<trkpt lat="56.527496" lon="8.118912">
<ele>3.964014</ele>
<time>2026-07-13T12:28:24.000Z</time>
</trkpt>
<trkpt lat="56.527527" lon="8.118929">
<ele>3.888366</ele>
<time>2026-07-13T12:28:25.000Z</time>
</trkpt>
<trkpt lat="56.527557" lon="8.118940">
<ele>3.816874</ele>
<time>2026-07-13T12:28:26.000Z</time>
</trkpt>
<trkpt lat="56.527592" lon="8.118952">
<ele>3.733674</ele>
<time>2026-07-13T12:28:27.000Z</time>
</trkpt>
<trkpt lat="56.527630" lon="8.118961">
<ele>3.644161</ele>
<time>2026-07-13T12:28:28.000Z</time>
</trkpt>
<trkpt lat="56.527668" lon="8.118963">
<ele>3.555364</ele>
<time>2026-07-13T12:28:29.000Z</time>
</trkpt>
<trkpt lat="56.527714" lon="8.118961">
<ele>3.447888</ele>
<time>2026-07-13T12:28:30.000Z</time>
</trkpt>
<trkpt lat="56.527756" lon="8.118961">
<ele>3.349785</ele>
<time>2026-07-13T12:28:31.000Z</time>
</trkpt>
<trkpt lat="56.527802" lon="8.118965">
<ele>3.242217</ele>
<time>2026-07-13T12:28:32.000Z</time>
</trkpt>
<trkpt lat="56.527847" lon="8.118971">
<ele>3.129047</ele>
<time>2026-07-13T12:28:33.000Z</time>
</trkpt>
<trkpt lat="56.527897" lon="8.118972">
<ele>2.999085</ele>
<time>2026-07-13T12:28:34.000Z</time>
</trkpt>
<trkpt lat="56.527950" lon="8.118974">
<ele>2.861303</ele>
<time>2026-07-13T12:28:35.000Z</time>
</trkpt>
<trkpt lat="56.528004" lon="8.118973">
<ele>2.720945</ele>
<time>2026-07-13T12:28:36.000Z</time>
</trkpt>
<trkpt lat="56.528053" lon="8.118969">
<ele>2.593461</ele>
<time>2026-07-13T12:28:37.000Z</time>
</trkpt>
<trkpt lat="56.528107" lon="8.118969">
<ele>2.453111</ele>
<time>2026-07-13T12:28:38.000Z</time>
</trkpt>
<trkpt lat="56.528160" lon="8.118975">
<ele>2.315091</ele>
<time>2026-07-13T12:28:39.000Z</time>
</trkpt>
<trkpt lat="56.528213" lon="8.118981">
<ele>2.177071</ele>
<time>2026-07-13T12:28:40.000Z</time>
</trkpt>
<trkpt lat="56.528267" lon="8.118988">
<ele>2.036362</ele>
<time>2026-07-13T12:28:41.000Z</time>
</trkpt>
<trkpt lat="56.528324" lon="8.118991">
<ele>1.888152</ele>
<time>2026-07-13T12:28:42.000Z</time>
</trkpt>
<trkpt lat="56.528378" lon="8.118994">
<ele>1.747736</ele>
<time>2026-07-13T12:28:43.000Z</time>
</trkpt>
<trkpt lat="56.528435" lon="8.118992">
<ele>1.599560</ele>
<time>2026-07-13T12:28:44.000Z</time>
</trkpt>
<trkpt lat="56.528488" lon="8.118994">
<ele>1.461779</ele>
<time>2026-07-13T12:28:45.000Z</time>
</trkpt>
<trkpt lat="56.528542" lon="8.118999">
<ele>1.321245</ele>
<time>2026-07-13T12:28:46.000Z</time>
</trkpt>
<trkpt lat="56.528595" lon="8.119011">
<ele>1.182424</ele>
<time>2026-07-13T12:28:47.000Z</time>
</trkpt>
<trkpt lat="56.528652" lon="8.119021">
<ele>1.033584</ele>
<time>2026-07-13T12:28:48.000Z</time>
</trkpt>
<trkpt lat="56.528713" lon="8.119026">
<ele>0.874878</ele>
<time>2026-07-13T12:28:49.000Z</time>
</trkpt>
<trkpt lat="56.528770" lon="8.119029">
<ele>0.726668</ele>
<time>2026-07-13T12:28:50.000Z</time>
</trkpt>
<trkpt lat="56.528835" lon="8.119035">
<ele>0.557509</ele>
<time>2026-07-13T12:28:51.000Z</time>
</trkpt>
<trkpt lat="56.528896" lon="8.119044">
<ele>0.398441</ele>
<time>2026-07-13T12:28:52.000Z</time>
</trkpt>
<trkpt lat="56.528961" lon="8.119056">
<ele>0.228627</ele>
<time>2026-07-13T12:28:53.000Z</time>
</trkpt>
<trkpt lat="56.529026" lon="8.119069">
<ele>0.058662</ele>
<time>2026-07-13T12:28:54.000Z</time>
</trkpt>
<trkpt lat="56.529091" lon="8.119082">
<ele>-0.111304</ele>
<time>2026-07-13T12:28:55.000Z</time>
</trkpt>
<trkpt lat="56.529152" lon="8.119096">
<ele>-0.271113</ele>
<time>2026-07-13T12:28:56.000Z</time>
</trkpt>
<trkpt lat="56.529209" lon="8.119116">
<ele>-0.422009</ele>
<time>2026-07-13T12:28:57.000Z</time>
</trkpt>
<trkpt lat="56.529263" lon="8.119138">
<ele>-0.565859</ele>
<time>2026-07-13T12:28:58.000Z</time>
</trkpt>
<trkpt lat="56.529312" lon="8.119165">
<ele>-0.698965</ele>
<time>2026-07-13T12:28:59.000Z</time>
</trkpt>
<trkpt lat="56.529358" lon="8.119192">
<ele>-0.824631</ele>
<time>2026-07-13T12:29:00.000Z</time>
</trkpt>
<trkpt lat="56.529400" lon="8.119220">
<ele>-0.940937</ele>
<time>2026-07-13T12:29:01.000Z</time>
</trkpt>
<trkpt lat="56.529442" lon="8.119248">
<ele>-1.057243</ele>
<time>2026-07-13T12:29:02.000Z</time>
</trkpt>
<trkpt lat="56.529480" lon="8.119277">
<ele>-1.164400</ele>
<time>2026-07-13T12:29:03.000Z</time>
</trkpt>
<trkpt lat="56.529518" lon="8.119309">
<ele>-1.273297</ele>
<time>2026-07-13T12:29:04.000Z</time>
</trkpt>
<trkpt lat="56.529552" lon="8.119340">
<ele>-1.372209</ele>
<time>2026-07-13T12:29:05.000Z</time>
</trkpt>
<trkpt lat="56.529583" lon="8.119367">
<ele>-1.461594</ele>
<time>2026-07-13T12:29:06.000Z</time>
</trkpt>
<trkpt lat="56.529606" lon="8.119391">
<ele>-1.554057</ele>
<time>2026-07-13T12:29:07.000Z</time>
</trkpt>
<trkpt lat="56.529633" lon="8.119413">
<ele>-1.660358</ele>
<time>2026-07-13T12:29:08.000Z</time>
</trkpt>
<trkpt lat="56.529659" lon="8.119429">
<ele>-1.758959</ele>
<time>2026-07-13T12:29:09.000Z</time>
</trkpt>
<trkpt lat="56.529690" lon="8.119432">
<ele>-1.870443</ele>
<time>2026-07-13T12:29:10.000Z</time>
</trkpt>
<trkpt lat="56.529720" lon="8.119432">
<ele>-1.978178</ele>
<time>2026-07-13T12:29:11.000Z</time>
</trkpt>
<trkpt lat="56.529755" lon="8.119431">
<ele>-2.103884</ele>
<time>2026-07-13T12:29:12.000Z</time>
</trkpt>
<trkpt lat="56.529789" lon="8.119428">
<ele>-2.226128</ele>
<time>2026-07-13T12:29:13.000Z</time>
</trkpt>
<trkpt lat="56.529827" lon="8.119422">
<ele>-2.363108</ele>
<time>2026-07-13T12:29:14.000Z</time>
</trkpt>
<trkpt lat="56.529869" lon="8.119415">
<ele>-2.514573</ele>
<time>2026-07-13T12:29:15.000Z</time>
</trkpt>
<trkpt lat="56.529915" lon="8.119406">
<ele>-2.680725</ele>
<time>2026-07-13T12:29:16.000Z</time>
</trkpt>
<trkpt lat="56.529961" lon="8.119391">
<ele>-2.848568</ele>
<time>2026-07-13T12:29:17.000Z</time>
</trkpt>
<trkpt lat="56.530006" lon="8.119374">
<ele>-3.013640</ele>
<time>2026-07-13T12:29:18.000Z</time>
</trkpt>
<trkpt lat="56.530052" lon="8.119359">
<ele>-3.181483</ele>
<time>2026-07-13T12:29:19.000Z</time>
</trkpt>
<trkpt lat="56.530106" lon="8.119346">
<ele>-3.377108</ele>
<time>2026-07-13T12:29:20.000Z</time>
</trkpt>
<trkpt lat="56.530159" lon="8.119334">
<ele>-3.568917</ele>
<time>2026-07-13T12:29:21.000Z</time>
</trkpt>
<trkpt lat="56.530212" lon="8.119323">
<ele>-3.760491</ele>
<time>2026-07-13T12:29:22.000Z</time>
</trkpt>
<trkpt lat="56.530270" lon="8.119311">
<ele>-3.970130</ele>
<time>2026-07-13T12:29:23.000Z</time>
</trkpt>
<trkpt lat="56.530323" lon="8.119300">
<ele>-4.161704</ele>
<time>2026-07-13T12:29:24.000Z</time>
</trkpt>
<trkpt lat="56.530388" lon="8.119286">
<ele>-4.396770</ele>
<time>2026-07-13T12:29:25.000Z</time>
</trkpt>
<trkpt lat="56.530453" lon="8.119268">
<ele>-4.632902</ele>
<time>2026-07-13T12:29:26.000Z</time>
</trkpt>
<trkpt lat="56.530518" lon="8.119252">
<ele>-4.868468</ele>
<time>2026-07-13T12:29:27.000Z</time>
</trkpt>
<trkpt lat="56.530582" lon="8.119239">
<ele>-5.099740</ele>
<time>2026-07-13T12:29:28.000Z</time>
</trkpt>
<trkpt lat="56.530651" lon="8.119225">
<ele>-5.349076</ele>
<time>2026-07-13T12:29:29.000Z</time>
</trkpt>
<trkpt lat="56.530724" lon="8.119211">
<ele>-5.612692</ele>
<time>2026-07-13T12:29:30.000Z</time>
</trkpt>
<trkpt lat="56.530788" lon="8.119197">
<ele>-5.844193</ele>
<time>2026-07-13T12:29:31.000Z</time>
</trkpt>
<trkpt lat="56.530857" lon="8.119180">
<ele>-6.094260</ele>
<time>2026-07-13T12:29:32.000Z</time>
</trkpt>
<trkpt lat="56.530930" lon="8.119163">
<ele>-6.358567</ele>
<time>2026-07-13T12:29:33.000Z</time>
</trkpt>
<trkpt lat="56.530998" lon="8.119147">
<ele>-6.604813</ele>
<time>2026-07-13T12:29:34.000Z</time>
</trkpt>
<trkpt lat="56.531067" lon="8.119132">
<ele>-6.854377</ele>
<time>2026-07-13T12:29:35.000Z</time>
</trkpt>
<trkpt lat="56.531132" lon="8.119124">
<ele>-7.088340</ele>
<time>2026-07-13T12:29:36.000Z</time>
</trkpt>
<trkpt lat="56.531197" lon="8.119127">
<ele>-7.321841</ele>
<time>2026-07-13T12:29:37.000Z</time>
</trkpt>
<trkpt lat="56.531258" lon="8.119136">
<ele>-7.541625</ele>
<time>2026-07-13T12:29:38.000Z</time>
</trkpt>
<trkpt lat="56.531319" lon="8.119149">
<ele>-7.762193</ele>
<time>2026-07-13T12:29:39.000Z</time>
</trkpt>
<trkpt lat="56.531380" lon="8.119163">
<ele>-7.943398</ele>
<time>2026-07-13T12:29:40.000Z</time>
</trkpt>
<trkpt lat="56.531437" lon="8.119180">
<ele>-8.000847</ele>
<time>2026-07-13T12:29:41.000Z</time>
</trkpt>
<trkpt lat="56.531498" lon="8.119199">
<ele>-8.062401</ele>
<time>2026-07-13T12:29:42.000Z</time>
</trkpt>
<trkpt lat="56.531555" lon="8.119219">
<ele>-8.120140</ele>
<time>2026-07-13T12:29:43.000Z</time>
</trkpt>
<trkpt lat="56.531612" lon="8.119241">
<ele>-8.178097</ele>
<time>2026-07-13T12:29:44.000Z</time>
</trkpt>
<trkpt lat="56.531670" lon="8.119263">
<ele>-8.237027</ele>
<time>2026-07-13T12:29:45.000Z</time>
</trkpt>
<trkpt lat="56.531731" lon="8.119285">
<ele>-8.298881</ele>
<time>2026-07-13T12:29:46.000Z</time>
</trkpt>
<trkpt lat="56.531788" lon="8.119304">
<ele>-8.356518</ele>
<time>2026-07-13T12:29:47.000Z</time>
</trkpt>
<trkpt lat="56.531845" lon="8.119324">
<ele>-8.414257</ele>
<time>2026-07-13T12:29:48.000Z</time>
</trkpt>
<trkpt lat="56.531906" lon="8.119345">
<ele>-8.476006</ele>
<time>2026-07-13T12:29:49.000Z</time>
</trkpt>
<trkpt lat="56.531963" lon="8.119365">
<ele>-8.533744</ele>
<time>2026-07-13T12:29:50.000Z</time>
</trkpt>
<trkpt lat="56.532021" lon="8.119384">
<ele>-8.592360</ele>
<time>2026-07-13T12:29:51.000Z</time>
</trkpt>
<trkpt lat="56.532082" lon="8.119401">
<ele>-8.653738</ele>
<time>2026-07-13T12:29:52.000Z</time>
</trkpt>
<trkpt lat="56.532139" lon="8.119416">
<ele>-8.711019</ele>
<time>2026-07-13T12:29:53.000Z</time>
</trkpt>
<trkpt lat="56.532192" lon="8.119431">
<ele>-8.764366</ele>
<time>2026-07-13T12:29:54.000Z</time>
</trkpt>
<trkpt lat="56.532249" lon="8.119442">
<ele>-8.821373</ele>
<time>2026-07-13T12:29:55.000Z</time>
</trkpt>
<trkpt lat="56.532307" lon="8.119453">
<ele>-8.879370</ele>
<time>2026-07-13T12:29:56.000Z</time>
</trkpt>
<trkpt lat="56.532364" lon="8.119467">
<ele>-8.936575</ele>
<time>2026-07-13T12:29:57.000Z</time>
</trkpt>
<trkpt lat="56.532421" lon="8.119477">
<ele>-8.993527</ele>
<time>2026-07-13T12:29:58.000Z</time>
</trkpt>
<trkpt lat="56.532474" lon="8.119491">
<ele>-9.046792</ele>
<time>2026-07-13T12:29:59.000Z</time>
</trkpt>
<trkpt lat="56.532528" lon="8.119503">
<ele>-9.100898</ele>
<time>2026-07-13T12:30:00.000Z</time>
</trkpt>
<trkpt lat="56.532581" lon="8.119515">
<ele>-9.154016</ele>
<time>2026-07-13T12:30:01.000Z</time>
</trkpt>
<trkpt lat="56.532635" lon="8.119529">
<ele>-9.208266</ele>
<time>2026-07-13T12:30:02.000Z</time>
</trkpt>
<trkpt lat="56.532688" lon="8.119543">
<ele>-9.261532</ele>
<time>2026-07-13T12:30:03.000Z</time>
</trkpt>
<trkpt lat="56.532742" lon="8.119557">
<ele>-9.315782</ele>
<time>2026-07-13T12:30:04.000Z</time>
</trkpt>
<trkpt lat="56.532799" lon="8.119571">
<ele>-9.372986</ele>
<time>2026-07-13T12:30:05.000Z</time>
</trkpt>
<trkpt lat="56.532848" lon="8.119584">
<ele>-9.422236</ele>
<time>2026-07-13T12:30:06.000Z</time>
</trkpt>
<trkpt lat="56.532898" lon="8.119600">
<ele>-9.472730</ele>
<time>2026-07-13T12:30:07.000Z</time>
</trkpt>
<trkpt lat="56.532951" lon="8.119620">
<ele>-9.526569</ele>
<time>2026-07-13T12:30:08.000Z</time>
</trkpt>
<trkpt lat="56.533001" lon="8.119642">
<ele>-9.577737</ele>
<time>2026-07-13T12:30:09.000Z</time>
</trkpt>
<trkpt lat="56.533050" lon="8.119668">
<ele>-9.628512</ele>
<time>2026-07-13T12:30:10.000Z</time>
</trkpt>
<trkpt lat="56.533096" lon="8.119702">
<ele>-9.677914</ele>
<time>2026-07-13T12:30:11.000Z</time>
</trkpt>
<trkpt lat="56.533142" lon="8.119747">
<ele>-9.716865</ele>
<time>2026-07-13T12:30:12.000Z</time>
</trkpt>
<trkpt lat="56.533184" lon="8.119798">
<ele>-9.716314</ele>
<time>2026-07-13T12:30:13.000Z</time>
</trkpt>
<trkpt lat="56.533222" lon="8.119856">
<ele>-9.715773</ele>
<time>2026-07-13T12:30:14.000Z</time>
</trkpt>
<trkpt lat="56.533260" lon="8.119921">
<ele>-9.715205</ele>
<time>2026-07-13T12:30:15.000Z</time>
</trkpt>
<trkpt lat="56.533291" lon="8.119993">
<ele>-9.714656</ele>
<time>2026-07-13T12:30:16.000Z</time>
</trkpt>
<trkpt lat="56.533325" lon="8.120067">
<ele>-9.714078</ele>
<time>2026-07-13T12:30:17.000Z</time>
</trkpt>
<trkpt lat="56.533360" lon="8.120134">
<ele>-9.713523</ele>
<time>2026-07-13T12:30:18.000Z</time>
</trkpt>
<trkpt lat="56.533398" lon="8.120202">
<ele>-9.712942</ele>
<time>2026-07-13T12:30:19.000Z</time>
</trkpt>
<trkpt lat="56.533436" lon="8.120266">
<ele>-9.712377</ele>
<time>2026-07-13T12:30:20.000Z</time>
</trkpt>
<trkpt lat="56.533470" lon="8.120326">
<ele>-9.711861</ele>
<time>2026-07-13T12:30:21.000Z</time>
</trkpt>
<trkpt lat="56.533508" lon="8.120386">
<ele>-9.711312</ele>
<time>2026-07-13T12:30:22.000Z</time>
</trkpt>
<trkpt lat="56.533546" lon="8.120448">
<ele>-9.710756</ele>
<time>2026-07-13T12:30:23.000Z</time>
</trkpt>
<trkpt lat="56.533581" lon="8.120506">
<ele>-9.710239</ele>
<time>2026-07-13T12:30:24.000Z</time>
</trkpt>
<trkpt lat="56.533615" lon="8.120562">
<ele>-9.709739</ele>
<time>2026-07-13T12:30:25.000Z</time>
</trkpt>
<trkpt lat="56.533649" lon="8.120614">
<ele>-9.709255</ele>
<time>2026-07-13T12:30:26.000Z</time>
</trkpt>
<trkpt lat="56.533688" lon="8.120666">
<ele>-9.708728</ele>
<time>2026-07-13T12:30:27.000Z</time>
</trkpt>
<trkpt lat="56.533722" lon="8.120718">
<ele>-9.708243</ele>
<time>2026-07-13T12:30:28.000Z</time>
</trkpt>
<trkpt lat="56.533756" lon="8.120771">
<ele>-9.707755</ele>
<time>2026-07-13T12:30:29.000Z</time>
</trkpt>
<trkpt lat="56.533794" lon="8.120823">
<ele>-9.707237</ele>
<time>2026-07-13T12:30:30.000Z</time>
</trkpt>
<trkpt lat="56.533829" lon="8.120870">
<ele>-9.706763</ele>
<time>2026-07-13T12:30:31.000Z</time>
</trkpt>
<trkpt lat="56.533867" lon="8.120920">
<ele>-9.706251</ele>
<time>2026-07-13T12:30:32.000Z</time>
</trkpt>
<trkpt lat="56.533905" lon="8.120974">
<ele>-9.705726</ele>
<time>2026-07-13T12:30:33.000Z</time>
</trkpt>
<trkpt lat="56.533939" lon="8.121023">
<ele>-9.705253</ele>
<time>2026-07-13T12:30:34.000Z</time>
</trkpt>
<trkpt lat="56.533974" lon="8.121074">
<ele>-9.704764</ele>
<time>2026-07-13T12:30:35.000Z</time>
</trkpt>
<trkpt lat="56.534004" lon="8.121124">
<ele>-9.704320</ele>
<time>2026-07-13T12:30:36.000Z</time>
</trkpt>
<trkpt lat="56.534039" lon="8.121174">
<ele>-9.703835</ele>
<time>2026-07-13T12:30:37.000Z</time>
</trkpt>
<trkpt lat="56.534069" lon="8.121227">
<ele>-9.703379</ele>
<time>2026-07-13T12:30:38.000Z</time>
</trkpt>
<trkpt lat="56.534103" lon="8.121280">
<ele>-9.702891</ele>
<time>2026-07-13T12:30:39.000Z</time>
</trkpt>
<trkpt lat="56.534142" lon="8.121328">
<ele>-9.702378</ele>
<time>2026-07-13T12:30:40.000Z</time>
</trkpt>
<trkpt lat="56.534176" lon="8.121374">
<ele>-9.701916</ele>
<time>2026-07-13T12:30:41.000Z</time>
</trkpt>
<trkpt lat="56.534214" lon="8.121416">
<ele>-9.701431</ele>
<time>2026-07-13T12:30:42.000Z</time>
</trkpt>
<trkpt lat="56.534248" lon="8.121456">
<ele>-9.700990</ele>
<time>2026-07-13T12:30:43.000Z</time>
</trkpt>
<trkpt lat="56.534283" lon="8.121498">
<ele>-9.700533</ele>
<time>2026-07-13T12:30:44.000Z</time>
</trkpt>
<trkpt lat="56.534317" lon="8.121541">
<ele>-9.700081</ele>
<time>2026-07-13T12:30:45.000Z</time>
</trkpt>
<trkpt lat="56.534355" lon="8.121585">
<ele>-9.699590</ele>
<time>2026-07-13T12:30:46.000Z</time>
</trkpt>
<trkpt lat="56.534390" lon="8.121626">
<ele>-9.699137</ele>
<time>2026-07-13T12:30:47.000Z</time>
</trkpt>
<trkpt lat="56.534424" lon="8.121665">
<ele>-9.698699</ele>
<time>2026-07-13T12:30:48.000Z</time>
</trkpt>
<trkpt lat="56.534454" lon="8.121706">
<ele>-9.698290</ele>
<time>2026-07-13T12:30:49.000Z</time>
</trkpt>
<trkpt lat="56.534481" lon="8.121759">
<ele>-9.697856</ele>
<time>2026-07-13T12:30:50.000Z</time>
</trkpt>
<trkpt lat="56.534508" lon="8.121824">
<ele>-9.697392</ele>
<time>2026-07-13T12:30:51.000Z</time>
</trkpt>
<trkpt lat="56.534523" lon="8.121896">
<ele>-9.697147</ele>
<time>2026-07-13T12:30:52.000Z</time>
</trkpt>
<trkpt lat="56.534531" lon="8.121973">
<ele>-9.696898</ele>
<time>2026-07-13T12:30:53.000Z</time>
</trkpt>
<trkpt lat="56.534538" lon="8.122049">
<ele>-9.696653</ele>
<time>2026-07-13T12:30:54.000Z</time>
</trkpt>
<trkpt lat="56.534546" lon="8.122129">
<ele>-9.696394</ele>
<time>2026-07-13T12:30:55.000Z</time>
</trkpt>
<trkpt lat="56.534557" lon="8.122209">
<ele>-9.696132</ele>
<time>2026-07-13T12:30:56.000Z</time>
</trkpt>
<trkpt lat="56.534569" lon="8.122285">
<ele>-9.695880</ele>
<time>2026-07-13T12:30:57.000Z</time>
</trkpt>
<trkpt lat="56.534576" lon="8.122361">
<ele>-9.695635</ele>
<time>2026-07-13T12:30:58.000Z</time>
</trkpt>
<trkpt lat="56.534584" lon="8.122438">
<ele>-9.695385</ele>
<time>2026-07-13T12:30:59.000Z</time>
</trkpt>
<trkpt lat="56.534588" lon="8.122516">
<ele>-9.695136</ele>
<time>2026-07-13T12:31:00.000Z</time>
</trkpt>
<trkpt lat="56.534592" lon="8.122593">
<ele>-9.694890</ele>
<time>2026-07-13T12:31:01.000Z</time>
</trkpt>
<trkpt lat="56.534595" lon="8.122671">
<ele>-9.694641</ele>
<time>2026-07-13T12:31:02.000Z</time>
</trkpt>
<trkpt lat="56.534603" lon="8.122747">
<ele>-9.694395</ele>
<time>2026-07-13T12:31:03.000Z</time>
</trkpt>
<trkpt lat="56.534607" lon="8.122818">
<ele>-9.694167</ele>
<time>2026-07-13T12:31:04.000Z</time>
</trkpt>
<trkpt lat="56.534618" lon="8.122890">
<ele>-9.693930</ele>
<time>2026-07-13T12:31:05.000Z</time>
</trkpt>
<trkpt lat="56.534630" lon="8.122964">
<ele>-9.693684</ele>
<time>2026-07-13T12:31:06.000Z</time>
</trkpt>
<trkpt lat="56.534641" lon="8.123039">
<ele>-9.693437</ele>
<time>2026-07-13T12:31:07.000Z</time>
</trkpt>
<trkpt lat="56.534653" lon="8.123114">
<ele>-9.693188</ele>
<time>2026-07-13T12:31:08.000Z</time>
</trkpt>
<trkpt lat="56.534664" lon="8.123194">
<ele>-9.692926</ele>
<time>2026-07-13T12:31:09.000Z</time>
</trkpt>
<trkpt lat="56.534676" lon="8.123271">
<ele>-9.692671</ele>
<time>2026-07-13T12:31:10.000Z</time>
</trkpt>
<trkpt lat="56.534695" lon="8.123348">
<ele>-9.692403</ele>
<time>2026-07-13T12:31:11.000Z</time>
</trkpt>
<trkpt lat="56.534710" lon="8.123422">
<ele>-9.692152</ele>
<time>2026-07-13T12:31:12.000Z</time>
</trkpt>
<trkpt lat="56.534725" lon="8.123499">
<ele>-9.691892</ele>
<time>2026-07-13T12:31:13.000Z</time>
</trkpt>
<trkpt lat="56.534748" lon="8.123575">
<ele>-9.691616</ele>
<time>2026-07-13T12:31:14.000Z</time>
</trkpt>
<trkpt lat="56.534767" lon="8.123651">
<ele>-9.691350</ele>
<time>2026-07-13T12:31:15.000Z</time>
</trkpt>
<trkpt lat="56.534790" lon="8.123730">
<ele>-9.691066</ele>
<time>2026-07-13T12:31:16.000Z</time>
</trkpt>
<trkpt lat="56.534813" lon="8.123808">
<ele>-9.690784</ele>
<time>2026-07-13T12:31:17.000Z</time>
</trkpt>
<trkpt lat="56.534836" lon="8.123886">
<ele>-9.690503</ele>
<time>2026-07-13T12:31:18.000Z</time>
</trkpt>
<trkpt lat="56.534859" lon="8.123963">
<ele>-9.690224</ele>
<time>2026-07-13T12:31:19.000Z</time>
</trkpt>
<trkpt lat="56.534882" lon="8.124030">
<ele>-9.689973</ele>
<time>2026-07-13T12:31:20.000Z</time>
</trkpt>
<trkpt lat="56.534916" lon="8.124106">
<ele>-9.689661</ele>
<time>2026-07-13T12:31:21.000Z</time>
</trkpt>
<trkpt lat="56.534943" lon="8.124182">
<ele>-9.689374</ele>
<time>2026-07-13T12:31:22.000Z</time>
</trkpt>
<trkpt lat="56.534969" lon="8.124251">
<ele>-9.689108</ele>
<time>2026-07-13T12:31:23.000Z</time>
</trkpt>
<trkpt lat="56.535000" lon="8.124318">
<ele>-9.688829</ele>
<time>2026-07-13T12:31:24.000Z</time>
</trkpt>
<trkpt lat="56.535027" lon="8.124380">
<ele>-9.688578</ele>
<time>2026-07-13T12:31:25.000Z</time>
</trkpt>
<trkpt lat="56.535057" lon="8.124446">
<ele>-9.688305</ele>
<time>2026-07-13T12:31:26.000Z</time>
</trkpt>
<trkpt lat="56.535088" lon="8.124511">
<ele>-9.688032</ele>
<time>2026-07-13T12:31:27.000Z</time>
</trkpt>
<trkpt lat="56.535114" lon="8.124576">
<ele>-9.687776</ele>
<time>2026-07-13T12:31:28.000Z</time>
</trkpt>
<trkpt lat="56.535145" lon="8.124642">
<ele>-9.687500</ele>
<time>2026-07-13T12:31:29.000Z</time>
</trkpt>
<trkpt lat="56.535175" lon="8.124709">
<ele>-9.687226</ele>
<time>2026-07-13T12:31:30.000Z</time>
</trkpt>
<trkpt lat="56.535206" lon="8.124773">
<ele>-9.685893</ele>
<time>2026-07-13T12:31:31.000Z</time>
</trkpt>
<trkpt lat="56.535240" lon="8.124839">
<ele>-9.681945</ele>
<time>2026-07-13T12:31:32.000Z</time>
</trkpt>
<trkpt lat="56.535271" lon="8.124905">
<ele>-9.678156</ele>
<time>2026-07-13T12:31:33.000Z</time>
</trkpt>
<trkpt lat="56.535297" lon="8.124972">
<ele>-9.674576</ele>
<time>2026-07-13T12:31:34.000Z</time>
</trkpt>
<trkpt lat="56.535328" lon="8.125041">
<ele>-9.670686</ele>
<time>2026-07-13T12:31:35.000Z</time>
</trkpt>
<trkpt lat="56.535355" lon="8.125114">
<ele>-9.666845</ele>
<time>2026-07-13T12:31:36.000Z</time>
</trkpt>
<trkpt lat="56.535381" lon="8.125189">
<ele>-9.662973</ele>
<time>2026-07-13T12:31:37.000Z</time>
</trkpt>
<trkpt lat="56.535408" lon="8.125262">
<ele>-9.659132</ele>
<time>2026-07-13T12:31:38.000Z</time>
</trkpt>
<trkpt lat="56.535435" lon="8.125336">
<ele>-9.655254</ele>
<time>2026-07-13T12:31:39.000Z</time>
</trkpt>
<trkpt lat="56.535461" lon="8.125410">
<ele>-9.651419</ele>
<time>2026-07-13T12:31:40.000Z</time>
</trkpt>
<trkpt lat="56.535480" lon="8.125485">
<ele>-9.647812</ele>
<time>2026-07-13T12:31:41.000Z</time>
</trkpt>
<trkpt lat="56.535507" lon="8.125565">
<ele>-9.643713</ele>
<time>2026-07-13T12:31:42.000Z</time>
</trkpt>
<trkpt lat="56.535530" lon="8.125639">
<ele>-9.640001</ele>
<time>2026-07-13T12:31:43.000Z</time>
</trkpt>
<trkpt lat="56.535557" lon="8.125716">
<ele>-9.636013</ele>
<time>2026-07-13T12:31:44.000Z</time>
</trkpt>
<trkpt lat="56.535580" lon="8.125796">
<ele>-9.632070</ele>
<time>2026-07-13T12:31:45.000Z</time>
</trkpt>
<trkpt lat="56.535603" lon="8.125877">
<ele>-9.628088</ele>
<time>2026-07-13T12:31:46.000Z</time>
</trkpt>
<trkpt lat="56.535625" lon="8.125960">
<ele>-9.624064</ele>
<time>2026-07-13T12:31:47.000Z</time>
</trkpt>
<trkpt lat="56.535645" lon="8.126041">
<ele>-9.620185</ele>
<time>2026-07-13T12:31:48.000Z</time>
</trkpt>
<trkpt lat="56.535667" lon="8.126121">
<ele>-9.616278</ele>
<time>2026-07-13T12:31:49.000Z</time>
</trkpt>
<trkpt lat="56.535694" lon="8.126200">
<ele>-9.612217</ele>
<time>2026-07-13T12:31:50.000Z</time>
</trkpt>
<trkpt lat="56.535721" lon="8.126277">
<ele>-9.608229</ele>
<time>2026-07-13T12:31:51.000Z</time>
</trkpt>
<trkpt lat="56.535744" lon="8.126352">
<ele>-9.604478</ele>
<time>2026-07-13T12:31:52.000Z</time>
</trkpt>
<trkpt lat="56.535767" lon="8.126426">
<ele>-9.600766</ele>
<time>2026-07-13T12:31:53.000Z</time>
</trkpt>
<trkpt lat="56.535793" lon="8.126498">
<ele>-9.597005</ele>
<time>2026-07-13T12:31:54.000Z</time>
</trkpt>
<trkpt lat="56.535820" lon="8.126572">
<ele>-9.593127</ele>
<time>2026-07-13T12:31:55.000Z</time>
</trkpt>
<trkpt lat="56.535839" lon="8.126649">
<ele>-9.589440</ele>
<time>2026-07-13T12:31:56.000Z</time>
</trkpt>
<trkpt lat="56.535858" lon="8.126729">
<ele>-9.585634</ele>
<time>2026-07-13T12:31:57.000Z</time>
</trkpt>
<trkpt lat="56.535877" lon="8.126807">
<ele>-9.581907</ele>
<time>2026-07-13T12:31:58.000Z</time>
</trkpt>
<trkpt lat="56.535900" lon="8.126882">
<ele>-9.578157</ele>
<time>2026-07-13T12:31:59.000Z</time>
</trkpt>
<trkpt lat="56.535919" lon="8.126956">
<ele>-9.574589</ele>
<time>2026-07-13T12:32:00.000Z</time>
</trkpt>
<trkpt lat="56.535942" lon="8.127034">
<ele>-9.570724</ele>
<time>2026-07-13T12:32:01.000Z</time>
</trkpt>
<trkpt lat="56.535961" lon="8.127116">
<ele>-9.566837</ele>
<time>2026-07-13T12:32:02.000Z</time>
</trkpt>
<trkpt lat="56.535980" lon="8.127199">
<ele>-9.562909</ele>
<time>2026-07-13T12:32:03.000Z</time>
</trkpt>
<trkpt lat="56.535999" lon="8.127282">
<ele>-9.558982</ele>
<time>2026-07-13T12:32:04.000Z</time>
</trkpt>
<trkpt lat="56.536018" lon="8.127364">
<ele>-9.555095</ele>
<time>2026-07-13T12:32:05.000Z</time>
</trkpt>
<trkpt lat="56.536041" lon="8.127446">
<ele>-9.551074</ele>
<time>2026-07-13T12:32:06.000Z</time>
</trkpt>
<trkpt lat="56.536064" lon="8.127524">
<ele>-9.547209</ele>
<time>2026-07-13T12:32:07.000Z</time>
</trkpt>
<trkpt lat="56.536091" lon="8.127602">
<ele>-9.539805</ele>
<time>2026-07-13T12:32:08.000Z</time>
</trkpt>
<trkpt lat="56.536118" lon="8.127678">
<ele>-9.525613</ele>
<time>2026-07-13T12:32:09.000Z</time>
</trkpt>
<trkpt lat="56.536140" lon="8.127754">
<ele>-9.512139</ele>
<time>2026-07-13T12:32:10.000Z</time>
</trkpt>
<trkpt lat="56.536167" lon="8.127834">
<ele>-9.497415</ele>
<time>2026-07-13T12:32:11.000Z</time>
</trkpt>
<trkpt lat="56.536190" lon="8.127912">
<ele>-9.483530</ele>
<time>2026-07-13T12:32:12.000Z</time>
</trkpt>
<trkpt lat="56.536217" lon="8.127990">
<ele>-9.469074</ele>
<time>2026-07-13T12:32:13.000Z</time>
</trkpt>
<trkpt lat="56.536247" lon="8.128067">
<ele>-9.454274</ele>
<time>2026-07-13T12:32:14.000Z</time>
</trkpt>
<trkpt lat="56.536274" lon="8.128140">
<ele>-9.440475</ele>
<time>2026-07-13T12:32:15.000Z</time>
</trkpt>
<trkpt lat="56.536304" lon="8.128219">
<ele>-9.425418</ele>
<time>2026-07-13T12:32:16.000Z</time>
</trkpt>
<trkpt lat="56.536331" lon="8.128295">
<ele>-9.411226</ele>
<time>2026-07-13T12:32:17.000Z</time>
</trkpt>
<trkpt lat="56.536358" lon="8.128370">
<ele>-9.397166</ele>
<time>2026-07-13T12:32:18.000Z</time>
</trkpt>
<trkpt lat="56.536388" lon="8.128445">
<ele>-9.382621</ele>
<time>2026-07-13T12:32:19.000Z</time>
</trkpt>
<trkpt lat="56.536419" lon="8.128517">
<ele>-9.368282</ele>
<time>2026-07-13T12:32:20.000Z</time>
</trkpt>
<trkpt lat="56.536449" lon="8.128591">
<ele>-9.353864</ele>
<time>2026-07-13T12:32:21.000Z</time>
</trkpt>
<trkpt lat="56.536480" lon="8.128665">
<ele>-9.339276</ele>
<time>2026-07-13T12:32:22.000Z</time>
</trkpt>
<trkpt lat="56.536510" lon="8.128737">
<ele>-9.325110</ele>
<time>2026-07-13T12:32:23.000Z</time>
</trkpt>
<trkpt lat="56.536541" lon="8.128809">
<ele>-9.310770</ele>
<time>2026-07-13T12:32:24.000Z</time>
</trkpt>
<trkpt lat="56.536571" lon="8.128885">
<ele>-9.296098</ele>
<time>2026-07-13T12:32:25.000Z</time>
</trkpt>
<trkpt lat="56.536602" lon="8.128961">
<ele>-9.281259</ele>
<time>2026-07-13T12:32:26.000Z</time>
</trkpt>
<trkpt lat="56.536633" lon="8.129033">
<ele>-9.266920</ele>
<time>2026-07-13T12:32:27.000Z</time>
</trkpt>
<trkpt lat="56.536663" lon="8.129105">
<ele>-9.252754</ele>
<time>2026-07-13T12:32:28.000Z</time>
</trkpt>
<trkpt lat="56.536697" lon="8.129174">
<ele>-9.238228</ele>
<time>2026-07-13T12:32:29.000Z</time>
</trkpt>
<trkpt lat="56.536728" lon="8.129242">
<ele>-9.224378</ele>
<time>2026-07-13T12:32:30.000Z</time>
</trkpt>
<trkpt lat="56.536762" lon="8.129312">
<ele>-9.209735</ele>
<time>2026-07-13T12:32:31.000Z</time>
</trkpt>
<trkpt lat="56.536793" lon="8.129381">
<ele>-9.195763</ele>
<time>2026-07-13T12:32:32.000Z</time>
</trkpt>
<trkpt lat="56.536827" lon="8.129451">
<ele>-9.181120</ele>
<time>2026-07-13T12:32:33.000Z</time>
</trkpt>
<trkpt lat="56.536861" lon="8.129519">
<ele>-9.166711</ele>
<time>2026-07-13T12:32:34.000Z</time>
</trkpt>
<trkpt lat="56.536896" lon="8.129585">
<ele>-9.152337</ele>
<time>2026-07-13T12:32:35.000Z</time>
</trkpt>
<trkpt lat="56.536926" lon="8.129651">
<ele>-9.138910</ele>
<time>2026-07-13T12:32:36.000Z</time>
</trkpt>
<trkpt lat="56.536961" lon="8.129720">
<ele>-9.124193</ele>
<time>2026-07-13T12:32:37.000Z</time>
</trkpt>
<trkpt lat="56.536995" lon="8.129787">
<ele>-9.109900</ele>
<time>2026-07-13T12:32:38.000Z</time>
</trkpt>
<trkpt lat="56.537029" lon="8.129852">
<ele>-9.095836</ele>
<time>2026-07-13T12:32:39.000Z</time>
</trkpt>
<trkpt lat="56.537060" lon="8.129918">
<ele>-9.082227</ele>
<time>2026-07-13T12:32:40.000Z</time>
</trkpt>
<trkpt lat="56.537094" lon="8.129986">
<ele>-9.067818</ele>
<time>2026-07-13T12:32:41.000Z</time>
</trkpt>
<trkpt lat="56.537125" lon="8.130054">
<ele>-9.053968</ele>
<time>2026-07-13T12:32:42.000Z</time>
</trkpt>
<trkpt lat="56.537159" lon="8.130120">
<ele>-9.039790</ele>
<time>2026-07-13T12:32:43.000Z</time>
</trkpt>
<trkpt lat="56.537193" lon="8.130187">
<ele>-9.021146</ele>
<time>2026-07-13T12:32:44.000Z</time>
</trkpt>
<trkpt lat="56.537228" lon="8.130255">
<ele>-8.997405</ele>
<time>2026-07-13T12:32:45.000Z</time>
</trkpt>
<trkpt lat="56.537266" lon="8.130322">
<ele>-8.972875</ele>
<time>2026-07-13T12:32:46.000Z</time>
</trkpt>
<trkpt lat="56.537296" lon="8.130389">
<ele>-8.950848</ele>
<time>2026-07-13T12:32:47.000Z</time>
</trkpt>
<trkpt lat="56.537331" lon="8.130460">
<ele>-8.926542</ele>
<time>2026-07-13T12:32:48.000Z</time>
</trkpt>
<trkpt lat="56.537365" lon="8.130527">
<ele>-8.903303</ele>
<time>2026-07-13T12:32:49.000Z</time>
</trkpt>
<trkpt lat="56.537396" lon="8.130595">
<ele>-8.880786</ele>
<time>2026-07-13T12:32:50.000Z</time>
</trkpt>
<trkpt lat="56.537430" lon="8.130664">
<ele>-8.857169</ele>
<time>2026-07-13T12:32:51.000Z</time>
</trkpt>
<trkpt lat="56.537464" lon="8.130729">
<ele>-8.834303</ele>
<time>2026-07-13T12:32:52.000Z</time>
</trkpt>
<trkpt lat="56.537502" lon="8.130798">
<ele>-8.809415</ele>
<time>2026-07-13T12:32:53.000Z</time>
</trkpt>
<trkpt lat="56.537537" lon="8.130866">
<ele>-8.785674</ele>
<time>2026-07-13T12:32:54.000Z</time>
</trkpt>
<trkpt lat="56.537571" lon="8.130935">
<ele>-8.762058</ele>
<time>2026-07-13T12:32:55.000Z</time>
</trkpt>
<trkpt lat="56.537605" lon="8.131003">
<ele>-8.738631</ele>
<time>2026-07-13T12:32:56.000Z</time>
</trkpt>
<trkpt lat="56.537640" lon="8.131073">
<ele>-8.714515</ele>
<time>2026-07-13T12:32:57.000Z</time>
</trkpt>
<trkpt lat="56.537674" lon="8.131143">
<ele>-8.690707</ele>
<time>2026-07-13T12:32:58.000Z</time>
</trkpt>
<trkpt lat="56.537708" lon="8.131213">
<ele>-8.666900</ele>
<time>2026-07-13T12:32:59.000Z</time>
</trkpt>
<trkpt lat="56.537743" lon="8.131280">
<ele>-8.643345</ele>
<time>2026-07-13T12:33:00.000Z</time>
</trkpt>
<trkpt lat="56.537777" lon="8.131344">
<ele>-8.620664</ele>
<time>2026-07-13T12:33:01.000Z</time>
</trkpt>
<trkpt lat="56.537811" lon="8.131410">
<ele>-8.597613</ele>
<time>2026-07-13T12:33:02.000Z</time>
</trkpt>
<trkpt lat="56.537842" lon="8.131475">
<ele>-8.575680</ele>
<time>2026-07-13T12:33:03.000Z</time>
</trkpt>
<trkpt lat="56.537872" lon="8.131540">
<ele>-8.554047</ele>
<time>2026-07-13T12:33:04.000Z</time>
</trkpt>
<trkpt lat="56.537907" lon="8.131605">
<ele>-8.530861</ele>
<time>2026-07-13T12:33:05.000Z</time>
</trkpt>
<trkpt lat="56.537941" lon="8.131669">
<ele>-8.508180</ele>
<time>2026-07-13T12:33:06.000Z</time>
</trkpt>
<trkpt lat="56.537975" lon="8.131730">
<ele>-8.486044</ele>
<time>2026-07-13T12:33:07.000Z</time>
</trkpt>
<trkpt lat="56.538013" lon="8.131793">
<ele>-8.462214</ele>
<time>2026-07-13T12:33:08.000Z</time>
</trkpt>
<trkpt lat="56.538048" lon="8.131854">
<ele>-8.439746</ele>
<time>2026-07-13T12:33:09.000Z</time>
</trkpt>
<trkpt lat="56.538082" lon="8.131917">
<ele>-8.417249</ele>
<time>2026-07-13T12:33:10.000Z</time>
</trkpt>
<trkpt lat="56.538116" lon="8.131976">
<ele>-8.395469</ele>
<time>2026-07-13T12:33:11.000Z</time>
</trkpt>
<trkpt lat="56.538151" lon="8.132032">
<ele>-8.373866</ele>
<time>2026-07-13T12:33:12.000Z</time>
</trkpt>
<trkpt lat="56.538185" lon="8.132087">
<ele>-8.352779</ele>
<time>2026-07-13T12:33:13.000Z</time>
</trkpt>
<trkpt lat="56.538227" lon="8.132140">
<ele>-8.329096</ele>
<time>2026-07-13T12:33:14.000Z</time>
</trkpt>
<trkpt lat="56.538269" lon="8.132194">
<ele>-8.305267</ele>
<time>2026-07-13T12:33:15.000Z</time>
</trkpt>
<trkpt lat="56.538307" lon="8.132244">
<ele>-8.283538</ele>
<time>2026-07-13T12:33:16.000Z</time>
</trkpt>
<trkpt lat="56.538345" lon="8.132293">
<ele>-8.261957</ele>
<time>2026-07-13T12:33:17.000Z</time>
</trkpt>
<trkpt lat="56.538387" lon="8.132347">
<ele>-8.238128</ele>
<time>2026-07-13T12:33:18.000Z</time>
</trkpt>
<trkpt lat="56.538425" lon="8.132403">
<ele>-8.215465</ele>
<time>2026-07-13T12:33:19.000Z</time>
</trkpt>
<trkpt lat="56.538464" lon="8.132457">
<ele>-8.193573</ele>
<time>2026-07-13T12:33:20.000Z</time>
</trkpt>
<trkpt lat="56.538506" lon="8.132509">
<ele>-8.172714</ele>
<time>2026-07-13T12:33:21.000Z</time>
</trkpt>
<trkpt lat="56.538548" lon="8.132564">
<ele>-8.151465</ele>
<time>2026-07-13T12:33:22.000Z</time>
</trkpt>
<trkpt lat="56.538590" lon="8.132617">
<ele>-8.130477</ele>
<time>2026-07-13T12:33:23.000Z</time>
</trkpt>
<trkpt lat="56.538631" lon="8.132669">
<ele>-8.109955</ele>
<time>2026-07-13T12:33:24.000Z</time>
</trkpt>
<trkpt lat="56.538673" lon="8.132722">
<ele>-8.088967</ele>
<time>2026-07-13T12:33:25.000Z</time>
</trkpt>
<trkpt lat="56.538715" lon="8.132774">
<ele>-8.068108</ele>
<time>2026-07-13T12:33:26.000Z</time>
</trkpt>
<trkpt lat="56.538754" lon="8.132826">
<ele>-8.048252</ele>
<time>2026-07-13T12:33:27.000Z</time>
</trkpt>
<trkpt lat="56.538795" lon="8.132877">
<ele>-8.027859</ele>
<time>2026-07-13T12:33:28.000Z</time>
</trkpt>
<trkpt lat="56.538834" lon="8.132926">
<ele>-8.008398</ele>
<time>2026-07-13T12:33:29.000Z</time>
</trkpt>
<trkpt lat="56.538876" lon="8.132980">
<ele>-7.987281</ele>
<time>2026-07-13T12:33:30.000Z</time>
</trkpt>
<trkpt lat="56.538918" lon="8.133033">
<ele>-7.966293</ele>
<time>2026-07-13T12:33:31.000Z</time>
</trkpt>
<trkpt lat="56.538959" lon="8.133084">
<ele>-7.945900</ele>
<time>2026-07-13T12:33:32.000Z</time>
</trkpt>
<trkpt lat="56.539005" lon="8.133136">
<ele>-7.923666</ele>
<time>2026-07-13T12:33:33.000Z</time>
</trkpt>
<trkpt lat="56.539047" lon="8.133186">
<ele>-7.903058</ele>
<time>2026-07-13T12:33:34.000Z</time>
</trkpt>
<trkpt lat="56.539085" lon="8.133238">
<ele>-7.883532</ele>
<time>2026-07-13T12:33:35.000Z</time>
</trkpt>
<trkpt lat="56.539127" lon="8.133289">
<ele>-7.862799</ele>
<time>2026-07-13T12:33:36.000Z</time>
</trkpt>
<trkpt lat="56.539169" lon="8.133338">
<ele>-7.842315</ele>
<time>2026-07-13T12:33:37.000Z</time>
</trkpt>
<trkpt lat="56.539211" lon="8.133384">
<ele>-7.822189</ele>
<time>2026-07-13T12:33:38.000Z</time>
</trkpt>
<trkpt lat="56.539253" lon="8.133429">
<ele>-7.802180</ele>
<time>2026-07-13T12:33:39.000Z</time>
</trkpt>
<trkpt lat="56.539295" lon="8.133476">
<ele>-7.781937</ele>
<time>2026-07-13T12:33:40.000Z</time>
</trkpt>
<trkpt lat="56.539337" lon="8.133524">
<ele>-7.761574</ele>
<time>2026-07-13T12:33:41.000Z</time>
</trkpt>
<trkpt lat="56.539379" lon="8.133569">
<ele>-7.741564</ele>
<time>2026-07-13T12:33:42.000Z</time>
</trkpt>
<trkpt lat="56.539417" lon="8.133616">
<ele>-7.722697</ele>
<time>2026-07-13T12:33:43.000Z</time>
</trkpt>
<trkpt lat="56.539463" lon="8.133665">
<ele>-7.700815</ele>
<time>2026-07-13T12:33:44.000Z</time>
</trkpt>
<trkpt lat="56.539505" lon="8.133715">
<ele>-7.680207</ele>
<time>2026-07-13T12:33:45.000Z</time>
</trkpt>
<trkpt lat="56.539547" lon="8.133764">
<ele>-7.659723</ele>
<time>2026-07-13T12:33:46.000Z</time>
</trkpt>
<trkpt lat="56.539589" lon="8.133816">
<ele>-7.638864</ele>
<time>2026-07-13T12:33:47.000Z</time>
</trkpt>
<trkpt lat="56.539635" lon="8.133866">
<ele>-7.616866</ele>
<time>2026-07-13T12:33:48.000Z</time>
</trkpt>
<trkpt lat="56.539677" lon="8.133917">
<ele>-7.596133</ele>
<time>2026-07-13T12:33:49.000Z</time>
</trkpt>
<trkpt lat="56.539722" lon="8.133968">
<ele>-7.574368</ele>
<time>2026-07-13T12:33:50.000Z</time>
</trkpt>
<trkpt lat="56.539768" lon="8.134020">
<ele>-7.552134</ele>
<time>2026-07-13T12:33:51.000Z</time>
</trkpt>
<trkpt lat="56.539810" lon="8.134069">
<ele>-7.531650</ele>
<time>2026-07-13T12:33:52.000Z</time>
</trkpt>
<trkpt lat="56.539856" lon="8.134119">
<ele>-7.509652</ele>
<time>2026-07-13T12:33:53.000Z</time>
</trkpt>
<trkpt lat="56.539898" lon="8.134170">
<ele>-7.488919</ele>
<time>2026-07-13T12:33:54.000Z</time>
</trkpt>
<trkpt lat="56.539940" lon="8.134217">
<ele>-7.468676</ele>
<time>2026-07-13T12:33:55.000Z</time>
</trkpt>
<trkpt lat="56.539982" lon="8.134264">
<ele>-7.480298</ele>
<time>2026-07-13T12:33:56.000Z</time>
</trkpt>
<trkpt lat="56.540024" lon="8.134311">
<ele>-7.507031</ele>
<time>2026-07-13T12:33:57.000Z</time>
</trkpt>
<trkpt lat="56.540070" lon="8.134359">
<ele>-7.535778</ele>
<time>2026-07-13T12:33:58.000Z</time>
</trkpt>
<trkpt lat="56.540112" lon="8.134407">
<ele>-7.562669</ele>
<time>2026-07-13T12:33:59.000Z</time>
</trkpt>
<trkpt lat="56.540153" lon="8.134456">
<ele>-7.589266</ele>
<time>2026-07-13T12:34:00.000Z</time>
</trkpt>
<trkpt lat="56.540199" lon="8.134504">
<ele>-7.618013</ele>
<time>2026-07-13T12:34:01.000Z</time>
</trkpt>
<trkpt lat="56.540245" lon="8.134554">
<ele>-7.647063</ele>
<time>2026-07-13T12:34:02.000Z</time>
</trkpt>
<trkpt lat="56.540287" lon="8.134604">
<ele>-7.674276</ele>
<time>2026-07-13T12:34:03.000Z</time>
</trkpt>
<trkpt lat="56.540333" lon="8.134653">
<ele>-7.703174</ele>
<time>2026-07-13T12:34:04.000Z</time>
</trkpt>
<trkpt lat="56.540379" lon="8.134702">
<ele>-7.732071</ele>
<time>2026-07-13T12:34:05.000Z</time>
</trkpt>
<trkpt lat="56.540421" lon="8.134751">
<ele>-7.759122</ele>
<time>2026-07-13T12:34:06.000Z</time>
</trkpt>
<trkpt lat="56.540466" lon="8.134803">
<ele>-7.788024</ele>
<time>2026-07-13T12:34:07.000Z</time>
</trkpt>
<trkpt lat="56.540512" lon="8.134853">
<ele>-7.817074</ele>
<time>2026-07-13T12:34:08.000Z</time>
</trkpt>
<trkpt lat="56.540558" lon="8.134897">
<ele>-7.845244</ele>
<time>2026-07-13T12:34:09.000Z</time>
</trkpt>
<trkpt lat="56.540604" lon="8.134942">
<ele>-7.873555</ele>
<time>2026-07-13T12:34:10.000Z</time>
</trkpt>
<trkpt lat="56.540649" lon="8.134988">
<ele>-7.901536</ele>
<time>2026-07-13T12:34:11.000Z</time>
</trkpt>
<trkpt lat="56.540695" lon="8.135031">
<ele>-7.929568</ele>
<time>2026-07-13T12:34:12.000Z</time>
</trkpt>
<trkpt lat="56.540745" lon="8.135073">
<ele>-7.959416</ele>
<time>2026-07-13T12:34:13.000Z</time>
</trkpt>
<trkpt lat="56.540787" lon="8.135114">
<ele>-7.985252</ele>
<time>2026-07-13T12:34:14.000Z</time>
</trkpt>
<trkpt lat="56.540833" lon="8.135155">
<ele>-8.013016</ele>
<time>2026-07-13T12:34:15.000Z</time>
</trkpt>
<trkpt lat="56.540878" lon="8.135196">
<ele>-8.040295</ele>
<time>2026-07-13T12:34:16.000Z</time>
</trkpt>
<trkpt lat="56.540920" lon="8.135238">
<ele>-8.066274</ele>
<time>2026-07-13T12:34:17.000Z</time>
</trkpt>
<trkpt lat="56.540966" lon="8.135280">
<ele>-8.094171</ele>
<time>2026-07-13T12:34:18.000Z</time>
</trkpt>
<trkpt lat="56.541012" lon="8.135323">
<ele>-8.122203</ele>
<time>2026-07-13T12:34:19.000Z</time>
</trkpt>
<trkpt lat="56.541058" lon="8.135364">
<ele>-8.149966</ele>
<time>2026-07-13T12:34:20.000Z</time>
</trkpt>
<trkpt lat="56.541103" lon="8.135407">
<ele>-8.177518</ele>
<time>2026-07-13T12:34:21.000Z</time>
</trkpt>
<trkpt lat="56.541149" lon="8.135448">
<ele>-8.205282</ele>
<time>2026-07-13T12:34:22.000Z</time>
</trkpt>
<trkpt lat="56.541195" lon="8.135489">
<ele>-8.233045</ele>
<time>2026-07-13T12:34:23.000Z</time>
</trkpt>
<trkpt lat="56.541241" lon="8.135532">
<ele>-8.261077</ele>
<time>2026-07-13T12:34:24.000Z</time>
</trkpt>
<trkpt lat="56.541286" lon="8.135575">
<ele>-8.288629</ele>
<time>2026-07-13T12:34:25.000Z</time>
</trkpt>
<trkpt lat="56.541332" lon="8.135617">
<ele>-8.316526</ele>
<time>2026-07-13T12:34:26.000Z</time>
</trkpt>
<trkpt lat="56.541382" lon="8.135658">
<ele>-8.346249</ele>
<time>2026-07-13T12:34:27.000Z</time>
</trkpt>
<trkpt lat="56.541428" lon="8.135701">
<ele>-8.374281</ele>
<time>2026-07-13T12:34:28.000Z</time>
</trkpt>
<trkpt lat="56.541473" lon="8.135742">
<ele>-8.401560</ele>
<time>2026-07-13T12:34:29.000Z</time>
</trkpt>
<trkpt lat="56.541519" lon="8.135783">
<ele>-8.429323</ele>
<time>2026-07-13T12:34:30.000Z</time>
</trkpt>
<trkpt lat="56.541565" lon="8.135825">
<ele>-8.436009</ele>
<time>2026-07-13T12:34:31.000Z</time>
</trkpt>
<trkpt lat="56.541611" lon="8.135868">
<ele>-8.435396</ele>
<time>2026-07-13T12:34:32.000Z</time>
</trkpt>
<trkpt lat="56.541657" lon="8.135910">
<ele>-8.434786</ele>
<time>2026-07-13T12:34:33.000Z</time>
</trkpt>
<trkpt lat="56.541698" lon="8.135950">
<ele>-8.434235</ele>
<time>2026-07-13T12:34:34.000Z</time>
</trkpt>
<trkpt lat="56.541744" lon="8.135992">
<ele>-8.433625</ele>
<time>2026-07-13T12:34:35.000Z</time>
</trkpt>
<trkpt lat="56.541790" lon="8.136035">
<ele>-8.433012</ele>
<time>2026-07-13T12:34:36.000Z</time>
</trkpt>
<trkpt lat="56.541836" lon="8.136075">
<ele>-8.432408</ele>
<time>2026-07-13T12:34:37.000Z</time>
</trkpt>
<trkpt lat="56.541882" lon="8.136114">
<ele>-8.431807</ele>
<time>2026-07-13T12:34:38.000Z</time>
</trkpt>
<trkpt lat="56.541927" lon="8.136153">
<ele>-8.431216</ele>
<time>2026-07-13T12:34:39.000Z</time>
</trkpt>
<trkpt lat="56.541973" lon="8.136194">
<ele>-8.430609</ele>
<time>2026-07-13T12:34:40.000Z</time>
</trkpt>
<trkpt lat="56.542019" lon="8.136236">
<ele>-8.429999</ele>
<time>2026-07-13T12:34:41.000Z</time>
</trkpt>
<trkpt lat="56.542065" lon="8.136279">
<ele>-8.429387</ele>
<time>2026-07-13T12:34:42.000Z</time>
</trkpt>
<trkpt lat="56.542110" lon="8.136323">
<ele>-8.428781</ele>
<time>2026-07-13T12:34:43.000Z</time>
</trkpt>
<trkpt lat="56.542156" lon="8.136366">
<ele>-8.428168</ele>
<time>2026-07-13T12:34:44.000Z</time>
</trkpt>
<trkpt lat="56.542202" lon="8.136407">
<ele>-8.427561</ele>
<time>2026-07-13T12:34:45.000Z</time>
</trkpt>
<trkpt lat="56.542248" lon="8.136448">
<ele>-8.426954</ele>
<time>2026-07-13T12:34:46.000Z</time>
</trkpt>
<trkpt lat="56.542294" lon="8.136491">
<ele>-8.426342</ele>
<time>2026-07-13T12:34:47.000Z</time>
</trkpt>
<trkpt lat="56.542339" lon="8.136535">
<ele>-8.425736</ele>
<time>2026-07-13T12:34:48.000Z</time>
</trkpt>
<trkpt lat="56.542385" lon="8.136578">
<ele>-8.425123</ele>
<time>2026-07-13T12:34:49.000Z</time>
</trkpt>
<trkpt lat="56.542431" lon="8.136620">
<ele>-8.424513</ele>
<time>2026-07-13T12:34:50.000Z</time>
</trkpt>
<trkpt lat="56.542477" lon="8.136662">
<ele>-8.423903</ele>
<time>2026-07-13T12:34:51.000Z</time>
</trkpt>
<trkpt lat="56.542526" lon="8.136704">
<ele>-8.423262</ele>
<time>2026-07-13T12:34:52.000Z</time>
</trkpt>
<trkpt lat="56.542572" lon="8.136746">
<ele>-8.422652</ele>
<time>2026-07-13T12:34:53.000Z</time>
</trkpt>
<trkpt lat="56.542622" lon="8.136790">
<ele>-8.421994</ele>
<time>2026-07-13T12:34:54.000Z</time>
</trkpt>
<trkpt lat="56.542671" lon="8.136837">
<ele>-8.421337</ele>
<time>2026-07-13T12:34:55.000Z</time>
</trkpt>
<trkpt lat="56.542717" lon="8.136884">
<ele>-8.420712</ele>
<time>2026-07-13T12:34:56.000Z</time>
</trkpt>
<trkpt lat="56.542767" lon="8.136929">
<ele>-8.420051</ele>
<time>2026-07-13T12:34:57.000Z</time>
</trkpt>
<trkpt lat="56.542816" lon="8.136972">
<ele>-8.419406</ele>
<time>2026-07-13T12:34:58.000Z</time>
</trkpt>
<trkpt lat="56.542862" lon="8.137016">
<ele>-8.418790</ele>
<time>2026-07-13T12:34:59.000Z</time>
</trkpt>
<trkpt lat="56.542912" lon="8.137058">
<ele>-8.418138</ele>
<time>2026-07-13T12:35:00.000Z</time>
</trkpt>
<trkpt lat="56.542957" lon="8.137099">
<ele>-8.417541</ele>
<time>2026-07-13T12:35:01.000Z</time>
</trkpt>
<trkpt lat="56.543007" lon="8.137140">
<ele>-8.416892</ele>
<time>2026-07-13T12:35:02.000Z</time>
</trkpt>
<trkpt lat="56.543056" lon="8.137178">
<ele>-8.416261</ele>
<time>2026-07-13T12:35:03.000Z</time>
</trkpt>
<trkpt lat="56.543106" lon="8.137217">
<ele>-8.415616</ele>
<time>2026-07-13T12:35:04.000Z</time>
</trkpt>
<trkpt lat="56.543152" lon="8.137258">
<ele>-8.415384</ele>
<time>2026-07-13T12:35:05.000Z</time>
</trkpt>
<trkpt lat="56.543201" lon="8.137297">
<ele>-8.416300</ele>
<time>2026-07-13T12:35:06.000Z</time>
</trkpt>
<trkpt lat="56.543247" lon="8.137338">
<ele>-8.417177</ele>
<time>2026-07-13T12:35:07.000Z</time>
</trkpt>
<trkpt lat="56.543293" lon="8.137379">
<ele>-8.418055</ele>
<time>2026-07-13T12:35:08.000Z</time>
</trkpt>
<trkpt lat="56.543343" lon="8.137417">
<ele>-8.418983</ele>
<time>2026-07-13T12:35:09.000Z</time>
</trkpt>
<trkpt lat="56.543388" lon="8.137455">
<ele>-8.419833</ele>
<time>2026-07-13T12:35:10.000Z</time>
</trkpt>
<trkpt lat="56.543434" lon="8.137493">
<ele>-8.420698</ele>
<time>2026-07-13T12:35:11.000Z</time>
</trkpt>
<trkpt lat="56.543480" lon="8.137529">
<ele>-8.421556</ele>
<time>2026-07-13T12:35:12.000Z</time>
</trkpt>
<trkpt lat="56.543522" lon="8.137567">
<ele>-8.422359</ele>
<time>2026-07-13T12:35:13.000Z</time>
</trkpt>
<trkpt lat="56.543568" lon="8.137603">
<ele>-8.423217</ele>
<time>2026-07-13T12:35:14.000Z</time>
</trkpt>
<trkpt lat="56.543613" lon="8.137638">
<ele>-8.424055</ele>
<time>2026-07-13T12:35:15.000Z</time>
</trkpt>
<trkpt lat="56.543655" lon="8.137671">
<ele>-8.424839</ele>
<time>2026-07-13T12:35:16.000Z</time>
</trkpt>
<trkpt lat="56.543701" lon="8.137703">
<ele>-8.425682</ele>
<time>2026-07-13T12:35:17.000Z</time>
</trkpt>
<trkpt lat="56.543747" lon="8.137737">
<ele>-8.426533</ele>
<time>2026-07-13T12:35:18.000Z</time>
</trkpt>
<trkpt lat="56.543789" lon="8.137770">
<ele>-8.427316</ele>
<time>2026-07-13T12:35:19.000Z</time>
</trkpt>
<trkpt lat="56.543839" lon="8.137806">
<ele>-8.428237</ele>
<time>2026-07-13T12:35:20.000Z</time>
</trkpt>
<trkpt lat="56.543884" lon="8.137841">
<ele>-8.429076</ele>
<time>2026-07-13T12:35:21.000Z</time>
</trkpt>
<trkpt lat="56.543934" lon="8.137878">
<ele>-8.430000</ele>
<time>2026-07-13T12:35:22.000Z</time>
</trkpt>
<trkpt lat="56.543983" lon="8.137915">
<ele>-8.430909</ele>
<time>2026-07-13T12:35:23.000Z</time>
</trkpt>
<trkpt lat="56.544033" lon="8.137950">
<ele>-8.431826</ele>
<time>2026-07-13T12:35:24.000Z</time>
</trkpt>
<trkpt lat="56.544079" lon="8.137984">
<ele>-8.432677</ele>
<time>2026-07-13T12:35:25.000Z</time>
</trkpt>
<trkpt lat="56.544128" lon="8.138023">
<ele>-8.433593</ele>
<time>2026-07-13T12:35:26.000Z</time>
</trkpt>
<trkpt lat="56.544174" lon="8.138062">
<ele>-8.434462</ele>
<time>2026-07-13T12:35:27.000Z</time>
</trkpt>
<trkpt lat="56.544220" lon="8.138100">
<ele>-8.435327</ele>
<time>2026-07-13T12:35:28.000Z</time>
</trkpt>
<trkpt lat="56.544270" lon="8.138135">
<ele>-8.436245</ele>
<time>2026-07-13T12:35:29.000Z</time>
</trkpt>
<trkpt lat="56.544315" lon="8.138165">
<ele>-8.437066</ele>
<time>2026-07-13T12:35:30.000Z</time>
</trkpt>
<trkpt lat="56.544365" lon="8.138194">
<ele>-8.437964</ele>
<time>2026-07-13T12:35:31.000Z</time>
</trkpt>
<trkpt lat="56.544422" lon="8.138222">
<ele>-8.438975</ele>
<time>2026-07-13T12:35:32.000Z</time>
</trkpt>
<trkpt lat="56.544476" lon="8.138247">
<ele>-8.439929</ele>
<time>2026-07-13T12:35:33.000Z</time>
</trkpt>
<trkpt lat="56.544525" lon="8.138269">
<ele>-8.440794</ele>
<time>2026-07-13T12:35:34.000Z</time>
</trkpt>
<trkpt lat="56.544575" lon="8.138288">
<ele>-8.441668</ele>
<time>2026-07-13T12:35:35.000Z</time>
</trkpt>
<trkpt lat="56.544632" lon="8.138310">
<ele>-8.442666</ele>
<time>2026-07-13T12:35:36.000Z</time>
</trkpt>
<trkpt lat="56.544685" lon="8.138332">
<ele>-8.443597</ele>
<time>2026-07-13T12:35:37.000Z</time>
</trkpt>
<trkpt lat="56.544739" lon="8.138351">
<ele>-8.444538</ele>
<time>2026-07-13T12:35:38.000Z</time>
</trkpt>
<trkpt lat="56.544792" lon="8.138370">
<ele>-8.445463</ele>
<time>2026-07-13T12:35:39.000Z</time>
</trkpt>
<trkpt lat="56.544846" lon="8.138390">
<ele>-8.437225</ele>
<time>2026-07-13T12:35:40.000Z</time>
</trkpt>
<trkpt lat="56.544899" lon="8.138411">
<ele>-8.419281</ele>
<time>2026-07-13T12:35:41.000Z</time>
</trkpt>
<trkpt lat="56.544952" lon="8.138432">
<ele>-8.401337</ele>
<time>2026-07-13T12:35:42.000Z</time>
</trkpt>
<trkpt lat="56.545006" lon="8.138451">
<ele>-8.383142</ele>
<time>2026-07-13T12:35:43.000Z</time>
</trkpt>
<trkpt lat="56.545055" lon="8.138470">
<ele>-8.366568</ele>
<time>2026-07-13T12:35:44.000Z</time>
</trkpt>
<trkpt lat="56.545113" lon="8.138491">
<ele>-8.347005</ele>
<time>2026-07-13T12:35:45.000Z</time>
</trkpt>
<trkpt lat="56.545166" lon="8.138512">
<ele>-8.329061</ele>
<time>2026-07-13T12:35:46.000Z</time>
</trkpt>
<trkpt lat="56.545219" lon="8.138532">
<ele>-8.311155</ele>
<time>2026-07-13T12:35:47.000Z</time>
</trkpt>
<trkpt lat="56.545269" lon="8.138552">
<ele>-8.294219</ele>
<time>2026-07-13T12:35:48.000Z</time>
</trkpt>
<trkpt lat="56.545322" lon="8.138573">
<ele>-8.276275</ele>
<time>2026-07-13T12:35:49.000Z</time>
</trkpt>
<trkpt lat="56.545372" lon="8.138594">
<ele>-8.259298</ele>
<time>2026-07-13T12:35:50.000Z</time>
</trkpt>
<trkpt lat="56.545422" lon="8.138615">
<ele>-8.242322</ele>
<time>2026-07-13T12:35:51.000Z</time>
</trkpt>
<trkpt lat="56.545475" lon="8.138635">
<ele>-8.224416</ele>
<time>2026-07-13T12:35:52.000Z</time>
</trkpt>
<trkpt lat="56.545532" lon="8.138656">
<ele>-8.205177</ele>
<time>2026-07-13T12:35:53.000Z</time>
</trkpt>
<trkpt lat="56.545586" lon="8.138676">
<ele>-8.186947</ele>
<time>2026-07-13T12:35:54.000Z</time>
</trkpt>
<trkpt lat="56.545639" lon="8.138694">
<ele>-8.169112</ele>
<time>2026-07-13T12:35:55.000Z</time>
</trkpt>
<trkpt lat="56.545692" lon="8.138714">
<ele>-8.151206</ele>
<time>2026-07-13T12:35:56.000Z</time>
</trkpt>
<trkpt lat="56.545750" lon="8.138736">
<ele>-8.131606</ele>
<time>2026-07-13T12:35:57.000Z</time>
</trkpt>
<trkpt lat="56.545803" lon="8.138757">
<ele>-8.113662</ele>
<time>2026-07-13T12:35:58.000Z</time>
</trkpt>
<trkpt lat="56.545856" lon="8.138778">
<ele>-8.095717</ele>
<time>2026-07-13T12:35:59.000Z</time>
</trkpt>
<trkpt lat="56.545910" lon="8.138800">
<ele>-8.077411</ele>
<time>2026-07-13T12:36:00.000Z</time>
</trkpt>
<trkpt lat="56.545963" lon="8.138822">
<ele>-8.059427</ele>
<time>2026-07-13T12:36:01.000Z</time>
</trkpt>
<trkpt lat="56.546013" lon="8.138844">
<ele>-8.042409</ele>
<time>2026-07-13T12:36:02.000Z</time>
</trkpt>
<trkpt lat="56.546062" lon="8.138867">
<ele>-8.025667</ele>
<time>2026-07-13T12:36:03.000Z</time>
</trkpt>
<trkpt lat="56.546116" lon="8.138895">
<ele>-8.007090</ele>
<time>2026-07-13T12:36:04.000Z</time>
</trkpt>
<trkpt lat="56.546162" lon="8.138924">
<ele>-7.990982</ele>
<time>2026-07-13T12:36:05.000Z</time>
</trkpt>
<trkpt lat="56.546211" lon="8.138954">
<ele>-7.973876</ele>
<time>2026-07-13T12:36:06.000Z</time>
</trkpt>
<trkpt lat="56.546261" lon="8.138988">
<ele>-7.956214</ele>
<time>2026-07-13T12:36:07.000Z</time>
</trkpt>
<trkpt lat="56.546310" lon="8.139021">
<ele>-7.938925</ele>
<time>2026-07-13T12:36:08.000Z</time>
</trkpt>
<trkpt lat="56.546356" lon="8.139061">
<ele>-7.922052</ele>
<time>2026-07-13T12:36:09.000Z</time>
</trkpt>
<trkpt lat="56.546402" lon="8.139103">
<ele>-7.905017</ele>
<time>2026-07-13T12:36:10.000Z</time>
</trkpt>
<trkpt lat="56.546448" lon="8.139145">
<ele>-7.887983</ele>
<time>2026-07-13T12:36:11.000Z</time>
</trkpt>
<trkpt lat="56.546494" lon="8.139190">
<ele>-7.870696</ele>
<time>2026-07-13T12:36:12.000Z</time>
</trkpt>
<trkpt lat="56.546535" lon="8.139236">
<ele>-7.854751</ele>
<time>2026-07-13T12:36:13.000Z</time>
</trkpt>
<trkpt lat="56.546577" lon="8.139283">
<ele>-7.699685</ele>
<time>2026-07-13T12:36:14.000Z</time>
</trkpt>
<trkpt lat="56.546623" lon="8.139336">
<ele>-7.482997</ele>
<time>2026-07-13T12:36:15.000Z</time>
</trkpt>
<trkpt lat="56.546665" lon="8.139388">
<ele>-7.280800</ele>
<time>2026-07-13T12:36:16.000Z</time>
</trkpt>
<trkpt lat="56.546707" lon="8.139443">
<ele>-7.074824</ele>
<time>2026-07-13T12:36:17.000Z</time>
</trkpt>
<trkpt lat="56.546745" lon="8.139497">
<ele>-6.882880</ele>
<time>2026-07-13T12:36:18.000Z</time>
</trkpt>
<trkpt lat="56.546783" lon="8.139546">
<ele>-6.697494</ele>
<time>2026-07-13T12:36:19.000Z</time>
</trkpt>
<trkpt lat="56.546825" lon="8.139601">
<ele>-6.491519</ele>
<time>2026-07-13T12:36:20.000Z</time>
</trkpt>
<trkpt lat="56.546864" lon="8.139652">
<ele>-6.300347</ele>
<time>2026-07-13T12:36:21.000Z</time>
</trkpt>
<trkpt lat="56.546898" lon="8.139703">
<ele>-6.124919</ele>
<time>2026-07-13T12:36:22.000Z</time>
</trkpt>
<trkpt lat="56.546932" lon="8.139751">
<ele>-5.953606</ele>
<time>2026-07-13T12:36:23.000Z</time>
</trkpt>
<trkpt lat="56.546963" lon="8.139796">
<ele>-5.795731</ele>
<time>2026-07-13T12:36:24.000Z</time>
</trkpt>
<trkpt lat="56.546993" lon="8.139839">
<ele>-5.643697</ele>
<time>2026-07-13T12:36:25.000Z</time>
</trkpt>
<trkpt lat="56.547020" lon="8.139878">
<ele>-5.506458</ele>
<time>2026-07-13T12:36:26.000Z</time>
</trkpt>
<trkpt lat="56.547047" lon="8.139917">
<ele>-5.369219</ele>
<time>2026-07-13T12:36:27.000Z</time>
</trkpt>
<trkpt lat="56.547070" lon="8.139952">
<ele>-5.249846</ele>
<time>2026-07-13T12:36:28.000Z</time>
</trkpt>
<trkpt lat="56.547096" lon="8.139992">
<ele>-5.114288</ele>
<time>2026-07-13T12:36:29.000Z</time>
</trkpt>
<trkpt lat="56.547119" lon="8.140027">
<ele>-4.994914</ele>
<time>2026-07-13T12:36:30.000Z</time>
</trkpt>
<trkpt lat="56.547146" lon="8.140064">
<ele>-4.860362</ele>
<time>2026-07-13T12:36:31.000Z</time>
</trkpt>
<trkpt lat="56.547169" lon="8.140102">
<ele>-4.736660</ele>
<time>2026-07-13T12:36:32.000Z</time>
</trkpt>
<trkpt lat="56.547195" lon="8.140138">
<ele>-4.606601</ele>
<time>2026-07-13T12:36:33.000Z</time>
</trkpt>
<trkpt lat="56.547218" lon="8.140168">
<ele>-4.493958</ele>
<time>2026-07-13T12:36:34.000Z</time>
</trkpt>
<trkpt lat="56.547245" lon="8.140203">
<ele>-4.362002</ele>
<time>2026-07-13T12:36:35.000Z</time>
</trkpt>
<trkpt lat="56.547268" lon="8.140234">
<ele>-4.248066</ele>
<time>2026-07-13T12:36:36.000Z</time>
</trkpt>
<trkpt lat="56.547295" lon="8.140262">
<ele>-4.124399</ele>
<time>2026-07-13T12:36:37.000Z</time>
</trkpt>
<trkpt lat="56.547318" lon="8.140286">
<ele>-4.018892</ele>
<time>2026-07-13T12:36:38.000Z</time>
</trkpt>
<trkpt lat="56.547340" lon="8.140307">
<ele>-3.920041</ele>
<time>2026-07-13T12:36:39.000Z</time>
</trkpt>
<trkpt lat="56.547363" lon="8.140333">
<ele>-3.812281</ele>
<time>2026-07-13T12:36:40.000Z</time>
</trkpt>
<trkpt lat="56.547390" lon="8.140359">
<ele>-3.690731</ele>
<time>2026-07-13T12:36:41.000Z</time>
</trkpt>
<trkpt lat="56.547417" lon="8.140385">
<ele>-3.569181</ele>
<time>2026-07-13T12:36:42.000Z</time>
</trkpt>
<trkpt lat="56.547443" lon="8.140409">
<ele>-3.453181</ele>
<time>2026-07-13T12:36:43.000Z</time>
</trkpt>
<trkpt lat="56.547470" lon="8.140432">
<ele>-3.334572</ele>
<time>2026-07-13T12:36:44.000Z</time>
</trkpt>
<trkpt lat="56.547497" lon="8.140460">
<ele>-3.210906</ele>
<time>2026-07-13T12:36:45.000Z</time>
</trkpt>
<trkpt lat="56.547524" lon="8.140487">
<ele>-3.088312</ele>
<time>2026-07-13T12:36:46.000Z</time>
</trkpt>
<trkpt lat="56.547550" lon="8.140515">
<ele>-2.968082</ele>
<time>2026-07-13T12:36:47.000Z</time>
</trkpt>
<trkpt lat="56.547577" lon="8.140546">
<ele>-2.841024</ele>
<time>2026-07-13T12:36:48.000Z</time>
</trkpt>
<trkpt lat="56.547604" lon="8.140571">
<ele>-2.720486</ele>
<time>2026-07-13T12:36:49.000Z</time>
</trkpt>
<trkpt lat="56.547630" lon="8.140595">
<ele>-2.604486</ele>
<time>2026-07-13T12:36:50.000Z</time>
</trkpt>
<trkpt lat="56.547653" lon="8.140624">
<ele>-2.493109</ele>
<time>2026-07-13T12:36:51.000Z</time>
</trkpt>
<trkpt lat="56.547680" lon="8.140655">
<ele>-2.366051</ele>
<time>2026-07-13T12:36:52.000Z</time>
</trkpt>
<trkpt lat="56.547703" lon="8.140692">
<ele>-2.243815</ele>
<time>2026-07-13T12:36:53.000Z</time>
</trkpt>
<trkpt lat="56.547718" lon="8.140729">
<ele>-2.143142</ele>
<time>2026-07-13T12:36:54.000Z</time>
</trkpt>
<trkpt lat="56.547741" lon="8.140777">
<ele>-2.003736</ele>
<time>2026-07-13T12:36:55.000Z</time>
</trkpt>
<trkpt lat="56.547752" lon="8.140827">
<ele>-1.885734</ele>
<time>2026-07-13T12:36:56.000Z</time>
</trkpt>
<trkpt lat="56.547764" lon="8.140882">
<ele>-1.756078</ele>
<time>2026-07-13T12:36:57.000Z</time>
</trkpt>
<trkpt lat="56.547771" lon="8.140942">
<ele>-1.621649</ele>
<time>2026-07-13T12:36:58.000Z</time>
</trkpt>
<trkpt lat="56.547779" lon="8.141008">
<ele>-1.473525</ele>
<time>2026-07-13T12:36:59.000Z</time>
</trkpt>
<trkpt lat="56.547779" lon="8.141072">
<ele>-1.333242</ele>
<time>2026-07-13T12:37:00.000Z</time>
</trkpt>
<trkpt lat="56.547775" lon="8.141139">
<ele>-1.185524</ele>
<time>2026-07-13T12:37:01.000Z</time>
</trkpt>
<trkpt lat="56.547771" lon="8.141201">
<ele>-1.048696</ele>
<time>2026-07-13T12:37:02.000Z</time>
</trkpt>
<trkpt lat="56.547768" lon="8.141266">
<ele>-0.905722</ele>
<time>2026-07-13T12:37:03.000Z</time>
</trkpt>
<trkpt lat="56.547760" lon="8.141326">
<ele>-0.770414</ele>
<time>2026-07-13T12:37:04.000Z</time>
</trkpt>
<trkpt lat="56.547749" lon="8.141387">
<ele>-0.691922</ele>
<time>2026-07-13T12:37:05.000Z</time>
</trkpt>
<trkpt lat="56.547741" lon="8.141446">
<ele>-0.678359</ele>
<time>2026-07-13T12:37:06.000Z</time>
</trkpt>
<trkpt lat="56.547733" lon="8.141506">
<ele>-0.664578</ele>
<time>2026-07-13T12:37:07.000Z</time>
</trkpt>
<trkpt lat="56.547726" lon="8.141565">
<ele>-0.651105</ele>
<time>2026-07-13T12:37:08.000Z</time>
</trkpt>
<trkpt lat="56.547718" lon="8.141624">
<ele>-0.637541</ele>
<time>2026-07-13T12:37:09.000Z</time>
</trkpt>
<trkpt lat="56.547710" lon="8.141684">
<ele>-0.623760</ele>
<time>2026-07-13T12:37:10.000Z</time>
</trkpt>
<trkpt lat="56.547707" lon="8.141740">
<ele>-0.611200</ele>
<time>2026-07-13T12:37:11.000Z</time>
</trkpt>
<trkpt lat="56.547703" lon="8.141796">
<ele>-0.598593</ele>
<time>2026-07-13T12:37:12.000Z</time>
</trkpt>
<trkpt lat="56.547695" lon="8.141855">
<ele>-0.585029</ele>
<time>2026-07-13T12:37:13.000Z</time>
</trkpt>
<trkpt lat="56.547691" lon="8.141915">
<ele>-0.571537</ele>
<time>2026-07-13T12:37:14.000Z</time>
</trkpt>
<trkpt lat="56.547684" lon="8.141975">
<ele>-0.557846</ele>
<time>2026-07-13T12:37:15.000Z</time>
</trkpt>
<trkpt lat="56.547676" lon="8.142036">
<ele>-0.543848</ele>
<time>2026-07-13T12:37:16.000Z</time>
</trkpt>
<trkpt lat="56.547668" lon="8.142099">
<ele>-0.529415</ele>
<time>2026-07-13T12:37:17.000Z</time>
</trkpt>
<trkpt lat="56.547665" lon="8.142162">
<ele>-0.515299</ele>
<time>2026-07-13T12:37:18.000Z</time>
</trkpt>
<trkpt lat="56.547657" lon="8.142224">
<ele>-0.501084</ele>
<time>2026-07-13T12:37:19.000Z</time>
</trkpt>
<trkpt lat="56.547653" lon="8.142274">
<ele>-0.489804</ele>
<time>2026-07-13T12:37:20.000Z</time>
</trkpt>
<trkpt lat="56.547649" lon="8.142337">
<ele>-0.475647</ele>
<time>2026-07-13T12:37:21.000Z</time>
</trkpt>
<trkpt lat="56.547642" lon="8.142396">
<ele>-0.462174</ele>
<time>2026-07-13T12:37:22.000Z</time>
</trkpt>
<trkpt lat="56.547634" lon="8.142458">
<ele>-0.447959</ele>
<time>2026-07-13T12:37:23.000Z</time>
</trkpt>
<trkpt lat="56.547626" lon="8.142519">
<ele>-0.433961</ele>
<time>2026-07-13T12:37:24.000Z</time>
</trkpt>
<trkpt lat="56.547619" lon="8.142580">
<ele>-0.420051</ele>
<time>2026-07-13T12:37:25.000Z</time>
</trkpt>
<trkpt lat="56.547607" lon="8.142643">
<ele>-0.405171</ele>
<time>2026-07-13T12:37:26.000Z</time>
</trkpt>
<trkpt lat="56.547600" lon="8.142705">
<ele>-0.391043</ele>
<time>2026-07-13T12:37:27.000Z</time>
</trkpt>
<trkpt lat="56.547592" lon="8.142768">
<ele>-0.376610</ele>
<time>2026-07-13T12:37:28.000Z</time>
</trkpt>
<trkpt lat="56.547588" lon="8.142832">
<ele>-0.362231</ele>
<time>2026-07-13T12:37:29.000Z</time>
</trkpt>
<trkpt lat="56.547585" lon="8.142894">
<ele>-0.348336</ele>
<time>2026-07-13T12:37:30.000Z</time>
</trkpt>
<trkpt lat="56.547577" lon="8.142959">
<ele>-0.333468</ele>
<time>2026-07-13T12:37:31.000Z</time>
</trkpt>
<trkpt lat="56.547569" lon="8.143023">
<ele>-0.318818</ele>
<time>2026-07-13T12:37:32.000Z</time>
</trkpt>
<trkpt lat="56.547562" lon="8.143088">
<ele>-0.304033</ele>
<time>2026-07-13T12:37:33.000Z</time>
</trkpt>
<trkpt lat="56.547554" lon="8.143154">
<ele>-0.288947</ele>
<time>2026-07-13T12:37:34.000Z</time>
</trkpt>
<trkpt lat="56.547546" lon="8.143221">
<ele>-0.273643</ele>
<time>2026-07-13T12:37:35.000Z</time>
</trkpt>
<trkpt lat="56.547539" lon="8.143286">
<ele>-0.258857</ele>
<time>2026-07-13T12:37:36.000Z</time>
</trkpt>
<trkpt lat="56.547531" lon="8.143355">
<ele>-0.243117</ele>
<time>2026-07-13T12:37:37.000Z</time>
</trkpt>
<trkpt lat="56.547524" lon="8.143423">
<ele>-0.227674</ele>
<time>2026-07-13T12:37:38.000Z</time>
</trkpt>
<trkpt lat="56.547516" lon="8.143497">
<ele>-0.210839</ele>
<time>2026-07-13T12:37:39.000Z</time>
</trkpt>
<trkpt lat="56.547508" lon="8.143569">
<ele>-0.194442</ele>
<time>2026-07-13T12:37:40.000Z</time>
</trkpt>
<trkpt lat="56.547501" lon="8.143642">
<ele>-0.177900</ele>
<time>2026-07-13T12:37:41.000Z</time>
</trkpt>
<trkpt lat="56.547493" lon="8.143715">
<ele>-0.161285</ele>
<time>2026-07-13T12:37:42.000Z</time>
</trkpt>
<trkpt lat="56.547485" lon="8.143788">
<ele>-0.144669</ele>
<time>2026-07-13T12:37:43.000Z</time>
</trkpt>
<trkpt lat="56.547474" lon="8.143861">
<ele>-0.127774</ele>
<time>2026-07-13T12:37:44.000Z</time>
</trkpt>
<trkpt lat="56.547466" lon="8.143931">
<ele>-0.111815</ele>
<time>2026-07-13T12:37:45.000Z</time>
</trkpt>
<trkpt lat="56.547459" lon="8.144002">
<ele>-0.095713</ele>
<time>2026-07-13T12:37:46.000Z</time>
</trkpt>
<trkpt lat="56.547451" lon="8.144073">
<ele>-0.079535</ele>
<time>2026-07-13T12:37:47.000Z</time>
</trkpt>
<trkpt lat="56.547447" lon="8.144147">
<ele>-0.062936</ele>
<time>2026-07-13T12:37:48.000Z</time>
</trkpt>
<trkpt lat="56.547436" lon="8.144219">
<ele>-0.046256</ele>
<time>2026-07-13T12:37:49.000Z</time>
</trkpt>
<trkpt lat="56.547428" lon="8.144292">
<ele>-0.029640</ele>
<time>2026-07-13T12:37:50.000Z</time>
</trkpt>
<trkpt lat="56.547417" lon="8.144368">
<ele>-0.012099</ele>
<time>2026-07-13T12:37:51.000Z</time>
</trkpt>
<trkpt lat="56.547409" lon="8.144445">
<ele>0.005394</ele>
<time>2026-07-13T12:37:52.000Z</time>
</trkpt>
<trkpt lat="56.547401" lon="8.144525">
<ele>0.023545</ele>
<time>2026-07-13T12:37:53.000Z</time>
</trkpt>
<trkpt lat="56.547394" lon="8.144599">
<ele>0.024808</ele>
<time>2026-07-13T12:37:54.000Z</time>
</trkpt>
<trkpt lat="56.547382" lon="8.144674">
<ele>0.017371</ele>
<time>2026-07-13T12:37:55.000Z</time>
</trkpt>
<trkpt lat="56.547375" lon="8.144748">
<ele>0.010221</ele>
<time>2026-07-13T12:37:56.000Z</time>
</trkpt>
<trkpt lat="56.547367" lon="8.144824">
<ele>0.002853</ele>
<time>2026-07-13T12:37:57.000Z</time>
</trkpt>
<trkpt lat="56.547359" lon="8.144897">
<ele>-0.004235</ele>
<time>2026-07-13T12:37:58.000Z</time>
</trkpt>
<trkpt lat="56.547352" lon="8.144976">
<ele>-0.011855</ele>
<time>2026-07-13T12:37:59.000Z</time>
</trkpt>
<trkpt lat="56.547340" lon="8.145046">
<ele>-0.018836</ele>
<time>2026-07-13T12:38:00.000Z</time>
</trkpt>
<trkpt lat="56.547333" lon="8.145129">
<ele>-0.026831</ele>
<time>2026-07-13T12:38:01.000Z</time>
</trkpt>
<trkpt lat="56.547325" lon="8.145206">
<ele>-0.034293</ele>
<time>2026-07-13T12:38:02.000Z</time>
</trkpt>
<trkpt lat="56.547318" lon="8.145285">
<ele>-0.041913</ele>
<time>2026-07-13T12:38:03.000Z</time>
</trkpt>
<trkpt lat="56.547306" lon="8.145361">
<ele>-0.049441</ele>
<time>2026-07-13T12:38:04.000Z</time>
</trkpt>
<trkpt lat="56.547298" lon="8.145437">
<ele>-0.056809</ele>
<time>2026-07-13T12:38:05.000Z</time>
</trkpt>
<trkpt lat="56.547291" lon="8.145514">
<ele>-0.064241</ele>
<time>2026-07-13T12:38:06.000Z</time>
</trkpt>
<trkpt lat="56.547283" lon="8.145589">
<ele>-0.071516</ele>
<time>2026-07-13T12:38:07.000Z</time>
</trkpt>
<trkpt lat="56.547276" lon="8.145660">
<ele>-0.078384</ele>
<time>2026-07-13T12:38:08.000Z</time>
</trkpt>
<trkpt lat="56.547268" lon="8.145734">
<ele>-0.085566</ele>
<time>2026-07-13T12:38:09.000Z</time>
</trkpt>
<trkpt lat="56.547260" lon="8.145804">
<ele>-0.092373</ele>
<time>2026-07-13T12:38:10.000Z</time>
</trkpt>
<trkpt lat="56.547253" lon="8.145886">
<ele>-0.100275</ele>
<time>2026-07-13T12:38:11.000Z</time>
</trkpt>
<trkpt lat="56.547249" lon="8.145968">
<ele>-0.108114</ele>
<time>2026-07-13T12:38:12.000Z</time>
</trkpt>
<trkpt lat="56.547237" lon="8.146051">
<ele>-0.116286</ele>
<time>2026-07-13T12:38:13.000Z</time>
</trkpt>
<trkpt lat="56.547226" lon="8.146135">
<ele>-0.124508</ele>
<time>2026-07-13T12:38:14.000Z</time>
</trkpt>
<trkpt lat="56.547218" lon="8.146217">
<ele>-0.132438</ele>
<time>2026-07-13T12:38:15.000Z</time>
</trkpt>
<trkpt lat="56.547211" lon="8.146302">
<ele>-0.140622</ele>
<time>2026-07-13T12:38:16.000Z</time>
</trkpt>
<trkpt lat="56.547199" lon="8.146387">
<ele>-0.148978</ele>
<time>2026-07-13T12:38:17.000Z</time>
</trkpt>
<trkpt lat="56.547192" lon="8.146468">
<ele>-0.156786</ele>
<time>2026-07-13T12:38:18.000Z</time>
</trkpt>
<trkpt lat="56.547184" lon="8.146550">
<ele>-0.164716</ele>
<time>2026-07-13T12:38:19.000Z</time>
</trkpt>
<trkpt lat="56.547176" lon="8.146629">
<ele>-0.172365</ele>
<time>2026-07-13T12:38:20.000Z</time>
</trkpt>
<trkpt lat="56.547169" lon="8.146710">
<ele>-0.180172</ele>
<time>2026-07-13T12:38:21.000Z</time>
</trkpt>
<trkpt lat="56.547165" lon="8.146791">
<ele>-0.187917</ele>
<time>2026-07-13T12:38:22.000Z</time>
</trkpt>
<trkpt lat="56.547161" lon="8.146871">
<ele>-0.195567</ele>
<time>2026-07-13T12:38:23.000Z</time>
</trkpt>
<trkpt lat="56.547157" lon="8.146950">
<ele>-0.203121</ele>
<time>2026-07-13T12:38:24.000Z</time>
</trkpt>
<trkpt lat="56.547153" lon="8.147030">
<ele>-0.210771</ele>
<time>2026-07-13T12:38:25.000Z</time>
</trkpt>
<trkpt lat="56.547153" lon="8.147111">
<ele>-0.218485</ele>
<time>2026-07-13T12:38:26.000Z</time>
</trkpt>
<trkpt lat="56.547153" lon="8.147192">
<ele>-0.226198</ele>
<time>2026-07-13T12:38:27.000Z</time>
</trkpt>
<trkpt lat="56.547157" lon="8.147273">
<ele>-0.233943</ele>
<time>2026-07-13T12:38:28.000Z</time>
</trkpt>
<trkpt lat="56.547161" lon="8.147355">
<ele>-0.241782</ele>
<time>2026-07-13T12:38:29.000Z</time>
</trkpt>
<trkpt lat="56.547165" lon="8.147435">
<ele>-0.249431</ele>
<time>2026-07-13T12:38:30.000Z</time>
</trkpt>
<trkpt lat="56.547173" lon="8.147514">
<ele>-0.257080</ele>
<time>2026-07-13T12:38:31.000Z</time>
</trkpt>
<trkpt lat="56.547180" lon="8.147593">
<ele>-0.264700</ele>
<time>2026-07-13T12:38:32.000Z</time>
</trkpt>
<trkpt lat="56.547184" lon="8.147667">
<ele>-0.271781</ele>
<time>2026-07-13T12:38:33.000Z</time>
</trkpt>
<trkpt lat="56.547188" lon="8.147744">
<ele>-0.279146</ele>
<time>2026-07-13T12:38:34.000Z</time>
</trkpt>
<trkpt lat="56.547195" lon="8.147817">
<ele>-0.232651</ele>
<time>2026-07-13T12:38:35.000Z</time>
</trkpt>
<trkpt lat="56.547203" lon="8.147886">
<ele>-0.166373</ele>
<time>2026-07-13T12:38:36.000Z</time>
</trkpt>
<trkpt lat="56.547207" lon="8.147954">
<ele>-0.102092</ele>
<time>2026-07-13T12:38:37.000Z</time>
</trkpt>
<trkpt lat="56.547211" lon="8.148023">
<ele>-0.036876</ele>
<time>2026-07-13T12:38:38.000Z</time>
</trkpt>
<trkpt lat="56.547218" lon="8.148089">
<ele>0.026301</ele>
<time>2026-07-13T12:38:39.000Z</time>
</trkpt>
<trkpt lat="56.547230" lon="8.148159">
<ele>0.095207</ele>
<time>2026-07-13T12:38:40.000Z</time>
</trkpt>
<trkpt lat="56.547234" lon="8.148223">
<ele>0.155751</ele>
<time>2026-07-13T12:38:41.000Z</time>
</trkpt>
<trkpt lat="56.547237" lon="8.148292">
<ele>0.220811</ele>
<time>2026-07-13T12:38:42.000Z</time>
</trkpt>
<trkpt lat="56.547249" lon="8.148358">
<ele>0.286137</ele>
<time>2026-07-13T12:38:43.000Z</time>
</trkpt>
<trkpt lat="56.547256" lon="8.148423">
<ele>0.348390</ele>
<time>2026-07-13T12:38:44.000Z</time>
</trkpt>
<trkpt lat="56.547260" lon="8.148482">
<ele>0.404267</ele>
<time>2026-07-13T12:38:45.000Z</time>
</trkpt>
<trkpt lat="56.547268" lon="8.148546">
<ele>0.465952</ele>
<time>2026-07-13T12:38:46.000Z</time>
</trkpt>
<trkpt lat="56.547272" lon="8.148610">
<ele>0.526496</ele>
<time>2026-07-13T12:38:47.000Z</time>
</trkpt>
<trkpt lat="56.547276" lon="8.148676">
<ele>0.588908</ele>
<time>2026-07-13T12:38:48.000Z</time>
</trkpt>
<trkpt lat="56.547279" lon="8.148744">
<ele>0.653031</ele>
<time>2026-07-13T12:38:49.000Z</time>
</trkpt>
<trkpt lat="56.547279" lon="8.148813">
<ele>0.717889</ele>
<time>2026-07-13T12:38:50.000Z</time>
</trkpt>
<trkpt lat="56.547279" lon="8.148878">
<ele>0.778988</ele>
<time>2026-07-13T12:38:51.000Z</time>
</trkpt>
<trkpt lat="56.547279" lon="8.148940">
<ele>0.837266</ele>
<time>2026-07-13T12:38:52.000Z</time>
</trkpt>
<trkpt lat="56.547279" lon="8.149000">
<ele>0.893665</ele>
<time>2026-07-13T12:38:53.000Z</time>
</trkpt>
<trkpt lat="56.547283" lon="8.149063">
<ele>0.953275</ele>
<time>2026-07-13T12:38:54.000Z</time>
</trkpt>
<trkpt lat="56.547283" lon="8.149124">
<ele>1.010613</ele>
<time>2026-07-13T12:38:55.000Z</time>
</trkpt>
<trkpt lat="56.547279" lon="8.149189">
<ele>1.072091</ele>
<time>2026-07-13T12:38:56.000Z</time>
</trkpt>
<trkpt lat="56.547279" lon="8.149250">
<ele>1.129430</ele>
<time>2026-07-13T12:38:57.000Z</time>
</trkpt>
<trkpt lat="56.547276" lon="8.149314">
<ele>1.189805</ele>
<time>2026-07-13T12:38:58.000Z</time>
</trkpt>
<trkpt lat="56.547272" lon="8.149378">
<ele>1.250349</ele>
<time>2026-07-13T12:38:59.000Z</time>
</trkpt>
<trkpt lat="56.547268" lon="8.149441">
<ele>1.309959</ele>
<time>2026-07-13T12:39:00.000Z</time>
</trkpt>
<trkpt lat="56.547260" lon="8.149507">
<ele>1.373479</ele>
<time>2026-07-13T12:39:01.000Z</time>
</trkpt>
<trkpt lat="56.547256" lon="8.149569">
<ele>1.432156</ele>
<time>2026-07-13T12:39:02.000Z</time>
</trkpt>
<trkpt lat="56.547253" lon="8.149628">
<ele>1.487850</ele>
<time>2026-07-13T12:39:03.000Z</time>
</trkpt>
<trkpt lat="56.547249" lon="8.149690">
<ele>1.546526</ele>
<time>2026-07-13T12:39:04.000Z</time>
</trkpt>
<trkpt lat="56.547245" lon="8.149749">
<ele>1.602402</ele>
<time>2026-07-13T12:39:05.000Z</time>
</trkpt>
<trkpt lat="56.547237" lon="8.149812">
<ele>1.663172</ele>
<time>2026-07-13T12:39:06.000Z</time>
</trkpt>
<trkpt lat="56.547234" lon="8.149871">
<ele>1.718866</ele>
<time>2026-07-13T12:39:07.000Z</time>
</trkpt>
<trkpt lat="56.547226" lon="8.149938">
<ele>1.783305</ele>
<time>2026-07-13T12:39:08.000Z</time>
</trkpt>
<trkpt lat="56.547218" lon="8.150005">
<ele>1.847744</ele>
<time>2026-07-13T12:39:09.000Z</time>
</trkpt>
<trkpt lat="56.547207" lon="8.150073">
<ele>1.914357</ele>
<time>2026-07-13T12:39:10.000Z</time>
</trkpt>
<trkpt lat="56.547195" lon="8.150144">
<ele>1.984162</ele>
<time>2026-07-13T12:39:11.000Z</time>
</trkpt>
<trkpt lat="56.547184" lon="8.150214">
<ele>2.052582</ele>
<time>2026-07-13T12:39:12.000Z</time>
</trkpt>
<trkpt lat="56.547176" lon="8.150285">
<ele>2.120700</ele>
<time>2026-07-13T12:39:13.000Z</time>
</trkpt>
<trkpt lat="56.547165" lon="8.150361">
<ele>2.194560</ele>
<time>2026-07-13T12:39:14.000Z</time>
</trkpt>
<trkpt lat="56.547153" lon="8.150435">
<ele>2.267066</ele>
<time>2026-07-13T12:39:15.000Z</time>
</trkpt>
<trkpt lat="56.547142" lon="8.150514">
<ele>2.343656</ele>
<time>2026-07-13T12:39:16.000Z</time>
</trkpt>
<trkpt lat="56.547131" lon="8.150590">
<ele>2.417516</ele>
<time>2026-07-13T12:39:17.000Z</time>
</trkpt>
<trkpt lat="56.547119" lon="8.150667">
<ele>2.492731</ele>
<time>2026-07-13T12:39:18.000Z</time>
</trkpt>
<trkpt lat="56.547108" lon="8.150743">
<ele>2.566591</ele>
<time>2026-07-13T12:39:19.000Z</time>
</trkpt>
<trkpt lat="56.547096" lon="8.150822">
<ele>2.643617</ele>
<time>2026-07-13T12:39:20.000Z</time>
</trkpt>
<trkpt lat="56.547081" lon="8.150896">
<ele>2.717729</ele>
<time>2026-07-13T12:39:21.000Z</time>
</trkpt>
<trkpt lat="56.547070" lon="8.150976">
<ele>2.793800</ele>
<time>2026-07-13T12:39:22.000Z</time>
</trkpt>
<trkpt lat="56.547058" lon="8.151052">
<ele>2.856919</ele>
<time>2026-07-13T12:39:23.000Z</time>
</trkpt>
<trkpt lat="56.547047" lon="8.151131">
<ele>2.921974</ele>
<time>2026-07-13T12:39:24.000Z</time>
</trkpt>
<trkpt lat="56.547035" lon="8.151202">
<ele>2.981265</ele>
<time>2026-07-13T12:39:25.000Z</time>
</trkpt>
<trkpt lat="56.547024" lon="8.151280">
<ele>3.045547</ele>
<time>2026-07-13T12:39:26.000Z</time>
</trkpt>
<trkpt lat="56.547012" lon="8.151358">
<ele>3.110202</ele>
<time>2026-07-13T12:39:27.000Z</time>
</trkpt>
<trkpt lat="56.547001" lon="8.151434">
<ele>3.172938</ele>
<time>2026-07-13T12:39:28.000Z</time>
</trkpt>
<trkpt lat="56.546989" lon="8.151503">
<ele>3.230705</ele>
<time>2026-07-13T12:39:29.000Z</time>
</trkpt>
<trkpt lat="56.546978" lon="8.151579">
<ele>3.293441</ele>
<time>2026-07-13T12:39:30.000Z</time>
</trkpt>
<trkpt lat="56.546967" lon="8.151650">
<ele>3.352324</ele>
<time>2026-07-13T12:39:31.000Z</time>
</trkpt>
<trkpt lat="56.546955" lon="8.151719">
<ele>3.410091</ele>
<time>2026-07-13T12:39:32.000Z</time>
</trkpt>
<trkpt lat="56.546947" lon="8.151789">
<ele>3.467168</ele>
<time>2026-07-13T12:39:33.000Z</time>
</trkpt>
<trkpt lat="56.546936" lon="8.151855">
<ele>3.522219</ele>
<time>2026-07-13T12:39:34.000Z</time>
</trkpt>
<trkpt lat="56.546925" lon="8.151924">
<ele>3.579567</ele>
<time>2026-07-13T12:39:35.000Z</time>
</trkpt>
<trkpt lat="56.546913" lon="8.151992">
<ele>3.636573</ele>
<time>2026-07-13T12:39:36.000Z</time>
</trkpt>
<trkpt lat="56.546906" lon="8.152057">
<ele>3.689450</ele>
<time>2026-07-13T12:39:37.000Z</time>
</trkpt>
<trkpt lat="56.546890" lon="8.152125">
<ele>3.748481</ele>
<time>2026-07-13T12:39:38.000Z</time>
</trkpt>
<trkpt lat="56.546879" lon="8.152195">
<ele>3.806596</ele>
<time>2026-07-13T12:39:39.000Z</time>
</trkpt>
<trkpt lat="56.546871" lon="8.152263">
<ele>3.862111</ele>
<time>2026-07-13T12:39:40.000Z</time>
</trkpt>
<trkpt lat="56.546864" lon="8.152328">
<ele>3.914989</ele>
<time>2026-07-13T12:39:41.000Z</time>
</trkpt>
<trkpt lat="56.546852" lon="8.152397">
<ele>3.972756</ele>
<time>2026-07-13T12:39:42.000Z</time>
</trkpt>
<trkpt lat="56.546841" lon="8.152463">
<ele>4.027807</ele>
<time>2026-07-13T12:39:43.000Z</time>
</trkpt>
<trkpt lat="56.546829" lon="8.152535">
<ele>4.087862</ele>
<time>2026-07-13T12:39:44.000Z</time>
</trkpt>
<trkpt lat="56.546822" lon="8.152607">
<ele>4.146235</ele>
<time>2026-07-13T12:39:45.000Z</time>
</trkpt>
<trkpt lat="56.546810" lon="8.152678">
<ele>4.205527</ele>
<time>2026-07-13T12:39:46.000Z</time>
</trkpt>
<trkpt lat="56.546799" lon="8.152744">
<ele>4.260578</ele>
<time>2026-07-13T12:39:47.000Z</time>
</trkpt>
<trkpt lat="56.546787" lon="8.152815">
<ele>4.319870</ele>
<time>2026-07-13T12:39:48.000Z</time>
</trkpt>
<trkpt lat="56.546780" lon="8.152882">
<ele>4.374316</ele>
<time>2026-07-13T12:39:49.000Z</time>
</trkpt>
<trkpt lat="56.546768" lon="8.152946">
<ele>4.428289</ele>
<time>2026-07-13T12:39:50.000Z</time>
</trkpt>
<trkpt lat="56.546757" lon="8.153010">
<ele>4.481814</ele>
<time>2026-07-13T12:39:51.000Z</time>
</trkpt>
<trkpt lat="56.546745" lon="8.153077">
<ele>4.538060</ele>
<time>2026-07-13T12:39:52.000Z</time>
</trkpt>
<trkpt lat="56.546734" lon="8.153142">
<ele>4.592347</ele>
<time>2026-07-13T12:39:53.000Z</time>
</trkpt>
<trkpt lat="56.546722" lon="8.153208">
<ele>4.647835</ele>
<time>2026-07-13T12:39:54.000Z</time>
</trkpt>
<trkpt lat="56.546715" lon="8.153267">
<ele>4.696020</ele>
<time>2026-07-13T12:39:55.000Z</time>
</trkpt>
<trkpt lat="56.546707" lon="8.153335">
<ele>4.751535</ele>
<time>2026-07-13T12:39:56.000Z</time>
</trkpt>
<trkpt lat="56.546696" lon="8.153399">
<ele>4.805059</ele>
<time>2026-07-13T12:39:57.000Z</time>
</trkpt>
<trkpt lat="56.546688" lon="8.153464">
<ele>4.858234</ele>
<time>2026-07-13T12:39:58.000Z</time>
</trkpt>
<trkpt lat="56.546680" lon="8.153525">
<ele>4.908297</ele>
<time>2026-07-13T12:39:59.000Z</time>
</trkpt>
<trkpt lat="56.546669" lon="8.153593">
<ele>4.964878</ele>
<time>2026-07-13T12:40:00.000Z</time>
</trkpt>
<trkpt lat="56.546661" lon="8.153657">
<ele>5.017274</ele>
<time>2026-07-13T12:40:01.000Z</time>
</trkpt>
<trkpt lat="56.546654" lon="8.153718">
<ele>5.067022</ele>
<time>2026-07-13T12:40:02.000Z</time>
</trkpt>
<trkpt lat="56.546642" lon="8.153780">
<ele>5.119486</ele>
<time>2026-07-13T12:40:03.000Z</time>
</trkpt>
<trkpt lat="56.546631" lon="8.153842">
<ele>5.171488</ele>
<time>2026-07-13T12:40:04.000Z</time>
</trkpt>
<trkpt lat="56.546619" lon="8.153904">
<ele>5.223953</ele>
<time>2026-07-13T12:40:05.000Z</time>
</trkpt>
<trkpt lat="56.546608" lon="8.153965">
<ele>5.275196</ele>
<time>2026-07-13T12:40:06.000Z</time>
</trkpt>
<trkpt lat="56.546596" lon="8.154026">
<ele>5.326907</ele>
<time>2026-07-13T12:40:07.000Z</time>
</trkpt>
<trkpt lat="56.546589" lon="8.154088">
<ele>5.377437</ele>
<time>2026-07-13T12:40:08.000Z</time>
</trkpt>
<trkpt lat="56.546581" lon="8.154148">
<ele>5.434159</ele>
<time>2026-07-13T12:40:09.000Z</time>
</trkpt>
<trkpt lat="56.546570" lon="8.154210">
<ele>5.496924</ele>
<time>2026-07-13T12:40:10.000Z</time>
</trkpt>
<trkpt lat="56.546562" lon="8.154270">
<ele>5.556410</ele>
<time>2026-07-13T12:40:11.000Z</time>
</trkpt>
<trkpt lat="56.546551" lon="8.154329">
<ele>5.616430</ele>
<time>2026-07-13T12:40:12.000Z</time>
</trkpt>
<trkpt lat="56.546539" lon="8.154389">
<ele>5.677937</ele>
<time>2026-07-13T12:40:13.000Z</time>
</trkpt>
<trkpt lat="56.546532" lon="8.154453">
<ele>5.740813</ele>
<time>2026-07-13T12:40:14.000Z</time>
</trkpt>
<trkpt lat="56.546528" lon="8.154515">
<ele>5.800968</ele>
<time>2026-07-13T12:40:15.000Z</time>
</trkpt>
<trkpt lat="56.546520" lon="8.154578">
<ele>5.863268</ele>
<time>2026-07-13T12:40:16.000Z</time>
</trkpt>
<trkpt lat="56.546513" lon="8.154649">
<ele>5.932773</ele>
<time>2026-07-13T12:40:17.000Z</time>
</trkpt>
<trkpt lat="56.546505" lon="8.154722">
<ele>6.004497</ele>
<time>2026-07-13T12:40:18.000Z</time>
</trkpt>
<trkpt lat="56.546501" lon="8.154794">
<ele>6.074232</ele>
<time>2026-07-13T12:40:19.000Z</time>
</trkpt>
<trkpt lat="56.546501" lon="8.154868">
<ele>6.145542</ele>
<time>2026-07-13T12:40:20.000Z</time>
</trkpt>
<trkpt lat="56.546501" lon="8.154937">
<ele>6.212035</ele>
<time>2026-07-13T12:40:21.000Z</time>
</trkpt>
<trkpt lat="56.546501" lon="8.155013">
<ele>6.285273</ele>
<time>2026-07-13T12:40:22.000Z</time>
</trkpt>
<trkpt lat="56.546505" lon="8.155085">
<ele>6.355007</ele>
<time>2026-07-13T12:40:23.000Z</time>
</trkpt>
<trkpt lat="56.546505" lon="8.155154">
<ele>6.421500</ele>
<time>2026-07-13T12:40:24.000Z</time>
</trkpt>
<trkpt lat="56.546505" lon="8.155225">
<ele>6.489920</ele>
<time>2026-07-13T12:40:25.000Z</time>
</trkpt>
<trkpt lat="56.546505" lon="8.155298">
<ele>6.560267</ele>
<time>2026-07-13T12:40:26.000Z</time>
</trkpt>
<trkpt lat="56.546509" lon="8.155368">
<ele>6.628084</ele>
<time>2026-07-13T12:40:27.000Z</time>
</trkpt>
<trkpt lat="56.546513" lon="8.155441">
<ele>6.698778</ele>
<time>2026-07-13T12:40:28.000Z</time>
</trkpt>
<trkpt lat="56.546516" lon="8.155507">
<ele>6.762595</ele>
<time>2026-07-13T12:40:29.000Z</time>
</trkpt>
<trkpt lat="56.546524" lon="8.155574">
<ele>6.828657</ele>
<time>2026-07-13T12:40:30.000Z</time>
</trkpt>
<trkpt lat="56.546532" lon="8.155637">
<ele>6.890957</ele>
<time>2026-07-13T12:40:31.000Z</time>
</trkpt>
<trkpt lat="56.546539" lon="8.155704">
<ele>6.956672</ele>
<time>2026-07-13T12:40:32.000Z</time>
</trkpt>
<trkpt lat="56.546547" lon="8.155767">
<ele>7.018972</ele>
<time>2026-07-13T12:40:33.000Z</time>
</trkpt>
<trkpt lat="56.546551" lon="8.155831">
<ele>7.081041</ele>
<time>2026-07-13T12:40:34.000Z</time>
</trkpt>
<trkpt lat="56.546558" lon="8.155893">
<ele>7.142028</ele>
<time>2026-07-13T12:40:35.000Z</time>
</trkpt>
<trkpt lat="56.546570" lon="8.155960">
<ele>7.209915</ele>
<time>2026-07-13T12:40:36.000Z</time>
</trkpt>
<trkpt lat="56.546577" lon="8.156024">
<ele>7.272792</ele>
<time>2026-07-13T12:40:37.000Z</time>
</trkpt>
<trkpt lat="56.546589" lon="8.156091">
<ele>7.340679</ele>
<time>2026-07-13T12:40:38.000Z</time>
</trkpt>
<trkpt lat="56.546596" lon="8.156153">
<ele>7.401666</ele>
<time>2026-07-13T12:40:39.000Z</time>
</trkpt>
<trkpt lat="56.546604" lon="8.156217">
<ele>7.464905</ele>
<time>2026-07-13T12:40:40.000Z</time>
</trkpt>
<trkpt lat="56.546608" lon="8.156278">
<ele>7.524103</ele>
<time>2026-07-13T12:40:41.000Z</time>
</trkpt>
<trkpt lat="56.546616" lon="8.156340">
<ele>7.585464</ele>
<time>2026-07-13T12:40:42.000Z</time>
</trkpt>
<trkpt lat="56.546619" lon="8.156396">
<ele>7.639683</ele>
<time>2026-07-13T12:40:43.000Z</time>
</trkpt>
<trkpt lat="56.546623" lon="8.156458">
<ele>7.699837</ele>
<time>2026-07-13T12:40:44.000Z</time>
</trkpt>
<trkpt lat="56.546627" lon="8.156519">
<ele>7.759035</ele>
<time>2026-07-13T12:40:45.000Z</time>
</trkpt>
<trkpt lat="56.546635" lon="8.156584">
<ele>7.823215</ele>
<time>2026-07-13T12:40:46.000Z</time>
</trkpt>
<trkpt lat="56.546635" lon="8.156645">
<ele>7.881997</ele>
<time>2026-07-13T12:40:47.000Z</time>
</trkpt>
<trkpt lat="56.546638" lon="8.156707">
<ele>7.941974</ele>
<time>2026-07-13T12:40:48.000Z</time>
</trkpt>
<trkpt lat="56.546638" lon="8.156764">
<ele>7.996902</ele>
<time>2026-07-13T12:40:49.000Z</time>
</trkpt>
<trkpt lat="56.546642" lon="8.156818">
<ele>8.049407</ele>
<time>2026-07-13T12:40:50.000Z</time>
</trkpt>
<trkpt lat="56.546646" lon="8.156870">
<ele>8.100003</ele>
<time>2026-07-13T12:40:51.000Z</time>
</trkpt>
<trkpt lat="56.546646" lon="8.156924">
<ele>8.152040</ele>
<time>2026-07-13T12:40:52.000Z</time>
</trkpt>
<trkpt lat="56.546646" lon="8.156977">
<ele>8.203114</ele>
<time>2026-07-13T12:40:53.000Z</time>
</trkpt>
<trkpt lat="56.546646" lon="8.157030">
<ele>8.254187</ele>
<time>2026-07-13T12:40:54.000Z</time>
</trkpt>
<trkpt lat="56.546646" lon="8.157084">
<ele>8.306225</ele>
<time>2026-07-13T12:40:55.000Z</time>
</trkpt>
<trkpt lat="56.546650" lon="8.157140">
<ele>8.360640</ele>
<time>2026-07-13T12:40:56.000Z</time>
</trkpt>
<trkpt lat="56.546650" lon="8.157194">
<ele>8.412678</ele>
<time>2026-07-13T12:40:57.000Z</time>
</trkpt>
<trkpt lat="56.546654" lon="8.157250">
<ele>8.467093</ele>
<time>2026-07-13T12:40:58.000Z</time>
</trkpt>
<trkpt lat="56.546654" lon="8.157305">
<ele>8.520094</ele>
<time>2026-07-13T12:40:59.000Z</time>
</trkpt>
<trkpt lat="56.546658" lon="8.157361">
<ele>8.525697</ele>
<time>2026-07-13T12:41:00.000Z</time>
</trkpt>
<trkpt lat="56.546665" lon="8.157410">
<ele>8.514205</ele>
<time>2026-07-13T12:41:01.000Z</time>
</trkpt>
<trkpt lat="56.546680" lon="8.157457">
<ele>8.501876</ele>
<time>2026-07-13T12:41:02.000Z</time>
</trkpt>
<trkpt lat="56.546703" lon="8.157492">
<ele>8.489512</ele>
<time>2026-07-13T12:41:03.000Z</time>
</trkpt>
<trkpt lat="56.546734" lon="8.157512">
<ele>8.475962</ele>
<time>2026-07-13T12:41:04.000Z</time>
</trkpt>
<trkpt lat="56.546768" lon="8.157528">
<ele>8.461496</ele>
<time>2026-07-13T12:41:05.000Z</time>
</trkpt>
<trkpt lat="56.546810" lon="8.157541">
<ele>8.443949</ele>
<time>2026-07-13T12:41:06.000Z</time>
</trkpt>
<trkpt lat="56.546852" lon="8.157557">
<ele>8.426275</ele>
<time>2026-07-13T12:41:07.000Z</time>
</trkpt>
<trkpt lat="56.546898" lon="8.157576">
<ele>8.406846</ele>
<time>2026-07-13T12:41:08.000Z</time>
</trkpt>
<trkpt lat="56.546940" lon="8.157597">
<ele>8.388904</ele>
<time>2026-07-13T12:41:09.000Z</time>
</trkpt>
<trkpt lat="56.546993" lon="8.157621">
<ele>8.366407</ele>
<time>2026-07-13T12:41:10.000Z</time>
</trkpt>
<trkpt lat="56.547039" lon="8.157649">
<ele>8.346425</ele>
<time>2026-07-13T12:41:11.000Z</time>
</trkpt>
<trkpt lat="56.547089" lon="8.157679">
<ele>8.324737</ele>
<time>2026-07-13T12:41:12.000Z</time>
</trkpt>
<trkpt lat="56.547142" lon="8.157708">
<ele>8.301938</ele>
<time>2026-07-13T12:41:13.000Z</time>
</trkpt>
<trkpt lat="56.547195" lon="8.157738">
<ele>8.279073</ele>
<time>2026-07-13T12:41:14.000Z</time>
</trkpt>
<trkpt lat="56.547249" lon="8.157766">
<ele>8.255944</ele>
<time>2026-07-13T12:41:15.000Z</time>
</trkpt>
<trkpt lat="56.547310" lon="8.157796">
<ele>8.229915</ele>
<time>2026-07-13T12:41:16.000Z</time>
</trkpt>
<trkpt lat="56.547363" lon="8.157824">
<ele>8.207182</ele>
<time>2026-07-13T12:41:17.000Z</time>
</trkpt>
<trkpt lat="56.547421" lon="8.157852">
<ele>8.182464</ele>
<time>2026-07-13T12:41:18.000Z</time>
</trkpt>
<trkpt lat="56.547470" lon="8.157883">
<ele>8.161092</ele>
<time>2026-07-13T12:41:19.000Z</time>
</trkpt>
<trkpt lat="56.547524" lon="8.157910">
<ele>8.138024</ele>
<time>2026-07-13T12:41:20.000Z</time>
</trkpt>
<trkpt lat="56.547573" lon="8.157938">
<ele>8.116867</ele>
<time>2026-07-13T12:41:21.000Z</time>
</trkpt>
<trkpt lat="56.547623" lon="8.157964">
<ele>8.095446</ele>
<time>2026-07-13T12:41:22.000Z</time>
</trkpt>
<trkpt lat="56.547676" lon="8.157990">
<ele>8.072835</ele>
<time>2026-07-13T12:41:23.000Z</time>
</trkpt>
<trkpt lat="56.547726" lon="8.158015">
<ele>8.051476</ele>
<time>2026-07-13T12:41:24.000Z</time>
</trkpt>
<trkpt lat="56.547775" lon="8.158043">
<ele>8.030319</ele>
<time>2026-07-13T12:41:25.000Z</time>
</trkpt>
<trkpt lat="56.547825" lon="8.158069">
<ele>8.008898</ele>
<time>2026-07-13T12:41:26.000Z</time>
</trkpt>
<trkpt lat="56.547874" lon="8.158093">
<ele>7.987996</ele>
<time>2026-07-13T12:41:27.000Z</time>
</trkpt>
<trkpt lat="56.547924" lon="8.158114">
<ele>7.966859</ele>
<time>2026-07-13T12:41:28.000Z</time>
</trkpt>
<trkpt lat="56.547974" lon="8.158133">
<ele>7.945821</ele>
<time>2026-07-13T12:41:29.000Z</time>
</trkpt>
<trkpt lat="56.548027" lon="8.158148">
<ele>7.923730</ele>
<time>2026-07-13T12:41:30.000Z</time>
</trkpt>
<trkpt lat="56.548077" lon="8.158165">
<ele>7.902780</ele>
<time>2026-07-13T12:41:31.000Z</time>
</trkpt>
<trkpt lat="56.548126" lon="8.158181">
<ele>7.882276</ele>
<time>2026-07-13T12:41:32.000Z</time>
</trkpt>
<trkpt lat="56.548183" lon="8.158196">
<ele>7.858556</ele>
<time>2026-07-13T12:41:33.000Z</time>
</trkpt>
<trkpt lat="56.548244" lon="8.158211">
<ele>7.833204</ele>
<time>2026-07-13T12:41:34.000Z</time>
</trkpt>
<trkpt lat="56.548302" lon="8.158221">
<ele>7.809211</ele>
<time>2026-07-13T12:41:35.000Z</time>
</trkpt>
<trkpt lat="56.548367" lon="8.158231">
<ele>7.703230</ele>
<time>2026-07-13T12:41:36.000Z</time>
</trkpt>
<trkpt lat="56.548424" lon="8.158242">
<ele>7.522964</ele>
<time>2026-07-13T12:41:37.000Z</time>
</trkpt>
<trkpt lat="56.548492" lon="8.158261">
<ele>7.306596</ele>
<time>2026-07-13T12:41:38.000Z</time>
</trkpt>
<trkpt lat="56.548565" lon="8.158283">
<ele>7.073878</ele>
<time>2026-07-13T12:41:39.000Z</time>
</trkpt>
<trkpt lat="56.548634" lon="8.158299">
<ele>6.855121</ele>
<time>2026-07-13T12:41:40.000Z</time>
</trkpt>
<trkpt lat="56.548702" lon="8.158311">
<ele>6.640265</ele>
<time>2026-07-13T12:41:41.000Z</time>
</trkpt>
<trkpt lat="56.548756" lon="8.158319">
<ele>6.469880</ele>
<time>2026-07-13T12:41:42.000Z</time>
</trkpt>
<trkpt lat="56.548828" lon="8.158325">
<ele>6.243215</ele>
<time>2026-07-13T12:41:43.000Z</time>
</trkpt>
<trkpt lat="56.548897" lon="8.158328">
<ele>6.026161</ele>
<time>2026-07-13T12:41:44.000Z</time>
</trkpt>
<trkpt lat="56.548969" lon="8.158326">
<ele>5.799708</ele>
<time>2026-07-13T12:41:45.000Z</time>
</trkpt>
<trkpt lat="56.549038" lon="8.158325">
<ele>5.582709</ele>
<time>2026-07-13T12:41:46.000Z</time>
</trkpt>
<trkpt lat="56.549099" lon="8.158325">
<ele>5.390876</ele>
<time>2026-07-13T12:41:47.000Z</time>
</trkpt>
<trkpt lat="56.549164" lon="8.158325">
<ele>5.186463</ele>
<time>2026-07-13T12:41:48.000Z</time>
</trkpt>
<trkpt lat="56.549225" lon="8.158322">
<ele>4.994559</ele>
<time>2026-07-13T12:41:49.000Z</time>
</trkpt>
<trkpt lat="56.549286" lon="8.158318">
<ele>4.802601</ele>
<time>2026-07-13T12:41:50.000Z</time>
</trkpt>
<trkpt lat="56.549343" lon="8.158312">
<ele>4.623045</ele>
<time>2026-07-13T12:41:51.000Z</time>
</trkpt>
<trkpt lat="56.549404" lon="8.158306">
<ele>4.430930</ele>
<time>2026-07-13T12:41:52.000Z</time>
</trkpt>
<trkpt lat="56.549465" lon="8.158300">
<ele>4.238815</ele>
<time>2026-07-13T12:41:53.000Z</time>
</trkpt>
<trkpt lat="56.549526" lon="8.158294">
<ele>4.046700</ele>
<time>2026-07-13T12:41:54.000Z</time>
</trkpt>
<trkpt lat="56.549591" lon="8.158288">
<ele>3.842023</ele>
<time>2026-07-13T12:41:55.000Z</time>
</trkpt>
<trkpt lat="56.549652" lon="8.158284">
<ele>3.650064</ele>
<time>2026-07-13T12:41:56.000Z</time>
</trkpt>
<trkpt lat="56.549717" lon="8.158281">
<ele>3.445586</ele>
<time>2026-07-13T12:41:57.000Z</time>
</trkpt>
<trkpt lat="56.549786" lon="8.158278">
<ele>3.228532</ele>
<time>2026-07-13T12:41:58.000Z</time>
</trkpt>
<trkpt lat="56.549854" lon="8.158270">
<ele>3.014235</ele>
<time>2026-07-13T12:41:59.000Z</time>
</trkpt>
<trkpt lat="56.549923" lon="8.158260">
<ele>2.796552</ele>
<time>2026-07-13T12:42:00.000Z</time>
</trkpt>
<trkpt lat="56.549995" lon="8.158245">
<ele>2.568638</ele>
<time>2026-07-13T12:42:01.000Z</time>
</trkpt>
<trkpt lat="56.550068" lon="8.158221">
<ele>2.335328</ele>
<time>2026-07-13T12:42:02.000Z</time>
</trkpt>
<trkpt lat="56.550144" lon="8.158180">
<ele>2.054736</ele>
<time>2026-07-13T12:42:03.000Z</time>
</trkpt>
<trkpt lat="56.550217" lon="8.158122">
<ele>1.653239</ele>
<time>2026-07-13T12:42:04.000Z</time>
</trkpt>
<trkpt lat="56.550293" lon="8.158039">
<ele>1.206329</ele>
<time>2026-07-13T12:42:05.000Z</time>
</trkpt>
<trkpt lat="56.550365" lon="8.157939">
<ele>0.749499</ele>
<time>2026-07-13T12:42:06.000Z</time>
</trkpt>
<trkpt lat="56.550434" lon="8.157832">
<ele>0.292192</ele>
<time>2026-07-13T12:42:07.000Z</time>
</trkpt>
<trkpt lat="56.550507" lon="8.157717">
<ele>-0.194884</ele>
<time>2026-07-13T12:42:08.000Z</time>
</trkpt>
<trkpt lat="56.550579" lon="8.157604">
<ele>-0.674514</ele>
<time>2026-07-13T12:42:09.000Z</time>
</trkpt>
<trkpt lat="56.550652" lon="8.157486">
<ele>-1.167091</ele>
<time>2026-07-13T12:42:10.000Z</time>
</trkpt>
<trkpt lat="56.550724" lon="8.157357">
<ele>-1.676898</ele>
<time>2026-07-13T12:42:11.000Z</time>
</trkpt>
<trkpt lat="56.550800" lon="8.157225">
<ele>-2.206960</ele>
<time>2026-07-13T12:42:12.000Z</time>
</trkpt>
<trkpt lat="56.550880" lon="8.157095">
<ele>-2.748036</ele>
<time>2026-07-13T12:42:13.000Z</time>
</trkpt>
<trkpt lat="56.550964" lon="8.156966">
<ele>-3.302487</ele>
<time>2026-07-13T12:42:14.000Z</time>
</trkpt>
<trkpt lat="56.551044" lon="8.156839">
<ele>-3.838039</ele>
<time>2026-07-13T12:42:15.000Z</time>
</trkpt>
<trkpt lat="56.551132" lon="8.156716">
<ele>-4.397698</ele>
<time>2026-07-13T12:42:16.000Z</time>
</trkpt>
<trkpt lat="56.551231" lon="8.156610">
<ele>-4.976841</ele>
<time>2026-07-13T12:42:17.000Z</time>
</trkpt>
<trkpt lat="56.551331" lon="8.156528">
<ele>-5.529710</ele>
<time>2026-07-13T12:42:18.000Z</time>
</trkpt>
<trkpt lat="56.551434" lon="8.156470">
<ele>-6.073045</ele>
<time>2026-07-13T12:42:19.000Z</time>
</trkpt>
<trkpt lat="56.551537" lon="8.156437">
<ele>-6.599988</ele>
<time>2026-07-13T12:42:20.000Z</time>
</trkpt>
<trkpt lat="56.551640" lon="8.156430">
<ele>-6.789172</ele>
<time>2026-07-13T12:42:21.000Z</time>
</trkpt>
<trkpt lat="56.551739" lon="8.156443">
<ele>-6.445224</ele>
<time>2026-07-13T12:42:22.000Z</time>
</trkpt>
<trkpt lat="56.551830" lon="8.156476">
<ele>-6.123658</ele>
<time>2026-07-13T12:42:23.000Z</time>
</trkpt>
<trkpt lat="56.551914" lon="8.156522">
<ele>-5.819615</ele>
<time>2026-07-13T12:42:24.000Z</time>
</trkpt>
<trkpt lat="56.551987" lon="8.156570">
<ele>-5.550558</ele>
<time>2026-07-13T12:42:25.000Z</time>
</trkpt>
<trkpt lat="56.552055" lon="8.156614">
<ele>-5.300391</ele>
<time>2026-07-13T12:42:26.000Z</time>
</trkpt>
<trkpt lat="56.552124" lon="8.156654">
<ele>-5.049387</ele>
<time>2026-07-13T12:42:27.000Z</time>
</trkpt>
<trkpt lat="56.552185" lon="8.156691">
<ele>-4.826512</ele>
<time>2026-07-13T12:42:28.000Z</time>
</trkpt>
<trkpt lat="56.552246" lon="8.156727">
<ele>-4.604236</ele>
<time>2026-07-13T12:42:29.000Z</time>
</trkpt>
<trkpt lat="56.552303" lon="8.156763">
<ele>-4.395097</ele>
<time>2026-07-13T12:42:30.000Z</time>
</trkpt>
<trkpt lat="56.552357" lon="8.156796">
<ele>-4.197649</ele>
<time>2026-07-13T12:42:31.000Z</time>
</trkpt>
<trkpt lat="56.552410" lon="8.156828">
<ele>-4.004094</ele>
<time>2026-07-13T12:42:32.000Z</time>
</trkpt>
<trkpt lat="56.552460" lon="8.156859">
<ele>-3.820999</ele>
<time>2026-07-13T12:42:33.000Z</time>
</trkpt>
<trkpt lat="56.552505" lon="8.156889">
<ele>-3.654874</ele>
<time>2026-07-13T12:42:34.000Z</time>
</trkpt>
<trkpt lat="56.552547" lon="8.156917">
<ele>-3.499823</ele>
<time>2026-07-13T12:42:35.000Z</time>
</trkpt>
<trkpt lat="56.552597" lon="8.156941">
<ele>-3.320604</ele>
<time>2026-07-13T12:42:36.000Z</time>
</trkpt>
<trkpt lat="56.552643" lon="8.156964">
<ele>-3.155265</ele>
<time>2026-07-13T12:42:37.000Z</time>
</trkpt>
<trkpt lat="56.552685" lon="8.156986">
<ele>-3.003785</ele>
<time>2026-07-13T12:42:38.000Z</time>
</trkpt>
<trkpt lat="56.552727" lon="8.157008">
<ele>-2.852304</ele>
<time>2026-07-13T12:42:39.000Z</time>
</trkpt>
<trkpt lat="56.552769" lon="8.157028">
<ele>-2.701839</ele>
<time>2026-07-13T12:42:40.000Z</time>
</trkpt>
<trkpt lat="56.552811" lon="8.157047">
<ele>-2.551847</ele>
<time>2026-07-13T12:42:41.000Z</time>
</trkpt>
<trkpt lat="56.552853" lon="8.157067">
<ele>-2.401381</ele>
<time>2026-07-13T12:42:42.000Z</time>
</trkpt>
<trkpt lat="56.552895" lon="8.157088">
<ele>-2.250419</ele>
<time>2026-07-13T12:42:43.000Z</time>
</trkpt>
<trkpt lat="56.552933" lon="8.157111">
<ele>-2.111609</ele>
<time>2026-07-13T12:42:44.000Z</time>
</trkpt>
<trkpt lat="56.552971" lon="8.157134">
<ele>-1.972800</ele>
<time>2026-07-13T12:42:45.000Z</time>
</trkpt>
<trkpt lat="56.553005" lon="8.157158">
<ele>-1.846382</ele>
<time>2026-07-13T12:42:46.000Z</time>
</trkpt>
<trkpt lat="56.553043" lon="8.157181">
<ele>-1.707572</ele>
<time>2026-07-13T12:42:47.000Z</time>
</trkpt>
<trkpt lat="56.553078" lon="8.157203">
<ele>-1.579220</ele>
<time>2026-07-13T12:42:48.000Z</time>
</trkpt>
<trkpt lat="56.553112" lon="8.157222">
<ele>-1.455943</ele>
<time>2026-07-13T12:42:49.000Z</time>
</trkpt>
<trkpt lat="56.553150" lon="8.157242">
<ele>-1.318839</ele>
<time>2026-07-13T12:42:50.000Z</time>
</trkpt>
<trkpt lat="56.553185" lon="8.157263">
<ele>-1.191099</ele>
<time>2026-07-13T12:42:51.000Z</time>
</trkpt>
<trkpt lat="56.553219" lon="8.157284">
<ele>-1.066644</ele>
<time>2026-07-13T12:42:52.000Z</time>
</trkpt>
<trkpt lat="56.553261" lon="8.157300">
<ele>-0.917934</ele>
<time>2026-07-13T12:42:53.000Z</time>
</trkpt>
<trkpt lat="56.553295" lon="8.157312">
<ele>-0.797910</ele>
<time>2026-07-13T12:42:54.000Z</time>
</trkpt>
<trkpt lat="56.553333" lon="8.157331">
<ele>-0.667317</ele>
<time>2026-07-13T12:42:55.000Z</time>
</trkpt>
<trkpt lat="56.553360" lon="8.157351">
<ele>-0.586586</ele>
<time>2026-07-13T12:42:56.000Z</time>
</trkpt>
<trkpt lat="56.553402" lon="8.157378">
<ele>-0.463238</ele>
<time>2026-07-13T12:42:57.000Z</time>
</trkpt>
<trkpt lat="56.553440" lon="8.157405">
<ele>-0.350267</ele>
<time>2026-07-13T12:42:58.000Z</time>
</trkpt>
<trkpt lat="56.553478" lon="8.157430">
<ele>-0.238372</ele>
<time>2026-07-13T12:42:59.000Z</time>
</trkpt>
<trkpt lat="56.553513" lon="8.157454">
<ele>-0.134796</ele>
<time>2026-07-13T12:43:00.000Z</time>
</trkpt>
<trkpt lat="56.553551" lon="8.157480">
<ele>-0.022372</ele>
<time>2026-07-13T12:43:01.000Z</time>
</trkpt>
<trkpt lat="56.553589" lon="8.157508">
<ele>0.091165</ele>
<time>2026-07-13T12:43:02.000Z</time>
</trkpt>
<trkpt lat="56.553623" lon="8.157536">
<ele>0.194526</ele>
<time>2026-07-13T12:43:03.000Z</time>
</trkpt>
<trkpt lat="56.553657" lon="8.157564">
<ele>0.297887</ele>
<time>2026-07-13T12:43:04.000Z</time>
</trkpt>
<trkpt lat="56.553692" lon="8.157589">
<ele>0.402013</ele>
<time>2026-07-13T12:43:05.000Z</time>
</trkpt>
<trkpt lat="56.553726" lon="8.157614">
<ele>0.503568</ele>
<time>2026-07-13T12:43:06.000Z</time>
</trkpt>
<trkpt lat="56.553764" lon="8.157641">
<ele>0.616539</ele>
<time>2026-07-13T12:43:07.000Z</time>
</trkpt>
<trkpt lat="56.553802" lon="8.157676">
<ele>0.734510</ele>
<time>2026-07-13T12:43:08.000Z</time>
</trkpt>
<trkpt lat="56.553841" lon="8.157719">
<ele>0.860841</ele>
<time>2026-07-13T12:43:09.000Z</time>
</trkpt>
<trkpt lat="56.553875" lon="8.157766">
<ele>0.979166</ele>
<time>2026-07-13T12:43:10.000Z</time>
</trkpt>
<trkpt lat="56.553909" lon="8.157812">
<ele>1.096572</ele>
<time>2026-07-13T12:43:11.000Z</time>
</trkpt>
<trkpt lat="56.553947" lon="8.157859">
<ele>1.223881</ele>
<time>2026-07-13T12:43:12.000Z</time>
</trkpt>
<trkpt lat="56.553978" lon="8.157906">
<ele>1.335712</ele>
<time>2026-07-13T12:43:13.000Z</time>
</trkpt>
<trkpt lat="56.554008" lon="8.157949">
<ele>1.441546</ele>
<time>2026-07-13T12:43:14.000Z</time>
</trkpt>
<trkpt lat="56.554039" lon="8.157996">
<ele>1.553378</ele>
<time>2026-07-13T12:43:15.000Z</time>
</trkpt>
<trkpt lat="56.554070" lon="8.158042">
<ele>1.664238</ele>
<time>2026-07-13T12:43:16.000Z</time>
</trkpt>
<trkpt lat="56.554104" lon="8.158086">
<ele>1.779845</ele>
<time>2026-07-13T12:43:17.000Z</time>
</trkpt>
<trkpt lat="56.554138" lon="8.158127">
<ele>1.892856</ele>
<time>2026-07-13T12:43:18.000Z</time>
</trkpt>
<trkpt lat="56.554172" lon="8.158168">
<ele>2.005867</ele>
<time>2026-07-13T12:43:19.000Z</time>
</trkpt>
<trkpt lat="56.554207" lon="8.158209">
<ele>2.121194</ele>
<time>2026-07-13T12:43:20.000Z</time>
</trkpt>
<trkpt lat="56.554241" lon="8.158254">
<ele>2.237694</ele>
<time>2026-07-13T12:43:21.000Z</time>
</trkpt>
<trkpt lat="56.554272" lon="8.158302">
<ele>2.350510</ele>
<time>2026-07-13T12:43:22.000Z</time>
</trkpt>
<trkpt lat="56.554302" lon="8.158352">
<ele>2.463276</ele>
<time>2026-07-13T12:43:23.000Z</time>
</trkpt>
<trkpt lat="56.554329" lon="8.158401">
<ele>2.568989</ele>
<time>2026-07-13T12:43:24.000Z</time>
</trkpt>
<trkpt lat="56.554359" lon="8.158453">
<ele>2.683841</ele>
<time>2026-07-13T12:43:25.000Z</time>
</trkpt>
<trkpt lat="56.554386" lon="8.158502">
<ele>2.789555</ele>
<time>2026-07-13T12:43:26.000Z</time>
</trkpt>
<trkpt lat="56.554413" lon="8.158554">
<ele>2.898553</ele>
<time>2026-07-13T12:43:27.000Z</time>
</trkpt>
<trkpt lat="56.554440" lon="8.158606">
<ele>3.007551</ele>
<time>2026-07-13T12:43:28.000Z</time>
</trkpt>
<trkpt lat="56.554466" lon="8.158661">
<ele>3.118103</ele>
<time>2026-07-13T12:43:29.000Z</time>
</trkpt>
<trkpt lat="56.554493" lon="8.158715">
<ele>3.229341</ele>
<time>2026-07-13T12:43:30.000Z</time>
</trkpt>
<trkpt lat="56.554520" lon="8.158770">
<ele>3.341715</ele>
<time>2026-07-13T12:43:31.000Z</time>
</trkpt>
<trkpt lat="56.554543" lon="8.158820">
<ele>3.441078</ele>
<time>2026-07-13T12:43:32.000Z</time>
</trkpt>
<trkpt lat="56.554569" lon="8.158877">
<ele>3.553963</ele>
<time>2026-07-13T12:43:33.000Z</time>
</trkpt>
<trkpt lat="56.554596" lon="8.158934">
<ele>3.668633</ele>
<time>2026-07-13T12:43:34.000Z</time>
</trkpt>
<trkpt lat="56.554623" lon="8.158993">
<ele>3.785634</ele>
<time>2026-07-13T12:43:35.000Z</time>
</trkpt>
<trkpt lat="56.554642" lon="8.159050">
<ele>3.887266</ele>
<time>2026-07-13T12:43:36.000Z</time>
</trkpt>
<trkpt lat="56.554661" lon="8.159110">
<ele>3.992841</ele>
<time>2026-07-13T12:43:37.000Z</time>
</trkpt>
<trkpt lat="56.554687" lon="8.159166">
<ele>4.104555</ele>
<time>2026-07-13T12:43:38.000Z</time>
</trkpt>
<trkpt lat="56.554714" lon="8.159222">
<ele>4.218072</ele>
<time>2026-07-13T12:43:39.000Z</time>
</trkpt>
<trkpt lat="56.554741" lon="8.159273">
<ele>4.310568</ele>
<time>2026-07-13T12:43:40.000Z</time>
</trkpt>
<trkpt lat="56.554768" lon="8.159326">
<ele>4.376098</ele>
<time>2026-07-13T12:43:41.000Z</time>
</trkpt>
<trkpt lat="56.554790" lon="8.159377">
<ele>4.434900</ele>
<time>2026-07-13T12:43:42.000Z</time>
</trkpt>
<trkpt lat="56.554817" lon="8.159431">
<ele>4.501100</ele>
<time>2026-07-13T12:43:43.000Z</time>
</trkpt>
<trkpt lat="56.554844" lon="8.159484">
<ele>4.566629</ele>
<time>2026-07-13T12:43:44.000Z</time>
</trkpt>
<trkpt lat="56.554871" lon="8.159536">
<ele>4.631495</ele>
<time>2026-07-13T12:43:45.000Z</time>
</trkpt>
<trkpt lat="56.554893" lon="8.159587">
<ele>4.690298</ele>
<time>2026-07-13T12:43:46.000Z</time>
</trkpt>
<trkpt lat="56.554920" lon="8.159636">
<ele>4.753209</ele>
<time>2026-07-13T12:43:47.000Z</time>
</trkpt>
<trkpt lat="56.554947" lon="8.159680">
<ele>4.812995</ele>
<time>2026-07-13T12:43:48.000Z</time>
</trkpt>
<trkpt lat="56.554974" lon="8.159724">
<ele>4.872782</ele>
<time>2026-07-13T12:43:49.000Z</time>
</trkpt>
<trkpt lat="56.555000" lon="8.159767">
<ele>4.930738</ele>
<time>2026-07-13T12:43:50.000Z</time>
</trkpt>
<trkpt lat="56.555027" lon="8.159811">
<ele>4.990524</ele>
<time>2026-07-13T12:43:51.000Z</time>
</trkpt>
<trkpt lat="56.555046" lon="8.159850">
<ele>5.037785</ele>
<time>2026-07-13T12:43:52.000Z</time>
</trkpt>
<trkpt lat="56.555073" lon="8.159894">
<ele>5.097572</ele>
<time>2026-07-13T12:43:53.000Z</time>
</trkpt>
<trkpt lat="56.555100" lon="8.159934">
<ele>5.154995</ele>
<time>2026-07-13T12:43:54.000Z</time>
</trkpt>
<trkpt lat="56.555126" lon="8.159976">
<ele>5.212344</ele>
<time>2026-07-13T12:43:55.000Z</time>
</trkpt>
<trkpt lat="56.555153" lon="8.160014">
<ele>5.268636</ele>
<time>2026-07-13T12:43:56.000Z</time>
</trkpt>
<trkpt lat="56.555183" lon="8.160051">
<ele>5.328395</ele>
<time>2026-07-13T12:43:57.000Z</time>
</trkpt>
<trkpt lat="56.555214" lon="8.160088">
<ele>5.389523</ele>
<time>2026-07-13T12:43:58.000Z</time>
</trkpt>
<trkpt lat="56.555241" lon="8.160123">
<ele>5.444188</ele>
<time>2026-07-13T12:43:59.000Z</time>
</trkpt>
<trkpt lat="56.555267" lon="8.160152">
<ele>5.494467</ele>
<time>2026-07-13T12:44:00.000Z</time>
</trkpt>
<trkpt lat="56.555302" lon="8.160186">
<ele>5.559870</ele>
<time>2026-07-13T12:44:01.000Z</time>
</trkpt>
<trkpt lat="56.555340" lon="8.160218">
<ele>5.628885</ele>
<time>2026-07-13T12:44:02.000Z</time>
</trkpt>
<trkpt lat="56.555378" lon="8.160252">
<ele>5.698684</ele>
<time>2026-07-13T12:44:03.000Z</time>
</trkpt>
<trkpt lat="56.555416" lon="8.160285">
<ele>5.768086</ele>
<time>2026-07-13T12:44:04.000Z</time>
</trkpt>
<trkpt lat="56.555454" lon="8.160319">
<ele>5.837885</ele>
<time>2026-07-13T12:44:05.000Z</time>
</trkpt>
<trkpt lat="56.555492" lon="8.160353">
<ele>5.907684</ele>
<time>2026-07-13T12:44:06.000Z</time>
</trkpt>
<trkpt lat="56.555531" lon="8.160384">
<ele>5.977827</ele>
<time>2026-07-13T12:44:07.000Z</time>
</trkpt>
<trkpt lat="56.555573" lon="8.160412">
<ele>6.051541</ele>
<time>2026-07-13T12:44:08.000Z</time>
</trkpt>
<trkpt lat="56.555618" lon="8.160439">
<ele>6.129622</ele>
<time>2026-07-13T12:44:09.000Z</time>
</trkpt>
<trkpt lat="56.555660" lon="8.160467">
<ele>6.203336</ele>
<time>2026-07-13T12:44:10.000Z</time>
</trkpt>
<trkpt lat="56.555702" lon="8.160493">
<ele>6.276443</ele>
<time>2026-07-13T12:44:11.000Z</time>
</trkpt>
<trkpt lat="56.555744" lon="8.160518">
<ele>6.349262</ele>
<time>2026-07-13T12:44:12.000Z</time>
</trkpt>
<trkpt lat="56.555790" lon="8.160537">
<ele>6.426982</ele>
<time>2026-07-13T12:44:13.000Z</time>
</trkpt>
<trkpt lat="56.555832" lon="8.160554">
<ele>6.497874</ele>
<time>2026-07-13T12:44:14.000Z</time>
</trkpt>
<trkpt lat="56.555878" lon="8.160574">
<ele>6.575800</ele>
<time>2026-07-13T12:44:15.000Z</time>
</trkpt>
<trkpt lat="56.555923" lon="8.160591">
<ele>6.651523</ele>
<time>2026-07-13T12:44:16.000Z</time>
</trkpt>
<trkpt lat="56.555965" lon="8.160603">
<ele>6.721566</ele>
<time>2026-07-13T12:44:17.000Z</time>
</trkpt>
<trkpt lat="56.556015" lon="8.160612">
<ele>6.804341</ele>
<time>2026-07-13T12:44:18.000Z</time>
</trkpt>
<trkpt lat="56.556061" lon="8.160623">
<ele>6.880777</ele>
<time>2026-07-13T12:44:19.000Z</time>
</trkpt>
<trkpt lat="56.556110" lon="8.160632">
<ele>6.961913</ele>
<time>2026-07-13T12:44:20.000Z</time>
</trkpt>
<trkpt lat="56.556160" lon="8.160639">
<ele>7.044528</ele>
<time>2026-07-13T12:44:21.000Z</time>
</trkpt>
<trkpt lat="56.556210" lon="8.160642">
<ele>7.126943</ele>
<time>2026-07-13T12:44:22.000Z</time>
</trkpt>
<trkpt lat="56.556263" lon="8.160640">
<ele>7.214275</ele>
<time>2026-07-13T12:44:23.000Z</time>
</trkpt>
<trkpt lat="56.556320" lon="8.160636">
<ele>7.245888</ele>
<time>2026-07-13T12:44:24.000Z</time>
</trkpt>
<trkpt lat="56.556370" lon="8.160635">
<ele>7.238473</ele>
<time>2026-07-13T12:44:25.000Z</time>
</trkpt>
<trkpt lat="56.556419" lon="8.160635">
<ele>7.231208</ele>
<time>2026-07-13T12:44:26.000Z</time>
</trkpt>
<trkpt lat="56.556473" lon="8.160635">
<ele>7.223200</ele>
<time>2026-07-13T12:44:27.000Z</time>
</trkpt>
<trkpt lat="56.556522" lon="8.160635">
<ele>7.215935</ele>
<time>2026-07-13T12:44:28.000Z</time>
</trkpt>
<trkpt lat="56.556572" lon="8.160638">
<ele>7.208517</ele>
<time>2026-07-13T12:44:29.000Z</time>
</trkpt>
<trkpt lat="56.556622" lon="8.160640">
<ele>7.201101</ele>
<time>2026-07-13T12:44:30.000Z</time>
</trkpt>
<trkpt lat="56.556679" lon="8.160642">
<ele>7.192648</ele>
<time>2026-07-13T12:44:31.000Z</time>
</trkpt>
<trkpt lat="56.556736" lon="8.160642">
<ele>7.184196</ele>
<time>2026-07-13T12:44:32.000Z</time>
</trkpt>
<trkpt lat="56.556793" lon="8.160640">
<ele>7.175742</ele>
<time>2026-07-13T12:44:33.000Z</time>
</trkpt>
<trkpt lat="56.556847" lon="8.160639">
<ele>7.167735</ele>
<time>2026-07-13T12:44:34.000Z</time>
</trkpt>
<trkpt lat="56.556900" lon="8.160637">
<ele>7.159874</ele>
<time>2026-07-13T12:44:35.000Z</time>
</trkpt>
<trkpt lat="56.556957" lon="8.160639">
<ele>7.151421</ele>
<time>2026-07-13T12:44:36.000Z</time>
</trkpt>
<trkpt lat="56.557014" lon="8.160639">
<ele>7.142969</ele>
<time>2026-07-13T12:44:37.000Z</time>
</trkpt>
<trkpt lat="56.557072" lon="8.160639">
<ele>7.134369</ele>
<time>2026-07-13T12:44:38.000Z</time>
</trkpt>
<trkpt lat="56.557121" lon="8.160639">
<ele>7.127103</ele>
<time>2026-07-13T12:44:39.000Z</time>
</trkpt>
<trkpt lat="56.557175" lon="8.160637">
<ele>7.119094</ele>
<time>2026-07-13T12:44:40.000Z</time>
</trkpt>
<trkpt lat="56.557228" lon="8.160636">
<ele>7.111235</ele>
<time>2026-07-13T12:44:41.000Z</time>
</trkpt>
<trkpt lat="56.557285" lon="8.160635">
<ele>7.102783</ele>
<time>2026-07-13T12:44:42.000Z</time>
</trkpt>
<trkpt lat="56.557335" lon="8.160639">
<ele>7.095361</ele>
<time>2026-07-13T12:44:43.000Z</time>
</trkpt>
<trkpt lat="56.557388" lon="8.160643">
<ele>7.087496</ele>
<time>2026-07-13T12:44:44.000Z</time>
</trkpt>
<trkpt lat="56.557442" lon="8.160645">
<ele>7.079487</ele>
<time>2026-07-13T12:44:45.000Z</time>
</trkpt>
<trkpt lat="56.557495" lon="8.160645">
<ele>7.071628</ele>
<time>2026-07-13T12:44:46.000Z</time>
</trkpt>
<trkpt lat="56.557549" lon="8.160645">
<ele>7.063621</ele>
<time>2026-07-13T12:44:47.000Z</time>
</trkpt>
<trkpt lat="56.557606" lon="8.160645">
<ele>7.055169</ele>
<time>2026-07-13T12:44:48.000Z</time>
</trkpt>
<trkpt lat="56.557655" lon="8.160645">
<ele>7.047904</ele>
<time>2026-07-13T12:44:49.000Z</time>
</trkpt>
<trkpt lat="56.557713" lon="8.160645">
<ele>7.039303</ele>
<time>2026-07-13T12:44:50.000Z</time>
</trkpt>
<trkpt lat="56.557762" lon="8.160645">
<ele>7.032038</ele>
<time>2026-07-13T12:44:51.000Z</time>
</trkpt>
<trkpt lat="56.557816" lon="8.160644">
<ele>7.024030</ele>
<time>2026-07-13T12:44:52.000Z</time>
</trkpt>
<trkpt lat="56.557873" lon="8.160641">
<ele>7.015575</ele>
<time>2026-07-13T12:44:53.000Z</time>
</trkpt>
<trkpt lat="56.557926" lon="8.160639">
<ele>7.007714</ele>
<time>2026-07-13T12:44:54.000Z</time>
</trkpt>
<trkpt lat="56.557976" lon="8.160639">
<ele>7.000300</ele>
<time>2026-07-13T12:44:55.000Z</time>
</trkpt>
<trkpt lat="56.558025" lon="8.160640">
<ele>6.993034</ele>
<time>2026-07-13T12:44:56.000Z</time>
</trkpt>
<trkpt lat="56.558071" lon="8.160642">
<ele>6.986211</ele>
<time>2026-07-13T12:44:57.000Z</time>
</trkpt>
<trkpt lat="56.558117" lon="8.160644">
<ele>7.048943</ele>
<time>2026-07-13T12:44:58.000Z</time>
</trkpt>
<trkpt lat="56.558163" lon="8.160645">
<ele>7.138028</ele>
<time>2026-07-13T12:44:59.000Z</time>
</trkpt>
<trkpt lat="56.558205" lon="8.160647">
<ele>7.219389</ele>
<time>2026-07-13T12:45:00.000Z</time>
</trkpt>
<trkpt lat="56.558254" lon="8.160649">
<ele>7.314301</ele>
<time>2026-07-13T12:45:01.000Z</time>
</trkpt>
<trkpt lat="56.558300" lon="8.160651">
<ele>7.403405</ele>
<time>2026-07-13T12:45:02.000Z</time>
</trkpt>
<trkpt lat="56.558346" lon="8.160654">
<ele>7.492542</ele>
<time>2026-07-13T12:45:03.000Z</time>
</trkpt>
<trkpt lat="56.558392" lon="8.160655">
<ele>7.581627</ele>
<time>2026-07-13T12:45:04.000Z</time>
</trkpt>
<trkpt lat="56.558434" lon="8.160652">
<ele>7.663022</ele>
<time>2026-07-13T12:45:05.000Z</time>
</trkpt>
<trkpt lat="56.558479" lon="8.160649">
<ele>7.750224</ele>
<time>2026-07-13T12:45:06.000Z</time>
</trkpt>
<trkpt lat="56.558525" lon="8.160645">
<ele>7.839405</ele>
<time>2026-07-13T12:45:07.000Z</time>
</trkpt>
<trkpt lat="56.558567" lon="8.160645">
<ele>7.920737</ele>
<time>2026-07-13T12:45:08.000Z</time>
</trkpt>
<trkpt lat="56.558613" lon="8.160645">
<ele>8.009816</ele>
<time>2026-07-13T12:45:09.000Z</time>
</trkpt>
<trkpt lat="56.558659" lon="8.160645">
<ele>8.098895</ele>
<time>2026-07-13T12:45:10.000Z</time>
</trkpt>
<trkpt lat="56.558704" lon="8.160644">
<ele>8.186044</ele>
<time>2026-07-13T12:45:11.000Z</time>
</trkpt>
<trkpt lat="56.558750" lon="8.160645">
<ele>8.275129</ele>
<time>2026-07-13T12:45:12.000Z</time>
</trkpt>
<trkpt lat="56.558792" lon="8.160647">
<ele>8.356489</ele>
<time>2026-07-13T12:45:13.000Z</time>
</trkpt>
<trkpt lat="56.558834" lon="8.160649">
<ele>8.437850</ele>
<time>2026-07-13T12:45:14.000Z</time>
</trkpt>
<trkpt lat="56.558884" lon="8.160651">
<ele>8.534699</ele>
<time>2026-07-13T12:45:15.000Z</time>
</trkpt>
<trkpt lat="56.558929" lon="8.160651">
<ele>8.621841</ele>
<time>2026-07-13T12:45:16.000Z</time>
</trkpt>
<trkpt lat="56.558975" lon="8.160651">
<ele>8.710920</ele>
<time>2026-07-13T12:45:17.000Z</time>
</trkpt>
<trkpt lat="56.559021" lon="8.160652">
<ele>8.800005</ele>
<time>2026-07-13T12:45:18.000Z</time>
</trkpt>
<trkpt lat="56.559071" lon="8.160656">
<ele>8.896923</ele>
<time>2026-07-13T12:45:19.000Z</time>
</trkpt>
<trkpt lat="56.559116" lon="8.160658">
<ele>8.984092</ele>
<time>2026-07-13T12:45:20.000Z</time>
</trkpt>
<trkpt lat="56.559158" lon="8.160661">
<ele>9.065488</ele>
<time>2026-07-13T12:45:21.000Z</time>
</trkpt>
<trkpt lat="56.559200" lon="8.160664">
<ele>9.146883</ele>
<time>2026-07-13T12:45:22.000Z</time>
</trkpt>
<trkpt lat="56.559246" lon="8.160664">
<ele>9.235962</ele>
<time>2026-07-13T12:45:23.000Z</time>
</trkpt>
<trkpt lat="56.559288" lon="8.160664">
<ele>9.317295</ele>
<time>2026-07-13T12:45:24.000Z</time>
</trkpt>
<trkpt lat="56.559334" lon="8.160665">
<ele>9.406380</ele>
<time>2026-07-13T12:45:25.000Z</time>
</trkpt>
<trkpt lat="56.559376" lon="8.160665">
<ele>9.487713</ele>
<time>2026-07-13T12:45:26.000Z</time>
</trkpt>
<trkpt lat="56.559422" lon="8.160665">
<ele>9.576792</ele>
<time>2026-07-13T12:45:27.000Z</time>
</trkpt>
<trkpt lat="56.559467" lon="8.160663">
<ele>9.663960</ele>
<time>2026-07-13T12:45:28.000Z</time>
</trkpt>
<trkpt lat="56.559513" lon="8.160659">
<ele>9.753141</ele>
<time>2026-07-13T12:45:29.000Z</time>
</trkpt>
<trkpt lat="56.559555" lon="8.160657">
<ele>9.834502</ele>
<time>2026-07-13T12:45:30.000Z</time>
</trkpt>
<trkpt lat="56.559601" lon="8.160657">
<ele>9.923580</ele>
<time>2026-07-13T12:45:31.000Z</time>
</trkpt>
<trkpt lat="56.559643" lon="8.160658">
<ele>10.004920</ele>
<time>2026-07-13T12:45:32.000Z</time>
</trkpt>
<trkpt lat="56.559689" lon="8.160660">
<ele>10.094024</ele>
<time>2026-07-13T12:45:33.000Z</time>
</trkpt>
<trkpt lat="56.559731" lon="8.160663">
<ele>10.175420</ele>
<time>2026-07-13T12:45:34.000Z</time>
</trkpt>
<trkpt lat="56.559776" lon="8.160665">
<ele>10.262589</ele>
<time>2026-07-13T12:45:35.000Z</time>
</trkpt>
<trkpt lat="56.559822" lon="8.160666">
<ele>10.351674</ele>
<time>2026-07-13T12:45:36.000Z</time>
</trkpt>
<trkpt lat="56.559864" lon="8.160666">
<ele>10.433007</ele>
<time>2026-07-13T12:45:37.000Z</time>
</trkpt>
<trkpt lat="56.559906" lon="8.160667">
<ele>10.427112</ele>
<time>2026-07-13T12:45:38.000Z</time>
</trkpt>
<trkpt lat="56.559948" lon="8.160668">
<ele>10.357313</ele>
<time>2026-07-13T12:45:39.000Z</time>
</trkpt>
<trkpt lat="56.559990" lon="8.160669">
<ele>10.287515</ele>
<time>2026-07-13T12:45:40.000Z</time>
</trkpt>
<trkpt lat="56.560032" lon="8.160669">
<ele>10.217723</ele>
<time>2026-07-13T12:45:41.000Z</time>
</trkpt>
<trkpt lat="56.560078" lon="8.160668">
<ele>10.141278</ele>
<time>2026-07-13T12:45:42.000Z</time>
</trkpt>
<trkpt lat="56.560123" lon="8.160670">
<ele>10.066478</ele>
<time>2026-07-13T12:45:43.000Z</time>
</trkpt>
<trkpt lat="56.560169" lon="8.160674">
<ele>9.989951</ele>
<time>2026-07-13T12:45:44.000Z</time>
</trkpt>
<trkpt lat="56.560215" lon="8.160674">
<ele>9.913511</ele>
<time>2026-07-13T12:45:45.000Z</time>
</trkpt>
<trkpt lat="56.560261" lon="8.160671">
<ele>9.837023</ele>
<time>2026-07-13T12:45:46.000Z</time>
</trkpt>
<trkpt lat="56.560310" lon="8.160670">
<ele>9.755593</ele>
<time>2026-07-13T12:45:47.000Z</time>
</trkpt>
<trkpt lat="56.560360" lon="8.160672">
<ele>9.672487</ele>
<time>2026-07-13T12:45:48.000Z</time>
</trkpt>
<trkpt lat="56.560410" lon="8.160675">
<ele>9.589355</ele>
<time>2026-07-13T12:45:49.000Z</time>
</trkpt>
<trkpt lat="56.560455" lon="8.160676">
<ele>9.514572</ele>
<time>2026-07-13T12:45:50.000Z</time>
</trkpt>
<trkpt lat="56.560516" lon="8.160678">
<ele>9.413190</ele>
<time>2026-07-13T12:45:51.000Z</time>
</trkpt>
<trkpt lat="56.560577" lon="8.160678">
<ele>9.311825</ele>
<time>2026-07-13T12:45:52.000Z</time>
</trkpt>
<trkpt lat="56.560635" lon="8.160680">
<ele>9.215428</ele>
<time>2026-07-13T12:45:53.000Z</time>
</trkpt>
<trkpt lat="56.560699" lon="8.160678">
<ele>9.109062</ele>
<time>2026-07-13T12:45:54.000Z</time>
</trkpt>
<trkpt lat="56.560760" lon="8.160673">
<ele>9.007593</ele>
<time>2026-07-13T12:45:55.000Z</time>
</trkpt>
<trkpt lat="56.560825" lon="8.160671">
<ele>8.899565</ele>
<time>2026-07-13T12:45:56.000Z</time>
</trkpt>
<trkpt lat="56.560890" lon="8.160671">
<ele>8.791553</ele>
<time>2026-07-13T12:45:57.000Z</time>
</trkpt>
<trkpt lat="56.560955" lon="8.160672">
<ele>8.683537</ele>
<time>2026-07-13T12:45:58.000Z</time>
</trkpt>
<trkpt lat="56.561020" lon="8.160675">
<ele>8.575490</ele>
<time>2026-07-13T12:45:59.000Z</time>
</trkpt>
<trkpt lat="56.561085" lon="8.160674">
<ele>8.467475</ele>
<time>2026-07-13T12:46:00.000Z</time>
</trkpt>
<trkpt lat="56.561150" lon="8.160673">
<ele>8.359459</ele>
<time>2026-07-13T12:46:01.000Z</time>
</trkpt>
<trkpt lat="56.561222" lon="8.160673">
<ele>8.239814</ele>
<time>2026-07-13T12:46:02.000Z</time>
</trkpt>
<trkpt lat="56.561291" lon="8.160673">
<ele>8.125155</ele>
<time>2026-07-13T12:46:03.000Z</time>
</trkpt>
<trkpt lat="56.561356" lon="8.160672">
<ele>8.017140</ele>
<time>2026-07-13T12:46:04.000Z</time>
</trkpt>
<trkpt lat="56.561424" lon="8.160671">
<ele>7.904139</ele>
<time>2026-07-13T12:46:05.000Z</time>
</trkpt>
<trkpt lat="56.561493" lon="8.160671">
<ele>7.789480</ele>
<time>2026-07-13T12:46:06.000Z</time>
</trkpt>
<trkpt lat="56.561565" lon="8.160671">
<ele>7.669835</ele>
<time>2026-07-13T12:46:07.000Z</time>
</trkpt>
<trkpt lat="56.561638" lon="8.160672">
<ele>7.548526</ele>
<time>2026-07-13T12:46:08.000Z</time>
</trkpt>
<trkpt lat="56.561714" lon="8.160675">
<ele>7.419136</ele>
<time>2026-07-13T12:46:09.000Z</time>
</trkpt>
<trkpt lat="56.561787" lon="8.160677">
<ele>7.291207</ele>
<time>2026-07-13T12:46:10.000Z</time>
</trkpt>
<trkpt lat="56.561859" lon="8.160678">
<ele>7.165041</ele>
<time>2026-07-13T12:46:11.000Z</time>
</trkpt>
<trkpt lat="56.561932" lon="8.160678">
<ele>7.037126</ele>
<time>2026-07-13T12:46:12.000Z</time>
</trkpt>
<trkpt lat="56.562004" lon="8.160678">
<ele>6.910964</ele>
<time>2026-07-13T12:46:13.000Z</time>
</trkpt>
<trkpt lat="56.562080" lon="8.160677">
<ele>6.777789</ele>
<time>2026-07-13T12:46:14.000Z</time>
</trkpt>
<trkpt lat="56.562153" lon="8.160678">
<ele>6.649871</ele>
<time>2026-07-13T12:46:15.000Z</time>
</trkpt>
<trkpt lat="56.562229" lon="8.160677">
<ele>6.516696</ele>
<time>2026-07-13T12:46:16.000Z</time>
</trkpt>
<trkpt lat="56.562298" lon="8.160676">
<ele>6.395787</ele>
<time>2026-07-13T12:46:17.000Z</time>
</trkpt>
<trkpt lat="56.562370" lon="8.160674">
<ele>6.269610</ele>
<time>2026-07-13T12:46:18.000Z</time>
</trkpt>
<trkpt lat="56.562443" lon="8.160673">
<ele>6.141692</ele>
<time>2026-07-13T12:46:19.000Z</time>
</trkpt>
<trkpt lat="56.562515" lon="8.160673">
<ele>6.015530</ele>
<time>2026-07-13T12:46:20.000Z</time>
</trkpt>
<trkpt lat="56.562588" lon="8.160677">
<ele>5.887557</ele>
<time>2026-07-13T12:46:21.000Z</time>
</trkpt>
<trkpt lat="56.562660" lon="8.160681">
<ele>5.761335</ele>
<time>2026-07-13T12:46:22.000Z</time>
</trkpt>
<trkpt lat="56.562725" lon="8.160682">
<ele>5.647435</ele>
<time>2026-07-13T12:46:23.000Z</time>
</trkpt>
<trkpt lat="56.562801" lon="8.160678">
<ele>5.514208</ele>
<time>2026-07-13T12:46:24.000Z</time>
</trkpt>
<trkpt lat="56.562874" lon="8.160674">
<ele>5.386235</ele>
<time>2026-07-13T12:46:25.000Z</time>
</trkpt>
<trkpt lat="56.562946" lon="8.160672">
<ele>5.260058</ele>
<time>2026-07-13T12:46:26.000Z</time>
</trkpt>
<trkpt lat="56.563011" lon="8.160672">
<ele>5.146161</ele>
<time>2026-07-13T12:46:27.000Z</time>
</trkpt>
<trkpt lat="56.563080" lon="8.160672">
<ele>5.025256</ele>
<time>2026-07-13T12:46:28.000Z</time>
</trkpt>
<trkpt lat="56.563152" lon="8.160672">
<ele>4.899094</ele>
<time>2026-07-13T12:46:29.000Z</time>
</trkpt>
<trkpt lat="56.563217" lon="8.160673">
<ele>4.785193</ele>
<time>2026-07-13T12:46:30.000Z</time>
</trkpt>
<trkpt lat="56.563286" lon="8.160675">
<ele>4.664272</ele>
<time>2026-07-13T12:46:31.000Z</time>
</trkpt>
<trkpt lat="56.563358" lon="8.160675">
<ele>4.538110</ele>
<time>2026-07-13T12:46:32.000Z</time>
</trkpt>
<trkpt lat="56.563423" lon="8.160675">
<ele>4.424213</ele>
<time>2026-07-13T12:46:33.000Z</time>
</trkpt>
<trkpt lat="56.563488" lon="8.160676">
<ele>4.319257</ele>
<time>2026-07-13T12:46:34.000Z</time>
</trkpt>
<trkpt lat="56.563549" lon="8.160681">
<ele>4.270059</ele>
<time>2026-07-13T12:46:35.000Z</time>
</trkpt>
<trkpt lat="56.563618" lon="8.160683">
<ele>4.214459</ele>
<time>2026-07-13T12:46:36.000Z</time>
</trkpt>
<trkpt lat="56.563683" lon="8.160681">
<ele>4.162080</ele>
<time>2026-07-13T12:46:37.000Z</time>
</trkpt>
<trkpt lat="56.563747" lon="8.160678">
<ele>4.110498</ele>
<time>2026-07-13T12:46:38.000Z</time>
</trkpt>
<trkpt lat="56.563808" lon="8.160674">
<ele>4.061318</ele>
<time>2026-07-13T12:46:39.000Z</time>
</trkpt>
<trkpt lat="56.563877" lon="8.160672">
<ele>4.005718</ele>
<time>2026-07-13T12:46:40.000Z</time>
</trkpt>
<trkpt lat="56.563938" lon="8.160672">
<ele>3.956570</ele>
<time>2026-07-13T12:46:41.000Z</time>
</trkpt>
<trkpt lat="56.564003" lon="8.160675">
<ele>3.904182</ele>
<time>2026-07-13T12:46:42.000Z</time>
</trkpt>
<trkpt lat="56.564064" lon="8.160672">
<ele>3.855016</ele>
<time>2026-07-13T12:46:43.000Z</time>
</trkpt>
<trkpt lat="56.564125" lon="8.160666">
<ele>3.805796</ele>
<time>2026-07-13T12:46:44.000Z</time>
</trkpt>
<trkpt lat="56.564194" lon="8.160660">
<ele>3.750139</ele>
<time>2026-07-13T12:46:45.000Z</time>
</trkpt>
<trkpt lat="56.564262" lon="8.160654">
<ele>3.695286</ele>
<time>2026-07-13T12:46:46.000Z</time>
</trkpt>
<trkpt lat="56.564323" lon="8.160652">
<ele>3.646130</ele>
<time>2026-07-13T12:46:47.000Z</time>
</trkpt>
<trkpt lat="56.564388" lon="8.160649">
<ele>3.593743</ele>
<time>2026-07-13T12:46:48.000Z</time>
</trkpt>
<trkpt lat="56.564449" lon="8.160645">
<ele>3.544563</ele>
<time>2026-07-13T12:46:49.000Z</time>
</trkpt>
<trkpt lat="56.564514" lon="8.160641">
<ele>3.492162</ele>
<time>2026-07-13T12:46:50.000Z</time>
</trkpt>
<trkpt lat="56.564583" lon="8.160631">
<ele>3.436391</ele>
<time>2026-07-13T12:46:51.000Z</time>
</trkpt>
<trkpt lat="56.564644" lon="8.160619">
<ele>3.386956</ele>
<time>2026-07-13T12:46:52.000Z</time>
</trkpt>
<trkpt lat="56.564705" lon="8.160603">
<ele>3.337297</ele>
<time>2026-07-13T12:46:53.000Z</time>
</trkpt>
<trkpt lat="56.564758" lon="8.160592">
<ele>3.294317</ele>
<time>2026-07-13T12:46:54.000Z</time>
</trkpt>
<trkpt lat="56.564823" lon="8.160581">
<ele>3.241719</ele>
<time>2026-07-13T12:46:55.000Z</time>
</trkpt>
<trkpt lat="56.564892" lon="8.160568">
<ele>3.185826</ele>
<time>2026-07-13T12:46:56.000Z</time>
</trkpt>
<trkpt lat="56.564949" lon="8.160560">
<ele>3.139764</ele>
<time>2026-07-13T12:46:57.000Z</time>
</trkpt>
<trkpt lat="56.565010" lon="8.160550">
<ele>3.090416</ele>
<time>2026-07-13T12:46:58.000Z</time>
</trkpt>
<trkpt lat="56.565071" lon="8.160544">
<ele>3.041196</ele>
<time>2026-07-13T12:46:59.000Z</time>
</trkpt>
<trkpt lat="56.565140" lon="8.160539">
<ele>2.985558</ele>
<time>2026-07-13T12:47:00.000Z</time>
</trkpt>
<trkpt lat="56.565205" lon="8.160530">
<ele>2.933035</ele>
<time>2026-07-13T12:47:01.000Z</time>
</trkpt>
<trkpt lat="56.565266" lon="8.160518">
<ele>2.883600</ele>
<time>2026-07-13T12:47:02.000Z</time>
</trkpt>
<trkpt lat="56.565330" lon="8.160505">
<ele>2.669173</ele>
<time>2026-07-13T12:47:03.000Z</time>
</trkpt>
<trkpt lat="56.565392" lon="8.160496">
<ele>2.441929</ele>
<time>2026-07-13T12:47:04.000Z</time>
</trkpt>
<trkpt lat="56.565456" lon="8.160489">
<ele>2.207678</ele>
<time>2026-07-13T12:47:05.000Z</time>
</trkpt>
<trkpt lat="56.565521" lon="8.160481">
<ele>1.969652</ele>
<time>2026-07-13T12:47:06.000Z</time>
</trkpt>
<trkpt lat="56.565586" lon="8.160471">
<ele>1.731320</ele>
<time>2026-07-13T12:47:07.000Z</time>
</trkpt>
<trkpt lat="56.565651" lon="8.160455">
<ele>1.491665</ele>
<time>2026-07-13T12:47:08.000Z</time>
</trkpt>
<trkpt lat="56.565712" lon="8.160438">
<ele>1.266187</ele>
<time>2026-07-13T12:47:09.000Z</time>
</trkpt>
<trkpt lat="56.565784" lon="8.160422">
<ele>1.001167</ele>
<time>2026-07-13T12:47:10.000Z</time>
</trkpt>
<trkpt lat="56.565853" lon="8.160410">
<ele>0.747918</ele>
<time>2026-07-13T12:47:11.000Z</time>
</trkpt>
<trkpt lat="56.565918" lon="8.160400">
<ele>0.509586</ele>
<time>2026-07-13T12:47:12.000Z</time>
</trkpt>
<trkpt lat="56.565990" lon="8.160395">
<ele>0.246338</ele>
<time>2026-07-13T12:47:13.000Z</time>
</trkpt>
<trkpt lat="56.566059" lon="8.160389">
<ele>-0.006046</ele>
<time>2026-07-13T12:47:14.000Z</time>
</trkpt>
<trkpt lat="56.566132" lon="8.160378">
<ele>-0.273672</ele>
<time>2026-07-13T12:47:15.000Z</time>
</trkpt>
<trkpt lat="56.566204" lon="8.160364">
<ele>-0.538233</ele>
<time>2026-07-13T12:47:16.000Z</time>
</trkpt>
<trkpt lat="56.566280" lon="8.160357">
<ele>-0.816260</ele>
<time>2026-07-13T12:47:17.000Z</time>
</trkpt>
<trkpt lat="56.566357" lon="8.160357">
<ele>-1.097583</ele>
<time>2026-07-13T12:47:18.000Z</time>
</trkpt>
<trkpt lat="56.566425" lon="8.160362">
<ele>-1.346228</ele>
<time>2026-07-13T12:47:19.000Z</time>
</trkpt>
<trkpt lat="56.566513" lon="8.160371">
<ele>-1.668250</ele>
<time>2026-07-13T12:47:20.000Z</time>
</trkpt>
<trkpt lat="56.566597" lon="8.160382">
<ele>-1.975946</ele>
<time>2026-07-13T12:47:21.000Z</time>
</trkpt>
<trkpt lat="56.566681" lon="8.160398">
<ele>-2.284529</ele>
<time>2026-07-13T12:47:22.000Z</time>
</trkpt>
<trkpt lat="56.566765" lon="8.160420">
<ele>-2.594605</ele>
<time>2026-07-13T12:47:23.000Z</time>
</trkpt>
<trkpt lat="56.566849" lon="8.160449">
<ele>-2.907006</ele>
<time>2026-07-13T12:47:24.000Z</time>
</trkpt>
<trkpt lat="56.566933" lon="8.160483">
<ele>-3.221443</ele>
<time>2026-07-13T12:47:25.000Z</time>
</trkpt>
<trkpt lat="56.567020" lon="8.160522">
<ele>-3.548852</ele>
<time>2026-07-13T12:47:26.000Z</time>
</trkpt>
<trkpt lat="56.567104" lon="8.160567">
<ele>-3.849286</ele>
<time>2026-07-13T12:47:27.000Z</time>
</trkpt>
<trkpt lat="56.567192" lon="8.160617">
<ele>-4.148564</ele>
<time>2026-07-13T12:47:28.000Z</time>
</trkpt>
<trkpt lat="56.567280" lon="8.160670">
<ele>-4.449488</ele>
<time>2026-07-13T12:47:29.000Z</time>
</trkpt>
<trkpt lat="56.567364" lon="8.160721">
<ele>-4.736965</ele>
<time>2026-07-13T12:47:30.000Z</time>
</trkpt>
<trkpt lat="56.567455" lon="8.160775">
<ele>-5.047696</ele>
<time>2026-07-13T12:47:31.000Z</time>
</trkpt>
<trkpt lat="56.567543" lon="8.160829">
<ele>-5.349188</ele>
<time>2026-07-13T12:47:32.000Z</time>
</trkpt>
<trkpt lat="56.567631" lon="8.160882">
<ele>-5.650112</ele>
<time>2026-07-13T12:47:33.000Z</time>
</trkpt>
<trkpt lat="56.567718" lon="8.160935">
<ele>-5.947957</ele>
<time>2026-07-13T12:47:34.000Z</time>
</trkpt>
<trkpt lat="56.567799" lon="8.160987">
<ele>-6.226808</ele>
<time>2026-07-13T12:47:35.000Z</time>
</trkpt>
<trkpt lat="56.567879" lon="8.161035">
<ele>-6.500273</ele>
<time>2026-07-13T12:47:36.000Z</time>
</trkpt>
<trkpt lat="56.567955" lon="8.161081">
<ele>-6.760290</ele>
<time>2026-07-13T12:47:37.000Z</time>
</trkpt>
<trkpt lat="56.568024" lon="8.161122">
<ele>-6.995930</ele>
<time>2026-07-13T12:47:38.000Z</time>
</trkpt>
<trkpt lat="56.568089" lon="8.161157">
<ele>-7.215979</ele>
<time>2026-07-13T12:47:39.000Z</time>
</trkpt>
<trkpt lat="56.568142" lon="8.161187">
<ele>-7.396165</ele>
<time>2026-07-13T12:47:40.000Z</time>
</trkpt>
<trkpt lat="56.568192" lon="8.161214">
<ele>-7.565474</ele>
<time>2026-07-13T12:47:41.000Z</time>
</trkpt>
<trkpt lat="56.568233" lon="8.161236">
<ele>-7.704235</ele>
<time>2026-07-13T12:47:42.000Z</time>
</trkpt>
<trkpt lat="56.568275" lon="8.161242">
<ele>-7.840971</ele>
<time>2026-07-13T12:47:43.000Z</time>
</trkpt>
<trkpt lat="56.568317" lon="8.161227">
<ele>-7.979899</ele>
<time>2026-07-13T12:47:44.000Z</time>
</trkpt>
<trkpt lat="56.568356" lon="8.161186">
<ele>-8.126175</ele>
<time>2026-07-13T12:47:45.000Z</time>
</trkpt>
<trkpt lat="56.568386" lon="8.161124">
<ele>-8.273725</ele>
<time>2026-07-13T12:47:46.000Z</time>
</trkpt>
<trkpt lat="56.568413" lon="8.161057">
<ele>-8.422157</ele>
<time>2026-07-13T12:47:47.000Z</time>
</trkpt>
<trkpt lat="56.568439" lon="8.160983">
<ele>-8.579096</ele>
<time>2026-07-13T12:47:48.000Z</time>
</trkpt>
<trkpt lat="56.568462" lon="8.160910">
<ele>-8.729465</ele>
<time>2026-07-13T12:47:49.000Z</time>
</trkpt>
<trkpt lat="56.568489" lon="8.160836">
<ele>-8.888172</ele>
<time>2026-07-13T12:47:50.000Z</time>
</trkpt>
<trkpt lat="56.568512" lon="8.160756">
<ele>-9.049527</ele>
<time>2026-07-13T12:47:51.000Z</time>
</trkpt>
<trkpt lat="56.568535" lon="8.160668">
<ele>-9.223690</ele>
<time>2026-07-13T12:47:52.000Z</time>
</trkpt>
<trkpt lat="56.568554" lon="8.160583">
<ele>-9.387713</ele>
<time>2026-07-13T12:47:53.000Z</time>
</trkpt>
<trkpt lat="56.568581" lon="8.160493">
<ele>-9.537745</ele>
<time>2026-07-13T12:47:54.000Z</time>
</trkpt>
<trkpt lat="56.568607" lon="8.160403">
<ele>-9.567055</ele>
<time>2026-07-13T12:47:55.000Z</time>
</trkpt>
<trkpt lat="56.568630" lon="8.160314">
<ele>-9.595408</ele>
<time>2026-07-13T12:47:56.000Z</time>
</trkpt>
<trkpt lat="56.568649" lon="8.160221">
<ele>-9.624016</ele>
<time>2026-07-13T12:47:57.000Z</time>
</trkpt>
<trkpt lat="56.568665" lon="8.160125">
<ele>-9.652944</ele>
<time>2026-07-13T12:47:58.000Z</time>
</trkpt>
<trkpt lat="56.568680" lon="8.160026">
<ele>-9.682558</ele>
<time>2026-07-13T12:47:59.000Z</time>
</trkpt>
<trkpt lat="56.568699" lon="8.159925">
<ele>-9.713340</ele>
<time>2026-07-13T12:48:00.000Z</time>
</trkpt>
<trkpt lat="56.568718" lon="8.159822">
<ele>-9.744669</ele>
<time>2026-07-13T12:48:01.000Z</time>
</trkpt>
<trkpt lat="56.568733" lon="8.159719">
<ele>-9.775396</ele>
<time>2026-07-13T12:48:02.000Z</time>
</trkpt>
<trkpt lat="56.568752" lon="8.159614">
<ele>-9.807272</ele>
<time>2026-07-13T12:48:03.000Z</time>
</trkpt>
<trkpt lat="56.568771" lon="8.159509">
<ele>-9.839148</ele>
<time>2026-07-13T12:48:04.000Z</time>
</trkpt>
<trkpt lat="56.568783" lon="8.159400">
<ele>-9.871208</ele>
<time>2026-07-13T12:48:05.000Z</time>
</trkpt>
<trkpt lat="56.568798" lon="8.159288">
<ele>-9.904452</ele>
<time>2026-07-13T12:48:06.000Z</time>
</trkpt>
<trkpt lat="56.568817" lon="8.159180">
<ele>-9.937151</ele>
<time>2026-07-13T12:48:07.000Z</time>
</trkpt>
<trkpt lat="56.568836" lon="8.159074">
<ele>-9.969301</ele>
<time>2026-07-13T12:48:08.000Z</time>
</trkpt>
<trkpt lat="56.568851" lon="8.158968">
<ele>-10.000866</ele>
<time>2026-07-13T12:48:09.000Z</time>
</trkpt>
<trkpt lat="56.568867" lon="8.158865">
<ele>-10.031732</ele>
<time>2026-07-13T12:48:10.000Z</time>
</trkpt>
<trkpt lat="56.568882" lon="8.158758">
<ele>-10.063576</ele>
<time>2026-07-13T12:48:11.000Z</time>
</trkpt>
<trkpt lat="56.568901" lon="8.158654">
<ele>-10.095178</ele>
<time>2026-07-13T12:48:12.000Z</time>
</trkpt>
<trkpt lat="56.568916" lon="8.158547">
<ele>-10.127022</ele>
<time>2026-07-13T12:48:13.000Z</time>
</trkpt>
<trkpt lat="56.568932" lon="8.158442">
<ele>-10.158443</ele>
<time>2026-07-13T12:48:14.000Z</time>
</trkpt>
<trkpt lat="56.568947" lon="8.158333">
<ele>-10.190847</ele>
<time>2026-07-13T12:48:15.000Z</time>
</trkpt>
<trkpt lat="56.568966" lon="8.158224">
<ele>-10.223821</ele>
<time>2026-07-13T12:48:16.000Z</time>
</trkpt>
<trkpt lat="56.568981" lon="8.158116">
<ele>-10.255945</ele>
<time>2026-07-13T12:48:17.000Z</time>
</trkpt>
<trkpt lat="56.568996" lon="8.158007">
<ele>-10.288349</ele>
<time>2026-07-13T12:48:18.000Z</time>
</trkpt>
<trkpt lat="56.569015" lon="8.157900">
<ele>-10.320773</ele>
<time>2026-07-13T12:48:19.000Z</time>
</trkpt>
<trkpt lat="56.569031" lon="8.157793">
<ele>-10.352750</ele>
<time>2026-07-13T12:48:20.000Z</time>
</trkpt>
<trkpt lat="56.569046" lon="8.157687">
<ele>-10.384315</ele>
<time>2026-07-13T12:48:21.000Z</time>
</trkpt>
<trkpt lat="56.569061" lon="8.157588">
<ele>-10.413929</ele>
<time>2026-07-13T12:48:22.000Z</time>
</trkpt>
<trkpt lat="56.569077" lon="8.157487">
<ele>-10.444240</ele>
<time>2026-07-13T12:48:23.000Z</time>
</trkpt>
<trkpt lat="56.569096" lon="8.157383">
<ele>-10.471913</ele>
<time>2026-07-13T12:48:24.000Z</time>
</trkpt>
<trkpt lat="56.569115" lon="8.157278">
<ele>-10.460182</ele>
<time>2026-07-13T12:48:25.000Z</time>
</trkpt>
<trkpt lat="56.569141" lon="8.157174">
<ele>-10.448060</ele>
<time>2026-07-13T12:48:26.000Z</time>
</trkpt>
<trkpt lat="56.569168" lon="8.157065">
<ele>-10.435374</ele>
<time>2026-07-13T12:48:27.000Z</time>
</trkpt>
<trkpt lat="56.569195" lon="8.156957">
<ele>-10.422786</ele>
<time>2026-07-13T12:48:28.000Z</time>
</trkpt>
<trkpt lat="56.569222" lon="8.156851">
<ele>-10.410390</ele>
<time>2026-07-13T12:48:29.000Z</time>
</trkpt>
<trkpt lat="56.569248" lon="8.156739">
<ele>-10.397490</ele>
<time>2026-07-13T12:48:30.000Z</time>
</trkpt>
<trkpt lat="56.569271" lon="8.156626">
<ele>-10.384703</ele>
<time>2026-07-13T12:48:31.000Z</time>
</trkpt>
<trkpt lat="56.569294" lon="8.156516">
<ele>-10.372215</ele>
<time>2026-07-13T12:48:32.000Z</time>
</trkpt>
<trkpt lat="56.569321" lon="8.156412">
<ele>-10.360012</ele>
<time>2026-07-13T12:48:33.000Z</time>
</trkpt>
<trkpt lat="56.569347" lon="8.156301">
<ele>-10.347209</ele>
<time>2026-07-13T12:48:34.000Z</time>
</trkpt>
<trkpt lat="56.569370" lon="8.156192">
<ele>-10.334820</ele>
<time>2026-07-13T12:48:35.000Z</time>
</trkpt>
<trkpt lat="56.569393" lon="8.156085">
<ele>-10.322629</ele>
<time>2026-07-13T12:48:36.000Z</time>
</trkpt>
<trkpt lat="56.569408" lon="8.155976">
<ele>-10.310704</ele>
<time>2026-07-13T12:48:37.000Z</time>
</trkpt>
<trkpt lat="56.569420" lon="8.155882">
<ele>-10.300462</ele>
<time>2026-07-13T12:48:38.000Z</time>
</trkpt>
<trkpt lat="56.569427" lon="8.155769">
<ele>-10.288392</ele>
<time>2026-07-13T12:48:39.000Z</time>
</trkpt>
<trkpt lat="56.569427" lon="8.155648">
<ele>-10.275549</ele>
<time>2026-07-13T12:48:40.000Z</time>
</trkpt>
<trkpt lat="56.569420" lon="8.155537">
<ele>-10.263690</ele>
<time>2026-07-13T12:48:41.000Z</time>
</trkpt>
<trkpt lat="56.569408" lon="8.155426">
<ele>-10.251684</ele>
<time>2026-07-13T12:48:42.000Z</time>
</trkpt>
<trkpt lat="56.569389" lon="8.155316">
<ele>-10.239447</ele>
<time>2026-07-13T12:48:43.000Z</time>
</trkpt>
<trkpt lat="56.569370" lon="8.155207">
<ele>-10.227313</ele>
<time>2026-07-13T12:48:44.000Z</time>
</trkpt>
<trkpt lat="56.569351" lon="8.155102">
<ele>-10.215582</ele>
<time>2026-07-13T12:48:45.000Z</time>
</trkpt>
<trkpt lat="56.569332" lon="8.154992">
<ele>-10.203346</ele>
<time>2026-07-13T12:48:46.000Z</time>
</trkpt>
<trkpt lat="56.569313" lon="8.154885">
<ele>-10.191413</ele>
<time>2026-07-13T12:48:47.000Z</time>
</trkpt>
<trkpt lat="56.569294" lon="8.154779">
<ele>-10.179581</ele>
<time>2026-07-13T12:48:48.000Z</time>
</trkpt>
<trkpt lat="56.569279" lon="8.154681">
<ele>-10.168785</ele>
<time>2026-07-13T12:48:49.000Z</time>
</trkpt>
<trkpt lat="56.569260" lon="8.154573">
<ele>-10.156751</ele>
<time>2026-07-13T12:48:50.000Z</time>
</trkpt>
<trkpt lat="56.569252" lon="8.154467">
<ele>-10.145395</ele>
<time>2026-07-13T12:48:51.000Z</time>
</trkpt>
<trkpt lat="56.569248" lon="8.154361">
<ele>-10.134118</ele>
<time>2026-07-13T12:48:52.000Z</time>
</trkpt>
<trkpt lat="56.569252" lon="8.154253">
<ele>-10.125192</ele>
<time>2026-07-13T12:48:53.000Z</time>
</trkpt>
<trkpt lat="56.569263" lon="8.154141">
<ele>-10.121242</ele>
<time>2026-07-13T12:48:54.000Z</time>
</trkpt>
<trkpt lat="56.569283" lon="8.154030">
<ele>-10.117187</ele>
<time>2026-07-13T12:48:55.000Z</time>
</trkpt>
<trkpt lat="56.569302" lon="8.153917">
<ele>-10.113085</ele>
<time>2026-07-13T12:48:56.000Z</time>
</trkpt>
<trkpt lat="56.569321" lon="8.153810">
<ele>-10.109182</ele>
<time>2026-07-13T12:48:57.000Z</time>
</trkpt>
<trkpt lat="56.569344" lon="8.153702">
<ele>-10.105162</ele>
<time>2026-07-13T12:48:58.000Z</time>
</trkpt>
<trkpt lat="56.569363" lon="8.153599">
<ele>-10.101390</ele>
<time>2026-07-13T12:48:59.000Z</time>
</trkpt>
<trkpt lat="56.569382" lon="8.153493">
<ele>-10.097520</ele>
<time>2026-07-13T12:49:00.000Z</time>
</trkpt>
<trkpt lat="56.569405" lon="8.153379">
<ele>-10.093305</ele>
<time>2026-07-13T12:49:01.000Z</time>
</trkpt>
<trkpt lat="56.569424" lon="8.153269">
<ele>-10.089303</ele>
<time>2026-07-13T12:49:02.000Z</time>
</trkpt>
<trkpt lat="56.569447" lon="8.153160">
<ele>-10.085250</ele>
<time>2026-07-13T12:49:03.000Z</time>
</trkpt>
<trkpt lat="56.569466" lon="8.153056">
<ele>-10.081446</ele>
<time>2026-07-13T12:49:04.000Z</time>
</trkpt>
<trkpt lat="56.569489" lon="8.152952">
<ele>-10.077555</ele>
<time>2026-07-13T12:49:05.000Z</time>
</trkpt>
<trkpt lat="56.569511" lon="8.152844">
<ele>-10.073557</ele>
<time>2026-07-13T12:49:06.000Z</time>
</trkpt>
<trkpt lat="56.569530" lon="8.152736">
<ele>-10.069621</ele>
<time>2026-07-13T12:49:07.000Z</time>
</trkpt>
<trkpt lat="56.569550" lon="8.152627">
<ele>-10.065632</ele>
<time>2026-07-13T12:49:08.000Z</time>
</trkpt>
<trkpt lat="56.569569" lon="8.152519">
<ele>-10.061696</ele>
<time>2026-07-13T12:49:09.000Z</time>
</trkpt>
<trkpt lat="56.569584" lon="8.152415">
<ele>-10.057963</ele>
<time>2026-07-13T12:49:10.000Z</time>
</trkpt>
<trkpt lat="56.569607" lon="8.152303">
<ele>-10.053813</ele>
<time>2026-07-13T12:49:11.000Z</time>
</trkpt>
<trkpt lat="56.569630" lon="8.152192">
<ele>-10.049696</ele>
<time>2026-07-13T12:49:12.000Z</time>
</trkpt>
<trkpt lat="56.569649" lon="8.152083">
<ele>-10.045727</ele>
<time>2026-07-13T12:49:13.000Z</time>
</trkpt>
<trkpt lat="56.569672" lon="8.151975">
<ele>-10.041706</ele>
<time>2026-07-13T12:49:14.000Z</time>
</trkpt>
<trkpt lat="56.569691" lon="8.151866">
<ele>-10.037737</ele>
<time>2026-07-13T12:49:15.000Z</time>
</trkpt>
<trkpt lat="56.569710" lon="8.151761">
<ele>-10.033900</ele>
<time>2026-07-13T12:49:16.000Z</time>
</trkpt>
<trkpt lat="56.569729" lon="8.151655">
<ele>-10.030030</ele>
<time>2026-07-13T12:49:17.000Z</time>
</trkpt>
<trkpt lat="56.569748" lon="8.151551">
<ele>-10.026226</ele>
<time>2026-07-13T12:49:18.000Z</time>
</trkpt>
<trkpt lat="56.569767" lon="8.151452">
<ele>-10.022586</ele>
<time>2026-07-13T12:49:19.000Z</time>
</trkpt>
<trkpt lat="56.569786" lon="8.151353">
<ele>-10.018946</ele>
<time>2026-07-13T12:49:20.000Z</time>
</trkpt>
<trkpt lat="56.569805" lon="8.151256">
<ele>-10.015372</ele>
<time>2026-07-13T12:49:21.000Z</time>
</trkpt>
<trkpt lat="56.569824" lon="8.151159">
<ele>-10.011731</ele>
<time>2026-07-13T12:49:22.000Z</time>
</trkpt>
<trkpt lat="56.569840" lon="8.151062">
<ele>-10.008033</ele>
<time>2026-07-13T12:49:23.000Z</time>
</trkpt>
<trkpt lat="56.569855" lon="8.150973">
<ele>-10.004634</ele>
<time>2026-07-13T12:49:24.000Z</time>
</trkpt>
<trkpt lat="56.569874" lon="8.150872">
<ele>-10.000737</ele>
<time>2026-07-13T12:49:25.000Z</time>
</trkpt>
<trkpt lat="56.569897" lon="8.150769">
<ele>-9.996679</ele>
<time>2026-07-13T12:49:26.000Z</time>
</trkpt>
<trkpt lat="56.569916" lon="8.150678">
<ele>-9.993125</ele>
<time>2026-07-13T12:49:27.000Z</time>
</trkpt>
<trkpt lat="56.569931" lon="8.150589">
<ele>-9.989727</ele>
<time>2026-07-13T12:49:28.000Z</time>
</trkpt>
<trkpt lat="56.569954" lon="8.150512">
<ele>-9.986528</ele>
<time>2026-07-13T12:49:29.000Z</time>
</trkpt>
<trkpt lat="56.569984" lon="8.150449">
<ele>-9.983487</ele>
<time>2026-07-13T12:49:30.000Z</time>
</trkpt>
<trkpt lat="56.570023" lon="8.150401">
<ele>-9.980364</ele>
<time>2026-07-13T12:49:31.000Z</time>
</trkpt>
<trkpt lat="56.570065" lon="8.150374">
<ele>-9.977411</ele>
<time>2026-07-13T12:49:32.000Z</time>
</trkpt>
<trkpt lat="56.570110" lon="8.150376">
<ele>-9.974427</ele>
<time>2026-07-13T12:49:33.000Z</time>
</trkpt>
<trkpt lat="56.570160" lon="8.150401">
<ele>-9.970990</ele>
<time>2026-07-13T12:49:34.000Z</time>
</trkpt>
<trkpt lat="56.570202" lon="8.150439">
<ele>-9.967879</ele>
<time>2026-07-13T12:49:35.000Z</time>
</trkpt>
<trkpt lat="56.570244" lon="8.150487">
<ele>-9.964589</ele>
<time>2026-07-13T12:49:36.000Z</time>
</trkpt>
<trkpt lat="56.570290" lon="8.150534">
<ele>-9.961090</ele>
<time>2026-07-13T12:49:37.000Z</time>
</trkpt>
<trkpt lat="56.570335" lon="8.150577">
<ele>-9.957720</ele>
<time>2026-07-13T12:49:38.000Z</time>
</trkpt>
<trkpt lat="56.570381" lon="8.150621">
<ele>-9.954273</ele>
<time>2026-07-13T12:49:39.000Z</time>
</trkpt>
<trkpt lat="56.570427" lon="8.150663">
<ele>-9.950860</ele>
<time>2026-07-13T12:49:40.000Z</time>
</trkpt>
<trkpt lat="56.570477" lon="8.150711">
<ele>-9.947111</ele>
<time>2026-07-13T12:49:41.000Z</time>
</trkpt>
<trkpt lat="56.570526" lon="8.150760">
<ele>-9.943403</ele>
<time>2026-07-13T12:49:42.000Z</time>
</trkpt>
<trkpt lat="56.570572" lon="8.150812">
<ele>-9.939811</ele>
<time>2026-07-13T12:49:43.000Z</time>
</trkpt>
<trkpt lat="56.570618" lon="8.150864">
<ele>-9.936219</ele>
<time>2026-07-13T12:49:44.000Z</time>
</trkpt>
<trkpt lat="56.570667" lon="8.150915">
<ele>-9.932475</ele>
<time>2026-07-13T12:49:45.000Z</time>
</trkpt>
<trkpt lat="56.570713" lon="8.150964">
<ele>-9.928940</ele>
<time>2026-07-13T12:49:46.000Z</time>
</trkpt>
<trkpt lat="56.570763" lon="8.151015">
<ele>-9.925139</ele>
<time>2026-07-13T12:49:47.000Z</time>
</trkpt>
<trkpt lat="56.570808" lon="8.151066">
<ele>-9.921622</ele>
<time>2026-07-13T12:49:48.000Z</time>
</trkpt>
<trkpt lat="56.570858" lon="8.151112">
<ele>-9.917907</ele>
<time>2026-07-13T12:49:49.000Z</time>
</trkpt>
<trkpt lat="56.570904" lon="8.151159">
<ele>-9.914408</ele>
<time>2026-07-13T12:49:50.000Z</time>
</trkpt>
<trkpt lat="56.570950" lon="8.151207">
<ele>-9.910891</ele>
<time>2026-07-13T12:49:51.000Z</time>
</trkpt>
<trkpt lat="56.570992" lon="8.151250">
<ele>-9.907695</ele>
<time>2026-07-13T12:49:52.000Z</time>
</trkpt>
<trkpt lat="56.571037" lon="8.151296">
<ele>-9.904272</ele>
<time>2026-07-13T12:49:53.000Z</time>
</trkpt>
<trkpt lat="56.571079" lon="8.151340">
<ele>-9.901058</ele>
<time>2026-07-13T12:49:54.000Z</time>
</trkpt>
<trkpt lat="56.571121" lon="8.151385">
<ele>-9.897825</ele>
<time>2026-07-13T12:49:55.000Z</time>
</trkpt>
<trkpt lat="56.571163" lon="8.151431">
<ele>-9.894574</ele>
<time>2026-07-13T12:49:56.000Z</time>
</trkpt>
<trkpt lat="56.571205" lon="8.151480">
<ele>-9.894630</ele>
<time>2026-07-13T12:49:57.000Z</time>
</trkpt>
<trkpt lat="56.571247" lon="8.151525">
<ele>-9.895576</ele>
<time>2026-07-13T12:49:58.000Z</time>
</trkpt>
<trkpt lat="56.571293" lon="8.151572">
<ele>-9.896600</ele>
<time>2026-07-13T12:49:59.000Z</time>
</trkpt>
<trkpt lat="56.571339" lon="8.151624">
<ele>-9.897652</ele>
<time>2026-07-13T12:50:00.000Z</time>
</trkpt>
<trkpt lat="56.571388" lon="8.151677">
<ele>-9.898759</ele>
<time>2026-07-13T12:50:01.000Z</time>
</trkpt>
<trkpt lat="56.571442" lon="8.151734">
<ele>-9.899971</ele>
<time>2026-07-13T12:50:02.000Z</time>
</trkpt>
<trkpt lat="56.571487" lon="8.151791">
<ele>-9.901036</ele>
<time>2026-07-13T12:50:03.000Z</time>
</trkpt>
<trkpt lat="56.571541" lon="8.151845">
<ele>-9.902233</ele>
<time>2026-07-13T12:50:04.000Z</time>
</trkpt>
<trkpt lat="56.571590" lon="8.151896">
<ele>-9.903329</ele>
<time>2026-07-13T12:50:05.000Z</time>
</trkpt>
<trkpt lat="56.571644" lon="8.151950">
<ele>-9.904525</ele>
<time>2026-07-13T12:50:06.000Z</time>
</trkpt>
<trkpt lat="56.571693" lon="8.152002">
<ele>-9.905627</ele>
<time>2026-07-13T12:50:07.000Z</time>
</trkpt>
<trkpt lat="56.571747" lon="8.152058">
<ele>-9.906834</ele>
<time>2026-07-13T12:50:08.000Z</time>
</trkpt>
<trkpt lat="56.571800" lon="8.152117">
<ele>-9.908040</ele>
<time>2026-07-13T12:50:09.000Z</time>
</trkpt>
<trkpt lat="56.571854" lon="8.152172">
<ele>-9.909242</ele>
<time>2026-07-13T12:50:10.000Z</time>
</trkpt>
<trkpt lat="56.571907" lon="8.152228">
<ele>-9.910432</ele>
<time>2026-07-13T12:50:11.000Z</time>
</trkpt>
<trkpt lat="56.571957" lon="8.152273">
<ele>-9.911515</ele>
<time>2026-07-13T12:50:12.000Z</time>
</trkpt>
<trkpt lat="56.572014" lon="8.152304">
<ele>-9.912670</ele>
<time>2026-07-13T12:50:13.000Z</time>
</trkpt>
<trkpt lat="56.572071" lon="8.152308">
<ele>-9.913777</ele>
<time>2026-07-13T12:50:14.000Z</time>
</trkpt>
<trkpt lat="56.572128" lon="8.152288">
<ele>-9.914904</ele>
<time>2026-07-13T12:50:15.000Z</time>
</trkpt>
<trkpt lat="56.572182" lon="8.152237">
<ele>-9.916085</ele>
<time>2026-07-13T12:50:16.000Z</time>
</trkpt>
<trkpt lat="56.572220" lon="8.152164">
<ele>-9.917159</ele>
<time>2026-07-13T12:50:17.000Z</time>
</trkpt>
<trkpt lat="56.572250" lon="8.152076">
<ele>-9.918265</ele>
<time>2026-07-13T12:50:18.000Z</time>
</trkpt>
<trkpt lat="56.572277" lon="8.151987">
<ele>-9.919351</ele>
<time>2026-07-13T12:50:19.000Z</time>
</trkpt>
<trkpt lat="56.572300" lon="8.151896">
<ele>-9.920422</ele>
<time>2026-07-13T12:50:20.000Z</time>
</trkpt>
<trkpt lat="56.572330" lon="8.151811">
<ele>-9.921501</ele>
<time>2026-07-13T12:50:21.000Z</time>
</trkpt>
<trkpt lat="56.572353" lon="8.151739">
<ele>-9.922391</ele>
<time>2026-07-13T12:50:22.000Z</time>
</trkpt>
<trkpt lat="56.572380" lon="8.151649">
<ele>-9.923486</ele>
<time>2026-07-13T12:50:23.000Z</time>
</trkpt>
<trkpt lat="56.572411" lon="8.151545">
<ele>-9.924750</ele>
<time>2026-07-13T12:50:24.000Z</time>
</trkpt>
<trkpt lat="56.572441" lon="8.151452">
<ele>-9.925902</ele>
<time>2026-07-13T12:50:25.000Z</time>
</trkpt>
<trkpt lat="56.572468" lon="8.151359">
<ele>-9.927026</ele>
<time>2026-07-13T12:50:26.000Z</time>
</trkpt>
<trkpt lat="56.572498" lon="8.151269">
<ele>-9.928151</ele>
<time>2026-07-13T12:50:27.000Z</time>
</trkpt>
<trkpt lat="56.572529" lon="8.151180">
<ele>-9.924181</ele>
<time>2026-07-13T12:50:28.000Z</time>
</trkpt>
<trkpt lat="56.572556" lon="8.151088">
<ele>-9.914017</ele>
<time>2026-07-13T12:50:29.000Z</time>
</trkpt>
<trkpt lat="56.572582" lon="8.150998">
<ele>-9.904109</ele>
<time>2026-07-13T12:50:30.000Z</time>
</trkpt>
<trkpt lat="56.572609" lon="8.150907">
<ele>-9.894032</ele>
<time>2026-07-13T12:50:31.000Z</time>
</trkpt>
<trkpt lat="56.572636" lon="8.150814">
<ele>-9.883783</ele>
<time>2026-07-13T12:50:32.000Z</time>
</trkpt>
<trkpt lat="56.572662" lon="8.150724">
<ele>-9.873875</ele>
<time>2026-07-13T12:50:33.000Z</time>
</trkpt>
<trkpt lat="56.572693" lon="8.150630">
<ele>-9.863193</ele>
<time>2026-07-13T12:50:34.000Z</time>
</trkpt>
<trkpt lat="56.572720" lon="8.150543">
<ele>-9.853458</ele>
<time>2026-07-13T12:50:35.000Z</time>
</trkpt>
<trkpt lat="56.572746" lon="8.150445">
<ele>-9.842853</ele>
<time>2026-07-13T12:50:36.000Z</time>
</trkpt>
<trkpt lat="56.572777" lon="8.150347">
<ele>-9.831835</ele>
<time>2026-07-13T12:50:37.000Z</time>
</trkpt>
<trkpt lat="56.572807" lon="8.150255">
<ele>-9.821412</ele>
<time>2026-07-13T12:50:38.000Z</time>
</trkpt>
<trkpt lat="56.572842" lon="8.150162">
<ele>-9.810431</ele>
<time>2026-07-13T12:50:39.000Z</time>
</trkpt>
<trkpt lat="56.572872" lon="8.150069">
<ele>-9.799923</ele>
<time>2026-07-13T12:50:40.000Z</time>
</trkpt>
<trkpt lat="56.572903" lon="8.149982">
<ele>-9.789822</ele>
<time>2026-07-13T12:50:41.000Z</time>
</trkpt>
<trkpt lat="56.572933" lon="8.149885">
<ele>-9.778976</ele>
<time>2026-07-13T12:50:42.000Z</time>
</trkpt>
<trkpt lat="56.572964" lon="8.149789">
<ele>-9.768127</ele>
<time>2026-07-13T12:50:43.000Z</time>
</trkpt>
<trkpt lat="56.572994" lon="8.149694">
<ele>-9.757451</ele>
<time>2026-07-13T12:50:44.000Z</time>
</trkpt>
<trkpt lat="56.573025" lon="8.149602">
<ele>-9.746936</ele>
<time>2026-07-13T12:50:45.000Z</time>
</trkpt>
<trkpt lat="56.573059" lon="8.149506">
<ele>-9.735809</ele>
<time>2026-07-13T12:50:46.000Z</time>
</trkpt>
<trkpt lat="56.573090" lon="8.149411">
<ele>-9.725044</ele>
<time>2026-07-13T12:50:47.000Z</time>
</trkpt>
<trkpt lat="56.573120" lon="8.149316">
<ele>-9.714368</ele>
<time>2026-07-13T12:50:48.000Z</time>
</trkpt>
<trkpt lat="56.573154" lon="8.149217">
<ele>-9.702994</ele>
<time>2026-07-13T12:50:49.000Z</time>
</trkpt>
<trkpt lat="56.573185" lon="8.149120">
<ele>-9.692061</ele>
<time>2026-07-13T12:50:50.000Z</time>
</trkpt>
<trkpt lat="56.573219" lon="8.149032">
<ele>-9.681582</ele>
<time>2026-07-13T12:50:51.000Z</time>
</trkpt>
<trkpt lat="56.573254" lon="8.148944">
<ele>-9.671000</ele>
<time>2026-07-13T12:50:52.000Z</time>
</trkpt>
<trkpt lat="56.573292" lon="8.148856">
<ele>-9.660098</ele>
<time>2026-07-13T12:50:53.000Z</time>
</trkpt>
<trkpt lat="56.573338" lon="8.148770">
<ele>-9.648412</ele>
<time>2026-07-13T12:50:54.000Z</time>
</trkpt>
<trkpt lat="56.573383" lon="8.148688">
<ele>-9.637127</ele>
<time>2026-07-13T12:50:55.000Z</time>
</trkpt>
<trkpt lat="56.573429" lon="8.148613">
<ele>-9.626184</ele>
<time>2026-07-13T12:50:56.000Z</time>
</trkpt>
<trkpt lat="56.573475" lon="8.148541">
<ele>-9.615435</ele>
<time>2026-07-13T12:50:57.000Z</time>
</trkpt>
<trkpt lat="56.573524" lon="8.148475">
<ele>-9.618388</ele>
<time>2026-07-13T12:50:58.000Z</time>
</trkpt>
<trkpt lat="56.573578" lon="8.148416">
<ele>-9.633645</ele>
<time>2026-07-13T12:50:59.000Z</time>
</trkpt>
<trkpt lat="56.573631" lon="8.148361">
<ele>-9.648423</ele>
<time>2026-07-13T12:51:00.000Z</time>
</trkpt>
<trkpt lat="56.573688" lon="8.148322">
<ele>-9.663169</ele>
<time>2026-07-13T12:51:01.000Z</time>
</trkpt>
<trkpt lat="56.573746" lon="8.148295">
<ele>-9.677664</ele>
<time>2026-07-13T12:51:02.000Z</time>
</trkpt>
<trkpt lat="56.573811" lon="8.148276">
<ele>-9.693602</ele>
<time>2026-07-13T12:51:03.000Z</time>
</trkpt>
<trkpt lat="56.573872" lon="8.148265">
<ele>-9.708441</ele>
<time>2026-07-13T12:51:04.000Z</time>
</trkpt>
<trkpt lat="56.573933" lon="8.148261">
<ele>-9.723217</ele>
<time>2026-07-13T12:51:05.000Z</time>
</trkpt>
<trkpt lat="56.573994" lon="8.148257">
<ele>-9.737993</ele>
<time>2026-07-13T12:51:06.000Z</time>
</trkpt>
<trkpt lat="56.574055" lon="8.148252">
<ele>-9.752775</ele>
<time>2026-07-13T12:51:07.000Z</time>
</trkpt>
<trkpt lat="56.574116" lon="8.148248">
<ele>-9.767551</ele>
<time>2026-07-13T12:51:08.000Z</time>
</trkpt>
<trkpt lat="56.574173" lon="8.148246">
<ele>-9.781352</ele>
<time>2026-07-13T12:51:09.000Z</time>
</trkpt>
<trkpt lat="56.574234" lon="8.148244">
<ele>-9.796121</ele>
<time>2026-07-13T12:51:10.000Z</time>
</trkpt>
<trkpt lat="56.574299" lon="8.148241">
<ele>-9.811861</ele>
<time>2026-07-13T12:51:11.000Z</time>
</trkpt>
<trkpt lat="56.574360" lon="8.148235">
<ele>-9.826649</ele>
<time>2026-07-13T12:51:12.000Z</time>
</trkpt>
<trkpt lat="56.574425" lon="8.148229">
<ele>-9.842405</ele>
<time>2026-07-13T12:51:13.000Z</time>
</trkpt>
<trkpt lat="56.574486" lon="8.148223">
<ele>-9.857193</ele>
<time>2026-07-13T12:51:14.000Z</time>
</trkpt>
<trkpt lat="56.574543" lon="8.148218">
<ele>-9.871007</ele>
<time>2026-07-13T12:51:15.000Z</time>
</trkpt>
<trkpt lat="56.574608" lon="8.148215">
<ele>-9.886747</ele>
<time>2026-07-13T12:51:16.000Z</time>
</trkpt>
<trkpt lat="56.574673" lon="8.148212">
<ele>-9.902487</ele>
<time>2026-07-13T12:51:17.000Z</time>
</trkpt>
<trkpt lat="56.574738" lon="8.148206">
<ele>-9.918243</ele>
<time>2026-07-13T12:51:18.000Z</time>
</trkpt>
<trkpt lat="56.574799" lon="8.148200">
<ele>-9.933031</ele>
<time>2026-07-13T12:51:19.000Z</time>
</trkpt>
<trkpt lat="56.574860" lon="8.148191">
<ele>-9.947846</ele>
<time>2026-07-13T12:51:20.000Z</time>
</trkpt>
<trkpt lat="56.574924" lon="8.148182">
<ele>-9.963386</ele>
<time>2026-07-13T12:51:21.000Z</time>
</trkpt>
<trkpt lat="56.574985" lon="8.148173">
<ele>-9.978201</ele>
<time>2026-07-13T12:51:22.000Z</time>
</trkpt>
<trkpt lat="56.575043" lon="8.148166">
<ele>-9.992272</ele>
<time>2026-07-13T12:51:23.000Z</time>
</trkpt>
<trkpt lat="56.575104" lon="8.148160">
<ele>-10.007060</ele>
<time>2026-07-13T12:51:24.000Z</time>
</trkpt>
<trkpt lat="56.575169" lon="8.148153">
<ele>-10.022823</ele>
<time>2026-07-13T12:51:25.000Z</time>
</trkpt>
<trkpt lat="56.575230" lon="8.148147">
<ele>-10.037611</ele>
<time>2026-07-13T12:51:26.000Z</time>
</trkpt>
<trkpt lat="56.575291" lon="8.148140">
<ele>-10.030286</ele>
<time>2026-07-13T12:51:27.000Z</time>
</trkpt>
<trkpt lat="56.575340" lon="8.148133">
<ele>-10.002035</ele>
<time>2026-07-13T12:51:28.000Z</time>
</trkpt>
<trkpt lat="56.575409" lon="8.148126">
<ele>-9.962314</ele>
<time>2026-07-13T12:51:29.000Z</time>
</trkpt>
<trkpt lat="56.575470" lon="8.148119">
<ele>-9.927183</ele>
<time>2026-07-13T12:51:30.000Z</time>
</trkpt>
<trkpt lat="56.575531" lon="8.148112">
<ele>-9.892052</ele>
<time>2026-07-13T12:51:31.000Z</time>
</trkpt>
<trkpt lat="56.575592" lon="8.148105">
<ele>-9.856921</ele>
<time>2026-07-13T12:51:32.000Z</time>
</trkpt>
<trkpt lat="56.575649" lon="8.148097">
<ele>-9.824061</ele>
<time>2026-07-13T12:51:33.000Z</time>
</trkpt>
<trkpt lat="56.575714" lon="8.148090">
<ele>-9.786635</ele>
<time>2026-07-13T12:51:34.000Z</time>
</trkpt>
<trkpt lat="56.575771" lon="8.148082">
<ele>-9.753775</ele>
<time>2026-07-13T12:51:35.000Z</time>
</trkpt>
<trkpt lat="56.575832" lon="8.148073">
<ele>-9.718598</ele>
<time>2026-07-13T12:51:36.000Z</time>
</trkpt>
<trkpt lat="56.575890" lon="8.148065">
<ele>-9.685166</ele>
<time>2026-07-13T12:51:37.000Z</time>
</trkpt>
<trkpt lat="56.575947" lon="8.148053">
<ele>-9.652184</ele>
<time>2026-07-13T12:51:38.000Z</time>
</trkpt>
<trkpt lat="56.576004" lon="8.148040">
<ele>-9.619164</ele>
<time>2026-07-13T12:51:39.000Z</time>
</trkpt>
<trkpt lat="56.576061" lon="8.148026">
<ele>-9.586104</ele>
<time>2026-07-13T12:51:40.000Z</time>
</trkpt>
<trkpt lat="56.576118" lon="8.148010">
<ele>-9.552953</ele>
<time>2026-07-13T12:51:41.000Z</time>
</trkpt>
<trkpt lat="56.576176" lon="8.147996">
<ele>-9.519322</ele>
<time>2026-07-13T12:51:42.000Z</time>
</trkpt>
<trkpt lat="56.576233" lon="8.147980">
<ele>-9.486171</ele>
<time>2026-07-13T12:51:43.000Z</time>
</trkpt>
<trkpt lat="56.576290" lon="8.147961">
<ele>-9.452861</ele>
<time>2026-07-13T12:51:44.000Z</time>
</trkpt>
<trkpt lat="56.576347" lon="8.147941">
<ele>-9.419493</ele>
<time>2026-07-13T12:51:45.000Z</time>
</trkpt>
<trkpt lat="56.576401" lon="8.147918">
<ele>-9.387613</ele>
<time>2026-07-13T12:51:46.000Z</time>
</trkpt>
<trkpt lat="56.576458" lon="8.147894">
<ele>-9.353981</ele>
<time>2026-07-13T12:51:47.000Z</time>
</trkpt>
<trkpt lat="56.576511" lon="8.147868">
<ele>-9.322425</ele>
<time>2026-07-13T12:51:48.000Z</time>
</trkpt>
<trkpt lat="56.576561" lon="8.147841">
<ele>-9.292442</ele>
<time>2026-07-13T12:51:49.000Z</time>
</trkpt>
<trkpt lat="56.576614" lon="8.147814">
<ele>-9.260803</ele>
<time>2026-07-13T12:51:50.000Z</time>
</trkpt>
<trkpt lat="56.576668" lon="8.147789">
<ele>-9.228772</ele>
<time>2026-07-13T12:51:51.000Z</time>
</trkpt>
<trkpt lat="56.576721" lon="8.147765">
<ele>-9.197376</ele>
<time>2026-07-13T12:51:52.000Z</time>
</trkpt>
<trkpt lat="56.576771" lon="8.147738">
<ele>-9.167393</ele>
<time>2026-07-13T12:51:53.000Z</time>
</trkpt>
<trkpt lat="56.576820" lon="8.147710">
<ele>-9.137867</ele>
<time>2026-07-13T12:51:54.000Z</time>
</trkpt>
<trkpt lat="56.576874" lon="8.147679">
<ele>-9.105314</ele>
<time>2026-07-13T12:51:55.000Z</time>
</trkpt>
<trkpt lat="56.576923" lon="8.147645">
<ele>-9.075163</ele>
<time>2026-07-13T12:51:56.000Z</time>
</trkpt>
<trkpt lat="56.576969" lon="8.147610">
<ele>-9.046496</ele>
<time>2026-07-13T12:51:57.000Z</time>
</trkpt>
<trkpt lat="56.577019" lon="8.147575">
<ele>-9.015695</ele>
<time>2026-07-13T12:51:58.000Z</time>
</trkpt>
<trkpt lat="56.577072" lon="8.147542">
<ele>-9.014651</ele>
<time>2026-07-13T12:51:59.000Z</time>
</trkpt>
<trkpt lat="56.577122" lon="8.147512">
<ele>-9.017418</ele>
<time>2026-07-13T12:52:00.000Z</time>
</trkpt>
<trkpt lat="56.577171" lon="8.147481">
<ele>-9.020145</ele>
<time>2026-07-13T12:52:01.000Z</time>
</trkpt>
<trkpt lat="56.577221" lon="8.147449">
<ele>-9.022930</ele>
<time>2026-07-13T12:52:02.000Z</time>
</trkpt>
<trkpt lat="56.577270" lon="8.147413">
<ele>-9.025708</ele>
<time>2026-07-13T12:52:03.000Z</time>
</trkpt>
<trkpt lat="56.577316" lon="8.147380">
<ele>-9.028307</ele>
<time>2026-07-13T12:52:04.000Z</time>
</trkpt>
<trkpt lat="56.577362" lon="8.147349">
<ele>-9.030885</ele>
<time>2026-07-13T12:52:05.000Z</time>
</trkpt>
<trkpt lat="56.577412" lon="8.147319">
<ele>-9.033652</ele>
<time>2026-07-13T12:52:06.000Z</time>
</trkpt>
<trkpt lat="56.577465" lon="8.147290">
<ele>-9.036561</ele>
<time>2026-07-13T12:52:07.000Z</time>
</trkpt>
<trkpt lat="56.577511" lon="8.147259">
<ele>-9.039139</ele>
<time>2026-07-13T12:52:08.000Z</time>
</trkpt>
<trkpt lat="56.577560" lon="8.147225">
<ele>-9.041895</ele>
<time>2026-07-13T12:52:09.000Z</time>
</trkpt>
<trkpt lat="56.577610" lon="8.147190">
<ele>-9.044711</ele>
<time>2026-07-13T12:52:10.000Z</time>
</trkpt>
<trkpt lat="56.577660" lon="8.147156">
<ele>-9.047517</ele>
<time>2026-07-13T12:52:11.000Z</time>
</trkpt>
<trkpt lat="56.577709" lon="8.147120">
<ele>-9.050294</ele>
<time>2026-07-13T12:52:12.000Z</time>
</trkpt>
<trkpt lat="56.577759" lon="8.147084">
<ele>-9.053121</ele>
<time>2026-07-13T12:52:13.000Z</time>
</trkpt>
<trkpt lat="56.577805" lon="8.147045">
<ele>-9.055788</ele>
<time>2026-07-13T12:52:14.000Z</time>
</trkpt>
<trkpt lat="56.577850" lon="8.147001">
<ele>-9.058474</ele>
<time>2026-07-13T12:52:15.000Z</time>
</trkpt>
<trkpt lat="56.577888" lon="8.146953">
<ele>-9.060906</ele>
<time>2026-07-13T12:52:16.000Z</time>
</trkpt>
<trkpt lat="56.577923" lon="8.146901">
<ele>-9.063283</ele>
<time>2026-07-13T12:52:17.000Z</time>
</trkpt>
<trkpt lat="56.577953" lon="8.146844">
<ele>-9.065565</ele>
<time>2026-07-13T12:52:18.000Z</time>
</trkpt>
<trkpt lat="56.577988" lon="8.146791">
<ele>-9.067959</ele>
<time>2026-07-13T12:52:19.000Z</time>
</trkpt>
<trkpt lat="56.578026" lon="8.146748">
<ele>-9.070312</ele>
<time>2026-07-13T12:52:20.000Z</time>
</trkpt>
<trkpt lat="56.578064" lon="8.146720">
<ele>-9.072467</ele>
<time>2026-07-13T12:52:21.000Z</time>
</trkpt>
<trkpt lat="56.578106" lon="8.146701">
<ele>-9.074741</ele>
<time>2026-07-13T12:52:22.000Z</time>
</trkpt>
<trkpt lat="56.578148" lon="8.146683">
<ele>-9.077009</ele>
<time>2026-07-13T12:52:23.000Z</time>
</trkpt>
<trkpt lat="56.578194" lon="8.146663">
<ele>-9.079494</ele>
<time>2026-07-13T12:52:24.000Z</time>
</trkpt>
<trkpt lat="56.578236" lon="8.146643">
<ele>-9.081776</ele>
<time>2026-07-13T12:52:25.000Z</time>
</trkpt>
<trkpt lat="56.578281" lon="8.146623">
<ele>-9.084210</ele>
<time>2026-07-13T12:52:26.000Z</time>
</trkpt>
<trkpt lat="56.578323" lon="8.146608">
<ele>-9.086460</ele>
<time>2026-07-13T12:52:27.000Z</time>
</trkpt>
<trkpt lat="56.578373" lon="8.146591">
<ele>-9.089132</ele>
<time>2026-07-13T12:52:28.000Z</time>
</trkpt>
<trkpt lat="56.578426" lon="8.146574">
<ele>-9.091961</ele>
<time>2026-07-13T12:52:29.000Z</time>
</trkpt>
<trkpt lat="56.578476" lon="8.146558">
<ele>-9.094628</ele>
<time>2026-07-13T12:52:30.000Z</time>
</trkpt>
<trkpt lat="56.578526" lon="8.146543">
<ele>-9.097291</ele>
<time>2026-07-13T12:52:31.000Z</time>
</trkpt>
<trkpt lat="56.578575" lon="8.146527">
<ele>-9.099907</ele>
<time>2026-07-13T12:52:32.000Z</time>
</trkpt>
<trkpt lat="56.578625" lon="8.146511">
<ele>-9.102575</ele>
<time>2026-07-13T12:52:33.000Z</time>
</trkpt>
<trkpt lat="56.578678" lon="8.146497">
<ele>-9.105389</ele>
<time>2026-07-13T12:52:34.000Z</time>
</trkpt>
<trkpt lat="56.578735" lon="8.146483">
<ele>-9.121199</ele>
<time>2026-07-13T12:52:35.000Z</time>
</trkpt>
<trkpt lat="56.578789" lon="8.146466">
<ele>-9.143876</ele>
<time>2026-07-13T12:52:36.000Z</time>
</trkpt>
<trkpt lat="56.578842" lon="8.146450">
<ele>-9.166106</ele>
<time>2026-07-13T12:52:37.000Z</time>
</trkpt>
<trkpt lat="56.578896" lon="8.146434">
<ele>-9.188745</ele>
<time>2026-07-13T12:52:38.000Z</time>
</trkpt>
<trkpt lat="56.578953" lon="8.146419">
<ele>-9.212576</ele>
<time>2026-07-13T12:52:39.000Z</time>
</trkpt>
<trkpt lat="56.579010" lon="8.146401">
<ele>-9.236515</ele>
<time>2026-07-13T12:52:40.000Z</time>
</trkpt>
<trkpt lat="56.579063" lon="8.146381">
<ele>-9.258913</ele>
<time>2026-07-13T12:52:41.000Z</time>
</trkpt>
<trkpt lat="56.579121" lon="8.146363">
<ele>-9.283259</ele>
<time>2026-07-13T12:52:42.000Z</time>
</trkpt>
<trkpt lat="56.579178" lon="8.146346">
<ele>-9.307159</ele>
<time>2026-07-13T12:52:43.000Z</time>
</trkpt>
<trkpt lat="56.579231" lon="8.146326">
<ele>-9.329557</ele>
<time>2026-07-13T12:52:44.000Z</time>
</trkpt>
<trkpt lat="56.579285" lon="8.146310">
<ele>-9.352196</ele>
<time>2026-07-13T12:52:45.000Z</time>
</trkpt>
<trkpt lat="56.579338" lon="8.146294">
<ele>-9.374427</ele>
<time>2026-07-13T12:52:46.000Z</time>
</trkpt>
<trkpt lat="56.579391" lon="8.146276">
<ele>-9.396736</ele>
<time>2026-07-13T12:52:47.000Z</time>
</trkpt>
<trkpt lat="56.579445" lon="8.146256">
<ele>-9.419540</ele>
<time>2026-07-13T12:52:48.000Z</time>
</trkpt>
<trkpt lat="56.579494" lon="8.146237">
<ele>-9.440271</ele>
<time>2026-07-13T12:52:49.000Z</time>
</trkpt>
<trkpt lat="56.579540" lon="8.146222">
<ele>-9.459609</ele>
<time>2026-07-13T12:52:50.000Z</time>
</trkpt>
<trkpt lat="56.579586" lon="8.146210">
<ele>-9.478837</ele>
<time>2026-07-13T12:52:51.000Z</time>
</trkpt>
<trkpt lat="56.579632" lon="8.146198">
<ele>-9.498066</ele>
<time>2026-07-13T12:52:52.000Z</time>
</trkpt>
<trkpt lat="56.579678" lon="8.146188">
<ele>-9.517235</ele>
<time>2026-07-13T12:52:53.000Z</time>
</trkpt>
<trkpt lat="56.579727" lon="8.146175">
<ele>-9.537724</ele>
<time>2026-07-13T12:52:54.000Z</time>
</trkpt>
<trkpt lat="56.579777" lon="8.146160">
<ele>-9.558693</ele>
<time>2026-07-13T12:52:55.000Z</time>
</trkpt>
<trkpt lat="56.579826" lon="8.146144">
<ele>-9.579293</ele>
<time>2026-07-13T12:52:56.000Z</time>
</trkpt>
<trkpt lat="56.579884" lon="8.146128">
<ele>-9.603566</ele>
<time>2026-07-13T12:52:57.000Z</time>
</trkpt>
<trkpt lat="56.579937" lon="8.146112">
<ele>-9.625797</ele>
<time>2026-07-13T12:52:58.000Z</time>
</trkpt>
<trkpt lat="56.579987" lon="8.146099">
<ele>-9.646696</ele>
<time>2026-07-13T12:52:59.000Z</time>
</trkpt>
<trkpt lat="56.580040" lon="8.146087">
<ele>-9.668795</ele>
<time>2026-07-13T12:53:00.000Z</time>
</trkpt>
<trkpt lat="56.580086" lon="8.146070">
<ele>-9.688218</ele>
<time>2026-07-13T12:53:01.000Z</time>
</trkpt>
<trkpt lat="56.580132" lon="8.146052">
<ele>-9.707688</ele>
<time>2026-07-13T12:53:02.000Z</time>
</trkpt>
<trkpt lat="56.580185" lon="8.146031">
<ele>-9.730134</ele>
<time>2026-07-13T12:53:03.000Z</time>
</trkpt>
<trkpt lat="56.580238" lon="8.146009">
<ele>-9.752629</ele>
<time>2026-07-13T12:53:04.000Z</time>
</trkpt>
<trkpt lat="56.580288" lon="8.145986">
<ele>-9.773971</ele>
<time>2026-07-13T12:53:05.000Z</time>
</trkpt>
<trkpt lat="56.580338" lon="8.145961">
<ele>-9.795429</ele>
<time>2026-07-13T12:53:06.000Z</time>
</trkpt>
<trkpt lat="56.580383" lon="8.145931">
<ele>-9.815264</ele>
<time>2026-07-13T12:53:07.000Z</time>
</trkpt>
<trkpt lat="56.580437" lon="8.145895">
<ele>-9.839065</ele>
<time>2026-07-13T12:53:08.000Z</time>
</trkpt>
<trkpt lat="56.580486" lon="8.145856">
<ele>-9.849751</ele>
<time>2026-07-13T12:53:09.000Z</time>
</trkpt>
<trkpt lat="56.580536" lon="8.145815">
<ele>-9.847554</ele>
<time>2026-07-13T12:53:10.000Z</time>
</trkpt>
<trkpt lat="56.580582" lon="8.145770">
<ele>-9.845462</ele>
<time>2026-07-13T12:53:11.000Z</time>
</trkpt>
<trkpt lat="56.580631" lon="8.145726">
<ele>-9.843274</ele>
<time>2026-07-13T12:53:12.000Z</time>
</trkpt>
<trkpt lat="56.580677" lon="8.145680">
<ele>-9.841171</ele>
<time>2026-07-13T12:53:13.000Z</time>
</trkpt>
<trkpt lat="56.580723" lon="8.145637">
<ele>-9.839100</ele>
<time>2026-07-13T12:53:14.000Z</time>
</trkpt>
<trkpt lat="56.580769" lon="8.145593">
<ele>-9.837018</ele>
<time>2026-07-13T12:53:15.000Z</time>
</trkpt>
<trkpt lat="56.580814" lon="8.145549">
<ele>-9.834971</ele>
<time>2026-07-13T12:53:16.000Z</time>
</trkpt>
<trkpt lat="56.580860" lon="8.145503">
<ele>-9.832869</ele>
<time>2026-07-13T12:53:17.000Z</time>
</trkpt>
<trkpt lat="56.580910" lon="8.145455">
<ele>-9.830604</ele>
<time>2026-07-13T12:53:18.000Z</time>
</trkpt>
<trkpt lat="56.580956" lon="8.145408">
<ele>-9.828491</ele>
<time>2026-07-13T12:53:19.000Z</time>
</trkpt>
<trkpt lat="56.581005" lon="8.145360">
<ele>-9.826262</ele>
<time>2026-07-13T12:53:20.000Z</time>
</trkpt>
<trkpt lat="56.581051" lon="8.145314">
<ele>-9.824159</ele>
<time>2026-07-13T12:53:21.000Z</time>
</trkpt>
<trkpt lat="56.581097" lon="8.145269">
<ele>-9.822067</ele>
<time>2026-07-13T12:53:22.000Z</time>
</trkpt>
<trkpt lat="56.581146" lon="8.145223">
<ele>-9.819859</ele>
<time>2026-07-13T12:53:23.000Z</time>
</trkpt>
<trkpt lat="56.581196" lon="8.145177">
<ele>-9.817614</ele>
<time>2026-07-13T12:53:24.000Z</time>
</trkpt>
<trkpt lat="56.581245" lon="8.145132">
<ele>-9.815416</ele>
<time>2026-07-13T12:53:25.000Z</time>
</trkpt>
<trkpt lat="56.581295" lon="8.145087">
<ele>-9.813182</ele>
<time>2026-07-13T12:53:26.000Z</time>
</trkpt>
<trkpt lat="56.581341" lon="8.145040">
<ele>-9.811068</ele>
<time>2026-07-13T12:53:27.000Z</time>
</trkpt>
<trkpt lat="56.581387" lon="8.144987">
<ele>-9.808887</ele>
<time>2026-07-13T12:53:28.000Z</time>
</trkpt>
<trkpt lat="56.581425" lon="8.144927">
<ele>-9.806871</ele>
<time>2026-07-13T12:53:29.000Z</time>
</trkpt>
<trkpt lat="56.581467" lon="8.144861">
<ele>-9.804647</ele>
<time>2026-07-13T12:53:30.000Z</time>
</trkpt>
<trkpt lat="56.581505" lon="8.144794">
<ele>-9.802526</ele>
<time>2026-07-13T12:53:31.000Z</time>
</trkpt>
<trkpt lat="56.581543" lon="8.144722">
<ele>-9.800327</ele>
<time>2026-07-13T12:53:32.000Z</time>
</trkpt>
<trkpt lat="56.581581" lon="8.144653">
<ele>-9.798175</ele>
<time>2026-07-13T12:53:33.000Z</time>
</trkpt>
<trkpt lat="56.581619" lon="8.144585">
<ele>-9.796039</ele>
<time>2026-07-13T12:53:34.000Z</time>
</trkpt>
<trkpt lat="56.581657" lon="8.144517">
<ele>-9.793903</ele>
<time>2026-07-13T12:53:35.000Z</time>
</trkpt>
<trkpt lat="56.581696" lon="8.144452">
<ele>-9.791784</ele>
<time>2026-07-13T12:53:36.000Z</time>
</trkpt>
<trkpt lat="56.581734" lon="8.144383">
<ele>-9.789632</ele>
<time>2026-07-13T12:53:37.000Z</time>
</trkpt>
<trkpt lat="56.581768" lon="8.144309">
<ele>-9.787507</ele>
<time>2026-07-13T12:53:38.000Z</time>
</trkpt>
<trkpt lat="56.581802" lon="8.144238">
<ele>-9.785432</ele>
<time>2026-07-13T12:53:39.000Z</time>
</trkpt>
<trkpt lat="56.581837" lon="8.144167">
<ele>-9.783331</ele>
<time>2026-07-13T12:53:40.000Z</time>
</trkpt>
<trkpt lat="56.581867" lon="8.144093">
<ele>-9.781305</ele>
<time>2026-07-13T12:53:41.000Z</time>
</trkpt>
<trkpt lat="56.581894" lon="8.144014">
<ele>-9.779255</ele>
<time>2026-07-13T12:53:42.000Z</time>
</trkpt>
<trkpt lat="56.581917" lon="8.143934">
<ele>-9.777595</ele>
<time>2026-07-13T12:53:43.000Z</time>
</trkpt>
<trkpt lat="56.581943" lon="8.143854">
<ele>-9.776004</ele>
<time>2026-07-13T12:53:44.000Z</time>
</trkpt>
<trkpt lat="56.581974" lon="8.143775">
<ele>-9.774342</ele>
<time>2026-07-13T12:53:45.000Z</time>
</trkpt>
<trkpt lat="56.582008" lon="8.143699">
<ele>-9.772665</ele>
<time>2026-07-13T12:53:46.000Z</time>
</trkpt>
<trkpt lat="56.582043" lon="8.143623">
<ele>-9.770967</ele>
<time>2026-07-13T12:53:47.000Z</time>
</trkpt>
<trkpt lat="56.582077" lon="8.143548">
<ele>-9.769303</ele>
<time>2026-07-13T12:53:48.000Z</time>
</trkpt>
<trkpt lat="56.582111" lon="8.143473">
<ele>-9.767639</ele>
<time>2026-07-13T12:53:49.000Z</time>
</trkpt>
<trkpt lat="56.582150" lon="8.143400">
<ele>-9.765896</ele>
<time>2026-07-13T12:53:50.000Z</time>
</trkpt>
<trkpt lat="56.582184" lon="8.143330">
<ele>-9.764297</ele>
<time>2026-07-13T12:53:51.000Z</time>
</trkpt>
<trkpt lat="56.582222" lon="8.143257">
<ele>-9.762576</ele>
<time>2026-07-13T12:53:52.000Z</time>
</trkpt>
<trkpt lat="56.582260" lon="8.143186">
<ele>-9.760880</ele>
<time>2026-07-13T12:53:53.000Z</time>
</trkpt>
<trkpt lat="56.582298" lon="8.143114">
<ele>-9.759172</ele>
<time>2026-07-13T12:53:54.000Z</time>
</trkpt>
<trkpt lat="56.582336" lon="8.143044">
<ele>-9.757488</ele>
<time>2026-07-13T12:53:55.000Z</time>
</trkpt>
<trkpt lat="56.582371" lon="8.142977">
<ele>-9.755905</ele>
<time>2026-07-13T12:53:56.000Z</time>
</trkpt>
<trkpt lat="56.582409" lon="8.142910">
<ele>-9.754258</ele>
<time>2026-07-13T12:53:57.000Z</time>
</trkpt>
<trkpt lat="56.582443" lon="8.142841">
<ele>-9.752671</ele>
<time>2026-07-13T12:53:58.000Z</time>
</trkpt>
<trkpt lat="56.582478" lon="8.142774">
<ele>-9.751089</ele>
<time>2026-07-13T12:53:59.000Z</time>
</trkpt>
<trkpt lat="56.582508" lon="8.142708">
<ele>-9.749623</ele>
<time>2026-07-13T12:54:00.000Z</time>
</trkpt>
<trkpt lat="56.582539" lon="8.142647">
<ele>-9.748201</ele>
<time>2026-07-13T12:54:01.000Z</time>
</trkpt>
<trkpt lat="56.582565" lon="8.142590">
<ele>-9.746933</ele>
<time>2026-07-13T12:54:02.000Z</time>
</trkpt>
<trkpt lat="56.582588" lon="8.142543">
<ele>-9.745856</ele>
<time>2026-07-13T12:54:03.000Z</time>
</trkpt>
<trkpt lat="56.582615" lon="8.142494">
<ele>-9.744668</ele>
<time>2026-07-13T12:54:04.000Z</time>
</trkpt>
<trkpt lat="56.582638" lon="8.142449">
<ele>-9.743617</ele>
<time>2026-07-13T12:54:05.000Z</time>
</trkpt>
<trkpt lat="56.582664" lon="8.142425">
<ele>-9.742709</ele>
<time>2026-07-13T12:54:06.000Z</time>
</trkpt>
<trkpt lat="56.582691" lon="8.142420">
<ele>-9.741865</ele>
<time>2026-07-13T12:54:07.000Z</time>
</trkpt>
<trkpt lat="56.582714" lon="8.142428">
<ele>-9.741136</ele>
<time>2026-07-13T12:54:08.000Z</time>
</trkpt>
<trkpt lat="56.582737" lon="8.142446">
<ele>-9.740357</ele>
<time>2026-07-13T12:54:09.000Z</time>
</trkpt>
<trkpt lat="56.582760" lon="8.142461">
<ele>-9.739597</ele>
<time>2026-07-13T12:54:10.000Z</time>
</trkpt>
<trkpt lat="56.582783" lon="8.142470">
<ele>-9.738865</ele>
<time>2026-07-13T12:54:11.000Z</time>
</trkpt>
<trkpt lat="56.582809" lon="8.142479">
<ele>-9.738042</ele>
<time>2026-07-13T12:54:12.000Z</time>
</trkpt>
<trkpt lat="56.582840" lon="8.142490">
<ele>-9.737059</ele>
<time>2026-07-13T12:54:13.000Z</time>
</trkpt>
<trkpt lat="56.582871" lon="8.142501">
<ele>-9.736077</ele>
<time>2026-07-13T12:54:14.000Z</time>
</trkpt>
<trkpt lat="56.582905" lon="8.142512">
<ele>-9.735002</ele>
<time>2026-07-13T12:54:15.000Z</time>
</trkpt>
<trkpt lat="56.582939" lon="8.142522">
<ele>-9.733931</ele>
<time>2026-07-13T12:54:16.000Z</time>
</trkpt>
<trkpt lat="56.582973" lon="8.142528">
<ele>-9.732868</ele>
<time>2026-07-13T12:54:17.000Z</time>
</trkpt>
<trkpt lat="56.583012" lon="8.142530">
<ele>-9.731654</ele>
<time>2026-07-13T12:54:18.000Z</time>
</trkpt>
<trkpt lat="56.583046" lon="8.142535">
<ele>-9.730593</ele>
<time>2026-07-13T12:54:19.000Z</time>
</trkpt>
<trkpt lat="56.583073" lon="8.142539">
<ele>-9.729751</ele>
<time>2026-07-13T12:54:20.000Z</time>
</trkpt>
<trkpt lat="56.583103" lon="8.142543">
<ele>-9.728815</ele>
<time>2026-07-13T12:54:21.000Z</time>
</trkpt>
<trkpt lat="56.583130" lon="8.142548">
<ele>-9.727970</ele>
<time>2026-07-13T12:54:22.000Z</time>
</trkpt>
<trkpt lat="56.583153" lon="8.142552">
<ele>-9.727252</ele>
<time>2026-07-13T12:54:23.000Z</time>
</trkpt>
<trkpt lat="56.583176" lon="8.142557">
<ele>-9.726531</ele>
<time>2026-07-13T12:54:24.000Z</time>
</trkpt>
<trkpt lat="56.583202" lon="8.142562">
<ele>-9.725718</ele>
<time>2026-07-13T12:54:25.000Z</time>
</trkpt>
<trkpt lat="56.583233" lon="8.142566">
<ele>-9.724751</ele>
<time>2026-07-13T12:54:26.000Z</time>
</trkpt>
<trkpt lat="56.583256" lon="8.142570">
<ele>-9.724032</ele>
<time>2026-07-13T12:54:27.000Z</time>
</trkpt>
<trkpt lat="56.583282" lon="8.142576">
<ele>-9.723217</ele>
<time>2026-07-13T12:54:28.000Z</time>
</trkpt>
<trkpt lat="56.583313" lon="8.142583">
<ele>-9.728848</ele>
<time>2026-07-13T12:54:29.000Z</time>
</trkpt>
<trkpt lat="56.583344" lon="8.142591">
<ele>-9.739581</ele>
<time>2026-07-13T12:54:30.000Z</time>
</trkpt>
<trkpt lat="56.583374" lon="8.142602">
<ele>-9.750073</ele>
<time>2026-07-13T12:54:31.000Z</time>
</trkpt>
<trkpt lat="56.583405" lon="8.142612">
<ele>-9.760866</ele>
<time>2026-07-13T12:54:32.000Z</time>
</trkpt>
<trkpt lat="56.583450" lon="8.142622">
<ele>-9.776407</ele>
<time>2026-07-13T12:54:33.000Z</time>
</trkpt>
<trkpt lat="56.583504" lon="8.142636">
<ele>-9.795106</ele>
<time>2026-07-13T12:54:34.000Z</time>
</trkpt>
<trkpt lat="56.583561" lon="8.142652">
<ele>-9.814878</ele>
<time>2026-07-13T12:54:35.000Z</time>
</trkpt>
<trkpt lat="56.583618" lon="8.142661">
<ele>-9.834492</ele>
<time>2026-07-13T12:54:36.000Z</time>
</trkpt>
<trkpt lat="56.583668" lon="8.142668">
<ele>-9.851683</ele>
<time>2026-07-13T12:54:37.000Z</time>
</trkpt>
<trkpt lat="56.583717" lon="8.142673">
<ele>-9.868506</ele>
<time>2026-07-13T12:54:38.000Z</time>
</trkpt>
<trkpt lat="56.583771" lon="8.142677">
<ele>-9.887033</ele>
<time>2026-07-13T12:54:39.000Z</time>
</trkpt>
<trkpt lat="56.583824" lon="8.142682">
<ele>-9.905226</ele>
<time>2026-07-13T12:54:40.000Z</time>
</trkpt>
<trkpt lat="56.583893" lon="8.142695">
<ele>-9.929007</ele>
<time>2026-07-13T12:54:41.000Z</time>
</trkpt>
<trkpt lat="56.583962" lon="8.142707">
<ele>-9.952768</ele>
<time>2026-07-13T12:54:42.000Z</time>
</trkpt>
<trkpt lat="56.584026" lon="8.142716">
<ele>-9.974773</ele>
<time>2026-07-13T12:54:43.000Z</time>
</trkpt>
<trkpt lat="56.584091" lon="8.142727">
<ele>-9.997152</ele>
<time>2026-07-13T12:54:44.000Z</time>
</trkpt>
<trkpt lat="56.584152" lon="8.142735">
<ele>-10.018117</ele>
<time>2026-07-13T12:54:45.000Z</time>
</trkpt>
<trkpt lat="56.584213" lon="8.142743">
<ele>-10.039083</ele>
<time>2026-07-13T12:54:46.000Z</time>
</trkpt>
<trkpt lat="56.584286" lon="8.142758">
<ele>-10.064267</ele>
<time>2026-07-13T12:54:47.000Z</time>
</trkpt>
<trkpt lat="56.584354" lon="8.142773">
<ele>-10.087749</ele>
<time>2026-07-13T12:54:48.000Z</time>
</trkpt>
<trkpt lat="56.584423" lon="8.142785">
<ele>-10.111510</ele>
<time>2026-07-13T12:54:49.000Z</time>
</trkpt>
<trkpt lat="56.584488" lon="8.142797">
<ele>-10.133907</ele>
<time>2026-07-13T12:54:50.000Z</time>
</trkpt>
<trkpt lat="56.584553" lon="8.142809">
<ele>-10.156304</ele>
<time>2026-07-13T12:54:51.000Z</time>
</trkpt>
<trkpt lat="56.584610" lon="8.142820">
<ele>-10.175954</ele>
<time>2026-07-13T12:54:52.000Z</time>
</trkpt>
<trkpt lat="56.584667" lon="8.142835">
<ele>-10.195698</ele>
<time>2026-07-13T12:54:53.000Z</time>
</trkpt>
<trkpt lat="56.584724" lon="8.142845">
<ele>-10.215329</ele>
<time>2026-07-13T12:54:54.000Z</time>
</trkpt>
<trkpt lat="56.584782" lon="8.142858">
<ele>-10.235362</ele>
<time>2026-07-13T12:54:55.000Z</time>
</trkpt>
<trkpt lat="56.584839" lon="8.142869">
<ele>-10.255012</ele>
<time>2026-07-13T12:54:56.000Z</time>
</trkpt>
<trkpt lat="56.584896" lon="8.142882">
<ele>-10.274705</ele>
<time>2026-07-13T12:54:57.000Z</time>
</trkpt>
<trkpt lat="56.584953" lon="8.142894">
<ele>-10.294376</ele>
<time>2026-07-13T12:54:58.000Z</time>
</trkpt>
<trkpt lat="56.585007" lon="8.142906">
<ele>-10.313025</ele>
<time>2026-07-13T12:54:59.000Z</time>
</trkpt>
<trkpt lat="56.585064" lon="8.142921">
<ele>-10.332769</ele>
<time>2026-07-13T12:55:00.000Z</time>
</trkpt>
<trkpt lat="56.585117" lon="8.142932">
<ele>-10.351107</ele>
<time>2026-07-13T12:55:01.000Z</time>
</trkpt>
<trkpt lat="56.585171" lon="8.142944">
<ele>-10.369837</ele>
<time>2026-07-13T12:55:02.000Z</time>
</trkpt>
<trkpt lat="56.585220" lon="8.142959">
<ele>-10.386946</ele>
<time>2026-07-13T12:55:03.000Z</time>
</trkpt>
<trkpt lat="56.585274" lon="8.142973">
<ele>-10.405726</ele>
<time>2026-07-13T12:55:04.000Z</time>
</trkpt>
<trkpt lat="56.585331" lon="8.142988">
<ele>-10.425556</ele>
<time>2026-07-13T12:55:05.000Z</time>
</trkpt>
<trkpt lat="56.585384" lon="8.143003">
<ele>-10.444024</ele>
<time>2026-07-13T12:55:06.000Z</time>
</trkpt>
<trkpt lat="56.585442" lon="8.143016">
<ele>-10.464145</ele>
<time>2026-07-13T12:55:07.000Z</time>
</trkpt>
<trkpt lat="56.585495" lon="8.143028">
<ele>-10.482534</ele>
<time>2026-07-13T12:55:08.000Z</time>
</trkpt>
<trkpt lat="56.585552" lon="8.143044">
<ele>-10.502391</ele>
<time>2026-07-13T12:55:09.000Z</time>
</trkpt>
<trkpt lat="56.585606" lon="8.143060">
<ele>-10.521229</ele>
<time>2026-07-13T12:55:10.000Z</time>
</trkpt>
<trkpt lat="56.585655" lon="8.143075">
<ele>-10.538338</ele>
<time>2026-07-13T12:55:11.000Z</time>
</trkpt>
<trkpt lat="56.585709" lon="8.143088">
<ele>-10.557092</ele>
<time>2026-07-13T12:55:12.000Z</time>
</trkpt>
<trkpt lat="56.585762" lon="8.143101">
<ele>-10.575506</ele>
<time>2026-07-13T12:55:13.000Z</time>
</trkpt>
<trkpt lat="56.585812" lon="8.143114">
<ele>-10.592896</ele>
<time>2026-07-13T12:55:14.000Z</time>
</trkpt>
<trkpt lat="56.585861" lon="8.143126">
<ele>-10.609919</ele>
<time>2026-07-13T12:55:15.000Z</time>
</trkpt>
<trkpt lat="56.585911" lon="8.143138">
<ele>-10.627283</ele>
<time>2026-07-13T12:55:16.000Z</time>
</trkpt>
<trkpt lat="56.585960" lon="8.143154">
<ele>-10.644424</ele>
<time>2026-07-13T12:55:17.000Z</time>
</trkpt>
<trkpt lat="56.586014" lon="8.143172">
<ele>-10.663327</ele>
<time>2026-07-13T12:55:18.000Z</time>
</trkpt>
<trkpt lat="56.586063" lon="8.143193">
<ele>-10.680661</ele>
<time>2026-07-13T12:55:19.000Z</time>
</trkpt>
<trkpt lat="56.586113" lon="8.143216">
<ele>-10.698419</ele>
<time>2026-07-13T12:55:20.000Z</time>
</trkpt>
<trkpt lat="56.586163" lon="8.143243">
<ele>-10.716379</ele>
<time>2026-07-13T12:55:21.000Z</time>
</trkpt>
<trkpt lat="56.586212" lon="8.143269">
<ele>-10.733955</ele>
<time>2026-07-13T12:55:22.000Z</time>
</trkpt>
<trkpt lat="56.586266" lon="8.143293">
<ele>-10.753096</ele>
<time>2026-07-13T12:55:23.000Z</time>
</trkpt>
<trkpt lat="56.586319" lon="8.143319">
<ele>-10.771997</ele>
<time>2026-07-13T12:55:24.000Z</time>
</trkpt>
<trkpt lat="56.586365" lon="8.143347">
<ele>-10.788701</ele>
<time>2026-07-13T12:55:25.000Z</time>
</trkpt>
<trkpt lat="56.586418" lon="8.143375">
<ele>-10.807705</ele>
<time>2026-07-13T12:55:26.000Z</time>
</trkpt>
<trkpt lat="56.586460" lon="8.143398">
<ele>-10.822809</ele>
<time>2026-07-13T12:55:27.000Z</time>
</trkpt>
<trkpt lat="56.586510" lon="8.143427">
<ele>-10.840880</ele>
<time>2026-07-13T12:55:28.000Z</time>
</trkpt>
<trkpt lat="56.586567" lon="8.143458">
<ele>-10.861366</ele>
<time>2026-07-13T12:55:29.000Z</time>
</trkpt>
<trkpt lat="56.586616" lon="8.143489">
<ele>-10.879231</ele>
<time>2026-07-13T12:55:30.000Z</time>
</trkpt>
<trkpt lat="56.586666" lon="8.143520">
<ele>-10.897421</ele>
<time>2026-07-13T12:55:31.000Z</time>
</trkpt>
<trkpt lat="56.586712" lon="8.143550">
<ele>-10.914249</ele>
<time>2026-07-13T12:55:32.000Z</time>
</trkpt>
<trkpt lat="56.586761" lon="8.143581">
<ele>-10.932114</ele>
<time>2026-07-13T12:55:33.000Z</time>
</trkpt>
<trkpt lat="56.586811" lon="8.143612">
<ele>-10.950305</ele>
<time>2026-07-13T12:55:34.000Z</time>
</trkpt>
<trkpt lat="56.586861" lon="8.143642">
<ele>-10.945877</ele>
<time>2026-07-13T12:55:35.000Z</time>
</trkpt>
<trkpt lat="56.586914" lon="8.143672">
<ele>-10.920987</ele>
<time>2026-07-13T12:55:36.000Z</time>
</trkpt>
<trkpt lat="56.586964" lon="8.143699">
<ele>-10.897600</ele>
<time>2026-07-13T12:55:37.000Z</time>
</trkpt>
<trkpt lat="56.587017" lon="8.143722">
<ele>-10.873169</ele>
<time>2026-07-13T12:55:38.000Z</time>
</trkpt>
<trkpt lat="56.587067" lon="8.143743">
<ele>-10.850160</ele>
<time>2026-07-13T12:55:39.000Z</time>
</trkpt>
<trkpt lat="56.587124" lon="8.143764">
<ele>-10.824084</ele>
<time>2026-07-13T12:55:40.000Z</time>
</trkpt>
<trkpt lat="56.587177" lon="8.143779">
<ele>-10.800036</ele>
<time>2026-07-13T12:55:41.000Z</time>
</trkpt>
<trkpt lat="56.587231" lon="8.143784">
<ele>-10.775794</ele>
<time>2026-07-13T12:55:42.000Z</time>
</trkpt>
<trkpt lat="56.587288" lon="8.143775">
<ele>-10.750142</ele>
<time>2026-07-13T12:55:43.000Z</time>
</trkpt>
<trkpt lat="56.587341" lon="8.143758">
<ele>-10.726012</ele>
<time>2026-07-13T12:55:44.000Z</time>
</trkpt>
<trkpt lat="56.587395" lon="8.143738">
<ele>-10.701304</ele>
<time>2026-07-13T12:55:45.000Z</time>
</trkpt>
<trkpt lat="56.587452" lon="8.143723">
<ele>-10.675481</ele>
<time>2026-07-13T12:55:46.000Z</time>
</trkpt>
<trkpt lat="56.587502" lon="8.143707">
<ele>-10.652719</ele>
<time>2026-07-13T12:55:47.000Z</time>
</trkpt>
<trkpt lat="56.587551" lon="8.143692">
<ele>-10.630440</ele>
<time>2026-07-13T12:55:48.000Z</time>
</trkpt>
<trkpt lat="56.587601" lon="8.143677">
<ele>-10.607719</ele>
<time>2026-07-13T12:55:49.000Z</time>
</trkpt>
<trkpt lat="56.587646" lon="8.143662">
<ele>-10.587207</ele>
<time>2026-07-13T12:55:50.000Z</time>
</trkpt>
<trkpt lat="56.587696" lon="8.143646">
<ele>-10.564445</ele>
<time>2026-07-13T12:55:51.000Z</time>
</trkpt>
<trkpt lat="56.587749" lon="8.143628">
<ele>-10.540271</ele>
<time>2026-07-13T12:55:52.000Z</time>
</trkpt>
<trkpt lat="56.587791" lon="8.143612">
<ele>-10.521031</ele>
<time>2026-07-13T12:55:53.000Z</time>
</trkpt>
<trkpt lat="56.587845" lon="8.143597">
<ele>-10.496539</ele>
<time>2026-07-13T12:55:54.000Z</time>
</trkpt>
<trkpt lat="56.587894" lon="8.143583">
<ele>-10.474300</ele>
<time>2026-07-13T12:55:55.000Z</time>
</trkpt>
<trkpt lat="56.587948" lon="8.143569">
<ele>-10.449844</ele>
<time>2026-07-13T12:55:56.000Z</time>
</trkpt>
<trkpt lat="56.587997" lon="8.143554">
<ele>-10.427566</ele>
<time>2026-07-13T12:55:57.000Z</time>
</trkpt>
<trkpt lat="56.588047" lon="8.143539">
<ele>-10.404845</ele>
<time>2026-07-13T12:55:58.000Z</time>
</trkpt>
<trkpt lat="56.588097" lon="8.143528">
<ele>-10.382264</ele>
<time>2026-07-13T12:55:59.000Z</time>
</trkpt>
<trkpt lat="56.588146" lon="8.143518">
<ele>-10.360157</ele>
<time>2026-07-13T12:56:00.000Z</time>
</trkpt>
<trkpt lat="56.588192" lon="8.143513">
<ele>-10.339496</ele>
<time>2026-07-13T12:56:01.000Z</time>
</trkpt>
<trkpt lat="56.588242" lon="8.143509">
<ele>-10.317058</ele>
<time>2026-07-13T12:56:02.000Z</time>
</trkpt>
<trkpt lat="56.588287" lon="8.143508">
<ele>-10.296881</ele>
<time>2026-07-13T12:56:03.000Z</time>
</trkpt>
<trkpt lat="56.588333" lon="8.143511">
<ele>-10.276244</ele>
<time>2026-07-13T12:56:04.000Z</time>
</trkpt>
<trkpt lat="56.588383" lon="8.143516">
<ele>-10.253793</ele>
<time>2026-07-13T12:56:05.000Z</time>
</trkpt>
<trkpt lat="56.588432" lon="8.143525">
<ele>-10.231712</ele>
<time>2026-07-13T12:56:06.000Z</time>
</trkpt>
<trkpt lat="56.588482" lon="8.143538">
<ele>-10.209067</ele>
<time>2026-07-13T12:56:07.000Z</time>
</trkpt>
<trkpt lat="56.588531" lon="8.143553">
<ele>-10.186788</ele>
<time>2026-07-13T12:56:08.000Z</time>
</trkpt>
<trkpt lat="56.588581" lon="8.143572">
<ele>-10.163886</ele>
<time>2026-07-13T12:56:09.000Z</time>
</trkpt>
<trkpt lat="56.588627" lon="8.143595">
<ele>-10.145809</ele>
<time>2026-07-13T12:56:10.000Z</time>
</trkpt>
<trkpt lat="56.588676" lon="8.143618">
<ele>-10.130841</ele>
<time>2026-07-13T12:56:11.000Z</time>
</trkpt>
<trkpt lat="56.588726" lon="8.143641">
<ele>-10.115586</ele>
<time>2026-07-13T12:56:12.000Z</time>
</trkpt>
<trkpt lat="56.588772" lon="8.143662">
<ele>-10.101558</ele>
<time>2026-07-13T12:56:13.000Z</time>
</trkpt>
<trkpt lat="56.588821" lon="8.143684">
<ele>-10.086629</ele>
<time>2026-07-13T12:56:14.000Z</time>
</trkpt>
<trkpt lat="56.588867" lon="8.143708">
<ele>-10.072474</ele>
<time>2026-07-13T12:56:15.000Z</time>
</trkpt>
<trkpt lat="56.588917" lon="8.143732">
<ele>-10.057179</ele>
<time>2026-07-13T12:56:16.000Z</time>
</trkpt>
<trkpt lat="56.588963" lon="8.143756">
<ele>-10.043024</ele>
<time>2026-07-13T12:56:17.000Z</time>
</trkpt>
<trkpt lat="56.589008" lon="8.143778">
<ele>-10.029241</ele>
<time>2026-07-13T12:56:18.000Z</time>
</trkpt>
<trkpt lat="56.589058" lon="8.143801">
<ele>-10.013986</ele>
<time>2026-07-13T12:56:19.000Z</time>
</trkpt>
<trkpt lat="56.589100" lon="8.143821">
<ele>-10.001144</ele>
<time>2026-07-13T12:56:20.000Z</time>
</trkpt>
<trkpt lat="56.589149" lon="8.143844">
<ele>-9.986176</ele>
<time>2026-07-13T12:56:21.000Z</time>
</trkpt>
<trkpt lat="56.589207" lon="8.143864">
<ele>-9.968716</ele>
<time>2026-07-13T12:56:22.000Z</time>
</trkpt>
<trkpt lat="56.589256" lon="8.143882">
<ele>-9.953930</ele>
<time>2026-07-13T12:56:23.000Z</time>
</trkpt>
<trkpt lat="56.589306" lon="8.143896">
<ele>-9.938967</ele>
<time>2026-07-13T12:56:24.000Z</time>
</trkpt>
<trkpt lat="56.589359" lon="8.143908">
<ele>-9.923171</ele>
<time>2026-07-13T12:56:25.000Z</time>
</trkpt>
<trkpt lat="56.589413" lon="8.143919">
<ele>-9.907100</ele>
<time>2026-07-13T12:56:26.000Z</time>
</trkpt>
<trkpt lat="56.589470" lon="8.143927">
<ele>-9.890192</ele>
<time>2026-07-13T12:56:27.000Z</time>
</trkpt>
<trkpt lat="56.589519" lon="8.143932">
<ele>-9.875677</ele>
<time>2026-07-13T12:56:28.000Z</time>
</trkpt>
<trkpt lat="56.589573" lon="8.143937">
<ele>-9.859685</ele>
<time>2026-07-13T12:56:29.000Z</time>
</trkpt>
<trkpt lat="56.589626" lon="8.143939">
<ele>-9.844007</ele>
<time>2026-07-13T12:56:30.000Z</time>
</trkpt>
<trkpt lat="56.589680" lon="8.143940">
<ele>-9.828035</ele>
<time>2026-07-13T12:56:31.000Z</time>
</trkpt>
<trkpt lat="56.589733" lon="8.143941">
<ele>-9.812359</ele>
<time>2026-07-13T12:56:32.000Z</time>
</trkpt>
<trkpt lat="56.589787" lon="8.143946">
<ele>-9.796367</ele>
<time>2026-07-13T12:56:33.000Z</time>
</trkpt>
<trkpt lat="56.589840" lon="8.143953">
<ele>-9.780651</ele>
<time>2026-07-13T12:56:34.000Z</time>
</trkpt>
<trkpt lat="56.589890" lon="8.143962">
<ele>-9.765791</ele>
<time>2026-07-13T12:56:35.000Z</time>
</trkpt>
<trkpt lat="56.589943" lon="8.143973">
<ele>-9.750013</ele>
<time>2026-07-13T12:56:36.000Z</time>
</trkpt>
<trkpt lat="56.590000" lon="8.143988">
<ele>-9.732979</ele>
<time>2026-07-13T12:56:37.000Z</time>
</trkpt>
<trkpt lat="56.590054" lon="8.144002">
<ele>-9.716847</ele>
<time>2026-07-13T12:56:38.000Z</time>
</trkpt>
<trkpt lat="56.590111" lon="8.144018">
<ele>-9.699788</ele>
<time>2026-07-13T12:56:39.000Z</time>
</trkpt>
<trkpt lat="56.590168" lon="8.144035">
<ele>-9.682704</ele>
<time>2026-07-13T12:56:40.000Z</time>
</trkpt>
<trkpt lat="56.590225" lon="8.144053">
<ele>-9.665593</ele>
<time>2026-07-13T12:56:41.000Z</time>
</trkpt>
<trkpt lat="56.590279" lon="8.144068">
<ele>-9.649437</ele>
<time>2026-07-13T12:56:42.000Z</time>
</trkpt>
<trkpt lat="56.590328" lon="8.144083">
<ele>-9.634740</ele>
<time>2026-07-13T12:56:43.000Z</time>
</trkpt>
<trkpt lat="56.590382" lon="8.144096">
<ele>-9.621346</ele>
<time>2026-07-13T12:56:44.000Z</time>
</trkpt>
<trkpt lat="56.590431" lon="8.144110">
<ele>-9.630926</ele>
<time>2026-07-13T12:56:45.000Z</time>
</trkpt>
<trkpt lat="56.590481" lon="8.144123">
<ele>-9.640681</ele>
<time>2026-07-13T12:56:46.000Z</time>
</trkpt>
<trkpt lat="56.590534" lon="8.144138">
<ele>-9.651041</ele>
<time>2026-07-13T12:56:47.000Z</time>
</trkpt>
<trkpt lat="56.590591" lon="8.144155">
<ele>-9.662197</ele>
<time>2026-07-13T12:56:48.000Z</time>
</trkpt>
<trkpt lat="56.590641" lon="8.144169">
<ele>-9.671967</ele>
<time>2026-07-13T12:56:49.000Z</time>
</trkpt>
<trkpt lat="56.590691" lon="8.144183">
<ele>-9.681738</ele>
<time>2026-07-13T12:56:50.000Z</time>
</trkpt>
<trkpt lat="56.590744" lon="8.144197">
<ele>-9.692082</ele>
<time>2026-07-13T12:56:51.000Z</time>
</trkpt>
<trkpt lat="56.590797" lon="8.144213">
<ele>-9.702458</ele>
<time>2026-07-13T12:56:52.000Z</time>
</trkpt>
<trkpt lat="56.590847" lon="8.144228">
<ele>-9.712246</ele>
<time>2026-07-13T12:56:53.000Z</time>
</trkpt>
<trkpt lat="56.590900" lon="8.144243">
<ele>-9.722605</ele>
<time>2026-07-13T12:56:54.000Z</time>
</trkpt>
<trkpt lat="56.590950" lon="8.144258">
<ele>-9.732393</ele>
<time>2026-07-13T12:56:55.000Z</time>
</trkpt>
<trkpt lat="56.591000" lon="8.144273">
<ele>-9.742180</ele>
<time>2026-07-13T12:56:56.000Z</time>
</trkpt>
<trkpt lat="56.591053" lon="8.144288">
<ele>-9.752540</ele>
<time>2026-07-13T12:56:57.000Z</time>
</trkpt>
<trkpt lat="56.591106" lon="8.144304">
<ele>-9.762917</ele>
<time>2026-07-13T12:56:58.000Z</time>
</trkpt>
<trkpt lat="56.591164" lon="8.144326">
<ele>-9.774360</ele>
<time>2026-07-13T12:56:59.000Z</time>
</trkpt>
<trkpt lat="56.591217" lon="8.144349">
<ele>-9.784884</ele>
<time>2026-07-13T12:57:00.000Z</time>
</trkpt>
<trkpt lat="56.591267" lon="8.144375">
<ele>-9.794929</ele>
<time>2026-07-13T12:57:01.000Z</time>
</trkpt>
<trkpt lat="56.591316" lon="8.144402">
<ele>-9.804818</ele>
<time>2026-07-13T12:57:02.000Z</time>
</trkpt>
<trkpt lat="56.591362" lon="8.144427">
<ele>-9.814092</ele>
<time>2026-07-13T12:57:03.000Z</time>
</trkpt>
<trkpt lat="56.591412" lon="8.144460">
<ele>-9.824366</ele>
<time>2026-07-13T12:57:04.000Z</time>
</trkpt>
<trkpt lat="56.591457" lon="8.144492">
<ele>-9.833700</ele>
<time>2026-07-13T12:57:05.000Z</time>
</trkpt>
<trkpt lat="56.591507" lon="8.144528">
<ele>-9.844087</ele>
<time>2026-07-13T12:57:06.000Z</time>
</trkpt>
<trkpt lat="56.591549" lon="8.144571">
<ele>-9.853399</ele>
<time>2026-07-13T12:57:07.000Z</time>
</trkpt>
<trkpt lat="56.591595" lon="8.144616">
<ele>-9.863490</ele>
<time>2026-07-13T12:57:08.000Z</time>
</trkpt>
<trkpt lat="56.591637" lon="8.144659">
<ele>-9.872801</ele>
<time>2026-07-13T12:57:09.000Z</time>
</trkpt>
<trkpt lat="56.591682" lon="8.144703">
<ele>-9.882672</ele>
<time>2026-07-13T12:57:10.000Z</time>
</trkpt>
<trkpt lat="56.591721" lon="8.144745">
<ele>-9.891429</ele>
<time>2026-07-13T12:57:11.000Z</time>
</trkpt>
<trkpt lat="56.591766" lon="8.144795">
<ele>-9.901617</ele>
<time>2026-07-13T12:57:12.000Z</time>
</trkpt>
<trkpt lat="56.591808" lon="8.144850">
<ele>-9.911617</ele>
<time>2026-07-13T12:57:13.000Z</time>
</trkpt>
<trkpt lat="56.591850" lon="8.144901">
<ele>-9.921375</ele>
<time>2026-07-13T12:57:14.000Z</time>
</trkpt>
<trkpt lat="56.591896" lon="8.144950">
<ele>-9.931674</ele>
<time>2026-07-13T12:57:15.000Z</time>
</trkpt>
<trkpt lat="56.591934" lon="8.144994">
<ele>-9.940378</ele>
<time>2026-07-13T12:57:16.000Z</time>
</trkpt>
<trkpt lat="56.591984" lon="8.145045">
<ele>-9.951453</ele>
<time>2026-07-13T12:57:17.000Z</time>
</trkpt>
<trkpt lat="56.592026" lon="8.145094">
<ele>-9.961094</ele>
<time>2026-07-13T12:57:18.000Z</time>
</trkpt>
<trkpt lat="56.592072" lon="8.145139">
<ele>-9.961586</ele>
<time>2026-07-13T12:57:19.000Z</time>
</trkpt>
<trkpt lat="56.592113" lon="8.145184">
<ele>-9.945715</ele>
<time>2026-07-13T12:57:20.000Z</time>
</trkpt>
<trkpt lat="56.592159" lon="8.145226">
<ele>-9.928658</ele>
<time>2026-07-13T12:57:21.000Z</time>
</trkpt>
<trkpt lat="56.592205" lon="8.145266">
<ele>-9.911761</ele>
<time>2026-07-13T12:57:22.000Z</time>
</trkpt>
<trkpt lat="56.592251" lon="8.145304">
<ele>-9.895019</ele>
<time>2026-07-13T12:57:23.000Z</time>
</trkpt>
<trkpt lat="56.592297" lon="8.145340">
<ele>-9.878424</ele>
<time>2026-07-13T12:57:24.000Z</time>
</trkpt>
<trkpt lat="56.592342" lon="8.145374">
<ele>-9.862277</ele>
<time>2026-07-13T12:57:25.000Z</time>
</trkpt>
<trkpt lat="56.592392" lon="8.145403">
<ele>-9.844888</ele>
<time>2026-07-13T12:57:26.000Z</time>
</trkpt>
<trkpt lat="56.592438" lon="8.145431">
<ele>-9.828815</ele>
<time>2026-07-13T12:57:27.000Z</time>
</trkpt>
<trkpt lat="56.592484" lon="8.145457">
<ele>-9.812854</ele>
<time>2026-07-13T12:57:28.000Z</time>
</trkpt>
<trkpt lat="56.592533" lon="8.145481">
<ele>-9.796040</ele>
<time>2026-07-13T12:57:29.000Z</time>
</trkpt>
<trkpt lat="56.592579" lon="8.145503">
<ele>-9.780281</ele>
<time>2026-07-13T12:57:30.000Z</time>
</trkpt>
<trkpt lat="56.592632" lon="8.145524">
<ele>-9.762309</ele>
<time>2026-07-13T12:57:31.000Z</time>
</trkpt>
<trkpt lat="56.592682" lon="8.145542">
<ele>-9.745421</ele>
<time>2026-07-13T12:57:32.000Z</time>
</trkpt>
<trkpt lat="56.592731" lon="8.145559">
<ele>-9.728894</ele>
<time>2026-07-13T12:57:33.000Z</time>
</trkpt>
<trkpt lat="56.592781" lon="8.145575">
<ele>-9.712074</ele>
<time>2026-07-13T12:57:34.000Z</time>
</trkpt>
<trkpt lat="56.592835" lon="8.145589">
<ele>-9.694002</ele>
<time>2026-07-13T12:57:35.000Z</time>
</trkpt>
<trkpt lat="56.592884" lon="8.145601">
<ele>-9.677621</ele>
<time>2026-07-13T12:57:36.000Z</time>
</trkpt>
<trkpt lat="56.592934" lon="8.145615">
<ele>-9.660861</ele>
<time>2026-07-13T12:57:37.000Z</time>
</trkpt>
<trkpt lat="56.592991" lon="8.145627">
<ele>-9.641850</ele>
<time>2026-07-13T12:57:38.000Z</time>
</trkpt>
<trkpt lat="56.593040" lon="8.145639">
<ele>-9.625469</ele>
<time>2026-07-13T12:57:39.000Z</time>
</trkpt>
<trkpt lat="56.593090" lon="8.145652">
<ele>-9.608735</ele>
<time>2026-07-13T12:57:40.000Z</time>
</trkpt>
<trkpt lat="56.593140" lon="8.145664">
<ele>-9.592026</ele>
<time>2026-07-13T12:57:41.000Z</time>
</trkpt>
<trkpt lat="56.593193" lon="8.145675">
<ele>-9.574353</ele>
<time>2026-07-13T12:57:42.000Z</time>
</trkpt>
<trkpt lat="56.593243" lon="8.145685">
<ele>-9.557688</ele>
<time>2026-07-13T12:57:43.000Z</time>
</trkpt>
<trkpt lat="56.593292" lon="8.145698">
<ele>-9.541282</ele>
<time>2026-07-13T12:57:44.000Z</time>
</trkpt>
<trkpt lat="56.593342" lon="8.145713">
<ele>-9.524492</ele>
<time>2026-07-13T12:57:45.000Z</time>
</trkpt>
<trkpt lat="56.593391" lon="8.145730">
<ele>-9.507965</ele>
<time>2026-07-13T12:57:46.000Z</time>
</trkpt>
<trkpt lat="56.593445" lon="8.145748">
<ele>-9.489776</ele>
<time>2026-07-13T12:57:47.000Z</time>
</trkpt>
<trkpt lat="56.593494" lon="8.145766">
<ele>-9.473213</ele>
<time>2026-07-13T12:57:48.000Z</time>
</trkpt>
<trkpt lat="56.593548" lon="8.145785">
<ele>-9.454990</ele>
<time>2026-07-13T12:57:49.000Z</time>
</trkpt>
<trkpt lat="56.593597" lon="8.145805">
<ele>-9.438351</ele>
<time>2026-07-13T12:57:50.000Z</time>
</trkpt>
<trkpt lat="56.593647" lon="8.145826">
<ele>-9.421349</ele>
<time>2026-07-13T12:57:51.000Z</time>
</trkpt>
<trkpt lat="56.593693" lon="8.145848">
<ele>-9.405590</ele>
<time>2026-07-13T12:57:52.000Z</time>
</trkpt>
<trkpt lat="56.593746" lon="8.145870">
<ele>-9.387578</ele>
<time>2026-07-13T12:57:53.000Z</time>
</trkpt>
<trkpt lat="56.593796" lon="8.145891">
<ele>-9.372994</ele>
<time>2026-07-13T12:57:54.000Z</time>
</trkpt>
<trkpt lat="56.593849" lon="8.145914">
<ele>-9.391956</ele>
<time>2026-07-13T12:57:55.000Z</time>
</trkpt>
<trkpt lat="56.593899" lon="8.145940">
<ele>-9.410053</ele>
<time>2026-07-13T12:57:56.000Z</time>
</trkpt>
<trkpt lat="56.593941" lon="8.145965">
<ele>-9.425433</ele>
<time>2026-07-13T12:57:57.000Z</time>
</trkpt>
<trkpt lat="56.593990" lon="8.145992">
<ele>-9.443251</ele>
<time>2026-07-13T12:57:58.000Z</time>
</trkpt>
<trkpt lat="56.594048" lon="8.146022">
<ele>-9.464235</ele>
<time>2026-07-13T12:57:59.000Z</time>
</trkpt>
<trkpt lat="56.594093" lon="8.146050">
<ele>-9.480787</ele>
<time>2026-07-13T12:58:00.000Z</time>
</trkpt>
<trkpt lat="56.594143" lon="8.146078">
<ele>-9.498994</ele>
<time>2026-07-13T12:58:01.000Z</time>
</trkpt>
<trkpt lat="56.594193" lon="8.146104">
<ele>-9.517091</ele>
<time>2026-07-13T12:58:02.000Z</time>
</trkpt>
<trkpt lat="56.594242" lon="8.146132">
<ele>-9.534966</ele>
<time>2026-07-13T12:58:03.000Z</time>
</trkpt>
<trkpt lat="56.594288" lon="8.146181">
<ele>-9.553522</ele>
<time>2026-07-13T12:58:04.000Z</time>
</trkpt>
<trkpt lat="56.594334" lon="8.146238">
<ele>-9.572898</ele>
<time>2026-07-13T12:58:05.000Z</time>
</trkpt>
<trkpt lat="56.594379" lon="8.146296">
<ele>-9.592099</ele>
<time>2026-07-13T12:58:06.000Z</time>
</trkpt>
<trkpt lat="56.594421" lon="8.146309">
<ele>-9.606924</ele>
<time>2026-07-13T12:58:07.000Z</time>
</trkpt>
<trkpt lat="56.594467" lon="8.146312">
<ele>-9.622941</ele>
<time>2026-07-13T12:58:08.000Z</time>
</trkpt>
<trkpt lat="56.594532" lon="8.146340">
<ele>-9.646187</ele>
<time>2026-07-13T12:58:09.000Z</time>
</trkpt>
<trkpt lat="56.594585" lon="8.146362">
<ele>-9.665104</ele>
<time>2026-07-13T12:58:10.000Z</time>
</trkpt>
<trkpt lat="56.594643" lon="8.146382">
<ele>-9.685647</ele>
<time>2026-07-13T12:58:11.000Z</time>
</trkpt>
<trkpt lat="56.594688" lon="8.146403">
<ele>-9.701814</ele>
<time>2026-07-13T12:58:12.000Z</time>
</trkpt>
<trkpt lat="56.594738" lon="8.146426">
<ele>-9.719762</ele>
<time>2026-07-13T12:58:13.000Z</time>
</trkpt>
<trkpt lat="56.594788" lon="8.146450">
<ele>-9.737758</ele>
<time>2026-07-13T12:58:14.000Z</time>
</trkpt>
<trkpt lat="56.594837" lon="8.146479">
<ele>-9.755690</ele>
<time>2026-07-13T12:58:15.000Z</time>
</trkpt>
<trkpt lat="56.594883" lon="8.146503">
<ele>-9.772344</ele>
<time>2026-07-13T12:58:16.000Z</time>
</trkpt>
<trkpt lat="56.594933" lon="8.146526">
<ele>-9.790292</ele>
<time>2026-07-13T12:58:17.000Z</time>
</trkpt>
<trkpt lat="56.594978" lon="8.146553">
<ele>-9.806783</ele>
<time>2026-07-13T12:58:18.000Z</time>
</trkpt>
<trkpt lat="56.595028" lon="8.146579">
<ele>-9.824880</ele>
<time>2026-07-13T12:58:19.000Z</time>
</trkpt>
<trkpt lat="56.595074" lon="8.146605">
<ele>-9.841644</ele>
<time>2026-07-13T12:58:20.000Z</time>
</trkpt>
<trkpt lat="56.595123" lon="8.146631">
<ele>-9.859407</ele>
<time>2026-07-13T12:58:21.000Z</time>
</trkpt>
<trkpt lat="56.595169" lon="8.146656">
<ele>-9.876115</ele>
<time>2026-07-13T12:58:22.000Z</time>
</trkpt>
<trkpt lat="56.595219" lon="8.146683">
<ele>-9.894266</ele>
<time>2026-07-13T12:58:23.000Z</time>
</trkpt>
<trkpt lat="56.595272" lon="8.146710">
<ele>-9.913420</ele>
<time>2026-07-13T12:58:24.000Z</time>
</trkpt>
<trkpt lat="56.595322" lon="8.146738">
<ele>-9.931626</ele>
<time>2026-07-13T12:58:25.000Z</time>
</trkpt>
<trkpt lat="56.595371" lon="8.146767">
<ele>-9.949559</ele>
<time>2026-07-13T12:58:26.000Z</time>
</trkpt>
<trkpt lat="56.595413" lon="8.146791">
<ele>-9.964880</ele>
<time>2026-07-13T12:58:27.000Z</time>
</trkpt>
<trkpt lat="56.595467" lon="8.146820">
<ele>-9.984474</ele>
<time>2026-07-13T12:58:28.000Z</time>
</trkpt>
<trkpt lat="56.595516" lon="8.146846">
<ele>-9.994304</ele>
<time>2026-07-13T12:58:29.000Z</time>
</trkpt>
<trkpt lat="56.595566" lon="8.146874">
<ele>-9.981178</ele>
<time>2026-07-13T12:58:30.000Z</time>
</trkpt>
<trkpt lat="56.595619" lon="8.146905">
<ele>-9.967210</ele>
<time>2026-07-13T12:58:31.000Z</time>
</trkpt>
<trkpt lat="56.595669" lon="8.146935">
<ele>-9.954000</ele>
<time>2026-07-13T12:58:32.000Z</time>
</trkpt>
<trkpt lat="56.595722" lon="8.146962">
<ele>-9.940192</ele>
<time>2026-07-13T12:58:33.000Z</time>
</trkpt>
<trkpt lat="56.595776" lon="8.146993">
<ele>-9.925985</ele>
<time>2026-07-13T12:58:34.000Z</time>
</trkpt>
<trkpt lat="56.595825" lon="8.147022">
<ele>-9.913057</ele>
<time>2026-07-13T12:58:35.000Z</time>
</trkpt>
<trkpt lat="56.595875" lon="8.147053">
<ele>-9.899803</ele>
<time>2026-07-13T12:58:36.000Z</time>
</trkpt>
<trkpt lat="56.595924" lon="8.147081">
<ele>-9.886917</ele>
<time>2026-07-13T12:58:37.000Z</time>
</trkpt>
<trkpt lat="56.595974" lon="8.147110">
<ele>-9.873750</ele>
<time>2026-07-13T12:58:38.000Z</time>
</trkpt>
<trkpt lat="56.596024" lon="8.147140">
<ele>-9.860541</ele>
<time>2026-07-13T12:58:39.000Z</time>
</trkpt>
<trkpt lat="56.596073" lon="8.147172">
<ele>-9.847478</ele>
<time>2026-07-13T12:58:40.000Z</time>
</trkpt>
<trkpt lat="56.596119" lon="8.147202">
<ele>-9.835217</ele>
<time>2026-07-13T12:58:41.000Z</time>
</trkpt>
<trkpt lat="56.596172" lon="8.147231">
<ele>-9.821332</ele>
<time>2026-07-13T12:58:42.000Z</time>
</trkpt>
<trkpt lat="56.596222" lon="8.147261">
<ele>-9.808122</ele>
<time>2026-07-13T12:58:43.000Z</time>
</trkpt>
<trkpt lat="56.596275" lon="8.147290">
<ele>-9.794236</ele>
<time>2026-07-13T12:58:44.000Z</time>
</trkpt>
<trkpt lat="56.596325" lon="8.147322">
<ele>-9.780938</ele>
<time>2026-07-13T12:58:45.000Z</time>
</trkpt>
<trkpt lat="56.596371" lon="8.147350">
<ele>-9.768767</ele>
<time>2026-07-13T12:58:46.000Z</time>
</trkpt>
<trkpt lat="56.596420" lon="8.147379">
<ele>-9.755839</ele>
<time>2026-07-13T12:58:47.000Z</time>
</trkpt>
<trkpt lat="56.596470" lon="8.147408">
<ele>-9.742672</ele>
<time>2026-07-13T12:58:48.000Z</time>
</trkpt>
<trkpt lat="56.596516" lon="8.147437">
<ele>-9.730457</ele>
<time>2026-07-13T12:58:49.000Z</time>
</trkpt>
<trkpt lat="56.596561" lon="8.147464">
<ele>-9.718569</ele>
<time>2026-07-13T12:58:50.000Z</time>
</trkpt>
<trkpt lat="56.596603" lon="8.147489">
<ele>-9.707481</ele>
<time>2026-07-13T12:58:51.000Z</time>
</trkpt>
<trkpt lat="56.596642" lon="8.147511">
<ele>-9.697237</ele>
<time>2026-07-13T12:58:52.000Z</time>
</trkpt>
<trkpt lat="56.596676" lon="8.147530">
<ele>-9.688313</ele>
<time>2026-07-13T12:58:53.000Z</time>
</trkpt>
<trkpt lat="56.596703" lon="8.147553">
<ele>-9.680832</ele>
<time>2026-07-13T12:58:54.000Z</time>
</trkpt>
<trkpt lat="56.596714" lon="8.147580">
<ele>-9.676193</ele>
<time>2026-07-13T12:58:55.000Z</time>
</trkpt>
<trkpt lat="56.596718" lon="8.147614">
<ele>-9.671392</ele>
<time>2026-07-13T12:58:56.000Z</time>
</trkpt>
<trkpt lat="56.596733" lon="8.147650">
<ele>-9.665156</ele>
<time>2026-07-13T12:58:57.000Z</time>
</trkpt>
<trkpt lat="56.596756" lon="8.147682">
<ele>-9.657889</ele>
<time>2026-07-13T12:58:58.000Z</time>
</trkpt>
<trkpt lat="56.596786" lon="8.147716">
<ele>-9.649018</ele>
<time>2026-07-13T12:58:59.000Z</time>
</trkpt>
<trkpt lat="56.596813" lon="8.147738">
<ele>-9.641595</ele>
<time>2026-07-13T12:59:00.000Z</time>
</trkpt>
<trkpt lat="56.596848" lon="8.147758">
<ele>-9.632390</ele>
<time>2026-07-13T12:59:01.000Z</time>
</trkpt>
<trkpt lat="56.596886" lon="8.147780">
<ele>-9.622385</ele>
<time>2026-07-13T12:59:02.000Z</time>
</trkpt>
<trkpt lat="56.596920" lon="8.147802">
<ele>-9.613331</ele>
<time>2026-07-13T12:59:03.000Z</time>
</trkpt>
<trkpt lat="56.596954" lon="8.147826">
<ele>-9.604180</ele>
<time>2026-07-13T12:59:04.000Z</time>
</trkpt>
<trkpt lat="56.596993" lon="8.147848">
<ele>-9.593936</ele>
<time>2026-07-13T12:59:05.000Z</time>
</trkpt>
<trkpt lat="56.597027" lon="8.147869">
<ele>-9.584927</ele>
<time>2026-07-13T12:59:06.000Z</time>
</trkpt>
<trkpt lat="56.597065" lon="8.147893">
<ele>-9.574834</ele>
<time>2026-07-13T12:59:07.000Z</time>
</trkpt>
<trkpt lat="56.597103" lon="8.147916">
<ele>-9.564787</ele>
<time>2026-07-13T12:59:08.000Z</time>
</trkpt>
<trkpt lat="56.597141" lon="8.147937">
<ele>-9.554822</ele>
<time>2026-07-13T12:59:09.000Z</time>
</trkpt>
<trkpt lat="56.597179" lon="8.147954">
<ele>-9.546071</ele>
<time>2026-07-13T12:59:10.000Z</time>
</trkpt>
<trkpt lat="56.597218" lon="8.147974">
<ele>-9.543562</ele>
<time>2026-07-13T12:59:11.000Z</time>
</trkpt>
<trkpt lat="56.597259" lon="8.147996">
<ele>-9.540916</ele>
<time>2026-07-13T12:59:12.000Z</time>
</trkpt>
<trkpt lat="56.597301" lon="8.148020">
<ele>-9.538191</ele>
<time>2026-07-13T12:59:13.000Z</time>
</trkpt>
<trkpt lat="56.597347" lon="8.148046">
<ele>-9.535209</ele>
<time>2026-07-13T12:59:14.000Z</time>
</trkpt>
<trkpt lat="56.597393" lon="8.148073">
<ele>-9.532216</ele>
<time>2026-07-13T12:59:15.000Z</time>
</trkpt>
<trkpt lat="56.597439" lon="8.148098">
<ele>-9.529244</ele>
<time>2026-07-13T12:59:16.000Z</time>
</trkpt>
<trkpt lat="56.597488" lon="8.148124">
<ele>-9.526084</ele>
<time>2026-07-13T12:59:17.000Z</time>
</trkpt>
<trkpt lat="56.597534" lon="8.148148">
<ele>-9.523122</ele>
<time>2026-07-13T12:59:18.000Z</time>
</trkpt>
<trkpt lat="56.597580" lon="8.148175">
<ele>-9.520130</ele>
<time>2026-07-13T12:59:19.000Z</time>
</trkpt>
<trkpt lat="56.597626" lon="8.148205">
<ele>-9.517104</ele>
<time>2026-07-13T12:59:20.000Z</time>
</trkpt>
<trkpt lat="56.597675" lon="8.148234">
<ele>-9.513914</ele>
<time>2026-07-13T12:59:21.000Z</time>
</trkpt>
<trkpt lat="56.597725" lon="8.148266">
<ele>-9.510633</ele>
<time>2026-07-13T12:59:22.000Z</time>
</trkpt>
<trkpt lat="56.597778" lon="8.148295">
<ele>-9.507207</ele>
<time>2026-07-13T12:59:23.000Z</time>
</trkpt>
<trkpt lat="56.597828" lon="8.148322">
<ele>-9.503978</ele>
<time>2026-07-13T12:59:24.000Z</time>
</trkpt>
<trkpt lat="56.597877" lon="8.148350">
<ele>-9.500798</ele>
<time>2026-07-13T12:59:25.000Z</time>
</trkpt>
<trkpt lat="56.597931" lon="8.148382">
<ele>-9.497283</ele>
<time>2026-07-13T12:59:26.000Z</time>
</trkpt>
<trkpt lat="56.597984" lon="8.148414">
<ele>-9.493825</ele>
<time>2026-07-13T12:59:27.000Z</time>
</trkpt>
<trkpt lat="56.598038" lon="8.148444">
<ele>-9.490330</ele>
<time>2026-07-13T12:59:28.000Z</time>
</trkpt>
<trkpt lat="56.598087" lon="8.148472">
<ele>-9.487151</ele>
<time>2026-07-13T12:59:29.000Z</time>
</trkpt>
<trkpt lat="56.598141" lon="8.148500">
<ele>-9.483674</ele>
<time>2026-07-13T12:59:30.000Z</time>
</trkpt>
<trkpt lat="56.598190" lon="8.148529">
<ele>-9.480485</ele>
<time>2026-07-13T12:59:31.000Z</time>
</trkpt>
<trkpt lat="56.598244" lon="8.148557">
<ele>-9.477008</ele>
<time>2026-07-13T12:59:32.000Z</time>
</trkpt>
<trkpt lat="56.598301" lon="8.148585">
<ele>-9.473354</ele>
<time>2026-07-13T12:59:33.000Z</time>
</trkpt>
<trkpt lat="56.598354" lon="8.148615">
<ele>-9.469917</ele>
<time>2026-07-13T12:59:34.000Z</time>
</trkpt>
<trkpt lat="56.598408" lon="8.148641">
<ele>-9.466459</ele>
<time>2026-07-13T12:59:35.000Z</time>
</trkpt>
<trkpt lat="56.598457" lon="8.148662">
<ele>-9.463343</ele>
<time>2026-07-13T12:59:36.000Z</time>
</trkpt>
<trkpt lat="56.598503" lon="8.148685">
<ele>-9.460390</ele>
<time>2026-07-13T12:59:37.000Z</time>
</trkpt>
<trkpt lat="56.598553" lon="8.148714">
<ele>-9.457141</ele>
<time>2026-07-13T12:59:38.000Z</time>
</trkpt>
<trkpt lat="56.598606" lon="8.148743">
<ele>-9.453715</ele>
<time>2026-07-13T12:59:39.000Z</time>
</trkpt>
<trkpt lat="56.598660" lon="8.148771">
<ele>-9.450239</ele>
<time>2026-07-13T12:59:40.000Z</time>
</trkpt>
<trkpt lat="56.598713" lon="8.148797">
<ele>-9.446841</ele>
<time>2026-07-13T12:59:41.000Z</time>
</trkpt>
<trkpt lat="56.598763" lon="8.148822">
<ele>-9.443631</ele>
<time>2026-07-13T12:59:42.000Z</time>
</trkpt>
<trkpt lat="56.598812" lon="8.148847">
<ele>-9.440480</ele>
<time>2026-07-13T12:59:43.000Z</time>
</trkpt>
<trkpt lat="56.598862" lon="8.148869">
<ele>-9.437296</ele>
<time>2026-07-13T12:59:44.000Z</time>
</trkpt>
<trkpt lat="56.598911" lon="8.148893">
<ele>-9.440398</ele>
<time>2026-07-13T12:59:45.000Z</time>
</trkpt>
<trkpt lat="56.598965" lon="8.148916">
<ele>-9.459969</ele>
<time>2026-07-13T12:59:46.000Z</time>
</trkpt>
<trkpt lat="56.599014" lon="8.148941">
<ele>-9.477927</ele>
<time>2026-07-13T12:59:47.000Z</time>
</trkpt>
<trkpt lat="56.599068" lon="8.148967">
<ele>-9.497640</ele>
<time>2026-07-13T12:59:48.000Z</time>
</trkpt>
<trkpt lat="56.599117" lon="8.148993">
<ele>-9.515652</ele>
<time>2026-07-13T12:59:49.000Z</time>
</trkpt>
<trkpt lat="56.599171" lon="8.149019">
<ele>-9.535364</ele>
<time>2026-07-13T12:59:50.000Z</time>
</trkpt>
<trkpt lat="56.599224" lon="8.149043">
<ele>-9.554638</ele>
<time>2026-07-13T12:59:51.000Z</time>
</trkpt>
<trkpt lat="56.599274" lon="8.149066">
<ele>-9.572837</ele>
<time>2026-07-13T12:59:52.000Z</time>
</trkpt>
<trkpt lat="56.599323" lon="8.149090">
<ele>-9.590745</ele>
<time>2026-07-13T12:59:53.000Z</time>
</trkpt>
<trkpt lat="56.599377" lon="8.149115">
<ele>-9.610408</ele>
<time>2026-07-13T12:59:54.000Z</time>
</trkpt>
<trkpt lat="56.599430" lon="8.149139">
<ele>-9.629682</ele>
<time>2026-07-13T12:59:55.000Z</time>
</trkpt>
<trkpt lat="56.599480" lon="8.149162">
<ele>-9.647881</ele>
<time>2026-07-13T12:59:56.000Z</time>
</trkpt>
<trkpt lat="56.599537" lon="8.149186">
<ele>-9.668527</ele>
<time>2026-07-13T12:59:57.000Z</time>
</trkpt>
<trkpt lat="56.599594" lon="8.149212">
<ele>-9.689264</ele>
<time>2026-07-13T12:59:58.000Z</time>
</trkpt>
<trkpt lat="56.599644" lon="8.149239">
<ele>-9.707670</ele>
<time>2026-07-13T12:59:59.000Z</time>
</trkpt>
<trkpt lat="56.599693" lon="8.149261">
<ele>-9.725480</ele>
<time>2026-07-13T13:00:00.000Z</time>
</trkpt>
<trkpt lat="56.599751" lon="8.149290">
<ele>-9.746707</ele>
<time>2026-07-13T13:00:01.000Z</time>
</trkpt>
<trkpt lat="56.599812" lon="8.149319">
<ele>-9.768956</ele>
<time>2026-07-13T13:00:02.000Z</time>
</trkpt>
<trkpt lat="56.599869" lon="8.149343">
<ele>-9.789602</ele>
<time>2026-07-13T13:00:03.000Z</time>
</trkpt>
<trkpt lat="56.599922" lon="8.149367">
<ele>-9.808875</ele>
<time>2026-07-13T13:00:04.000Z</time>
</trkpt>
<trkpt lat="56.599979" lon="8.149399">
<ele>-9.829927</ele>
<time>2026-07-13T13:00:05.000Z</time>
</trkpt>
<trkpt lat="56.600037" lon="8.149429">
<ele>-9.851206</ele>
<time>2026-07-13T13:00:06.000Z</time>
</trkpt>
<trkpt lat="56.600094" lon="8.149457">
<ele>-9.872041</ele>
<time>2026-07-13T13:00:07.000Z</time>
</trkpt>
<trkpt lat="56.600147" lon="8.149480">
<ele>-9.891268</ele>
<time>2026-07-13T13:00:08.000Z</time>
</trkpt>
<trkpt lat="56.600204" lon="8.149501">
<ele>-9.911790</ele>
<time>2026-07-13T13:00:09.000Z</time>
</trkpt>
<trkpt lat="56.600262" lon="8.149525">
<ele>-9.932780</ele>
<time>2026-07-13T13:00:10.000Z</time>
</trkpt>
<trkpt lat="56.600315" lon="8.149552">
<ele>-9.952203</ele>
<time>2026-07-13T13:00:11.000Z</time>
</trkpt>
<trkpt lat="56.600372" lon="8.149585">
<ele>-9.973312</ele>
<time>2026-07-13T13:00:12.000Z</time>
</trkpt>
<trkpt lat="56.600430" lon="8.149613">
<ele>-9.994488</ele>
<time>2026-07-13T13:00:13.000Z</time>
</trkpt>
<trkpt lat="56.600487" lon="8.149636">
<ele>-10.015091</ele>
<time>2026-07-13T13:00:14.000Z</time>
</trkpt>
<trkpt lat="56.600544" lon="8.149657">
<ele>-10.035613</ele>
<time>2026-07-13T13:00:15.000Z</time>
</trkpt>
<trkpt lat="56.600605" lon="8.149681">
<ele>-10.057637</ele>
<time>2026-07-13T13:00:16.000Z</time>
</trkpt>
<trkpt lat="56.600662" lon="8.149707">
<ele>-10.066571</ele>
<time>2026-07-13T13:00:17.000Z</time>
</trkpt>
<trkpt lat="56.600719" lon="8.149733">
<ele>-10.058938</ele>
<time>2026-07-13T13:00:18.000Z</time>
</trkpt>
<trkpt lat="56.600773" lon="8.149758">
<ele>-10.051700</ele>
<time>2026-07-13T13:00:19.000Z</time>
</trkpt>
<trkpt lat="56.600830" lon="8.149786">
<ele>-10.044031</ele>
<time>2026-07-13T13:00:20.000Z</time>
</trkpt>
<trkpt lat="56.600887" lon="8.149814">
<ele>-10.036361</ele>
<time>2026-07-13T13:00:21.000Z</time>
</trkpt>
<trkpt lat="56.600945" lon="8.149838">
<ele>-10.028635</ele>
<time>2026-07-13T13:00:22.000Z</time>
</trkpt>
<trkpt lat="56.601006" lon="8.149859">
<ele>-10.020571</ele>
<time>2026-07-13T13:00:23.000Z</time>
</trkpt>
<trkpt lat="56.601063" lon="8.149879">
<ele>-10.013031</ele>
<time>2026-07-13T13:00:24.000Z</time>
</trkpt>
<trkpt lat="56.601124" lon="8.149892">
<ele>-10.005054</ele>
<time>2026-07-13T13:00:25.000Z</time>
</trkpt>
<trkpt lat="56.601185" lon="8.149899">
<ele>-9.997115</ele>
<time>2026-07-13T13:00:26.000Z</time>
</trkpt>
<trkpt lat="56.601246" lon="8.149902">
<ele>-9.989190</ele>
<time>2026-07-13T13:00:27.000Z</time>
</trkpt>
<trkpt lat="56.601307" lon="8.149908">
<ele>-9.981255</ele>
<time>2026-07-13T13:00:28.000Z</time>
</trkpt>
<trkpt lat="56.601368" lon="8.149917">
<ele>-9.973306</ele>
<time>2026-07-13T13:00:29.000Z</time>
</trkpt>
<trkpt lat="56.601425" lon="8.149920">
<ele>-9.965900</ele>
<time>2026-07-13T13:00:30.000Z</time>
</trkpt>
<trkpt lat="56.601486" lon="8.149924">
<ele>-9.957972</ele>
<time>2026-07-13T13:00:31.000Z</time>
</trkpt>
<trkpt lat="56.601543" lon="8.149930">
<ele>-9.950556</ele>
<time>2026-07-13T13:00:32.000Z</time>
</trkpt>
<trkpt lat="56.601601" lon="8.149940">
<ele>-9.942989</ele>
<time>2026-07-13T13:00:33.000Z</time>
</trkpt>
<trkpt lat="56.601646" lon="8.149956">
<ele>-9.937033</ele>
<time>2026-07-13T13:00:34.000Z</time>
</trkpt>
<trkpt lat="56.601700" lon="8.149979">
<ele>-9.929829</ele>
<time>2026-07-13T13:00:35.000Z</time>
</trkpt>
<trkpt lat="56.601749" lon="8.150003">
<ele>-9.923238</ele>
<time>2026-07-13T13:00:36.000Z</time>
</trkpt>
<trkpt lat="56.601803" lon="8.150033">
<ele>-9.915904</ele>
<time>2026-07-13T13:00:37.000Z</time>
</trkpt>
<trkpt lat="56.601852" lon="8.150071">
<ele>-9.908984</ele>
<time>2026-07-13T13:00:38.000Z</time>
</trkpt>
<trkpt lat="56.601898" lon="8.150117">
<ele>-9.902164</ele>
<time>2026-07-13T13:00:39.000Z</time>
</trkpt>
<trkpt lat="56.601940" lon="8.150172">
<ele>-9.895439</ele>
<time>2026-07-13T13:00:40.000Z</time>
</trkpt>
<trkpt lat="56.601982" lon="8.150230">
<ele>-9.888587</ele>
<time>2026-07-13T13:00:41.000Z</time>
</trkpt>
<trkpt lat="56.602024" lon="8.150295">
<ele>-9.881421</ele>
<time>2026-07-13T13:00:42.000Z</time>
</trkpt>
<trkpt lat="56.602062" lon="8.150367">
<ele>-9.874290</ele>
<time>2026-07-13T13:00:43.000Z</time>
</trkpt>
<trkpt lat="56.602097" lon="8.150442">
<ele>-9.867260</ele>
<time>2026-07-13T13:00:44.000Z</time>
</trkpt>
<trkpt lat="56.602131" lon="8.150518">
<ele>-9.860258</ele>
<time>2026-07-13T13:00:45.000Z</time>
</trkpt>
<trkpt lat="56.602165" lon="8.150596">
<ele>-9.853145</ele>
<time>2026-07-13T13:00:46.000Z</time>
</trkpt>
<trkpt lat="56.602203" lon="8.150674">
<ele>-9.845698</ele>
<time>2026-07-13T13:00:47.000Z</time>
</trkpt>
<trkpt lat="56.602238" lon="8.150753">
<ele>-9.838448</ele>
<time>2026-07-13T13:00:48.000Z</time>
</trkpt>
<trkpt lat="56.602272" lon="8.150830">
<ele>-9.841781</ele>
<time>2026-07-13T13:00:49.000Z</time>
</trkpt>
<trkpt lat="56.602306" lon="8.150909">
<ele>-9.850317</ele>
<time>2026-07-13T13:00:50.000Z</time>
</trkpt>
<trkpt lat="56.602341" lon="8.150984">
<ele>-9.858686</ele>
<time>2026-07-13T13:00:51.000Z</time>
</trkpt>
<trkpt lat="56.602379" lon="8.151066">
<ele>-9.867810</ele>
<time>2026-07-13T13:00:52.000Z</time>
</trkpt>
<trkpt lat="56.602417" lon="8.151146">
<ele>-9.876805</ele>
<time>2026-07-13T13:00:53.000Z</time>
</trkpt>
<trkpt lat="56.602459" lon="8.151224">
<ele>-9.886093</ele>
<time>2026-07-13T13:00:54.000Z</time>
</trkpt>
<trkpt lat="56.602497" lon="8.151297">
<ele>-9.894645</ele>
<time>2026-07-13T13:00:55.000Z</time>
</trkpt>
<trkpt lat="56.602531" lon="8.151364">
<ele>-9.902402</ele>
<time>2026-07-13T13:00:56.000Z</time>
</trkpt>
<trkpt lat="56.602566" lon="8.151435">
<ele>-9.910514</ele>
<time>2026-07-13T13:00:57.000Z</time>
</trkpt>
<trkpt lat="56.602608" lon="8.151504">
<ele>-9.919271</ele>
<time>2026-07-13T13:00:58.000Z</time>
</trkpt>
<trkpt lat="56.602646" lon="8.151573">
<ele>-9.927579</ele>
<time>2026-07-13T13:00:59.000Z</time>
</trkpt>
<trkpt lat="56.602684" lon="8.151643">
<ele>-9.935947</ele>
<time>2026-07-13T13:01:00.000Z</time>
</trkpt>
<trkpt lat="56.602722" lon="8.151714">
<ele>-9.944377</ele>
<time>2026-07-13T13:01:01.000Z</time>
</trkpt>
<trkpt lat="56.602760" lon="8.151786">
<ele>-9.952867</ele>
<time>2026-07-13T13:01:02.000Z</time>
</trkpt>
<trkpt lat="56.602802" lon="8.151856">
<ele>-9.961681</ele>
<time>2026-07-13T13:01:03.000Z</time>
</trkpt>
<trkpt lat="56.602844" lon="8.151924">
<ele>-9.970381</ele>
<time>2026-07-13T13:01:04.000Z</time>
</trkpt>
<trkpt lat="56.602894" lon="8.152000">
<ele>-9.980462</ele>
<time>2026-07-13T13:01:05.000Z</time>
</trkpt>
<trkpt lat="56.602943" lon="8.152073">
<ele>-9.990261</ele>
<time>2026-07-13T13:01:06.000Z</time>
</trkpt>
<trkpt lat="56.602993" lon="8.152138">
<ele>-9.999769</ele>
<time>2026-07-13T13:01:07.000Z</time>
</trkpt>
<trkpt lat="56.603046" lon="8.152202">
<ele>-10.009610</ele>
<time>2026-07-13T13:01:08.000Z</time>
</trkpt>
<trkpt lat="56.603096" lon="8.152259">
<ele>-10.018738</ele>
<time>2026-07-13T13:01:09.000Z</time>
</trkpt>
<trkpt lat="56.603146" lon="8.152311">
<ele>-10.027647</ele>
<time>2026-07-13T13:01:10.000Z</time>
</trkpt>
<trkpt lat="56.603191" lon="8.152361">
<ele>-10.035804</ele>
<time>2026-07-13T13:01:11.000Z</time>
</trkpt>
<trkpt lat="56.603233" lon="8.152412">
<ele>-10.043616</ele>
<time>2026-07-13T13:01:12.000Z</time>
</trkpt>
<trkpt lat="56.603271" lon="8.152463">
<ele>-10.050922</ele>
<time>2026-07-13T13:01:13.000Z</time>
</trkpt>
<trkpt lat="56.603313" lon="8.152512">
<ele>-10.058640</ele>
<time>2026-07-13T13:01:14.000Z</time>
</trkpt>
<trkpt lat="56.603352" lon="8.152558">
<ele>-10.065831</ele>
<time>2026-07-13T13:01:15.000Z</time>
</trkpt>
<trkpt lat="56.603390" lon="8.152605">
<ele>-10.072939</ele>
<time>2026-07-13T13:01:16.000Z</time>
</trkpt>
<trkpt lat="56.603432" lon="8.152650">
<ele>-10.080480</ele>
<time>2026-07-13T13:01:17.000Z</time>
</trkpt>
<trkpt lat="56.603478" lon="8.152690">
<ele>-10.088366</ele>
<time>2026-07-13T13:01:18.000Z</time>
</trkpt>
<trkpt lat="56.603519" lon="8.152734">
<ele>-10.095729</ele>
<time>2026-07-13T13:01:19.000Z</time>
</trkpt>
<trkpt lat="56.603561" lon="8.152780">
<ele>-10.103313</ele>
<time>2026-07-13T13:01:20.000Z</time>
</trkpt>
<trkpt lat="56.603603" lon="8.152825">
<ele>-10.110853</ele>
<time>2026-07-13T13:01:21.000Z</time>
</trkpt>
<trkpt lat="56.603649" lon="8.152873">
<ele>-10.122585</ele>
<time>2026-07-13T13:01:22.000Z</time>
</trkpt>
<trkpt lat="56.603695" lon="8.152923">
<ele>-10.136989</ele>
<time>2026-07-13T13:01:23.000Z</time>
</trkpt>
<trkpt lat="56.603737" lon="8.152972">
<ele>-10.150400</ele>
<time>2026-07-13T13:01:24.000Z</time>
</trkpt>
<trkpt lat="56.603783" lon="8.153022">
<ele>-10.164804</ele>
<time>2026-07-13T13:01:25.000Z</time>
</trkpt>
<trkpt lat="56.603828" lon="8.153072">
<ele>-10.178977</ele>
<time>2026-07-13T13:01:26.000Z</time>
</trkpt>
<trkpt lat="56.603874" lon="8.153123">
<ele>-10.193457</ele>
<time>2026-07-13T13:01:27.000Z</time>
</trkpt>
<trkpt lat="56.603920" lon="8.153176">
<ele>-10.208092</ele>
<time>2026-07-13T13:01:28.000Z</time>
</trkpt>
<trkpt lat="56.603966" lon="8.153227">
<ele>-10.222572</ele>
<time>2026-07-13T13:01:29.000Z</time>
</trkpt>
<trkpt lat="56.604008" lon="8.153272">
<ele>-10.235674</ele>
<time>2026-07-13T13:01:30.000Z</time>
</trkpt>
<trkpt lat="56.604054" lon="8.153320">
<ele>-10.249927</ele>
<time>2026-07-13T13:01:31.000Z</time>
</trkpt>
<trkpt lat="56.604099" lon="8.153366">
<ele>-10.263801</ele>
<time>2026-07-13T13:01:32.000Z</time>
</trkpt>
<trkpt lat="56.604141" lon="8.153408">
<ele>-10.276683</ele>
<time>2026-07-13T13:01:33.000Z</time>
</trkpt>
<trkpt lat="56.604187" lon="8.153448">
<ele>-10.290385</ele>
<time>2026-07-13T13:01:34.000Z</time>
</trkpt>
<trkpt lat="56.604229" lon="8.153486">
<ele>-10.302993</ele>
<time>2026-07-13T13:01:35.000Z</time>
</trkpt>
<trkpt lat="56.604275" lon="8.153528">
<ele>-10.316826</ele>
<time>2026-07-13T13:01:36.000Z</time>
</trkpt>
<trkpt lat="56.604317" lon="8.153570">
<ele>-10.329707</ele>
<time>2026-07-13T13:01:37.000Z</time>
</trkpt>
<trkpt lat="56.604362" lon="8.153611">
<ele>-10.343234</ele>
<time>2026-07-13T13:01:38.000Z</time>
</trkpt>
<trkpt lat="56.604408" lon="8.153653">
<ele>-10.357067</ele>
<time>2026-07-13T13:01:39.000Z</time>
</trkpt>
<trkpt lat="56.604454" lon="8.153692">
<ele>-10.370706</ele>
<time>2026-07-13T13:01:40.000Z</time>
</trkpt>
<trkpt lat="56.604504" lon="8.153730">
<ele>-10.385269</ele>
<time>2026-07-13T13:01:41.000Z</time>
</trkpt>
<trkpt lat="56.604546" lon="8.153771">
<ele>-10.398080</ele>
<time>2026-07-13T13:01:42.000Z</time>
</trkpt>
<trkpt lat="56.604588" lon="8.153812">
<ele>-10.410891</ele>
<time>2026-07-13T13:01:43.000Z</time>
</trkpt>
<trkpt lat="56.604633" lon="8.153851">
<ele>-10.424288</ele>
<time>2026-07-13T13:01:44.000Z</time>
</trkpt>
<trkpt lat="56.604679" lon="8.153888">
<ele>-10.437805</ele>
<time>2026-07-13T13:01:45.000Z</time>
</trkpt>
<trkpt lat="56.604725" lon="8.153928">
<ele>-10.451508</ele>
<time>2026-07-13T13:01:46.000Z</time>
</trkpt>
<trkpt lat="56.604771" lon="8.153971">
<ele>-10.465408</ele>
<time>2026-07-13T13:01:47.000Z</time>
</trkpt>
<trkpt lat="56.604820" lon="8.154012">
<ele>-10.479903</ele>
<time>2026-07-13T13:01:48.000Z</time>
</trkpt>
<trkpt lat="56.604870" lon="8.154052">
<ele>-10.494582</ele>
<time>2026-07-13T13:01:49.000Z</time>
</trkpt>
<trkpt lat="56.604919" lon="8.154091">
<ele>-10.508956</ele>
<time>2026-07-13T13:01:50.000Z</time>
</trkpt>
<trkpt lat="56.604961" lon="8.154126">
<ele>-10.521372</ele>
<time>2026-07-13T13:01:51.000Z</time>
</trkpt>
<trkpt lat="56.605015" lon="8.154170">
<ele>-10.537274</ele>
<time>2026-07-13T13:01:52.000Z</time>
</trkpt>
<trkpt lat="56.605064" lon="8.154213">
<ele>-10.551895</ele>
<time>2026-07-13T13:01:53.000Z</time>
</trkpt>
<trkpt lat="56.605114" lon="8.154264">
<ele>-10.567303</ele>
<time>2026-07-13T13:01:54.000Z</time>
</trkpt>
<trkpt lat="56.605164" lon="8.154316">
<ele>-10.582783</ele>
<time>2026-07-13T13:01:55.000Z</time>
</trkpt>
<trkpt lat="56.605209" lon="8.154366">
<ele>-10.596956</ele>
<time>2026-07-13T13:01:56.000Z</time>
</trkpt>
<trkpt lat="56.605251" lon="8.154409">
<ele>-10.609175</ele>
<time>2026-07-13T13:01:57.000Z</time>
</trkpt>
<trkpt lat="56.605297" lon="8.154459">
<ele>-10.622721</ele>
<time>2026-07-13T13:01:58.000Z</time>
</trkpt>
<trkpt lat="56.605339" lon="8.154509">
<ele>-10.635410</ele>
<time>2026-07-13T13:01:59.000Z</time>
</trkpt>
<trkpt lat="56.605381" lon="8.154555">
<ele>-10.647803</ele>
<time>2026-07-13T13:02:00.000Z</time>
</trkpt>
<trkpt lat="56.605427" lon="8.154604">
<ele>-10.661278</ele>
<time>2026-07-13T13:02:01.000Z</time>
</trkpt>
<trkpt lat="56.605469" lon="8.154653">
<ele>-10.673892</ele>
<time>2026-07-13T13:02:02.000Z</time>
</trkpt>
<trkpt lat="56.605511" lon="8.154696">
<ele>-10.686075</ele>
<time>2026-07-13T13:02:03.000Z</time>
</trkpt>
<trkpt lat="56.605553" lon="8.154741">
<ele>-10.698397</ele>
<time>2026-07-13T13:02:04.000Z</time>
</trkpt>
<trkpt lat="56.605595" lon="8.154794">
<ele>-10.711320</ele>
<time>2026-07-13T13:02:05.000Z</time>
</trkpt>
<trkpt lat="56.605637" lon="8.154846">
<ele>-10.724163</ele>
<time>2026-07-13T13:02:06.000Z</time>
</trkpt>
<trkpt lat="56.605675" lon="8.154899">
<ele>-10.736270</ele>
<time>2026-07-13T13:02:07.000Z</time>
</trkpt>
<trkpt lat="56.605724" lon="8.154953">
<ele>-10.750752</ele>
<time>2026-07-13T13:02:08.000Z</time>
</trkpt>
<trkpt lat="56.605770" lon="8.155007">
<ele>-10.764592</ele>
<time>2026-07-13T13:02:09.000Z</time>
</trkpt>
<trkpt lat="56.605816" lon="8.155060">
<ele>-10.778357</ele>
<time>2026-07-13T13:02:10.000Z</time>
</trkpt>
<trkpt lat="56.605862" lon="8.155113">
<ele>-10.792122</ele>
<time>2026-07-13T13:02:11.000Z</time>
</trkpt>
<trkpt lat="56.605904" lon="8.155168">
<ele>-10.805205</ele>
<time>2026-07-13T13:02:12.000Z</time>
</trkpt>
<trkpt lat="56.605953" lon="8.155221">
<ele>-10.819616</ele>
<time>2026-07-13T13:02:13.000Z</time>
</trkpt>
<trkpt lat="56.605999" lon="8.155271">
<ele>-10.833162</ele>
<time>2026-07-13T13:02:14.000Z</time>
</trkpt>
<trkpt lat="56.606049" lon="8.155320">
<ele>-10.847519</ele>
<time>2026-07-13T13:02:15.000Z</time>
</trkpt>
<trkpt lat="56.606094" lon="8.155375">
<ele>-10.861224</ele>
<time>2026-07-13T13:02:16.000Z</time>
</trkpt>
<trkpt lat="56.606140" lon="8.155430">
<ele>-10.875140</ele>
<time>2026-07-13T13:02:17.000Z</time>
</trkpt>
<trkpt lat="56.606190" lon="8.155482">
<ele>-10.889699</ele>
<time>2026-07-13T13:02:18.000Z</time>
</trkpt>
<trkpt lat="56.606228" lon="8.155533">
<ele>-10.901638</ele>
<time>2026-07-13T13:02:19.000Z</time>
</trkpt>
<trkpt lat="56.606274" lon="8.155592">
<ele>-10.915867</ele>
<time>2026-07-13T13:02:20.000Z</time>
</trkpt>
<trkpt lat="56.606319" lon="8.155652">
<ele>-10.929973</ele>
<time>2026-07-13T13:02:21.000Z</time>
</trkpt>
<trkpt lat="56.606365" lon="8.155710">
<ele>-10.944122</ele>
<time>2026-07-13T13:02:22.000Z</time>
</trkpt>
<trkpt lat="56.606411" lon="8.155765">
<ele>-10.958038</ele>
<time>2026-07-13T13:02:23.000Z</time>
</trkpt>
<trkpt lat="56.606457" lon="8.155818">
<ele>-10.971803</ele>
<time>2026-07-13T13:02:24.000Z</time>
</trkpt>
<trkpt lat="56.606495" lon="8.155866">
<ele>-10.983499</ele>
<time>2026-07-13T13:02:25.000Z</time>
</trkpt>
<trkpt lat="56.606537" lon="8.155902">
<ele>-10.995234</ele>
<time>2026-07-13T13:02:26.000Z</time>
</trkpt>
<trkpt lat="56.606579" lon="8.155930">
<ele>-11.006540</ele>
<time>2026-07-13T13:02:27.000Z</time>
</trkpt>
<trkpt lat="56.606621" lon="8.155957">
<ele>-11.017798</ele>
<time>2026-07-13T13:02:28.000Z</time>
</trkpt>
<trkpt lat="56.606659" lon="8.155968">
<ele>-11.027523</ele>
<time>2026-07-13T13:02:29.000Z</time>
</trkpt>
<trkpt lat="56.606697" lon="8.155982">
<ele>-11.037321</ele>
<time>2026-07-13T13:02:30.000Z</time>
</trkpt>
<trkpt lat="56.606735" lon="8.156014">
<ele>-11.047905</ele>
<time>2026-07-13T13:02:31.000Z</time>
</trkpt>
<trkpt lat="56.606773" lon="8.156063">
<ele>-11.050698</ele>
<time>2026-07-13T13:02:32.000Z</time>
</trkpt>
<trkpt lat="56.606808" lon="8.156112">
<ele>-11.048649</ele>
<time>2026-07-13T13:02:33.000Z</time>
</trkpt>
<trkpt lat="56.606850" lon="8.156162">
<ele>-11.046321</ele>
<time>2026-07-13T13:02:34.000Z</time>
</trkpt>
<trkpt lat="56.606892" lon="8.156209">
<ele>-11.044034</ele>
<time>2026-07-13T13:02:35.000Z</time>
</trkpt>
<trkpt lat="56.606934" lon="8.156255">
<ele>-11.041760</ele>
<time>2026-07-13T13:02:36.000Z</time>
</trkpt>
<trkpt lat="56.606976" lon="8.156306">
<ele>-11.039418</ele>
<time>2026-07-13T13:02:37.000Z</time>
</trkpt>
<trkpt lat="56.607018" lon="8.156362">
<ele>-11.037003</ele>
<time>2026-07-13T13:02:38.000Z</time>
</trkpt>
<trkpt lat="56.607067" lon="8.156420">
<ele>-11.034291</ele>
<time>2026-07-13T13:02:39.000Z</time>
</trkpt>
<trkpt lat="56.607117" lon="8.156476">
<ele>-11.031568</ele>
<time>2026-07-13T13:02:40.000Z</time>
</trkpt>
<trkpt lat="56.607166" lon="8.156529">
<ele>-11.028924</ele>
<time>2026-07-13T13:02:41.000Z</time>
</trkpt>
<trkpt lat="56.607216" lon="8.156582">
<ele>-11.026240</ele>
<time>2026-07-13T13:02:42.000Z</time>
</trkpt>
<trkpt lat="56.607262" lon="8.156631">
<ele>-11.023767</ele>
<time>2026-07-13T13:02:43.000Z</time>
</trkpt>
<trkpt lat="56.607311" lon="8.156686">
<ele>-11.021097</ele>
<time>2026-07-13T13:02:44.000Z</time>
</trkpt>
<trkpt lat="56.607361" lon="8.156728">
<ele>-11.018543</ele>
<time>2026-07-13T13:02:45.000Z</time>
</trkpt>
<trkpt lat="56.607407" lon="8.156769">
<ele>-11.016167</ele>
<time>2026-07-13T13:02:46.000Z</time>
</trkpt>
<trkpt lat="56.607460" lon="8.156806">
<ele>-11.013535</ele>
<time>2026-07-13T13:02:47.000Z</time>
</trkpt>
<trkpt lat="56.607513" lon="8.156840">
<ele>-11.010928</ele>
<time>2026-07-13T13:02:48.000Z</time>
</trkpt>
<trkpt lat="56.607563" lon="8.156875">
<ele>-11.008444</ele>
<time>2026-07-13T13:02:49.000Z</time>
</trkpt>
<trkpt lat="56.607609" lon="8.156905">
<ele>-11.006178</ele>
<time>2026-07-13T13:02:50.000Z</time>
</trkpt>
<trkpt lat="56.607662" lon="8.156934">
<ele>-11.003612</ele>
<time>2026-07-13T13:02:51.000Z</time>
</trkpt>
<trkpt lat="56.607712" lon="8.156957">
<ele>-11.001220</ele>
<time>2026-07-13T13:02:52.000Z</time>
</trkpt>
<trkpt lat="56.607765" lon="8.156977">
<ele>-10.998710</ele>
<time>2026-07-13T13:02:53.000Z</time>
</trkpt>
<trkpt lat="56.607819" lon="8.156995">
<ele>-10.996165</ele>
<time>2026-07-13T13:02:54.000Z</time>
</trkpt>
<trkpt lat="56.607868" lon="8.157012">
<ele>-10.993852</ele>
<time>2026-07-13T13:02:55.000Z</time>
</trkpt>
<trkpt lat="56.607922" lon="8.157028">
<ele>-10.991315</ele>
<time>2026-07-13T13:02:56.000Z</time>
</trkpt>
<trkpt lat="56.607979" lon="8.157043">
<ele>-10.988644</ele>
<time>2026-07-13T13:02:57.000Z</time>
</trkpt>
<trkpt lat="56.608040" lon="8.157056">
<ele>-10.985797</ele>
<time>2026-07-13T13:02:58.000Z</time>
</trkpt>
<trkpt lat="56.608097" lon="8.157073">
<ele>-10.983118</ele>
<time>2026-07-13T13:02:59.000Z</time>
</trkpt>
<trkpt lat="56.608139" lon="8.157089">
<ele>-10.981129</ele>
<time>2026-07-13T13:03:00.000Z</time>
</trkpt>
<trkpt lat="56.608192" lon="8.157110">
<ele>-10.978614</ele>
<time>2026-07-13T13:03:01.000Z</time>
</trkpt>
<trkpt lat="56.608250" lon="8.157135">
<ele>-10.975850</ele>
<time>2026-07-13T13:03:02.000Z</time>
</trkpt>
<trkpt lat="56.608303" lon="8.157162">
<ele>-10.973297</ele>
<time>2026-07-13T13:03:03.000Z</time>
</trkpt>
<trkpt lat="56.608356" lon="8.157192">
<ele>-10.970724</ele>
<time>2026-07-13T13:03:04.000Z</time>
</trkpt>
<trkpt lat="56.608402" lon="8.157225">
<ele>-10.968370</ele>
<time>2026-07-13T13:03:05.000Z</time>
</trkpt>
<trkpt lat="56.608452" lon="8.157262">
<ele>-10.965292</ele>
<time>2026-07-13T13:03:06.000Z</time>
</trkpt>
<trkpt lat="56.608498" lon="8.157305">
<ele>-10.962343</ele>
<time>2026-07-13T13:03:07.000Z</time>
</trkpt>
<trkpt lat="56.608543" lon="8.157350">
<ele>-10.959414</ele>
<time>2026-07-13T13:03:08.000Z</time>
</trkpt>
<trkpt lat="56.608589" lon="8.157400">
<ele>-10.956358</ele>
<time>2026-07-13T13:03:09.000Z</time>
</trkpt>
<trkpt lat="56.608631" lon="8.157455">
<ele>-10.953407</ele>
<time>2026-07-13T13:03:10.000Z</time>
</trkpt>
<trkpt lat="56.608673" lon="8.157514">
<ele>-10.950380</ele>
<time>2026-07-13T13:03:11.000Z</time>
</trkpt>
<trkpt lat="56.608715" lon="8.157576">
<ele>-10.947295</ele>
<time>2026-07-13T13:03:12.000Z</time>
</trkpt>
<trkpt lat="56.608753" lon="8.157643">
<ele>-10.944277</ele>
<time>2026-07-13T13:03:13.000Z</time>
</trkpt>
<trkpt lat="56.608791" lon="8.157713">
<ele>-10.941192</ele>
<time>2026-07-13T13:03:14.000Z</time>
</trkpt>
<trkpt lat="56.608826" lon="8.157784">
<ele>-10.938201</ele>
<time>2026-07-13T13:03:15.000Z</time>
</trkpt>
<trkpt lat="56.608864" lon="8.157858">
<ele>-10.935025</ele>
<time>2026-07-13T13:03:16.000Z</time>
</trkpt>
<trkpt lat="56.608894" lon="8.157927">
<ele>-10.932266</ele>
<time>2026-07-13T13:03:17.000Z</time>
</trkpt>
<trkpt lat="56.608932" lon="8.158000">
<ele>-10.929113</ele>
<time>2026-07-13T13:03:18.000Z</time>
</trkpt>
<trkpt lat="56.608967" lon="8.158075">
<ele>-10.926028</ele>
<time>2026-07-13T13:03:19.000Z</time>
</trkpt>
<trkpt lat="56.608997" lon="8.158151">
<ele>-10.923094</ele>
<time>2026-07-13T13:03:20.000Z</time>
</trkpt>
<trkpt lat="56.609032" lon="8.158223">
<ele>-10.920080</ele>
<time>2026-07-13T13:03:21.000Z</time>
</trkpt>
<trkpt lat="56.609062" lon="8.158297">
<ele>-10.917196</ele>
<time>2026-07-13T13:03:22.000Z</time>
</trkpt>
<trkpt lat="56.609096" lon="8.158375">
<ele>-10.914074</ele>
<time>2026-07-13T13:03:23.000Z</time>
</trkpt>
<trkpt lat="56.609127" lon="8.158454">
<ele>-10.911030</ele>
<time>2026-07-13T13:03:24.000Z</time>
</trkpt>
<trkpt lat="56.609158" lon="8.158532">
<ele>-10.908011</ele>
<time>2026-07-13T13:03:25.000Z</time>
</trkpt>
<trkpt lat="56.609188" lon="8.158608">
<ele>-10.905076</ele>
<time>2026-07-13T13:03:26.000Z</time>
</trkpt>
<trkpt lat="56.609219" lon="8.158682">
<ele>-10.902158</ele>
<time>2026-07-13T13:03:27.000Z</time>
</trkpt>
<trkpt lat="56.609249" lon="8.158758">
<ele>-10.899224</ele>
<time>2026-07-13T13:03:28.000Z</time>
</trkpt>
<trkpt lat="56.609283" lon="8.158833">
<ele>-10.896175</ele>
<time>2026-07-13T13:03:29.000Z</time>
</trkpt>
<trkpt lat="56.609314" lon="8.158911">
<ele>-10.893156</ele>
<time>2026-07-13T13:03:30.000Z</time>
</trkpt>
<trkpt lat="56.609348" lon="8.158985">
<ele>-10.890132</ele>
<time>2026-07-13T13:03:31.000Z</time>
</trkpt>
<trkpt lat="56.609379" lon="8.159057">
<ele>-10.887263</ele>
<time>2026-07-13T13:03:32.000Z</time>
</trkpt>
<trkpt lat="56.609409" lon="8.159132">
<ele>-10.884354</ele>
<time>2026-07-13T13:03:33.000Z</time>
</trkpt>
<trkpt lat="56.609444" lon="8.159204">
<ele>-10.881340</ele>
<time>2026-07-13T13:03:34.000Z</time>
</trkpt>
<trkpt lat="56.609474" lon="8.159284">
<ele>-10.878303</ele>
<time>2026-07-13T13:03:35.000Z</time>
</trkpt>
<trkpt lat="56.609509" lon="8.159357">
<ele>-10.875265</ele>
<time>2026-07-13T13:03:36.000Z</time>
</trkpt>
<trkpt lat="56.609543" lon="8.159431">
<ele>-10.872241</ele>
<time>2026-07-13T13:03:37.000Z</time>
</trkpt>
<trkpt lat="56.609573" lon="8.159514">
<ele>-10.869125</ele>
<time>2026-07-13T13:03:38.000Z</time>
</trkpt>
<trkpt lat="56.609604" lon="8.159593">
<ele>-10.865924</ele>
<time>2026-07-13T13:03:39.000Z</time>
</trkpt>
<trkpt lat="56.609634" lon="8.159678">
<ele>-10.855745</ele>
<time>2026-07-13T13:03:40.000Z</time>
</trkpt>
<trkpt lat="56.609665" lon="8.159766">
<ele>-10.845212</ele>
<time>2026-07-13T13:03:41.000Z</time>
</trkpt>
<trkpt lat="56.609692" lon="8.159854">
<ele>-10.835056</ele>
<time>2026-07-13T13:03:42.000Z</time>
</trkpt>
<trkpt lat="56.609711" lon="8.159941">
<ele>-10.825621</ele>
<time>2026-07-13T13:03:43.000Z</time>
</trkpt>
<trkpt lat="56.609737" lon="8.160029">
<ele>-10.815553</ele>
<time>2026-07-13T13:03:44.000Z</time>
</trkpt>
<trkpt lat="56.609764" lon="8.160117">
<ele>-10.805396</ele>
<time>2026-07-13T13:03:45.000Z</time>
</trkpt>
<trkpt lat="56.609791" lon="8.160200">
<ele>-10.795677</ele>
<time>2026-07-13T13:03:46.000Z</time>
</trkpt>
<trkpt lat="56.609825" lon="8.160282">
<ele>-10.785328</ele>
<time>2026-07-13T13:03:47.000Z</time>
</trkpt>
<trkpt lat="56.609859" lon="8.160360">
<ele>-10.775298</ele>
<time>2026-07-13T13:03:48.000Z</time>
</trkpt>
<trkpt lat="56.609894" lon="8.160434">
<ele>-10.765462</ele>
<time>2026-07-13T13:03:49.000Z</time>
</trkpt>
<trkpt lat="56.609936" lon="8.160502">
<ele>-10.755158</ele>
<time>2026-07-13T13:03:50.000Z</time>
</trkpt>
<trkpt lat="56.609978" lon="8.160564">
<ele>-10.745246</ele>
<time>2026-07-13T13:03:51.000Z</time>
</trkpt>
<trkpt lat="56.610020" lon="8.160622">
<ele>-10.735584</ele>
<time>2026-07-13T13:03:52.000Z</time>
</trkpt>
<trkpt lat="56.610065" lon="8.160672">
<ele>-10.725922</ele>
<time>2026-07-13T13:03:53.000Z</time>
</trkpt>
<trkpt lat="56.610111" lon="8.160720">
<ele>-10.716206</ele>
<time>2026-07-13T13:03:54.000Z</time>
</trkpt>
<trkpt lat="56.610157" lon="8.160769">
<ele>-10.706439</ele>
<time>2026-07-13T13:03:55.000Z</time>
</trkpt>
<trkpt lat="56.610203" lon="8.160814">
<ele>-10.696870</ele>
<time>2026-07-13T13:03:56.000Z</time>
</trkpt>
<trkpt lat="56.610249" lon="8.160856">
<ele>-10.687441</ele>
<time>2026-07-13T13:03:57.000Z</time>
</trkpt>
<trkpt lat="56.610302" lon="8.160898">
<ele>-10.676850</ele>
<time>2026-07-13T13:03:58.000Z</time>
</trkpt>
<trkpt lat="56.610348" lon="8.160941">
<ele>-10.667375</ele>
<time>2026-07-13T13:03:59.000Z</time>
</trkpt>
<trkpt lat="56.610394" lon="8.160983">
<ele>-10.657945</ele>
<time>2026-07-13T13:04:00.000Z</time>
</trkpt>
<trkpt lat="56.610443" lon="8.161021">
<ele>-10.648187</ele>
<time>2026-07-13T13:04:01.000Z</time>
</trkpt>
<trkpt lat="56.610493" lon="8.161062">
<ele>-10.638139</ele>
<time>2026-07-13T13:04:02.000Z</time>
</trkpt>
<trkpt lat="56.610539" lon="8.161102">
<ele>-10.628798</ele>
<time>2026-07-13T13:04:03.000Z</time>
</trkpt>
<trkpt lat="56.610588" lon="8.161140">
<ele>-10.619040</ele>
<time>2026-07-13T13:04:04.000Z</time>
</trkpt>
<trkpt lat="56.610634" lon="8.161174">
<ele>-10.609944</ele>
<time>2026-07-13T13:04:05.000Z</time>
</trkpt>
<trkpt lat="56.610683" lon="8.161207">
<ele>-10.600372</ele>
<time>2026-07-13T13:04:06.000Z</time>
</trkpt>
<trkpt lat="56.610733" lon="8.161239">
<ele>-10.590662</ele>
<time>2026-07-13T13:04:07.000Z</time>
</trkpt>
<trkpt lat="56.610783" lon="8.161268">
<ele>-10.581048</ele>
<time>2026-07-13T13:04:08.000Z</time>
</trkpt>
<trkpt lat="56.610832" lon="8.161293">
<ele>-10.571726</ele>
<time>2026-07-13T13:04:09.000Z</time>
</trkpt>
<trkpt lat="56.610882" lon="8.161316">
<ele>-10.562279</ele>
<time>2026-07-13T13:04:10.000Z</time>
</trkpt>
<trkpt lat="56.610931" lon="8.161343">
<ele>-10.552900</ele>
<time>2026-07-13T13:04:11.000Z</time>
</trkpt>
<trkpt lat="56.610989" lon="8.161366">
<ele>-10.542026</ele>
<time>2026-07-13T13:04:12.000Z</time>
</trkpt>
<trkpt lat="56.611042" lon="8.161389">
<ele>-10.537130</ele>
<time>2026-07-13T13:04:13.000Z</time>
</trkpt>
<trkpt lat="56.611092" lon="8.161407">
<ele>-10.537996</ele>
<time>2026-07-13T13:04:14.000Z</time>
</trkpt>
<trkpt lat="56.611145" lon="8.161425">
<ele>-10.538912</ele>
<time>2026-07-13T13:04:15.000Z</time>
</trkpt>
<trkpt lat="56.611198" lon="8.161442">
<ele>-10.539826</ele>
<time>2026-07-13T13:04:16.000Z</time>
</trkpt>
<trkpt lat="56.611256" lon="8.161463">
<ele>-10.540831</ele>
<time>2026-07-13T13:04:17.000Z</time>
</trkpt>
<trkpt lat="56.611305" lon="8.161485">
<ele>-10.541688</ele>
<time>2026-07-13T13:04:18.000Z</time>
</trkpt>
<trkpt lat="56.611359" lon="8.161506">
<ele>-10.542626</ele>
<time>2026-07-13T13:04:19.000Z</time>
</trkpt>
<trkpt lat="56.611412" lon="8.161532">
<ele>-10.543558</ele>
<time>2026-07-13T13:04:20.000Z</time>
</trkpt>
<trkpt lat="56.611462" lon="8.161560">
<ele>-10.544447</ele>
<time>2026-07-13T13:04:21.000Z</time>
</trkpt>
<trkpt lat="56.611515" lon="8.161589">
<ele>-10.545387</ele>
<time>2026-07-13T13:04:22.000Z</time>
</trkpt>
<trkpt lat="56.611561" lon="8.161617">
<ele>-10.546211</ele>
<time>2026-07-13T13:04:23.000Z</time>
</trkpt>
<trkpt lat="56.611607" lon="8.161651">
<ele>-10.547054</ele>
<time>2026-07-13T13:04:24.000Z</time>
</trkpt>
<trkpt lat="56.611660" lon="8.161685">
<ele>-10.548009</ele>
<time>2026-07-13T13:04:25.000Z</time>
</trkpt>
<trkpt lat="56.611706" lon="8.161719">
<ele>-10.548852</ele>
<time>2026-07-13T13:04:26.000Z</time>
</trkpt>
<trkpt lat="56.611752" lon="8.161757">
<ele>-10.549710</ele>
<time>2026-07-13T13:04:27.000Z</time>
</trkpt>
<trkpt lat="56.611794" lon="8.161797">
<ele>-10.550516</ele>
<time>2026-07-13T13:04:28.000Z</time>
</trkpt>
<trkpt lat="56.611839" lon="8.161843">
<ele>-10.551393</ele>
<time>2026-07-13T13:04:29.000Z</time>
</trkpt>
<trkpt lat="56.611889" lon="8.161897">
<ele>-10.552381</ele>
<time>2026-07-13T13:04:30.000Z</time>
</trkpt>
<trkpt lat="56.611931" lon="8.161951">
<ele>-10.553255</ele>
<time>2026-07-13T13:04:31.000Z</time>
</trkpt>
<trkpt lat="56.611969" lon="8.162007">
<ele>-10.554085</ele>
<time>2026-07-13T13:04:32.000Z</time>
</trkpt>
<trkpt lat="56.612007" lon="8.162068">
<ele>-10.554947</ele>
<time>2026-07-13T13:04:33.000Z</time>
</trkpt>
<trkpt lat="56.612041" lon="8.162128">
<ele>-10.555752</ele>
<time>2026-07-13T13:04:34.000Z</time>
</trkpt>
<trkpt lat="56.612076" lon="8.162190">
<ele>-10.556582</ele>
<time>2026-07-13T13:04:35.000Z</time>
</trkpt>
<trkpt lat="56.612110" lon="8.162251">
<ele>-10.557393</ele>
<time>2026-07-13T13:04:36.000Z</time>
</trkpt>
<trkpt lat="56.612144" lon="8.162314">
<ele>-10.558218</ele>
<time>2026-07-13T13:04:37.000Z</time>
</trkpt>
<trkpt lat="56.612175" lon="8.162384">
<ele>-10.559058</ele>
<time>2026-07-13T13:04:38.000Z</time>
</trkpt>
<trkpt lat="56.612206" lon="8.162455">
<ele>-10.559905</ele>
<time>2026-07-13T13:04:39.000Z</time>
</trkpt>
<trkpt lat="56.612232" lon="8.162530">
<ele>-10.560733</ele>
<time>2026-07-13T13:04:40.000Z</time>
</trkpt>
<trkpt lat="56.612259" lon="8.162605">
<ele>-10.561571</ele>
<time>2026-07-13T13:04:41.000Z</time>
</trkpt>
<trkpt lat="56.612286" lon="8.162684">
<ele>-10.562440</ele>
<time>2026-07-13T13:04:42.000Z</time>
</trkpt>
<trkpt lat="56.612312" lon="8.162765">
<ele>-10.563317</ele>
<time>2026-07-13T13:04:43.000Z</time>
</trkpt>
<trkpt lat="56.612335" lon="8.162843">
<ele>-10.564144</ele>
<time>2026-07-13T13:04:44.000Z</time>
</trkpt>
<trkpt lat="56.612362" lon="8.162918">
<ele>-10.564982</ele>
<time>2026-07-13T13:04:45.000Z</time>
</trkpt>
<trkpt lat="56.612389" lon="8.162996">
<ele>-10.565843</ele>
<time>2026-07-13T13:04:46.000Z</time>
</trkpt>
<trkpt lat="56.612419" lon="8.163072">
<ele>-10.566717</ele>
<time>2026-07-13T13:04:47.000Z</time>
</trkpt>
<trkpt lat="56.612446" lon="8.163147">
<ele>-10.561898</ele>
<time>2026-07-13T13:04:48.000Z</time>
</trkpt>
<trkpt lat="56.612473" lon="8.163222">
<ele>-10.547289</ele>
<time>2026-07-13T13:04:49.000Z</time>
</trkpt>
<trkpt lat="56.612499" lon="8.163294">
<ele>-10.533251</ele>
<time>2026-07-13T13:04:50.000Z</time>
</trkpt>
<trkpt lat="56.612526" lon="8.163368">
<ele>-10.518779</ele>
<time>2026-07-13T13:04:51.000Z</time>
</trkpt>
<trkpt lat="56.612556" lon="8.163440">
<ele>-10.504058</ele>
<time>2026-07-13T13:04:52.000Z</time>
</trkpt>
<trkpt lat="56.612587" lon="8.163506">
<ele>-10.489914</ele>
<time>2026-07-13T13:04:53.000Z</time>
</trkpt>
<trkpt lat="56.612617" lon="8.163564">
<ele>-10.476939</ele>
<time>2026-07-13T13:04:54.000Z</time>
</trkpt>
<trkpt lat="56.612652" lon="8.163627">
<ele>-10.462347</ele>
<time>2026-07-13T13:04:55.000Z</time>
</trkpt>
<trkpt lat="56.612690" lon="8.163682">
<ele>-10.447957</ele>
<time>2026-07-13T13:04:56.000Z</time>
</trkpt>
<trkpt lat="56.612732" lon="8.163740">
<ele>-10.432332</ele>
<time>2026-07-13T13:04:57.000Z</time>
</trkpt>
<trkpt lat="56.612774" lon="8.163796">
<ele>-10.416901</ele>
<time>2026-07-13T13:04:58.000Z</time>
</trkpt>
<trkpt lat="56.612812" lon="8.163852">
<ele>-10.402409</ele>
<time>2026-07-13T13:04:59.000Z</time>
</trkpt>
<trkpt lat="56.612854" lon="8.163905">
<ele>-10.387263</ele>
<time>2026-07-13T13:05:00.000Z</time>
</trkpt>
<trkpt lat="56.612892" lon="8.163954">
<ele>-10.373462</ele>
<time>2026-07-13T13:05:01.000Z</time>
</trkpt>
<trkpt lat="56.612934" lon="8.164005">
<ele>-10.358499</ele>
<time>2026-07-13T13:05:02.000Z</time>
</trkpt>
<trkpt lat="56.612976" lon="8.164055">
<ele>-10.343626</ele>
<time>2026-07-13T13:05:03.000Z</time>
</trkpt>
<trkpt lat="56.613018" lon="8.164103">
<ele>-10.328930</ele>
<time>2026-07-13T13:05:04.000Z</time>
</trkpt>
<trkpt lat="56.613060" lon="8.164152">
<ele>-10.314146</ele>
<time>2026-07-13T13:05:05.000Z</time>
</trkpt>
<trkpt lat="56.613102" lon="8.164199">
<ele>-10.299536</ele>
<time>2026-07-13T13:05:06.000Z</time>
</trkpt>
<trkpt lat="56.613144" lon="8.164248">
<ele>-10.284752</ele>
<time>2026-07-13T13:05:07.000Z</time>
</trkpt>
<trkpt lat="56.613182" lon="8.164298">
<ele>-10.270855</ele>
<time>2026-07-13T13:05:08.000Z</time>
</trkpt>
<trkpt lat="56.613224" lon="8.164346">
<ele>-10.256159</ele>
<time>2026-07-13T13:05:09.000Z</time>
</trkpt>
<trkpt lat="56.613270" lon="8.164393">
<ele>-10.240527</ele>
<time>2026-07-13T13:05:10.000Z</time>
</trkpt>
<trkpt lat="56.613312" lon="8.164441">
<ele>-10.225831</ele>
<time>2026-07-13T13:05:11.000Z</time>
</trkpt>
<trkpt lat="56.613354" lon="8.164493">
<ele>-10.210777</ele>
<time>2026-07-13T13:05:12.000Z</time>
</trkpt>
<trkpt lat="56.613400" lon="8.164544">
<ele>-10.194816</ele>
<time>2026-07-13T13:05:13.000Z</time>
</trkpt>
<trkpt lat="56.613445" lon="8.164593">
<ele>-10.179277</ele>
<time>2026-07-13T13:05:14.000Z</time>
</trkpt>
<trkpt lat="56.613487" lon="8.164646">
<ele>-10.164131</ele>
<time>2026-07-13T13:05:15.000Z</time>
</trkpt>
<trkpt lat="56.613533" lon="8.164700">
<ele>-10.147910</ele>
<time>2026-07-13T13:05:16.000Z</time>
</trkpt>
<trkpt lat="56.613579" lon="8.164749">
<ele>-10.132116</ele>
<time>2026-07-13T13:05:17.000Z</time>
</trkpt>
<trkpt lat="56.613617" lon="8.164798">
<ele>-10.118314</ele>
<time>2026-07-13T13:05:18.000Z</time>
</trkpt>
<trkpt lat="56.613655" lon="8.164841">
<ele>-10.105054</ele>
<time>2026-07-13T13:05:19.000Z</time>
</trkpt>
<trkpt lat="56.613697" lon="8.164891">
<ele>-10.090182</ele>
<time>2026-07-13T13:05:20.000Z</time>
</trkpt>
<trkpt lat="56.613739" lon="8.164946">
<ele>-10.074848</ele>
<time>2026-07-13T13:05:21.000Z</time>
</trkpt>
<trkpt lat="56.613781" lon="8.164998">
<ele>-10.059794</ele>
<time>2026-07-13T13:05:22.000Z</time>
</trkpt>
<trkpt lat="56.613819" lon="8.165050">
<ele>-10.045704</ele>
<time>2026-07-13T13:05:23.000Z</time>
</trkpt>
<trkpt lat="56.613861" lon="8.165098">
<ele>-10.031810</ele>
<time>2026-07-13T13:05:24.000Z</time>
</trkpt>
<trkpt lat="56.613903" lon="8.165149">
<ele>-10.020310</ele>
<time>2026-07-13T13:05:25.000Z</time>
</trkpt>
<trkpt lat="56.613945" lon="8.165203">
<ele>-10.008598</ele>
<time>2026-07-13T13:05:26.000Z</time>
</trkpt>
<trkpt lat="56.613983" lon="8.165258">
<ele>-9.997538</ele>
<time>2026-07-13T13:05:27.000Z</time>
</trkpt>
<trkpt lat="56.614018" lon="8.165310">
<ele>-9.987246</ele>
<time>2026-07-13T13:05:28.000Z</time>
</trkpt>
<trkpt lat="56.614052" lon="8.165363">
<ele>-9.977048</ele>
<time>2026-07-13T13:05:29.000Z</time>
</trkpt>
<trkpt lat="56.614090" lon="8.165418">
<ele>-9.965988</ele>
<time>2026-07-13T13:05:30.000Z</time>
</trkpt>
<trkpt lat="56.614124" lon="8.165475">
<ele>-9.955457</ele>
<time>2026-07-13T13:05:31.000Z</time>
</trkpt>
<trkpt lat="56.614162" lon="8.165532">
<ele>-9.944240</ele>
<time>2026-07-13T13:05:32.000Z</time>
</trkpt>
<trkpt lat="56.614197" lon="8.165589">
<ele>-9.933540</ele>
<time>2026-07-13T13:05:33.000Z</time>
</trkpt>
<trkpt lat="56.614231" lon="8.165649">
<ele>-9.922751</ele>
<time>2026-07-13T13:05:34.000Z</time>
</trkpt>
<trkpt lat="56.614269" lon="8.165716">
<ele>-9.910697</ele>
<time>2026-07-13T13:05:35.000Z</time>
</trkpt>
<trkpt lat="56.614300" lon="8.165781">
<ele>-9.899922</ele>
<time>2026-07-13T13:05:36.000Z</time>
</trkpt>
<trkpt lat="56.614330" lon="8.165851">
<ele>-9.888807</ele>
<time>2026-07-13T13:05:37.000Z</time>
</trkpt>
<trkpt lat="56.614361" lon="8.165917">
<ele>-9.877936</ele>
<time>2026-07-13T13:05:38.000Z</time>
</trkpt>
<trkpt lat="56.614391" lon="8.165985">
<ele>-9.867018</ele>
<time>2026-07-13T13:05:39.000Z</time>
</trkpt>
<trkpt lat="56.614418" lon="8.166054">
<ele>-9.856411</ele>
<time>2026-07-13T13:05:40.000Z</time>
</trkpt>
<trkpt lat="56.614449" lon="8.166120">
<ele>-9.845541</ele>
<time>2026-07-13T13:05:41.000Z</time>
</trkpt>
<trkpt lat="56.614479" lon="8.166185">
<ele>-9.834913</ele>
<time>2026-07-13T13:05:42.000Z</time>
</trkpt>
<trkpt lat="56.614506" lon="8.166246">
<ele>-9.825106</ele>
<time>2026-07-13T13:05:43.000Z</time>
</trkpt>
<trkpt lat="56.614532" lon="8.166310">
<ele>-9.815140</ele>
<time>2026-07-13T13:05:44.000Z</time>
</trkpt>
<trkpt lat="56.614559" lon="8.166369">
<ele>-9.805527</ele>
<time>2026-07-13T13:05:45.000Z</time>
</trkpt>
<trkpt lat="56.614578" lon="8.166416">
<ele>-9.798221</ele>
<time>2026-07-13T13:05:46.000Z</time>
</trkpt>
<trkpt lat="56.614601" lon="8.166473">
<ele>-9.789366</ele>
<time>2026-07-13T13:05:47.000Z</time>
</trkpt>
<trkpt lat="56.614632" lon="8.166536">
<ele>-9.778779</ele>
<time>2026-07-13T13:05:48.000Z</time>
</trkpt>
<trkpt lat="56.614658" lon="8.166585">
<ele>-9.770251</ele>
<time>2026-07-13T13:05:49.000Z</time>
</trkpt>
<trkpt lat="56.614689" lon="8.166621">
<ele>-9.761876</ele>
<time>2026-07-13T13:05:50.000Z</time>
</trkpt>
<trkpt lat="56.614723" lon="8.166638">
<ele>-9.753848</ele>
<time>2026-07-13T13:05:51.000Z</time>
</trkpt>
<trkpt lat="56.614754" lon="8.166636">
<ele>-9.746786</ele>
<time>2026-07-13T13:05:52.000Z</time>
</trkpt>
<trkpt lat="56.614780" lon="8.166624">
<ele>-9.740679</ele>
<time>2026-07-13T13:05:53.000Z</time>
</trkpt>
<trkpt lat="56.614803" lon="8.166610">
<ele>-9.735157</ele>
<time>2026-07-13T13:05:54.000Z</time>
</trkpt>
<trkpt lat="56.614826" lon="8.166588">
<ele>-9.729240</ele>
<time>2026-07-13T13:05:55.000Z</time>
</trkpt>
<trkpt lat="56.614841" lon="8.166553">
<ele>-9.723682</ele>
<time>2026-07-13T13:05:56.000Z</time>
</trkpt>
<trkpt lat="56.614853" lon="8.166499">
<ele>-9.716387</ele>
<time>2026-07-13T13:05:57.000Z</time>
</trkpt>
<trkpt lat="56.614864" lon="8.166442">
<ele>-9.708820</ele>
<time>2026-07-13T13:05:58.000Z</time>
</trkpt>
<trkpt lat="56.614872" lon="8.166375">
<ele>-9.700231</ele>
<time>2026-07-13T13:05:59.000Z</time>
</trkpt>
<trkpt lat="56.614880" lon="8.166309">
<ele>-9.691765</ele>
<time>2026-07-13T13:06:00.000Z</time>
</trkpt>
<trkpt lat="56.614883" lon="8.166232">
<ele>-9.682095</ele>
<time>2026-07-13T13:06:01.000Z</time>
</trkpt>
<trkpt lat="56.614887" lon="8.166154">
<ele>-9.672281</ele>
<time>2026-07-13T13:06:02.000Z</time>
</trkpt>
<trkpt lat="56.614895" lon="8.166069">
<ele>-9.661479</ele>
<time>2026-07-13T13:06:03.000Z</time>
</trkpt>
<trkpt lat="56.614902" lon="8.165985">
<ele>-9.650836</ele>
<time>2026-07-13T13:06:04.000Z</time>
</trkpt>
<trkpt lat="56.614906" lon="8.165898">
<ele>-9.639899</ele>
<time>2026-07-13T13:06:05.000Z</time>
</trkpt>
<trkpt lat="56.614914" lon="8.165807">
<ele>-9.628355</ele>
<time>2026-07-13T13:06:06.000Z</time>
</trkpt>
<trkpt lat="56.614918" lon="8.165719">
<ele>-9.632973</ele>
<time>2026-07-13T13:06:07.000Z</time>
</trkpt>
<trkpt lat="56.614922" lon="8.165627">
<ele>-9.644936</ele>
<time>2026-07-13T13:06:08.000Z</time>
</trkpt>
<trkpt lat="56.614929" lon="8.165538">
<ele>-9.656590</ele>
<time>2026-07-13T13:06:09.000Z</time>
</trkpt>
<trkpt lat="56.614933" lon="8.165449">
<ele>-9.668165</ele>
<time>2026-07-13T13:06:10.000Z</time>
</trkpt>
<trkpt lat="56.614937" lon="8.165360">
<ele>-9.679741</ele>
<time>2026-07-13T13:06:11.000Z</time>
</trkpt>
<trkpt lat="56.614941" lon="8.165272">
<ele>-9.691187</ele>
<time>2026-07-13T13:06:12.000Z</time>
</trkpt>
<trkpt lat="56.614948" lon="8.165186">
<ele>-9.702456</ele>
<time>2026-07-13T13:06:13.000Z</time>
</trkpt>
<trkpt lat="56.614960" lon="8.165097">
<ele>-9.714334</ele>
<time>2026-07-13T13:06:14.000Z</time>
</trkpt>
<trkpt lat="56.614967" lon="8.165007">
<ele>-9.726116</ele>
<time>2026-07-13T13:06:15.000Z</time>
</trkpt>
<trkpt lat="56.614975" lon="8.164910">
<ele>-9.738830</ele>
<time>2026-07-13T13:06:16.000Z</time>
</trkpt>
<trkpt lat="56.614986" lon="8.164809">
<ele>-9.752177</ele>
<time>2026-07-13T13:06:17.000Z</time>
</trkpt>
<trkpt lat="56.614998" lon="8.164715">
<ele>-9.764685</ele>
<time>2026-07-13T13:06:18.000Z</time>
</trkpt>
<trkpt lat="56.615005" lon="8.164622">
<ele>-9.776853</ele>
<time>2026-07-13T13:06:19.000Z</time>
</trkpt>
<trkpt lat="56.615017" lon="8.164528">
<ele>-9.789361</ele>
<time>2026-07-13T13:06:20.000Z</time>
</trkpt>
<trkpt lat="56.615021" lon="8.164432">
<ele>-9.801841</ele>
<time>2026-07-13T13:06:21.000Z</time>
</trkpt>
<trkpt lat="56.615028" lon="8.164330">
<ele>-9.815165</ele>
<time>2026-07-13T13:06:22.000Z</time>
</trkpt>
<trkpt lat="56.615036" lon="8.164228">
<ele>-9.828521</ele>
<time>2026-07-13T13:06:23.000Z</time>
</trkpt>
<trkpt lat="56.615047" lon="8.164121">
<ele>-9.842631</ele>
<time>2026-07-13T13:06:24.000Z</time>
</trkpt>
<trkpt lat="56.615055" lon="8.164018">
<ele>-9.856115</ele>
<time>2026-07-13T13:06:25.000Z</time>
</trkpt>
<trkpt lat="56.615063" lon="8.163914">
<ele>-9.869727</ele>
<time>2026-07-13T13:06:26.000Z</time>
</trkpt>
<trkpt lat="56.615070" lon="8.163810">
<ele>-9.883309</ele>
<time>2026-07-13T13:06:27.000Z</time>
</trkpt>
<trkpt lat="56.615078" lon="8.163706">
<ele>-9.896921</ele>
<time>2026-07-13T13:06:28.000Z</time>
</trkpt>
<trkpt lat="56.615086" lon="8.163598">
<ele>-9.911047</ele>
<time>2026-07-13T13:06:29.000Z</time>
</trkpt>
<trkpt lat="56.615093" lon="8.163491">
<ele>-9.925014</ele>
<time>2026-07-13T13:06:30.000Z</time>
</trkpt>
<trkpt lat="56.615105" lon="8.163383">
<ele>-9.939296</ele>
<time>2026-07-13T13:06:31.000Z</time>
</trkpt>
<trkpt lat="56.615116" lon="8.163274">
<ele>-9.953661</ele>
<time>2026-07-13T13:06:32.000Z</time>
</trkpt>
<trkpt lat="56.615128" lon="8.163166">
<ele>-9.967944</ele>
<time>2026-07-13T13:06:33.000Z</time>
</trkpt>
<trkpt lat="56.615143" lon="8.163054">
<ele>-9.982885</ele>
<time>2026-07-13T13:06:34.000Z</time>
</trkpt>
<trkpt lat="56.615158" lon="8.162943">
<ele>-9.997702</ele>
<time>2026-07-13T13:06:35.000Z</time>
</trkpt>
<trkpt lat="56.615173" lon="8.162836">
<ele>-10.012015</ele>
<time>2026-07-13T13:06:36.000Z</time>
</trkpt>
<trkpt lat="56.615192" lon="8.162730">
<ele>-10.026465</ele>
<time>2026-07-13T13:06:37.000Z</time>
</trkpt>
<trkpt lat="56.615215" lon="8.162619">
<ele>-10.041840</ele>
<time>2026-07-13T13:06:38.000Z</time>
</trkpt>
<trkpt lat="56.615238" lon="8.162508">
<ele>-10.048354</ele>
<time>2026-07-13T13:06:39.000Z</time>
</trkpt>
<trkpt lat="56.615269" lon="8.162406">
<ele>-10.047723</ele>
<time>2026-07-13T13:06:40.000Z</time>
</trkpt>
<trkpt lat="56.615299" lon="8.162316">
<ele>-10.047153</ele>
<time>2026-07-13T13:06:41.000Z</time>
</trkpt>
<trkpt lat="56.615330" lon="8.162226">
<ele>-10.046578</ele>
<time>2026-07-13T13:06:42.000Z</time>
</trkpt>
<trkpt lat="56.615364" lon="8.162136">
<ele>-10.045987</ele>
<time>2026-07-13T13:06:43.000Z</time>
</trkpt>
<trkpt lat="56.615402" lon="8.162047">
<ele>-10.045376</ele>
<time>2026-07-13T13:06:44.000Z</time>
</trkpt>
<trkpt lat="56.615440" lon="8.161959">
<ele>-10.044770</ele>
<time>2026-07-13T13:06:45.000Z</time>
</trkpt>
<trkpt lat="56.615482" lon="8.161874">
<ele>-10.044152</ele>
<time>2026-07-13T13:06:46.000Z</time>
</trkpt>
<trkpt lat="56.615532" lon="8.161793">
<ele>-10.043492</ele>
<time>2026-07-13T13:06:47.000Z</time>
</trkpt>
<trkpt lat="56.615581" lon="8.161716">
<ele>-10.042855</ele>
<time>2026-07-13T13:06:48.000Z</time>
</trkpt>
<trkpt lat="56.615627" lon="8.161646">
<ele>-10.042264</ele>
<time>2026-07-13T13:06:49.000Z</time>
</trkpt>
<trkpt lat="56.615677" lon="8.161573">
<ele>-10.041633</ele>
<time>2026-07-13T13:06:50.000Z</time>
</trkpt>
<trkpt lat="56.615730" lon="8.161507">
<ele>-10.041000</ele>
<time>2026-07-13T13:06:51.000Z</time>
</trkpt>
<trkpt lat="56.615776" lon="8.161448">
<ele>-10.040446</ele>
<time>2026-07-13T13:06:52.000Z</time>
</trkpt>
<trkpt lat="56.615830" lon="8.161393">
<ele>-10.039837</ele>
<time>2026-07-13T13:06:53.000Z</time>
</trkpt>
<trkpt lat="56.615879" lon="8.161345">
<ele>-10.039289</ele>
<time>2026-07-13T13:06:54.000Z</time>
</trkpt>
<trkpt lat="56.615932" lon="8.161296">
<ele>-10.038703</ele>
<time>2026-07-13T13:06:55.000Z</time>
</trkpt>
<trkpt lat="56.615990" lon="8.161248">
<ele>-10.038076</ele>
<time>2026-07-13T13:06:56.000Z</time>
</trkpt>
<trkpt lat="56.616043" lon="8.161203">
<ele>-10.037500</ele>
<time>2026-07-13T13:06:57.000Z</time>
</trkpt>
<trkpt lat="56.616096" lon="8.161160">
<ele>-10.036929</ele>
<time>2026-07-13T13:06:58.000Z</time>
</trkpt>
<trkpt lat="56.616142" lon="8.161121">
<ele>-10.036429</ele>
<time>2026-07-13T13:06:59.000Z</time>
</trkpt>
<trkpt lat="56.616196" lon="8.161080">
<ele>-10.035853</ele>
<time>2026-07-13T13:07:00.000Z</time>
</trkpt>
<trkpt lat="56.616245" lon="8.161042">
<ele>-10.035328</ele>
<time>2026-07-13T13:07:01.000Z</time>
</trkpt>
<trkpt lat="56.616295" lon="8.161008">
<ele>-10.034803</ele>
<time>2026-07-13T13:07:02.000Z</time>
</trkpt>
<trkpt lat="56.616344" lon="8.160971">
<ele>-10.034281</ele>
<time>2026-07-13T13:07:03.000Z</time>
</trkpt>
<trkpt lat="56.616390" lon="8.160936">
<ele>-10.033790</ele>
<time>2026-07-13T13:07:04.000Z</time>
</trkpt>
<trkpt lat="56.616444" lon="8.160894">
<ele>-10.033212</ele>
<time>2026-07-13T13:07:05.000Z</time>
</trkpt>
<trkpt lat="56.616497" lon="8.160848">
<ele>-10.032633</ele>
<time>2026-07-13T13:07:06.000Z</time>
</trkpt>
<trkpt lat="56.616550" lon="8.160806">
<ele>-10.032064</ele>
<time>2026-07-13T13:07:07.000Z</time>
</trkpt>
<trkpt lat="56.616600" lon="8.160767">
<ele>-10.031529</ele>
<time>2026-07-13T13:07:08.000Z</time>
</trkpt>
<trkpt lat="56.616646" lon="8.160732">
<ele>-10.031038</ele>
<time>2026-07-13T13:07:09.000Z</time>
</trkpt>
<trkpt lat="56.616695" lon="8.160697">
<ele>-10.013884</ele>
<time>2026-07-13T13:07:10.000Z</time>
</trkpt>
<trkpt lat="56.616745" lon="8.160664">
<ele>-9.995380</ele>
<time>2026-07-13T13:07:11.000Z</time>
</trkpt>
<trkpt lat="56.616791" lon="8.160630">
<ele>-9.978106</ele>
<time>2026-07-13T13:07:12.000Z</time>
</trkpt>
<trkpt lat="56.616837" lon="8.160595">
<ele>-9.960759</ele>
<time>2026-07-13T13:07:13.000Z</time>
</trkpt>
<trkpt lat="56.616875" lon="8.160559">
<ele>-9.945853</ele>
<time>2026-07-13T13:07:14.000Z</time>
</trkpt>
<trkpt lat="56.616924" lon="8.160519">
<ele>-9.927168</ele>
<time>2026-07-13T13:07:15.000Z</time>
</trkpt>
<trkpt lat="56.616970" lon="8.160481">
<ele>-9.909591</ele>
<time>2026-07-13T13:07:16.000Z</time>
</trkpt>
<trkpt lat="56.617016" lon="8.160446">
<ele>-9.892245</ele>
<time>2026-07-13T13:07:17.000Z</time>
</trkpt>
<trkpt lat="56.617062" lon="8.160409">
<ele>-9.874746</ele>
<time>2026-07-13T13:07:18.000Z</time>
</trkpt>
<trkpt lat="56.617107" lon="8.160377">
<ele>-9.857938</ele>
<time>2026-07-13T13:07:19.000Z</time>
</trkpt>
<trkpt lat="56.617157" lon="8.160339">
<ele>-9.839086</ele>
<time>2026-07-13T13:07:20.000Z</time>
</trkpt>
<trkpt lat="56.617210" lon="8.160301">
<ele>-9.819267</ele>
<time>2026-07-13T13:07:21.000Z</time>
</trkpt>
<trkpt lat="56.617260" lon="8.160263">
<ele>-9.800415</ele>
<time>2026-07-13T13:07:22.000Z</time>
</trkpt>
<trkpt lat="56.617310" lon="8.160224">
<ele>-9.781488</ele>
<time>2026-07-13T13:07:23.000Z</time>
</trkpt>
<trkpt lat="56.617355" lon="8.160183">
<ele>-9.763978</ele>
<time>2026-07-13T13:07:24.000Z</time>
</trkpt>
<trkpt lat="56.617409" lon="8.160142">
<ele>-9.743621</ele>
<time>2026-07-13T13:07:25.000Z</time>
</trkpt>
<trkpt lat="56.617458" lon="8.160103">
<ele>-9.725013</ele>
<time>2026-07-13T13:07:26.000Z</time>
</trkpt>
<trkpt lat="56.617508" lon="8.160065">
<ele>-9.706162</ele>
<time>2026-07-13T13:07:27.000Z</time>
</trkpt>
<trkpt lat="56.617554" lon="8.160027">
<ele>-9.688585</ele>
<time>2026-07-13T13:07:28.000Z</time>
</trkpt>
<trkpt lat="56.617592" lon="8.159992">
<ele>-9.673766</ele>
<time>2026-07-13T13:07:29.000Z</time>
</trkpt>
<trkpt lat="56.617638" lon="8.159957">
<ele>-9.656419</ele>
<time>2026-07-13T13:07:30.000Z</time>
</trkpt>
<trkpt lat="56.617680" lon="8.159921">
<ele>-9.640267</ele>
<time>2026-07-13T13:07:31.000Z</time>
</trkpt>
<trkpt lat="56.617722" lon="8.159887">
<ele>-9.624273</ele>
<time>2026-07-13T13:07:32.000Z</time>
</trkpt>
<trkpt lat="56.617767" lon="8.159855">
<ele>-9.607464</ele>
<time>2026-07-13T13:07:33.000Z</time>
</trkpt>
<trkpt lat="56.617809" lon="8.159823">
<ele>-9.591623</ele>
<time>2026-07-13T13:07:34.000Z</time>
</trkpt>
<trkpt lat="56.617855" lon="8.159788">
<ele>-9.574276</ele>
<time>2026-07-13T13:07:35.000Z</time>
</trkpt>
<trkpt lat="56.617897" lon="8.159751">
<ele>-9.558041</ele>
<time>2026-07-13T13:07:36.000Z</time>
</trkpt>
<trkpt lat="56.617939" lon="8.159711">
<ele>-9.541546</ele>
<time>2026-07-13T13:07:37.000Z</time>
</trkpt>
<trkpt lat="56.617981" lon="8.159669">
<ele>-9.524871</ele>
<time>2026-07-13T13:07:38.000Z</time>
</trkpt>
<trkpt lat="56.618023" lon="8.159624">
<ele>-9.507912</ele>
<time>2026-07-13T13:07:39.000Z</time>
</trkpt>
<trkpt lat="56.618065" lon="8.159575">
<ele>-9.490551</ele>
<time>2026-07-13T13:07:40.000Z</time>
</trkpt>
<trkpt lat="56.618107" lon="8.159526">
<ele>-9.473190</ele>
<time>2026-07-13T13:07:41.000Z</time>
</trkpt>
<trkpt lat="56.618149" lon="8.159473">
<ele>-9.455404</ele>
<time>2026-07-13T13:07:42.000Z</time>
</trkpt>
<trkpt lat="56.618191" lon="8.159418">
<ele>-9.437397</ele>
<time>2026-07-13T13:07:43.000Z</time>
</trkpt>
<trkpt lat="56.618233" lon="8.159361">
<ele>-9.419164</ele>
<time>2026-07-13T13:07:44.000Z</time>
</trkpt>
<trkpt lat="56.618275" lon="8.159303">
<ele>-9.405310</ele>
<time>2026-07-13T13:07:45.000Z</time>
</trkpt>
<trkpt lat="56.618313" lon="8.159244">
<ele>-9.405173</ele>
<time>2026-07-13T13:07:46.000Z</time>
</trkpt>
<trkpt lat="56.618351" lon="8.159176">
<ele>-9.405026</ele>
<time>2026-07-13T13:07:47.000Z</time>
</trkpt>
<trkpt lat="56.618393" lon="8.159105">
<ele>-9.404868</ele>
<time>2026-07-13T13:07:48.000Z</time>
</trkpt>
<trkpt lat="56.618427" lon="8.159033">
<ele>-9.404724</ele>
<time>2026-07-13T13:07:49.000Z</time>
</trkpt>
<trkpt lat="56.618465" lon="8.158961">
<ele>-9.404573</ele>
<time>2026-07-13T13:07:50.000Z</time>
</trkpt>
<trkpt lat="56.618504" lon="8.158892">
<ele>-9.404423</ele>
<time>2026-07-13T13:07:51.000Z</time>
</trkpt>
<trkpt lat="56.618542" lon="8.158820">
<ele>-9.404272</ele>
<time>2026-07-13T13:07:52.000Z</time>
</trkpt>
<trkpt lat="56.618580" lon="8.158751">
<ele>-9.404124</ele>
<time>2026-07-13T13:07:53.000Z</time>
</trkpt>
<trkpt lat="56.618618" lon="8.158680">
<ele>-9.403974</ele>
<time>2026-07-13T13:07:54.000Z</time>
</trkpt>
<trkpt lat="56.618660" lon="8.158608">
<ele>-9.403815</ele>
<time>2026-07-13T13:07:55.000Z</time>
</trkpt>
<trkpt lat="56.618694" lon="8.158538">
<ele>-9.403674</ele>
<time>2026-07-13T13:07:56.000Z</time>
</trkpt>
<trkpt lat="56.618732" lon="8.158464">
<ele>-9.403521</ele>
<time>2026-07-13T13:07:57.000Z</time>
</trkpt>
<trkpt lat="56.618771" lon="8.158392">
<ele>-9.403368</ele>
<time>2026-07-13T13:07:58.000Z</time>
</trkpt>
<trkpt lat="56.618805" lon="8.158322">
<ele>-9.403226</ele>
<time>2026-07-13T13:07:59.000Z</time>
</trkpt>
<trkpt lat="56.618843" lon="8.158254">
<ele>-9.403080</ele>
<time>2026-07-13T13:08:00.000Z</time>
</trkpt>
<trkpt lat="56.618881" lon="8.158187">
<ele>-9.402934</ele>
<time>2026-07-13T13:08:01.000Z</time>
</trkpt>
<trkpt lat="56.618923" lon="8.158118">
<ele>-9.402778</ele>
<time>2026-07-13T13:08:02.000Z</time>
</trkpt>
<trkpt lat="56.618961" lon="8.158046">
<ele>-9.402627</ele>
<time>2026-07-13T13:08:03.000Z</time>
</trkpt>
<trkpt lat="56.619003" lon="8.157969">
<ele>-9.402463</ele>
<time>2026-07-13T13:08:04.000Z</time>
</trkpt>
<trkpt lat="56.619038" lon="8.157895">
<ele>-9.402315</ele>
<time>2026-07-13T13:08:05.000Z</time>
</trkpt>
<trkpt lat="56.619076" lon="8.157819">
<ele>-9.402159</ele>
<time>2026-07-13T13:08:06.000Z</time>
</trkpt>
<trkpt lat="56.619114" lon="8.157742">
<ele>-9.402003</ele>
<time>2026-07-13T13:08:07.000Z</time>
</trkpt>
<trkpt lat="56.619156" lon="8.157666">
<ele>-9.401840</ele>
<time>2026-07-13T13:08:08.000Z</time>
</trkpt>
<trkpt lat="56.619198" lon="8.157588">
<ele>-9.401674</ele>
<time>2026-07-13T13:08:09.000Z</time>
</trkpt>
<trkpt lat="56.619236" lon="8.157511">
<ele>-9.401518</ele>
<time>2026-07-13T13:08:10.000Z</time>
</trkpt>
<trkpt lat="56.619278" lon="8.157434">
<ele>-9.401353</ele>
<time>2026-07-13T13:08:11.000Z</time>
</trkpt>
<trkpt lat="56.619320" lon="8.157359">
<ele>-9.401191</ele>
<time>2026-07-13T13:08:12.000Z</time>
</trkpt>
<trkpt lat="56.619362" lon="8.157279">
<ele>-9.401024</ele>
<time>2026-07-13T13:08:13.000Z</time>
</trkpt>
<trkpt lat="56.619400" lon="8.157198">
<ele>-9.400863</ele>
<time>2026-07-13T13:08:14.000Z</time>
</trkpt>
<trkpt lat="56.619446" lon="8.157121">
<ele>-9.400690</ele>
<time>2026-07-13T13:08:15.000Z</time>
</trkpt>
<trkpt lat="56.619488" lon="8.157043">
<ele>-9.400525</ele>
<time>2026-07-13T13:08:16.000Z</time>
</trkpt>
<trkpt lat="56.619534" lon="8.156967">
<ele>-9.400052</ele>
<time>2026-07-13T13:08:17.000Z</time>
</trkpt>
<trkpt lat="56.619575" lon="8.156889">
<ele>-9.398684</ele>
<time>2026-07-13T13:08:18.000Z</time>
</trkpt>
<trkpt lat="56.619617" lon="8.156815">
<ele>-9.397336</ele>
<time>2026-07-13T13:08:19.000Z</time>
</trkpt>
<trkpt lat="56.619663" lon="8.156736">
<ele>-9.395877</ele>
<time>2026-07-13T13:08:20.000Z</time>
</trkpt>
<trkpt lat="56.619698" lon="8.156670">
<ele>-9.394715</ele>
<time>2026-07-13T13:08:21.000Z</time>
</trkpt>
<trkpt lat="56.619739" lon="8.156589">
<ele>-9.393319</ele>
<time>2026-07-13T13:08:22.000Z</time>
</trkpt>
<trkpt lat="56.619785" lon="8.156498">
<ele>-9.391752</ele>
<time>2026-07-13T13:08:23.000Z</time>
</trkpt>
<trkpt lat="56.619827" lon="8.156418">
<ele>-9.390350</ele>
<time>2026-07-13T13:08:24.000Z</time>
</trkpt>
<trkpt lat="56.619869" lon="8.156339">
<ele>-9.388957</ele>
<time>2026-07-13T13:08:25.000Z</time>
</trkpt>
<trkpt lat="56.619911" lon="8.156260">
<ele>-9.387564</ele>
<time>2026-07-13T13:08:26.000Z</time>
</trkpt>
<trkpt lat="56.619953" lon="8.156178">
<ele>-9.386143</ele>
<time>2026-07-13T13:08:27.000Z</time>
</trkpt>
<trkpt lat="56.619995" lon="8.156100">
<ele>-9.384760</ele>
<time>2026-07-13T13:08:28.000Z</time>
</trkpt>
<trkpt lat="56.620037" lon="8.156024">
<ele>-9.383394</ele>
<time>2026-07-13T13:08:29.000Z</time>
</trkpt>
<trkpt lat="56.620083" lon="8.155953">
<ele>-9.382003</ele>
<time>2026-07-13T13:08:30.000Z</time>
</trkpt>
<trkpt lat="56.620129" lon="8.155885">
<ele>-9.380636</ele>
<time>2026-07-13T13:08:31.000Z</time>
</trkpt>
<trkpt lat="56.620167" lon="8.155820">
<ele>-9.379434</ele>
<time>2026-07-13T13:08:32.000Z</time>
</trkpt>
<trkpt lat="56.620213" lon="8.155750">
<ele>-9.378051</ele>
<time>2026-07-13T13:08:33.000Z</time>
</trkpt>
<trkpt lat="56.620258" lon="8.155677">
<ele>-9.376661</ele>
<time>2026-07-13T13:08:34.000Z</time>
</trkpt>
<trkpt lat="56.620304" lon="8.155611">
<ele>-9.375310</ele>
<time>2026-07-13T13:08:35.000Z</time>
</trkpt>
<trkpt lat="56.620350" lon="8.155550">
<ele>-9.373998</ele>
<time>2026-07-13T13:08:36.000Z</time>
</trkpt>
<trkpt lat="56.620396" lon="8.155490">
<ele>-9.372693</ele>
<time>2026-07-13T13:08:37.000Z</time>
</trkpt>
<trkpt lat="56.620445" lon="8.155435">
<ele>-9.371366</ele>
<time>2026-07-13T13:08:38.000Z</time>
</trkpt>
<trkpt lat="56.620495" lon="8.155379">
<ele>-9.370012</ele>
<time>2026-07-13T13:08:39.000Z</time>
</trkpt>
<trkpt lat="56.620544" lon="8.155325">
<ele>-9.368692</ele>
<time>2026-07-13T13:08:40.000Z</time>
</trkpt>
<trkpt lat="56.620594" lon="8.155274">
<ele>-9.367370</ele>
<time>2026-07-13T13:08:41.000Z</time>
</trkpt>
<trkpt lat="56.620647" lon="8.155223">
<ele>-9.365988</ele>
<time>2026-07-13T13:08:42.000Z</time>
</trkpt>
<trkpt lat="56.620701" lon="8.155175">
<ele>-9.364603</ele>
<time>2026-07-13T13:08:43.000Z</time>
</trkpt>
<trkpt lat="56.620754" lon="8.155132">
<ele>-9.363265</ele>
<time>2026-07-13T13:08:44.000Z</time>
</trkpt>
<trkpt lat="56.620811" lon="8.155093">
<ele>-9.361862</ele>
<time>2026-07-13T13:08:45.000Z</time>
</trkpt>
<trkpt lat="56.620869" lon="8.155060">
<ele>-9.360461</ele>
<time>2026-07-13T13:08:46.000Z</time>
</trkpt>
<trkpt lat="56.620926" lon="8.155031">
<ele>-9.359097</ele>
<time>2026-07-13T13:08:47.000Z</time>
</trkpt>
<trkpt lat="56.620987" lon="8.155002">
<ele>-9.358055</ele>
<time>2026-07-13T13:08:48.000Z</time>
</trkpt>
<trkpt lat="56.621048" lon="8.154974">
<ele>-9.357065</ele>
<time>2026-07-13T13:08:49.000Z</time>
</trkpt>
<trkpt lat="56.621105" lon="8.154954">
<ele>-9.356151</ele>
<time>2026-07-13T13:08:50.000Z</time>
</trkpt>
<trkpt lat="56.621162" lon="8.154942">
<ele>-9.355248</ele>
<time>2026-07-13T13:08:51.000Z</time>
</trkpt>
<trkpt lat="56.621220" lon="8.154938">
<ele>-9.354335</ele>
<time>2026-07-13T13:08:52.000Z</time>
</trkpt>
<trkpt lat="56.621277" lon="8.154932">
<ele>-9.353436</ele>
<time>2026-07-13T13:08:53.000Z</time>
</trkpt>
<trkpt lat="56.621338" lon="8.154926">
<ele>-9.352475</ele>
<time>2026-07-13T13:08:54.000Z</time>
</trkpt>
<trkpt lat="56.621395" lon="8.154924">
<ele>-9.351577</ele>
<time>2026-07-13T13:08:55.000Z</time>
</trkpt>
<trkpt lat="56.621452" lon="8.154925">
<ele>-9.350680</ele>
<time>2026-07-13T13:08:56.000Z</time>
</trkpt>
<trkpt lat="56.621510" lon="8.154931">
<ele>-9.349766</ele>
<time>2026-07-13T13:08:57.000Z</time>
</trkpt>
<trkpt lat="56.621567" lon="8.154943">
<ele>-9.348863</ele>
<time>2026-07-13T13:08:58.000Z</time>
</trkpt>
<trkpt lat="56.621624" lon="8.154956">
<ele>-9.347959</ele>
<time>2026-07-13T13:08:59.000Z</time>
</trkpt>
<trkpt lat="56.621677" lon="8.154969">
<ele>-9.347117</ele>
<time>2026-07-13T13:09:00.000Z</time>
</trkpt>
<trkpt lat="56.621735" lon="8.154987">
<ele>-9.346191</ele>
<time>2026-07-13T13:09:01.000Z</time>
</trkpt>
<trkpt lat="56.621788" lon="8.155007">
<ele>-9.345339</ele>
<time>2026-07-13T13:09:02.000Z</time>
</trkpt>
<trkpt lat="56.621845" lon="8.155030">
<ele>-9.344420</ele>
<time>2026-07-13T13:09:03.000Z</time>
</trkpt>
<trkpt lat="56.621902" lon="8.155051">
<ele>-9.343504</ele>
<time>2026-07-13T13:09:04.000Z</time>
</trkpt>
<trkpt lat="56.621960" lon="8.155073">
<ele>-9.342572</ele>
<time>2026-07-13T13:09:05.000Z</time>
</trkpt>
<trkpt lat="56.622013" lon="8.155096">
<ele>-9.341714</ele>
<time>2026-07-13T13:09:06.000Z</time>
</trkpt>
<trkpt lat="56.622066" lon="8.155120">
<ele>-9.340854</ele>
<time>2026-07-13T13:09:07.000Z</time>
</trkpt>
<trkpt lat="56.622120" lon="8.155145">
<ele>-9.339977</ele>
<time>2026-07-13T13:09:08.000Z</time>
</trkpt>
<trkpt lat="56.622173" lon="8.155166">
<ele>-9.339124</ele>
<time>2026-07-13T13:09:09.000Z</time>
</trkpt>
<trkpt lat="56.622227" lon="8.155190">
<ele>-9.338249</ele>
<time>2026-07-13T13:09:10.000Z</time>
</trkpt>
<trkpt lat="56.622280" lon="8.155216">
<ele>-9.337385</ele>
<time>2026-07-13T13:09:11.000Z</time>
</trkpt>
<trkpt lat="56.622334" lon="8.155242">
<ele>-9.336505</ele>
<time>2026-07-13T13:09:12.000Z</time>
</trkpt>
<trkpt lat="56.622391" lon="8.155265">
<ele>-9.335586</ele>
<time>2026-07-13T13:09:13.000Z</time>
</trkpt>
<trkpt lat="56.622448" lon="8.155288">
<ele>-9.334667</ele>
<time>2026-07-13T13:09:14.000Z</time>
</trkpt>
<trkpt lat="56.622498" lon="8.155307">
<ele>-9.333863</ele>
<time>2026-07-13T13:09:15.000Z</time>
</trkpt>
<trkpt lat="56.622551" lon="8.155329">
<ele>-9.333008</ele>
<time>2026-07-13T13:09:16.000Z</time>
</trkpt>
<trkpt lat="56.622612" lon="8.155351">
<ele>-9.332029</ele>
<time>2026-07-13T13:09:17.000Z</time>
</trkpt>
<trkpt lat="56.622662" lon="8.155372">
<ele>-9.331221</ele>
<time>2026-07-13T13:09:18.000Z</time>
</trkpt>
<trkpt lat="56.622715" lon="8.155399">
<ele>-9.331458</ele>
<time>2026-07-13T13:09:19.000Z</time>
</trkpt>
<trkpt lat="56.622772" lon="8.155424">
<ele>-9.334198</ele>
<time>2026-07-13T13:09:20.000Z</time>
</trkpt>
<trkpt lat="56.622829" lon="8.155445">
<ele>-9.336915</ele>
<time>2026-07-13T13:09:21.000Z</time>
</trkpt>
<trkpt lat="56.622883" lon="8.155463">
<ele>-9.339480</ele>
<time>2026-07-13T13:09:22.000Z</time>
</trkpt>
<trkpt lat="56.622936" lon="8.155484">
<ele>-9.342014</ele>
<time>2026-07-13T13:09:23.000Z</time>
</trkpt>
<trkpt lat="56.622993" lon="8.155508">
<ele>-9.344748</ele>
<time>2026-07-13T13:09:24.000Z</time>
</trkpt>
<trkpt lat="56.623043" lon="8.155528">
<ele>-9.347139</ele>
<time>2026-07-13T13:09:25.000Z</time>
</trkpt>
<trkpt lat="56.623085" lon="8.155548">
<ele>-9.349168</ele>
<time>2026-07-13T13:09:26.000Z</time>
</trkpt>
<trkpt lat="56.623142" lon="8.155575">
<ele>-9.351920</ele>
<time>2026-07-13T13:09:27.000Z</time>
</trkpt>
<trkpt lat="56.623199" lon="8.155599">
<ele>-9.354653</ele>
<time>2026-07-13T13:09:28.000Z</time>
</trkpt>
<trkpt lat="56.623257" lon="8.155619">
<ele>-9.357411</ele>
<time>2026-07-13T13:09:29.000Z</time>
</trkpt>
<trkpt lat="56.623314" lon="8.155641">
<ele>-9.360134</ele>
<time>2026-07-13T13:09:30.000Z</time>
</trkpt>
<trkpt lat="56.623371" lon="8.155666">
<ele>-9.362873</ele>
<time>2026-07-13T13:09:31.000Z</time>
</trkpt>
<trkpt lat="56.623425" lon="8.155693">
<ele>-9.365489</ele>
<time>2026-07-13T13:09:32.000Z</time>
</trkpt>
<trkpt lat="56.623478" lon="8.155718">
<ele>-9.368048</ele>
<time>2026-07-13T13:09:33.000Z</time>
</trkpt>
<trkpt lat="56.623535" lon="8.155743">
<ele>-9.370787</ele>
<time>2026-07-13T13:09:34.000Z</time>
</trkpt>
<trkpt lat="56.623589" lon="8.155766">
<ele>-9.373378</ele>
<time>2026-07-13T13:09:35.000Z</time>
</trkpt>
<trkpt lat="56.623642" lon="8.155789">
<ele>-9.375924</ele>
<time>2026-07-13T13:09:36.000Z</time>
</trkpt>
<trkpt lat="56.623699" lon="8.155811">
<ele>-9.378646</ele>
<time>2026-07-13T13:09:37.000Z</time>
</trkpt>
<trkpt lat="56.623753" lon="8.155834">
<ele>-9.381237</ele>
<time>2026-07-13T13:09:38.000Z</time>
</trkpt>
<trkpt lat="56.623806" lon="8.155860">
<ele>-9.383802</ele>
<time>2026-07-13T13:09:39.000Z</time>
</trkpt>
<trkpt lat="56.623863" lon="8.155887">
<ele>-9.386554</ele>
<time>2026-07-13T13:09:40.000Z</time>
</trkpt>
<trkpt lat="56.623920" lon="8.155913">
<ele>-9.389299</ele>
<time>2026-07-13T13:09:41.000Z</time>
</trkpt>
<trkpt lat="56.623978" lon="8.155937">
<ele>-9.392078</ele>
<time>2026-07-13T13:09:42.000Z</time>
</trkpt>
<trkpt lat="56.624035" lon="8.155959">
<ele>-9.394801</ele>
<time>2026-07-13T13:09:43.000Z</time>
</trkpt>
<trkpt lat="56.624092" lon="8.155982">
<ele>-9.397528</ele>
<time>2026-07-13T13:09:44.000Z</time>
</trkpt>
<trkpt lat="56.624149" lon="8.156005">
<ele>-9.400256</ele>
<time>2026-07-13T13:09:45.000Z</time>
</trkpt>
<trkpt lat="56.624207" lon="8.156031">
<ele>-9.403047</ele>
<time>2026-07-13T13:09:46.000Z</time>
</trkpt>
<trkpt lat="56.624264" lon="8.156053">
<ele>-9.405769</ele>
<time>2026-07-13T13:09:47.000Z</time>
</trkpt>
<trkpt lat="56.624317" lon="8.156076">
<ele>-9.408315</ele>
<time>2026-07-13T13:09:48.000Z</time>
</trkpt>
<trkpt lat="56.624378" lon="8.156099">
<ele>-9.411226</ele>
<time>2026-07-13T13:09:49.000Z</time>
</trkpt>
<trkpt lat="56.624432" lon="8.156122">
<ele>-9.413817</ele>
<time>2026-07-13T13:09:50.000Z</time>
</trkpt>
<trkpt lat="56.624489" lon="8.156146">
<ele>-9.424490</ele>
<time>2026-07-13T13:09:51.000Z</time>
</trkpt>
<trkpt lat="56.624546" lon="8.156168">
<ele>-9.438667</ele>
<time>2026-07-13T13:09:52.000Z</time>
</trkpt>
<trkpt lat="56.624603" lon="8.156193">
<ele>-9.452932</ele>
<time>2026-07-13T13:09:53.000Z</time>
</trkpt>
<trkpt lat="56.624657" lon="8.156217">
<ele>-9.466457</ele>
<time>2026-07-13T13:09:54.000Z</time>
</trkpt>
<trkpt lat="56.624714" lon="8.156241">
<ele>-9.480692</ele>
<time>2026-07-13T13:09:55.000Z</time>
</trkpt>
<trkpt lat="56.624771" lon="8.156266">
<ele>-9.494958</ele>
<time>2026-07-13T13:09:56.000Z</time>
</trkpt>
<trkpt lat="56.624828" lon="8.156287">
<ele>-9.509108</ele>
<time>2026-07-13T13:09:57.000Z</time>
</trkpt>
<trkpt lat="56.624882" lon="8.156309">
<ele>-9.522572</ele>
<time>2026-07-13T13:09:58.000Z</time>
</trkpt>
<trkpt lat="56.624939" lon="8.156337">
<ele>-9.536937</ele>
<time>2026-07-13T13:09:59.000Z</time>
</trkpt>
<trkpt lat="56.624996" lon="8.156365">
<ele>-9.551303</ele>
<time>2026-07-13T13:10:00.000Z</time>
</trkpt>
<trkpt lat="56.625053" lon="8.156393">
<ele>-9.565668</ele>
<time>2026-07-13T13:10:01.000Z</time>
</trkpt>
<trkpt lat="56.625111" lon="8.156418">
<ele>-9.580170</ele>
<time>2026-07-13T13:10:02.000Z</time>
</trkpt>
<trkpt lat="56.625168" lon="8.156439">
<ele>-9.594320</ele>
<time>2026-07-13T13:10:03.000Z</time>
</trkpt>
<trkpt lat="56.625221" lon="8.156457">
<ele>-9.607438</ele>
<time>2026-07-13T13:10:04.000Z</time>
</trkpt>
<trkpt lat="56.625279" lon="8.156479">
<ele>-9.621853</ele>
<time>2026-07-13T13:10:05.000Z</time>
</trkpt>
<trkpt lat="56.625336" lon="8.156507">
<ele>-9.636218</ele>
<time>2026-07-13T13:10:06.000Z</time>
</trkpt>
<trkpt lat="56.625393" lon="8.156535">
<ele>-9.650583</ele>
<time>2026-07-13T13:10:07.000Z</time>
</trkpt>
<trkpt lat="56.625450" lon="8.156564">
<ele>-9.664984</ele>
<time>2026-07-13T13:10:08.000Z</time>
</trkpt>
<trkpt lat="56.625507" lon="8.156590">
<ele>-9.679282</ele>
<time>2026-07-13T13:10:09.000Z</time>
</trkpt>
<trkpt lat="56.625565" lon="8.156612">
<ele>-9.693697</ele>
<time>2026-07-13T13:10:10.000Z</time>
</trkpt>
<trkpt lat="56.625626" lon="8.156633">
<ele>-9.708802</ele>
<time>2026-07-13T13:10:11.000Z</time>
</trkpt>
<trkpt lat="56.625683" lon="8.156652">
<ele>-9.722901</ele>
<time>2026-07-13T13:10:12.000Z</time>
</trkpt>
<trkpt lat="56.625740" lon="8.156678">
<ele>-9.737199</ele>
<time>2026-07-13T13:10:13.000Z</time>
</trkpt>
<trkpt lat="56.625797" lon="8.156704">
<ele>-9.751497</ele>
<time>2026-07-13T13:10:14.000Z</time>
</trkpt>
<trkpt lat="56.625855" lon="8.156731">
<ele>-9.766063</ele>
<time>2026-07-13T13:10:15.000Z</time>
</trkpt>
<trkpt lat="56.625916" lon="8.156758">
<ele>-9.781338</ele>
<time>2026-07-13T13:10:16.000Z</time>
</trkpt>
<trkpt lat="56.625973" lon="8.156783">
<ele>-9.795603</ele>
<time>2026-07-13T13:10:17.000Z</time>
</trkpt>
<trkpt lat="56.626034" lon="8.156808">
<ele>-9.810817</ele>
<time>2026-07-13T13:10:18.000Z</time>
</trkpt>
<trkpt lat="56.626091" lon="8.156829">
<ele>-9.824967</ele>
<time>2026-07-13T13:10:19.000Z</time>
</trkpt>
<trkpt lat="56.626148" lon="8.156854">
<ele>-9.839233</ele>
<time>2026-07-13T13:10:20.000Z</time>
</trkpt>
<trkpt lat="56.626205" lon="8.156877">
<ele>-9.850561</ele>
<time>2026-07-13T13:10:21.000Z</time>
</trkpt>
<trkpt lat="56.626259" lon="8.156901">
<ele>-9.830901</ele>
<time>2026-07-13T13:10:22.000Z</time>
</trkpt>
<trkpt lat="56.626316" lon="8.156924">
<ele>-9.810252</ele>
<time>2026-07-13T13:10:23.000Z</time>
</trkpt>
<trkpt lat="56.626373" lon="8.156946">
<ele>-9.789644</ele>
<time>2026-07-13T13:10:24.000Z</time>
</trkpt>
<trkpt lat="56.626427" lon="8.156970">
<ele>-9.769984</ele>
<time>2026-07-13T13:10:25.000Z</time>
</trkpt>
<trkpt lat="56.626484" lon="8.156998">
<ele>-9.749103</ele>
<time>2026-07-13T13:10:26.000Z</time>
</trkpt>
<trkpt lat="56.626537" lon="8.157021">
<ele>-9.729832</ele>
<time>2026-07-13T13:10:27.000Z</time>
</trkpt>
<trkpt lat="56.626595" lon="8.157045">
<ele>-9.708796</ele>
<time>2026-07-13T13:10:28.000Z</time>
</trkpt>
<trkpt lat="56.626648" lon="8.157067">
<ele>-9.689569</ele>
<time>2026-07-13T13:10:29.000Z</time>
</trkpt>
<trkpt lat="56.626705" lon="8.157089">
<ele>-9.668962</ele>
<time>2026-07-13T13:10:30.000Z</time>
</trkpt>
<trkpt lat="56.626755" lon="8.157110">
<ele>-9.650813</ele>
<time>2026-07-13T13:10:31.000Z</time>
</trkpt>
<trkpt lat="56.626808" lon="8.157131">
<ele>-9.631629</ele>
<time>2026-07-13T13:10:32.000Z</time>
</trkpt>
<trkpt lat="56.626865" lon="8.157151">
<ele>-9.611099</ele>
<time>2026-07-13T13:10:33.000Z</time>
</trkpt>
<trkpt lat="56.626919" lon="8.157171">
<ele>-9.591609</ele>
<time>2026-07-13T13:10:34.000Z</time>
</trkpt>
<trkpt lat="56.626972" lon="8.157192">
<ele>-9.572425</ele>
<time>2026-07-13T13:10:35.000Z</time>
</trkpt>
<trkpt lat="56.627026" lon="8.157214">
<ele>-9.552854</ele>
<time>2026-07-13T13:10:36.000Z</time>
</trkpt>
<trkpt lat="56.627075" lon="8.157237">
<ele>-9.534956</ele>
<time>2026-07-13T13:10:37.000Z</time>
</trkpt>
<trkpt lat="56.627125" lon="8.157259">
<ele>-9.516763</ele>
<time>2026-07-13T13:10:38.000Z</time>
</trkpt>
<trkpt lat="56.627178" lon="8.157281">
<ele>-9.497537</ele>
<time>2026-07-13T13:10:39.000Z</time>
</trkpt>
<trkpt lat="56.627232" lon="8.157304">
<ele>-9.477922</ele>
<time>2026-07-13T13:10:40.000Z</time>
</trkpt>
<trkpt lat="56.627277" lon="8.157326">
<ele>-9.461442</ele>
<time>2026-07-13T13:10:41.000Z</time>
</trkpt>
<trkpt lat="56.627331" lon="8.157348">
<ele>-9.441871</ele>
<time>2026-07-13T13:10:42.000Z</time>
</trkpt>
<trkpt lat="56.627384" lon="8.157369">
<ele>-9.422687</ele>
<time>2026-07-13T13:10:43.000Z</time>
</trkpt>
<trkpt lat="56.627438" lon="8.157391">
<ele>-9.403116</ele>
<time>2026-07-13T13:10:44.000Z</time>
</trkpt>
<trkpt lat="56.627487" lon="8.157413">
<ele>-9.385266</ele>
<time>2026-07-13T13:10:45.000Z</time>
</trkpt>
<trkpt lat="56.627541" lon="8.157434">
<ele>-9.365736</ele>
<time>2026-07-13T13:10:46.000Z</time>
</trkpt>
<trkpt lat="56.627594" lon="8.157456">
<ele>-9.346510</ele>
<time>2026-07-13T13:10:47.000Z</time>
</trkpt>
<trkpt lat="56.627647" lon="8.157478">
<ele>-9.327284</ele>
<time>2026-07-13T13:10:48.000Z</time>
</trkpt>
<trkpt lat="56.627701" lon="8.157501">
<ele>-9.307669</ele>
<time>2026-07-13T13:10:49.000Z</time>
</trkpt>
<trkpt lat="56.627754" lon="8.157524">
<ele>-9.288399</ele>
<time>2026-07-13T13:10:50.000Z</time>
</trkpt>
<trkpt lat="56.627808" lon="8.157547">
<ele>-9.268784</ele>
<time>2026-07-13T13:10:51.000Z</time>
</trkpt>
<trkpt lat="56.627861" lon="8.157569">
<ele>-9.249558</ele>
<time>2026-07-13T13:10:52.000Z</time>
</trkpt>
<trkpt lat="56.627914" lon="8.157591">
<ele>-9.230332</ele>
<time>2026-07-13T13:10:53.000Z</time>
</trkpt>
<trkpt lat="56.627968" lon="8.157612">
<ele>-9.214699</ele>
<time>2026-07-13T13:10:54.000Z</time>
</trkpt>
<trkpt lat="56.628021" lon="8.157635">
<ele>-9.209434</ele>
<time>2026-07-13T13:10:55.000Z</time>
</trkpt>
<trkpt lat="56.628075" lon="8.157658">
<ele>-9.204076</ele>
<time>2026-07-13T13:10:56.000Z</time>
</trkpt>
<trkpt lat="56.628128" lon="8.157682">
<ele>-9.198799</ele>
<time>2026-07-13T13:10:57.000Z</time>
</trkpt>
<trkpt lat="56.628181" lon="8.157704">
<ele>-9.193547</ele>
<time>2026-07-13T13:10:58.000Z</time>
</trkpt>
<trkpt lat="56.628235" lon="8.157727">
<ele>-9.188188</ele>
<time>2026-07-13T13:10:59.000Z</time>
</trkpt>
<trkpt lat="56.628288" lon="8.157753">
<ele>-9.182885</ele>
<time>2026-07-13T13:11:00.000Z</time>
</trkpt>
<trkpt lat="56.628342" lon="8.157776">
<ele>-9.177526</ele>
<time>2026-07-13T13:11:01.000Z</time>
</trkpt>
<trkpt lat="56.628391" lon="8.157798">
<ele>-9.172650</ele>
<time>2026-07-13T13:11:02.000Z</time>
</trkpt>
<trkpt lat="56.628448" lon="8.157820">
<ele>-9.167020</ele>
<time>2026-07-13T13:11:03.000Z</time>
</trkpt>
<trkpt lat="56.628502" lon="8.157840">
<ele>-9.161696</ele>
<time>2026-07-13T13:11:04.000Z</time>
</trkpt>
<trkpt lat="56.628559" lon="8.157863">
<ele>-9.156055</ele>
<time>2026-07-13T13:11:05.000Z</time>
</trkpt>
<trkpt lat="56.628616" lon="8.157885">
<ele>-9.150425</ele>
<time>2026-07-13T13:11:06.000Z</time>
</trkpt>
<trkpt lat="56.628670" lon="8.157907">
<ele>-9.145079</ele>
<time>2026-07-13T13:11:07.000Z</time>
</trkpt>
<trkpt lat="56.628723" lon="8.157932">
<ele>-9.139789</ele>
<time>2026-07-13T13:11:08.000Z</time>
</trkpt>
<trkpt lat="56.628773" lon="8.157956">
<ele>-9.134793</ele>
<time>2026-07-13T13:11:09.000Z</time>
</trkpt>
<trkpt lat="56.628826" lon="8.157979">
<ele>-9.129528</ele>
<time>2026-07-13T13:11:10.000Z</time>
</trkpt>
<trkpt lat="56.628876" lon="8.158000">
<ele>-9.124570</ele>
<time>2026-07-13T13:11:11.000Z</time>
</trkpt>
<trkpt lat="56.628929" lon="8.158018">
<ele>-9.119361</ele>
<time>2026-07-13T13:11:12.000Z</time>
</trkpt>
<trkpt lat="56.628979" lon="8.158036">
<ele>-9.114437</ele>
<time>2026-07-13T13:11:13.000Z</time>
</trkpt>
<trkpt lat="56.629028" lon="8.158051">
<ele>-9.109636</ele>
<time>2026-07-13T13:11:14.000Z</time>
</trkpt>
<trkpt lat="56.629082" lon="8.158066">
<ele>-9.104358</ele>
<time>2026-07-13T13:11:15.000Z</time>
</trkpt>
<trkpt lat="56.629131" lon="8.158081">
<ele>-9.099558</ele>
<time>2026-07-13T13:11:16.000Z</time>
</trkpt>
<trkpt lat="56.629177" lon="8.158098">
<ele>-9.095023</ele>
<time>2026-07-13T13:11:17.000Z</time>
</trkpt>
<trkpt lat="56.629223" lon="8.158117">
<ele>-9.090465</ele>
<time>2026-07-13T13:11:18.000Z</time>
</trkpt>
<trkpt lat="56.629269" lon="8.158137">
<ele>-9.085896</ele>
<time>2026-07-13T13:11:19.000Z</time>
</trkpt>
<trkpt lat="56.629318" lon="8.158156">
<ele>-9.081055</ele>
<time>2026-07-13T13:11:20.000Z</time>
</trkpt>
<trkpt lat="56.629372" lon="8.158176">
<ele>-9.075731</ele>
<time>2026-07-13T13:11:21.000Z</time>
</trkpt>
<trkpt lat="56.629425" lon="8.158191">
<ele>-9.070549</ele>
<time>2026-07-13T13:11:22.000Z</time>
</trkpt>
<trkpt lat="56.629486" lon="8.158213">
<ele>-9.064540</ele>
<time>2026-07-13T13:11:23.000Z</time>
</trkpt>
<trkpt lat="56.629547" lon="8.158240">
<ele>-9.058475</ele>
<time>2026-07-13T13:11:24.000Z</time>
</trkpt>
<trkpt lat="56.629604" lon="8.158267">
<ele>-9.052784</ele>
<time>2026-07-13T13:11:25.000Z</time>
</trkpt>
<trkpt lat="56.629662" lon="8.158293">
<ele>-9.047013</ele>
<time>2026-07-13T13:11:26.000Z</time>
</trkpt>
<trkpt lat="56.629719" lon="8.158318">
<ele>-9.045149</ele>
<time>2026-07-13T13:11:27.000Z</time>
</trkpt>
<trkpt lat="56.629772" lon="8.158337">
<ele>-9.058952</ele>
<time>2026-07-13T13:11:28.000Z</time>
</trkpt>
<trkpt lat="56.629829" lon="8.158352">
<ele>-9.073669</ele>
<time>2026-07-13T13:11:29.000Z</time>
</trkpt>
<trkpt lat="56.629883" lon="8.158359">
<ele>-9.087502</ele>
<time>2026-07-13T13:11:30.000Z</time>
</trkpt>
<trkpt lat="56.629936" lon="8.158366">
<ele>-9.101081</ele>
<time>2026-07-13T13:11:31.000Z</time>
</trkpt>
<trkpt lat="56.629986" lon="8.158373">
<ele>-9.113895</ele>
<time>2026-07-13T13:11:32.000Z</time>
</trkpt>
<trkpt lat="56.630035" lon="8.158379">
<ele>-9.126444</ele>
<time>2026-07-13T13:11:33.000Z</time>
</trkpt>
<trkpt lat="56.630089" lon="8.158380">
<ele>-9.140243</ele>
<time>2026-07-13T13:11:34.000Z</time>
</trkpt>
<trkpt lat="56.630142" lon="8.158375">
<ele>-9.153804</ele>
<time>2026-07-13T13:11:35.000Z</time>
</trkpt>
<trkpt lat="56.630196" lon="8.158364">
<ele>-9.167689</ele>
<time>2026-07-13T13:11:36.000Z</time>
</trkpt>
<trkpt lat="56.630245" lon="8.158352">
<ele>-9.180323</ele>
<time>2026-07-13T13:11:37.000Z</time>
</trkpt>
<trkpt lat="56.630299" lon="8.158338">
<ele>-9.194261</ele>
<time>2026-07-13T13:11:38.000Z</time>
</trkpt>
<trkpt lat="56.630352" lon="8.158322">
<ele>-9.207989</ele>
<time>2026-07-13T13:11:39.000Z</time>
</trkpt>
<trkpt lat="56.630402" lon="8.158305">
<ele>-9.220987</ele>
<time>2026-07-13T13:11:40.000Z</time>
</trkpt>
<trkpt lat="56.630451" lon="8.158280">
<ele>-9.233991</ele>
<time>2026-07-13T13:11:41.000Z</time>
</trkpt>
<trkpt lat="56.630501" lon="8.158249">
<ele>-9.247490</ele>
<time>2026-07-13T13:11:42.000Z</time>
</trkpt>
<trkpt lat="56.630550" lon="8.158215">
<ele>-9.260892</ele>
<time>2026-07-13T13:11:43.000Z</time>
</trkpt>
<trkpt lat="56.630600" lon="8.158180">
<ele>-9.274582</ele>
<time>2026-07-13T13:11:44.000Z</time>
</trkpt>
<trkpt lat="56.630650" lon="8.158145">
<ele>-9.288273</ele>
<time>2026-07-13T13:11:45.000Z</time>
</trkpt>
<trkpt lat="56.630695" lon="8.158112">
<ele>-9.300671</ele>
<time>2026-07-13T13:11:46.000Z</time>
</trkpt>
<trkpt lat="56.630737" lon="8.158078">
<ele>-9.312419</ele>
<time>2026-07-13T13:11:47.000Z</time>
</trkpt>
<trkpt lat="56.630772" lon="8.158048">
<ele>-9.322307</ele>
<time>2026-07-13T13:11:48.000Z</time>
</trkpt>
<trkpt lat="56.630810" lon="8.158024">
<ele>-9.332586</ele>
<time>2026-07-13T13:11:49.000Z</time>
</trkpt>
<trkpt lat="56.630836" lon="8.158010">
<ele>-9.339515</ele>
<time>2026-07-13T13:11:50.000Z</time>
</trkpt>
<trkpt lat="56.630863" lon="8.158011">
<ele>-9.346415</ele>
<time>2026-07-13T13:11:51.000Z</time>
</trkpt>
<trkpt lat="56.630886" lon="8.158026">
<ele>-9.352659</ele>
<time>2026-07-13T13:11:52.000Z</time>
</trkpt>
<trkpt lat="56.630905" lon="8.158039">
<ele>-9.357847</ele>
<time>2026-07-13T13:11:53.000Z</time>
</trkpt>
<trkpt lat="56.630928" lon="8.158050">
<ele>-9.363924</ele>
<time>2026-07-13T13:11:54.000Z</time>
</trkpt>
<trkpt lat="56.630966" lon="8.158051">
<ele>-9.373635</ele>
<time>2026-07-13T13:11:55.000Z</time>
</trkpt>
<trkpt lat="56.631004" lon="8.158036">
<ele>-9.383571</ele>
<time>2026-07-13T13:11:56.000Z</time>
</trkpt>
<trkpt lat="56.631046" lon="8.158007">
<ele>-9.395051</ele>
<time>2026-07-13T13:11:57.000Z</time>
</trkpt>
<trkpt lat="56.631096" lon="8.157972">
<ele>-9.408741</ele>
<time>2026-07-13T13:11:58.000Z</time>
</trkpt>
<trkpt lat="56.631146" lon="8.157939">
<ele>-9.422333</ele>
<time>2026-07-13T13:11:59.000Z</time>
</trkpt>
<trkpt lat="56.631195" lon="8.157908">
<ele>-9.435590</ele>
<time>2026-07-13T13:12:00.000Z</time>
</trkpt>
<trkpt lat="56.631248" lon="8.157878">
<ele>-9.449774</ele>
<time>2026-07-13T13:12:01.000Z</time>
</trkpt>
<trkpt lat="56.631294" lon="8.157845">
<ele>-9.462411</ele>
<time>2026-07-13T13:12:02.000Z</time>
</trkpt>
<trkpt lat="56.631348" lon="8.157806">
<ele>-9.477258</ele>
<time>2026-07-13T13:12:03.000Z</time>
</trkpt>
<trkpt lat="56.631405" lon="8.157765">
<ele>-9.492921</ele>
<time>2026-07-13T13:12:04.000Z</time>
</trkpt>
<trkpt lat="56.631458" lon="8.157721">
<ele>-9.515042</ele>
<time>2026-07-13T13:12:05.000Z</time>
</trkpt>
<trkpt lat="56.631512" lon="8.157680">
<ele>-9.548580</ele>
<time>2026-07-13T13:12:06.000Z</time>
</trkpt>
<trkpt lat="56.631561" lon="8.157664">
<ele>-9.577111</ele>
<time>2026-07-13T13:12:07.000Z</time>
</trkpt>
<trkpt lat="56.631611" lon="8.157657">
<ele>-9.605852</ele>
<time>2026-07-13T13:12:08.000Z</time>
</trkpt>
<trkpt lat="56.631664" lon="8.157685">
<ele>-9.637482</ele>
<time>2026-07-13T13:12:09.000Z</time>
</trkpt>
<trkpt lat="56.631710" lon="8.157739">
<ele>-9.668863</ele>
<time>2026-07-13T13:12:10.000Z</time>
</trkpt>
<trkpt lat="56.631752" lon="8.157800">
<ele>-9.699671</ele>
<time>2026-07-13T13:12:11.000Z</time>
</trkpt>
<trkpt lat="56.631798" lon="8.157858">
<ele>-9.731753</ele>
<time>2026-07-13T13:12:12.000Z</time>
</trkpt>
<trkpt lat="56.631844" lon="8.157917">
<ele>-9.764015</ele>
<time>2026-07-13T13:12:13.000Z</time>
</trkpt>
<trkpt lat="56.631893" lon="8.157979">
<ele>-9.798228</ele>
<time>2026-07-13T13:12:14.000Z</time>
</trkpt>
<trkpt lat="56.631935" lon="8.158041">
<ele>-9.829234</ele>
<time>2026-07-13T13:12:15.000Z</time>
</trkpt>
<trkpt lat="56.631977" lon="8.158101">
<ele>-9.859846</ele>
<time>2026-07-13T13:12:16.000Z</time>
</trkpt>
<trkpt lat="56.632019" lon="8.158168">
<ele>-9.891868</ele>
<time>2026-07-13T13:12:17.000Z</time>
</trkpt>
<trkpt lat="56.632050" lon="8.158240">
<ele>-9.920690</ele>
<time>2026-07-13T13:12:18.000Z</time>
</trkpt>
<trkpt lat="56.632080" lon="8.158316">
<ele>-9.950177</ele>
<time>2026-07-13T13:12:19.000Z</time>
</trkpt>
<trkpt lat="56.632103" lon="8.158391">
<ele>-9.977245</ele>
<time>2026-07-13T13:12:20.000Z</time>
</trkpt>
<trkpt lat="56.632130" lon="8.158468">
<ele>-10.006029</ele>
<time>2026-07-13T13:12:21.000Z</time>
</trkpt>
<trkpt lat="56.632156" lon="8.158547">
<ele>-10.035049</ele>
<time>2026-07-13T13:12:22.000Z</time>
</trkpt>
<trkpt lat="56.632175" lon="8.158625">
<ele>-10.061939</ele>
<time>2026-07-13T13:12:23.000Z</time>
</trkpt>
<trkpt lat="56.632198" lon="8.158703">
<ele>-10.089836</ele>
<time>2026-07-13T13:12:24.000Z</time>
</trkpt>
<trkpt lat="56.632221" lon="8.158787">
<ele>-10.119414</ele>
<time>2026-07-13T13:12:25.000Z</time>
</trkpt>
<trkpt lat="56.632248" lon="8.158871">
<ele>-10.150082</ele>
<time>2026-07-13T13:12:26.000Z</time>
</trkpt>
<trkpt lat="56.632263" lon="8.158958">
<ele>-10.178821</ele>
<time>2026-07-13T13:12:27.000Z</time>
</trkpt>
<trkpt lat="56.632278" lon="8.159044">
<ele>-10.207260</ele>
<time>2026-07-13T13:12:28.000Z</time>
</trkpt>
<trkpt lat="56.632290" lon="8.159130">
<ele>-10.235227</ele>
<time>2026-07-13T13:12:29.000Z</time>
</trkpt>
<trkpt lat="56.632305" lon="8.159212">
<ele>-10.262467</ele>
<time>2026-07-13T13:12:30.000Z</time>
</trkpt>
<trkpt lat="56.632317" lon="8.159297">
<ele>-10.290128</ele>
<time>2026-07-13T13:12:31.000Z</time>
</trkpt>
<trkpt lat="56.632328" lon="8.159381">
<ele>-10.317346</ele>
<time>2026-07-13T13:12:32.000Z</time>
</trkpt>
<trkpt lat="56.632340" lon="8.159464">
<ele>-10.344398</ele>
<time>2026-07-13T13:12:33.000Z</time>
</trkpt>
<trkpt lat="56.632351" lon="8.159548">
<ele>-10.371616</ele>
<time>2026-07-13T13:12:34.000Z</time>
</trkpt>
<trkpt lat="56.632359" lon="8.159633">
<ele>-10.398798</ele>
<time>2026-07-13T13:12:35.000Z</time>
</trkpt>
<trkpt lat="56.632359" lon="8.159719">
<ele>-10.425907</ele>
<time>2026-07-13T13:12:36.000Z</time>
</trkpt>
<trkpt lat="56.632359" lon="8.159814">
<ele>-10.455852</ele>
<time>2026-07-13T13:12:37.000Z</time>
</trkpt>
<trkpt lat="56.632362" lon="8.159912">
<ele>-10.486791</ele>
<time>2026-07-13T13:12:38.000Z</time>
</trkpt>
<trkpt lat="56.632366" lon="8.160012">
<ele>-10.518395</ele>
<time>2026-07-13T13:12:39.000Z</time>
</trkpt>
<trkpt lat="56.632370" lon="8.160113">
<ele>-10.546422</ele>
<time>2026-07-13T13:12:40.000Z</time>
</trkpt>
<trkpt lat="56.632370" lon="8.160214">
<ele>-10.571183</ele>
<time>2026-07-13T13:12:41.000Z</time>
</trkpt>
<trkpt lat="56.632366" lon="8.160317">
<ele>-10.596497</ele>
<time>2026-07-13T13:12:42.000Z</time>
</trkpt>
<trkpt lat="56.632362" lon="8.160421">
<ele>-10.622056</ele>
<time>2026-07-13T13:12:43.000Z</time>
</trkpt>
<trkpt lat="56.632359" lon="8.160526">
<ele>-10.647833</ele>
<time>2026-07-13T13:12:44.000Z</time>
</trkpt>
<trkpt lat="56.632359" lon="8.160629">
<ele>-10.673085</ele>
<time>2026-07-13T13:12:45.000Z</time>
</trkpt>
<trkpt lat="56.632355" lon="8.160732">
<ele>-10.698399</ele>
<time>2026-07-13T13:12:46.000Z</time>
</trkpt>
<trkpt lat="56.632347" lon="8.160837">
<ele>-10.724387</ele>
<time>2026-07-13T13:12:47.000Z</time>
</trkpt>
<trkpt lat="56.632343" lon="8.160942">
<ele>-10.750191</ele>
<time>2026-07-13T13:12:48.000Z</time>
</trkpt>
<trkpt lat="56.632347" lon="8.161044">
<ele>-10.775261</ele>
<time>2026-07-13T13:12:49.000Z</time>
</trkpt>
<trkpt lat="56.632351" lon="8.161145">
<ele>-10.800086</ele>
<time>2026-07-13T13:12:50.000Z</time>
</trkpt>
<trkpt lat="56.632355" lon="8.161242">
<ele>-10.823933</ele>
<time>2026-07-13T13:12:51.000Z</time>
</trkpt>
<trkpt lat="56.632362" lon="8.161339">
<ele>-10.847918</ele>
<time>2026-07-13T13:12:52.000Z</time>
</trkpt>
<trkpt lat="56.632366" lon="8.161435">
<ele>-10.871521</ele>
<time>2026-07-13T13:12:53.000Z</time>
</trkpt>
<trkpt lat="56.632374" lon="8.161531">
<ele>-10.895325</ele>
<time>2026-07-13T13:12:54.000Z</time>
</trkpt>
<trkpt lat="56.632381" lon="8.161627">
<ele>-10.919066</ele>
<time>2026-07-13T13:12:55.000Z</time>
</trkpt>
<trkpt lat="56.632389" lon="8.161724">
<ele>-10.943113</ele>
<time>2026-07-13T13:12:56.000Z</time>
</trkpt>
<trkpt lat="56.632397" lon="8.161822">
<ele>-10.967402</ele>
<time>2026-07-13T13:12:57.000Z</time>
</trkpt>
<trkpt lat="56.632404" lon="8.161922">
<ele>-10.992116</ele>
<time>2026-07-13T13:12:58.000Z</time>
</trkpt>
<trkpt lat="56.632412" lon="8.162023">
<ele>-11.017133</ele>
<time>2026-07-13T13:12:59.000Z</time>
</trkpt>
<trkpt lat="56.632416" lon="8.162118">
<ele>-11.040491</ele>
<time>2026-07-13T13:13:00.000Z</time>
</trkpt>
<trkpt lat="56.632420" lon="8.162210">
<ele>-11.063116</ele>
<time>2026-07-13T13:13:01.000Z</time>
</trkpt>
<trkpt lat="56.632427" lon="8.162312">
<ele>-11.088317</ele>
<time>2026-07-13T13:13:02.000Z</time>
</trkpt>
<trkpt lat="56.632435" lon="8.162411">
<ele>-11.112848</ele>
<time>2026-07-13T13:13:03.000Z</time>
</trkpt>
<trkpt lat="56.632439" lon="8.162508">
<ele>-11.136695</ele>
<time>2026-07-13T13:13:04.000Z</time>
</trkpt>
<trkpt lat="56.632446" lon="8.162604">
<ele>-11.160437</ele>
<time>2026-07-13T13:13:05.000Z</time>
</trkpt>
<trkpt lat="56.632454" lon="8.162700">
<ele>-11.184241</ele>
<time>2026-07-13T13:13:06.000Z</time>
</trkpt>
<trkpt lat="56.632465" lon="8.162796">
<ele>-11.208282</ele>
<time>2026-07-13T13:13:07.000Z</time>
</trkpt>
<trkpt lat="56.632469" lon="8.162891">
<ele>-11.231640</ele>
<time>2026-07-13T13:13:08.000Z</time>
</trkpt>
<trkpt lat="56.632473" lon="8.162979">
<ele>-11.253288</ele>
<time>2026-07-13T13:13:09.000Z</time>
</trkpt>
<trkpt lat="56.632477" lon="8.163072">
<ele>-11.276157</ele>
<time>2026-07-13T13:13:10.000Z</time>
</trkpt>
<trkpt lat="56.632481" lon="8.163163">
<ele>-11.298538</ele>
<time>2026-07-13T13:13:11.000Z</time>
</trkpt>
<trkpt lat="56.632484" lon="8.163255">
<ele>-11.321132</ele>
<time>2026-07-13T13:13:12.000Z</time>
</trkpt>
<trkpt lat="56.632492" lon="8.163348">
<ele>-11.305949</ele>
<time>2026-07-13T13:13:13.000Z</time>
</trkpt>
<trkpt lat="56.632500" lon="8.163441">
<ele>-11.237825</ele>
<time>2026-07-13T13:13:14.000Z</time>
</trkpt>
<trkpt lat="56.632507" lon="8.163534">
<ele>-11.169893</ele>
<time>2026-07-13T13:13:15.000Z</time>
</trkpt>
<trkpt lat="56.632519" lon="8.163631">
<ele>-11.097939</ele>
<time>2026-07-13T13:13:16.000Z</time>
</trkpt>
<trkpt lat="56.632523" lon="8.163724">
<ele>-11.030429</ele>
<time>2026-07-13T13:13:17.000Z</time>
</trkpt>
<trkpt lat="56.632526" lon="8.163819">
<ele>-10.961563</ele>
<time>2026-07-13T13:13:18.000Z</time>
</trkpt>
<trkpt lat="56.632534" lon="8.163911">
<ele>-10.894155</ele>
<time>2026-07-13T13:13:19.000Z</time>
</trkpt>
<trkpt lat="56.632538" lon="8.163999">
<ele>-10.830251</ele>
<time>2026-07-13T13:13:20.000Z</time>
</trkpt>
<trkpt lat="56.632545" lon="8.164089">
<ele>-10.764469</ele>
<time>2026-07-13T13:13:21.000Z</time>
</trkpt>
<trkpt lat="56.632553" lon="8.164182">
<ele>-10.696346</ele>
<time>2026-07-13T13:13:22.000Z</time>
</trkpt>
<trkpt lat="56.632557" lon="8.164276">
<ele>-10.628114</ele>
<time>2026-07-13T13:13:23.000Z</time>
</trkpt>
<trkpt lat="56.632561" lon="8.164377">
<ele>-10.554830</ele>
<time>2026-07-13T13:13:24.000Z</time>
</trkpt>
<trkpt lat="56.632568" lon="8.164475">
<ele>-10.483311</ele>
<time>2026-07-13T13:13:25.000Z</time>
</trkpt>
<trkpt lat="56.632576" lon="8.164568">
<ele>-10.415188</ele>
<time>2026-07-13T13:13:26.000Z</time>
</trkpt>
<trkpt lat="56.632580" lon="8.164661">
<ele>-10.347677</ele>
<time>2026-07-13T13:13:27.000Z</time>
</trkpt>
<trkpt lat="56.632584" lon="8.164757">
<ele>-10.278002</ele>
<time>2026-07-13T13:13:28.000Z</time>
</trkpt>
<trkpt lat="56.632591" lon="8.164855">
<ele>-10.206483</ele>
<time>2026-07-13T13:13:29.000Z</time>
</trkpt>
<trkpt lat="56.632599" lon="8.164953">
<ele>-10.134783</ele>
<time>2026-07-13T13:13:30.000Z</time>
</trkpt>
<trkpt lat="56.632603" lon="8.165054">
<ele>-10.061499</ele>
<time>2026-07-13T13:13:31.000Z</time>
</trkpt>
<trkpt lat="56.632610" lon="8.165153">
<ele>-9.989262</ele>
<time>2026-07-13T13:13:32.000Z</time>
</trkpt>
<trkpt lat="56.632614" lon="8.165246">
<ele>-9.921752</ele>
<time>2026-07-13T13:13:33.000Z</time>
</trkpt>
<trkpt lat="56.632622" lon="8.165336">
<ele>-9.855773</ele>
<time>2026-07-13T13:13:34.000Z</time>
</trkpt>
<trkpt lat="56.632626" lon="8.165410">
<ele>-9.801960</ele>
<time>2026-07-13T13:13:35.000Z</time>
</trkpt>
<trkpt lat="56.632629" lon="8.165471">
<ele>-9.757638</ele>
<time>2026-07-13T13:13:36.000Z</time>
</trkpt>
<trkpt lat="56.632633" lon="8.165517">
<ele>-9.723934</ele>
<time>2026-07-13T13:13:37.000Z</time>
</trkpt>
<trkpt lat="56.632633" lon="8.165555">
<ele>-9.696433</ele>
<time>2026-07-13T13:13:38.000Z</time>
</trkpt>
<trkpt lat="56.632637" lon="8.165594">
<ele>-9.667722</ele>
<time>2026-07-13T13:13:39.000Z</time>
</trkpt>
<trkpt lat="56.632637" lon="8.165639">
<ele>-9.635155</ele>
<time>2026-07-13T13:13:40.000Z</time>
</trkpt>
<trkpt lat="56.632641" lon="8.165688">
<ele>-9.599305</ele>
<time>2026-07-13T13:13:41.000Z</time>
</trkpt>
<trkpt lat="56.632645" lon="8.165737">
<ele>-9.563454</ele>
<time>2026-07-13T13:13:42.000Z</time>
</trkpt>
<trkpt lat="56.632648" lon="8.165788">
<ele>-9.526335</ele>
<time>2026-07-13T13:13:43.000Z</time>
</trkpt>
<trkpt lat="56.632652" lon="8.165842">
<ele>-9.486902</ele>
<time>2026-07-13T13:13:44.000Z</time>
</trkpt>
<trkpt lat="56.632656" lon="8.165898">
<ele>-9.446034</ele>
<time>2026-07-13T13:13:45.000Z</time>
</trkpt>
<trkpt lat="56.632660" lon="8.165951">
<ele>-9.407318</ele>
<time>2026-07-13T13:13:46.000Z</time>
</trkpt>
<trkpt lat="56.632668" lon="8.166001">
<ele>-9.369632</ele>
<time>2026-07-13T13:13:47.000Z</time>
</trkpt>
<trkpt lat="56.632675" lon="8.166045">
<ele>-9.336484</ele>
<time>2026-07-13T13:13:48.000Z</time>
</trkpt>
<trkpt lat="56.632683" lon="8.166082">
<ele>-9.307712</ele>
<time>2026-07-13T13:13:49.000Z</time>
</trkpt>
<trkpt lat="56.632690" lon="8.166115">
<ele>-9.282115</ele>
<time>2026-07-13T13:13:50.000Z</time>
</trkpt>
<trkpt lat="56.632702" lon="8.166148">
<ele>-9.253485</ele>
<time>2026-07-13T13:13:51.000Z</time>
</trkpt>
<trkpt lat="56.632713" lon="8.166183">
<ele>-9.224311</ele>
<time>2026-07-13T13:13:52.000Z</time>
</trkpt>
<trkpt lat="56.632721" lon="8.166218">
<ele>-9.196881</ele>
<time>2026-07-13T13:13:53.000Z</time>
</trkpt>
<trkpt lat="56.632732" lon="8.166253">
<ele>-9.167708</ele>
<time>2026-07-13T13:13:54.000Z</time>
</trkpt>
<trkpt lat="56.632740" lon="8.166288">
<ele>-9.140278</ele>
<time>2026-07-13T13:13:55.000Z</time>
</trkpt>
<trkpt lat="56.632744" lon="8.166325">
<ele>-9.112989</ele>
<time>2026-07-13T13:13:56.000Z</time>
</trkpt>
<trkpt lat="56.632751" lon="8.166365">
<ele>-9.082610</ele>
<time>2026-07-13T13:13:57.000Z</time>
</trkpt>
<trkpt lat="56.632755" lon="8.166408">
<ele>-9.051049</ele>
<time>2026-07-13T13:13:58.000Z</time>
</trkpt>
<trkpt lat="56.632763" lon="8.166451">
<ele>-9.018197</ele>
<time>2026-07-13T13:13:59.000Z</time>
</trkpt>
<trkpt lat="56.632763" lon="8.166492">
<ele>-8.988525</ele>
<time>2026-07-13T13:14:00.000Z</time>
</trkpt>
<trkpt lat="56.632767" lon="8.166533">
<ele>-8.967667</ele>
<time>2026-07-13T13:14:01.000Z</time>
</trkpt>
<trkpt lat="56.632771" lon="8.166570">
<ele>-8.967178</ele>
<time>2026-07-13T13:14:02.000Z</time>
</trkpt>
<trkpt lat="56.632778" lon="8.166602">
<ele>-8.966731</ele>
<time>2026-07-13T13:14:03.000Z</time>
</trkpt>
<trkpt lat="56.632786" lon="8.166629">
<ele>-8.966333</ele>
<time>2026-07-13T13:14:04.000Z</time>
</trkpt>
<trkpt lat="56.632793" lon="8.166649">
<ele>-8.966026</ele>
<time>2026-07-13T13:14:05.000Z</time>
</trkpt>
<trkpt lat="56.632801" lon="8.166664">
<ele>-8.965755</ele>
<time>2026-07-13T13:14:06.000Z</time>
</trkpt>
<trkpt lat="56.632809" lon="8.166673">
<ele>-8.965533</ele>
<time>2026-07-13T13:14:07.000Z</time>
</trkpt>
<trkpt lat="56.632820" lon="8.166673">
<ele>-8.965273</ele>
<time>2026-07-13T13:14:08.000Z</time>
</trkpt>
<trkpt lat="56.632832" lon="8.166656">
<ele>-8.964915</ele>
<time>2026-07-13T13:14:09.000Z</time>
</trkpt>
<trkpt lat="56.632843" lon="8.166625">
<ele>-8.964436</ele>
<time>2026-07-13T13:14:10.000Z</time>
</trkpt>
<trkpt lat="56.632854" lon="8.166581">
<ele>-8.963809</ele>
<time>2026-07-13T13:14:11.000Z</time>
</trkpt>
<trkpt lat="56.632862" lon="8.166534">
<ele>-8.963171</ele>
<time>2026-07-13T13:14:12.000Z</time>
</trkpt>
<trkpt lat="56.632870" lon="8.166483">
<ele>-8.962483</ele>
<time>2026-07-13T13:14:13.000Z</time>
</trkpt>
<trkpt lat="56.632874" lon="8.166424">
<ele>-8.961712</ele>
<time>2026-07-13T13:14:14.000Z</time>
</trkpt>
<trkpt lat="56.632877" lon="8.166360">
<ele>-8.960879</ele>
<time>2026-07-13T13:14:15.000Z</time>
</trkpt>
<trkpt lat="56.632885" lon="8.166289">
<ele>-8.959939</ele>
<time>2026-07-13T13:14:16.000Z</time>
</trkpt>
<trkpt lat="56.632889" lon="8.166217">
<ele>-8.959000</ele>
<time>2026-07-13T13:14:17.000Z</time>
</trkpt>
<trkpt lat="56.632893" lon="8.166139">
<ele>-8.957984</ele>
<time>2026-07-13T13:14:18.000Z</time>
</trkpt>
<trkpt lat="56.632900" lon="8.166055">
<ele>-8.956882</ele>
<time>2026-07-13T13:14:19.000Z</time>
</trkpt>
<trkpt lat="56.632904" lon="8.165964">
<ele>-8.955698</ele>
<time>2026-07-13T13:14:20.000Z</time>
</trkpt>
<trkpt lat="56.632912" lon="8.165874">
<ele>-8.954515</ele>
<time>2026-07-13T13:14:21.000Z</time>
</trkpt>
<trkpt lat="56.632919" lon="8.165783">
<ele>-8.953323</ele>
<time>2026-07-13T13:14:22.000Z</time>
</trkpt>
<trkpt lat="56.632931" lon="8.165689">
<ele>-8.952072</ele>
<time>2026-07-13T13:14:23.000Z</time>
</trkpt>
<trkpt lat="56.632942" lon="8.165595">
<ele>-8.950825</ele>
<time>2026-07-13T13:14:24.000Z</time>
</trkpt>
<trkpt lat="56.632961" lon="8.165506">
<ele>-8.949587</ele>
<time>2026-07-13T13:14:25.000Z</time>
</trkpt>
<trkpt lat="56.632984" lon="8.165421">
<ele>-8.948358</ele>
<time>2026-07-13T13:14:26.000Z</time>
</trkpt>
<trkpt lat="56.633019" lon="8.165340">
<ele>-8.947022</ele>
<time>2026-07-13T13:14:27.000Z</time>
</trkpt>
<trkpt lat="56.633049" lon="8.165266">
<ele>-8.945829</ele>
<time>2026-07-13T13:14:28.000Z</time>
</trkpt>
<trkpt lat="56.633083" lon="8.165189">
<ele>-8.944549</ele>
<time>2026-07-13T13:14:29.000Z</time>
</trkpt>
<trkpt lat="56.633121" lon="8.165112">
<ele>-8.943207</ele>
<time>2026-07-13T13:14:30.000Z</time>
</trkpt>
<trkpt lat="56.633156" lon="8.165035">
<ele>-8.941911</ele>
<time>2026-07-13T13:14:31.000Z</time>
</trkpt>
<trkpt lat="56.633194" lon="8.164957">
<ele>-8.940559</ele>
<time>2026-07-13T13:14:32.000Z</time>
</trkpt>
<trkpt lat="56.633228" lon="8.164881">
<ele>-8.939289</ele>
<time>2026-07-13T13:14:33.000Z</time>
</trkpt>
<trkpt lat="56.633259" lon="8.164803">
<ele>-8.938041</ele>
<time>2026-07-13T13:14:34.000Z</time>
</trkpt>
<trkpt lat="56.633293" lon="8.164728">
<ele>-8.936780</ele>
<time>2026-07-13T13:14:35.000Z</time>
</trkpt>
<trkpt lat="56.633331" lon="8.164651">
<ele>-8.935438</ele>
<time>2026-07-13T13:14:36.000Z</time>
</trkpt>
<trkpt lat="56.633366" lon="8.164574">
<ele>-8.934142</ele>
<time>2026-07-13T13:14:37.000Z</time>
</trkpt>
<trkpt lat="56.633400" lon="8.164493">
<ele>-8.932821</ele>
<time>2026-07-13T13:14:38.000Z</time>
</trkpt>
<trkpt lat="56.633434" lon="8.164415">
<ele>-8.931530</ele>
<time>2026-07-13T13:14:39.000Z</time>
</trkpt>
<trkpt lat="56.633472" lon="8.164331">
<ele>-8.930119</ele>
<time>2026-07-13T13:14:40.000Z</time>
</trkpt>
<trkpt lat="56.633511" lon="8.164248">
<ele>-8.928703</ele>
<time>2026-07-13T13:14:41.000Z</time>
</trkpt>
<trkpt lat="56.633549" lon="8.164166">
<ele>-8.927312</ele>
<time>2026-07-13T13:14:42.000Z</time>
</trkpt>
<trkpt lat="56.633583" lon="8.164085">
<ele>-8.925990</ele>
<time>2026-07-13T13:14:43.000Z</time>
</trkpt>
<trkpt lat="56.633617" lon="8.164005">
<ele>-8.936718</ele>
<time>2026-07-13T13:14:44.000Z</time>
</trkpt>
<trkpt lat="56.633656" lon="8.163921">
<ele>-8.958542</ele>
<time>2026-07-13T13:14:45.000Z</time>
</trkpt>
<trkpt lat="56.633694" lon="8.163837">
<ele>-8.980134</ele>
<time>2026-07-13T13:14:46.000Z</time>
</trkpt>
<trkpt lat="56.633736" lon="8.163755">
<ele>-9.002379</ele>
<time>2026-07-13T13:14:47.000Z</time>
</trkpt>
<trkpt lat="56.633774" lon="8.163670">
<ele>-9.024125</ele>
<time>2026-07-13T13:14:48.000Z</time>
</trkpt>
<trkpt lat="56.633812" lon="8.163585">
<ele>-9.045871</ele>
<time>2026-07-13T13:14:49.000Z</time>
</trkpt>
<trkpt lat="56.633850" lon="8.163499">
<ele>-9.067771</ele>
<time>2026-07-13T13:14:50.000Z</time>
</trkpt>
<trkpt lat="56.633888" lon="8.163411">
<ele>-9.089983</ele>
<time>2026-07-13T13:14:51.000Z</time>
</trkpt>
<trkpt lat="56.633926" lon="8.163323">
<ele>-9.112194</ele>
<time>2026-07-13T13:14:52.000Z</time>
</trkpt>
<trkpt lat="56.633968" lon="8.163237">
<ele>-9.135026</ele>
<time>2026-07-13T13:14:53.000Z</time>
</trkpt>
<trkpt lat="56.634010" lon="8.163149">
<ele>-9.158157</ele>
<time>2026-07-13T13:14:54.000Z</time>
</trkpt>
<trkpt lat="56.634048" lon="8.163065">
<ele>-9.179749</ele>
<time>2026-07-13T13:14:55.000Z</time>
</trkpt>
<trkpt lat="56.634094" lon="8.162981">
<ele>-9.203282</ele>
<time>2026-07-13T13:14:56.000Z</time>
</trkpt>
<trkpt lat="56.634140" lon="8.162896">
<ele>-9.226955</ele>
<time>2026-07-13T13:14:57.000Z</time>
</trkpt>
<trkpt lat="56.634182" lon="8.162814">
<ele>-9.249200</ele>
<time>2026-07-13T13:14:58.000Z</time>
</trkpt>
<trkpt lat="56.634228" lon="8.162733">
<ele>-9.272314</ele>
<time>2026-07-13T13:14:59.000Z</time>
</trkpt>
<trkpt lat="56.634274" lon="8.162653">
<ele>-9.295291</ele>
<time>2026-07-13T13:15:00.000Z</time>
</trkpt>
<trkpt lat="56.634323" lon="8.162575">
<ele>-9.318798</ele>
<time>2026-07-13T13:15:01.000Z</time>
</trkpt>
<trkpt lat="56.634369" lon="8.162499">
<ele>-9.341233</ele>
<time>2026-07-13T13:15:02.000Z</time>
</trkpt>
<trkpt lat="56.634415" lon="8.162426">
<ele>-9.363272</ele>
<time>2026-07-13T13:15:03.000Z</time>
</trkpt>
<trkpt lat="56.634457" lon="8.162355">
<ele>-9.383973</ele>
<time>2026-07-13T13:15:04.000Z</time>
</trkpt>
<trkpt lat="56.634502" lon="8.162288">
<ele>-9.404967</ele>
<time>2026-07-13T13:15:05.000Z</time>
</trkpt>
<trkpt lat="56.634544" lon="8.162224">
<ele>-9.424747</ele>
<time>2026-07-13T13:15:06.000Z</time>
</trkpt>
<trkpt lat="56.634586" lon="8.162161">
<ele>-9.444400</ele>
<time>2026-07-13T13:15:07.000Z</time>
</trkpt>
<trkpt lat="56.634628" lon="8.162100">
<ele>-9.463803</ele>
<time>2026-07-13T13:15:08.000Z</time>
</trkpt>
<trkpt lat="56.634670" lon="8.162044">
<ele>-9.482603</ele>
<time>2026-07-13T13:15:09.000Z</time>
</trkpt>
<trkpt lat="56.634712" lon="8.161987">
<ele>-9.501520</ele>
<time>2026-07-13T13:15:10.000Z</time>
</trkpt>
<trkpt lat="56.634754" lon="8.161929">
<ele>-9.520557</ele>
<time>2026-07-13T13:15:11.000Z</time>
</trkpt>
<trkpt lat="56.634800" lon="8.161869">
<ele>-9.540992</ele>
<time>2026-07-13T13:15:12.000Z</time>
</trkpt>
<trkpt lat="56.634846" lon="8.161809">
<ele>-9.561426</ele>
<time>2026-07-13T13:15:13.000Z</time>
</trkpt>
<trkpt lat="56.634892" lon="8.161751">
<ele>-9.571240</ele>
<time>2026-07-13T13:15:14.000Z</time>
</trkpt>
<trkpt lat="56.634941" lon="8.161692">
<ele>-9.560867</ele>
<time>2026-07-13T13:15:15.000Z</time>
</trkpt>
<trkpt lat="56.634987" lon="8.161632">
<ele>-9.550875</ele>
<time>2026-07-13T13:15:16.000Z</time>
</trkpt>
<trkpt lat="56.635044" lon="8.161573">
<ele>-9.539298</ele>
<time>2026-07-13T13:15:17.000Z</time>
</trkpt>
<trkpt lat="56.635097" lon="8.161511">
<ele>-9.528174</ele>
<time>2026-07-13T13:15:18.000Z</time>
</trkpt>
<trkpt lat="56.635151" lon="8.161452">
<ele>-9.517055</ele>
<time>2026-07-13T13:15:19.000Z</time>
</trkpt>
<trkpt lat="56.635208" lon="8.161393">
<ele>-9.505478</ele>
<time>2026-07-13T13:15:20.000Z</time>
</trkpt>
<trkpt lat="56.635265" lon="8.161336">
<ele>-9.493996</ele>
<time>2026-07-13T13:15:21.000Z</time>
</trkpt>
<trkpt lat="56.635323" lon="8.161283">
<ele>-9.482538</ele>
<time>2026-07-13T13:15:22.000Z</time>
</trkpt>
<trkpt lat="56.635380" lon="8.161230">
<ele>-9.471238</ele>
<time>2026-07-13T13:15:23.000Z</time>
</trkpt>
<trkpt lat="56.635437" lon="8.161179">
<ele>-9.460025</ele>
<time>2026-07-13T13:15:24.000Z</time>
</trkpt>
<trkpt lat="56.635494" lon="8.161129">
<ele>-9.448855</ele>
<time>2026-07-13T13:15:25.000Z</time>
</trkpt>
<trkpt lat="56.635551" lon="8.161080">
<ele>-9.437726</ele>
<time>2026-07-13T13:15:26.000Z</time>
</trkpt>
<trkpt lat="56.635609" lon="8.161034">
<ele>-9.426557</ele>
<time>2026-07-13T13:15:27.000Z</time>
</trkpt>
<trkpt lat="56.635670" lon="8.160989">
<ele>-9.414938</ele>
<time>2026-07-13T13:15:28.000Z</time>
</trkpt>
<trkpt lat="56.635723" lon="8.160943">
<ele>-9.404572</ele>
<time>2026-07-13T13:15:29.000Z</time>
</trkpt>
<trkpt lat="56.635780" lon="8.160900">
<ele>-9.393680</ele>
<time>2026-07-13T13:15:30.000Z</time>
</trkpt>
<trkpt lat="56.635834" lon="8.160860">
<ele>-9.383388</ele>
<time>2026-07-13T13:15:31.000Z</time>
</trkpt>
<trkpt lat="56.635891" lon="8.160823">
<ele>-9.372705</ele>
<time>2026-07-13T13:15:32.000Z</time>
</trkpt>
<trkpt lat="56.635948" lon="8.160788">
<ele>-9.362086</ele>
<time>2026-07-13T13:15:33.000Z</time>
</trkpt>
<trkpt lat="56.636005" lon="8.160752">
<ele>-9.351435</ele>
<time>2026-07-13T13:15:34.000Z</time>
</trkpt>
<trkpt lat="56.636059" lon="8.160717">
<ele>-9.341317</ele>
<time>2026-07-13T13:15:35.000Z</time>
</trkpt>
<trkpt lat="56.636112" lon="8.160682">
<ele>-9.331364</ele>
<time>2026-07-13T13:15:36.000Z</time>
</trkpt>
<trkpt lat="56.636166" lon="8.160649">
<ele>-9.321309</ele>
<time>2026-07-13T13:15:37.000Z</time>
</trkpt>
<trkpt lat="56.636223" lon="8.160617">
<ele>-9.310779</ele>
<time>2026-07-13T13:15:38.000Z</time>
</trkpt>
<trkpt lat="56.636280" lon="8.160584">
<ele>-9.300221</ele>
<time>2026-07-13T13:15:39.000Z</time>
</trkpt>
<trkpt lat="56.636341" lon="8.160550">
<ele>-9.288959</ele>
<time>2026-07-13T13:15:40.000Z</time>
</trkpt>
<trkpt lat="56.636395" lon="8.160520">
<ele>-9.278993</ele>
<time>2026-07-13T13:15:41.000Z</time>
</trkpt>
<trkpt lat="56.636456" lon="8.160491">
<ele>-9.267864</ele>
<time>2026-07-13T13:15:42.000Z</time>
</trkpt>
<trkpt lat="56.636513" lon="8.160463">
<ele>-9.257443</ele>
<time>2026-07-13T13:15:43.000Z</time>
</trkpt>
<trkpt lat="56.636570" lon="8.160439">
<ele>-9.270474</ele>
<time>2026-07-13T13:15:44.000Z</time>
</trkpt>
<trkpt lat="56.636627" lon="8.160412">
<ele>-9.284207</ele>
<time>2026-07-13T13:15:45.000Z</time>
</trkpt>
<trkpt lat="56.636684" lon="8.160385">
<ele>-9.297939</ele>
<time>2026-07-13T13:15:46.000Z</time>
</trkpt>
<trkpt lat="56.636745" lon="8.160360">
<ele>-9.312517</ele>
<time>2026-07-13T13:15:47.000Z</time>
</trkpt>
<trkpt lat="56.636806" lon="8.160337">
<ele>-9.327040</ele>
<time>2026-07-13T13:15:48.000Z</time>
</trkpt>
<trkpt lat="56.636864" lon="8.160311">
<ele>-9.340967</ele>
<time>2026-07-13T13:15:49.000Z</time>
</trkpt>
<trkpt lat="56.636925" lon="8.160289">
<ele>-9.355465</ele>
<time>2026-07-13T13:15:50.000Z</time>
</trkpt>
<trkpt lat="56.636986" lon="8.160266">
<ele>-9.369989</ele>
<time>2026-07-13T13:15:51.000Z</time>
</trkpt>
<trkpt lat="56.637047" lon="8.160245">
<ele>-9.384463</ele>
<time>2026-07-13T13:15:52.000Z</time>
</trkpt>
<trkpt lat="56.637108" lon="8.160227">
<ele>-9.398870</ele>
<time>2026-07-13T13:15:53.000Z</time>
</trkpt>
<trkpt lat="56.637173" lon="8.160211">
<ele>-9.414162</ele>
<time>2026-07-13T13:15:54.000Z</time>
</trkpt>
<trkpt lat="56.637234" lon="8.160194">
<ele>-9.428549</ele>
<time>2026-07-13T13:15:55.000Z</time>
</trkpt>
<trkpt lat="56.637299" lon="8.160179">
<ele>-9.443824</ele>
<time>2026-07-13T13:15:56.000Z</time>
</trkpt>
<trkpt lat="56.637360" lon="8.160165">
<ele>-9.458158</ele>
<time>2026-07-13T13:15:57.000Z</time>
</trkpt>
<trkpt lat="56.637421" lon="8.160155">
<ele>-9.472437</ele>
<time>2026-07-13T13:15:58.000Z</time>
</trkpt>
<trkpt lat="56.637482" lon="8.160147">
<ele>-9.486695</ele>
<time>2026-07-13T13:15:59.000Z</time>
</trkpt>
<trkpt lat="56.637539" lon="8.160137">
<ele>-9.500046</ele>
<time>2026-07-13T13:16:00.000Z</time>
</trkpt>
<trkpt lat="56.637596" lon="8.160128">
<ele>-9.513384</ele>
<time>2026-07-13T13:16:01.000Z</time>
</trkpt>
<trkpt lat="56.637650" lon="8.160120">
<ele>-9.526015</ele>
<time>2026-07-13T13:16:02.000Z</time>
</trkpt>
<trkpt lat="56.637703" lon="8.160113">
<ele>-9.538404</ele>
<time>2026-07-13T13:16:03.000Z</time>
</trkpt>
<trkpt lat="56.637756" lon="8.160110">
<ele>-9.550766</ele>
<time>2026-07-13T13:16:04.000Z</time>
</trkpt>
<trkpt lat="56.637806" lon="8.160110">
<ele>-9.562423</ele>
<time>2026-07-13T13:16:05.000Z</time>
</trkpt>
<trkpt lat="56.637852" lon="8.160107">
<ele>-9.573154</ele>
<time>2026-07-13T13:16:06.000Z</time>
</trkpt>
<trkpt lat="56.637901" lon="8.160106">
<ele>-9.584578</ele>
<time>2026-07-13T13:16:07.000Z</time>
</trkpt>
<trkpt lat="56.637947" lon="8.160104">
<ele>-9.595305</ele>
<time>2026-07-13T13:16:08.000Z</time>
</trkpt>
<trkpt lat="56.637997" lon="8.160104">
<ele>-9.606962</ele>
<time>2026-07-13T13:16:09.000Z</time>
</trkpt>
<trkpt lat="56.638046" lon="8.160105">
<ele>-9.618386</ele>
<time>2026-07-13T13:16:10.000Z</time>
</trkpt>
<trkpt lat="56.638092" lon="8.160107">
<ele>-9.629114</ele>
<time>2026-07-13T13:16:11.000Z</time>
</trkpt>
<trkpt lat="56.638142" lon="8.160107">
<ele>-9.640770</ele>
<time>2026-07-13T13:16:12.000Z</time>
</trkpt>
<trkpt lat="56.638191" lon="8.160110">
<ele>-9.652200</ele>
<time>2026-07-13T13:16:13.000Z</time>
</trkpt>
<trkpt lat="56.638241" lon="8.160114">
<ele>-9.663868</ele>
<time>2026-07-13T13:16:14.000Z</time>
</trkpt>
<trkpt lat="56.638294" lon="8.160120">
<ele>-9.676248</ele>
<time>2026-07-13T13:16:15.000Z</time>
</trkpt>
<trkpt lat="56.638348" lon="8.160127">
<ele>-9.691602</ele>
<time>2026-07-13T13:16:16.000Z</time>
</trkpt>
<trkpt lat="56.638397" lon="8.160133">
<ele>-9.705581</ele>
<time>2026-07-13T13:16:17.000Z</time>
</trkpt>
<trkpt lat="56.638451" lon="8.160140">
<ele>-9.720992</ele>
<time>2026-07-13T13:16:18.000Z</time>
</trkpt>
<trkpt lat="56.638504" lon="8.160144">
<ele>-9.736091</ele>
<time>2026-07-13T13:16:19.000Z</time>
</trkpt>
<trkpt lat="56.638561" lon="8.160151">
<ele>-9.752354</ele>
<time>2026-07-13T13:16:20.000Z</time>
</trkpt>
<trkpt lat="56.638618" lon="8.160161">
<ele>-9.768654</ele>
<time>2026-07-13T13:16:21.000Z</time>
</trkpt>
<trkpt lat="56.638668" lon="8.160171">
<ele>-9.782973</ele>
<time>2026-07-13T13:16:22.000Z</time>
</trkpt>
<trkpt lat="56.638725" lon="8.160182">
<ele>-9.799289</ele>
<time>2026-07-13T13:16:23.000Z</time>
</trkpt>
<trkpt lat="56.638783" lon="8.160195">
<ele>-9.815924</ele>
<time>2026-07-13T13:16:24.000Z</time>
</trkpt>
<trkpt lat="56.638836" lon="8.160210">
<ele>-9.831192</ele>
<time>2026-07-13T13:16:25.000Z</time>
</trkpt>
<trkpt lat="56.638893" lon="8.160226">
<ele>-9.847610</ele>
<time>2026-07-13T13:16:26.000Z</time>
</trkpt>
<trkpt lat="56.638950" lon="8.160244">
<ele>-9.864078</ele>
<time>2026-07-13T13:16:27.000Z</time>
</trkpt>
<trkpt lat="56.639008" lon="8.160261">
<ele>-9.880801</ele>
<time>2026-07-13T13:16:28.000Z</time>
</trkpt>
<trkpt lat="56.639065" lon="8.160280">
<ele>-9.897297</ele>
<time>2026-07-13T13:16:29.000Z</time>
</trkpt>
<trkpt lat="56.639114" lon="8.160297">
<ele>-9.911496</ele>
<time>2026-07-13T13:16:30.000Z</time>
</trkpt>
<trkpt lat="56.639168" lon="8.160315">
<ele>-9.927124</ele>
<time>2026-07-13T13:16:31.000Z</time>
</trkpt>
<trkpt lat="56.639221" lon="8.160337">
<ele>-9.942599</ele>
<time>2026-07-13T13:16:32.000Z</time>
</trkpt>
<trkpt lat="56.639275" lon="8.160360">
<ele>-9.958386</ele>
<time>2026-07-13T13:16:33.000Z</time>
</trkpt>
<trkpt lat="56.639328" lon="8.160385">
<ele>-9.973972</ele>
<time>2026-07-13T13:16:34.000Z</time>
</trkpt>
<trkpt lat="56.639385" lon="8.160412">
<ele>-9.990739</ele>
<time>2026-07-13T13:16:35.000Z</time>
</trkpt>
<trkpt lat="56.639435" lon="8.160436">
<ele>-10.005459</ele>
<time>2026-07-13T13:16:36.000Z</time>
</trkpt>
<trkpt lat="56.639488" lon="8.160460">
<ele>-10.021006</ele>
<time>2026-07-13T13:16:37.000Z</time>
</trkpt>
<trkpt lat="56.639542" lon="8.160491">
<ele>-10.037125</ele>
<time>2026-07-13T13:16:38.000Z</time>
</trkpt>
<trkpt lat="56.639599" lon="8.160522">
<ele>-10.054061</ele>
<time>2026-07-13T13:16:39.000Z</time>
</trkpt>
<trkpt lat="56.639656" lon="8.160551">
<ele>-10.070909</ele>
<time>2026-07-13T13:16:40.000Z</time>
</trkpt>
<trkpt lat="56.639713" lon="8.160579">
<ele>-10.087716</ele>
<time>2026-07-13T13:16:41.000Z</time>
</trkpt>
<trkpt lat="56.639770" lon="8.160606">
<ele>-10.104482</ele>
<time>2026-07-13T13:16:42.000Z</time>
</trkpt>
<trkpt lat="56.639824" lon="8.160636">
<ele>-10.120555</ele>
<time>2026-07-13T13:16:43.000Z</time>
</trkpt>
<trkpt lat="56.639881" lon="8.160667">
<ele>-10.137490</ele>
<time>2026-07-13T13:16:44.000Z</time>
</trkpt>
<trkpt lat="56.639935" lon="8.160697">
<ele>-10.153563</ele>
<time>2026-07-13T13:16:45.000Z</time>
</trkpt>
<trkpt lat="56.639988" lon="8.160729">
<ele>-10.169460</ele>
<time>2026-07-13T13:16:46.000Z</time>
</trkpt>
<trkpt lat="56.640038" lon="8.160761">
<ele>-10.184548</ele>
<time>2026-07-13T13:16:47.000Z</time>
</trkpt>
<trkpt lat="56.640091" lon="8.160791">
<ele>-10.172135</ele>
<time>2026-07-13T13:16:48.000Z</time>
</trkpt>
<trkpt lat="56.640141" lon="8.160822">
<ele>-10.151374</ele>
<time>2026-07-13T13:16:49.000Z</time>
</trkpt>
<trkpt lat="56.640190" lon="8.160856">
<ele>-10.130763</ele>
<time>2026-07-13T13:16:50.000Z</time>
</trkpt>
<trkpt lat="56.640240" lon="8.160890">
<ele>-10.109784</ele>
<time>2026-07-13T13:16:51.000Z</time>
</trkpt>
<trkpt lat="56.640293" lon="8.160923">
<ele>-10.087767</ele>
<time>2026-07-13T13:16:52.000Z</time>
</trkpt>
<trkpt lat="56.640346" lon="8.160958">
<ele>-10.065608</ele>
<time>2026-07-13T13:16:53.000Z</time>
</trkpt>
<trkpt lat="56.640392" lon="8.160992">
<ele>-10.046093</ele>
<time>2026-07-13T13:16:54.000Z</time>
</trkpt>
<trkpt lat="56.640446" lon="8.161026">
<ele>-10.023635</ele>
<time>2026-07-13T13:16:55.000Z</time>
</trkpt>
<trkpt lat="56.640499" lon="8.161061">
<ele>-10.001475</ele>
<time>2026-07-13T13:16:56.000Z</time>
</trkpt>
<trkpt lat="56.640553" lon="8.161095">
<ele>-9.979017</ele>
<time>2026-07-13T13:16:57.000Z</time>
</trkpt>
<trkpt lat="56.640606" lon="8.161126">
<ele>-9.957137</ele>
<time>2026-07-13T13:16:58.000Z</time>
</trkpt>
<trkpt lat="56.640659" lon="8.161155">
<ele>-9.935386</ele>
<time>2026-07-13T13:16:59.000Z</time>
</trkpt>
<trkpt lat="56.640709" lon="8.161182">
<ele>-9.914887</ele>
<time>2026-07-13T13:17:00.000Z</time>
</trkpt>
<trkpt lat="56.640766" lon="8.161210">
<ele>-9.891683</ele>
<time>2026-07-13T13:17:01.000Z</time>
</trkpt>
<trkpt lat="56.640820" lon="8.161239">
<ele>-9.869555</ele>
<time>2026-07-13T13:17:02.000Z</time>
</trkpt>
<trkpt lat="56.640873" lon="8.161267">
<ele>-9.847865</ele>
<time>2026-07-13T13:17:03.000Z</time>
</trkpt>
<trkpt lat="56.640923" lon="8.161296">
<ele>-9.827240</ele>
<time>2026-07-13T13:17:04.000Z</time>
</trkpt>
<trkpt lat="56.640976" lon="8.161325">
<ele>-9.805488</ele>
<time>2026-07-13T13:17:05.000Z</time>
</trkpt>
<trkpt lat="56.641033" lon="8.161356">
<ele>-9.782107</ele>
<time>2026-07-13T13:17:06.000Z</time>
</trkpt>
<trkpt lat="56.641087" lon="8.161387">
<ele>-9.759852</ele>
<time>2026-07-13T13:17:07.000Z</time>
</trkpt>
<trkpt lat="56.641136" lon="8.161420">
<ele>-9.739317</ele>
<time>2026-07-13T13:17:08.000Z</time>
</trkpt>
<trkpt lat="56.641186" lon="8.161453">
<ele>-9.718413</ele>
<time>2026-07-13T13:17:09.000Z</time>
</trkpt>
<trkpt lat="56.641239" lon="8.161486">
<ele>-9.696397</ele>
<time>2026-07-13T13:17:10.000Z</time>
</trkpt>
<trkpt lat="56.641293" lon="8.161521">
<ele>-9.673867</ele>
<time>2026-07-13T13:17:11.000Z</time>
</trkpt>
<trkpt lat="56.641342" lon="8.161556">
<ele>-9.653178</ele>
<time>2026-07-13T13:17:12.000Z</time>
</trkpt>
<trkpt lat="56.641392" lon="8.161592">
<ele>-9.632044</ele>
<time>2026-07-13T13:17:13.000Z</time>
</trkpt>
<trkpt lat="56.641445" lon="8.161626">
<ele>-9.609957</ele>
<time>2026-07-13T13:17:14.000Z</time>
</trkpt>
<trkpt lat="56.641495" lon="8.161656">
<ele>-9.589265</ele>
<time>2026-07-13T13:17:15.000Z</time>
</trkpt>
<trkpt lat="56.641540" lon="8.161688">
<ele>-9.570276</ele>
<time>2026-07-13T13:17:16.000Z</time>
</trkpt>
<trkpt lat="56.641590" lon="8.161719">
<ele>-9.549515</ele>
<time>2026-07-13T13:17:17.000Z</time>
</trkpt>
<trkpt lat="56.641632" lon="8.161749">
<ele>-9.531782</ele>
<time>2026-07-13T13:17:18.000Z</time>
</trkpt>
<trkpt lat="56.641678" lon="8.161781">
<ele>-9.512426</ele>
<time>2026-07-13T13:17:19.000Z</time>
</trkpt>
<trkpt lat="56.641724" lon="8.161814">
<ele>-9.492992</ele>
<time>2026-07-13T13:17:20.000Z</time>
</trkpt>
<trkpt lat="56.641777" lon="8.161844">
<ele>-9.477419</ele>
<time>2026-07-13T13:17:21.000Z</time>
</trkpt>
<trkpt lat="56.641827" lon="8.161874">
<ele>-9.469087</ele>
<time>2026-07-13T13:17:22.000Z</time>
</trkpt>
<trkpt lat="56.641876" lon="8.161903">
<ele>-9.460933</ele>
<time>2026-07-13T13:17:23.000Z</time>
</trkpt>
<trkpt lat="56.641926" lon="8.161932">
<ele>-9.452628</ele>
<time>2026-07-13T13:17:24.000Z</time>
</trkpt>
<trkpt lat="56.641975" lon="8.161963">
<ele>-9.444419</ele>
<time>2026-07-13T13:17:25.000Z</time>
</trkpt>
<trkpt lat="56.642021" lon="8.161993">
<ele>-9.436685</ele>
<time>2026-07-13T13:17:26.000Z</time>
</trkpt>
<trkpt lat="56.642067" lon="8.162023">
<ele>-9.428952</ele>
<time>2026-07-13T13:17:27.000Z</time>
</trkpt>
<trkpt lat="56.642109" lon="8.162054">
<ele>-9.421780</ele>
<time>2026-07-13T13:17:28.000Z</time>
</trkpt>
<trkpt lat="56.642151" lon="8.162083">
<ele>-9.414670</ele>
<time>2026-07-13T13:17:29.000Z</time>
</trkpt>
<trkpt lat="56.642193" lon="8.162110">
<ele>-9.407621</ele>
<time>2026-07-13T13:17:30.000Z</time>
</trkpt>
<trkpt lat="56.642235" lon="8.162134">
<ele>-9.400655</ele>
<time>2026-07-13T13:17:31.000Z</time>
</trkpt>
<trkpt lat="56.642277" lon="8.162157">
<ele>-9.393714</ele>
<time>2026-07-13T13:17:32.000Z</time>
</trkpt>
<trkpt lat="56.642315" lon="8.162181">
<ele>-9.387348</ele>
<time>2026-07-13T13:17:33.000Z</time>
</trkpt>
<trkpt lat="56.642357" lon="8.162206">
<ele>-9.380355</ele>
<time>2026-07-13T13:17:34.000Z</time>
</trkpt>
<trkpt lat="56.642395" lon="8.162228">
<ele>-9.374044</ele>
<time>2026-07-13T13:17:35.000Z</time>
</trkpt>
<trkpt lat="56.642433" lon="8.162251">
<ele>-9.367707</ele>
<time>2026-07-13T13:17:36.000Z</time>
</trkpt>
<trkpt lat="56.642471" lon="8.162271">
<ele>-9.361447</ele>
<time>2026-07-13T13:17:37.000Z</time>
</trkpt>
<trkpt lat="56.642509" lon="8.162295">
<ele>-9.355081</ele>
<time>2026-07-13T13:17:38.000Z</time>
</trkpt>
<trkpt lat="56.642555" lon="8.162322">
<ele>-9.347432</ele>
<time>2026-07-13T13:17:39.000Z</time>
</trkpt>
<trkpt lat="56.642597" lon="8.162349">
<ele>-9.340383</ele>
<time>2026-07-13T13:17:40.000Z</time>
</trkpt>
<trkpt lat="56.642643" lon="8.162375">
<ele>-9.332760</ele>
<time>2026-07-13T13:17:41.000Z</time>
</trkpt>
<trkpt lat="56.642689" lon="8.162401">
<ele>-9.325138</ele>
<time>2026-07-13T13:17:42.000Z</time>
</trkpt>
<trkpt lat="56.642731" lon="8.162428">
<ele>-9.318088</ele>
<time>2026-07-13T13:17:43.000Z</time>
</trkpt>
<trkpt lat="56.642776" lon="8.162456">
<ele>-9.310562</ele>
<time>2026-07-13T13:17:44.000Z</time>
</trkpt>
<trkpt lat="56.642818" lon="8.162487">
<ele>-9.303390</ele>
<time>2026-07-13T13:17:45.000Z</time>
</trkpt>
<trkpt lat="56.642864" lon="8.162517">
<ele>-9.295656</ele>
<time>2026-07-13T13:17:46.000Z</time>
</trkpt>
<trkpt lat="56.642910" lon="8.162543">
<ele>-9.288034</ele>
<time>2026-07-13T13:17:47.000Z</time>
</trkpt>
<trkpt lat="56.642952" lon="8.162572">
<ele>-9.280925</ele>
<time>2026-07-13T13:17:48.000Z</time>
</trkpt>
<trkpt lat="56.642994" lon="8.162600">
<ele>-9.273846</ele>
<time>2026-07-13T13:17:49.000Z</time>
</trkpt>
<trkpt lat="56.643032" lon="8.162624">
<ele>-9.267480</ele>
<time>2026-07-13T13:17:50.000Z</time>
</trkpt>
<trkpt lat="56.643074" lon="8.162646">
<ele>-9.260564</ele>
<time>2026-07-13T13:17:51.000Z</time>
</trkpt>
<trkpt lat="56.643112" lon="8.162664">
<ele>-9.254350</ele>
<time>2026-07-13T13:17:52.000Z</time>
</trkpt>
<trkpt lat="56.643154" lon="8.162685">
<ele>-9.247457</ele>
<time>2026-07-13T13:17:53.000Z</time>
</trkpt>
<trkpt lat="56.643200" lon="8.162715">
<ele>-9.239724</ele>
<time>2026-07-13T13:17:54.000Z</time>
</trkpt>
<trkpt lat="56.643246" lon="8.162743">
<ele>-9.232048</ele>
<time>2026-07-13T13:17:55.000Z</time>
</trkpt>
<trkpt lat="56.643291" lon="8.162766">
<ele>-9.224651</ele>
<time>2026-07-13T13:17:56.000Z</time>
</trkpt>
<trkpt lat="56.643333" lon="8.162791">
<ele>-9.217658</ele>
<time>2026-07-13T13:17:57.000Z</time>
</trkpt>
<trkpt lat="56.643375" lon="8.162818">
<ele>-9.210609</ele>
<time>2026-07-13T13:17:58.000Z</time>
</trkpt>
<trkpt lat="56.643417" lon="8.162846">
<ele>-9.203530</ele>
<time>2026-07-13T13:17:59.000Z</time>
</trkpt>
<trkpt lat="56.643459" lon="8.162876">
<ele>-9.197232</ele>
<time>2026-07-13T13:18:00.000Z</time>
</trkpt>
<trkpt lat="56.643501" lon="8.162905">
<ele>-9.199893</ele>
<time>2026-07-13T13:18:01.000Z</time>
</trkpt>
<trkpt lat="56.643543" lon="8.162930">
<ele>-9.202511</ele>
<time>2026-07-13T13:18:02.000Z</time>
</trkpt>
<trkpt lat="56.643581" lon="8.162952">
<ele>-9.204873</ele>
<time>2026-07-13T13:18:03.000Z</time>
</trkpt>
<trkpt lat="56.643623" lon="8.162974">
<ele>-9.207462</ele>
<time>2026-07-13T13:18:04.000Z</time>
</trkpt>
<trkpt lat="56.643658" lon="8.162995">
<ele>-9.209646</ele>
<time>2026-07-13T13:18:05.000Z</time>
</trkpt>
<trkpt lat="56.643696" lon="8.163016">
<ele>-9.211998</ele>
<time>2026-07-13T13:18:06.000Z</time>
</trkpt>
<trkpt lat="56.643730" lon="8.163037">
<ele>-9.214125</ele>
<time>2026-07-13T13:18:07.000Z</time>
</trkpt>
<trkpt lat="56.643761" lon="8.163057">
<ele>-9.216074</ele>
<time>2026-07-13T13:18:08.000Z</time>
</trkpt>
<trkpt lat="56.643795" lon="8.163074">
<ele>-9.218163</ele>
<time>2026-07-13T13:18:09.000Z</time>
</trkpt>
<trkpt lat="56.643822" lon="8.163087">
<ele>-9.219817</ele>
<time>2026-07-13T13:18:10.000Z</time>
</trkpt>
<trkpt lat="56.643845" lon="8.163095">
<ele>-9.221204</ele>
<time>2026-07-13T13:18:11.000Z</time>
</trkpt>
<trkpt lat="56.643864" lon="8.163103">
<ele>-9.222360</ele>
<time>2026-07-13T13:18:12.000Z</time>
</trkpt>
<trkpt lat="56.643974" lon="8.163200">
<ele>-9.229601</ele>
<time>2026-07-13T13:29:50.000Z</time>
</trkpt>
<trkpt lat="56.644005" lon="8.163218">
<ele>-9.231529</ele>
<time>2026-07-13T13:29:51.000Z</time>
</trkpt>
<trkpt lat="56.644035" lon="8.163236">
<ele>-9.233400</ele>
<time>2026-07-13T13:29:52.000Z</time>
</trkpt>
<trkpt lat="56.644066" lon="8.163253">
<ele>-9.235318</ele>
<time>2026-07-13T13:29:53.000Z</time>
</trkpt>
<trkpt lat="56.644100" lon="8.163272">
<ele>-9.237425</ele>
<time>2026-07-13T13:29:54.000Z</time>
</trkpt>
<trkpt lat="56.644135" lon="8.163294">
<ele>-9.239619</ele>
<time>2026-07-13T13:29:55.000Z</time>
</trkpt>
<trkpt lat="56.644165" lon="8.163315">
<ele>-9.241523</ele>
<time>2026-07-13T13:29:56.000Z</time>
</trkpt>
<trkpt lat="56.644203" lon="8.163340">
<ele>-9.243917</ele>
<time>2026-07-13T13:29:57.000Z</time>
</trkpt>
<trkpt lat="56.644245" lon="8.163362">
<ele>-9.246506</ele>
<time>2026-07-13T13:29:58.000Z</time>
</trkpt>
<trkpt lat="56.644283" lon="8.163382">
<ele>-9.248849</ele>
<time>2026-07-13T13:29:59.000Z</time>
</trkpt>
<trkpt lat="56.644318" lon="8.163404">
<ele>-9.251043</ele>
<time>2026-07-13T13:30:00.000Z</time>
</trkpt>
<trkpt lat="56.644356" lon="8.163426">
<ele>-9.253405</ele>
<time>2026-07-13T13:30:01.000Z</time>
</trkpt>
<trkpt lat="56.644390" lon="8.163451">
<ele>-9.255578</ele>
<time>2026-07-13T13:30:02.000Z</time>
</trkpt>
<trkpt lat="56.644428" lon="8.163475">
<ele>-9.257961</ele>
<time>2026-07-13T13:30:03.000Z</time>
</trkpt>
<trkpt lat="56.644463" lon="8.163498">
<ele>-9.260165</ele>
<time>2026-07-13T13:30:04.000Z</time>
</trkpt>
<trkpt lat="56.644505" lon="8.163521">
<ele>-9.262764</ele>
<time>2026-07-13T13:30:05.000Z</time>
</trkpt>
<trkpt lat="56.644539" lon="8.163543">
<ele>-9.264901</ele>
<time>2026-07-13T13:30:06.000Z</time>
</trkpt>
<trkpt lat="56.644577" lon="8.163565">
<ele>-9.267264</ele>
<time>2026-07-13T13:30:07.000Z</time>
</trkpt>
<trkpt lat="56.644615" lon="8.163586">
<ele>-9.269616</ele>
<time>2026-07-13T13:30:08.000Z</time>
</trkpt>
<trkpt lat="56.644657" lon="8.163604">
<ele>-9.272172</ele>
<time>2026-07-13T13:30:09.000Z</time>
</trkpt>
<trkpt lat="56.644691" lon="8.163625">
<ele>-9.274300</ele>
<time>2026-07-13T13:30:10.000Z</time>
</trkpt>
<trkpt lat="56.644726" lon="8.163648">
<ele>-9.276504</ele>
<time>2026-07-13T13:30:11.000Z</time>
</trkpt>
<trkpt lat="56.644760" lon="8.163671">
<ele>-9.278653</ele>
<time>2026-07-13T13:30:12.000Z</time>
</trkpt>
<trkpt lat="56.644802" lon="8.163694">
<ele>-9.281251</ele>
<time>2026-07-13T13:30:13.000Z</time>
</trkpt>
<trkpt lat="56.644836" lon="8.163718">
<ele>-9.283412</ele>
<time>2026-07-13T13:30:14.000Z</time>
</trkpt>
<trkpt lat="56.644878" lon="8.163743">
<ele>-9.286030</ele>
<time>2026-07-13T13:30:15.000Z</time>
</trkpt>
<trkpt lat="56.644920" lon="8.163770">
<ele>-9.288668</ele>
<time>2026-07-13T13:30:16.000Z</time>
</trkpt>
<trkpt lat="56.644962" lon="8.163795">
<ele>-9.291286</ele>
<time>2026-07-13T13:30:17.000Z</time>
</trkpt>
<trkpt lat="56.645004" lon="8.163821">
<ele>-9.293914</ele>
<time>2026-07-13T13:30:18.000Z</time>
</trkpt>
<trkpt lat="56.645046" lon="8.163848">
<ele>-9.296553</ele>
<time>2026-07-13T13:30:19.000Z</time>
</trkpt>
<trkpt lat="56.645088" lon="8.163875">
<ele>-9.299192</ele>
<time>2026-07-13T13:30:20.000Z</time>
</trkpt>
<trkpt lat="56.645130" lon="8.163901">
<ele>-9.301820</ele>
<time>2026-07-13T13:30:21.000Z</time>
</trkpt>
<trkpt lat="56.645172" lon="8.163924">
<ele>-9.299663</ele>
<time>2026-07-13T13:30:22.000Z</time>
</trkpt>
<trkpt lat="56.645214" lon="8.163948">
<ele>-9.287994</ele>
<time>2026-07-13T13:30:23.000Z</time>
</trkpt>
<trkpt lat="56.645260" lon="8.163972">
<ele>-9.275309</ele>
<time>2026-07-13T13:30:24.000Z</time>
</trkpt>
<trkpt lat="56.645302" lon="8.164000">
<ele>-9.263451</ele>
<time>2026-07-13T13:30:25.000Z</time>
</trkpt>
<trkpt lat="56.645344" lon="8.164025">
<ele>-9.251737</ele>
<time>2026-07-13T13:30:26.000Z</time>
</trkpt>
<trkpt lat="56.645393" lon="8.164054">
<ele>-9.238078</ele>
<time>2026-07-13T13:30:27.000Z</time>
</trkpt>
<trkpt lat="56.645439" lon="8.164082">
<ele>-9.225220</ele>
<time>2026-07-13T13:30:28.000Z</time>
</trkpt>
<trkpt lat="56.645485" lon="8.164112">
<ele>-9.212267</ele>
<time>2026-07-13T13:30:29.000Z</time>
</trkpt>
<trkpt lat="56.645531" lon="8.164141">
<ele>-9.199362</ele>
<time>2026-07-13T13:30:30.000Z</time>
</trkpt>
<trkpt lat="56.645576" lon="8.164168">
<ele>-9.186801</ele>
<time>2026-07-13T13:30:31.000Z</time>
</trkpt>
<trkpt lat="56.645618" lon="8.164191">
<ele>-9.175174</ele>
<time>2026-07-13T13:30:32.000Z</time>
</trkpt>
<trkpt lat="56.645664" lon="8.164207">
<ele>-9.162760</ele>
<time>2026-07-13T13:30:33.000Z</time>
</trkpt>
<trkpt lat="56.645702" lon="8.164223">
<ele>-9.152421</ele>
<time>2026-07-13T13:30:34.000Z</time>
</trkpt>
<trkpt lat="56.645721" lon="8.164245">
<ele>-9.146451</ele>
<time>2026-07-13T13:30:45.000Z</time>
</trkpt>
<trkpt lat="56.645733" lon="8.164264">
<ele>-9.142233</ele>
<time>2026-07-13T13:30:46.000Z</time>
</trkpt>
<trkpt lat="56.645756" lon="8.164280">
<ele>-9.135706</ele>
<time>2026-07-13T13:30:47.000Z</time>
</trkpt>
<trkpt lat="56.645779" lon="8.164296">
<ele>-9.129179</ele>
<time>2026-07-13T13:30:48.000Z</time>
</trkpt>
<trkpt lat="56.645809" lon="8.164314">
<ele>-9.120805</ele>
<time>2026-07-13T13:30:49.000Z</time>
</trkpt>
<trkpt lat="56.645840" lon="8.164338">
<ele>-9.111874</ele>
<time>2026-07-13T13:30:50.000Z</time>
</trkpt>
<trkpt lat="56.645874" lon="8.164361">
<ele>-9.102259</ele>
<time>2026-07-13T13:30:51.000Z</time>
</trkpt>
<trkpt lat="56.645912" lon="8.164387">
<ele>-9.091497</ele>
<time>2026-07-13T13:30:52.000Z</time>
</trkpt>
<trkpt lat="56.645947" lon="8.164413">
<ele>-9.081475</ele>
<time>2026-07-13T13:30:53.000Z</time>
</trkpt>
<trkpt lat="56.645988" lon="8.164447">
<ele>-9.069531</ele>
<time>2026-07-13T13:30:54.000Z</time>
</trkpt>
<trkpt lat="56.646030" lon="8.164479">
<ele>-9.057460</ele>
<time>2026-07-13T13:30:55.000Z</time>
</trkpt>
<trkpt lat="56.646072" lon="8.164511">
<ele>-9.045390</ele>
<time>2026-07-13T13:30:56.000Z</time>
</trkpt>
<trkpt lat="56.646107" lon="8.164539">
<ele>-9.035255</ele>
<time>2026-07-13T13:30:57.000Z</time>
</trkpt>
<trkpt lat="56.646149" lon="8.164568">
<ele>-9.023347</ele>
<time>2026-07-13T13:30:58.000Z</time>
</trkpt>
<trkpt lat="56.646183" lon="8.164598">
<ele>-9.013330</ele>
<time>2026-07-13T13:30:59.000Z</time>
</trkpt>
<trkpt lat="56.646225" lon="8.164632">
<ele>-9.001144</ele>
<time>2026-07-13T13:31:00.000Z</time>
</trkpt>
<trkpt lat="56.646267" lon="8.164664">
<ele>-8.989073</ele>
<time>2026-07-13T13:31:01.000Z</time>
</trkpt>
<trkpt lat="56.646309" lon="8.164697">
<ele>-8.976946</ele>
<time>2026-07-13T13:31:02.000Z</time>
</trkpt>
<trkpt lat="56.646347" lon="8.164729">
<ele>-8.965846</ele>
<time>2026-07-13T13:31:03.000Z</time>
</trkpt>
<trkpt lat="56.646389" lon="8.164761">
<ele>-8.953775</ele>
<time>2026-07-13T13:31:04.000Z</time>
</trkpt>
<trkpt lat="56.646423" lon="8.164793">
<ele>-8.943628</ele>
<time>2026-07-13T13:31:05.000Z</time>
</trkpt>
<trkpt lat="56.646465" lon="8.164828">
<ele>-8.931382</ele>
<time>2026-07-13T13:31:06.000Z</time>
</trkpt>
<trkpt lat="56.646503" lon="8.164865">
<ele>-8.919957</ele>
<time>2026-07-13T13:31:07.000Z</time>
</trkpt>
<trkpt lat="56.646545" lon="8.164902">
<ele>-8.907587</ele>
<time>2026-07-13T13:31:08.000Z</time>
</trkpt>
<trkpt lat="56.646591" lon="8.164940">
<ele>-8.894195</ele>
<time>2026-07-13T13:31:09.000Z</time>
</trkpt>
<trkpt lat="56.646633" lon="8.164980">
<ele>-8.881628</ele>
<time>2026-07-13T13:31:10.000Z</time>
</trkpt>
<trkpt lat="56.646671" lon="8.165020">
<ele>-8.869990</ele>
<time>2026-07-13T13:31:11.000Z</time>
</trkpt>
<trkpt lat="56.646713" lon="8.165061">
<ele>-8.857354</ele>
<time>2026-07-13T13:31:12.000Z</time>
</trkpt>
<trkpt lat="56.646755" lon="8.165103">
<ele>-8.844650</ele>
<time>2026-07-13T13:31:13.000Z</time>
</trkpt>
<trkpt lat="56.646797" lon="8.165146">
<ele>-8.831874</ele>
<time>2026-07-13T13:31:14.000Z</time>
</trkpt>
<trkpt lat="56.646835" lon="8.165188">
<ele>-8.822222</ele>
<time>2026-07-13T13:31:15.000Z</time>
</trkpt>
<trkpt lat="56.646873" lon="8.165229">
<ele>-8.814245</ele>
<time>2026-07-13T13:31:16.000Z</time>
</trkpt>
<trkpt lat="56.646915" lon="8.165271">
<ele>-8.805591</ele>
<time>2026-07-13T13:31:17.000Z</time>
</trkpt>
<trkpt lat="56.646954" lon="8.165313">
<ele>-8.797408</ele>
<time>2026-07-13T13:31:18.000Z</time>
</trkpt>
<trkpt lat="56.646992" lon="8.165356">
<ele>-8.789328</ele>
<time>2026-07-13T13:31:19.000Z</time>
</trkpt>
<trkpt lat="56.647034" lon="8.165401">
<ele>-8.780528</ele>
<time>2026-07-13T13:31:20.000Z</time>
</trkpt>
<trkpt lat="56.647072" lon="8.165444">
<ele>-8.772448</ele>
<time>2026-07-13T13:31:21.000Z</time>
</trkpt>
<trkpt lat="56.647114" lon="8.165490">
<ele>-8.763596</ele>
<time>2026-07-13T13:31:22.000Z</time>
</trkpt>
<trkpt lat="56.647156" lon="8.165533">
<ele>-8.754894</ele>
<time>2026-07-13T13:31:23.000Z</time>
</trkpt>
<trkpt lat="56.647194" lon="8.165573">
<ele>-8.746968</ele>
<time>2026-07-13T13:31:24.000Z</time>
</trkpt>
<trkpt lat="56.647236" lon="8.165614">
<ele>-8.738362</ele>
<time>2026-07-13T13:31:25.000Z</time>
</trkpt>
<trkpt lat="56.647278" lon="8.165656">
<ele>-8.729708</ele>
<time>2026-07-13T13:31:26.000Z</time>
</trkpt>
<trkpt lat="56.647316" lon="8.165699">
<ele>-8.721628</ele>
<time>2026-07-13T13:31:27.000Z</time>
</trkpt>
<trkpt lat="56.647354" lon="8.165742">
<ele>-8.713548</ele>
<time>2026-07-13T13:31:28.000Z</time>
</trkpt>
<trkpt lat="56.647396" lon="8.165786">
<ele>-8.704797</ele>
<time>2026-07-13T13:31:29.000Z</time>
</trkpt>
<trkpt lat="56.647438" lon="8.165831">
<ele>-8.695997</ele>
<time>2026-07-13T13:31:30.000Z</time>
</trkpt>
<trkpt lat="56.647480" lon="8.165874">
<ele>-8.687295</ele>
<time>2026-07-13T13:31:31.000Z</time>
</trkpt>
<trkpt lat="56.647518" lon="8.165916">
<ele>-8.679267</ele>
<time>2026-07-13T13:31:32.000Z</time>
</trkpt>
<trkpt lat="56.647560" lon="8.165960">
<ele>-8.670516</ele>
<time>2026-07-13T13:31:33.000Z</time>
</trkpt>
<trkpt lat="56.647602" lon="8.166004">
<ele>-8.661766</ele>
<time>2026-07-13T13:31:34.000Z</time>
</trkpt>
<trkpt lat="56.647644" lon="8.166049">
<ele>-8.652965</ele>
<time>2026-07-13T13:31:35.000Z</time>
</trkpt>
<trkpt lat="56.647682" lon="8.166092">
<ele>-8.644885</ele>
<time>2026-07-13T13:31:36.000Z</time>
</trkpt>
<trkpt lat="56.647720" lon="8.166135">
<ele>-8.636805</ele>
<time>2026-07-13T13:31:37.000Z</time>
</trkpt>
<trkpt lat="56.647762" lon="8.166179">
<ele>-8.628054</ele>
<time>2026-07-13T13:31:38.000Z</time>
</trkpt>
<trkpt lat="56.647804" lon="8.166221">
<ele>-8.619401</ele>
<time>2026-07-13T13:31:39.000Z</time>
</trkpt>
<trkpt lat="56.647846" lon="8.166265">
<ele>-8.610650</ele>
<time>2026-07-13T13:31:40.000Z</time>
</trkpt>
<trkpt lat="56.647884" lon="8.166305">
<ele>-8.602724</ele>
<time>2026-07-13T13:31:41.000Z</time>
</trkpt>
<trkpt lat="56.647923" lon="8.166348">
<ele>-8.594490</ele>
<time>2026-07-13T13:31:42.000Z</time>
</trkpt>
<trkpt lat="56.647964" lon="8.166389">
<ele>-8.586042</ele>
<time>2026-07-13T13:31:43.000Z</time>
</trkpt>
<trkpt lat="56.648003" lon="8.166431">
<ele>-8.577860</ele>
<time>2026-07-13T13:31:44.000Z</time>
</trkpt>
<trkpt lat="56.648045" lon="8.166476">
<ele>-8.569059</ele>
<time>2026-07-13T13:31:45.000Z</time>
</trkpt>
<trkpt lat="56.648087" lon="8.166522">
<ele>-8.560208</ele>
<time>2026-07-13T13:31:46.000Z</time>
</trkpt>
<trkpt lat="56.648128" lon="8.166566">
<ele>-8.551613</ele>
<time>2026-07-13T13:31:47.000Z</time>
</trkpt>
<trkpt lat="56.648170" lon="8.166613">
<ele>-8.542710</ele>
<time>2026-07-13T13:31:48.000Z</time>
</trkpt>
<trkpt lat="56.648209" lon="8.166656">
<ele>-8.534476</ele>
<time>2026-07-13T13:31:49.000Z</time>
</trkpt>
<trkpt lat="56.648251" lon="8.166698">
<ele>-8.525823</ele>
<time>2026-07-13T13:31:50.000Z</time>
</trkpt>
<trkpt lat="56.648289" lon="8.166740">
<ele>-8.517795</ele>
<time>2026-07-13T13:31:51.000Z</time>
</trkpt>
<trkpt lat="56.648327" lon="8.166783">
<ele>-8.509715</ele>
<time>2026-07-13T13:31:52.000Z</time>
</trkpt>
<trkpt lat="56.648365" lon="8.166826">
<ele>-8.501936</ele>
<time>2026-07-13T13:31:53.000Z</time>
</trkpt>
<trkpt lat="56.648407" lon="8.166868">
<ele>-8.499649</ele>
<time>2026-07-13T13:31:54.000Z</time>
</trkpt>
<trkpt lat="56.648449" lon="8.166911">
<ele>-8.497349</ele>
<time>2026-07-13T13:31:55.000Z</time>
</trkpt>
<trkpt lat="56.648491" lon="8.166953">
<ele>-8.495062</ele>
<time>2026-07-13T13:31:56.000Z</time>
</trkpt>
<trkpt lat="56.648533" lon="8.166995">
<ele>-8.492774</ele>
<time>2026-07-13T13:31:57.000Z</time>
</trkpt>
<trkpt lat="56.648575" lon="8.167040">
<ele>-8.490448</ele>
<time>2026-07-13T13:31:58.000Z</time>
</trkpt>
<trkpt lat="56.648617" lon="8.167083">
<ele>-8.488148</ele>
<time>2026-07-13T13:31:59.000Z</time>
</trkpt>
<trkpt lat="56.648659" lon="8.167127">
<ele>-8.485835</ele>
<time>2026-07-13T13:32:00.000Z</time>
</trkpt>
<trkpt lat="56.648701" lon="8.167171">
<ele>-8.483522</ele>
<time>2026-07-13T13:32:01.000Z</time>
</trkpt>
<trkpt lat="56.648743" lon="8.167216">
<ele>-8.481196</ele>
<time>2026-07-13T13:32:02.000Z</time>
</trkpt>
<trkpt lat="56.648785" lon="8.167259">
<ele>-8.478895</ele>
<time>2026-07-13T13:32:03.000Z</time>
</trkpt>
<trkpt lat="56.648827" lon="8.167306">
<ele>-8.476542</ele>
<time>2026-07-13T13:32:04.000Z</time>
</trkpt>
<trkpt lat="56.648869" lon="8.167349">
<ele>-8.474242</ele>
<time>2026-07-13T13:32:05.000Z</time>
</trkpt>
<trkpt lat="56.648907" lon="8.167395">
<ele>-8.472064</ele>
<time>2026-07-13T13:32:06.000Z</time>
</trkpt>
<trkpt lat="56.648949" lon="8.167440">
<ele>-8.469737</ele>
<time>2026-07-13T13:32:07.000Z</time>
</trkpt>
<trkpt lat="56.648991" lon="8.167482">
<ele>-8.467450</ele>
<time>2026-07-13T13:32:08.000Z</time>
</trkpt>
<trkpt lat="56.649033" lon="8.167527">
<ele>-8.465124</ele>
<time>2026-07-13T13:32:09.000Z</time>
</trkpt>
<trkpt lat="56.649075" lon="8.167571">
<ele>-8.462811</ele>
<time>2026-07-13T13:32:10.000Z</time>
</trkpt>
<trkpt lat="56.649117" lon="8.167614">
<ele>-8.460511</ele>
<time>2026-07-13T13:32:11.000Z</time>
</trkpt>
<trkpt lat="56.649158" lon="8.167658">
<ele>-8.458239</ele>
<time>2026-07-13T13:32:12.000Z</time>
</trkpt>
<trkpt lat="56.649200" lon="8.167701">
<ele>-8.455939</ele>
<time>2026-07-13T13:32:13.000Z</time>
</trkpt>
<trkpt lat="56.649235" lon="8.167744">
<ele>-8.453923</ele>
<time>2026-07-13T13:32:14.000Z</time>
</trkpt>
<trkpt lat="56.649277" lon="8.167789">
<ele>-8.451597</ele>
<time>2026-07-13T13:32:15.000Z</time>
</trkpt>
<trkpt lat="56.649319" lon="8.167833">
<ele>-8.449284</ele>
<time>2026-07-13T13:32:16.000Z</time>
</trkpt>
<trkpt lat="56.649357" lon="8.167877">
<ele>-8.447134</ele>
<time>2026-07-13T13:32:17.000Z</time>
</trkpt>
<trkpt lat="56.649399" lon="8.167920">
<ele>-8.444834</ele>
<time>2026-07-13T13:32:18.000Z</time>
</trkpt>
<trkpt lat="56.649441" lon="8.167963">
<ele>-8.442534</ele>
<time>2026-07-13T13:32:19.000Z</time>
</trkpt>
<trkpt lat="56.649483" lon="8.168007">
<ele>-8.440221</ele>
<time>2026-07-13T13:32:20.000Z</time>
</trkpt>
<trkpt lat="56.649525" lon="8.168050">
<ele>-8.437921</ele>
<time>2026-07-13T13:32:21.000Z</time>
</trkpt>
<trkpt lat="56.649563" lon="8.168093">
<ele>-8.435785</ele>
<time>2026-07-13T13:32:22.000Z</time>
</trkpt>
<trkpt lat="56.649605" lon="8.168136">
<ele>-8.433485</ele>
<time>2026-07-13T13:32:23.000Z</time>
</trkpt>
<trkpt lat="56.649647" lon="8.168179">
<ele>-8.431185</ele>
<time>2026-07-13T13:32:24.000Z</time>
</trkpt>
<trkpt lat="56.649689" lon="8.168222">
<ele>-8.428885</ele>
<time>2026-07-13T13:32:25.000Z</time>
</trkpt>
<trkpt lat="56.649731" lon="8.168264">
<ele>-8.426598</ele>
<time>2026-07-13T13:32:26.000Z</time>
</trkpt>
<trkpt lat="56.649769" lon="8.168305">
<ele>-8.424489</ele>
<time>2026-07-13T13:32:27.000Z</time>
</trkpt>
<trkpt lat="56.649811" lon="8.168349">
<ele>-8.422176</ele>
<time>2026-07-13T13:32:28.000Z</time>
</trkpt>
<trkpt lat="56.649853" lon="8.168392">
<ele>-8.419876</ele>
<time>2026-07-13T13:32:29.000Z</time>
</trkpt>
<trkpt lat="56.649895" lon="8.168436">
<ele>-8.417563</ele>
<time>2026-07-13T13:32:30.000Z</time>
</trkpt>
<trkpt lat="56.649933" lon="8.168482">
<ele>-8.417221</ele>
<time>2026-07-13T13:32:31.000Z</time>
</trkpt>
<trkpt lat="56.649971" lon="8.168528">
<ele>-8.419904</ele>
<time>2026-07-13T13:32:32.000Z</time>
</trkpt>
<trkpt lat="56.650013" lon="8.168573">
<ele>-8.422769</ele>
<time>2026-07-13T13:32:33.000Z</time>
</trkpt>
<trkpt lat="56.650051" lon="8.168616">
<ele>-8.425400</ele>
<time>2026-07-13T13:32:34.000Z</time>
</trkpt>
<trkpt lat="56.650093" lon="8.168660">
<ele>-8.428249</ele>
<time>2026-07-13T13:32:35.000Z</time>
</trkpt>
<trkpt lat="56.650135" lon="8.168702">
<ele>-8.431067</ele>
<time>2026-07-13T13:32:36.000Z</time>
</trkpt>
<trkpt lat="56.650177" lon="8.168744">
<ele>-8.433884</ele>
<time>2026-07-13T13:32:37.000Z</time>
</trkpt>
<trkpt lat="56.650219" lon="8.168786">
<ele>-8.436701</ele>
<time>2026-07-13T13:32:38.000Z</time>
</trkpt>
<trkpt lat="56.650257" lon="8.168830">
<ele>-8.439349</ele>
<time>2026-07-13T13:32:39.000Z</time>
</trkpt>
<trkpt lat="56.650299" lon="8.168874">
<ele>-8.442198</ele>
<time>2026-07-13T13:32:40.000Z</time>
</trkpt>
<trkpt lat="56.650345" lon="8.168919">
<ele>-8.445269</ele>
<time>2026-07-13T13:32:41.000Z</time>
</trkpt>
<trkpt lat="56.650387" lon="8.168963">
<ele>-8.448118</ele>
<time>2026-07-13T13:32:42.000Z</time>
</trkpt>
<trkpt lat="56.650425" lon="8.169006">
<ele>-8.450748</ele>
<time>2026-07-13T13:32:43.000Z</time>
</trkpt>
<trkpt lat="56.650467" lon="8.169045">
<ele>-8.453520</ele>
<time>2026-07-13T13:32:44.000Z</time>
</trkpt>
<trkpt lat="56.650505" lon="8.169085">
<ele>-8.456101</ele>
<time>2026-07-13T13:32:45.000Z</time>
</trkpt>
<trkpt lat="56.650539" lon="8.169123">
<ele>-8.458447</ele>
<time>2026-07-13T13:32:46.000Z</time>
</trkpt>
<trkpt lat="56.650578" lon="8.169161">
<ele>-8.461048</ele>
<time>2026-07-13T13:32:47.000Z</time>
</trkpt>
<trkpt lat="56.650620" lon="8.169200">
<ele>-8.463820</ele>
<time>2026-07-13T13:32:48.000Z</time>
</trkpt>
<trkpt lat="56.650662" lon="8.169241">
<ele>-8.466622</ele>
<time>2026-07-13T13:32:49.000Z</time>
</trkpt>
<trkpt lat="56.650703" lon="8.169285">
<ele>-8.469420</ele>
<time>2026-07-13T13:32:50.000Z</time>
</trkpt>
<trkpt lat="56.650742" lon="8.169329">
<ele>-8.472118</ele>
<time>2026-07-13T13:32:51.000Z</time>
</trkpt>
<trkpt lat="56.650784" lon="8.169373">
<ele>-8.474967</ele>
<time>2026-07-13T13:32:52.000Z</time>
</trkpt>
<trkpt lat="56.650825" lon="8.169415">
<ele>-8.477733</ele>
<time>2026-07-13T13:32:53.000Z</time>
</trkpt>
<trkpt lat="56.650867" lon="8.169458">
<ele>-8.480566</ele>
<time>2026-07-13T13:32:54.000Z</time>
</trkpt>
<trkpt lat="56.650909" lon="8.169503">
<ele>-8.483431</ele>
<time>2026-07-13T13:32:55.000Z</time>
</trkpt>
<trkpt lat="56.650948" lon="8.169547">
<ele>-8.486129</ele>
<time>2026-07-13T13:32:56.000Z</time>
</trkpt>
<trkpt lat="56.650993" lon="8.169594">
<ele>-8.489179</ele>
<time>2026-07-13T13:32:57.000Z</time>
</trkpt>
<trkpt lat="56.651035" lon="8.169641">
<ele>-8.492078</ele>
<time>2026-07-13T13:32:58.000Z</time>
</trkpt>
<trkpt lat="56.651077" lon="8.169684">
<ele>-8.494911</ele>
<time>2026-07-13T13:32:59.000Z</time>
</trkpt>
<trkpt lat="56.651123" lon="8.169731">
<ele>-8.498012</ele>
<time>2026-07-13T13:33:00.000Z</time>
</trkpt>
<trkpt lat="56.651165" lon="8.169776">
<ele>-8.500878</ele>
<time>2026-07-13T13:33:01.000Z</time>
</trkpt>
<trkpt lat="56.651207" lon="8.169819">
<ele>-8.503711</ele>
<time>2026-07-13T13:33:02.000Z</time>
</trkpt>
<trkpt lat="56.651249" lon="8.169864">
<ele>-8.506576</ele>
<time>2026-07-13T13:33:03.000Z</time>
</trkpt>
<trkpt lat="56.651291" lon="8.169908">
<ele>-8.509425</ele>
<time>2026-07-13T13:33:04.000Z</time>
</trkpt>
<trkpt lat="56.651337" lon="8.169953">
<ele>-8.512495</ele>
<time>2026-07-13T13:33:05.000Z</time>
</trkpt>
<trkpt lat="56.651379" lon="8.169997">
<ele>-8.515344</ele>
<time>2026-07-13T13:33:06.000Z</time>
</trkpt>
<trkpt lat="56.651421" lon="8.170041">
<ele>-8.518193</ele>
<time>2026-07-13T13:33:07.000Z</time>
</trkpt>
<trkpt lat="56.651459" lon="8.170085">
<ele>-8.520841</ele>
<time>2026-07-13T13:33:08.000Z</time>
</trkpt>
<trkpt lat="56.651501" lon="8.170132">
<ele>-8.522170</ele>
<time>2026-07-13T13:33:09.000Z</time>
</trkpt>
<trkpt lat="56.651543" lon="8.170176">
<ele>-8.522538</ele>
<time>2026-07-13T13:33:10.000Z</time>
</trkpt>
<trkpt lat="56.651585" lon="8.170218">
<ele>-8.522901</ele>
<time>2026-07-13T13:33:11.000Z</time>
</trkpt>
<trkpt lat="56.651627" lon="8.170260">
<ele>-8.523265</ele>
<time>2026-07-13T13:33:12.000Z</time>
</trkpt>
<trkpt lat="56.651669" lon="8.170306">
<ele>-8.523637</ele>
<time>2026-07-13T13:33:13.000Z</time>
</trkpt>
<trkpt lat="56.651714" lon="8.170351">
<ele>-8.524026</ele>
<time>2026-07-13T13:33:14.000Z</time>
</trkpt>
<trkpt lat="56.651756" lon="8.170397">
<ele>-8.524398</ele>
<time>2026-07-13T13:33:15.000Z</time>
</trkpt>
<trkpt lat="56.651798" lon="8.170442">
<ele>-8.524768</ele>
<time>2026-07-13T13:33:16.000Z</time>
</trkpt>
<trkpt lat="56.651840" lon="8.170486">
<ele>-8.525135</ele>
<time>2026-07-13T13:33:17.000Z</time>
</trkpt>
<trkpt lat="56.651878" lon="8.170526">
<ele>-8.525468</ele>
<time>2026-07-13T13:33:18.000Z</time>
</trkpt>
<trkpt lat="56.651917" lon="8.170570">
<ele>-8.525816</ele>
<time>2026-07-13T13:33:19.000Z</time>
</trkpt>
<trkpt lat="56.651955" lon="8.170613">
<ele>-8.526156</ele>
<time>2026-07-13T13:33:20.000Z</time>
</trkpt>
<trkpt lat="56.651997" lon="8.170653">
<ele>-8.526515</ele>
<time>2026-07-13T13:33:21.000Z</time>
</trkpt>
<trkpt lat="56.652031" lon="8.170692">
<ele>-8.526820</ele>
<time>2026-07-13T13:33:22.000Z</time>
</trkpt>
<trkpt lat="56.652073" lon="8.170736">
<ele>-8.527188</ele>
<time>2026-07-13T13:33:23.000Z</time>
</trkpt>
<trkpt lat="56.652115" lon="8.170782">
<ele>-8.527559</ele>
<time>2026-07-13T13:33:24.000Z</time>
</trkpt>
<trkpt lat="56.652157" lon="8.170825">
<ele>-8.527925</ele>
<time>2026-07-13T13:33:25.000Z</time>
</trkpt>
<trkpt lat="56.652199" lon="8.170869">
<ele>-8.528293</ele>
<time>2026-07-13T13:33:26.000Z</time>
</trkpt>
<trkpt lat="56.652245" lon="8.170912">
<ele>-8.528685</ele>
<time>2026-07-13T13:33:27.000Z</time>
</trkpt>
<trkpt lat="56.652287" lon="8.170952">
<ele>-8.529044</ele>
<time>2026-07-13T13:33:28.000Z</time>
</trkpt>
<trkpt lat="56.652329" lon="8.170998">
<ele>-8.529416</ele>
<time>2026-07-13T13:33:29.000Z</time>
</trkpt>
<trkpt lat="56.652378" lon="8.171045">
<ele>-8.529836</ele>
<time>2026-07-13T13:33:30.000Z</time>
</trkpt>
<trkpt lat="56.652420" lon="8.171090">
<ele>-8.530206</ele>
<time>2026-07-13T13:33:31.000Z</time>
</trkpt>
<trkpt lat="56.652466" lon="8.171139">
<ele>-8.530610</ele>
<time>2026-07-13T13:33:32.000Z</time>
</trkpt>
<trkpt lat="56.652512" lon="8.171190">
<ele>-8.531019</ele>
<time>2026-07-13T13:33:33.000Z</time>
</trkpt>
<trkpt lat="56.652557" lon="8.171240">
<ele>-8.531419</ele>
<time>2026-07-13T13:33:34.000Z</time>
</trkpt>
<trkpt lat="56.652603" lon="8.171291">
<ele>-8.531827</ele>
<time>2026-07-13T13:33:35.000Z</time>
</trkpt>
<trkpt lat="56.652645" lon="8.171341">
<ele>-8.532208</ele>
<time>2026-07-13T13:33:36.000Z</time>
</trkpt>
<trkpt lat="56.652691" lon="8.171389">
<ele>-8.532610</ele>
<time>2026-07-13T13:33:37.000Z</time>
</trkpt>
<trkpt lat="56.652737" lon="8.171437">
<ele>-8.533012</ele>
<time>2026-07-13T13:33:38.000Z</time>
</trkpt>
<trkpt lat="56.652782" lon="8.171488">
<ele>-8.533414</ele>
<time>2026-07-13T13:33:39.000Z</time>
</trkpt>
<trkpt lat="56.652832" lon="8.171536">
<ele>-8.533843</ele>
<time>2026-07-13T13:33:40.000Z</time>
</trkpt>
<trkpt lat="56.652878" lon="8.171585">
<ele>-8.534248</ele>
<time>2026-07-13T13:33:41.000Z</time>
</trkpt>
<trkpt lat="56.652924" lon="8.171633">
<ele>-8.534650</ele>
<time>2026-07-13T13:33:42.000Z</time>
</trkpt>
<trkpt lat="56.652969" lon="8.171680">
<ele>-8.535043</ele>
<time>2026-07-13T13:33:43.000Z</time>
</trkpt>
<trkpt lat="56.653015" lon="8.171726">
<ele>-8.535441</ele>
<time>2026-07-13T13:33:44.000Z</time>
</trkpt>
<trkpt lat="56.653057" lon="8.171768">
<ele>-8.529425</ele>
<time>2026-07-13T13:33:45.000Z</time>
</trkpt>
<trkpt lat="56.653103" lon="8.171814">
<ele>-8.518577</ele>
<time>2026-07-13T13:33:46.000Z</time>
</trkpt>
<trkpt lat="56.653149" lon="8.171861">
<ele>-8.507674</ele>
<time>2026-07-13T13:33:47.000Z</time>
</trkpt>
<trkpt lat="56.653191" lon="8.171906">
<ele>-8.497601</ele>
<time>2026-07-13T13:33:48.000Z</time>
</trkpt>
<trkpt lat="56.653236" lon="8.171954">
<ele>-8.486820</ele>
<time>2026-07-13T13:33:49.000Z</time>
</trkpt>
<trkpt lat="56.653286" lon="8.172001">
<ele>-8.475189</ele>
<time>2026-07-13T13:33:50.000Z</time>
</trkpt>
<trkpt lat="56.653332" lon="8.172051">
<ele>-8.464115</ele>
<time>2026-07-13T13:33:51.000Z</time>
</trkpt>
<trkpt lat="56.653377" lon="8.172100">
<ele>-8.453277</ele>
<time>2026-07-13T13:33:52.000Z</time>
</trkpt>
<trkpt lat="56.653419" lon="8.172147">
<ele>-8.443086</ele>
<time>2026-07-13T13:33:53.000Z</time>
</trkpt>
<trkpt lat="56.653465" lon="8.172197">
<ele>-8.432012</ele>
<time>2026-07-13T13:33:54.000Z</time>
</trkpt>
<trkpt lat="56.653519" lon="8.172249">
<ele>-8.419385</ele>
<time>2026-07-13T13:33:55.000Z</time>
</trkpt>
<trkpt lat="56.653564" lon="8.172296">
<ele>-8.408662</ele>
<time>2026-07-13T13:33:56.000Z</time>
</trkpt>
<trkpt lat="56.653610" lon="8.172341">
<ele>-8.397868</ele>
<time>2026-07-13T13:33:57.000Z</time>
</trkpt>
<trkpt lat="56.653656" lon="8.172389">
<ele>-8.386909</ele>
<time>2026-07-13T13:33:58.000Z</time>
</trkpt>
<trkpt lat="56.653698" lon="8.172439">
<ele>-8.376535</ele>
<time>2026-07-13T13:33:59.000Z</time>
</trkpt>
<trkpt lat="56.653744" lon="8.172487">
<ele>-8.365576</ele>
<time>2026-07-13T13:34:00.000Z</time>
</trkpt>
<trkpt lat="56.653786" lon="8.172538">
<ele>-8.355140</ele>
<time>2026-07-13T13:34:01.000Z</time>
</trkpt>
<trkpt lat="56.653828" lon="8.172588">
<ele>-8.344767</ele>
<time>2026-07-13T13:34:02.000Z</time>
</trkpt>
<trkpt lat="56.653873" lon="8.172636">
<ele>-8.333987</ele>
<time>2026-07-13T13:34:03.000Z</time>
</trkpt>
<trkpt lat="56.653919" lon="8.172682">
<ele>-8.323139</ele>
<time>2026-07-13T13:34:04.000Z</time>
</trkpt>
<trkpt lat="56.653965" lon="8.172727">
<ele>-8.312345</ele>
<time>2026-07-13T13:34:05.000Z</time>
</trkpt>
<trkpt lat="56.654011" lon="8.172769">
<ele>-8.301708</ele>
<time>2026-07-13T13:34:06.000Z</time>
</trkpt>
<trkpt lat="56.654057" lon="8.172811">
<ele>-8.291072</ele>
<time>2026-07-13T13:34:07.000Z</time>
</trkpt>
<trkpt lat="56.654102" lon="8.172853">
<ele>-8.280620</ele>
<time>2026-07-13T13:34:08.000Z</time>
</trkpt>
<trkpt lat="56.654148" lon="8.172897">
<ele>-8.269879</ele>
<time>2026-07-13T13:34:09.000Z</time>
</trkpt>
<trkpt lat="56.654194" lon="8.172942">
<ele>-8.259085</ele>
<time>2026-07-13T13:34:10.000Z</time>
</trkpt>
<trkpt lat="56.654243" lon="8.172984">
<ele>-8.247891</ele>
<time>2026-07-13T13:34:11.000Z</time>
</trkpt>
<trkpt lat="56.654289" lon="8.173028">
<ele>-8.237151</ele>
<time>2026-07-13T13:34:12.000Z</time>
</trkpt>
<trkpt lat="56.654335" lon="8.173075">
<ele>-8.226248</ele>
<time>2026-07-13T13:34:13.000Z</time>
</trkpt>
<trkpt lat="56.654381" lon="8.173121">
<ele>-8.215400</ele>
<time>2026-07-13T13:34:14.000Z</time>
</trkpt>
<trkpt lat="56.654430" lon="8.173167">
<ele>-8.204005</ele>
<time>2026-07-13T13:34:15.000Z</time>
</trkpt>
<trkpt lat="56.654476" lon="8.173211">
<ele>-8.193264</ele>
<time>2026-07-13T13:34:16.000Z</time>
</trkpt>
<trkpt lat="56.654522" lon="8.173254">
<ele>-8.182576</ele>
<time>2026-07-13T13:34:17.000Z</time>
</trkpt>
<trkpt lat="56.654571" lon="8.173294">
<ele>-8.171477</ele>
<time>2026-07-13T13:34:18.000Z</time>
</trkpt>
<trkpt lat="56.654617" lon="8.173336">
<ele>-8.166191</ele>
<time>2026-07-13T13:34:19.000Z</time>
</trkpt>
<trkpt lat="56.654667" lon="8.173377">
<ele>-8.174885</ele>
<time>2026-07-13T13:34:20.000Z</time>
</trkpt>
<trkpt lat="56.654709" lon="8.173415">
<ele>-8.182321</ele>
<time>2026-07-13T13:34:21.000Z</time>
</trkpt>
<trkpt lat="56.654758" lon="8.173456">
<ele>-8.190870</ele>
<time>2026-07-13T13:34:22.000Z</time>
</trkpt>
<trkpt lat="56.654812" lon="8.173495">
<ele>-8.200080</ele>
<time>2026-07-13T13:34:23.000Z</time>
</trkpt>
<trkpt lat="56.654861" lon="8.173531">
<ele>-8.208456</ele>
<time>2026-07-13T13:34:24.000Z</time>
</trkpt>
<trkpt lat="56.654911" lon="8.173569">
<ele>-8.217046</ele>
<time>2026-07-13T13:34:25.000Z</time>
</trkpt>
<trkpt lat="56.654961" lon="8.173607">
<ele>-8.225636</ele>
<time>2026-07-13T13:34:26.000Z</time>
</trkpt>
<trkpt lat="56.655010" lon="8.173646">
<ele>-8.234114</ele>
<time>2026-07-13T13:34:27.000Z</time>
</trkpt>
<trkpt lat="56.655060" lon="8.173684">
<ele>-8.242703</ele>
<time>2026-07-13T13:34:28.000Z</time>
</trkpt>
<trkpt lat="56.655109" lon="8.173719">
<ele>-8.251048</ele>
<time>2026-07-13T13:34:29.000Z</time>
</trkpt>
<trkpt lat="56.655159" lon="8.173757">
<ele>-8.259637</ele>
<time>2026-07-13T13:34:30.000Z</time>
</trkpt>
<trkpt lat="56.655209" lon="8.173794">
<ele>-8.268194</ele>
<time>2026-07-13T13:34:31.000Z</time>
</trkpt>
<trkpt lat="56.655258" lon="8.173828">
<ele>-8.276507</ele>
<time>2026-07-13T13:34:32.000Z</time>
</trkpt>
<trkpt lat="56.655312" lon="8.173866">
<ele>-8.285685</ele>
<time>2026-07-13T13:34:33.000Z</time>
</trkpt>
<trkpt lat="56.655365" lon="8.173902">
<ele>-8.294653</ele>
<time>2026-07-13T13:34:34.000Z</time>
</trkpt>
<trkpt lat="56.655415" lon="8.173942">
<ele>-8.303311</ele>
<time>2026-07-13T13:34:35.000Z</time>
</trkpt>
<trkpt lat="56.655468" lon="8.173981">
<ele>-8.312373</ele>
<time>2026-07-13T13:34:36.000Z</time>
</trkpt>
<trkpt lat="56.655521" lon="8.174020">
<ele>-8.321436</ele>
<time>2026-07-13T13:34:37.000Z</time>
</trkpt>
<trkpt lat="56.655575" lon="8.174059">
<ele>-8.330646</ele>
<time>2026-07-13T13:34:38.000Z</time>
</trkpt>
<trkpt lat="56.655624" lon="8.174097">
<ele>-8.339089</ele>
<time>2026-07-13T13:34:39.000Z</time>
</trkpt>
<trkpt lat="56.655674" lon="8.174135">
<ele>-8.347679</ele>
<time>2026-07-13T13:34:40.000Z</time>
</trkpt>
<trkpt lat="56.655727" lon="8.174173">
<ele>-8.356709</ele>
<time>2026-07-13T13:34:41.000Z</time>
</trkpt>
<trkpt lat="56.655773" lon="8.174209">
<ele>-8.364647</ele>
<time>2026-07-13T13:34:42.000Z</time>
</trkpt>
<trkpt lat="56.655827" lon="8.174246">
<ele>-8.373794</ele>
<time>2026-07-13T13:34:43.000Z</time>
</trkpt>
<trkpt lat="56.655880" lon="8.174286">
<ele>-8.382889</ele>
<time>2026-07-13T13:34:44.000Z</time>
</trkpt>
<trkpt lat="56.655930" lon="8.174324">
<ele>-8.391479</ele>
<time>2026-07-13T13:34:45.000Z</time>
</trkpt>
<trkpt lat="56.655979" lon="8.174366">
<ele>-8.400065</ele>
<time>2026-07-13T13:34:46.000Z</time>
</trkpt>
<trkpt lat="56.656021" lon="8.174401">
<ele>-8.407388</ele>
<time>2026-07-13T13:34:47.000Z</time>
</trkpt>
<trkpt lat="56.656075" lon="8.174437">
<ele>-8.416504</ele>
<time>2026-07-13T13:34:48.000Z</time>
</trkpt>
<trkpt lat="56.656124" lon="8.174474">
<ele>-8.424914</ele>
<time>2026-07-13T13:34:49.000Z</time>
</trkpt>
<trkpt lat="56.656174" lon="8.174511">
<ele>-8.433470</ele>
<time>2026-07-13T13:34:50.000Z</time>
</trkpt>
<trkpt lat="56.656227" lon="8.174549">
<ele>-8.442500</ele>
<time>2026-07-13T13:34:51.000Z</time>
</trkpt>
<trkpt lat="56.656277" lon="8.174586">
<ele>-8.451237</ele>
<time>2026-07-13T13:34:52.000Z</time>
</trkpt>
<trkpt lat="56.656326" lon="8.174625">
<ele>-8.460452</ele>
<time>2026-07-13T13:34:53.000Z</time>
</trkpt>
<trkpt lat="56.656376" lon="8.174664">
<ele>-8.469825</ele>
<time>2026-07-13T13:34:54.000Z</time>
</trkpt>
<trkpt lat="56.656429" lon="8.174703">
<ele>-8.479675</ele>
<time>2026-07-13T13:34:55.000Z</time>
</trkpt>
<trkpt lat="56.656483" lon="8.174741">
<ele>-8.489651</ele>
<time>2026-07-13T13:34:56.000Z</time>
</trkpt>
<trkpt lat="56.656532" lon="8.174779">
<ele>-8.498828</ele>
<time>2026-07-13T13:34:57.000Z</time>
</trkpt>
<trkpt lat="56.656582" lon="8.174818">
<ele>-8.508201</ele>
<time>2026-07-13T13:34:58.000Z</time>
</trkpt>
<trkpt lat="56.656635" lon="8.174855">
<ele>-8.517982</ele>
<time>2026-07-13T13:34:59.000Z</time>
</trkpt>
<trkpt lat="56.656685" lon="8.174891">
<ele>-8.527247</ele>
<time>2026-07-13T13:35:00.000Z</time>
</trkpt>
<trkpt lat="56.656734" lon="8.174931">
<ele>-8.536500</ele>
<time>2026-07-13T13:35:01.000Z</time>
</trkpt>
<trkpt lat="56.656788" lon="8.174971">
<ele>-8.546545</ele>
<time>2026-07-13T13:35:02.000Z</time>
</trkpt>
<trkpt lat="56.656837" lon="8.175009">
<ele>-8.555723</ele>
<time>2026-07-13T13:35:03.000Z</time>
</trkpt>
<trkpt lat="56.656891" lon="8.175048">
<ele>-8.565733</ele>
<time>2026-07-13T13:35:04.000Z</time>
</trkpt>
<trkpt lat="56.656940" lon="8.175088">
<ele>-8.574986</ele>
<time>2026-07-13T13:35:05.000Z</time>
</trkpt>
<trkpt lat="56.656986" lon="8.175124">
<ele>-8.583614</ele>
<time>2026-07-13T13:35:06.000Z</time>
</trkpt>
<trkpt lat="56.657040" lon="8.175164">
<ele>-8.593659</ele>
<time>2026-07-13T13:35:07.000Z</time>
</trkpt>
<trkpt lat="56.657089" lon="8.175201">
<ele>-8.602800</ele>
<time>2026-07-13T13:35:08.000Z</time>
</trkpt>
<trkpt lat="56.657139" lon="8.175241">
<ele>-8.612210</ele>
<time>2026-07-13T13:35:09.000Z</time>
</trkpt>
<trkpt lat="56.657192" lon="8.175281">
<ele>-8.622096</ele>
<time>2026-07-13T13:35:10.000Z</time>
</trkpt>
<trkpt lat="56.657246" lon="8.175322">
<ele>-8.632178</ele>
<time>2026-07-13T13:35:11.000Z</time>
</trkpt>
<trkpt lat="56.657295" lon="8.175362">
<ele>-8.641431</ele>
<time>2026-07-13T13:35:12.000Z</time>
</trkpt>
<trkpt lat="56.657341" lon="8.175396">
<ele>-8.649986</ele>
<time>2026-07-13T13:35:13.000Z</time>
</trkpt>
<trkpt lat="56.657394" lon="8.175435">
<ele>-8.659836</ele>
<time>2026-07-13T13:35:14.000Z</time>
</trkpt>
<trkpt lat="56.657444" lon="8.175474">
<ele>-8.669209</ele>
<time>2026-07-13T13:35:15.000Z</time>
</trkpt>
<trkpt lat="56.657497" lon="8.175512">
<ele>-8.679024</ele>
<time>2026-07-13T13:35:16.000Z</time>
</trkpt>
<trkpt lat="56.657543" lon="8.175548">
<ele>-8.687651</ele>
<time>2026-07-13T13:35:17.000Z</time>
</trkpt>
<trkpt lat="56.657597" lon="8.175582">
<ele>-8.697497</ele>
<time>2026-07-13T13:35:18.000Z</time>
</trkpt>
<trkpt lat="56.657642" lon="8.175616">
<ele>-8.705892</ele>
<time>2026-07-13T13:35:19.000Z</time>
</trkpt>
<trkpt lat="56.657692" lon="8.175651">
<ele>-8.715122</ele>
<time>2026-07-13T13:35:20.000Z</time>
</trkpt>
<trkpt lat="56.657742" lon="8.175685">
<ele>-8.724319</ele>
<time>2026-07-13T13:35:21.000Z</time>
</trkpt>
<trkpt lat="56.657791" lon="8.175720">
<ele>-8.733388</ele>
<time>2026-07-13T13:35:22.000Z</time>
</trkpt>
<trkpt lat="56.657837" lon="8.175758">
<ele>-8.742093</ele>
<time>2026-07-13T13:35:23.000Z</time>
</trkpt>
<trkpt lat="56.657887" lon="8.175797">
<ele>-8.751465</ele>
<time>2026-07-13T13:35:24.000Z</time>
</trkpt>
<trkpt lat="56.657936" lon="8.175834">
<ele>-8.759770</ele>
<time>2026-07-13T13:35:25.000Z</time>
</trkpt>
<trkpt lat="56.657989" lon="8.175871">
<ele>-8.764825</ele>
<time>2026-07-13T13:35:26.000Z</time>
</trkpt>
<trkpt lat="56.658039" lon="8.175906">
<ele>-8.769596</ele>
<time>2026-07-13T13:35:27.000Z</time>
</trkpt>
<trkpt lat="56.658089" lon="8.175942">
<ele>-8.774385</ele>
<time>2026-07-13T13:35:28.000Z</time>
</trkpt>
<trkpt lat="56.658142" lon="8.175981">
<ele>-8.779476</ele>
<time>2026-07-13T13:35:29.000Z</time>
</trkpt>
<trkpt lat="56.658192" lon="8.176017">
<ele>-8.784264</ele>
<time>2026-07-13T13:35:30.000Z</time>
</trkpt>
<trkpt lat="56.658237" lon="8.176053">
<ele>-8.788642</ele>
<time>2026-07-13T13:35:31.000Z</time>
</trkpt>
<trkpt lat="56.658291" lon="8.176089">
<ele>-8.793763</ele>
<time>2026-07-13T13:35:32.000Z</time>
</trkpt>
<trkpt lat="56.658340" lon="8.176126">
<ele>-8.798488</ele>
<time>2026-07-13T13:35:33.000Z</time>
</trkpt>
<trkpt lat="56.658390" lon="8.176160">
<ele>-8.803241</ele>
<time>2026-07-13T13:35:34.000Z</time>
</trkpt>
<trkpt lat="56.658440" lon="8.176196">
<ele>-8.808030</ele>
<time>2026-07-13T13:35:35.000Z</time>
</trkpt>
<trkpt lat="56.658493" lon="8.176234">
<ele>-8.813103</ele>
<time>2026-07-13T13:35:36.000Z</time>
</trkpt>
<trkpt lat="56.658546" lon="8.176272">
<ele>-8.818176</ele>
<time>2026-07-13T13:35:37.000Z</time>
</trkpt>
<trkpt lat="56.658596" lon="8.176310">
<ele>-8.823001</ele>
<time>2026-07-13T13:35:38.000Z</time>
</trkpt>
<trkpt lat="56.658646" lon="8.176345">
<ele>-8.827772</ele>
<time>2026-07-13T13:35:39.000Z</time>
</trkpt>
<trkpt lat="56.658691" lon="8.176376">
<ele>-8.832057</ele>
<time>2026-07-13T13:35:40.000Z</time>
</trkpt>
<trkpt lat="56.658737" lon="8.176409">
<ele>-8.836460</ele>
<time>2026-07-13T13:35:41.000Z</time>
</trkpt>
<trkpt lat="56.658779" lon="8.176443">
<ele>-8.840554</ele>
<time>2026-07-13T13:35:42.000Z</time>
</trkpt>
<trkpt lat="56.658825" lon="8.176479">
<ele>-8.845013</ele>
<time>2026-07-13T13:35:43.000Z</time>
</trkpt>
<trkpt lat="56.658867" lon="8.176513">
<ele>-8.849107</ele>
<time>2026-07-13T13:35:44.000Z</time>
</trkpt>
<trkpt lat="56.658909" lon="8.176543">
<ele>-8.853125</ele>
<time>2026-07-13T13:35:45.000Z</time>
</trkpt>
<trkpt lat="56.658947" lon="8.176574">
<ele>-8.856834</ele>
<time>2026-07-13T13:35:46.000Z</time>
</trkpt>
<trkpt lat="56.658981" lon="8.176605">
<ele>-8.860220</ele>
<time>2026-07-13T13:35:47.000Z</time>
</trkpt>
<trkpt lat="56.659016" lon="8.176632">
<ele>-8.863606</ele>
<time>2026-07-13T13:35:48.000Z</time>
</trkpt>
<trkpt lat="56.659046" lon="8.176652">
<ele>-8.866451</ele>
<time>2026-07-13T13:35:49.000Z</time>
</trkpt>
<trkpt lat="56.659077" lon="8.176673">
<ele>-8.869397</ele>
<time>2026-07-13T13:35:50.000Z</time>
</trkpt>
<trkpt lat="56.659107" lon="8.176700">
<ele>-8.872377</ele>
<time>2026-07-13T13:35:51.000Z</time>
</trkpt>
<trkpt lat="56.659130" lon="8.176742">
<ele>-8.875279</ele>
<time>2026-07-13T13:35:52.000Z</time>
</trkpt>
<trkpt lat="56.659149" lon="8.176796">
<ele>-8.878418</ele>
<time>2026-07-13T13:35:53.000Z</time>
</trkpt>
<trkpt lat="56.659157" lon="8.176856">
<ele>-8.881439</ele>
<time>2026-07-13T13:35:54.000Z</time>
</trkpt>
<trkpt lat="56.659153" lon="8.176917">
<ele>-8.884446</ele>
<time>2026-07-13T13:35:55.000Z</time>
</trkpt>
<trkpt lat="56.659142" lon="8.176980">
<ele>-8.887682</ele>
<time>2026-07-13T13:35:56.000Z</time>
</trkpt>
<trkpt lat="56.659130" lon="8.177033">
<ele>-8.890487</ele>
<time>2026-07-13T13:35:57.000Z</time>
</trkpt>
<trkpt lat="56.659119" lon="8.177077">
<ele>-8.892853</ele>
<time>2026-07-13T13:35:58.000Z</time>
</trkpt>
<trkpt lat="56.659111" lon="8.177115">
<ele>-8.894845</ele>
<time>2026-07-13T13:35:59.000Z</time>
</trkpt>
<trkpt lat="56.659107" lon="8.177151">
<ele>-8.896642</ele>
<time>2026-07-13T13:36:00.000Z</time>
</trkpt>
<trkpt lat="56.659103" lon="8.177188">
<ele>-8.898488</ele>
<time>2026-07-13T13:36:01.000Z</time>
</trkpt>
<trkpt lat="56.659103" lon="8.177220">
<ele>-8.900054</ele>
<time>2026-07-13T13:36:02.000Z</time>
</trkpt>
<trkpt lat="56.659107" lon="8.177257">
<ele>-8.901900</ele>
<time>2026-07-13T13:36:03.000Z</time>
</trkpt>
<trkpt lat="56.659126" lon="8.177295">
<ele>-8.904414</ele>
<time>2026-07-13T13:36:04.000Z</time>
</trkpt>
<trkpt lat="56.659149" lon="8.177323">
<ele>-8.906879</ele>
<time>2026-07-13T13:36:05.000Z</time>
</trkpt>
<trkpt lat="56.659180" lon="8.177352">
<ele>-8.909983</ele>
<time>2026-07-13T13:36:06.000Z</time>
</trkpt>
<trkpt lat="56.659206" lon="8.177375">
<ele>-8.912557</ele>
<time>2026-07-13T13:36:07.000Z</time>
</trkpt>
<trkpt lat="56.659245" lon="8.177403">
<ele>-8.916291</ele>
<time>2026-07-13T13:36:08.000Z</time>
</trkpt>
<trkpt lat="56.659286" lon="8.177432">
<ele>-8.916012</ele>
<time>2026-07-13T13:36:09.000Z</time>
</trkpt>
<trkpt lat="56.659325" lon="8.177459">
<ele>-8.906287</ele>
<time>2026-07-13T13:36:10.000Z</time>
</trkpt>
<trkpt lat="56.659355" lon="8.177482">
<ele>-8.898699</ele>
<time>2026-07-13T13:36:11.000Z</time>
</trkpt>
<trkpt lat="56.659386" lon="8.177506">
<ele>-8.890846</ele>
<time>2026-07-13T13:36:12.000Z</time>
</trkpt>
<trkpt lat="56.659420" lon="8.177530">
<ele>-8.882346</ele>
<time>2026-07-13T13:36:13.000Z</time>
</trkpt>
<trkpt lat="56.659451" lon="8.177552">
<ele>-8.874590</ele>
<time>2026-07-13T13:36:14.000Z</time>
</trkpt>
<trkpt lat="56.659485" lon="8.177567">
<ele>-8.866436</ele>
<time>2026-07-13T13:36:15.000Z</time>
</trkpt>
<trkpt lat="56.659523" lon="8.177576">
<ele>-8.857504</ele>
<time>2026-07-13T13:36:16.000Z</time>
</trkpt>
<trkpt lat="56.659554" lon="8.177567">
<ele>-8.850187</ele>
<time>2026-07-13T13:36:17.000Z</time>
</trkpt>
<trkpt lat="56.659576" lon="8.177539">
<ele>-8.843930</ele>
<time>2026-07-13T13:36:18.000Z</time>
</trkpt>
<trkpt lat="56.659599" lon="8.177496">
<ele>-8.836243</ele>
<time>2026-07-13T13:36:19.000Z</time>
</trkpt>
<trkpt lat="56.659622" lon="8.177444">
<ele>-8.827693</ele>
<time>2026-07-13T13:36:20.000Z</time>
</trkpt>
<trkpt lat="56.659645" lon="8.177394">
<ele>-8.819340</ele>
<time>2026-07-13T13:36:21.000Z</time>
</trkpt>
<trkpt lat="56.659676" lon="8.177344">
<ele>-8.809684</ele>
<time>2026-07-13T13:36:22.000Z</time>
</trkpt>
<trkpt lat="56.659710" lon="8.177303">
<ele>-8.800177</ele>
<time>2026-07-13T13:36:23.000Z</time>
</trkpt>
<trkpt lat="56.659744" lon="8.177278">
<ele>-8.791630</ele>
<time>2026-07-13T13:36:24.000Z</time>
</trkpt>
<trkpt lat="56.659790" lon="8.177268">
<ele>-8.780832</ele>
<time>2026-07-13T13:36:25.000Z</time>
</trkpt>
<trkpt lat="56.659836" lon="8.177272">
<ele>-8.770098</ele>
<time>2026-07-13T13:36:26.000Z</time>
</trkpt>
<trkpt lat="56.659878" lon="8.177288">
<ele>-8.760096</ele>
<time>2026-07-13T13:36:27.000Z</time>
</trkpt>
<trkpt lat="56.659924" lon="8.177317">
<ele>-8.748749</ele>
<time>2026-07-13T13:36:28.000Z</time>
</trkpt>
<trkpt lat="56.659966" lon="8.177349">
<ele>-8.738136</ele>
<time>2026-07-13T13:36:29.000Z</time>
</trkpt>
<trkpt lat="56.660007" lon="8.177382">
<ele>-8.727687</ele>
<time>2026-07-13T13:36:30.000Z</time>
</trkpt>
<trkpt lat="56.660049" lon="8.177417">
<ele>-8.716919</ele>
<time>2026-07-13T13:36:31.000Z</time>
</trkpt>
<trkpt lat="56.660099" lon="8.177452">
<ele>-8.704433</ele>
<time>2026-07-13T13:36:32.000Z</time>
</trkpt>
<trkpt lat="56.660141" lon="8.177485">
<ele>-8.693770</ele>
<time>2026-07-13T13:36:33.000Z</time>
</trkpt>
<trkpt lat="56.660183" lon="8.177515">
<ele>-8.683253</ele>
<time>2026-07-13T13:36:34.000Z</time>
</trkpt>
<trkpt lat="56.660229" lon="8.177549">
<ele>-8.671680</ele>
<time>2026-07-13T13:36:35.000Z</time>
</trkpt>
<trkpt lat="56.660278" lon="8.177583">
<ele>-8.659457</ele>
<time>2026-07-13T13:36:36.000Z</time>
</trkpt>
<trkpt lat="56.660320" lon="8.177614">
<ele>-8.648893</ele>
<time>2026-07-13T13:36:37.000Z</time>
</trkpt>
<trkpt lat="56.660366" lon="8.177647">
<ele>-8.637368</ele>
<time>2026-07-13T13:36:38.000Z</time>
</trkpt>
<trkpt lat="56.660408" lon="8.177680">
<ele>-8.626705</ele>
<time>2026-07-13T13:36:39.000Z</time>
</trkpt>
<trkpt lat="56.660454" lon="8.177713">
<ele>-8.615180</ele>
<time>2026-07-13T13:36:40.000Z</time>
</trkpt>
<trkpt lat="56.660496" lon="8.177746">
<ele>-8.604517</ele>
<time>2026-07-13T13:36:41.000Z</time>
</trkpt>
<trkpt lat="56.660538" lon="8.177778">
<ele>-8.593904</ele>
<time>2026-07-13T13:36:42.000Z</time>
</trkpt>
<trkpt lat="56.660584" lon="8.177812">
<ele>-8.582331</ele>
<time>2026-07-13T13:36:43.000Z</time>
</trkpt>
<trkpt lat="56.660629" lon="8.177843">
<ele>-8.571116</ele>
<time>2026-07-13T13:36:44.000Z</time>
</trkpt>
<trkpt lat="56.660675" lon="8.177877">
<ele>-8.559544</ele>
<time>2026-07-13T13:36:45.000Z</time>
</trkpt>
<trkpt lat="56.660717" lon="8.177909">
<ele>-8.548931</ele>
<time>2026-07-13T13:36:46.000Z</time>
</trkpt>
<trkpt lat="56.660759" lon="8.177939">
<ele>-8.538414</ele>
<time>2026-07-13T13:36:47.000Z</time>
</trkpt>
<trkpt lat="56.660809" lon="8.177969">
<ele>-8.526143</ele>
<time>2026-07-13T13:36:48.000Z</time>
</trkpt>
<trkpt lat="56.660854" lon="8.177999">
<ele>-8.514972</ele>
<time>2026-07-13T13:36:49.000Z</time>
</trkpt>
<trkpt lat="56.660900" lon="8.178034">
<ele>-8.503351</ele>
<time>2026-07-13T13:36:50.000Z</time>
</trkpt>
<trkpt lat="56.660946" lon="8.178069">
<ele>-8.501465</ele>
<time>2026-07-13T13:36:51.000Z</time>
</trkpt>
<trkpt lat="56.660992" lon="8.178103">
<ele>-8.503816</ele>
<time>2026-07-13T13:36:52.000Z</time>
</trkpt>
<trkpt lat="56.661037" lon="8.178137">
<ele>-8.506123</ele>
<time>2026-07-13T13:36:53.000Z</time>
</trkpt>
<trkpt lat="56.661083" lon="8.178168">
<ele>-8.508445</ele>
<time>2026-07-13T13:36:54.000Z</time>
</trkpt>
<trkpt lat="56.661133" lon="8.178204">
<ele>-8.510992</ele>
<time>2026-07-13T13:36:55.000Z</time>
</trkpt>
<trkpt lat="56.661182" lon="8.178238">
<ele>-8.513475</ele>
<time>2026-07-13T13:36:56.000Z</time>
</trkpt>
<trkpt lat="56.661228" lon="8.178272">
<ele>-8.515826</ele>
<time>2026-07-13T13:36:57.000Z</time>
</trkpt>
<trkpt lat="56.661270" lon="8.178307">
<ele>-8.518013</ele>
<time>2026-07-13T13:36:58.000Z</time>
</trkpt>
<trkpt lat="56.661308" lon="8.178339">
<ele>-8.519996</ele>
<time>2026-07-13T13:36:59.000Z</time>
</trkpt>
<trkpt lat="56.661358" lon="8.178375">
<ele>-8.522542</ele>
<time>2026-07-13T13:37:00.000Z</time>
</trkpt>
<trkpt lat="56.661404" lon="8.178412">
<ele>-8.524923</ele>
<time>2026-07-13T13:37:01.000Z</time>
</trkpt>
<trkpt lat="56.661449" lon="8.178449">
<ele>-8.527261</ele>
<time>2026-07-13T13:37:02.000Z</time>
</trkpt>
<trkpt lat="56.661495" lon="8.178484">
<ele>-8.529622</ele>
<time>2026-07-13T13:37:03.000Z</time>
</trkpt>
<trkpt lat="56.661541" lon="8.178516">
<ele>-8.531954</ele>
<time>2026-07-13T13:37:04.000Z</time>
</trkpt>
<trkpt lat="56.661587" lon="8.178547">
<ele>-8.534277</ele>
<time>2026-07-13T13:37:05.000Z</time>
</trkpt>
<trkpt lat="56.661629" lon="8.178580">
<ele>-8.536443</ele>
<time>2026-07-13T13:37:06.000Z</time>
</trkpt>
<trkpt lat="56.661674" lon="8.178616">
<ele>-8.538771</ele>
<time>2026-07-13T13:37:07.000Z</time>
</trkpt>
<trkpt lat="56.661720" lon="8.178653">
<ele>-8.541152</ele>
<time>2026-07-13T13:37:08.000Z</time>
</trkpt>
<trkpt lat="56.661762" lon="8.178689">
<ele>-8.543350</ele>
<time>2026-07-13T13:37:09.000Z</time>
</trkpt>
<trkpt lat="56.661808" lon="8.178720">
<ele>-8.545673</ele>
<time>2026-07-13T13:37:10.000Z</time>
</trkpt>
<trkpt lat="56.661858" lon="8.178750">
<ele>-8.548166</ele>
<time>2026-07-13T13:37:11.000Z</time>
</trkpt>
<trkpt lat="56.661907" lon="8.178783">
<ele>-8.550640</ele>
<time>2026-07-13T13:37:12.000Z</time>
</trkpt>
<trkpt lat="56.661957" lon="8.178818">
<ele>-8.553177</ele>
<time>2026-07-13T13:37:13.000Z</time>
</trkpt>
<trkpt lat="56.661999" lon="8.178854">
<ele>-8.555375</ele>
<time>2026-07-13T13:37:14.000Z</time>
</trkpt>
<trkpt lat="56.662048" lon="8.178888">
<ele>-8.557858</ele>
<time>2026-07-13T13:37:15.000Z</time>
</trkpt>
<trkpt lat="56.662090" lon="8.178924">
<ele>-8.560056</ele>
<time>2026-07-13T13:37:16.000Z</time>
</trkpt>
<trkpt lat="56.662136" lon="8.178956">
<ele>-8.562388</ele>
<time>2026-07-13T13:37:17.000Z</time>
</trkpt>
<trkpt lat="56.662182" lon="8.178989">
<ele>-8.564730</ele>
<time>2026-07-13T13:37:18.000Z</time>
</trkpt>
<trkpt lat="56.662224" lon="8.179023">
<ele>-8.566906</ele>
<time>2026-07-13T13:37:19.000Z</time>
</trkpt>
<trkpt lat="56.662266" lon="8.179053">
<ele>-8.569043</ele>
<time>2026-07-13T13:37:20.000Z</time>
</trkpt>
<trkpt lat="56.662312" lon="8.179086">
<ele>-8.571384</ele>
<time>2026-07-13T13:37:21.000Z</time>
</trkpt>
<trkpt lat="56.662354" lon="8.179120">
<ele>-8.573561</ele>
<time>2026-07-13T13:37:22.000Z</time>
</trkpt>
<trkpt lat="56.662396" lon="8.179152">
<ele>-8.575717</ele>
<time>2026-07-13T13:37:23.000Z</time>
</trkpt>
<trkpt lat="56.662430" lon="8.179184">
<ele>-8.577529</ele>
<time>2026-07-13T13:37:24.000Z</time>
</trkpt>
<trkpt lat="56.662472" lon="8.179213">
<ele>-8.579656</ele>
<time>2026-07-13T13:37:25.000Z</time>
</trkpt>
<trkpt lat="56.662521" lon="8.179244">
<ele>-8.582113</ele>
<time>2026-07-13T13:37:26.000Z</time>
</trkpt>
<trkpt lat="56.662567" lon="8.179277">
<ele>-8.584454</ele>
<time>2026-07-13T13:37:27.000Z</time>
</trkpt>
<trkpt lat="56.662617" lon="8.179312">
<ele>-8.589229</ele>
<time>2026-07-13T13:37:28.000Z</time>
</trkpt>
<trkpt lat="56.662659" lon="8.179343">
<ele>-8.593772</ele>
<time>2026-07-13T13:37:29.000Z</time>
</trkpt>
<trkpt lat="56.662704" lon="8.179378">
<ele>-8.598678</ele>
<time>2026-07-13T13:37:30.000Z</time>
</trkpt>
<trkpt lat="56.662750" lon="8.179411">
<ele>-8.603635</ele>
<time>2026-07-13T13:37:31.000Z</time>
</trkpt>
<trkpt lat="56.662796" lon="8.179443">
<ele>-8.608572</ele>
<time>2026-07-13T13:37:32.000Z</time>
</trkpt>
<trkpt lat="56.662842" lon="8.179476">
<ele>-8.613529</ele>
<time>2026-07-13T13:37:33.000Z</time>
</trkpt>
<trkpt lat="56.662888" lon="8.179510">
<ele>-8.618506</ele>
<time>2026-07-13T13:37:34.000Z</time>
</trkpt>
<trkpt lat="56.662933" lon="8.179543">
<ele>-8.623370</ele>
<time>2026-07-13T13:37:35.000Z</time>
</trkpt>
<trkpt lat="56.662979" lon="8.179575">
<ele>-8.628307</ele>
<time>2026-07-13T13:37:36.000Z</time>
</trkpt>
<trkpt lat="56.663021" lon="8.179606">
<ele>-8.632851</ele>
<time>2026-07-13T13:37:37.000Z</time>
</trkpt>
<trkpt lat="56.663063" lon="8.179640">
<ele>-8.637459</ele>
<time>2026-07-13T13:37:38.000Z</time>
</trkpt>
<trkpt lat="56.663109" lon="8.179672">
<ele>-8.642396</ele>
<time>2026-07-13T13:37:39.000Z</time>
</trkpt>
<trkpt lat="56.663151" lon="8.179704">
<ele>-8.646961</ele>
<time>2026-07-13T13:37:40.000Z</time>
</trkpt>
<trkpt lat="56.663193" lon="8.179736">
<ele>-8.651525</ele>
<time>2026-07-13T13:37:41.000Z</time>
</trkpt>
<trkpt lat="56.663235" lon="8.179770">
<ele>-8.656134</ele>
<time>2026-07-13T13:37:42.000Z</time>
</trkpt>
<trkpt lat="56.663280" lon="8.179804">
<ele>-8.661018</ele>
<time>2026-07-13T13:37:43.000Z</time>
</trkpt>
<trkpt lat="56.663322" lon="8.179836">
<ele>-8.665583</ele>
<time>2026-07-13T13:37:44.000Z</time>
</trkpt>
<trkpt lat="56.663361" lon="8.179866">
<ele>-8.669827</ele>
<time>2026-07-13T13:37:45.000Z</time>
</trkpt>
<trkpt lat="56.663410" lon="8.179899">
<ele>-8.675065</ele>
<time>2026-07-13T13:37:46.000Z</time>
</trkpt>
<trkpt lat="56.663452" lon="8.179933">
<ele>-8.679673</ele>
<time>2026-07-13T13:37:47.000Z</time>
</trkpt>
<trkpt lat="56.663498" lon="8.179969">
<ele>-8.684693</ele>
<time>2026-07-13T13:37:48.000Z</time>
</trkpt>
<trkpt lat="56.663544" lon="8.180004">
<ele>-8.689692</ele>
<time>2026-07-13T13:37:49.000Z</time>
</trkpt>
<trkpt lat="56.663590" lon="8.180038">
<ele>-8.694669</ele>
<time>2026-07-13T13:37:50.000Z</time>
</trkpt>
<trkpt lat="56.663631" lon="8.180070">
<ele>-8.699141</ele>
<time>2026-07-13T13:37:51.000Z</time>
</trkpt>
<trkpt lat="56.663673" lon="8.180102">
<ele>-8.703706</ele>
<time>2026-07-13T13:37:52.000Z</time>
</trkpt>
<trkpt lat="56.663719" lon="8.180137">
<ele>-8.708704</ele>
<time>2026-07-13T13:37:53.000Z</time>
</trkpt>
<trkpt lat="56.663765" lon="8.180170">
<ele>-8.713661</ele>
<time>2026-07-13T13:37:54.000Z</time>
</trkpt>
<trkpt lat="56.663811" lon="8.180204">
<ele>-8.718638</ele>
<time>2026-07-13T13:37:55.000Z</time>
</trkpt>
<trkpt lat="56.663856" lon="8.180239">
<ele>-8.723544</ele>
<time>2026-07-13T13:37:56.000Z</time>
</trkpt>
<trkpt lat="56.663902" lon="8.180272">
<ele>-8.728501</ele>
<time>2026-07-13T13:37:57.000Z</time>
</trkpt>
<trkpt lat="56.663948" lon="8.180305">
<ele>-8.733458</ele>
<time>2026-07-13T13:37:58.000Z</time>
</trkpt>
<trkpt lat="56.663994" lon="8.180340">
<ele>-8.738456</ele>
<time>2026-07-13T13:37:59.000Z</time>
</trkpt>
<trkpt lat="56.664040" lon="8.180374">
<ele>-8.743434</ele>
<time>2026-07-13T13:38:00.000Z</time>
</trkpt>
<trkpt lat="56.664085" lon="8.180409">
<ele>-8.748340</ele>
<time>2026-07-13T13:38:01.000Z</time>
</trkpt>
<trkpt lat="56.664135" lon="8.180444">
<ele>-8.753710</ele>
<time>2026-07-13T13:38:02.000Z</time>
</trkpt>
<trkpt lat="56.664177" lon="8.180477">
<ele>-8.758296</ele>
<time>2026-07-13T13:38:03.000Z</time>
</trkpt>
<trkpt lat="56.664227" lon="8.180511">
<ele>-8.763647</ele>
<time>2026-07-13T13:38:04.000Z</time>
</trkpt>
<trkpt lat="56.664276" lon="8.180547">
<ele>-8.766599</ele>
<time>2026-07-13T13:38:05.000Z</time>
</trkpt>
<trkpt lat="56.664322" lon="8.180584">
<ele>-8.768398</ele>
<time>2026-07-13T13:38:06.000Z</time>
</trkpt>
<trkpt lat="56.664368" lon="8.180620">
<ele>-8.770189</ele>
<time>2026-07-13T13:38:07.000Z</time>
</trkpt>
<trkpt lat="56.664417" lon="8.180656">
<ele>-8.772079</ele>
<time>2026-07-13T13:38:08.000Z</time>
</trkpt>
<trkpt lat="56.664463" lon="8.180693">
<ele>-8.773878</ele>
<time>2026-07-13T13:38:09.000Z</time>
</trkpt>
<trkpt lat="56.664509" lon="8.180728">
<ele>-8.775661</ele>
<time>2026-07-13T13:38:10.000Z</time>
</trkpt>
<trkpt lat="56.664558" lon="8.180765">
<ele>-8.777558</ele>
<time>2026-07-13T13:38:11.000Z</time>
</trkpt>
<trkpt lat="56.664604" lon="8.180801">
<ele>-8.779349</ele>
<time>2026-07-13T13:38:12.000Z</time>
</trkpt>
<trkpt lat="56.664654" lon="8.180837">
<ele>-8.781273</ele>
<time>2026-07-13T13:38:13.000Z</time>
</trkpt>
<trkpt lat="56.664696" lon="8.180871">
<ele>-8.782917</ele>
<time>2026-07-13T13:38:14.000Z</time>
</trkpt>
<trkpt lat="56.664742" lon="8.180903">
<ele>-8.784678</ele>
<time>2026-07-13T13:38:15.000Z</time>
</trkpt>
<trkpt lat="56.664784" lon="8.180935">
<ele>-8.786307</ele>
<time>2026-07-13T13:38:16.000Z</time>
</trkpt>
<trkpt lat="56.664829" lon="8.180967">
<ele>-8.788035</ele>
<time>2026-07-13T13:38:17.000Z</time>
</trkpt>
<trkpt lat="56.664875" lon="8.181002">
<ele>-8.789818</ele>
<time>2026-07-13T13:38:18.000Z</time>
</trkpt>
<trkpt lat="56.664921" lon="8.181036">
<ele>-8.791594</ele>
<time>2026-07-13T13:38:19.000Z</time>
</trkpt>
<trkpt lat="56.664970" lon="8.181071">
<ele>-8.793477</ele>
<time>2026-07-13T13:38:20.000Z</time>
</trkpt>
<trkpt lat="56.665012" lon="8.181107">
<ele>-8.795137</ele>
<time>2026-07-13T13:38:21.000Z</time>
</trkpt>
<trkpt lat="56.665062" lon="8.181142">
<ele>-8.797053</ele>
<time>2026-07-13T13:38:22.000Z</time>
</trkpt>
<trkpt lat="56.665108" lon="8.181178">
<ele>-8.798844</ele>
<time>2026-07-13T13:38:23.000Z</time>
</trkpt>
<trkpt lat="56.665157" lon="8.181214">
<ele>-8.800734</ele>
<time>2026-07-13T13:38:24.000Z</time>
</trkpt>
<trkpt lat="56.665203" lon="8.181252">
<ele>-8.802541</ele>
<time>2026-07-13T13:38:25.000Z</time>
</trkpt>
<trkpt lat="56.665245" lon="8.181285">
<ele>-8.804177</ele>
<time>2026-07-13T13:38:26.000Z</time>
</trkpt>
<trkpt lat="56.665295" lon="8.181321">
<ele>-8.806100</ele>
<time>2026-07-13T13:38:27.000Z</time>
</trkpt>
<trkpt lat="56.665340" lon="8.181357">
<ele>-8.807859</ele>
<time>2026-07-13T13:38:28.000Z</time>
</trkpt>
<trkpt lat="56.665386" lon="8.181393">
<ele>-8.809650</ele>
<time>2026-07-13T13:38:29.000Z</time>
</trkpt>
<trkpt lat="56.665432" lon="8.181426">
<ele>-8.811418</ele>
<time>2026-07-13T13:38:30.000Z</time>
</trkpt>
<trkpt lat="56.665478" lon="8.181459">
<ele>-8.813187</ele>
<time>2026-07-13T13:38:31.000Z</time>
</trkpt>
<trkpt lat="56.665524" lon="8.181494">
<ele>-8.814970</ele>
<time>2026-07-13T13:38:32.000Z</time>
</trkpt>
<trkpt lat="56.665569" lon="8.181529">
<ele>-8.816720</ele>
<time>2026-07-13T13:38:33.000Z</time>
</trkpt>
<trkpt lat="56.665615" lon="8.181563">
<ele>-8.818496</ele>
<time>2026-07-13T13:38:34.000Z</time>
</trkpt>
<trkpt lat="56.665657" lon="8.181597">
<ele>-8.820140</ele>
<time>2026-07-13T13:38:35.000Z</time>
</trkpt>
<trkpt lat="56.665703" lon="8.181630">
<ele>-8.821909</ele>
<time>2026-07-13T13:38:36.000Z</time>
</trkpt>
<trkpt lat="56.665749" lon="8.181662">
<ele>-8.823670</ele>
<time>2026-07-13T13:38:37.000Z</time>
</trkpt>
<trkpt lat="56.665794" lon="8.181694">
<ele>-8.825398</ele>
<time>2026-07-13T13:38:38.000Z</time>
</trkpt>
<trkpt lat="56.665844" lon="8.181728">
<ele>-8.827307</ele>
<time>2026-07-13T13:38:39.000Z</time>
</trkpt>
<trkpt lat="56.665886" lon="8.181760">
<ele>-8.828936</ele>
<time>2026-07-13T13:38:40.000Z</time>
</trkpt>
<trkpt lat="56.665939" lon="8.181796">
<ele>-8.836591</ele>
<time>2026-07-13T13:38:41.000Z</time>
</trkpt>
<trkpt lat="56.665989" lon="8.181835">
<ele>-8.846778</ele>
<time>2026-07-13T13:38:42.000Z</time>
</trkpt>
<trkpt lat="56.666042" lon="8.181872">
<ele>-8.857408</ele>
<time>2026-07-13T13:38:43.000Z</time>
</trkpt>
<trkpt lat="56.666088" lon="8.181910">
<ele>-8.866868</ele>
<time>2026-07-13T13:38:44.000Z</time>
</trkpt>
<trkpt lat="56.666138" lon="8.181946">
<ele>-8.876937</ele>
<time>2026-07-13T13:38:45.000Z</time>
</trkpt>
<trkpt lat="56.666183" lon="8.181983">
<ele>-8.886183</ele>
<time>2026-07-13T13:38:46.000Z</time>
</trkpt>
<trkpt lat="56.666229" lon="8.182019">
<ele>-8.895560</ele>
<time>2026-07-13T13:38:47.000Z</time>
</trkpt>
<trkpt lat="56.666275" lon="8.182055">
<ele>-8.904937</ele>
<time>2026-07-13T13:38:48.000Z</time>
</trkpt>
<trkpt lat="56.666325" lon="8.182091">
<ele>-8.915006</ele>
<time>2026-07-13T13:38:49.000Z</time>
</trkpt>
<trkpt lat="56.666370" lon="8.182127">
<ele>-8.924210</ele>
<time>2026-07-13T13:38:50.000Z</time>
</trkpt>
<trkpt lat="56.666420" lon="8.182164">
<ele>-8.934318</ele>
<time>2026-07-13T13:38:51.000Z</time>
</trkpt>
<trkpt lat="56.666466" lon="8.182199">
<ele>-8.943654</ele>
<time>2026-07-13T13:38:52.000Z</time>
</trkpt>
<trkpt lat="56.666515" lon="8.182234">
<ele>-8.953511</ele>
<time>2026-07-13T13:38:53.000Z</time>
</trkpt>
<trkpt lat="56.666561" lon="8.182270">
<ele>-8.962888</ele>
<time>2026-07-13T13:38:54.000Z</time>
</trkpt>
<trkpt lat="56.666607" lon="8.182305">
<ele>-8.972224</ele>
<time>2026-07-13T13:38:55.000Z</time>
</trkpt>
<trkpt lat="56.666657" lon="8.182340">
<ele>-8.982256</ele>
<time>2026-07-13T13:38:56.000Z</time>
</trkpt>
<trkpt lat="56.666702" lon="8.182374">
<ele>-8.991380</ele>
<time>2026-07-13T13:38:57.000Z</time>
</trkpt>
<trkpt lat="56.666752" lon="8.182408">
<ele>-9.001375</ele>
<time>2026-07-13T13:38:58.000Z</time>
</trkpt>
<trkpt lat="56.666798" lon="8.182444">
<ele>-9.010751</ele>
<time>2026-07-13T13:38:59.000Z</time>
</trkpt>
<trkpt lat="56.666851" lon="8.182479">
<ele>-9.021309</ele>
<time>2026-07-13T13:39:00.000Z</time>
</trkpt>
<trkpt lat="56.666897" lon="8.182514">
<ele>-9.030646</ele>
<time>2026-07-13T13:39:01.000Z</time>
</trkpt>
<trkpt lat="56.666946" lon="8.182552">
<ele>-9.040620</ele>
<time>2026-07-13T13:39:02.000Z</time>
</trkpt>
<trkpt lat="56.666996" lon="8.182588">
<ele>-9.050689</ele>
<time>2026-07-13T13:39:03.000Z</time>
</trkpt>
<trkpt lat="56.667046" lon="8.182624">
<ele>-9.060758</ele>
<time>2026-07-13T13:39:04.000Z</time>
</trkpt>
<trkpt lat="56.667091" lon="8.182659">
<ele>-9.069921</ele>
<time>2026-07-13T13:39:05.000Z</time>
</trkpt>
<trkpt lat="56.667137" lon="8.182694">
<ele>-9.079258</ele>
<time>2026-07-13T13:39:06.000Z</time>
</trkpt>
<trkpt lat="56.667187" lon="8.182734">
<ele>-9.089485</ele>
<time>2026-07-13T13:39:07.000Z</time>
</trkpt>
<trkpt lat="56.667236" lon="8.182770">
<ele>-9.099380</ele>
<time>2026-07-13T13:39:08.000Z</time>
</trkpt>
<trkpt lat="56.667282" lon="8.182806">
<ele>-9.108757</ele>
<time>2026-07-13T13:39:09.000Z</time>
</trkpt>
<trkpt lat="56.667332" lon="8.182846">
<ele>-9.118985</ele>
<time>2026-07-13T13:39:10.000Z</time>
</trkpt>
<trkpt lat="56.667381" lon="8.182884">
<ele>-9.128959</ele>
<time>2026-07-13T13:39:11.000Z</time>
</trkpt>
<trkpt lat="56.667435" lon="8.182920">
<ele>-9.139728</ele>
<time>2026-07-13T13:39:12.000Z</time>
</trkpt>
<trkpt lat="56.667480" lon="8.182956">
<ele>-9.148932</ele>
<time>2026-07-13T13:39:13.000Z</time>
</trkpt>
<trkpt lat="56.667530" lon="8.182994">
<ele>-9.159079</ele>
<time>2026-07-13T13:39:14.000Z</time>
</trkpt>
<trkpt lat="56.667580" lon="8.183032">
<ele>-9.166945</ele>
<time>2026-07-13T13:39:15.000Z</time>
</trkpt>
<trkpt lat="56.667629" lon="8.183069">
<ele>-9.168758</ele>
<time>2026-07-13T13:39:16.000Z</time>
</trkpt>
<trkpt lat="56.667679" lon="8.183107">
<ele>-9.170609</ele>
<time>2026-07-13T13:39:17.000Z</time>
</trkpt>
<trkpt lat="56.667732" lon="8.183145">
<ele>-9.172555</ele>
<time>2026-07-13T13:39:18.000Z</time>
</trkpt>
<trkpt lat="56.667778" lon="8.183182">
<ele>-9.174273</ele>
<time>2026-07-13T13:39:19.000Z</time>
</trkpt>
<trkpt lat="56.667831" lon="8.183221">
<ele>-9.176225</ele>
<time>2026-07-13T13:39:20.000Z</time>
</trkpt>
<trkpt lat="56.667881" lon="8.183259">
<ele>-9.178076</ele>
<time>2026-07-13T13:39:21.000Z</time>
</trkpt>
<trkpt lat="56.667934" lon="8.183296">
<ele>-9.180016</ele>
<time>2026-07-13T13:39:22.000Z</time>
</trkpt>
<trkpt lat="56.667988" lon="8.183335">
<ele>-9.182000</ele>
<time>2026-07-13T13:39:23.000Z</time>
</trkpt>
<trkpt lat="56.668037" lon="8.183373">
<ele>-9.183820</ele>
<time>2026-07-13T13:39:24.000Z</time>
</trkpt>
<trkpt lat="56.668087" lon="8.183407">
<ele>-9.185643</ele>
<time>2026-07-13T13:39:25.000Z</time>
</trkpt>
<trkpt lat="56.668137" lon="8.183443">
<ele>-9.187480</ele>
<time>2026-07-13T13:39:26.000Z</time>
</trkpt>
<trkpt lat="56.668186" lon="8.183480">
<ele>-9.189292</ele>
<time>2026-07-13T13:39:27.000Z</time>
</trkpt>
<trkpt lat="56.668232" lon="8.183517">
<ele>-9.191010</ele>
<time>2026-07-13T13:39:28.000Z</time>
</trkpt>
<trkpt lat="56.668282" lon="8.183555">
<ele>-9.192861</ele>
<time>2026-07-13T13:39:29.000Z</time>
</trkpt>
<trkpt lat="56.668335" lon="8.183592">
<ele>-9.194800</ele>
<time>2026-07-13T13:39:30.000Z</time>
</trkpt>
<trkpt lat="56.668377" lon="8.183623">
<ele>-9.196348</ele>
<time>2026-07-13T13:39:31.000Z</time>
</trkpt>
<trkpt lat="56.668430" lon="8.183661">
<ele>-9.198294</ele>
<time>2026-07-13T13:39:32.000Z</time>
</trkpt>
<trkpt lat="56.668480" lon="8.183701">
<ele>-9.200160</ele>
<time>2026-07-13T13:39:33.000Z</time>
</trkpt>
<trkpt lat="56.668533" lon="8.183741">
<ele>-9.202120</ele>
<time>2026-07-13T13:39:34.000Z</time>
</trkpt>
<trkpt lat="56.668579" lon="8.183776">
<ele>-9.203823</ele>
<time>2026-07-13T13:39:35.000Z</time>
</trkpt>
<trkpt lat="56.668629" lon="8.183814">
<ele>-9.205674</ele>
<time>2026-07-13T13:39:36.000Z</time>
</trkpt>
<trkpt lat="56.668674" lon="8.183849">
<ele>-9.207346</ele>
<time>2026-07-13T13:39:37.000Z</time>
</trkpt>
<trkpt lat="56.668724" lon="8.183886">
<ele>-9.209190</ele>
<time>2026-07-13T13:39:38.000Z</time>
</trkpt>
<trkpt lat="56.668774" lon="8.183925">
<ele>-9.211048</ele>
<time>2026-07-13T13:39:39.000Z</time>
</trkpt>
<trkpt lat="56.668823" lon="8.183963">
<ele>-9.212868</ele>
<time>2026-07-13T13:39:40.000Z</time>
</trkpt>
<trkpt lat="56.668877" lon="8.184001">
<ele>-9.214845</ele>
<time>2026-07-13T13:39:41.000Z</time>
</trkpt>
<trkpt lat="56.668926" lon="8.184037">
<ele>-9.216650</ele>
<time>2026-07-13T13:39:42.000Z</time>
</trkpt>
<trkpt lat="56.668976" lon="8.184072">
<ele>-9.218480</ele>
<time>2026-07-13T13:39:43.000Z</time>
</trkpt>
<trkpt lat="56.669025" lon="8.184111">
<ele>-9.220307</ele>
<time>2026-07-13T13:39:44.000Z</time>
</trkpt>
<trkpt lat="56.669075" lon="8.184148">
<ele>-9.222151</ele>
<time>2026-07-13T13:39:45.000Z</time>
</trkpt>
<trkpt lat="56.669125" lon="8.184187">
<ele>-9.224009</ele>
<time>2026-07-13T13:39:46.000Z</time>
</trkpt>
<trkpt lat="56.669174" lon="8.184224">
<ele>-9.225822</ele>
<time>2026-07-13T13:39:47.000Z</time>
</trkpt>
<trkpt lat="56.669224" lon="8.184260">
<ele>-9.227658</ele>
<time>2026-07-13T13:39:48.000Z</time>
</trkpt>
<trkpt lat="56.669270" lon="8.184297">
<ele>-9.220608</ele>
<time>2026-07-13T13:39:49.000Z</time>
</trkpt>
<trkpt lat="56.669319" lon="8.184334">
<ele>-9.211809</ele>
<time>2026-07-13T13:39:50.000Z</time>
</trkpt>
<trkpt lat="56.669373" lon="8.184369">
<ele>-9.202302</ele>
<time>2026-07-13T13:39:51.000Z</time>
</trkpt>
<trkpt lat="56.669418" lon="8.184402">
<ele>-9.194256</ele>
<time>2026-07-13T13:39:52.000Z</time>
</trkpt>
<trkpt lat="56.669468" lon="8.184443">
<ele>-9.185160</ele>
<time>2026-07-13T13:39:53.000Z</time>
</trkpt>
<trkpt lat="56.669521" lon="8.184484">
<ele>-9.175609</ele>
<time>2026-07-13T13:39:54.000Z</time>
</trkpt>
<trkpt lat="56.669571" lon="8.184522">
<ele>-9.166622</ele>
<time>2026-07-13T13:39:55.000Z</time>
</trkpt>
<trkpt lat="56.669617" lon="8.184563">
<ele>-9.158127</ele>
<time>2026-07-13T13:39:56.000Z</time>
</trkpt>
<trkpt lat="56.669666" lon="8.184599">
<ele>-9.149363</ele>
<time>2026-07-13T13:39:57.000Z</time>
</trkpt>
<trkpt lat="56.669712" lon="8.184636">
<ele>-9.141022</ele>
<time>2026-07-13T13:39:58.000Z</time>
</trkpt>
<trkpt lat="56.669765" lon="8.184672">
<ele>-9.131639</ele>
<time>2026-07-13T13:39:59.000Z</time>
</trkpt>
<trkpt lat="56.669815" lon="8.184708">
<ele>-9.122721</ele>
<time>2026-07-13T13:40:00.000Z</time>
</trkpt>
<trkpt lat="56.669868" lon="8.184743">
<ele>-9.113370</ele>
<time>2026-07-13T13:40:01.000Z</time>
</trkpt>
<trkpt lat="56.669918" lon="8.184778">
<ele>-9.104485</ele>
<time>2026-07-13T13:40:02.000Z</time>
</trkpt>
<trkpt lat="56.669968" lon="8.184814">
<ele>-9.095567</ele>
<time>2026-07-13T13:40:03.000Z</time>
</trkpt>
<trkpt lat="56.670017" lon="8.184851">
<ele>-9.086768</ele>
<time>2026-07-13T13:40:04.000Z</time>
</trkpt>
<trkpt lat="56.670067" lon="8.184889">
<ele>-9.077782</ele>
<time>2026-07-13T13:40:05.000Z</time>
</trkpt>
<trkpt lat="56.670116" lon="8.184924">
<ele>-9.069051</ele>
<time>2026-07-13T13:40:06.000Z</time>
</trkpt>
<trkpt lat="56.670170" lon="8.184962">
<ele>-9.059449</ele>
<time>2026-07-13T13:40:07.000Z</time>
</trkpt>
<trkpt lat="56.670219" lon="8.184999">
<ele>-9.050650</ele>
<time>2026-07-13T13:40:08.000Z</time>
</trkpt>
<trkpt lat="56.670269" lon="8.185034">
<ele>-9.041766</ele>
<time>2026-07-13T13:40:09.000Z</time>
</trkpt>
<trkpt lat="56.670315" lon="8.185071">
<ele>-9.033424</ele>
<time>2026-07-13T13:40:10.000Z</time>
</trkpt>
<trkpt lat="56.670368" lon="8.185110">
<ele>-9.023943</ele>
<time>2026-07-13T13:40:11.000Z</time>
</trkpt>
<trkpt lat="56.670418" lon="8.185151">
<ele>-9.014847</ele>
<time>2026-07-13T13:40:12.000Z</time>
</trkpt>
<trkpt lat="56.670471" lon="8.185189">
<ele>-9.005399</ele>
<time>2026-07-13T13:40:13.000Z</time>
</trkpt>
<trkpt lat="56.670521" lon="8.185229">
<ele>-8.996341</ele>
<time>2026-07-13T13:40:14.000Z</time>
</trkpt>
<trkpt lat="56.670570" lon="8.185266">
<ele>-8.987542</ele>
<time>2026-07-13T13:40:15.000Z</time>
</trkpt>
<trkpt lat="56.670624" lon="8.185304">
<ele>-8.977940</ele>
<time>2026-07-13T13:40:16.000Z</time>
</trkpt>
<trkpt lat="56.670670" lon="8.185339">
<ele>-8.969671</ele>
<time>2026-07-13T13:40:17.000Z</time>
</trkpt>
<trkpt lat="56.670723" lon="8.185374">
<ele>-8.960320</ele>
<time>2026-07-13T13:40:18.000Z</time>
</trkpt>
<trkpt lat="56.670773" lon="8.185411">
<ele>-8.951368</ele>
<time>2026-07-13T13:40:19.000Z</time>
</trkpt>
<trkpt lat="56.670818" lon="8.185446">
<ele>-8.943252</ele>
<time>2026-07-13T13:40:20.000Z</time>
</trkpt>
<trkpt lat="56.670868" lon="8.185485">
<ele>-8.934229</ele>
<time>2026-07-13T13:40:21.000Z</time>
</trkpt>
<trkpt lat="56.670921" lon="8.185522">
<ele>-8.927700</ele>
<time>2026-07-13T13:40:22.000Z</time>
</trkpt>
<trkpt lat="56.670971" lon="8.185558">
<ele>-8.924197</ele>
<time>2026-07-13T13:40:23.000Z</time>
</trkpt>
<trkpt lat="56.671020" lon="8.185594">
<ele>-8.920754</ele>
<time>2026-07-13T13:40:24.000Z</time>
</trkpt>
<trkpt lat="56.671070" lon="8.185631">
<ele>-8.917237</ele>
<time>2026-07-13T13:40:25.000Z</time>
</trkpt>
<trkpt lat="56.671120" lon="8.185669">
<ele>-8.913707</ele>
<time>2026-07-13T13:40:26.000Z</time>
</trkpt>
<trkpt lat="56.671173" lon="8.185708">
<ele>-8.909983</ele>
<time>2026-07-13T13:40:27.000Z</time>
</trkpt>
<trkpt lat="56.671223" lon="8.185747">
<ele>-8.906438</ele>
<time>2026-07-13T13:40:28.000Z</time>
</trkpt>
<trkpt lat="56.671272" lon="8.185785">
<ele>-8.902968</ele>
<time>2026-07-13T13:40:29.000Z</time>
</trkpt>
<trkpt lat="56.671322" lon="8.185822">
<ele>-8.899452</ele>
<time>2026-07-13T13:40:30.000Z</time>
</trkpt>
<trkpt lat="56.671371" lon="8.185859">
<ele>-8.895995</ele>
<time>2026-07-13T13:40:31.000Z</time>
</trkpt>
<trkpt lat="56.671425" lon="8.185896">
<ele>-8.892236</ele>
<time>2026-07-13T13:40:32.000Z</time>
</trkpt>
<trkpt lat="56.671474" lon="8.185934">
<ele>-8.888766</ele>
<time>2026-07-13T13:40:33.000Z</time>
</trkpt>
<trkpt lat="56.671524" lon="8.185971">
<ele>-8.885249</ele>
<time>2026-07-13T13:40:34.000Z</time>
</trkpt>
<trkpt lat="56.671574" lon="8.186010">
<ele>-8.881705</ele>
<time>2026-07-13T13:40:35.000Z</time>
</trkpt>
<trkpt lat="56.671623" lon="8.186048">
<ele>-8.878235</ele>
<time>2026-07-13T13:40:36.000Z</time>
</trkpt>
<trkpt lat="56.671673" lon="8.186088">
<ele>-8.874677</ele>
<time>2026-07-13T13:40:37.000Z</time>
</trkpt>
<trkpt lat="56.671726" lon="8.186126">
<ele>-8.870965</ele>
<time>2026-07-13T13:40:38.000Z</time>
</trkpt>
<trkpt lat="56.671776" lon="8.186164">
<ele>-8.867435</ele>
<time>2026-07-13T13:40:39.000Z</time>
</trkpt>
<trkpt lat="56.671822" lon="8.186199">
<ele>-8.864187</ele>
<time>2026-07-13T13:40:40.000Z</time>
</trkpt>
<trkpt lat="56.671871" lon="8.186235">
<ele>-8.860744</ele>
<time>2026-07-13T13:40:41.000Z</time>
</trkpt>
<trkpt lat="56.671921" lon="8.186271">
<ele>-8.857241</ele>
<time>2026-07-13T13:40:42.000Z</time>
</trkpt>
<trkpt lat="56.671967" lon="8.186308">
<ele>-8.853964</ele>
<time>2026-07-13T13:40:43.000Z</time>
</trkpt>
<trkpt lat="56.672020" lon="8.186348">
<ele>-8.850226</ele>
<time>2026-07-13T13:40:44.000Z</time>
</trkpt>
<trkpt lat="56.672066" lon="8.186385">
<ele>-8.846949</ele>
<time>2026-07-13T13:40:45.000Z</time>
</trkpt>
<trkpt lat="56.672115" lon="8.186422">
<ele>-8.843493</ele>
<time>2026-07-13T13:40:46.000Z</time>
</trkpt>
<trkpt lat="56.672165" lon="8.186460">
<ele>-8.839963</ele>
<time>2026-07-13T13:40:47.000Z</time>
</trkpt>
<trkpt lat="56.672214" lon="8.186497">
<ele>-8.836506</ele>
<time>2026-07-13T13:40:48.000Z</time>
</trkpt>
<trkpt lat="56.672260" lon="8.186532">
<ele>-8.833258</ele>
<time>2026-07-13T13:40:49.000Z</time>
</trkpt>
<trkpt lat="56.672310" lon="8.186569">
<ele>-8.829741</ele>
<time>2026-07-13T13:40:50.000Z</time>
</trkpt>
<trkpt lat="56.672359" lon="8.186607">
<ele>-8.826271</ele>
<time>2026-07-13T13:40:51.000Z</time>
</trkpt>
<trkpt lat="56.672409" lon="8.186644">
<ele>-8.822755</ele>
<time>2026-07-13T13:40:52.000Z</time>
</trkpt>
<trkpt lat="56.672459" lon="8.186682">
<ele>-8.819225</ele>
<time>2026-07-13T13:40:53.000Z</time>
</trkpt>
<trkpt lat="56.672508" lon="8.186719">
<ele>-8.815768</ele>
<time>2026-07-13T13:40:54.000Z</time>
</trkpt>
<trkpt lat="56.672554" lon="8.186755">
<ele>-8.812506</ele>
<time>2026-07-13T13:40:55.000Z</time>
</trkpt>
<trkpt lat="56.672604" lon="8.186790">
<ele>-8.816417</ele>
<time>2026-07-13T13:40:56.000Z</time>
</trkpt>
<trkpt lat="56.672653" lon="8.186825">
<ele>-8.820530</ele>
<time>2026-07-13T13:40:57.000Z</time>
</trkpt>
<trkpt lat="56.672699" lon="8.186860">
<ele>-8.824426</ele>
<time>2026-07-13T13:40:58.000Z</time>
</trkpt>
<trkpt lat="56.672749" lon="8.186895">
<ele>-8.828612</ele>
<time>2026-07-13T13:40:59.000Z</time>
</trkpt>
<trkpt lat="56.672794" lon="8.186932">
<ele>-8.832470</ele>
<time>2026-07-13T13:41:00.000Z</time>
</trkpt>
<trkpt lat="56.672848" lon="8.186969">
<ele>-8.836978</ele>
<time>2026-07-13T13:41:01.000Z</time>
</trkpt>
<trkpt lat="56.672894" lon="8.187005">
<ele>-8.840891</ele>
<time>2026-07-13T13:41:02.000Z</time>
</trkpt>
<trkpt lat="56.672939" lon="8.187042">
<ele>-8.844749</ele>
<time>2026-07-13T13:41:03.000Z</time>
</trkpt>
<trkpt lat="56.672989" lon="8.187076">
<ele>-8.848920</ele>
<time>2026-07-13T13:41:04.000Z</time>
</trkpt>
<trkpt lat="56.673035" lon="8.187110">
<ele>-8.852799</ele>
<time>2026-07-13T13:41:05.000Z</time>
</trkpt>
<trkpt lat="56.673080" lon="8.187140">
<ele>-8.856544</ele>
<time>2026-07-13T13:41:06.000Z</time>
</trkpt>
<trkpt lat="56.673119" lon="8.187171">
<ele>-8.859869</ele>
<time>2026-07-13T13:41:07.000Z</time>
</trkpt>
<trkpt lat="56.673161" lon="8.187202">
<ele>-8.863410</ele>
<time>2026-07-13T13:41:08.000Z</time>
</trkpt>
<trkpt lat="56.673203" lon="8.187235">
<ele>-8.866985</ele>
<time>2026-07-13T13:41:09.000Z</time>
</trkpt>
<trkpt lat="56.673233" lon="8.187263">
<ele>-8.869619</ele>
<time>2026-07-13T13:41:10.000Z</time>
</trkpt>
<trkpt lat="56.673267" lon="8.187297">
<ele>-8.872650</ele>
<time>2026-07-13T13:41:11.000Z</time>
</trkpt>
<trkpt lat="56.673302" lon="8.187324">
<ele>-8.875621</ele>
<time>2026-07-13T13:41:12.000Z</time>
</trkpt>
<trkpt lat="56.673332" lon="8.187346">
<ele>-8.878148</ele>
<time>2026-07-13T13:41:13.000Z</time>
</trkpt>
<trkpt lat="56.673355" lon="8.187361">
<ele>-8.880057</ele>
<time>2026-07-13T13:41:14.000Z</time>
</trkpt>
<trkpt lat="56.673386" lon="8.187379">
<ele>-8.882599</ele>
<time>2026-07-13T13:41:15.000Z</time>
</trkpt>
<trkpt lat="56.673416" lon="8.187399">
<ele>-8.885096</ele>
<time>2026-07-13T13:41:16.000Z</time>
</trkpt>
<trkpt lat="56.673443" lon="8.187423">
<ele>-8.887444</ele>
<time>2026-07-13T13:41:17.000Z</time>
</trkpt>
<trkpt lat="56.673470" lon="8.187446">
<ele>-8.889773</ele>
<time>2026-07-13T13:41:18.000Z</time>
</trkpt>
<trkpt lat="56.673500" lon="8.187467">
<ele>-8.892284</ele>
<time>2026-07-13T13:41:19.000Z</time>
</trkpt>
<trkpt lat="56.673531" lon="8.187488">
<ele>-8.894869</ele>
<time>2026-07-13T13:41:20.000Z</time>
</trkpt>
<trkpt lat="56.673565" lon="8.187510">
<ele>-8.897688</ele>
<time>2026-07-13T13:41:21.000Z</time>
</trkpt>
<trkpt lat="56.673599" lon="8.187535">
<ele>-8.900554</ele>
<time>2026-07-13T13:41:22.000Z</time>
</trkpt>
<trkpt lat="56.673634" lon="8.187564">
<ele>-8.903558</ele>
<time>2026-07-13T13:41:23.000Z</time>
</trkpt>
<trkpt lat="56.673668" lon="8.187592">
<ele>-8.906474</ele>
<time>2026-07-13T13:41:24.000Z</time>
</trkpt>
<trkpt lat="56.673702" lon="8.187618">
<ele>-8.909356</ele>
<time>2026-07-13T13:41:25.000Z</time>
</trkpt>
<trkpt lat="56.673737" lon="8.187642">
<ele>-8.912278</ele>
<time>2026-07-13T13:41:26.000Z</time>
</trkpt>
<trkpt lat="56.673771" lon="8.187666">
<ele>-8.915128</ele>
<time>2026-07-13T13:41:27.000Z</time>
</trkpt>
<trkpt lat="56.673805" lon="8.187690">
<ele>-8.917977</ele>
<time>2026-07-13T13:41:28.000Z</time>
</trkpt>
<trkpt lat="56.673843" lon="8.187717">
<ele>-8.921165</ele>
<time>2026-07-13T13:41:29.000Z</time>
</trkpt>
<trkpt lat="56.673878" lon="8.187741">
<ele>-8.924087</ele>
<time>2026-07-13T13:41:30.000Z</time>
</trkpt>
<trkpt lat="56.673912" lon="8.187767">
<ele>-8.926969</ele>
<time>2026-07-13T13:41:31.000Z</time>
</trkpt>
<trkpt lat="56.673943" lon="8.187791">
<ele>-8.929601</ele>
<time>2026-07-13T13:41:32.000Z</time>
</trkpt>
<trkpt lat="56.673973" lon="8.187815">
<ele>-8.932161</ele>
<time>2026-07-13T13:41:33.000Z</time>
</trkpt>
<trkpt lat="56.674004" lon="8.187836">
<ele>-8.934746</ele>
<time>2026-07-13T13:41:34.000Z</time>
</trkpt>
<trkpt lat="56.674030" lon="8.187860">
<ele>-8.937024</ele>
<time>2026-07-13T13:41:35.000Z</time>
</trkpt>
<trkpt lat="56.674057" lon="8.187881">
<ele>-8.939318</ele>
<time>2026-07-13T13:41:36.000Z</time>
</trkpt>
<trkpt lat="56.674084" lon="8.187902">
<ele>-8.941612</ele>
<time>2026-07-13T13:41:37.000Z</time>
</trkpt>
<trkpt lat="56.674110" lon="8.187924">
<ele>-8.943853</ele>
<time>2026-07-13T13:41:38.000Z</time>
</trkpt>
<trkpt lat="56.674133" lon="8.187943">
<ele>-8.945826</ele>
<time>2026-07-13T13:41:39.000Z</time>
</trkpt>
<trkpt lat="56.674156" lon="8.187960">
<ele>-8.947766</ele>
<time>2026-07-13T13:41:40.000Z</time>
</trkpt>
<trkpt lat="56.674187" lon="8.187980">
<ele>-8.950336</ele>
<time>2026-07-13T13:41:41.000Z</time>
</trkpt>
<trkpt lat="56.674217" lon="8.188001">
<ele>-8.952847</ele>
<time>2026-07-13T13:41:42.000Z</time>
</trkpt>
<trkpt lat="56.674252" lon="8.188026">
<ele>-8.949511</ele>
<time>2026-07-13T13:41:43.000Z</time>
</trkpt>
<trkpt lat="56.674286" lon="8.188051">
<ele>-8.946100</ele>
<time>2026-07-13T13:41:44.000Z</time>
</trkpt>
<trkpt lat="56.674324" lon="8.188077">
<ele>-8.942324</ele>
<time>2026-07-13T13:41:45.000Z</time>
</trkpt>
<trkpt lat="56.674358" lon="8.188103">
<ele>-8.938893</ele>
<time>2026-07-13T13:41:46.000Z</time>
</trkpt>
<trkpt lat="56.674400" lon="8.188130">
<ele>-8.934749</ele>
<time>2026-07-13T13:41:47.000Z</time>
</trkpt>
<trkpt lat="56.674438" lon="8.188159">
<ele>-8.930916</ele>
<time>2026-07-13T13:41:48.000Z</time>
</trkpt>
<trkpt lat="56.674480" lon="8.188190">
<ele>-8.926700</ele>
<time>2026-07-13T13:41:49.000Z</time>
</trkpt>
<trkpt lat="56.674522" lon="8.188221">
<ele>-8.922484</ele>
<time>2026-07-13T13:41:50.000Z</time>
</trkpt>
<trkpt lat="56.674564" lon="8.188253">
<ele>-8.918249</ele>
<time>2026-07-13T13:41:51.000Z</time>
</trkpt>
<trkpt lat="56.674606" lon="8.188285">
<ele>-8.914013</ele>
<time>2026-07-13T13:41:52.000Z</time>
</trkpt>
<trkpt lat="56.674652" lon="8.188317">
<ele>-8.909432</ele>
<time>2026-07-13T13:41:53.000Z</time>
</trkpt>
<trkpt lat="56.674694" lon="8.188348">
<ele>-8.905216</ele>
<time>2026-07-13T13:41:54.000Z</time>
</trkpt>
<trkpt lat="56.674736" lon="8.188379">
<ele>-8.901000</ele>
<time>2026-07-13T13:41:55.000Z</time>
</trkpt>
<trkpt lat="56.674782" lon="8.188412">
<ele>-8.896400</ele>
<time>2026-07-13T13:41:56.000Z</time>
</trkpt>
<trkpt lat="56.674824" lon="8.188445">
<ele>-8.892145</ele>
<time>2026-07-13T13:41:57.000Z</time>
</trkpt>
<trkpt lat="56.674870" lon="8.188479">
<ele>-8.887526</ele>
<time>2026-07-13T13:41:58.000Z</time>
</trkpt>
<trkpt lat="56.674915" lon="8.188515">
<ele>-8.882953</ele>
<time>2026-07-13T13:41:59.000Z</time>
</trkpt>
<trkpt lat="56.674957" lon="8.188550">
<ele>-8.878656</ele>
<time>2026-07-13T13:42:00.000Z</time>
</trkpt>
<trkpt lat="56.675007" lon="8.188584">
<ele>-8.873691</ele>
<time>2026-07-13T13:42:01.000Z</time>
</trkpt>
<trkpt lat="56.675053" lon="8.188620">
<ele>-8.869033</ele>
<time>2026-07-13T13:42:02.000Z</time>
</trkpt>
<trkpt lat="56.675098" lon="8.188656">
<ele>-8.864460</ele>
<time>2026-07-13T13:42:03.000Z</time>
</trkpt>
<trkpt lat="56.675148" lon="8.188692">
<ele>-8.859458</ele>
<time>2026-07-13T13:42:04.000Z</time>
</trkpt>
<trkpt lat="56.675194" lon="8.188725">
<ele>-8.854859</ele>
<time>2026-07-13T13:42:05.000Z</time>
</trkpt>
<trkpt lat="56.675243" lon="8.188762">
<ele>-8.849924</ele>
<time>2026-07-13T13:42:06.000Z</time>
</trkpt>
<trkpt lat="56.675297" lon="8.188798">
<ele>-8.844574</ele>
<time>2026-07-13T13:42:07.000Z</time>
</trkpt>
<trkpt lat="56.675343" lon="8.188832">
<ele>-8.839956</ele>
<time>2026-07-13T13:42:08.000Z</time>
</trkpt>
<trkpt lat="56.675396" lon="8.188869">
<ele>-8.834675</ele>
<time>2026-07-13T13:42:09.000Z</time>
</trkpt>
<trkpt lat="56.675442" lon="8.188906">
<ele>-8.829997</ele>
<time>2026-07-13T13:42:10.000Z</time>
</trkpt>
<trkpt lat="56.675488" lon="8.188943">
<ele>-8.825318</ele>
<time>2026-07-13T13:42:11.000Z</time>
</trkpt>
<trkpt lat="56.675533" lon="8.188978">
<ele>-8.820766</ele>
<time>2026-07-13T13:42:12.000Z</time>
</trkpt>
<trkpt lat="56.675579" lon="8.189012">
<ele>-8.816148</ele>
<time>2026-07-13T13:42:13.000Z</time>
</trkpt>
<trkpt lat="56.675625" lon="8.189047">
<ele>-8.811510</ele>
<time>2026-07-13T13:42:14.000Z</time>
</trkpt>
<trkpt lat="56.675674" lon="8.189081">
<ele>-8.806631</ele>
<time>2026-07-13T13:42:15.000Z</time>
</trkpt>
<trkpt lat="56.675720" lon="8.189117">
<ele>-8.801973</ele>
<time>2026-07-13T13:42:16.000Z</time>
</trkpt>
<trkpt lat="56.675770" lon="8.189155">
<ele>-8.796933</ele>
<time>2026-07-13T13:42:17.000Z</time>
</trkpt>
<trkpt lat="56.675819" lon="8.189191">
<ele>-8.792017</ele>
<time>2026-07-13T13:42:18.000Z</time>
</trkpt>
<trkpt lat="56.675869" lon="8.189227">
<ele>-8.787015</ele>
<time>2026-07-13T13:42:19.000Z</time>
</trkpt>
<trkpt lat="56.675919" lon="8.189266">
<ele>-8.783212</ele>
<time>2026-07-13T13:42:20.000Z</time>
</trkpt>
<trkpt lat="56.675964" lon="8.189304">
<ele>-8.780188</ele>
<time>2026-07-13T13:42:21.000Z</time>
</trkpt>
<trkpt lat="56.676010" lon="8.189341">
<ele>-8.777123</ele>
<time>2026-07-13T13:42:22.000Z</time>
</trkpt>
<trkpt lat="56.676060" lon="8.189376">
<ele>-8.773858</ele>
<time>2026-07-13T13:42:23.000Z</time>
</trkpt>
<trkpt lat="56.676102" lon="8.189409">
<ele>-8.771070</ele>
<time>2026-07-13T13:42:24.000Z</time>
</trkpt>
<trkpt lat="56.676151" lon="8.189442">
<ele>-8.767885</ele>
<time>2026-07-13T13:42:25.000Z</time>
</trkpt>
<trkpt lat="56.676201" lon="8.189475">
<ele>-8.764643</ele>
<time>2026-07-13T13:42:26.000Z</time>
</trkpt>
<trkpt lat="56.676250" lon="8.189509">
<ele>-8.761447</ele>
<time>2026-07-13T13:42:27.000Z</time>
</trkpt>
<trkpt lat="56.676300" lon="8.189546">
<ele>-8.758157</ele>
<time>2026-07-13T13:42:28.000Z</time>
</trkpt>
<trkpt lat="56.676350" lon="8.189582">
<ele>-8.754880</ele>
<time>2026-07-13T13:42:29.000Z</time>
</trkpt>
<trkpt lat="56.676399" lon="8.189618">
<ele>-8.751659</ele>
<time>2026-07-13T13:42:30.000Z</time>
</trkpt>
<trkpt lat="56.676453" lon="8.189658">
<ele>-8.748105</ele>
<time>2026-07-13T13:42:31.000Z</time>
</trkpt>
<trkpt lat="56.676495" lon="8.189696">
<ele>-8.745247</ele>
<time>2026-07-13T13:42:32.000Z</time>
</trkpt>
<trkpt lat="56.676544" lon="8.189736">
<ele>-8.741973</ele>
<time>2026-07-13T13:42:33.000Z</time>
</trkpt>
<trkpt lat="56.676590" lon="8.189769">
<ele>-8.738960</ele>
<time>2026-07-13T13:42:34.000Z</time>
</trkpt>
<trkpt lat="56.676640" lon="8.189804">
<ele>-8.735695</ele>
<time>2026-07-13T13:42:35.000Z</time>
</trkpt>
<trkpt lat="56.676693" lon="8.189841">
<ele>-8.732235</ele>
<time>2026-07-13T13:42:36.000Z</time>
</trkpt>
<trkpt lat="56.676739" lon="8.189878">
<ele>-8.729169</ele>
<time>2026-07-13T13:42:37.000Z</time>
</trkpt>
<trkpt lat="56.676788" lon="8.189914">
<ele>-8.725949</ele>
<time>2026-07-13T13:42:38.000Z</time>
</trkpt>
<trkpt lat="56.676838" lon="8.189950">
<ele>-8.722671</ele>
<time>2026-07-13T13:42:39.000Z</time>
</trkpt>
<trkpt lat="56.676884" lon="8.189987">
<ele>-8.719606</ele>
<time>2026-07-13T13:42:40.000Z</time>
</trkpt>
<trkpt lat="56.676933" lon="8.190025">
<ele>-8.716359</ele>
<time>2026-07-13T13:42:41.000Z</time>
</trkpt>
<trkpt lat="56.676983" lon="8.190063">
<ele>-8.713057</ele>
<time>2026-07-13T13:42:42.000Z</time>
</trkpt>
<trkpt lat="56.677032" lon="8.190100">
<ele>-8.709823</ele>
<time>2026-07-13T13:42:43.000Z</time>
</trkpt>
<trkpt lat="56.677082" lon="8.190133">
<ele>-8.706582</ele>
<time>2026-07-13T13:42:44.000Z</time>
</trkpt>
<trkpt lat="56.677132" lon="8.190169">
<ele>-8.703304</ele>
<time>2026-07-13T13:42:45.000Z</time>
</trkpt>
<trkpt lat="56.677177" lon="8.190207">
<ele>-8.700281</ele>
<time>2026-07-13T13:42:46.000Z</time>
</trkpt>
<trkpt lat="56.677227" lon="8.190248">
<ele>-8.696938</ele>
<time>2026-07-13T13:42:47.000Z</time>
</trkpt>
<trkpt lat="56.677277" lon="8.190285">
<ele>-8.693648</ele>
<time>2026-07-13T13:42:48.000Z</time>
</trkpt>
<trkpt lat="56.677326" lon="8.190321">
<ele>-8.690428</ele>
<time>2026-07-13T13:42:49.000Z</time>
</trkpt>
<trkpt lat="56.677372" lon="8.190358">
<ele>-8.687362</ele>
<time>2026-07-13T13:42:50.000Z</time>
</trkpt>
<trkpt lat="56.677422" lon="8.190394">
<ele>-8.684085</ele>
<time>2026-07-13T13:42:51.000Z</time>
</trkpt>
<trkpt lat="56.677467" lon="8.190430">
<ele>-8.681089</ele>
<time>2026-07-13T13:42:52.000Z</time>
</trkpt>
<trkpt lat="56.677517" lon="8.190467">
<ele>-8.677799</ele>
<time>2026-07-13T13:42:53.000Z</time>
</trkpt>
<trkpt lat="56.677566" lon="8.190503">
<ele>-8.679555</ele>
<time>2026-07-13T13:42:54.000Z</time>
</trkpt>
<trkpt lat="56.677616" lon="8.190539">
<ele>-8.688005</ele>
<time>2026-07-13T13:42:55.000Z</time>
</trkpt>
<trkpt lat="56.677662" lon="8.190578">
<ele>-8.695980</ele>
<time>2026-07-13T13:42:56.000Z</time>
</trkpt>
<trkpt lat="56.677708" lon="8.190613">
<ele>-8.703815</ele>
<time>2026-07-13T13:42:57.000Z</time>
</trkpt>
<trkpt lat="56.677757" lon="8.190651">
<ele>-8.712185</ele>
<time>2026-07-13T13:42:58.000Z</time>
</trkpt>
<trkpt lat="56.677803" lon="8.190684">
<ele>-8.719955</ele>
<time>2026-07-13T13:42:59.000Z</time>
</trkpt>
<trkpt lat="56.677853" lon="8.190721">
<ele>-8.728437</ele>
<time>2026-07-13T13:43:00.000Z</time>
</trkpt>
<trkpt lat="56.677902" lon="8.190758">
<ele>-8.736774</ele>
<time>2026-07-13T13:43:01.000Z</time>
</trkpt>
<trkpt lat="56.677952" lon="8.190792">
<ele>-8.745162</ele>
<time>2026-07-13T13:43:02.000Z</time>
</trkpt>
<trkpt lat="56.677998" lon="8.190826">
<ele>-8.752964</ele>
<time>2026-07-13T13:43:03.000Z</time>
</trkpt>
<trkpt lat="56.678043" lon="8.190860">
<ele>-8.760620</ele>
<time>2026-07-13T13:43:04.000Z</time>
</trkpt>
<trkpt lat="56.678089" lon="8.190895">
<ele>-8.768455</ele>
<time>2026-07-13T13:43:05.000Z</time>
</trkpt>
<trkpt lat="56.678135" lon="8.190928">
<ele>-8.776226</ele>
<time>2026-07-13T13:43:06.000Z</time>
</trkpt>
<trkpt lat="56.678181" lon="8.190962">
<ele>-8.784028</ele>
<time>2026-07-13T13:43:07.000Z</time>
</trkpt>
<trkpt lat="56.678230" lon="8.190994">
<ele>-8.792209</ele>
<time>2026-07-13T13:43:08.000Z</time>
</trkpt>
<trkpt lat="56.678276" lon="8.191027">
<ele>-8.799979</ele>
<time>2026-07-13T13:43:09.000Z</time>
</trkpt>
<trkpt lat="56.678322" lon="8.191059">
<ele>-8.807717</ele>
<time>2026-07-13T13:43:10.000Z</time>
</trkpt>
<trkpt lat="56.678368" lon="8.191092">
<ele>-8.815488</ele>
<time>2026-07-13T13:43:11.000Z</time>
</trkpt>
<trkpt lat="56.678413" lon="8.191129">
<ele>-8.823247</ele>
<time>2026-07-13T13:43:12.000Z</time>
</trkpt>
<trkpt lat="56.678459" lon="8.191163">
<ele>-8.831049</ele>
<time>2026-07-13T13:43:13.000Z</time>
</trkpt>
<trkpt lat="56.678505" lon="8.191198">
<ele>-8.838884</ele>
<time>2026-07-13T13:43:14.000Z</time>
</trkpt>
<trkpt lat="56.678551" lon="8.191233">
<ele>-8.846719</ele>
<time>2026-07-13T13:43:15.000Z</time>
</trkpt>
<trkpt lat="56.678600" lon="8.191268">
<ele>-8.854991</ele>
<time>2026-07-13T13:43:16.000Z</time>
</trkpt>
<trkpt lat="56.678646" lon="8.191305">
<ele>-8.862895</ele>
<time>2026-07-13T13:43:17.000Z</time>
</trkpt>
<trkpt lat="56.678692" lon="8.191343">
<ele>-8.870833</ele>
<time>2026-07-13T13:43:18.000Z</time>
</trkpt>
<trkpt lat="56.678741" lon="8.191380">
<ele>-8.879170</ele>
<time>2026-07-13T13:43:19.000Z</time>
</trkpt>
<trkpt lat="56.678787" lon="8.191413">
<ele>-8.886940</ele>
<time>2026-07-13T13:43:20.000Z</time>
</trkpt>
<trkpt lat="56.678837" lon="8.191449">
<ele>-8.895389</ele>
<time>2026-07-13T13:43:21.000Z</time>
</trkpt>
<trkpt lat="56.678886" lon="8.191484">
<ele>-8.903661</ele>
<time>2026-07-13T13:43:22.000Z</time>
</trkpt>
<trkpt lat="56.678936" lon="8.191518">
<ele>-8.912049</ele>
<time>2026-07-13T13:43:23.000Z</time>
</trkpt>
<trkpt lat="56.678986" lon="8.191553">
<ele>-8.920468</ele>
<time>2026-07-13T13:43:24.000Z</time>
</trkpt>
<trkpt lat="56.679035" lon="8.191589">
<ele>-8.928772</ele>
<time>2026-07-13T13:43:25.000Z</time>
</trkpt>
<trkpt lat="56.679081" lon="8.191627">
<ele>-8.936710</ele>
<time>2026-07-13T13:43:26.000Z</time>
</trkpt>
<trkpt lat="56.679127" lon="8.191662">
<ele>-8.944545</ele>
<time>2026-07-13T13:43:27.000Z</time>
</trkpt>
<trkpt lat="56.679165" lon="8.191689">
<ele>-8.950956</ele>
<time>2026-07-13T13:43:28.000Z</time>
</trkpt>
<trkpt lat="56.679207" lon="8.191723">
<ele>-8.958179</ele>
<time>2026-07-13T13:43:29.000Z</time>
</trkpt>
<trkpt lat="56.679268" lon="8.191766">
<ele>-8.953195</ele>
<time>2026-07-13T13:43:30.000Z</time>
</trkpt>
<trkpt lat="56.679317" lon="8.191806">
<ele>-8.948532</ele>
<time>2026-07-13T13:43:31.000Z</time>
</trkpt>
<trkpt lat="56.679367" lon="8.191843">
<ele>-8.943845</ele>
<time>2026-07-13T13:43:32.000Z</time>
</trkpt>
<trkpt lat="56.679413" lon="8.191877">
<ele>-8.939533</ele>
<time>2026-07-13T13:43:33.000Z</time>
</trkpt>
<trkpt lat="56.679466" lon="8.191914">
<ele>-8.934604</ele>
<time>2026-07-13T13:43:34.000Z</time>
</trkpt>
<trkpt lat="56.679512" lon="8.191952">
<ele>-8.930217</ele>
<time>2026-07-13T13:43:35.000Z</time>
</trkpt>
<trkpt lat="56.679558" lon="8.191989">
<ele>-8.925850</ele>
<time>2026-07-13T13:43:36.000Z</time>
</trkpt>
<trkpt lat="56.679604" lon="8.192023">
<ele>-8.921538</ele>
<time>2026-07-13T13:43:37.000Z</time>
</trkpt>
<trkpt lat="56.679649" lon="8.192055">
<ele>-8.917343</ele>
<time>2026-07-13T13:43:38.000Z</time>
</trkpt>
<trkpt lat="56.679699" lon="8.192090">
<ele>-8.912691</ele>
<time>2026-07-13T13:43:39.000Z</time>
</trkpt>
<trkpt lat="56.679749" lon="8.192127">
<ele>-8.908004</ele>
<time>2026-07-13T13:43:40.000Z</time>
</trkpt>
<trkpt lat="56.679798" lon="8.192163">
<ele>-8.903415</ele>
<time>2026-07-13T13:43:41.000Z</time>
</trkpt>
<trkpt lat="56.679848" lon="8.192199">
<ele>-8.898746</ele>
<time>2026-07-13T13:43:42.000Z</time>
</trkpt>
<trkpt lat="56.679893" lon="8.192234">
<ele>-8.894496</ele>
<time>2026-07-13T13:43:43.000Z</time>
</trkpt>
<trkpt lat="56.679943" lon="8.192271">
<ele>-8.889809</ele>
<time>2026-07-13T13:43:44.000Z</time>
</trkpt>
<trkpt lat="56.679989" lon="8.192308">
<ele>-8.885442</ele>
<time>2026-07-13T13:43:45.000Z</time>
</trkpt>
<trkpt lat="56.680035" lon="8.192346">
<ele>-8.881055</ele>
<time>2026-07-13T13:43:46.000Z</time>
</trkpt>
<trkpt lat="56.680084" lon="8.192382">
<ele>-8.876466</ele>
<time>2026-07-13T13:43:47.000Z</time>
</trkpt>
<trkpt lat="56.680130" lon="8.192416">
<ele>-8.872155</ele>
<time>2026-07-13T13:43:48.000Z</time>
</trkpt>
<trkpt lat="56.680180" lon="8.192450">
<ele>-8.867520</ele>
<time>2026-07-13T13:43:49.000Z</time>
</trkpt>
<trkpt lat="56.680225" lon="8.192483">
<ele>-8.863307</ele>
<time>2026-07-13T13:43:50.000Z</time>
</trkpt>
<trkpt lat="56.680271" lon="8.192519">
<ele>-8.858958</ele>
<time>2026-07-13T13:43:51.000Z</time>
</trkpt>
<trkpt lat="56.680317" lon="8.192554">
<ele>-8.854629</ele>
<time>2026-07-13T13:43:52.000Z</time>
</trkpt>
<trkpt lat="56.680363" lon="8.192588">
<ele>-8.850317</ele>
<time>2026-07-13T13:43:53.000Z</time>
</trkpt>
<trkpt lat="56.680412" lon="8.192624">
<ele>-8.845729</ele>
<time>2026-07-13T13:43:54.000Z</time>
</trkpt>
<trkpt lat="56.680462" lon="8.192661">
<ele>-8.841042</ele>
<time>2026-07-13T13:43:55.000Z</time>
</trkpt>
<trkpt lat="56.680508" lon="8.192697">
<ele>-8.836693</ele>
<time>2026-07-13T13:43:56.000Z</time>
</trkpt>
<trkpt lat="56.680553" lon="8.192729">
<ele>-8.832498</ele>
<time>2026-07-13T13:43:57.000Z</time>
</trkpt>
<trkpt lat="56.680595" lon="8.192763">
<ele>-8.828506</ele>
<time>2026-07-13T13:43:58.000Z</time>
</trkpt>
<trkpt lat="56.680641" lon="8.192798">
<ele>-8.824177</ele>
<time>2026-07-13T13:43:59.000Z</time>
</trkpt>
<trkpt lat="56.680687" lon="8.192834">
<ele>-8.819828</ele>
<time>2026-07-13T13:44:00.000Z</time>
</trkpt>
<trkpt lat="56.680737" lon="8.192871">
<ele>-8.815141</ele>
<time>2026-07-13T13:44:01.000Z</time>
</trkpt>
<trkpt lat="56.680782" lon="8.192905">
<ele>-8.810910</ele>
<time>2026-07-13T13:44:02.000Z</time>
</trkpt>
<trkpt lat="56.680828" lon="8.192941">
<ele>-8.806562</ele>
<time>2026-07-13T13:44:03.000Z</time>
</trkpt>
<trkpt lat="56.680870" lon="8.192975">
<ele>-8.802570</ele>
<time>2026-07-13T13:44:04.000Z</time>
</trkpt>
<trkpt lat="56.680916" lon="8.193010">
<ele>-8.802043</ele>
<time>2026-07-13T13:44:05.000Z</time>
</trkpt>
<trkpt lat="56.680965" lon="8.193046">
<ele>-8.801618</ele>
<time>2026-07-13T13:44:06.000Z</time>
</trkpt>
<trkpt lat="56.681011" lon="8.193080">
<ele>-8.801219</ele>
<time>2026-07-13T13:44:07.000Z</time>
</trkpt>
<trkpt lat="56.681057" lon="8.193114">
<ele>-8.800820</ele>
<time>2026-07-13T13:44:08.000Z</time>
</trkpt>
<trkpt lat="56.681103" lon="8.193148">
<ele>-8.800421</ele>
<time>2026-07-13T13:44:09.000Z</time>
</trkpt>
<trkpt lat="56.681149" lon="8.193183">
<ele>-8.800020</ele>
<time>2026-07-13T13:44:10.000Z</time>
</trkpt>
<trkpt lat="56.681198" lon="8.193219">
<ele>-8.799595</ele>
<time>2026-07-13T13:44:11.000Z</time>
</trkpt>
<trkpt lat="56.681244" lon="8.193254">
<ele>-8.799195</ele>
<time>2026-07-13T13:44:12.000Z</time>
</trkpt>
<trkpt lat="56.681294" lon="8.193288">
<ele>-8.798766</ele>
<time>2026-07-13T13:44:13.000Z</time>
</trkpt>
<trkpt lat="56.681339" lon="8.193324">
<ele>-8.798370</ele>
<time>2026-07-13T13:44:14.000Z</time>
</trkpt>
<trkpt lat="56.681385" lon="8.193361">
<ele>-8.797966</ele>
<time>2026-07-13T13:44:15.000Z</time>
</trkpt>
<trkpt lat="56.681431" lon="8.193395">
<ele>-8.797567</ele>
<time>2026-07-13T13:44:16.000Z</time>
</trkpt>
<trkpt lat="56.681477" lon="8.193426">
<ele>-8.797173</ele>
<time>2026-07-13T13:44:17.000Z</time>
</trkpt>
<trkpt lat="56.681522" lon="8.193460">
<ele>-8.796781</ele>
<time>2026-07-13T13:44:18.000Z</time>
</trkpt>
<trkpt lat="56.681568" lon="8.193493">
<ele>-8.796384</ele>
<time>2026-07-13T13:44:19.000Z</time>
</trkpt>
<trkpt lat="56.681614" lon="8.193527">
<ele>-8.795985</ele>
<time>2026-07-13T13:44:20.000Z</time>
</trkpt>
<trkpt lat="56.681660" lon="8.193562">
<ele>-8.795584</ele>
<time>2026-07-13T13:44:21.000Z</time>
</trkpt>
<trkpt lat="56.681705" lon="8.193598">
<ele>-8.795189</ele>
<time>2026-07-13T13:44:22.000Z</time>
</trkpt>
<trkpt lat="56.681751" lon="8.193633">
<ele>-8.794788</ele>
<time>2026-07-13T13:44:23.000Z</time>
</trkpt>
<trkpt lat="56.681801" lon="8.193670">
<ele>-8.794354</ele>
<time>2026-07-13T13:44:24.000Z</time>
</trkpt>
<trkpt lat="56.681850" lon="8.193705">
<ele>-8.793931</ele>
<time>2026-07-13T13:44:25.000Z</time>
</trkpt>
<trkpt lat="56.681896" lon="8.193738">
<ele>-8.793533</ele>
<time>2026-07-13T13:44:26.000Z</time>
</trkpt>
<trkpt lat="56.681942" lon="8.193775">
<ele>-8.793129</ele>
<time>2026-07-13T13:44:27.000Z</time>
</trkpt>
<trkpt lat="56.681988" lon="8.193811">
<ele>-8.792727</ele>
<time>2026-07-13T13:44:28.000Z</time>
</trkpt>
<trkpt lat="56.682034" lon="8.193844">
<ele>-8.792329</ele>
<time>2026-07-13T13:44:29.000Z</time>
</trkpt>
<trkpt lat="56.682079" lon="8.193876">
<ele>-8.791941</ele>
<time>2026-07-13T13:44:30.000Z</time>
</trkpt>
<trkpt lat="56.682125" lon="8.193911">
<ele>-8.791540</ele>
<time>2026-07-13T13:44:31.000Z</time>
</trkpt>
<trkpt lat="56.682171" lon="8.193946">
<ele>-8.791139</ele>
<time>2026-07-13T13:44:32.000Z</time>
</trkpt>
<trkpt lat="56.682220" lon="8.193978">
<ele>-8.790721</ele>
<time>2026-07-13T13:44:33.000Z</time>
</trkpt>
<trkpt lat="56.682266" lon="8.194014">
<ele>-8.790318</ele>
<time>2026-07-13T13:44:34.000Z</time>
</trkpt>
<trkpt lat="56.682312" lon="8.194050">
<ele>-8.789916</ele>
<time>2026-07-13T13:44:35.000Z</time>
</trkpt>
<trkpt lat="56.682358" lon="8.194085">
<ele>-8.789515</ele>
<time>2026-07-13T13:44:36.000Z</time>
</trkpt>
<trkpt lat="56.682404" lon="8.194119">
<ele>-8.789116</ele>
<time>2026-07-13T13:44:37.000Z</time>
</trkpt>
<trkpt lat="56.682453" lon="8.194156">
<ele>-8.788690</ele>
<time>2026-07-13T13:44:38.000Z</time>
</trkpt>
<trkpt lat="56.682499" lon="8.194191">
<ele>-8.788289</ele>
<time>2026-07-13T13:44:39.000Z</time>
</trkpt>
<trkpt lat="56.682545" lon="8.194224">
<ele>-8.789863</ele>
<time>2026-07-13T13:44:40.000Z</time>
</trkpt>
<trkpt lat="56.682591" lon="8.194259">
<ele>-8.799242</ele>
<time>2026-07-13T13:44:41.000Z</time>
</trkpt>
<trkpt lat="56.682632" lon="8.194288">
<ele>-8.807517</ele>
<time>2026-07-13T13:44:42.000Z</time>
</trkpt>
<trkpt lat="56.682678" lon="8.194324">
<ele>-8.816936</ele>
<time>2026-07-13T13:44:43.000Z</time>
</trkpt>
<trkpt lat="56.682720" lon="8.194357">
<ele>-8.825542</ele>
<time>2026-07-13T13:44:44.000Z</time>
</trkpt>
<trkpt lat="56.682766" lon="8.194393">
<ele>-8.834962</ele>
<time>2026-07-13T13:44:45.000Z</time>
</trkpt>
<trkpt lat="56.682819" lon="8.194429">
<ele>-8.845604</ele>
<time>2026-07-13T13:44:46.000Z</time>
</trkpt>
<trkpt lat="56.682865" lon="8.194462">
<ele>-8.854905</ele>
<time>2026-07-13T13:44:47.000Z</time>
</trkpt>
<trkpt lat="56.682911" lon="8.194496">
<ele>-8.864245</ele>
<time>2026-07-13T13:44:48.000Z</time>
</trkpt>
<trkpt lat="56.682957" lon="8.194529">
<ele>-8.873547</ele>
<time>2026-07-13T13:44:49.000Z</time>
</trkpt>
<trkpt lat="56.683006" lon="8.194564">
<ele>-8.883449</ele>
<time>2026-07-13T13:44:50.000Z</time>
</trkpt>
<trkpt lat="56.683052" lon="8.194600">
<ele>-8.892868</ele>
<time>2026-07-13T13:44:51.000Z</time>
</trkpt>
<trkpt lat="56.683098" lon="8.194634">
<ele>-8.902208</ele>
<time>2026-07-13T13:44:52.000Z</time>
</trkpt>
<trkpt lat="56.683147" lon="8.194671">
<ele>-8.912188</ele>
<time>2026-07-13T13:44:53.000Z</time>
</trkpt>
<trkpt lat="56.683193" lon="8.194706">
<ele>-8.921567</ele>
<time>2026-07-13T13:44:54.000Z</time>
</trkpt>
<trkpt lat="56.683239" lon="8.194739">
<ele>-8.930869</ele>
<time>2026-07-13T13:44:55.000Z</time>
</trkpt>
<trkpt lat="56.683289" lon="8.194775">
<ele>-8.940984</ele>
<time>2026-07-13T13:44:56.000Z</time>
</trkpt>
<trkpt lat="56.683338" lon="8.194809">
<ele>-8.950849</ele>
<time>2026-07-13T13:44:57.000Z</time>
</trkpt>
<trkpt lat="56.683384" lon="8.194845">
<ele>-8.960269</ele>
<time>2026-07-13T13:44:58.000Z</time>
</trkpt>
<trkpt lat="56.683433" lon="8.194881">
<ele>-8.970209</ele>
<time>2026-07-13T13:44:59.000Z</time>
</trkpt>
<trkpt lat="56.683475" lon="8.194915">
<ele>-8.978856</ele>
<time>2026-07-13T13:45:00.000Z</time>
</trkpt>
<trkpt lat="56.683525" lon="8.194949">
<ele>-8.988897</ele>
<time>2026-07-13T13:45:01.000Z</time>
</trkpt>
<trkpt lat="56.683567" lon="8.194981">
<ele>-8.997463</ele>
<time>2026-07-13T13:45:02.000Z</time>
</trkpt>
<trkpt lat="56.683620" lon="8.195016">
<ele>-9.008069</ele>
<time>2026-07-13T13:45:03.000Z</time>
</trkpt>
<trkpt lat="56.683666" lon="8.195051">
<ele>-9.017448</ele>
<time>2026-07-13T13:45:04.000Z</time>
</trkpt>
<trkpt lat="56.683712" lon="8.195086">
<ele>-9.026828</ele>
<time>2026-07-13T13:45:05.000Z</time>
</trkpt>
<trkpt lat="56.683762" lon="8.195122">
<ele>-9.036943</ele>
<time>2026-07-13T13:45:06.000Z</time>
</trkpt>
<trkpt lat="56.683807" lon="8.195154">
<ele>-9.046031</ele>
<time>2026-07-13T13:45:07.000Z</time>
</trkpt>
<trkpt lat="56.683857" lon="8.195189">
<ele>-9.056109</ele>
<time>2026-07-13T13:45:08.000Z</time>
</trkpt>
<trkpt lat="56.683899" lon="8.195226">
<ele>-9.064887</ele>
<time>2026-07-13T13:45:09.000Z</time>
</trkpt>
<trkpt lat="56.683945" lon="8.195261">
<ele>-9.074266</ele>
<time>2026-07-13T13:45:10.000Z</time>
</trkpt>
<trkpt lat="56.683990" lon="8.195296">
<ele>-9.083472</ele>
<time>2026-07-13T13:45:11.000Z</time>
</trkpt>
<trkpt lat="56.684036" lon="8.195329">
<ele>-9.092773</ele>
<time>2026-07-13T13:45:12.000Z</time>
</trkpt>
<trkpt lat="56.684086" lon="8.195364">
<ele>-9.102851</ele>
<time>2026-07-13T13:45:13.000Z</time>
</trkpt>
<trkpt lat="56.684135" lon="8.195399">
<ele>-9.112753</ele>
<time>2026-07-13T13:45:14.000Z</time>
</trkpt>
<trkpt lat="56.684181" lon="8.195437">
<ele>-9.122256</ele>
<time>2026-07-13T13:45:15.000Z</time>
</trkpt>
<trkpt lat="56.684231" lon="8.195471">
<ele>-9.122133</ele>
<time>2026-07-13T13:45:16.000Z</time>
</trkpt>
<trkpt lat="56.684277" lon="8.195504">
<ele>-9.115546</ele>
<time>2026-07-13T13:45:17.000Z</time>
</trkpt>
<trkpt lat="56.684319" lon="8.195539">
<ele>-9.109392</ele>
<time>2026-07-13T13:45:18.000Z</time>
</trkpt>
<trkpt lat="56.684361" lon="8.195570">
<ele>-9.103354</ele>
<time>2026-07-13T13:45:19.000Z</time>
</trkpt>
<trkpt lat="56.684402" lon="8.195602">
<ele>-9.097411</ele>
<time>2026-07-13T13:45:20.000Z</time>
</trkpt>
<trkpt lat="56.684444" lon="8.195636">
<ele>-9.091287</ele>
<time>2026-07-13T13:45:21.000Z</time>
</trkpt>
<trkpt lat="56.684490" lon="8.195670">
<ele>-9.084672</ele>
<time>2026-07-13T13:45:22.000Z</time>
</trkpt>
<trkpt lat="56.684536" lon="8.195703">
<ele>-9.078085</ele>
<time>2026-07-13T13:45:23.000Z</time>
</trkpt>
<trkpt lat="56.684582" lon="8.195738">
<ele>-9.071443</ele>
<time>2026-07-13T13:45:24.000Z</time>
</trkpt>
<trkpt lat="56.684631" lon="8.195773">
<ele>-9.064431</ele>
<time>2026-07-13T13:45:25.000Z</time>
</trkpt>
<trkpt lat="56.684677" lon="8.195808">
<ele>-9.057788</ele>
<time>2026-07-13T13:45:26.000Z</time>
</trkpt>
<trkpt lat="56.684719" lon="8.195842">
<ele>-9.051665</ele>
<time>2026-07-13T13:45:27.000Z</time>
</trkpt>
<trkpt lat="56.684765" lon="8.195876">
<ele>-9.045050</ele>
<time>2026-07-13T13:45:28.000Z</time>
</trkpt>
<trkpt lat="56.684811" lon="8.195909">
<ele>-9.038463</ele>
<time>2026-07-13T13:45:29.000Z</time>
</trkpt>
<trkpt lat="56.684856" lon="8.195945">
<ele>-9.031915</ele>
<time>2026-07-13T13:45:30.000Z</time>
</trkpt>
<trkpt lat="56.684902" lon="8.195980">
<ele>-9.025272</ele>
<time>2026-07-13T13:45:31.000Z</time>
</trkpt>
<trkpt lat="56.684948" lon="8.196013">
<ele>-9.018685</ele>
<time>2026-07-13T13:45:32.000Z</time>
</trkpt>
<trkpt lat="56.684994" lon="8.196048">
<ele>-9.012043</ele>
<time>2026-07-13T13:45:33.000Z</time>
</trkpt>
<trkpt lat="56.685032" lon="8.196078">
<ele>-9.006525</ele>
<time>2026-07-13T13:45:34.000Z</time>
</trkpt>
<trkpt lat="56.685081" lon="8.196116">
<ele>-8.999429</ele>
<time>2026-07-13T13:45:35.000Z</time>
</trkpt>
<trkpt lat="56.685131" lon="8.196152">
<ele>-8.992266</ele>
<time>2026-07-13T13:45:36.000Z</time>
</trkpt>
<trkpt lat="56.685177" lon="8.196185">
<ele>-8.985679</ele>
<time>2026-07-13T13:45:37.000Z</time>
</trkpt>
<trkpt lat="56.685223" lon="8.196219">
<ele>-8.979064</ele>
<time>2026-07-13T13:45:38.000Z</time>
</trkpt>
<trkpt lat="56.685265" lon="8.196251">
<ele>-8.972999</ele>
<time>2026-07-13T13:45:39.000Z</time>
</trkpt>
<trkpt lat="56.685310" lon="8.196287">
<ele>-8.966450</ele>
<time>2026-07-13T13:45:40.000Z</time>
</trkpt>
<trkpt lat="56.685360" lon="8.196325">
<ele>-8.959232</ele>
<time>2026-07-13T13:45:41.000Z</time>
</trkpt>
<trkpt lat="56.685406" lon="8.196363">
<ele>-8.952502</ele>
<time>2026-07-13T13:45:42.000Z</time>
</trkpt>
<trkpt lat="56.685448" lon="8.196395">
<ele>-8.946436</ele>
<time>2026-07-13T13:45:43.000Z</time>
</trkpt>
<trkpt lat="56.685493" lon="8.196429">
<ele>-8.939945</ele>
<time>2026-07-13T13:45:44.000Z</time>
</trkpt>
<trkpt lat="56.685547" lon="8.196465">
<ele>-8.932284</ele>
<time>2026-07-13T13:45:45.000Z</time>
</trkpt>
<trkpt lat="56.685589" lon="8.196495">
<ele>-8.926273</ele>
<time>2026-07-13T13:45:46.000Z</time>
</trkpt>
<trkpt lat="56.685635" lon="8.196528">
<ele>-8.919686</ele>
<time>2026-07-13T13:45:47.000Z</time>
</trkpt>
<trkpt lat="56.685677" lon="8.196563">
<ele>-8.913532</ele>
<time>2026-07-13T13:45:48.000Z</time>
</trkpt>
<trkpt lat="56.685726" lon="8.196599">
<ele>-8.906492</ele>
<time>2026-07-13T13:45:49.000Z</time>
</trkpt>
<trkpt lat="56.685772" lon="8.196631">
<ele>-8.899931</ele>
<time>2026-07-13T13:45:50.000Z</time>
</trkpt>
<trkpt lat="56.685821" lon="8.196668">
<ele>-8.892864</ele>
<time>2026-07-13T13:45:51.000Z</time>
</trkpt>
<trkpt lat="56.685871" lon="8.196706">
<ele>-8.886466</ele>
<time>2026-07-13T13:45:52.000Z</time>
</trkpt>
<trkpt lat="56.685917" lon="8.196746">
<ele>-8.884882</ele>
<time>2026-07-13T13:45:53.000Z</time>
</trkpt>
<trkpt lat="56.685963" lon="8.196781">
<ele>-8.883334</ele>
<time>2026-07-13T13:45:54.000Z</time>
</trkpt>
<trkpt lat="56.686008" lon="8.196817">
<ele>-8.881807</ele>
<time>2026-07-13T13:45:55.000Z</time>
</trkpt>
<trkpt lat="56.686054" lon="8.196852">
<ele>-8.880258</ele>
<time>2026-07-13T13:45:56.000Z</time>
</trkpt>
<trkpt lat="56.686100" lon="8.196885">
<ele>-8.878723</ele>
<time>2026-07-13T13:45:57.000Z</time>
</trkpt>
<trkpt lat="56.686146" lon="8.196919">
<ele>-8.877181</ele>
<time>2026-07-13T13:45:58.000Z</time>
</trkpt>
<trkpt lat="56.686184" lon="8.196949">
<ele>-8.875894</ele>
<time>2026-07-13T13:45:59.000Z</time>
</trkpt>
<trkpt lat="56.686230" lon="8.196986">
<ele>-8.874332</ele>
<time>2026-07-13T13:46:00.000Z</time>
</trkpt>
<trkpt lat="56.686283" lon="8.197023">
<ele>-8.872569</ele>
<time>2026-07-13T13:46:01.000Z</time>
</trkpt>
<trkpt lat="56.686336" lon="8.197058">
<ele>-8.870817</ele>
<time>2026-07-13T13:46:02.000Z</time>
</trkpt>
<trkpt lat="56.686382" lon="8.197092">
<ele>-8.869275</ele>
<time>2026-07-13T13:46:03.000Z</time>
</trkpt>
<trkpt lat="56.686428" lon="8.197128">
<ele>-8.867720</ele>
<time>2026-07-13T13:46:04.000Z</time>
</trkpt>
<trkpt lat="56.686478" lon="8.197167">
<ele>-8.866030</ele>
<time>2026-07-13T13:46:05.000Z</time>
</trkpt>
<trkpt lat="56.686523" lon="8.197204">
<ele>-8.864497</ele>
<time>2026-07-13T13:46:06.000Z</time>
</trkpt>
<trkpt lat="56.686573" lon="8.197241">
<ele>-8.862820</ele>
<time>2026-07-13T13:46:07.000Z</time>
</trkpt>
<trkpt lat="56.686619" lon="8.197276">
<ele>-8.861271</ele>
<time>2026-07-13T13:46:08.000Z</time>
</trkpt>
<trkpt lat="56.686668" lon="8.197308">
<ele>-8.859654</ele>
<time>2026-07-13T13:46:09.000Z</time>
</trkpt>
<trkpt lat="56.686714" lon="8.197337">
<ele>-8.858142</ele>
<time>2026-07-13T13:46:10.000Z</time>
</trkpt>
<trkpt lat="56.686760" lon="8.197368">
<ele>-8.856619</ele>
<time>2026-07-13T13:46:11.000Z</time>
</trkpt>
<trkpt lat="56.686810" lon="8.197402">
<ele>-8.854961</ele>
<time>2026-07-13T13:46:12.000Z</time>
</trkpt>
<trkpt lat="56.686859" lon="8.197438">
<ele>-8.853320</ele>
<time>2026-07-13T13:46:13.000Z</time>
</trkpt>
<trkpt lat="56.686905" lon="8.197473">
<ele>-8.851771</ele>
<time>2026-07-13T13:46:14.000Z</time>
</trkpt>
<trkpt lat="56.686951" lon="8.197510">
<ele>-8.850209</ele>
<time>2026-07-13T13:46:15.000Z</time>
</trkpt>
<trkpt lat="56.687000" lon="8.197545">
<ele>-8.848574</ele>
<time>2026-07-13T13:46:16.000Z</time>
</trkpt>
<trkpt lat="56.687054" lon="8.197579">
<ele>-8.846799</ele>
<time>2026-07-13T13:46:17.000Z</time>
</trkpt>
<trkpt lat="56.687099" lon="8.197617">
<ele>-8.845258</ele>
<time>2026-07-13T13:46:18.000Z</time>
</trkpt>
<trkpt lat="56.687145" lon="8.197655">
<ele>-8.843689</ele>
<time>2026-07-13T13:46:19.000Z</time>
</trkpt>
<trkpt lat="56.687195" lon="8.197696">
<ele>-8.841986</ele>
<time>2026-07-13T13:46:20.000Z</time>
</trkpt>
<trkpt lat="56.687244" lon="8.197737">
<ele>-8.840311</ele>
<time>2026-07-13T13:46:21.000Z</time>
</trkpt>
<trkpt lat="56.687294" lon="8.197776">
<ele>-8.838621</ele>
<time>2026-07-13T13:46:22.000Z</time>
</trkpt>
<trkpt lat="56.687344" lon="8.197815">
<ele>-8.836931</ele>
<time>2026-07-13T13:46:23.000Z</time>
</trkpt>
<trkpt lat="56.687393" lon="8.197852">
<ele>-8.835284</ele>
<time>2026-07-13T13:46:24.000Z</time>
</trkpt>
<trkpt lat="56.687435" lon="8.197885">
<ele>-8.833863</ele>
<time>2026-07-13T13:46:25.000Z</time>
</trkpt>
<trkpt lat="56.687489" lon="8.197924">
<ele>-8.832058</ele>
<time>2026-07-13T13:46:26.000Z</time>
</trkpt>
<trkpt lat="56.687538" lon="8.197963">
<ele>-8.831125</ele>
<time>2026-07-13T13:46:27.000Z</time>
</trkpt>
<trkpt lat="56.687588" lon="8.198000">
<ele>-8.832173</ele>
<time>2026-07-13T13:46:28.000Z</time>
</trkpt>
<trkpt lat="56.687637" lon="8.198037">
<ele>-8.833204</ele>
<time>2026-07-13T13:46:29.000Z</time>
</trkpt>
<trkpt lat="56.687687" lon="8.198070">
<ele>-8.834237</ele>
<time>2026-07-13T13:46:30.000Z</time>
</trkpt>
<trkpt lat="56.687737" lon="8.198101">
<ele>-8.835263</ele>
<time>2026-07-13T13:46:31.000Z</time>
</trkpt>
<trkpt lat="56.687786" lon="8.198133">
<ele>-8.836274</ele>
<time>2026-07-13T13:46:32.000Z</time>
</trkpt>
<trkpt lat="56.687832" lon="8.198171">
<ele>-8.837256</ele>
<time>2026-07-13T13:46:33.000Z</time>
</trkpt>
<trkpt lat="56.687881" lon="8.198207">
<ele>-8.838282</ele>
<time>2026-07-13T13:46:34.000Z</time>
</trkpt>
<trkpt lat="56.687931" lon="8.198245">
<ele>-8.839335</ele>
<time>2026-07-13T13:46:35.000Z</time>
</trkpt>
<trkpt lat="56.687981" lon="8.198281">
<ele>-8.840379</ele>
<time>2026-07-13T13:46:36.000Z</time>
</trkpt>
<trkpt lat="56.688030" lon="8.198318">
<ele>-8.841410</ele>
<time>2026-07-13T13:46:37.000Z</time>
</trkpt>
<trkpt lat="56.688080" lon="8.198354">
<ele>-8.842454</ele>
<time>2026-07-13T13:46:38.000Z</time>
</trkpt>
<trkpt lat="56.688129" lon="8.198389">
<ele>-8.843477</ele>
<time>2026-07-13T13:46:39.000Z</time>
</trkpt>
<trkpt lat="56.688179" lon="8.198428">
<ele>-8.844534</ele>
<time>2026-07-13T13:46:40.000Z</time>
</trkpt>
<trkpt lat="56.688225" lon="8.198464">
<ele>-8.845506</ele>
<time>2026-07-13T13:46:41.000Z</time>
</trkpt>
<trkpt lat="56.688274" lon="8.198504">
<ele>-8.846550</ele>
<time>2026-07-13T13:46:42.000Z</time>
</trkpt>
<trkpt lat="56.688324" lon="8.198543">
<ele>-8.847606</ele>
<time>2026-07-13T13:46:43.000Z</time>
</trkpt>
<trkpt lat="56.688377" lon="8.198581">
<ele>-8.848713</ele>
<time>2026-07-13T13:46:44.000Z</time>
</trkpt>
<trkpt lat="56.688427" lon="8.198615">
<ele>-8.849750</ele>
<time>2026-07-13T13:46:45.000Z</time>
</trkpt>
<trkpt lat="56.688469" lon="8.198649">
<ele>-8.850643</ele>
<time>2026-07-13T13:46:46.000Z</time>
</trkpt>
<trkpt lat="56.688515" lon="8.198688">
<ele>-8.851628</ele>
<time>2026-07-13T13:46:47.000Z</time>
</trkpt>
<trkpt lat="56.688560" lon="8.198723">
<ele>-8.852579</ele>
<time>2026-07-13T13:46:48.000Z</time>
</trkpt>
<trkpt lat="56.688606" lon="8.198756">
<ele>-8.853539</ele>
<time>2026-07-13T13:46:49.000Z</time>
</trkpt>
<trkpt lat="56.688656" lon="8.198792">
<ele>-8.854584</ele>
<time>2026-07-13T13:46:50.000Z</time>
</trkpt>
<trkpt lat="56.688705" lon="8.198827">
<ele>-8.855607</ele>
<time>2026-07-13T13:46:51.000Z</time>
</trkpt>
<trkpt lat="56.688751" lon="8.198861">
<ele>-8.856571</ele>
<time>2026-07-13T13:46:52.000Z</time>
</trkpt>
<trkpt lat="56.688801" lon="8.198898">
<ele>-8.857619</ele>
<time>2026-07-13T13:46:53.000Z</time>
</trkpt>
<trkpt lat="56.688850" lon="8.198937">
<ele>-8.858658</ele>
<time>2026-07-13T13:46:54.000Z</time>
</trkpt>
<trkpt lat="56.688896" lon="8.198974">
<ele>-8.859635</ele>
<time>2026-07-13T13:46:55.000Z</time>
</trkpt>
<trkpt lat="56.688942" lon="8.199007">
<ele>-8.860596</ele>
<time>2026-07-13T13:46:56.000Z</time>
</trkpt>
<trkpt lat="56.688988" lon="8.199042">
<ele>-8.861564</ele>
<time>2026-07-13T13:46:57.000Z</time>
</trkpt>
<trkpt lat="56.689037" lon="8.199079">
<ele>-8.862595</ele>
<time>2026-07-13T13:46:58.000Z</time>
</trkpt>
<trkpt lat="56.689083" lon="8.199112">
<ele>-8.863555</ele>
<time>2026-07-13T13:46:59.000Z</time>
</trkpt>
<trkpt lat="56.689129" lon="8.199146">
<ele>-8.864520</ele>
<time>2026-07-13T13:47:00.000Z</time>
</trkpt>
<trkpt lat="56.689175" lon="8.199179">
<ele>-8.865480</ele>
<time>2026-07-13T13:47:01.000Z</time>
</trkpt>
<trkpt lat="56.689224" lon="8.199211">
<ele>-8.865028</ele>
<time>2026-07-13T13:47:02.000Z</time>
</trkpt>
<trkpt lat="56.689270" lon="8.199244">
<ele>-8.863993</ele>
<time>2026-07-13T13:47:03.000Z</time>
</trkpt>
<trkpt lat="56.689312" lon="8.199280">
<ele>-8.863022</ele>
<time>2026-07-13T13:47:04.000Z</time>
</trkpt>
<trkpt lat="56.689358" lon="8.199315">
<ele>-8.861978</ele>
<time>2026-07-13T13:47:05.000Z</time>
</trkpt>
<trkpt lat="56.689404" lon="8.199348">
<ele>-8.860944</ele>
<time>2026-07-13T13:47:06.000Z</time>
</trkpt>
<trkpt lat="56.689449" lon="8.199377">
<ele>-8.859945</ele>
<time>2026-07-13T13:47:07.000Z</time>
</trkpt>
<trkpt lat="56.689491" lon="8.199410">
<ele>-8.858988</ele>
<time>2026-07-13T13:47:08.000Z</time>
</trkpt>
<trkpt lat="56.689537" lon="8.199448">
<ele>-8.857931</ele>
<time>2026-07-13T13:47:09.000Z</time>
</trkpt>
<trkpt lat="56.689583" lon="8.199479">
<ele>-8.856904</ele>
<time>2026-07-13T13:47:10.000Z</time>
</trkpt>
<trkpt lat="56.689632" lon="8.199511">
<ele>-8.855815</ele>
<time>2026-07-13T13:47:11.000Z</time>
</trkpt>
<trkpt lat="56.689678" lon="8.199545">
<ele>-8.854776</ele>
<time>2026-07-13T13:47:12.000Z</time>
</trkpt>
<trkpt lat="56.689724" lon="8.199578">
<ele>-8.853741</ele>
<time>2026-07-13T13:47:13.000Z</time>
</trkpt>
<trkpt lat="56.689770" lon="8.199612">
<ele>-8.852702</ele>
<time>2026-07-13T13:47:14.000Z</time>
</trkpt>
<trkpt lat="56.689816" lon="8.199646">
<ele>-8.851664</ele>
<time>2026-07-13T13:47:15.000Z</time>
</trkpt>
<trkpt lat="56.689865" lon="8.199682">
<ele>-8.850558</ele>
<time>2026-07-13T13:47:16.000Z</time>
</trkpt>
<trkpt lat="56.689915" lon="8.199720">
<ele>-8.849424</ele>
<time>2026-07-13T13:47:17.000Z</time>
</trkpt>
<trkpt lat="56.689960" lon="8.199759">
<ele>-8.848381</ele>
<time>2026-07-13T13:47:18.000Z</time>
</trkpt>
<trkpt lat="56.690006" lon="8.199795">
<ele>-8.847333</ele>
<time>2026-07-13T13:47:19.000Z</time>
</trkpt>
<trkpt lat="56.690056" lon="8.199833">
<ele>-8.846200</ele>
<time>2026-07-13T13:47:20.000Z</time>
</trkpt>
<trkpt lat="56.690105" lon="8.199870">
<ele>-8.845090</ele>
<time>2026-07-13T13:47:21.000Z</time>
</trkpt>
<trkpt lat="56.690155" lon="8.199903">
<ele>-8.843977</ele>
<time>2026-07-13T13:47:22.000Z</time>
</trkpt>
<trkpt lat="56.690201" lon="8.199937">
<ele>-8.842938</ele>
<time>2026-07-13T13:47:23.000Z</time>
</trkpt>
<trkpt lat="56.690247" lon="8.199971">
<ele>-8.841899</ele>
<time>2026-07-13T13:47:24.000Z</time>
</trkpt>
<trkpt lat="56.690289" lon="8.200009">
<ele>-8.840917</ele>
<time>2026-07-13T13:47:25.000Z</time>
</trkpt>
<trkpt lat="56.690338" lon="8.200047">
<ele>-8.839803</ele>
<time>2026-07-13T13:47:26.000Z</time>
</trkpt>
<trkpt lat="56.690384" lon="8.200082">
<ele>-8.838760</ele>
<time>2026-07-13T13:47:27.000Z</time>
</trkpt>
<trkpt lat="56.690433" lon="8.200119">
<ele>-8.837650</ele>
<time>2026-07-13T13:47:28.000Z</time>
</trkpt>
<trkpt lat="56.690479" lon="8.200155">
<ele>-8.836602</ele>
<time>2026-07-13T13:47:29.000Z</time>
</trkpt>
<trkpt lat="56.690529" lon="8.200192">
<ele>-8.835473</ele>
<time>2026-07-13T13:47:30.000Z</time>
</trkpt>
<trkpt lat="56.690578" lon="8.200229">
<ele>-8.834362</ele>
<time>2026-07-13T13:47:31.000Z</time>
</trkpt>
<trkpt lat="56.690624" lon="8.200266">
<ele>-8.833310</ele>
<time>2026-07-13T13:47:32.000Z</time>
</trkpt>
<trkpt lat="56.690670" lon="8.200302">
<ele>-8.832262</ele>
<time>2026-07-13T13:47:33.000Z</time>
</trkpt>
<trkpt lat="56.690716" lon="8.200337">
<ele>-8.831219</ele>
<time>2026-07-13T13:47:34.000Z</time>
</trkpt>
<trkpt lat="56.690769" lon="8.200373">
<ele>-8.830035</ele>
<time>2026-07-13T13:47:35.000Z</time>
</trkpt>
<trkpt lat="56.690819" lon="8.200409">
<ele>-8.828910</ele>
<time>2026-07-13T13:47:36.000Z</time>
</trkpt>
<trkpt lat="56.690865" lon="8.200445">
<ele>-8.830919</ele>
<time>2026-07-13T13:47:37.000Z</time>
</trkpt>
<trkpt lat="56.690914" lon="8.200482">
<ele>-8.841694</ele>
<time>2026-07-13T13:47:38.000Z</time>
</trkpt>
<trkpt lat="56.690960" lon="8.200519">
<ele>-8.851909</ele>
<time>2026-07-13T13:47:39.000Z</time>
</trkpt>
<trkpt lat="56.691006" lon="8.200557">
<ele>-8.862170</ele>
<time>2026-07-13T13:47:40.000Z</time>
</trkpt>
<trkpt lat="56.691051" lon="8.200594">
<ele>-8.872199</ele>
<time>2026-07-13T13:47:41.000Z</time>
</trkpt>
<trkpt lat="56.691097" lon="8.200630">
<ele>-8.882370</ele>
<time>2026-07-13T13:47:42.000Z</time>
</trkpt>
<trkpt lat="56.691147" lon="8.200665">
<ele>-8.893251</ele>
<time>2026-07-13T13:47:43.000Z</time>
</trkpt>
<trkpt lat="56.691196" lon="8.200699">
<ele>-8.903902</ele>
<time>2026-07-13T13:47:44.000Z</time>
</trkpt>
<trkpt lat="56.691238" lon="8.200733">
<ele>-8.913239</ele>
<time>2026-07-13T13:47:45.000Z</time>
</trkpt>
<trkpt lat="56.691284" lon="8.200768">
<ele>-8.923366</ele>
<time>2026-07-13T13:47:46.000Z</time>
</trkpt>
<trkpt lat="56.691330" lon="8.200804">
<ele>-8.933536</ele>
<time>2026-07-13T13:47:47.000Z</time>
</trkpt>
<trkpt lat="56.691380" lon="8.200839">
<ele>-8.944417</ele>
<time>2026-07-13T13:47:48.000Z</time>
</trkpt>
<trkpt lat="56.691425" lon="8.200872">
<ele>-8.954271</ele>
<time>2026-07-13T13:47:49.000Z</time>
</trkpt>
<trkpt lat="56.691475" lon="8.200905">
<ele>-8.965074</ele>
<time>2026-07-13T13:47:50.000Z</time>
</trkpt>
<trkpt lat="56.691521" lon="8.200936">
<ele>-8.975038</ele>
<time>2026-07-13T13:47:51.000Z</time>
</trkpt>
<trkpt lat="56.691570" lon="8.200970">
<ele>-8.985689</ele>
<time>2026-07-13T13:47:52.000Z</time>
</trkpt>
<trkpt lat="56.691624" lon="8.201007">
<ele>-8.997409</ele>
<time>2026-07-13T13:47:53.000Z</time>
</trkpt>
<trkpt lat="56.691669" lon="8.201041">
<ele>-9.007305</ele>
<time>2026-07-13T13:47:54.000Z</time>
</trkpt>
<trkpt lat="56.691723" lon="8.201079">
<ele>-9.019065</ele>
<time>2026-07-13T13:47:55.000Z</time>
</trkpt>
<trkpt lat="56.691772" lon="8.201118">
<ele>-9.029928</ele>
<time>2026-07-13T13:47:56.000Z</time>
</trkpt>
<trkpt lat="56.691822" lon="8.201155">
<ele>-9.040891</ele>
<time>2026-07-13T13:47:57.000Z</time>
</trkpt>
<trkpt lat="56.691872" lon="8.201195">
<ele>-9.051984</ele>
<time>2026-07-13T13:47:58.000Z</time>
</trkpt>
<trkpt lat="56.691921" lon="8.201236">
<ele>-9.062938</ele>
<time>2026-07-13T13:47:59.000Z</time>
</trkpt>
<trkpt lat="56.691971" lon="8.201274">
<ele>-9.073943</ele>
<time>2026-07-13T13:48:00.000Z</time>
</trkpt>
<trkpt lat="56.692024" lon="8.201311">
<ele>-9.085473</ele>
<time>2026-07-13T13:48:01.000Z</time>
</trkpt>
<trkpt lat="56.692074" lon="8.201349">
<ele>-9.096479</ele>
<time>2026-07-13T13:48:02.000Z</time>
</trkpt>
<trkpt lat="56.692123" lon="8.201385">
<ele>-9.107212</ele>
<time>2026-07-13T13:48:03.000Z</time>
</trkpt>
<trkpt lat="56.692173" lon="8.201425">
<ele>-9.118305</ele>
<time>2026-07-13T13:48:04.000Z</time>
</trkpt>
<trkpt lat="56.692226" lon="8.201463">
<ele>-9.129876</ele>
<time>2026-07-13T13:48:05.000Z</time>
</trkpt>
<trkpt lat="56.692272" lon="8.201499">
<ele>-9.140046</ele>
<time>2026-07-13T13:48:06.000Z</time>
</trkpt>
<trkpt lat="56.692322" lon="8.201535">
<ele>-9.150967</ele>
<time>2026-07-13T13:48:07.000Z</time>
</trkpt>
<trkpt lat="56.692375" lon="8.201572">
<ele>-9.162497</ele>
<time>2026-07-13T13:48:08.000Z</time>
</trkpt>
<trkpt lat="56.692421" lon="8.201608">
<ele>-9.172668</ele>
<time>2026-07-13T13:48:09.000Z</time>
</trkpt>
<trkpt lat="56.692471" lon="8.201646">
<ele>-9.183673</ele>
<time>2026-07-13T13:48:10.000Z</time>
</trkpt>
<trkpt lat="56.692524" lon="8.201684">
<ele>-9.189737</ele>
<time>2026-07-13T13:48:11.000Z</time>
</trkpt>
<trkpt lat="56.692570" lon="8.201721">
<ele>-9.167553</ele>
<time>2026-07-13T13:48:12.000Z</time>
</trkpt>
<trkpt lat="56.692619" lon="8.201762">
<ele>-9.143764</ele>
<time>2026-07-13T13:48:13.000Z</time>
</trkpt>
<trkpt lat="56.692669" lon="8.201800">
<ele>-9.119862</ele>
<time>2026-07-13T13:48:14.000Z</time>
</trkpt>
<trkpt lat="56.692719" lon="8.201838">
<ele>-9.095961</ele>
<time>2026-07-13T13:48:15.000Z</time>
</trkpt>
<trkpt lat="56.692768" lon="8.201872">
<ele>-9.072829</ele>
<time>2026-07-13T13:48:16.000Z</time>
</trkpt>
<trkpt lat="56.692818" lon="8.201909">
<ele>-9.049020</ele>
<time>2026-07-13T13:48:17.000Z</time>
</trkpt>
<trkpt lat="56.692863" lon="8.201945">
<ele>-9.027337</ele>
<time>2026-07-13T13:48:18.000Z</time>
</trkpt>
<trkpt lat="56.692913" lon="8.201982">
<ele>-9.003528</ele>
<time>2026-07-13T13:48:19.000Z</time>
</trkpt>
<trkpt lat="56.692963" lon="8.202018">
<ele>-8.979809</ele>
<time>2026-07-13T13:48:20.000Z</time>
</trkpt>
<trkpt lat="56.693012" lon="8.202055">
<ele>-8.956408</ele>
<time>2026-07-13T13:48:21.000Z</time>
</trkpt>
<trkpt lat="56.693058" lon="8.202093">
<ele>-8.934125</ele>
<time>2026-07-13T13:48:22.000Z</time>
</trkpt>
<trkpt lat="56.693104" lon="8.202130">
<ele>-8.911941</ele>
<time>2026-07-13T13:48:23.000Z</time>
</trkpt>
<trkpt lat="56.693153" lon="8.202168">
<ele>-8.888446</ele>
<time>2026-07-13T13:48:24.000Z</time>
</trkpt>
<trkpt lat="56.693203" lon="8.202204">
<ele>-8.864727</ele>
<time>2026-07-13T13:48:25.000Z</time>
</trkpt>
<trkpt lat="56.693253" lon="8.202242">
<ele>-8.840826</ele>
<time>2026-07-13T13:48:26.000Z</time>
</trkpt>
<trkpt lat="56.693302" lon="8.202280">
<ele>-8.817331</ele>
<time>2026-07-13T13:48:27.000Z</time>
</trkpt>
<trkpt lat="56.693352" lon="8.202315">
<ele>-8.793700</ele>
<time>2026-07-13T13:48:28.000Z</time>
</trkpt>
<trkpt lat="56.693401" lon="8.202354">
<ele>-8.770110</ele>
<time>2026-07-13T13:48:29.000Z</time>
</trkpt>
<trkpt lat="56.693447" lon="8.202394">
<ele>-8.747622</ele>
<time>2026-07-13T13:48:30.000Z</time>
</trkpt>
<trkpt lat="56.693497" lon="8.202429">
<ele>-8.723991</ele>
<time>2026-07-13T13:48:31.000Z</time>
</trkpt>
<trkpt lat="56.693539" lon="8.202459">
<ele>-8.704089</ele>
<time>2026-07-13T13:48:32.000Z</time>
</trkpt>
<trkpt lat="56.693573" lon="8.202489">
<ele>-8.687422</ele>
<time>2026-07-13T13:48:33.000Z</time>
</trkpt>
<trkpt lat="56.693596" lon="8.202519">
<ele>-8.674941</ele>
<time>2026-07-13T13:48:34.000Z</time>
</trkpt>
<trkpt lat="56.693611" lon="8.202552">
<ele>-8.664564</ele>
<time>2026-07-13T13:48:35.000Z</time>
</trkpt>
<trkpt lat="56.693619" lon="8.202574">
<ele>-8.658172</ele>
<time>2026-07-13T13:48:36.000Z</time>
</trkpt>
<trkpt lat="56.693626" lon="8.202596">
<ele>-8.652013</ele>
<time>2026-07-13T13:48:37.000Z</time>
</trkpt>
<trkpt lat="56.693634" lon="8.202622">
<ele>-8.644793</ele>
<time>2026-07-13T13:48:38.000Z</time>
</trkpt>
<trkpt lat="56.693642" lon="8.202648">
<ele>-8.637573</ele>
<time>2026-07-13T13:48:39.000Z</time>
</trkpt>
<trkpt lat="56.693646" lon="8.202669">
<ele>-8.632189</ele>
<time>2026-07-13T13:48:40.000Z</time>
</trkpt>
<trkpt lat="56.693649" lon="8.202689">
<ele>-8.627166</ele>
<time>2026-07-13T13:48:41.000Z</time>
</trkpt>
<trkpt lat="56.693657" lon="8.202706">
<ele>-8.621743</ele>
<time>2026-07-13T13:48:42.000Z</time>
</trkpt>
<trkpt lat="56.693668" lon="8.202717">
<ele>-8.616207</ele>
<time>2026-07-13T13:48:43.000Z</time>
</trkpt>
<trkpt lat="56.693680" lon="8.202725">
<ele>-8.610570</ele>
<time>2026-07-13T13:48:44.000Z</time>
</trkpt>
<trkpt lat="56.693695" lon="8.202741">
<ele>-8.602901</ele>
<time>2026-07-13T13:48:45.000Z</time>
</trkpt>
<trkpt lat="56.693707" lon="8.202760">
<ele>-8.595886</ele>
<time>2026-07-13T13:48:46.000Z</time>
</trkpt>
<trkpt lat="56.693718" lon="8.202775">
<ele>-8.589824</ele>
<time>2026-07-13T13:48:47.000Z</time>
</trkpt>
<trkpt lat="56.693729" lon="8.202786">
<ele>-8.584287</ele>
<time>2026-07-13T13:48:48.000Z</time>
</trkpt>
<trkpt lat="56.693745" lon="8.202794">
<ele>-8.576968</ele>
<time>2026-07-13T13:48:49.000Z</time>
</trkpt>
<trkpt lat="56.693764" lon="8.202802">
<ele>-8.568365</ele>
<time>2026-07-13T13:48:50.000Z</time>
</trkpt>
<trkpt lat="56.693779" lon="8.202796">
<ele>-8.561590</ele>
<time>2026-07-13T13:48:51.000Z</time>
</trkpt>
<trkpt lat="56.693806" lon="8.202771">
<ele>-8.548228</ele>
<time>2026-07-13T13:48:52.000Z</time>
</trkpt>
<trkpt lat="56.693829" lon="8.202732">
<ele>-8.534364</ele>
<time>2026-07-13T13:48:53.000Z</time>
</trkpt>
<trkpt lat="56.693855" lon="8.202682">
<ele>-8.517683</ele>
<time>2026-07-13T13:48:54.000Z</time>
</trkpt>
<trkpt lat="56.693882" lon="8.202626">
<ele>-8.499630</ele>
<time>2026-07-13T13:48:55.000Z</time>
</trkpt>
<trkpt lat="56.693909" lon="8.202570">
<ele>-8.481578</ele>
<time>2026-07-13T13:48:56.000Z</time>
</trkpt>
<trkpt lat="56.693935" lon="8.202518">
<ele>-8.464542</ele>
<time>2026-07-13T13:48:57.000Z</time>
</trkpt>
<trkpt lat="56.693970" lon="8.202465">
<ele>-8.444461</ele>
<time>2026-07-13T13:48:58.000Z</time>
</trkpt>
<trkpt lat="56.694004" lon="8.202415">
<ele>-8.425182</ele>
<time>2026-07-13T13:48:59.000Z</time>
</trkpt>
<trkpt lat="56.694042" lon="8.202377">
<ele>-8.406057</ele>
<time>2026-07-13T13:49:00.000Z</time>
</trkpt>
<trkpt lat="56.694088" lon="8.202359">
<ele>-8.417656</ele>
<time>2026-07-13T13:49:01.000Z</time>
</trkpt>
<trkpt lat="56.694134" lon="8.202367">
<ele>-8.442030</ele>
<time>2026-07-13T13:49:02.000Z</time>
</trkpt>
<trkpt lat="56.694180" lon="8.202393">
<ele>-8.467435</ele>
<time>2026-07-13T13:49:03.000Z</time>
</trkpt>
<trkpt lat="56.694222" lon="8.202423">
<ele>-8.491232</ele>
<time>2026-07-13T13:49:04.000Z</time>
</trkpt>
<trkpt lat="56.694260" lon="8.202448">
<ele>-8.512544</ele>
<time>2026-07-13T13:49:05.000Z</time>
</trkpt>
<trkpt lat="56.694302" lon="8.202476">
<ele>-8.536135</ele>
<time>2026-07-13T13:49:06.000Z</time>
</trkpt>
<trkpt lat="56.694347" lon="8.202503">
<ele>-8.561126</ele>
<time>2026-07-13T13:49:07.000Z</time>
</trkpt>
<trkpt lat="56.694393" lon="8.202528">
<ele>-8.586447</ele>
<time>2026-07-13T13:49:08.000Z</time>
</trkpt>
<trkpt lat="56.694439" lon="8.202552">
<ele>-8.611687</ele>
<time>2026-07-13T13:49:09.000Z</time>
</trkpt>
<trkpt lat="56.694485" lon="8.202578">
<ele>-8.637092</ele>
<time>2026-07-13T13:49:10.000Z</time>
</trkpt>
<trkpt lat="56.694530" lon="8.202601">
<ele>-8.661745</ele>
<time>2026-07-13T13:49:11.000Z</time>
</trkpt>
<trkpt lat="56.694580" lon="8.202624">
<ele>-8.688947</ele>
<time>2026-07-13T13:49:12.000Z</time>
</trkpt>
<trkpt lat="56.694630" lon="8.202651">
<ele>-8.716456</ele>
<time>2026-07-13T13:49:13.000Z</time>
</trkpt>
<trkpt lat="56.694679" lon="8.202679">
<ele>-8.743544</ele>
<time>2026-07-13T13:49:14.000Z</time>
</trkpt>
<trkpt lat="56.694725" lon="8.202705">
<ele>-8.768949</ele>
<time>2026-07-13T13:49:15.000Z</time>
</trkpt>
<trkpt lat="56.694767" lon="8.202728">
<ele>-8.792083</ele>
<time>2026-07-13T13:49:16.000Z</time>
</trkpt>
<trkpt lat="56.694805" lon="8.202753">
<ele>-8.813394</ele>
<time>2026-07-13T13:49:17.000Z</time>
</trkpt>
<trkpt lat="56.694851" lon="8.202774">
<ele>-8.838409</ele>
<time>2026-07-13T13:49:18.000Z</time>
</trkpt>
<trkpt lat="56.694893" lon="8.202797">
<ele>-8.861542</ele>
<time>2026-07-13T13:49:19.000Z</time>
</trkpt>
<trkpt lat="56.694942" lon="8.202822">
<ele>-8.888383</ele>
<time>2026-07-13T13:49:20.000Z</time>
</trkpt>
<trkpt lat="56.694988" lon="8.202848">
<ele>-8.913789</ele>
<time>2026-07-13T13:49:21.000Z</time>
</trkpt>
<trkpt lat="56.695034" lon="8.202873">
<ele>-8.939109</ele>
<time>2026-07-13T13:49:22.000Z</time>
</trkpt>
<trkpt lat="56.695084" lon="8.202898">
<ele>-8.966459</ele>
<time>2026-07-13T13:49:23.000Z</time>
</trkpt>
<trkpt lat="56.695133" lon="8.202924">
<ele>-8.993379</ele>
<time>2026-07-13T13:49:24.000Z</time>
</trkpt>
<trkpt lat="56.695179" lon="8.202950">
<ele>-9.018785</ele>
<time>2026-07-13T13:49:25.000Z</time>
</trkpt>
<trkpt lat="56.695232" lon="8.202976">
<ele>-9.047737</ele>
<time>2026-07-13T13:49:26.000Z</time>
</trkpt>
<trkpt lat="56.695282" lon="8.202998">
<ele>-9.074869</ele>
<time>2026-07-13T13:49:27.000Z</time>
</trkpt>
<trkpt lat="56.695332" lon="8.203021">
<ele>-9.102071</ele>
<time>2026-07-13T13:49:28.000Z</time>
</trkpt>
<trkpt lat="56.695381" lon="8.203043">
<ele>-9.128691</ele>
<time>2026-07-13T13:49:29.000Z</time>
</trkpt>
<trkpt lat="56.695427" lon="8.203069">
<ele>-9.154096</ele>
<time>2026-07-13T13:49:30.000Z</time>
</trkpt>
<trkpt lat="56.695473" lon="8.203095">
<ele>-9.179501</ele>
<time>2026-07-13T13:49:31.000Z</time>
</trkpt>
<trkpt lat="56.695519" lon="8.203123">
<ele>-9.205084</ele>
<time>2026-07-13T13:49:32.000Z</time>
</trkpt>
<trkpt lat="56.695568" lon="8.203154">
<ele>-9.232445</ele>
<time>2026-07-13T13:49:33.000Z</time>
</trkpt>
<trkpt lat="56.695614" lon="8.203184">
<ele>-9.258217</ele>
<time>2026-07-13T13:49:34.000Z</time>
</trkpt>
<trkpt lat="56.695663" lon="8.203214">
<ele>-9.285485</ele>
<time>2026-07-13T13:49:35.000Z</time>
</trkpt>
<trkpt lat="56.695709" lon="8.203239">
<ele>-9.310806</ele>
<time>2026-07-13T13:49:36.000Z</time>
</trkpt>
<trkpt lat="56.695759" lon="8.203260">
<ele>-9.337871</ele>
<time>2026-07-13T13:49:37.000Z</time>
</trkpt>
<trkpt lat="56.695808" lon="8.203287">
<ele>-9.345184</ele>
<time>2026-07-13T13:49:38.000Z</time>
</trkpt>
<trkpt lat="56.695854" lon="8.203313">
<ele>-9.339536</ele>
<time>2026-07-13T13:49:39.000Z</time>
</trkpt>
<trkpt lat="56.695900" lon="8.203339">
<ele>-9.333888</ele>
<time>2026-07-13T13:49:40.000Z</time>
</trkpt>
<trkpt lat="56.695946" lon="8.203365">
<ele>-9.328241</ele>
<time>2026-07-13T13:49:41.000Z</time>
</trkpt>
<trkpt lat="56.695995" lon="8.203393">
<ele>-9.322219</ele>
<time>2026-07-13T13:49:42.000Z</time>
</trkpt>
<trkpt lat="56.696045" lon="8.203420">
<ele>-9.316103</ele>
<time>2026-07-13T13:49:43.000Z</time>
</trkpt>
<trkpt lat="56.696098" lon="8.203444">
<ele>-9.309699</ele>
<time>2026-07-13T13:49:44.000Z</time>
</trkpt>
<trkpt lat="56.696144" lon="8.203466">
<ele>-9.304123</ele>
<time>2026-07-13T13:49:45.000Z</time>
</trkpt>
<trkpt lat="56.696194" lon="8.203487">
<ele>-9.298106</ele>
<time>2026-07-13T13:49:46.000Z</time>
</trkpt>
<trkpt lat="56.696243" lon="8.203508">
<ele>-9.292203</ele>
<time>2026-07-13T13:49:47.000Z</time>
</trkpt>
<trkpt lat="56.696289" lon="8.203526">
<ele>-9.286686</ele>
<time>2026-07-13T13:49:48.000Z</time>
</trkpt>
<trkpt lat="56.696339" lon="8.203546">
<ele>-9.280683</ele>
<time>2026-07-13T13:49:49.000Z</time>
</trkpt>
<trkpt lat="56.696388" lon="8.203567">
<ele>-9.274781</ele>
<time>2026-07-13T13:49:50.000Z</time>
</trkpt>
<trkpt lat="56.696430" lon="8.203588">
<ele>-9.269674</ele>
<time>2026-07-13T13:49:51.000Z</time>
</trkpt>
<trkpt lat="56.696476" lon="8.203611">
<ele>-9.264080</ele>
<time>2026-07-13T13:49:52.000Z</time>
</trkpt>
<trkpt lat="56.696526" lon="8.203632">
<ele>-9.258063</ele>
<time>2026-07-13T13:49:53.000Z</time>
</trkpt>
<trkpt lat="56.696575" lon="8.203650">
<ele>-9.252202</ele>
<time>2026-07-13T13:49:54.000Z</time>
</trkpt>
<trkpt lat="56.696625" lon="8.203669">
<ele>-9.246213</ele>
<time>2026-07-13T13:49:55.000Z</time>
</trkpt>
<trkpt lat="56.696674" lon="8.203689">
<ele>-9.240324</ele>
<time>2026-07-13T13:49:56.000Z</time>
</trkpt>
<trkpt lat="56.696720" lon="8.203709">
<ele>-9.234779</ele>
<time>2026-07-13T13:49:57.000Z</time>
</trkpt>
<trkpt lat="56.696774" lon="8.203732">
<ele>-9.228276</ele>
<time>2026-07-13T13:49:58.000Z</time>
</trkpt>
<trkpt lat="56.696827" lon="8.203753">
<ele>-9.221916</ele>
<time>2026-07-13T13:49:59.000Z</time>
</trkpt>
<trkpt lat="56.696877" lon="8.203766">
<ele>-9.215994</ele>
<time>2026-07-13T13:50:00.000Z</time>
</trkpt>
<trkpt lat="56.696926" lon="8.203773">
<ele>-9.210230</ele>
<time>2026-07-13T13:50:01.000Z</time>
</trkpt>
<trkpt lat="56.696976" lon="8.203778">
<ele>-9.204358</ele>
<time>2026-07-13T13:50:02.000Z</time>
</trkpt>
<trkpt lat="56.697025" lon="8.203787">
<ele>-9.198584</ele>
<time>2026-07-13T13:50:03.000Z</time>
</trkpt>
<trkpt lat="56.697075" lon="8.203796">
<ele>-9.192692</ele>
<time>2026-07-13T13:50:04.000Z</time>
</trkpt>
<trkpt lat="56.697124" lon="8.203806">
<ele>-9.186910</ele>
<time>2026-07-13T13:50:05.000Z</time>
</trkpt>
<trkpt lat="56.697170" lon="8.203817">
<ele>-9.181470</ele>
<time>2026-07-13T13:50:06.000Z</time>
</trkpt>
<trkpt lat="56.697216" lon="8.203831">
<ele>-9.176001</ele>
<time>2026-07-13T13:50:07.000Z</time>
</trkpt>
<trkpt lat="56.697258" lon="8.203844">
<ele>-9.171006</ele>
<time>2026-07-13T13:50:08.000Z</time>
</trkpt>
<trkpt lat="56.697300" lon="8.203863">
<ele>-9.165931</ele>
<time>2026-07-13T13:50:09.000Z</time>
</trkpt>
<trkpt lat="56.697342" lon="8.203880">
<ele>-9.160886</ele>
<time>2026-07-13T13:50:10.000Z</time>
</trkpt>
<trkpt lat="56.697388" lon="8.203897">
<ele>-9.155382</ele>
<time>2026-07-13T13:50:11.000Z</time>
</trkpt>
<trkpt lat="56.697433" lon="8.203919">
<ele>-9.149919</ele>
<time>2026-07-13T13:50:12.000Z</time>
</trkpt>
<trkpt lat="56.697475" lon="8.203949">
<ele>-9.144629</ele>
<time>2026-07-13T13:50:13.000Z</time>
</trkpt>
<trkpt lat="56.697517" lon="8.203983">
<ele>-9.139239</ele>
<time>2026-07-13T13:50:14.000Z</time>
</trkpt>
<trkpt lat="56.697563" lon="8.204018">
<ele>-9.121133</ele>
<time>2026-07-13T13:50:15.000Z</time>
</trkpt>
<trkpt lat="56.697605" lon="8.204056">
<ele>-9.100529</ele>
<time>2026-07-13T13:50:16.000Z</time>
</trkpt>
<trkpt lat="56.697647" lon="8.204096">
<ele>-9.079706</ele>
<time>2026-07-13T13:50:17.000Z</time>
</trkpt>
<trkpt lat="56.697689" lon="8.204138">
<ele>-9.058655</ele>
<time>2026-07-13T13:50:18.000Z</time>
</trkpt>
<trkpt lat="56.697731" lon="8.204183">
<ele>-9.037246</ele>
<time>2026-07-13T13:50:19.000Z</time>
</trkpt>
<trkpt lat="56.697773" lon="8.204230">
<ele>-9.015589</ele>
<time>2026-07-13T13:50:20.000Z</time>
</trkpt>
<trkpt lat="56.697811" lon="8.204279">
<ele>-8.995133</ele>
<time>2026-07-13T13:50:21.000Z</time>
</trkpt>
<trkpt lat="56.697853" lon="8.204329">
<ele>-8.973088</ele>
<time>2026-07-13T13:50:22.000Z</time>
</trkpt>
<trkpt lat="56.697891" lon="8.204375">
<ele>-8.953042</ele>
<time>2026-07-13T13:50:23.000Z</time>
</trkpt>
<trkpt lat="56.697933" lon="8.204419">
<ele>-8.931755</ele>
<time>2026-07-13T13:50:24.000Z</time>
</trkpt>
<trkpt lat="56.697975" lon="8.204459">
<ele>-8.910932</ele>
<time>2026-07-13T13:50:25.000Z</time>
</trkpt>
<trkpt lat="56.698017" lon="8.204491">
<ele>-8.890929</ele>
<time>2026-07-13T13:50:26.000Z</time>
</trkpt>
<trkpt lat="56.698059" lon="8.204518">
<ele>-8.871361</ele>
<time>2026-07-13T13:50:27.000Z</time>
</trkpt>
<trkpt lat="56.698101" lon="8.204541">
<ele>-8.852093</ele>
<time>2026-07-13T13:50:28.000Z</time>
</trkpt>
<trkpt lat="56.698143" lon="8.204562">
<ele>-8.832957</ele>
<time>2026-07-13T13:50:29.000Z</time>
</trkpt>
<trkpt lat="56.698189" lon="8.204584">
<ele>-8.812062</ele>
<time>2026-07-13T13:50:30.000Z</time>
</trkpt>
<trkpt lat="56.698231" lon="8.204605">
<ele>-8.792927</ele>
<time>2026-07-13T13:50:31.000Z</time>
</trkpt>
<trkpt lat="56.698269" lon="8.204621">
<ele>-8.775791</ele>
<time>2026-07-13T13:50:32.000Z</time>
</trkpt>
<trkpt lat="56.698311" lon="8.204634">
<ele>-8.757074</ele>
<time>2026-07-13T13:50:33.000Z</time>
</trkpt>
<trkpt lat="56.698345" lon="8.204644">
<ele>-8.741943</ele>
<time>2026-07-13T13:50:34.000Z</time>
</trkpt>
<trkpt lat="56.698383" lon="8.204653">
<ele>-8.725107</ele>
<time>2026-07-13T13:50:35.000Z</time>
</trkpt>
<trkpt lat="56.698418" lon="8.204664">
<ele>-8.709503</ele>
<time>2026-07-13T13:50:36.000Z</time>
</trkpt>
<trkpt lat="56.698444" lon="8.204673">
<ele>-8.697875</ele>
<time>2026-07-13T13:50:37.000Z</time>
</trkpt>
<trkpt lat="56.698463" lon="8.204679">
<ele>-8.689403</ele>
<time>2026-07-13T13:50:38.000Z</time>
</trkpt>
<trkpt lat="56.698471" lon="8.204681">
<ele>-8.685855</ele>
<time>2026-07-13T13:50:39.000Z</time>
</trkpt>
<trkpt lat="56.698486" lon="8.204679">
<ele>-8.679247</ele>
<time>2026-07-13T13:52:31.000Z</time>
</trkpt>
<trkpt lat="56.698509" lon="8.204676">
<ele>-8.669117</ele>
<time>2026-07-13T13:52:32.000Z</time>
</trkpt>
<trkpt lat="56.698536" lon="8.204674">
<ele>-8.657244</ele>
<time>2026-07-13T13:52:33.000Z</time>
</trkpt>
<trkpt lat="56.698559" lon="8.204671">
<ele>-8.647114</ele>
<time>2026-07-13T13:52:34.000Z</time>
</trkpt>
<trkpt lat="56.698586" lon="8.204667">
<ele>-8.635212</ele>
<time>2026-07-13T13:52:35.000Z</time>
</trkpt>
<trkpt lat="56.698620" lon="8.204664">
<ele>-8.620257</ele>
<time>2026-07-13T13:52:36.000Z</time>
</trkpt>
<trkpt lat="56.698658" lon="8.204664">
<ele>-8.603562</ele>
<time>2026-07-13T13:52:37.000Z</time>
</trkpt>
<trkpt lat="56.698696" lon="8.204671">
<ele>-8.586781</ele>
<time>2026-07-13T13:52:38.000Z</time>
</trkpt>
<trkpt lat="56.698738" lon="8.204682">
<ele>-8.568139</ele>
<time>2026-07-13T13:52:39.000Z</time>
</trkpt>
<trkpt lat="56.698780" lon="8.204696">
<ele>-8.549380</ele>
<time>2026-07-13T13:52:40.000Z</time>
</trkpt>
<trkpt lat="56.698818" lon="8.204707">
<ele>-8.532475</ele>
<time>2026-07-13T13:52:41.000Z</time>
</trkpt>
<trkpt lat="56.698860" lon="8.204716">
<ele>-8.513895</ele>
<time>2026-07-13T13:52:42.000Z</time>
</trkpt>
<trkpt lat="56.698898" lon="8.204723">
<ele>-8.497115</ele>
<time>2026-07-13T13:52:43.000Z</time>
</trkpt>
<trkpt lat="56.698936" lon="8.204727">
<ele>-8.480392</ele>
<time>2026-07-13T13:52:44.000Z</time>
</trkpt>
<trkpt lat="56.698975" lon="8.204729">
<ele>-8.463250</ele>
<time>2026-07-13T13:52:45.000Z</time>
</trkpt>
<trkpt lat="56.699017" lon="8.204732">
<ele>-8.444784</ele>
<time>2026-07-13T13:52:46.000Z</time>
</trkpt>
<trkpt lat="56.699062" lon="8.204737">
<ele>-8.424976</ele>
<time>2026-07-13T13:52:47.000Z</time>
</trkpt>
<trkpt lat="56.699112" lon="8.204745">
<ele>-8.402924</ele>
<time>2026-07-13T13:52:48.000Z</time>
</trkpt>
<trkpt lat="56.699158" lon="8.204752">
<ele>-8.382644</ele>
<time>2026-07-13T13:52:49.000Z</time>
</trkpt>
<trkpt lat="56.699207" lon="8.204758">
<ele>-8.361067</ele>
<time>2026-07-13T13:52:50.000Z</time>
</trkpt>
<trkpt lat="56.699249" lon="8.204761">
<ele>-8.349004</ele>
<time>2026-07-13T13:52:51.000Z</time>
</trkpt>
<trkpt lat="56.699299" lon="8.204762">
<ele>-8.355015</ele>
<time>2026-07-13T13:52:52.000Z</time>
</trkpt>
<trkpt lat="56.699345" lon="8.204766">
<ele>-8.360551</ele>
<time>2026-07-13T13:52:53.000Z</time>
</trkpt>
<trkpt lat="56.699394" lon="8.204771">
<ele>-8.366450</ele>
<time>2026-07-13T13:52:54.000Z</time>
</trkpt>
<trkpt lat="56.699444" lon="8.204775">
<ele>-8.372466</ele>
<time>2026-07-13T13:52:55.000Z</time>
</trkpt>
<trkpt lat="56.699497" lon="8.204778">
<ele>-8.378840</ele>
<time>2026-07-13T13:52:56.000Z</time>
</trkpt>
<trkpt lat="56.699543" lon="8.204783">
<ele>-8.384380</ele>
<time>2026-07-13T13:52:57.000Z</time>
</trkpt>
<trkpt lat="56.699593" lon="8.204793">
<ele>-8.390426</ele>
<time>2026-07-13T13:52:58.000Z</time>
</trkpt>
<trkpt lat="56.699646" lon="8.204803">
<ele>-8.396831</ele>
<time>2026-07-13T13:52:59.000Z</time>
</trkpt>
<trkpt lat="56.699699" lon="8.204813">
<ele>-8.403236</ele>
<time>2026-07-13T13:53:00.000Z</time>
</trkpt>
<trkpt lat="56.699745" lon="8.204823">
<ele>-8.408805</ele>
<time>2026-07-13T13:53:01.000Z</time>
</trkpt>
<trkpt lat="56.699791" lon="8.204838">
<ele>-8.414422</ele>
<time>2026-07-13T13:53:02.000Z</time>
</trkpt>
<trkpt lat="56.699837" lon="8.204850">
<ele>-8.420008</ele>
<time>2026-07-13T13:53:03.000Z</time>
</trkpt>
<trkpt lat="56.699886" lon="8.204863">
<ele>-8.425961</ele>
<time>2026-07-13T13:53:04.000Z</time>
</trkpt>
<trkpt lat="56.699936" lon="8.204878">
<ele>-8.432052</ele>
<time>2026-07-13T13:53:05.000Z</time>
</trkpt>
<trkpt lat="56.699985" lon="8.204897">
<ele>-8.438074</ele>
<time>2026-07-13T13:53:06.000Z</time>
</trkpt>
<trkpt lat="56.700031" lon="8.204919">
<ele>-8.443791</ele>
<time>2026-07-13T13:53:07.000Z</time>
</trkpt>
<trkpt lat="56.700081" lon="8.204943">
<ele>-8.450007</ele>
<time>2026-07-13T13:53:08.000Z</time>
</trkpt>
<trkpt lat="56.700130" lon="8.204967">
<ele>-8.456106</ele>
<time>2026-07-13T13:53:09.000Z</time>
</trkpt>
<trkpt lat="56.700176" lon="8.204994">
<ele>-8.461915</ele>
<time>2026-07-13T13:53:10.000Z</time>
</trkpt>
<trkpt lat="56.700222" lon="8.205022">
<ele>-8.467746</ele>
<time>2026-07-13T13:53:11.000Z</time>
</trkpt>
<trkpt lat="56.700268" lon="8.205055">
<ele>-8.473689</ele>
<time>2026-07-13T13:53:12.000Z</time>
</trkpt>
<trkpt lat="56.700310" lon="8.205088">
<ele>-8.479187</ele>
<time>2026-07-13T13:53:13.000Z</time>
</trkpt>
<trkpt lat="56.700359" lon="8.205129">
<ele>-8.485669</ele>
<time>2026-07-13T13:53:14.000Z</time>
</trkpt>
<trkpt lat="56.700409" lon="8.205172">
<ele>-8.492315</ele>
<time>2026-07-13T13:53:15.000Z</time>
</trkpt>
<trkpt lat="56.700462" lon="8.205213">
<ele>-8.499237</ele>
<time>2026-07-13T13:53:16.000Z</time>
</trkpt>
<trkpt lat="56.700508" lon="8.205254">
<ele>-8.505393</ele>
<time>2026-07-13T13:53:17.000Z</time>
</trkpt>
<trkpt lat="56.700558" lon="8.205302">
<ele>-8.512187</ele>
<time>2026-07-13T13:53:18.000Z</time>
</trkpt>
<trkpt lat="56.700607" lon="8.205348">
<ele>-8.518814</ele>
<time>2026-07-13T13:53:19.000Z</time>
</trkpt>
<trkpt lat="56.700653" lon="8.205397">
<ele>-8.525219</ele>
<time>2026-07-13T13:53:20.000Z</time>
</trkpt>
<trkpt lat="56.700695" lon="8.205446">
<ele>-8.531215</ele>
<time>2026-07-13T13:53:21.000Z</time>
</trkpt>
<trkpt lat="56.700737" lon="8.205497">
<ele>-8.537283</ele>
<time>2026-07-13T13:53:22.000Z</time>
</trkpt>
<trkpt lat="56.700779" lon="8.205555">
<ele>-8.543618</ele>
<time>2026-07-13T13:53:23.000Z</time>
</trkpt>
<trkpt lat="56.700821" lon="8.205611">
<ele>-8.549875</ele>
<time>2026-07-13T13:53:24.000Z</time>
</trkpt>
<trkpt lat="56.700863" lon="8.205667">
<ele>-8.556132</ele>
<time>2026-07-13T13:53:25.000Z</time>
</trkpt>
<trkpt lat="56.700901" lon="8.205717">
<ele>-8.561767</ele>
<time>2026-07-13T13:53:26.000Z</time>
</trkpt>
<trkpt lat="56.700943" lon="8.205771">
<ele>-8.582910</ele>
<time>2026-07-13T13:53:27.000Z</time>
</trkpt>
<trkpt lat="56.700977" lon="8.205822">
<ele>-8.607484</ele>
<time>2026-07-13T13:53:28.000Z</time>
</trkpt>
<trkpt lat="56.701012" lon="8.205876">
<ele>-8.633076</ele>
<time>2026-07-13T13:53:29.000Z</time>
</trkpt>
<trkpt lat="56.701042" lon="8.205935">
<ele>-8.657709</ele>
<time>2026-07-13T13:53:30.000Z</time>
</trkpt>
<trkpt lat="56.701076" lon="8.205996">
<ele>-8.684336</ele>
<time>2026-07-13T13:53:31.000Z</time>
</trkpt>
<trkpt lat="56.701115" lon="8.206048">
<ele>-8.711302</ele>
<time>2026-07-13T13:53:32.000Z</time>
</trkpt>
<trkpt lat="56.701149" lon="8.206102">
<ele>-8.736471</ele>
<time>2026-07-13T13:53:33.000Z</time>
</trkpt>
<trkpt lat="56.701183" lon="8.206161">
<ele>-8.762672</ele>
<time>2026-07-13T13:53:34.000Z</time>
</trkpt>
<trkpt lat="56.701218" lon="8.206224">
<ele>-8.790126</ele>
<time>2026-07-13T13:53:35.000Z</time>
</trkpt>
<trkpt lat="56.701248" lon="8.206287">
<ele>-8.815671</ele>
<time>2026-07-13T13:53:36.000Z</time>
</trkpt>
<trkpt lat="56.701283" lon="8.206357">
<ele>-8.844673</ele>
<time>2026-07-13T13:53:37.000Z</time>
</trkpt>
<trkpt lat="56.701321" lon="8.206423">
<ele>-8.873968</ele>
<time>2026-07-13T13:53:38.000Z</time>
</trkpt>
<trkpt lat="56.701355" lon="8.206492">
<ele>-8.902368</ele>
<time>2026-07-13T13:53:39.000Z</time>
</trkpt>
<trkpt lat="56.701389" lon="8.206564">
<ele>-8.931459</ele>
<time>2026-07-13T13:53:40.000Z</time>
</trkpt>
<trkpt lat="56.701424" lon="8.206635">
<ele>-8.960687</ele>
<time>2026-07-13T13:53:41.000Z</time>
</trkpt>
<trkpt lat="56.701458" lon="8.206700">
<ele>-8.988188</ele>
<time>2026-07-13T13:53:42.000Z</time>
</trkpt>
<trkpt lat="56.701496" lon="8.206772">
<ele>-9.018780</ele>
<time>2026-07-13T13:53:43.000Z</time>
</trkpt>
<trkpt lat="56.701538" lon="8.206841">
<ele>-9.050337</ele>
<time>2026-07-13T13:53:44.000Z</time>
</trkpt>
<trkpt lat="56.701576" lon="8.206911">
<ele>-9.080491</ele>
<time>2026-07-13T13:53:45.000Z</time>
</trkpt>
<trkpt lat="56.701614" lon="8.206980">
<ele>-9.110428</ele>
<time>2026-07-13T13:53:46.000Z</time>
</trkpt>
<trkpt lat="56.701656" lon="8.207053">
<ele>-9.142818</ele>
<time>2026-07-13T13:53:47.000Z</time>
</trkpt>
<trkpt lat="56.701694" lon="8.207119">
<ele>-9.172113</ele>
<time>2026-07-13T13:53:48.000Z</time>
</trkpt>
<trkpt lat="56.701733" lon="8.207187">
<ele>-9.202235</ele>
<time>2026-07-13T13:53:49.000Z</time>
</trkpt>
<trkpt lat="56.701771" lon="8.207258">
<ele>-9.232608</ele>
<time>2026-07-13T13:53:50.000Z</time>
</trkpt>
<trkpt lat="56.701809" lon="8.207332">
<ele>-9.263644</ele>
<time>2026-07-13T13:53:51.000Z</time>
</trkpt>
<trkpt lat="56.701839" lon="8.207396">
<ele>-9.289422</ele>
<time>2026-07-13T13:53:52.000Z</time>
</trkpt>
<trkpt lat="56.701878" lon="8.207465">
<ele>-9.319756</ele>
<time>2026-07-13T13:53:53.000Z</time>
</trkpt>
<trkpt lat="56.701916" lon="8.207530">
<ele>-9.348841</ele>
<time>2026-07-13T13:53:54.000Z</time>
</trkpt>
<trkpt lat="56.701954" lon="8.207592">
<ele>-9.377304</ele>
<time>2026-07-13T13:53:55.000Z</time>
</trkpt>
<trkpt lat="56.701988" lon="8.207651">
<ele>-9.403505</ele>
<time>2026-07-13T13:53:56.000Z</time>
</trkpt>
<trkpt lat="56.702023" lon="8.207710">
<ele>-9.430112</ele>
<time>2026-07-13T13:53:57.000Z</time>
</trkpt>
<trkpt lat="56.702057" lon="8.207770">
<ele>-9.456524</ele>
<time>2026-07-13T13:53:58.000Z</time>
</trkpt>
<trkpt lat="56.702091" lon="8.207832">
<ele>-9.483367</ele>
<time>2026-07-13T13:53:59.000Z</time>
</trkpt>
<trkpt lat="56.702122" lon="8.207891">
<ele>-9.508382</ele>
<time>2026-07-13T13:54:00.000Z</time>
</trkpt>
<trkpt lat="56.702152" lon="8.207953">
<ele>-9.533696</ele>
<time>2026-07-13T13:54:01.000Z</time>
</trkpt>
<trkpt lat="56.702183" lon="8.208013">
<ele>-9.558933</ele>
<time>2026-07-13T13:54:02.000Z</time>
</trkpt>
<trkpt lat="56.702213" lon="8.208080">
<ele>-9.570757</ele>
<time>2026-07-13T13:54:03.000Z</time>
</trkpt>
<trkpt lat="56.702240" lon="8.208145">
<ele>-9.575439</ele>
<time>2026-07-13T13:54:04.000Z</time>
</trkpt>
<trkpt lat="56.702270" lon="8.208211">
<ele>-9.580362</ele>
<time>2026-07-13T13:54:05.000Z</time>
</trkpt>
<trkpt lat="56.702301" lon="8.208275">
<ele>-9.585265</ele>
<time>2026-07-13T13:54:06.000Z</time>
</trkpt>
<trkpt lat="56.702335" lon="8.208340">
<ele>-9.590422</ele>
<time>2026-07-13T13:54:07.000Z</time>
</trkpt>
<trkpt lat="56.702370" lon="8.208402">
<ele>-9.595531</ele>
<time>2026-07-13T13:54:08.000Z</time>
</trkpt>
<trkpt lat="56.702404" lon="8.208466">
<ele>-9.600647</ele>
<time>2026-07-13T13:54:09.000Z</time>
</trkpt>
<trkpt lat="56.702435" lon="8.208520">
<ele>-9.605136</ele>
<time>2026-07-13T13:54:10.000Z</time>
</trkpt>
<trkpt lat="56.702469" lon="8.208569">
<ele>-9.609673</ele>
<time>2026-07-13T13:54:11.000Z</time>
</trkpt>
<trkpt lat="56.702499" lon="8.208616">
<ele>-9.613813</ele>
<time>2026-07-13T13:54:12.000Z</time>
</trkpt>
<trkpt lat="56.702538" lon="8.208672">
<ele>-9.619010</ele>
<time>2026-07-13T13:54:13.000Z</time>
</trkpt>
<trkpt lat="56.702572" lon="8.208726">
<ele>-9.623730</ele>
<time>2026-07-13T13:54:14.000Z</time>
</trkpt>
<trkpt lat="56.702606" lon="8.208782">
<ele>-9.628527</ele>
<time>2026-07-13T13:54:15.000Z</time>
</trkpt>
<trkpt lat="56.702644" lon="8.208842">
<ele>-9.633789</ele>
<time>2026-07-13T13:54:16.000Z</time>
</trkpt>
<trkpt lat="56.702679" lon="8.208910">
<ele>-9.639144</ele>
<time>2026-07-13T13:54:17.000Z</time>
</trkpt>
<trkpt lat="56.702713" lon="8.208976">
<ele>-9.644343</ele>
<time>2026-07-13T13:54:18.000Z</time>
</trkpt>
<trkpt lat="56.702747" lon="8.209041">
<ele>-9.649501</ele>
<time>2026-07-13T13:54:19.000Z</time>
</trkpt>
<trkpt lat="56.702782" lon="8.209104">
<ele>-9.654650</ele>
<time>2026-07-13T13:54:20.000Z</time>
</trkpt>
<trkpt lat="56.702820" lon="8.209171">
<ele>-9.660184</ele>
<time>2026-07-13T13:54:21.000Z</time>
</trkpt>
<trkpt lat="56.702854" lon="8.209241">
<ele>-9.665553</ele>
<time>2026-07-13T13:54:22.000Z</time>
</trkpt>
<trkpt lat="56.702885" lon="8.209311">
<ele>-9.670720</ele>
<time>2026-07-13T13:54:23.000Z</time>
</trkpt>
<trkpt lat="56.702923" lon="8.209374">
<ele>-9.676096</ele>
<time>2026-07-13T13:54:24.000Z</time>
</trkpt>
<trkpt lat="56.702957" lon="8.209436">
<ele>-9.681131</ele>
<time>2026-07-13T13:54:25.000Z</time>
</trkpt>
<trkpt lat="56.702995" lon="8.209500">
<ele>-9.686546</ele>
<time>2026-07-13T13:54:26.000Z</time>
</trkpt>
<trkpt lat="56.703030" lon="8.209567">
<ele>-9.691859</ele>
<time>2026-07-13T13:54:27.000Z</time>
</trkpt>
<trkpt lat="56.703064" lon="8.209631">
<ele>-9.696976</ele>
<time>2026-07-13T13:54:28.000Z</time>
</trkpt>
<trkpt lat="56.703102" lon="8.209700">
<ele>-9.702590</ele>
<time>2026-07-13T13:54:29.000Z</time>
</trkpt>
<trkpt lat="56.703136" lon="8.209776">
<ele>-9.708222</ele>
<time>2026-07-13T13:54:30.000Z</time>
</trkpt>
<trkpt lat="56.703167" lon="8.209849">
<ele>-9.713524</ele>
<time>2026-07-13T13:54:31.000Z</time>
</trkpt>
<trkpt lat="56.703198" lon="8.209916">
<ele>-9.718557</ele>
<time>2026-07-13T13:54:32.000Z</time>
</trkpt>
<trkpt lat="56.703228" lon="8.209981">
<ele>-9.723436</ele>
<time>2026-07-13T13:54:33.000Z</time>
</trkpt>
<trkpt lat="56.703259" lon="8.210042">
<ele>-9.728211</ele>
<time>2026-07-13T13:54:34.000Z</time>
</trkpt>
<trkpt lat="56.703293" lon="8.210098">
<ele>-9.733007</ele>
<time>2026-07-13T13:54:35.000Z</time>
</trkpt>
<trkpt lat="56.703327" lon="8.210152">
<ele>-9.737728</ele>
<time>2026-07-13T13:54:36.000Z</time>
</trkpt>
<trkpt lat="56.703362" lon="8.210214">
<ele>-9.742836</ele>
<time>2026-07-13T13:54:37.000Z</time>
</trkpt>
<trkpt lat="56.703400" lon="8.210278">
<ele>-9.748252</ele>
<time>2026-07-13T13:54:38.000Z</time>
</trkpt>
<trkpt lat="56.703430" lon="8.210341">
<ele>-9.753043</ele>
<time>2026-07-13T13:54:39.000Z</time>
</trkpt>
<trkpt lat="56.703464" lon="8.210403">
<ele>-9.750406</ele>
<time>2026-07-13T13:54:40.000Z</time>
</trkpt>
<trkpt lat="56.703495" lon="8.210468">
<ele>-9.740120</ele>
<time>2026-07-13T13:54:41.000Z</time>
</trkpt>
<trkpt lat="56.703526" lon="8.210534">
<ele>-9.729743</ele>
<time>2026-07-13T13:54:42.000Z</time>
</trkpt>
<trkpt lat="56.703556" lon="8.210604">
<ele>-9.719133</ele>
<time>2026-07-13T13:54:43.000Z</time>
</trkpt>
<trkpt lat="56.703590" lon="8.210673">
<ele>-9.708056</ele>
<time>2026-07-13T13:54:44.000Z</time>
</trkpt>
<trkpt lat="56.703621" lon="8.210746">
<ele>-9.697030</ele>
<time>2026-07-13T13:54:45.000Z</time>
</trkpt>
<trkpt lat="56.703651" lon="8.210819">
<ele>-9.686136</ele>
<time>2026-07-13T13:54:46.000Z</time>
</trkpt>
<trkpt lat="56.703682" lon="8.210897">
<ele>-9.674632</ele>
<time>2026-07-13T13:54:47.000Z</time>
</trkpt>
<trkpt lat="56.703709" lon="8.210975">
<ele>-9.663616</ele>
<time>2026-07-13T13:54:48.000Z</time>
</trkpt>
<trkpt lat="56.703739" lon="8.211055">
<ele>-9.652041</ele>
<time>2026-07-13T13:54:49.000Z</time>
</trkpt>
<trkpt lat="56.703770" lon="8.211132">
<ele>-9.640634</ele>
<time>2026-07-13T13:54:50.000Z</time>
</trkpt>
<trkpt lat="56.703796" lon="8.211214">
<ele>-9.629321</ele>
<time>2026-07-13T13:54:51.000Z</time>
</trkpt>
<trkpt lat="56.703827" lon="8.211298">
<ele>-9.617229</ele>
<time>2026-07-13T13:54:52.000Z</time>
</trkpt>
<trkpt lat="56.703854" lon="8.211378">
<ele>-9.606010</ele>
<time>2026-07-13T13:54:53.000Z</time>
</trkpt>
<trkpt lat="56.703880" lon="8.211452">
<ele>-9.595513</ele>
<time>2026-07-13T13:54:54.000Z</time>
</trkpt>
<trkpt lat="56.703907" lon="8.211527">
<ele>-9.584799</ele>
<time>2026-07-13T13:54:55.000Z</time>
</trkpt>
<trkpt lat="56.703934" lon="8.211601">
<ele>-9.574184</ele>
<time>2026-07-13T13:54:56.000Z</time>
</trkpt>
<trkpt lat="56.703964" lon="8.211679">
<ele>-9.562806</ele>
<time>2026-07-13T13:54:57.000Z</time>
</trkpt>
<trkpt lat="56.703991" lon="8.211754">
<ele>-9.552091</ele>
<time>2026-07-13T13:54:58.000Z</time>
</trkpt>
<trkpt lat="56.704018" lon="8.211837">
<ele>-9.540565</ele>
<time>2026-07-13T13:54:59.000Z</time>
</trkpt>
<trkpt lat="56.704040" lon="8.211917">
<ele>-9.529876</ele>
<time>2026-07-13T13:55:00.000Z</time>
</trkpt>
<trkpt lat="56.704063" lon="8.212001">
<ele>-9.518661</ele>
<time>2026-07-13T13:55:01.000Z</time>
</trkpt>
<trkpt lat="56.704082" lon="8.212084">
<ele>-9.507918</ele>
<time>2026-07-13T13:55:02.000Z</time>
</trkpt>
<trkpt lat="56.704094" lon="8.212163">
<ele>-9.498126</ele>
<time>2026-07-13T13:55:03.000Z</time>
</trkpt>
<trkpt lat="56.704102" lon="8.212236">
<ele>-9.489233</ele>
<time>2026-07-13T13:55:04.000Z</time>
</trkpt>
<trkpt lat="56.704109" lon="8.212297">
<ele>-9.481788</ele>
<time>2026-07-13T13:55:05.000Z</time>
</trkpt>
<trkpt lat="56.704113" lon="8.212352">
<ele>-9.475160</ele>
<time>2026-07-13T13:55:06.000Z</time>
</trkpt>
<trkpt lat="56.704117" lon="8.212400">
<ele>-9.469360</ele>
<time>2026-07-13T13:55:07.000Z</time>
</trkpt>
<trkpt lat="56.704117" lon="8.212445">
<ele>-9.463984</ele>
<time>2026-07-13T13:55:08.000Z</time>
</trkpt>
<trkpt lat="56.704117" lon="8.212477">
<ele>-9.460161</ele>
<time>2026-07-13T13:55:09.000Z</time>
</trkpt>
<trkpt lat="56.704113" lon="8.212513">
<ele>-9.455773</ele>
<time>2026-07-13T13:55:10.000Z</time>
</trkpt>
<trkpt lat="56.704113" lon="8.212548">
<ele>-9.451591</ele>
<time>2026-07-13T13:55:11.000Z</time>
</trkpt>
<trkpt lat="56.704117" lon="8.212586">
<ele>-9.446969</ele>
<time>2026-07-13T13:55:12.000Z</time>
</trkpt>
<trkpt lat="56.704121" lon="8.212619">
<ele>-9.442932</ele>
<time>2026-07-13T13:55:13.000Z</time>
</trkpt>
<trkpt lat="56.704132" lon="8.212665">
<ele>-9.436937</ele>
<time>2026-07-13T13:55:14.000Z</time>
</trkpt>
<trkpt lat="56.704147" lon="8.212716">
<ele>-9.430025</ele>
<time>2026-07-13T13:55:15.000Z</time>
</trkpt>
<trkpt lat="56.704159" lon="8.212762">
<ele>-9.423941</ele>
<time>2026-07-13T13:55:16.000Z</time>
</trkpt>
<trkpt lat="56.704166" lon="8.212819">
<ele>-9.416963</ele>
<time>2026-07-13T13:55:17.000Z</time>
</trkpt>
<trkpt lat="56.704170" lon="8.212880">
<ele>-9.409624</ele>
<time>2026-07-13T13:55:18.000Z</time>
</trkpt>
<trkpt lat="56.704174" lon="8.212947">
<ele>-9.401572</ele>
<time>2026-07-13T13:55:19.000Z</time>
</trkpt>
<trkpt lat="56.704178" lon="8.213017">
<ele>-9.393165</ele>
<time>2026-07-13T13:55:20.000Z</time>
</trkpt>
<trkpt lat="56.704182" lon="8.213090">
<ele>-9.384400</ele>
<time>2026-07-13T13:55:21.000Z</time>
</trkpt>
<trkpt lat="56.704185" lon="8.213162">
<ele>-9.375774</ele>
<time>2026-07-13T13:55:22.000Z</time>
</trkpt>
<trkpt lat="56.704193" lon="8.213236">
<ele>-9.366764</ele>
<time>2026-07-13T13:55:23.000Z</time>
</trkpt>
<trkpt lat="56.704193" lon="8.213307">
<ele>-9.359287</ele>
<time>2026-07-13T13:55:24.000Z</time>
</trkpt>
<trkpt lat="56.704189" lon="8.213379">
<ele>-9.352119</ele>
<time>2026-07-13T13:55:25.000Z</time>
</trkpt>
<trkpt lat="56.704189" lon="8.213450">
<ele>-9.345086</ele>
<time>2026-07-13T13:55:26.000Z</time>
</trkpt>
<trkpt lat="56.704193" lon="8.213525">
<ele>-9.337622</ele>
<time>2026-07-13T13:55:27.000Z</time>
</trkpt>
<trkpt lat="56.704197" lon="8.213596">
<ele>-9.330553</ele>
<time>2026-07-13T13:55:28.000Z</time>
</trkpt>
<trkpt lat="56.704201" lon="8.213667">
<ele>-9.323484</ele>
<time>2026-07-13T13:55:29.000Z</time>
</trkpt>
<trkpt lat="56.704208" lon="8.213735">
<ele>-9.316631</ele>
<time>2026-07-13T13:55:30.000Z</time>
</trkpt>
<trkpt lat="56.704216" lon="8.213806">
<ele>-9.309452</ele>
<time>2026-07-13T13:55:31.000Z</time>
</trkpt>
<trkpt lat="56.704224" lon="8.213877">
<ele>-9.302273</ele>
<time>2026-07-13T13:55:32.000Z</time>
</trkpt>
<trkpt lat="56.704227" lon="8.213942">
<ele>-9.295812</ele>
<time>2026-07-13T13:55:33.000Z</time>
</trkpt>
<trkpt lat="56.704231" lon="8.214004">
<ele>-9.289628</ele>
<time>2026-07-13T13:55:34.000Z</time>
</trkpt>
<trkpt lat="56.704235" lon="8.214066">
<ele>-9.283445</ele>
<time>2026-07-13T13:55:35.000Z</time>
</trkpt>
<trkpt lat="56.704239" lon="8.214133">
<ele>-9.276770</ele>
<time>2026-07-13T13:55:36.000Z</time>
</trkpt>
<trkpt lat="56.704243" lon="8.214204">
<ele>-9.269700</ele>
<time>2026-07-13T13:55:37.000Z</time>
</trkpt>
<trkpt lat="56.704247" lon="8.214271">
<ele>-9.263025</ele>
<time>2026-07-13T13:55:38.000Z</time>
</trkpt>
<trkpt lat="56.704250" lon="8.214339">
<ele>-9.256268</ele>
<time>2026-07-13T13:55:39.000Z</time>
</trkpt>
<trkpt lat="56.704258" lon="8.214406">
<ele>-9.249476</ele>
<time>2026-07-13T13:55:40.000Z</time>
</trkpt>
<trkpt lat="56.704266" lon="8.214476">
<ele>-9.242394</ele>
<time>2026-07-13T13:55:41.000Z</time>
</trkpt>
<trkpt lat="56.704269" lon="8.214548">
<ele>-9.235242</ele>
<time>2026-07-13T13:55:42.000Z</time>
</trkpt>
<trkpt lat="56.704277" lon="8.214622">
<ele>-9.227772</ele>
<time>2026-07-13T13:55:43.000Z</time>
</trkpt>
<trkpt lat="56.704281" lon="8.214696">
<ele>-9.220407</ele>
<time>2026-07-13T13:55:44.000Z</time>
</trkpt>
<trkpt lat="56.704289" lon="8.214772">
<ele>-9.212742</ele>
<time>2026-07-13T13:55:45.000Z</time>
</trkpt>
<trkpt lat="56.704289" lon="8.214847">
<ele>-9.205313</ele>
<time>2026-07-13T13:55:46.000Z</time>
</trkpt>
<trkpt lat="56.704292" lon="8.214926">
<ele>-9.197469</ele>
<time>2026-07-13T13:55:47.000Z</time>
</trkpt>
<trkpt lat="56.704300" lon="8.215007">
<ele>-9.189318</ele>
<time>2026-07-13T13:55:48.000Z</time>
</trkpt>
<trkpt lat="56.704304" lon="8.215092">
<ele>-9.180868</ele>
<time>2026-07-13T13:55:49.000Z</time>
</trkpt>
<trkpt lat="56.704308" lon="8.215177">
<ele>-9.172418</ele>
<time>2026-07-13T13:55:50.000Z</time>
</trkpt>
<trkpt lat="56.704315" lon="8.215259">
<ele>-9.164198</ele>
<time>2026-07-13T13:55:51.000Z</time>
</trkpt>
<trkpt lat="56.704319" lon="8.215336">
<ele>-9.156537</ele>
<time>2026-07-13T13:55:52.000Z</time>
</trkpt>
<trkpt lat="56.704327" lon="8.215416">
<ele>-9.148483</ele>
<time>2026-07-13T13:55:53.000Z</time>
</trkpt>
<trkpt lat="56.704338" lon="8.215495">
<ele>-9.140410</ele>
<time>2026-07-13T13:55:54.000Z</time>
</trkpt>
<trkpt lat="56.704346" lon="8.215574">
<ele>-9.132453</ele>
<time>2026-07-13T13:55:55.000Z</time>
</trkpt>
<trkpt lat="56.704350" lon="8.215653">
<ele>-9.124595</ele>
<time>2026-07-13T13:55:56.000Z</time>
</trkpt>
<trkpt lat="56.704353" lon="8.215738">
<ele>-9.116159</ele>
<time>2026-07-13T13:55:57.000Z</time>
</trkpt>
<trkpt lat="56.704357" lon="8.215823">
<ele>-9.107709</ele>
<time>2026-07-13T13:55:58.000Z</time>
</trkpt>
<trkpt lat="56.704365" lon="8.215909">
<ele>-9.099069</ele>
<time>2026-07-13T13:55:59.000Z</time>
</trkpt>
<trkpt lat="56.704372" lon="8.215990">
<ele>-9.090947</ele>
<time>2026-07-13T13:56:00.000Z</time>
</trkpt>
<trkpt lat="56.704380" lon="8.216066">
<ele>-9.083282</ele>
<time>2026-07-13T13:56:01.000Z</time>
</trkpt>
<trkpt lat="56.704388" lon="8.216140">
<ele>-9.075812</ele>
<time>2026-07-13T13:56:02.000Z</time>
</trkpt>
<trkpt lat="56.704392" lon="8.216221">
<ele>-9.067757</ele>
<time>2026-07-13T13:56:03.000Z</time>
</trkpt>
<trkpt lat="56.704399" lon="8.216300">
<ele>-9.059830</ele>
<time>2026-07-13T13:56:04.000Z</time>
</trkpt>
<trkpt lat="56.704407" lon="8.216375">
<ele>-9.052263</ele>
<time>2026-07-13T13:56:05.000Z</time>
</trkpt>
<trkpt lat="56.704414" lon="8.216450">
<ele>-9.044728</ele>
<time>2026-07-13T13:56:06.000Z</time>
</trkpt>
<trkpt lat="56.704422" lon="8.216527">
<ele>-9.041418</ele>
<time>2026-07-13T13:56:07.000Z</time>
</trkpt>
<trkpt lat="56.704426" lon="8.216604">
<ele>-9.046545</ele>
<time>2026-07-13T13:56:08.000Z</time>
</trkpt>
<trkpt lat="56.704433" lon="8.216683">
<ele>-9.051849</ele>
<time>2026-07-13T13:56:09.000Z</time>
</trkpt>
<trkpt lat="56.704433" lon="8.216756">
<ele>-9.056688</ele>
<time>2026-07-13T13:56:10.000Z</time>
</trkpt>
<trkpt lat="56.704441" lon="8.216807">
<ele>-9.060204</ele>
<time>2026-07-13T13:56:11.000Z</time>
</trkpt>
<trkpt lat="56.704456" lon="8.216837">
<ele>-9.062894</ele>
<time>2026-07-13T13:56:12.000Z</time>
</trkpt>
<trkpt lat="56.704468" lon="8.216860">
<ele>-9.064997</ele>
<time>2026-07-13T13:56:13.000Z</time>
</trkpt>
<trkpt lat="56.704479" lon="8.216900">
<ele>-9.067963</ele>
<time>2026-07-13T13:56:14.000Z</time>
</trkpt>
<trkpt lat="56.704487" lon="8.216948">
<ele>-9.071288</ele>
<time>2026-07-13T13:56:15.000Z</time>
</trkpt>
<trkpt lat="56.704494" lon="8.216992">
<ele>-9.074324</ele>
<time>2026-07-13T13:56:16.000Z</time>
</trkpt>
<trkpt lat="56.704498" lon="8.217048">
<ele>-9.078068</ele>
<time>2026-07-13T13:56:17.000Z</time>
</trkpt>
<trkpt lat="56.704502" lon="8.217106">
<ele>-9.081943</ele>
<time>2026-07-13T13:56:18.000Z</time>
</trkpt>
<trkpt lat="56.704506" lon="8.217165">
<ele>-9.085883</ele>
<time>2026-07-13T13:56:19.000Z</time>
</trkpt>
<trkpt lat="56.704510" lon="8.217224">
<ele>-9.089824</ele>
<time>2026-07-13T13:56:20.000Z</time>
</trkpt>
<trkpt lat="56.704517" lon="8.217286">
<ele>-9.094020</ele>
<time>2026-07-13T13:56:21.000Z</time>
</trkpt>
<trkpt lat="56.704525" lon="8.217353">
<ele>-9.098565</ele>
<time>2026-07-13T13:56:22.000Z</time>
</trkpt>
<trkpt lat="56.704533" lon="8.217418">
<ele>-9.102980</ele>
<time>2026-07-13T13:56:23.000Z</time>
</trkpt>
<trkpt lat="56.704536" lon="8.217483">
<ele>-9.107304</ele>
<time>2026-07-13T13:56:24.000Z</time>
</trkpt>
<trkpt lat="56.704540" lon="8.217551">
<ele>-9.111837</ele>
<time>2026-07-13T13:56:25.000Z</time>
</trkpt>
<trkpt lat="56.704544" lon="8.217614">
<ele>-9.116041</ele>
<time>2026-07-13T13:56:26.000Z</time>
</trkpt>
<trkpt lat="56.704552" lon="8.217677">
<ele>-9.120327</ele>
<time>2026-07-13T13:56:27.000Z</time>
</trkpt>
<trkpt lat="56.704555" lon="8.217742">
<ele>-9.124651</ele>
<time>2026-07-13T13:56:28.000Z</time>
</trkpt>
<trkpt lat="56.704559" lon="8.217805">
<ele>-9.128855</ele>
<time>2026-07-13T13:56:29.000Z</time>
</trkpt>
<trkpt lat="56.704567" lon="8.217871">
<ele>-9.133335</ele>
<time>2026-07-13T13:56:30.000Z</time>
</trkpt>
<trkpt lat="56.704571" lon="8.217936">
<ele>-9.137671</ele>
<time>2026-07-13T13:56:31.000Z</time>
</trkpt>
<trkpt lat="56.704578" lon="8.217999">
<ele>-9.141932</ele>
<time>2026-07-13T13:56:32.000Z</time>
</trkpt>
<trkpt lat="56.704578" lon="8.218061">
<ele>-9.146041</ele>
<time>2026-07-13T13:56:33.000Z</time>
</trkpt>
<trkpt lat="56.704578" lon="8.218124">
<ele>-9.150217</ele>
<time>2026-07-13T13:56:34.000Z</time>
</trkpt>
<trkpt lat="56.704582" lon="8.218198">
<ele>-9.155146</ele>
<time>2026-07-13T13:56:35.000Z</time>
</trkpt>
<trkpt lat="56.704586" lon="8.218268">
<ele>-9.159811</ele>
<time>2026-07-13T13:56:36.000Z</time>
</trkpt>
<trkpt lat="56.704590" lon="8.218335">
<ele>-9.164279</ele>
<time>2026-07-13T13:56:37.000Z</time>
</trkpt>
<trkpt lat="56.704594" lon="8.218400">
<ele>-9.168614</ele>
<time>2026-07-13T13:56:38.000Z</time>
</trkpt>
<trkpt lat="56.704601" lon="8.218467">
<ele>-9.173135</ele>
<time>2026-07-13T13:56:39.000Z</time>
</trkpt>
<trkpt lat="56.704601" lon="8.218531">
<ele>-9.177378</ele>
<time>2026-07-13T13:56:40.000Z</time>
</trkpt>
<trkpt lat="56.704605" lon="8.218600">
<ele>-9.181977</ele>
<time>2026-07-13T13:56:41.000Z</time>
</trkpt>
<trkpt lat="56.704609" lon="8.218668">
<ele>-9.186510</ele>
<time>2026-07-13T13:56:42.000Z</time>
</trkpt>
<trkpt lat="56.704617" lon="8.218738">
<ele>-9.191249</ele>
<time>2026-07-13T13:56:43.000Z</time>
</trkpt>
<trkpt lat="56.704624" lon="8.218809">
<ele>-9.196031</ele>
<time>2026-07-13T13:56:44.000Z</time>
</trkpt>
<trkpt lat="56.704632" lon="8.218878">
<ele>-9.200706</ele>
<time>2026-07-13T13:56:45.000Z</time>
</trkpt>
<trkpt lat="56.704636" lon="8.218947">
<ele>-9.205305</ele>
<time>2026-07-13T13:56:46.000Z</time>
</trkpt>
<trkpt lat="56.704639" lon="8.219024">
<ele>-9.210422</ele>
<time>2026-07-13T13:56:47.000Z</time>
</trkpt>
<trkpt lat="56.704647" lon="8.219098">
<ele>-9.215421</ele>
<time>2026-07-13T13:56:48.000Z</time>
</trkpt>
<trkpt lat="56.704655" lon="8.219172">
<ele>-9.220420</ele>
<time>2026-07-13T13:56:49.000Z</time>
</trkpt>
<trkpt lat="56.704658" lon="8.219237">
<ele>-9.224744</ele>
<time>2026-07-13T13:56:50.000Z</time>
</trkpt>
<trkpt lat="56.704662" lon="8.219302">
<ele>-9.229080</ele>
<time>2026-07-13T13:56:51.000Z</time>
</trkpt>
<trkpt lat="56.704666" lon="8.219368">
<ele>-9.233481</ele>
<time>2026-07-13T13:56:52.000Z</time>
</trkpt>
<trkpt lat="56.704674" lon="8.219438">
<ele>-9.238221</ele>
<time>2026-07-13T13:56:53.000Z</time>
</trkpt>
<trkpt lat="56.704681" lon="8.219502">
<ele>-9.242547</ele>
<time>2026-07-13T13:56:54.000Z</time>
</trkpt>
<trkpt lat="56.704685" lon="8.219563">
<ele>-9.246619</ele>
<time>2026-07-13T13:56:55.000Z</time>
</trkpt>
<trkpt lat="56.704681" lon="8.219611">
<ele>-9.249837</ele>
<time>2026-07-13T13:56:56.000Z</time>
</trkpt>
<trkpt lat="56.704685" lon="8.219658">
<ele>-9.252990</ele>
<time>2026-07-13T13:56:57.000Z</time>
</trkpt>
<trkpt lat="56.704685" lon="8.219706">
<ele>-9.256171</ele>
<time>2026-07-13T13:56:58.000Z</time>
</trkpt>
<trkpt lat="56.704689" lon="8.219753">
<ele>-9.246955</ele>
<time>2026-07-13T13:56:59.000Z</time>
</trkpt>
<trkpt lat="56.704685" lon="8.219814">
<ele>-9.230927</ele>
<time>2026-07-13T13:57:00.000Z</time>
</trkpt>
<trkpt lat="56.704685" lon="8.219878">
<ele>-9.214230</ele>
<time>2026-07-13T13:57:01.000Z</time>
</trkpt>
<trkpt lat="56.704689" lon="8.219942">
<ele>-9.197425</ele>
<time>2026-07-13T13:57:02.000Z</time>
</trkpt>
<trkpt lat="56.704693" lon="8.220009">
<ele>-9.179842</ele>
<time>2026-07-13T13:57:03.000Z</time>
</trkpt>
<trkpt lat="56.704700" lon="8.220081">
<ele>-9.160766</ele>
<time>2026-07-13T13:57:04.000Z</time>
</trkpt>
<trkpt lat="56.704704" lon="8.220148">
<ele>-9.143183</ele>
<time>2026-07-13T13:57:05.000Z</time>
</trkpt>
<trkpt lat="56.704712" lon="8.220213">
<ele>-9.125804</ele>
<time>2026-07-13T13:57:06.000Z</time>
</trkpt>
<trkpt lat="56.704720" lon="8.220273">
<ele>-9.109695</ele>
<time>2026-07-13T13:57:07.000Z</time>
</trkpt>
<trkpt lat="56.704727" lon="8.220327">
<ele>-9.095220</ele>
<time>2026-07-13T13:57:08.000Z</time>
</trkpt>
<trkpt lat="56.704727" lon="8.220378">
<ele>-9.081914</ele>
<time>2026-07-13T13:57:09.000Z</time>
</trkpt>
<trkpt lat="56.704731" lon="8.220427">
<ele>-9.068990</ele>
<time>2026-07-13T13:57:10.000Z</time>
</trkpt>
<trkpt lat="56.704735" lon="8.220485">
<ele>-9.053739</ele>
<time>2026-07-13T13:57:11.000Z</time>
</trkpt>
<trkpt lat="56.704735" lon="8.220528">
<ele>-9.042521</ele>
<time>2026-07-13T13:57:12.000Z</time>
</trkpt>
<trkpt lat="56.704731" lon="8.220576">
<ele>-9.029855</ele>
<time>2026-07-13T13:57:13.000Z</time>
</trkpt>
<trkpt lat="56.704731" lon="8.220621">
<ele>-9.018115</ele>
<time>2026-07-13T13:57:14.000Z</time>
</trkpt>
<trkpt lat="56.704735" lon="8.220660">
<ele>-9.007764</ele>
<time>2026-07-13T13:57:15.000Z</time>
</trkpt>
<trkpt lat="56.704735" lon="8.220682">
<ele>-9.002024</ele>
<time>2026-07-13T13:57:16.000Z</time>
</trkpt>
<trkpt lat="56.704739" lon="8.220693">
<ele>-8.998582</ele>
<time>2026-07-13T13:57:17.000Z</time>
</trkpt>
<trkpt lat="56.704739" lon="8.220701">
<ele>-8.996495</ele>
<time>2026-07-13T13:57:18.000Z</time>
</trkpt>
<trkpt lat="56.704739" lon="8.220703">
<ele>-8.995973</ele>
<time>2026-07-13T13:57:19.000Z</time>
</trkpt>
<trkpt lat="56.704788" lon="8.220810">
<ele>-8.959619</ele>
<time>2026-07-13T13:58:11.000Z</time>
</trkpt>
<trkpt lat="56.704803" lon="8.220836">
<ele>-8.949779</ele>
<time>2026-07-13T13:58:12.000Z</time>
</trkpt>
<trkpt lat="56.704830" lon="8.220861">
<ele>-8.935385</ele>
<time>2026-07-13T13:58:13.000Z</time>
</trkpt>
<trkpt lat="56.704861" lon="8.220876">
<ele>-8.920141</ele>
<time>2026-07-13T13:58:14.000Z</time>
</trkpt>
<trkpt lat="56.704891" lon="8.220886">
<ele>-8.905647</ele>
<time>2026-07-13T13:58:15.000Z</time>
</trkpt>
<trkpt lat="56.704926" lon="8.220897">
<ele>-8.888767</ele>
<time>2026-07-13T13:58:16.000Z</time>
</trkpt>
<trkpt lat="56.704956" lon="8.220899">
<ele>-8.874500</ele>
<time>2026-07-13T13:58:17.000Z</time>
</trkpt>
<trkpt lat="56.704987" lon="8.220892">
<ele>-8.859654</ele>
<time>2026-07-13T13:58:18.000Z</time>
</trkpt>
<trkpt lat="56.705021" lon="8.220881">
<ele>-8.843243</ele>
<time>2026-07-13T13:58:19.000Z</time>
</trkpt>
<trkpt lat="56.705059" lon="8.220871">
<ele>-8.824996</ele>
<time>2026-07-13T13:58:20.000Z</time>
</trkpt>
<trkpt lat="56.705090" lon="8.220860">
<ele>-8.809986</ele>
<time>2026-07-13T13:58:21.000Z</time>
</trkpt>
<trkpt lat="56.705124" lon="8.220851">
<ele>-8.793658</ele>
<time>2026-07-13T13:58:22.000Z</time>
</trkpt>
<trkpt lat="56.705154" lon="8.220843">
<ele>-8.779248</ele>
<time>2026-07-13T13:58:23.000Z</time>
</trkpt>
<trkpt lat="56.705185" lon="8.220837">
<ele>-8.764432</ele>
<time>2026-07-13T13:58:24.000Z</time>
</trkpt>
<trkpt lat="56.705223" lon="8.220829">
<ele>-8.746253</ele>
<time>2026-07-13T13:58:25.000Z</time>
</trkpt>
<trkpt lat="56.705257" lon="8.220820">
<ele>-8.729924</ele>
<time>2026-07-13T13:58:26.000Z</time>
</trkpt>
<trkpt lat="56.705288" lon="8.220813">
<ele>-8.715079</ele>
<time>2026-07-13T13:58:27.000Z</time>
</trkpt>
<trkpt lat="56.705318" lon="8.220806">
<ele>-8.700705</ele>
<time>2026-07-13T13:58:28.000Z</time>
</trkpt>
<trkpt lat="56.705353" lon="8.220800">
<ele>-8.683997</ele>
<time>2026-07-13T13:58:29.000Z</time>
</trkpt>
<trkpt lat="56.705383" lon="8.220798">
<ele>-8.669730</ele>
<time>2026-07-13T13:58:30.000Z</time>
</trkpt>
<trkpt lat="56.705418" lon="8.220795">
<ele>-8.653078</ele>
<time>2026-07-13T13:58:31.000Z</time>
</trkpt>
<trkpt lat="56.705448" lon="8.220790">
<ele>-8.638761</ele>
<time>2026-07-13T13:58:32.000Z</time>
</trkpt>
<trkpt lat="56.705483" lon="8.220784">
<ele>-8.622053</ele>
<time>2026-07-13T13:58:33.000Z</time>
</trkpt>
<trkpt lat="56.705517" lon="8.220780">
<ele>-8.605861</ele>
<time>2026-07-13T13:58:34.000Z</time>
</trkpt>
<trkpt lat="56.705540" lon="8.220778">
<ele>-8.594918</ele>
<time>2026-07-13T13:58:35.000Z</time>
</trkpt>
<trkpt lat="56.705566" lon="8.220774">
<ele>-8.582517</ele>
<time>2026-07-13T13:58:36.000Z</time>
</trkpt>
<trkpt lat="56.705597" lon="8.220768">
<ele>-8.567702</ele>
<time>2026-07-13T13:58:37.000Z</time>
</trkpt>
<trkpt lat="56.705627" lon="8.220764">
<ele>-8.553406</ele>
<time>2026-07-13T13:58:38.000Z</time>
</trkpt>
<trkpt lat="56.705654" lon="8.220762">
<ele>-8.540563</ele>
<time>2026-07-13T13:58:39.000Z</time>
</trkpt>
<trkpt lat="56.705685" lon="8.220757">
<ele>-8.525773</ele>
<time>2026-07-13T13:58:40.000Z</time>
</trkpt>
<trkpt lat="56.705715" lon="8.220751">
<ele>-8.511430</ele>
<time>2026-07-13T13:58:41.000Z</time>
</trkpt>
<trkpt lat="56.705742" lon="8.220742">
<ele>-8.498385</ele>
<time>2026-07-13T13:58:42.000Z</time>
</trkpt>
<trkpt lat="56.705769" lon="8.220732">
<ele>-8.485290</ele>
<time>2026-07-13T13:58:43.000Z</time>
</trkpt>
<trkpt lat="56.705807" lon="8.220720">
<ele>-8.466961</ele>
<time>2026-07-13T13:58:44.000Z</time>
</trkpt>
<trkpt lat="56.705837" lon="8.220713">
<ele>-8.452587</ele>
<time>2026-07-13T13:58:45.000Z</time>
</trkpt>
<trkpt lat="56.705864" lon="8.220709">
<ele>-8.439713</ele>
<time>2026-07-13T13:58:46.000Z</time>
</trkpt>
<trkpt lat="56.705891" lon="8.220707">
<ele>-8.426871</ele>
<time>2026-07-13T13:58:47.000Z</time>
</trkpt>
<trkpt lat="56.705925" lon="8.220699">
<ele>-8.410578</ele>
<time>2026-07-13T13:58:48.000Z</time>
</trkpt>
<trkpt lat="56.705948" lon="8.220692">
<ele>-8.393278</ele>
<time>2026-07-13T13:58:49.000Z</time>
</trkpt>
<trkpt lat="56.705975" lon="8.220684">
<ele>-8.348094</ele>
<time>2026-07-13T13:58:50.000Z</time>
</trkpt>
<trkpt lat="56.705997" lon="8.220679">
<ele>-8.311474</ele>
<time>2026-07-13T13:58:51.000Z</time>
</trkpt>
<trkpt lat="56.706024" lon="8.220674">
<ele>-8.266646</ele>
<time>2026-07-13T13:58:52.000Z</time>
</trkpt>
<trkpt lat="56.706047" lon="8.220667">
<ele>-8.228129</ele>
<time>2026-07-13T13:58:53.000Z</time>
</trkpt>
<trkpt lat="56.706074" lon="8.220658">
<ele>-8.182791</ele>
<time>2026-07-13T13:58:54.000Z</time>
</trkpt>
<trkpt lat="56.706097" lon="8.220652">
<ele>-8.144412</ele>
<time>2026-07-13T13:58:55.000Z</time>
</trkpt>
<trkpt lat="56.706116" lon="8.220646">
<ele>-8.112561</ele>
<time>2026-07-13T13:58:56.000Z</time>
</trkpt>
<trkpt lat="56.706135" lon="8.220639">
<ele>-8.080542</ele>
<time>2026-07-13T13:58:57.000Z</time>
</trkpt>
<trkpt lat="56.706150" lon="8.220630">
<ele>-8.054456</ele>
<time>2026-07-13T13:58:58.000Z</time>
</trkpt>
<trkpt lat="56.706169" lon="8.220619">
<ele>-8.021526</ele>
<time>2026-07-13T13:58:59.000Z</time>
</trkpt>
<trkpt lat="56.706188" lon="8.220609">
<ele>-7.988858</ele>
<time>2026-07-13T13:59:00.000Z</time>
</trkpt>
<trkpt lat="56.706200" lon="8.220600">
<ele>-7.967423</ele>
<time>2026-07-13T13:59:01.000Z</time>
</trkpt>
<trkpt lat="56.706215" lon="8.220594">
<ele>-7.942056</ele>
<time>2026-07-13T13:59:02.000Z</time>
</trkpt>
<trkpt lat="56.706223" lon="8.220593">
<ele>-7.928811</ele>
<time>2026-07-13T13:59:03.000Z</time>
</trkpt>
<trkpt lat="56.706230" lon="8.220591">
<ele>-7.917107</ele>
<time>2026-07-13T13:59:04.000Z</time>
</trkpt>
<trkpt lat="56.703228" lon="8.219722">
<ele>-2.898076</ele>
<time>2026-07-13T14:06:17.000Z</time>
</trkpt>
<trkpt lat="56.703205" lon="8.219674">
<ele>-2.840344</ele>
<time>2026-07-13T14:06:18.000Z</time>
</trkpt>
<trkpt lat="56.703190" lon="8.219649">
<ele>-2.806785</ele>
<time>2026-07-13T14:06:19.000Z</time>
</trkpt>
<trkpt lat="56.703167" lon="8.219602">
<ele>-2.749732</ele>
<time>2026-07-13T14:06:20.000Z</time>
</trkpt>
<trkpt lat="56.703136" lon="8.219537">
<ele>-2.671711</ele>
<time>2026-07-13T14:06:21.000Z</time>
</trkpt>
<trkpt lat="56.703114" lon="8.219489">
<ele>-2.615050</ele>
<time>2026-07-13T14:06:22.000Z</time>
</trkpt>
<trkpt lat="56.703091" lon="8.219435">
<ele>-2.553118</ele>
<time>2026-07-13T14:06:23.000Z</time>
</trkpt>
<trkpt lat="56.703068" lon="8.219388">
<ele>-2.496065</ele>
<time>2026-07-13T14:06:24.000Z</time>
</trkpt>
<trkpt lat="56.703045" lon="8.219330">
<ele>-2.452437</ele>
<time>2026-07-13T14:06:25.000Z</time>
</trkpt>
<trkpt lat="56.703022" lon="8.219287">
<ele>-2.435257</ele>
<time>2026-07-13T14:06:26.000Z</time>
</trkpt>
<trkpt lat="56.702995" lon="8.219227">
<ele>-2.413055</ele>
<time>2026-07-13T14:06:27.000Z</time>
</trkpt>
<trkpt lat="56.702965" lon="8.219166">
<ele>-2.389619</ele>
<time>2026-07-13T14:06:28.000Z</time>
</trkpt>
<trkpt lat="56.702942" lon="8.219109">
<ele>-2.369375</ele>
<time>2026-07-13T14:06:29.000Z</time>
</trkpt>
<trkpt lat="56.702915" lon="8.219050">
<ele>-2.347394</ele>
<time>2026-07-13T14:06:30.000Z</time>
</trkpt>
<trkpt lat="56.702881" lon="8.218984">
<ele>-2.321493</ele>
<time>2026-07-13T14:06:31.000Z</time>
</trkpt>
<trkpt lat="56.702850" lon="8.218925">
<ele>-2.298122</ele>
<time>2026-07-13T14:06:32.000Z</time>
</trkpt>
<trkpt lat="56.702820" lon="8.218872">
<ele>-2.276337</ele>
<time>2026-07-13T14:06:33.000Z</time>
</trkpt>
<trkpt lat="56.702793" lon="8.218819">
<ele>-2.255646</ele>
<time>2026-07-13T14:06:34.000Z</time>
</trkpt>
<trkpt lat="56.702770" lon="8.218764">
<ele>-2.235860</ele>
<time>2026-07-13T14:06:35.000Z</time>
</trkpt>
<trkpt lat="56.702740" lon="8.218707">
<ele>-2.213263</ele>
<time>2026-07-13T14:06:36.000Z</time>
</trkpt>
<trkpt lat="56.702705" lon="8.218632">
<ele>-2.185094</ele>
<time>2026-07-13T14:06:37.000Z</time>
</trkpt>
<trkpt lat="56.702660" lon="8.218534">
<ele>-2.148532</ele>
<time>2026-07-13T14:06:38.000Z</time>
</trkpt>
<trkpt lat="56.702633" lon="8.218473">
<ele>-2.126108</ele>
<time>2026-07-13T14:06:39.000Z</time>
</trkpt>
<trkpt lat="56.702606" lon="8.218408">
<ele>-2.102782</ele>
<time>2026-07-13T14:06:40.000Z</time>
</trkpt>
<trkpt lat="56.702576" lon="8.218347">
<ele>-2.079346</ele>
<time>2026-07-13T14:06:41.000Z</time>
</trkpt>
<trkpt lat="56.702549" lon="8.218286">
<ele>-2.056922</ele>
<time>2026-07-13T14:06:42.000Z</time>
</trkpt>
<trkpt lat="56.702519" lon="8.218216">
<ele>-2.031509</ele>
<time>2026-07-13T14:06:43.000Z</time>
</trkpt>
<trkpt lat="56.702492" lon="8.218155">
<ele>-2.009085</ele>
<time>2026-07-13T14:06:44.000Z</time>
</trkpt>
<trkpt lat="56.702465" lon="8.218093">
<ele>-1.986438</ele>
<time>2026-07-13T14:06:45.000Z</time>
</trkpt>
<trkpt lat="56.702435" lon="8.218035">
<ele>-1.963633</ele>
<time>2026-07-13T14:06:46.000Z</time>
</trkpt>
<trkpt lat="56.702412" lon="8.217973">
<ele>-1.942219</ele>
<time>2026-07-13T14:06:47.000Z</time>
</trkpt>
<trkpt lat="56.702385" lon="8.217912">
<ele>-1.919796</ele>
<time>2026-07-13T14:06:48.000Z</time>
</trkpt>
<trkpt lat="56.702354" lon="8.217846">
<ele>-1.894939</ele>
<time>2026-07-13T14:06:49.000Z</time>
</trkpt>
<trkpt lat="56.702328" lon="8.217794">
<ele>-1.874811</ele>
<time>2026-07-13T14:06:50.000Z</time>
</trkpt>
<trkpt lat="56.702297" lon="8.217738">
<ele>-1.852052</ele>
<time>2026-07-13T14:06:51.000Z</time>
</trkpt>
<trkpt lat="56.702270" lon="8.217674">
<ele>-1.828954</ele>
<time>2026-07-13T14:06:52.000Z</time>
</trkpt>
<trkpt lat="56.702244" lon="8.217619">
<ele>-1.808183</ele>
<time>2026-07-13T14:06:53.000Z</time>
</trkpt>
<trkpt lat="56.702209" lon="8.217551">
<ele>-1.781508</ele>
<time>2026-07-13T14:06:54.000Z</time>
</trkpt>
<trkpt lat="56.702179" lon="8.217490">
<ele>-1.758071</ele>
<time>2026-07-13T14:06:55.000Z</time>
</trkpt>
<trkpt lat="56.702156" lon="8.217433">
<ele>-1.737827</ele>
<time>2026-07-13T14:06:56.000Z</time>
</trkpt>
<trkpt lat="56.702126" lon="8.217369">
<ele>-1.713744</ele>
<time>2026-07-13T14:06:57.000Z</time>
</trkpt>
<trkpt lat="56.702095" lon="8.217307">
<ele>-1.689745</ele>
<time>2026-07-13T14:06:58.000Z</time>
</trkpt>
<trkpt lat="56.702072" lon="8.217251">
<ele>-1.669730</ele>
<time>2026-07-13T14:06:59.000Z</time>
</trkpt>
<trkpt lat="56.702045" lon="8.217184">
<ele>-1.645945</ele>
<time>2026-07-13T14:07:00.000Z</time>
</trkpt>
<trkpt lat="56.702019" lon="8.217121">
<ele>-1.623390</ele>
<time>2026-07-13T14:07:01.000Z</time>
</trkpt>
<trkpt lat="56.701992" lon="8.217056">
<ele>-1.600064</ele>
<time>2026-07-13T14:07:02.000Z</time>
</trkpt>
<trkpt lat="56.701962" lon="8.216994">
<ele>-1.576413</ele>
<time>2026-07-13T14:07:03.000Z</time>
</trkpt>
<trkpt lat="56.701935" lon="8.216934">
<ele>-1.554211</ele>
<time>2026-07-13T14:07:04.000Z</time>
</trkpt>
<trkpt lat="56.701908" lon="8.216867">
<ele>-1.530426</ele>
<time>2026-07-13T14:07:05.000Z</time>
</trkpt>
<trkpt lat="56.701878" lon="8.216809">
<ele>-1.510657</ele>
<time>2026-07-13T14:07:06.000Z</time>
</trkpt>
<trkpt lat="56.701851" lon="8.216745">
<ele>-1.491679</ele>
<time>2026-07-13T14:07:07.000Z</time>
</trkpt>
<trkpt lat="56.701805" lon="8.216629">
<ele>-1.458033</ele>
<time>2026-07-13T14:07:08.000Z</time>
</trkpt>
<trkpt lat="56.701794" lon="8.216590">
<ele>-1.447723</ele>
<time>2026-07-13T14:07:09.000Z</time>
</trkpt>
<trkpt lat="56.701771" lon="8.216548">
<ele>-1.433775</ele>
<time>2026-07-13T14:07:10.000Z</time>
</trkpt>
<trkpt lat="56.701744" lon="8.216491">
<ele>-1.416073</ele>
<time>2026-07-13T14:07:11.000Z</time>
</trkpt>
<trkpt lat="56.701725" lon="8.216444">
<ele>-1.402349</ele>
<time>2026-07-13T14:07:12.000Z</time>
</trkpt>
<trkpt lat="56.701702" lon="8.216380">
<ele>-1.384363</ele>
<time>2026-07-13T14:07:13.000Z</time>
</trkpt>
<trkpt lat="56.701679" lon="8.216322">
<ele>-1.367540</ele>
<time>2026-07-13T14:07:14.000Z</time>
</trkpt>
<trkpt lat="56.701653" lon="8.216269">
<ele>-1.350828</ele>
<time>2026-07-13T14:07:15.000Z</time>
</trkpt>
<trkpt lat="56.701630" lon="8.216215">
<ele>-1.334758</ele>
<time>2026-07-13T14:07:16.000Z</time>
</trkpt>
<trkpt lat="56.701603" lon="8.216154">
<ele>-1.316334</ele>
<time>2026-07-13T14:07:17.000Z</time>
</trkpt>
<trkpt lat="56.701572" lon="8.216096">
<ele>-1.297301</ele>
<time>2026-07-13T14:07:18.000Z</time>
</trkpt>
<trkpt lat="56.701550" lon="8.216034">
<ele>-1.279943</ele>
<time>2026-07-13T14:07:19.000Z</time>
</trkpt>
<trkpt lat="56.701527" lon="8.215976">
<ele>-1.263120</ele>
<time>2026-07-13T14:07:20.000Z</time>
</trkpt>
<trkpt lat="56.701500" lon="8.215920">
<ele>-1.245595</ele>
<time>2026-07-13T14:07:21.000Z</time>
</trkpt>
<trkpt lat="56.701469" lon="8.215860">
<ele>-1.226223</ele>
<time>2026-07-13T14:07:22.000Z</time>
</trkpt>
<trkpt lat="56.701439" lon="8.215800">
<ele>-1.207141</ele>
<time>2026-07-13T14:07:23.000Z</time>
</trkpt>
<trkpt lat="56.701408" lon="8.215740">
<ele>-1.187768</ele>
<time>2026-07-13T14:07:24.000Z</time>
</trkpt>
<trkpt lat="56.701382" lon="8.215676">
<ele>-1.169047</ele>
<time>2026-07-13T14:07:25.000Z</time>
</trkpt>
<trkpt lat="56.701340" lon="8.215569">
<ele>-1.138119</ele>
<time>2026-07-13T14:07:26.000Z</time>
</trkpt>
<trkpt lat="56.701313" lon="8.215505">
<ele>-1.119141</ele>
<time>2026-07-13T14:07:27.000Z</time>
</trkpt>
<trkpt lat="56.701283" lon="8.215439">
<ele>-1.098993</ele>
<time>2026-07-13T14:07:28.000Z</time>
</trkpt>
<trkpt lat="56.701260" lon="8.215386">
<ele>-1.083108</ele>
<time>2026-07-13T14:07:29.000Z</time>
</trkpt>
<trkpt lat="56.701233" lon="8.215321">
<ele>-1.063943</ele>
<time>2026-07-13T14:07:30.000Z</time>
</trkpt>
<trkpt lat="56.701206" lon="8.215266">
<ele>-1.046595</ele>
<time>2026-07-13T14:07:31.000Z</time>
</trkpt>
<trkpt lat="56.701176" lon="8.215200">
<ele>-1.026447</ele>
<time>2026-07-13T14:07:32.000Z</time>
</trkpt>
<trkpt lat="56.701149" lon="8.215137">
<ele>-1.007655</ele>
<time>2026-07-13T14:07:33.000Z</time>
</trkpt>
<trkpt lat="56.701122" lon="8.215070">
<ele>-0.988112</ele>
<time>2026-07-13T14:07:34.000Z</time>
</trkpt>
<trkpt lat="56.701096" lon="8.215009">
<ele>-0.969954</ele>
<time>2026-07-13T14:07:35.000Z</time>
</trkpt>
<trkpt lat="56.701073" lon="8.214951">
<ele>-0.953131</ele>
<time>2026-07-13T14:07:36.000Z</time>
</trkpt>
<trkpt lat="56.701042" lon="8.214890">
<ele>-0.933586</ele>
<time>2026-07-13T14:07:37.000Z</time>
</trkpt>
<trkpt lat="56.701012" lon="8.214828">
<ele>-0.914153</ele>
<time>2026-07-13T14:07:38.000Z</time>
</trkpt>
<trkpt lat="56.700989" lon="8.214779">
<ele>-0.898995</ele>
<time>2026-07-13T14:07:39.000Z</time>
</trkpt>
<trkpt lat="56.700958" lon="8.214707">
<ele>-0.877480</ele>
<time>2026-07-13T14:07:40.000Z</time>
</trkpt>
<trkpt lat="56.700935" lon="8.214661">
<ele>-0.862850</ele>
<time>2026-07-13T14:07:41.000Z</time>
</trkpt>
<trkpt lat="56.700909" lon="8.214602">
<ele>-0.845061</ele>
<time>2026-07-13T14:07:42.000Z</time>
</trkpt>
<trkpt lat="56.700886" lon="8.214554">
<ele>-0.830080</ele>
<time>2026-07-13T14:07:43.000Z</time>
</trkpt>
<trkpt lat="56.700863" lon="8.214505">
<ele>-0.814922</ele>
<time>2026-07-13T14:07:44.000Z</time>
</trkpt>
<trkpt lat="56.700844" lon="8.214466">
<ele>-0.802662</ele>
<time>2026-07-13T14:07:45.000Z</time>
</trkpt>
<trkpt lat="56.700817" lon="8.214439">
<ele>-0.789470</ele>
<time>2026-07-13T14:07:46.000Z</time>
</trkpt>
<trkpt lat="56.700783" lon="8.214423">
<ele>-0.774430</ele>
<time>2026-07-13T14:07:47.000Z</time>
</trkpt>
<trkpt lat="56.700748" lon="8.214417">
<ele>-0.759373</ele>
<time>2026-07-13T14:07:48.000Z</time>
</trkpt>
<trkpt lat="56.700710" lon="8.214416">
<ele>-0.755746</ele>
<time>2026-07-13T14:07:49.000Z</time>
</trkpt>
<trkpt lat="56.700680" lon="8.214424">
<ele>-0.757424</ele>
<time>2026-07-13T14:07:50.000Z</time>
</trkpt>
<trkpt lat="56.700642" lon="8.214437">
<ele>-0.759564</ele>
<time>2026-07-13T14:07:51.000Z</time>
</trkpt>
<trkpt lat="56.700596" lon="8.214455">
<ele>-0.762168</ele>
<time>2026-07-13T14:07:52.000Z</time>
</trkpt>
<trkpt lat="56.700554" lon="8.214473">
<ele>-0.764557</ele>
<time>2026-07-13T14:07:53.000Z</time>
</trkpt>
<trkpt lat="56.700512" lon="8.214493">
<ele>-0.766959</ele>
<time>2026-07-13T14:07:54.000Z</time>
</trkpt>
<trkpt lat="56.700470" lon="8.214516">
<ele>-0.769387</ele>
<time>2026-07-13T14:07:55.000Z</time>
</trkpt>
<trkpt lat="56.700432" lon="8.214539">
<ele>-0.771603</ele>
<time>2026-07-13T14:07:56.000Z</time>
</trkpt>
<trkpt lat="56.700394" lon="8.214554">
<ele>-0.773755</ele>
<time>2026-07-13T14:07:57.000Z</time>
</trkpt>
<trkpt lat="56.700352" lon="8.214565">
<ele>-0.776104</ele>
<time>2026-07-13T14:07:58.000Z</time>
</trkpt>
<trkpt lat="56.700306" lon="8.214584">
<ele>-0.778714</ele>
<time>2026-07-13T14:07:59.000Z</time>
</trkpt>
<trkpt lat="56.700264" lon="8.214607">
<ele>-0.781142</ele>
<time>2026-07-13T14:08:00.000Z</time>
</trkpt>
<trkpt lat="56.700230" lon="8.214631">
<ele>-0.783160</ele>
<time>2026-07-13T14:08:01.000Z</time>
</trkpt>
<trkpt lat="56.700184" lon="8.214659">
<ele>-0.785845</ele>
<time>2026-07-13T14:08:02.000Z</time>
</trkpt>
<trkpt lat="56.700119" lon="8.214696">
<ele>-0.789614</ele>
<time>2026-07-13T14:08:03.000Z</time>
</trkpt>
<trkpt lat="56.700039" lon="8.214744">
<ele>-0.794276</ele>
<time>2026-07-13T14:08:04.000Z</time>
</trkpt>
<trkpt lat="56.699993" lon="8.214771">
<ele>-0.796951</ele>
<time>2026-07-13T14:08:05.000Z</time>
</trkpt>
<trkpt lat="56.699947" lon="8.214795">
<ele>-0.799599</ele>
<time>2026-07-13T14:08:06.000Z</time>
</trkpt>
<trkpt lat="56.699890" lon="8.214827">
<ele>-0.802901</ele>
<time>2026-07-13T14:08:07.000Z</time>
</trkpt>
<trkpt lat="56.699848" lon="8.214850">
<ele>-0.805328</ele>
<time>2026-07-13T14:08:08.000Z</time>
</trkpt>
<trkpt lat="56.699795" lon="8.214872">
<ele>-0.808337</ele>
<time>2026-07-13T14:08:09.000Z</time>
</trkpt>
<trkpt lat="56.699749" lon="8.214890">
<ele>-0.810941</ele>
<time>2026-07-13T14:08:10.000Z</time>
</trkpt>
<trkpt lat="56.699692" lon="8.214912">
<ele>-0.814166</ele>
<time>2026-07-13T14:08:11.000Z</time>
</trkpt>
<trkpt lat="56.699650" lon="8.214933">
<ele>-0.816576</ele>
<time>2026-07-13T14:08:12.000Z</time>
</trkpt>
<trkpt lat="56.699604" lon="8.214959">
<ele>-0.819242</ele>
<time>2026-07-13T14:08:13.000Z</time>
</trkpt>
<trkpt lat="56.699547" lon="8.214998">
<ele>-0.822612</ele>
<time>2026-07-13T14:08:14.000Z</time>
</trkpt>
<trkpt lat="56.699501" lon="8.215029">
<ele>-0.825327</ele>
<time>2026-07-13T14:08:15.000Z</time>
</trkpt>
<trkpt lat="56.699455" lon="8.215055">
<ele>-0.827993</ele>
<time>2026-07-13T14:08:16.000Z</time>
</trkpt>
<trkpt lat="56.699383" lon="8.215094">
<ele>-0.832150</ele>
<time>2026-07-13T14:08:17.000Z</time>
</trkpt>
<trkpt lat="56.699303" lon="8.215139">
<ele>-0.836785</ele>
<time>2026-07-13T14:08:18.000Z</time>
</trkpt>
<trkpt lat="56.699253" lon="8.215166">
<ele>-0.839671</ele>
<time>2026-07-13T14:08:19.000Z</time>
</trkpt>
<trkpt lat="56.699207" lon="8.215190">
<ele>-0.842320</ele>
<time>2026-07-13T14:08:20.000Z</time>
</trkpt>
<trkpt lat="56.699162" lon="8.215213">
<ele>-0.844907</ele>
<time>2026-07-13T14:08:21.000Z</time>
</trkpt>
<trkpt lat="56.699112" lon="8.215237">
<ele>-0.847768</ele>
<time>2026-07-13T14:08:22.000Z</time>
</trkpt>
<trkpt lat="56.699070" lon="8.215259">
<ele>-0.850187</ele>
<time>2026-07-13T14:08:23.000Z</time>
</trkpt>
<trkpt lat="56.699024" lon="8.215281">
<ele>-0.852820</ele>
<time>2026-07-13T14:08:24.000Z</time>
</trkpt>
<trkpt lat="56.698971" lon="8.215309">
<ele>-0.856625</ele>
<time>2026-07-13T14:08:25.000Z</time>
</trkpt>
<trkpt lat="56.698921" lon="8.215334">
<ele>-0.860559</ele>
<time>2026-07-13T14:08:26.000Z</time>
</trkpt>
<trkpt lat="56.698875" lon="8.215359">
<ele>-0.864202</ele>
<time>2026-07-13T14:08:27.000Z</time>
</trkpt>
<trkpt lat="56.698830" lon="8.215382">
<ele>-0.867749</ele>
<time>2026-07-13T14:08:28.000Z</time>
</trkpt>
<trkpt lat="56.698784" lon="8.215408">
<ele>-0.871404</ele>
<time>2026-07-13T14:08:29.000Z</time>
</trkpt>
<trkpt lat="56.698685" lon="8.215463">
<ele>-0.879258</ele>
<time>2026-07-13T14:08:30.000Z</time>
</trkpt>
<trkpt lat="56.698639" lon="8.215488">
<ele>-0.882901</ele>
<time>2026-07-13T14:08:31.000Z</time>
</trkpt>
<trkpt lat="56.698589" lon="8.215517">
<ele>-0.886883</ele>
<time>2026-07-13T14:08:32.000Z</time>
</trkpt>
<trkpt lat="56.698536" lon="8.215545">
<ele>-0.891070</ele>
<time>2026-07-13T14:08:33.000Z</time>
</trkpt>
<trkpt lat="56.698486" lon="8.215570">
<ele>-0.895005</ele>
<time>2026-07-13T14:08:34.000Z</time>
</trkpt>
<trkpt lat="56.698429" lon="8.215599">
<ele>-0.899496</ele>
<time>2026-07-13T14:08:35.000Z</time>
</trkpt>
<trkpt lat="56.698391" lon="8.215623">
<ele>-0.902548</ele>
<time>2026-07-13T14:08:36.000Z</time>
</trkpt>
<trkpt lat="56.698338" lon="8.215651">
<ele>-0.906736</ele>
<time>2026-07-13T14:08:37.000Z</time>
</trkpt>
<trkpt lat="56.698288" lon="8.215678">
<ele>-0.910693</ele>
<time>2026-07-13T14:08:38.000Z</time>
</trkpt>
<trkpt lat="56.698242" lon="8.215706">
<ele>-0.914373</ele>
<time>2026-07-13T14:08:39.000Z</time>
</trkpt>
<trkpt lat="56.698185" lon="8.215738">
<ele>-0.918900</ele>
<time>2026-07-13T14:08:40.000Z</time>
</trkpt>
<trkpt lat="56.698135" lon="8.215764">
<ele>-0.922845</ele>
<time>2026-07-13T14:08:41.000Z</time>
</trkpt>
<trkpt lat="56.698093" lon="8.215788">
<ele>-0.926186</ele>
<time>2026-07-13T14:08:42.000Z</time>
</trkpt>
<trkpt lat="56.698040" lon="8.215817">
<ele>-0.930385</ele>
<time>2026-07-13T14:08:43.000Z</time>
</trkpt>
<trkpt lat="56.697987" lon="8.215848">
<ele>-0.934609</ele>
<time>2026-07-13T14:08:44.000Z</time>
</trkpt>
<trkpt lat="56.697937" lon="8.215876">
<ele>-0.938579</ele>
<time>2026-07-13T14:08:45.000Z</time>
</trkpt>
<trkpt lat="56.697895" lon="8.215901">
<ele>-0.941932</ele>
<time>2026-07-13T14:08:46.000Z</time>
</trkpt>
<trkpt lat="56.697830" lon="8.215937">
<ele>-0.947087</ele>
<time>2026-07-13T14:08:47.000Z</time>
</trkpt>
<trkpt lat="56.697742" lon="8.215984">
<ele>-0.954046</ele>
<time>2026-07-13T14:08:48.000Z</time>
</trkpt>
<trkpt lat="56.697693" lon="8.216008">
<ele>-0.957897</ele>
<time>2026-07-13T14:08:49.000Z</time>
</trkpt>
<trkpt lat="56.697647" lon="8.216032">
<ele>-0.961528</ele>
<time>2026-07-13T14:08:50.000Z</time>
</trkpt>
<trkpt lat="56.697601" lon="8.216059">
<ele>-0.965195</ele>
<time>2026-07-13T14:08:51.000Z</time>
</trkpt>
<trkpt lat="56.697552" lon="8.216086">
<ele>-0.969080</ele>
<time>2026-07-13T14:08:52.000Z</time>
</trkpt>
<trkpt lat="56.697506" lon="8.216112">
<ele>-0.972735</ele>
<time>2026-07-13T14:08:53.000Z</time>
</trkpt>
<trkpt lat="56.697453" lon="8.216138">
<ele>-0.976900</ele>
<time>2026-07-13T14:08:54.000Z</time>
</trkpt>
<trkpt lat="56.697403" lon="8.216163">
<ele>-0.980835</ele>
<time>2026-07-13T14:08:55.000Z</time>
</trkpt>
<trkpt lat="56.697353" lon="8.216184">
<ele>-0.984729</ele>
<time>2026-07-13T14:08:56.000Z</time>
</trkpt>
<trkpt lat="56.697308" lon="8.216205">
<ele>-0.988254</ele>
<time>2026-07-13T14:08:57.000Z</time>
</trkpt>
<trkpt lat="56.697254" lon="8.216229">
<ele>-0.995310</ele>
<time>2026-07-13T14:08:58.000Z</time>
</trkpt>
<trkpt lat="56.697201" lon="8.216257">
<ele>-1.005073</ele>
<time>2026-07-13T14:08:59.000Z</time>
</trkpt>
<trkpt lat="56.697159" lon="8.216282">
<ele>-1.012889</ele>
<time>2026-07-13T14:09:00.000Z</time>
</trkpt>
<trkpt lat="56.697113" lon="8.216311">
<ele>-1.021501</ele>
<time>2026-07-13T14:09:01.000Z</time>
</trkpt>
<trkpt lat="56.697063" lon="8.216338">
<ele>-1.030727</ele>
<time>2026-07-13T14:09:02.000Z</time>
</trkpt>
<trkpt lat="56.697010" lon="8.216366">
<ele>-1.040489</ele>
<time>2026-07-13T14:09:03.000Z</time>
</trkpt>
<trkpt lat="56.696964" lon="8.216390">
<ele>-1.048954</ele>
<time>2026-07-13T14:09:04.000Z</time>
</trkpt>
<trkpt lat="56.696926" lon="8.216413">
<ele>-1.056038</ele>
<time>2026-07-13T14:09:05.000Z</time>
</trkpt>
<trkpt lat="56.696884" lon="8.216439">
<ele>-1.063886</ele>
<time>2026-07-13T14:09:06.000Z</time>
</trkpt>
<trkpt lat="56.696789" lon="8.216496">
<ele>-1.081580</ele>
<time>2026-07-13T14:09:07.000Z</time>
</trkpt>
<trkpt lat="56.696751" lon="8.216513">
<ele>-1.088503</ele>
<time>2026-07-13T14:09:08.000Z</time>
</trkpt>
<trkpt lat="56.696674" lon="8.216550">
<ele>-1.102591</ele>
<time>2026-07-13T14:09:09.000Z</time>
</trkpt>
<trkpt lat="56.696621" lon="8.216577">
<ele>-1.112327</ele>
<time>2026-07-13T14:09:10.000Z</time>
</trkpt>
<trkpt lat="56.696568" lon="8.216604">
<ele>-1.122063</ele>
<time>2026-07-13T14:09:11.000Z</time>
</trkpt>
<trkpt lat="56.696514" lon="8.216633">
<ele>-1.132022</ele>
<time>2026-07-13T14:09:12.000Z</time>
</trkpt>
<trkpt lat="56.696461" lon="8.216662">
<ele>-1.141812</ele>
<time>2026-07-13T14:09:13.000Z</time>
</trkpt>
<trkpt lat="56.696407" lon="8.216691">
<ele>-1.151772</ele>
<time>2026-07-13T14:09:14.000Z</time>
</trkpt>
<trkpt lat="56.696358" lon="8.216720">
<ele>-1.160886</ele>
<time>2026-07-13T14:09:15.000Z</time>
</trkpt>
<trkpt lat="56.696300" lon="8.216748">
<ele>-1.171501</ele>
<time>2026-07-13T14:09:16.000Z</time>
</trkpt>
<trkpt lat="56.696247" lon="8.216776">
<ele>-1.181264</ele>
<time>2026-07-13T14:09:17.000Z</time>
</trkpt>
<trkpt lat="56.696198" lon="8.216804">
<ele>-1.190349</ele>
<time>2026-07-13T14:09:18.000Z</time>
</trkpt>
<trkpt lat="56.696144" lon="8.216831">
<ele>-1.200255</ele>
<time>2026-07-13T14:09:19.000Z</time>
</trkpt>
<trkpt lat="56.696087" lon="8.216863">
<ele>-1.210807</ele>
<time>2026-07-13T14:09:20.000Z</time>
</trkpt>
<trkpt lat="56.696037" lon="8.216892">
<ele>-1.220090</ele>
<time>2026-07-13T14:09:21.000Z</time>
</trkpt>
<trkpt lat="56.695988" lon="8.216923">
<ele>-1.229267</ele>
<time>2026-07-13T14:09:22.000Z</time>
</trkpt>
<trkpt lat="56.695934" lon="8.216954">
<ele>-1.239283</ele>
<time>2026-07-13T14:09:23.000Z</time>
</trkpt>
<trkpt lat="56.695881" lon="8.216986">
<ele>-1.249161</ele>
<time>2026-07-13T14:09:24.000Z</time>
</trkpt>
<trkpt lat="56.695831" lon="8.217015">
<ele>-1.258444</ele>
<time>2026-07-13T14:09:25.000Z</time>
</trkpt>
<trkpt lat="56.695782" lon="8.217039">
<ele>-1.267420</ele>
<time>2026-07-13T14:09:26.000Z</time>
</trkpt>
<trkpt lat="56.695732" lon="8.217060">
<ele>-1.276498</ele>
<time>2026-07-13T14:09:27.000Z</time>
</trkpt>
<trkpt lat="56.695683" lon="8.217076">
<ele>-1.285305</ele>
<time>2026-07-13T14:09:28.000Z</time>
</trkpt>
<trkpt lat="56.695637" lon="8.217083">
<ele>-1.293471</ele>
<time>2026-07-13T14:09:29.000Z</time>
</trkpt>
<trkpt lat="56.695587" lon="8.217072">
<ele>-1.302380</ele>
<time>2026-07-13T14:09:30.000Z</time>
</trkpt>
<trkpt lat="56.695545" lon="8.217043">
<ele>-1.314475</ele>
<time>2026-07-13T14:09:31.000Z</time>
</trkpt>
<trkpt lat="56.695507" lon="8.216992">
<ele>-1.342126</ele>
<time>2026-07-13T14:09:32.000Z</time>
</trkpt>
<trkpt lat="56.695477" lon="8.216925">
<ele>-1.369932</ele>
<time>2026-07-13T14:09:33.000Z</time>
</trkpt>
<trkpt lat="56.695450" lon="8.216847">
<ele>-1.399590</ele>
<time>2026-07-13T14:09:34.000Z</time>
</trkpt>
<trkpt lat="56.695431" lon="8.216763">
<ele>-1.428810</ele>
<time>2026-07-13T14:09:35.000Z</time>
</trkpt>
<trkpt lat="56.695416" lon="8.216671">
<ele>-1.459678</ele>
<time>2026-07-13T14:09:36.000Z</time>
</trkpt>
<trkpt lat="56.695396" lon="8.216572">
<ele>-1.493607</ele>
<time>2026-07-13T14:09:37.000Z</time>
</trkpt>
<trkpt lat="56.695377" lon="8.216473">
<ele>-1.527339</ele>
<time>2026-07-13T14:09:38.000Z</time>
</trkpt>
<trkpt lat="56.695362" lon="8.216374">
<ele>-1.560372</ele>
<time>2026-07-13T14:09:39.000Z</time>
</trkpt>
<trkpt lat="56.695347" lon="8.216275">
<ele>-1.593404</ele>
<time>2026-07-13T14:09:40.000Z</time>
</trkpt>
<trkpt lat="56.695332" lon="8.216179">
<ele>-1.625508</ele>
<time>2026-07-13T14:09:41.000Z</time>
</trkpt>
<trkpt lat="56.695316" lon="8.216084">
<ele>-1.657469</ele>
<time>2026-07-13T14:09:42.000Z</time>
</trkpt>
<trkpt lat="56.695301" lon="8.215998">
<ele>-1.686492</ele>
<time>2026-07-13T14:09:43.000Z</time>
</trkpt>
<trkpt lat="56.695290" lon="8.215916">
<ele>-1.713642</ele>
<time>2026-07-13T14:09:44.000Z</time>
</trkpt>
<trkpt lat="56.695274" lon="8.215839">
<ele>-1.740123</ele>
<time>2026-07-13T14:09:45.000Z</time>
</trkpt>
<trkpt lat="56.695263" lon="8.215757">
<ele>-1.767273</ele>
<time>2026-07-13T14:09:46.000Z</time>
</trkpt>
<trkpt lat="56.695244" lon="8.215693">
<ele>-1.790675</ele>
<time>2026-07-13T14:09:47.000Z</time>
</trkpt>
<trkpt lat="56.695221" lon="8.215651">
<ele>-1.809754</ele>
<time>2026-07-13T14:09:48.000Z</time>
</trkpt>
<trkpt lat="56.695187" lon="8.215635">
<ele>-1.830324</ele>
<time>2026-07-13T14:09:49.000Z</time>
</trkpt>
<trkpt lat="56.695152" lon="8.215644">
<ele>-1.851029</ele>
<time>2026-07-13T14:09:50.000Z</time>
</trkpt>
<trkpt lat="56.695118" lon="8.215667">
<ele>-1.872275</ele>
<time>2026-07-13T14:09:51.000Z</time>
</trkpt>
<trkpt lat="56.695087" lon="8.215688">
<ele>-1.891650</ele>
<time>2026-07-13T14:09:52.000Z</time>
</trkpt>
<trkpt lat="56.695057" lon="8.215707">
<ele>-1.910255</ele>
<time>2026-07-13T14:09:53.000Z</time>
</trkpt>
<trkpt lat="56.695026" lon="8.215721">
<ele>-1.928964</ele>
<time>2026-07-13T14:09:54.000Z</time>
</trkpt>
<trkpt lat="56.694988" lon="8.215737">
<ele>-1.951811</ele>
<time>2026-07-13T14:09:55.000Z</time>
</trkpt>
<trkpt lat="56.694954" lon="8.215751">
<ele>-1.972230</ele>
<time>2026-07-13T14:09:56.000Z</time>
</trkpt>
<trkpt lat="56.694923" lon="8.215765">
<ele>-1.990939</ele>
<time>2026-07-13T14:09:57.000Z</time>
</trkpt>
<trkpt lat="56.694901" lon="8.215776">
<ele>-2.004303</ele>
<time>2026-07-13T14:09:58.000Z</time>
</trkpt>
<trkpt lat="56.694878" lon="8.215782">
<ele>-2.017913</ele>
<time>2026-07-13T14:09:59.000Z</time>
</trkpt>
<trkpt lat="56.694866" lon="8.215785">
<ele>-2.025008</ele>
<time>2026-07-13T14:10:00.000Z</time>
</trkpt>
<trkpt lat="56.694843" lon="8.215795">
<ele>-2.038859</ele>
<time>2026-07-13T14:10:41.000Z</time>
</trkpt>
<trkpt lat="56.694824" lon="8.215810">
<ele>-2.050990</ele>
<time>2026-07-13T14:10:42.000Z</time>
</trkpt>
<trkpt lat="56.694798" lon="8.215830">
<ele>-2.067523</ele>
<time>2026-07-13T14:10:43.000Z</time>
</trkpt>
<trkpt lat="56.694767" lon="8.215850">
<ele>-2.086788</ele>
<time>2026-07-13T14:10:44.000Z</time>
</trkpt>
<trkpt lat="56.694729" lon="8.215868">
<ele>-2.109787</ele>
<time>2026-07-13T14:10:45.000Z</time>
</trkpt>
<trkpt lat="56.694687" lon="8.215889">
<ele>-2.135300</ele>
<time>2026-07-13T14:10:46.000Z</time>
</trkpt>
<trkpt lat="56.694649" lon="8.215912">
<ele>-2.158757</ele>
<time>2026-07-13T14:10:47.000Z</time>
</trkpt>
<trkpt lat="56.694607" lon="8.215936">
<ele>-2.184542</ele>
<time>2026-07-13T14:10:48.000Z</time>
</trkpt>
<trkpt lat="56.694561" lon="8.215961">
<ele>-2.212662</ele>
<time>2026-07-13T14:10:49.000Z</time>
</trkpt>
<trkpt lat="56.694511" lon="8.215985">
<ele>-2.242951</ele>
<time>2026-07-13T14:10:50.000Z</time>
</trkpt>
<trkpt lat="56.694462" lon="8.216012">
<ele>-2.272939</ele>
<time>2026-07-13T14:10:51.000Z</time>
</trkpt>
<trkpt lat="56.694416" lon="8.216039">
<ele>-2.301249</ele>
<time>2026-07-13T14:10:52.000Z</time>
</trkpt>
<trkpt lat="56.694363" lon="8.216065">
<ele>-2.333402</ele>
<time>2026-07-13T14:10:53.000Z</time>
</trkpt>
<trkpt lat="56.694313" lon="8.216095">
<ele>-2.362418</ele>
<time>2026-07-13T14:10:54.000Z</time>
</trkpt>
<trkpt lat="56.694263" lon="8.216125">
<ele>-2.366662</ele>
<time>2026-07-13T14:10:55.000Z</time>
</trkpt>
<trkpt lat="56.694210" lon="8.216155">
<ele>-2.371136</ele>
<time>2026-07-13T14:10:56.000Z</time>
</trkpt>
<trkpt lat="56.694160" lon="8.216184">
<ele>-2.375366</ele>
<time>2026-07-13T14:10:57.000Z</time>
</trkpt>
<trkpt lat="56.694103" lon="8.216212">
<ele>-2.380126</ele>
<time>2026-07-13T14:10:58.000Z</time>
</trkpt>
<trkpt lat="56.694054" lon="8.216240">
<ele>-2.384266</ele>
<time>2026-07-13T14:10:59.000Z</time>
</trkpt>
<trkpt lat="56.694004" lon="8.216269">
<ele>-2.388496</ele>
<time>2026-07-13T14:11:00.000Z</time>
</trkpt>
<trkpt lat="56.693947" lon="8.216300">
<ele>-2.393292</ele>
<time>2026-07-13T14:11:01.000Z</time>
</trkpt>
<trkpt lat="56.693890" lon="8.216330">
<ele>-2.398075</ele>
<time>2026-07-13T14:11:02.000Z</time>
</trkpt>
<trkpt lat="56.693836" lon="8.216362">
<ele>-2.402653</ele>
<time>2026-07-13T14:11:03.000Z</time>
</trkpt>
<trkpt lat="56.693787" lon="8.216394">
<ele>-2.406849</ele>
<time>2026-07-13T14:11:04.000Z</time>
</trkpt>
<trkpt lat="56.693733" lon="8.216425">
<ele>-2.411414</ele>
<time>2026-07-13T14:11:05.000Z</time>
</trkpt>
<trkpt lat="56.693680" lon="8.216455">
<ele>-2.415888</ele>
<time>2026-07-13T14:11:06.000Z</time>
</trkpt>
<trkpt lat="56.693630" lon="8.216483">
<ele>-2.420105</ele>
<time>2026-07-13T14:11:07.000Z</time>
</trkpt>
<trkpt lat="56.693577" lon="8.216510">
<ele>-2.424542</ele>
<time>2026-07-13T14:11:08.000Z</time>
</trkpt>
<trkpt lat="56.693523" lon="8.216538">
<ele>-2.429068</ele>
<time>2026-07-13T14:11:09.000Z</time>
</trkpt>
<trkpt lat="56.693466" lon="8.216567">
<ele>-2.433839</ele>
<time>2026-07-13T14:11:10.000Z</time>
</trkpt>
<trkpt lat="56.693409" lon="8.216597">
<ele>-2.438623</ele>
<time>2026-07-13T14:11:11.000Z</time>
</trkpt>
<trkpt lat="56.693352" lon="8.216626">
<ele>-2.443394</ele>
<time>2026-07-13T14:11:12.000Z</time>
</trkpt>
<trkpt lat="56.693298" lon="8.216658">
<ele>-2.447972</ele>
<time>2026-07-13T14:11:13.000Z</time>
</trkpt>
<trkpt lat="56.693249" lon="8.216687">
<ele>-2.452125</ele>
<time>2026-07-13T14:11:14.000Z</time>
</trkpt>
<trkpt lat="56.693192" lon="8.216719">
<ele>-2.456934</ele>
<time>2026-07-13T14:11:15.000Z</time>
</trkpt>
<trkpt lat="56.693138" lon="8.216746">
<ele>-2.461448</ele>
<time>2026-07-13T14:11:16.000Z</time>
</trkpt>
<trkpt lat="56.693081" lon="8.216774">
<ele>-2.466208</ele>
<time>2026-07-13T14:11:17.000Z</time>
</trkpt>
<trkpt lat="56.693028" lon="8.216804">
<ele>-2.470682</ele>
<time>2026-07-13T14:11:18.000Z</time>
</trkpt>
<trkpt lat="56.692978" lon="8.216832">
<ele>-2.474899</ele>
<time>2026-07-13T14:11:19.000Z</time>
</trkpt>
<trkpt lat="56.692936" lon="8.216857">
<ele>-2.478461</ele>
<time>2026-07-13T14:11:20.000Z</time>
</trkpt>
<trkpt lat="56.692860" lon="8.216897">
<ele>-2.484839</ele>
<time>2026-07-13T14:11:21.000Z</time>
</trkpt>
<trkpt lat="56.692806" lon="8.216928">
<ele>-2.489403</ele>
<time>2026-07-13T14:11:22.000Z</time>
</trkpt>
<trkpt lat="56.692749" lon="8.216958">
<ele>-2.494187</ele>
<time>2026-07-13T14:11:23.000Z</time>
</trkpt>
<trkpt lat="56.692692" lon="8.216987">
<ele>-2.498958</ele>
<time>2026-07-13T14:11:24.000Z</time>
</trkpt>
<trkpt lat="56.692635" lon="8.217016">
<ele>-2.503729</ele>
<time>2026-07-13T14:11:25.000Z</time>
</trkpt>
<trkpt lat="56.692581" lon="8.217045">
<ele>-2.507690</ele>
<time>2026-07-13T14:11:26.000Z</time>
</trkpt>
<trkpt lat="56.692524" lon="8.217073">
<ele>-2.510041</ele>
<time>2026-07-13T14:11:27.000Z</time>
</trkpt>
<trkpt lat="56.692471" lon="8.217100">
<ele>-2.512232</ele>
<time>2026-07-13T14:11:28.000Z</time>
</trkpt>
<trkpt lat="56.692417" lon="8.217128">
<ele>-2.514467</ele>
<time>2026-07-13T14:11:29.000Z</time>
</trkpt>
<trkpt lat="56.692364" lon="8.217156">
<ele>-2.516664</ele>
<time>2026-07-13T14:11:30.000Z</time>
</trkpt>
<trkpt lat="56.692310" lon="8.217185">
<ele>-2.518906</ele>
<time>2026-07-13T14:11:31.000Z</time>
</trkpt>
<trkpt lat="56.692257" lon="8.217212">
<ele>-2.521097</ele>
<time>2026-07-13T14:11:32.000Z</time>
</trkpt>
<trkpt lat="56.692204" lon="8.217240">
<ele>-2.523294</ele>
<time>2026-07-13T14:11:33.000Z</time>
</trkpt>
<trkpt lat="56.692150" lon="8.217268">
<ele>-2.525529</ele>
<time>2026-07-13T14:11:34.000Z</time>
</trkpt>
<trkpt lat="56.692097" lon="8.217298">
<ele>-2.527739</ele>
<time>2026-07-13T14:11:35.000Z</time>
</trkpt>
<trkpt lat="56.692040" lon="8.217327">
<ele>-2.530095</ele>
<time>2026-07-13T14:11:36.000Z</time>
</trkpt>
<trkpt lat="56.691982" lon="8.217356">
<ele>-2.532490</ele>
<time>2026-07-13T14:11:37.000Z</time>
</trkpt>
<trkpt lat="56.691925" lon="8.217387">
<ele>-2.534858</ele>
<time>2026-07-13T14:11:38.000Z</time>
</trkpt>
<trkpt lat="56.691872" lon="8.217418">
<ele>-2.537075</ele>
<time>2026-07-13T14:11:39.000Z</time>
</trkpt>
<trkpt lat="56.691814" lon="8.217445">
<ele>-2.539458</ele>
<time>2026-07-13T14:11:40.000Z</time>
</trkpt>
<trkpt lat="56.691765" lon="8.217472">
<ele>-2.541496</ele>
<time>2026-07-13T14:11:41.000Z</time>
</trkpt>
<trkpt lat="56.691708" lon="8.217501">
<ele>-2.543852</ele>
<time>2026-07-13T14:11:42.000Z</time>
</trkpt>
<trkpt lat="56.691654" lon="8.217528">
<ele>-2.546082</ele>
<time>2026-07-13T14:11:43.000Z</time>
</trkpt>
<trkpt lat="56.691601" lon="8.217555">
<ele>-2.548273</ele>
<time>2026-07-13T14:11:44.000Z</time>
</trkpt>
<trkpt lat="56.691547" lon="8.217582">
<ele>-2.550502</ele>
<time>2026-07-13T14:11:45.000Z</time>
</trkpt>
<trkpt lat="56.691494" lon="8.217611">
<ele>-2.552706</ele>
<time>2026-07-13T14:11:46.000Z</time>
</trkpt>
<trkpt lat="56.691441" lon="8.217641">
<ele>-2.554915</ele>
<time>2026-07-13T14:11:47.000Z</time>
</trkpt>
<trkpt lat="56.691387" lon="8.217670">
<ele>-2.557157</ele>
<time>2026-07-13T14:11:48.000Z</time>
</trkpt>
<trkpt lat="56.691334" lon="8.217700">
<ele>-2.559367</ele>
<time>2026-07-13T14:11:49.000Z</time>
</trkpt>
<trkpt lat="56.691280" lon="8.217729">
<ele>-2.561608</ele>
<time>2026-07-13T14:11:50.000Z</time>
</trkpt>
<trkpt lat="56.691227" lon="8.217757">
<ele>-2.563805</ele>
<time>2026-07-13T14:11:51.000Z</time>
</trkpt>
<trkpt lat="56.691170" lon="8.217789">
<ele>-2.566180</ele>
<time>2026-07-13T14:11:52.000Z</time>
</trkpt>
<trkpt lat="56.691120" lon="8.217815">
<ele>-2.568250</ele>
<time>2026-07-13T14:11:53.000Z</time>
</trkpt>
<trkpt lat="56.691071" lon="8.217841">
<ele>-2.570282</ele>
<time>2026-07-13T14:11:54.000Z</time>
</trkpt>
<trkpt lat="56.691025" lon="8.217862">
<ele>-2.572170</ele>
<time>2026-07-13T14:11:55.000Z</time>
</trkpt>
<trkpt lat="56.690960" lon="8.217898">
<ele>-2.574875</ele>
<time>2026-07-13T14:11:56.000Z</time>
</trkpt>
<trkpt lat="56.690910" lon="8.217925">
<ele>-2.576951</ele>
<time>2026-07-13T14:11:57.000Z</time>
</trkpt>
<trkpt lat="56.690853" lon="8.217959">
<ele>-2.577356</ele>
<time>2026-07-13T14:11:58.000Z</time>
</trkpt>
<trkpt lat="56.690800" lon="8.217989">
<ele>-2.572290</ele>
<time>2026-07-13T14:11:59.000Z</time>
</trkpt>
<trkpt lat="56.690746" lon="8.218020">
<ele>-2.567122</ele>
<time>2026-07-13T14:12:00.000Z</time>
</trkpt>
<trkpt lat="56.690693" lon="8.218048">
<ele>-2.562085</ele>
<time>2026-07-13T14:12:01.000Z</time>
</trkpt>
<trkpt lat="56.690636" lon="8.218076">
<ele>-2.556696</ele>
<time>2026-07-13T14:12:02.000Z</time>
</trkpt>
<trkpt lat="56.690586" lon="8.218104">
<ele>-2.551922</ele>
<time>2026-07-13T14:12:03.000Z</time>
</trkpt>
<trkpt lat="56.690533" lon="8.218133">
<ele>-2.546871</ele>
<time>2026-07-13T14:12:04.000Z</time>
</trkpt>
<trkpt lat="56.690479" lon="8.218161">
<ele>-2.541746</ele>
<time>2026-07-13T14:12:05.000Z</time>
</trkpt>
<trkpt lat="56.690426" lon="8.218190">
<ele>-2.536695</ele>
<time>2026-07-13T14:12:06.000Z</time>
</trkpt>
<trkpt lat="56.690376" lon="8.218220">
<ele>-2.531890</ele>
<time>2026-07-13T14:12:07.000Z</time>
</trkpt>
<trkpt lat="56.690323" lon="8.218250">
<ele>-2.526824</ele>
<time>2026-07-13T14:12:08.000Z</time>
</trkpt>
<trkpt lat="56.690269" lon="8.218278">
<ele>-2.521700</ele>
<time>2026-07-13T14:12:09.000Z</time>
</trkpt>
<trkpt lat="56.690216" lon="8.218307">
<ele>-2.516649</ele>
<time>2026-07-13T14:12:10.000Z</time>
</trkpt>
<trkpt lat="56.690163" lon="8.218335">
<ele>-2.511612</ele>
<time>2026-07-13T14:12:11.000Z</time>
</trkpt>
<trkpt lat="56.690109" lon="8.218363">
<ele>-2.506487</ele>
<time>2026-07-13T14:12:12.000Z</time>
</trkpt>
<trkpt lat="56.690060" lon="8.218393">
<ele>-2.501769</ele>
<time>2026-07-13T14:12:13.000Z</time>
</trkpt>
<trkpt lat="56.690006" lon="8.218422">
<ele>-2.496630</ele>
<time>2026-07-13T14:12:14.000Z</time>
</trkpt>
<trkpt lat="56.689949" lon="8.218447">
<ele>-2.491279</ele>
<time>2026-07-13T14:12:15.000Z</time>
</trkpt>
<trkpt lat="56.689896" lon="8.218464">
<ele>-2.486367</ele>
<time>2026-07-13T14:12:16.000Z</time>
</trkpt>
<trkpt lat="56.689842" lon="8.218470">
<ele>-2.481429</ele>
<time>2026-07-13T14:12:17.000Z</time>
</trkpt>
<trkpt lat="56.689789" lon="8.218468">
<ele>-2.476590</ele>
<time>2026-07-13T14:12:18.000Z</time>
</trkpt>
<trkpt lat="56.689735" lon="8.218455">
<ele>-2.471619</ele>
<time>2026-07-13T14:12:19.000Z</time>
</trkpt>
<trkpt lat="56.689682" lon="8.218434">
<ele>-2.466668</ele>
<time>2026-07-13T14:12:20.000Z</time>
</trkpt>
<trkpt lat="56.689640" lon="8.218420">
<ele>-2.462771</ele>
<time>2026-07-13T14:12:21.000Z</time>
</trkpt>
<trkpt lat="56.689583" lon="8.218426">
<ele>-2.457560</ele>
<time>2026-07-13T14:12:22.000Z</time>
</trkpt>
<trkpt lat="56.689526" lon="8.218464">
<ele>-2.452019</ele>
<time>2026-07-13T14:12:23.000Z</time>
</trkpt>
<trkpt lat="56.689480" lon="8.218511">
<ele>-2.447205</ele>
<time>2026-07-13T14:12:24.000Z</time>
</trkpt>
<trkpt lat="56.689434" lon="8.218595">
<ele>-2.441259</ele>
<time>2026-07-13T14:12:25.000Z</time>
</trkpt>
<trkpt lat="56.689404" lon="8.218679">
<ele>-2.436236</ele>
<time>2026-07-13T14:12:26.000Z</time>
</trkpt>
<trkpt lat="56.689373" lon="8.218770">
<ele>-2.430869</ele>
<time>2026-07-13T14:12:27.000Z</time>
</trkpt>
<trkpt lat="56.689350" lon="8.218860">
<ele>-2.425893</ele>
<time>2026-07-13T14:12:28.000Z</time>
</trkpt>
<trkpt lat="56.689327" lon="8.218948">
<ele>-2.421008</ele>
<time>2026-07-13T14:12:29.000Z</time>
</trkpt>
<trkpt lat="56.689297" lon="8.219041">
<ele>-2.415602</ele>
<time>2026-07-13T14:12:30.000Z</time>
</trkpt>
<trkpt lat="56.689274" lon="8.219123">
<ele>-2.394259</ele>
<time>2026-07-13T14:12:31.000Z</time>
</trkpt>
<trkpt lat="56.689247" lon="8.219217">
<ele>-2.364121</ele>
<time>2026-07-13T14:12:32.000Z</time>
</trkpt>
<trkpt lat="56.689224" lon="8.219308">
<ele>-2.335661</ele>
<time>2026-07-13T14:12:33.000Z</time>
</trkpt>
<trkpt lat="56.689201" lon="8.219398">
<ele>-2.307459</ele>
<time>2026-07-13T14:12:34.000Z</time>
</trkpt>
<trkpt lat="56.689178" lon="8.219476">
<ele>-2.282306</ele>
<time>2026-07-13T14:12:35.000Z</time>
</trkpt>
<trkpt lat="56.689156" lon="8.219550">
<ele>-2.258400</ele>
<time>2026-07-13T14:12:36.000Z</time>
</trkpt>
<trkpt lat="56.689133" lon="8.219640">
<ele>-2.230198</ele>
<time>2026-07-13T14:12:37.000Z</time>
</trkpt>
<trkpt lat="56.689114" lon="8.219722">
<ele>-2.204913</ele>
<time>2026-07-13T14:12:38.000Z</time>
</trkpt>
<trkpt lat="56.689098" lon="8.219801">
<ele>-2.180991</ele>
<time>2026-07-13T14:12:39.000Z</time>
</trkpt>
<trkpt lat="56.689087" lon="8.219883">
<ele>-2.157009</ele>
<time>2026-07-13T14:12:40.000Z</time>
</trkpt>
<trkpt lat="56.689079" lon="8.219965">
<ele>-2.133348</ele>
<time>2026-07-13T14:12:41.000Z</time>
</trkpt>
<trkpt lat="56.689072" lon="8.220039">
<ele>-2.112015</ele>
<time>2026-07-13T14:12:42.000Z</time>
</trkpt>
<trkpt lat="56.689068" lon="8.220121">
<ele>-2.088626</ele>
<time>2026-07-13T14:12:43.000Z</time>
</trkpt>
<trkpt lat="56.689064" lon="8.220195">
<ele>-2.067501</ele>
<time>2026-07-13T14:12:44.000Z</time>
</trkpt>
<trkpt lat="56.689064" lon="8.220260">
<ele>-2.049034</ele>
<time>2026-07-13T14:12:45.000Z</time>
</trkpt>
<trkpt lat="56.689064" lon="8.220318">
<ele>-2.032556</ele>
<time>2026-07-13T14:12:46.000Z</time>
</trkpt>
<trkpt lat="56.689068" lon="8.220378">
<ele>-2.015385</ele>
<time>2026-07-13T14:12:47.000Z</time>
</trkpt>
<trkpt lat="56.689072" lon="8.220427">
<ele>-2.001311</ele>
<time>2026-07-13T14:12:48.000Z</time>
</trkpt>
<trkpt lat="56.689072" lon="8.220489">
<ele>-1.983696</ele>
<time>2026-07-13T14:12:49.000Z</time>
</trkpt>
<trkpt lat="56.689068" lon="8.220530">
<ele>-1.971865</ele>
<time>2026-07-13T14:12:50.000Z</time>
</trkpt>
<trkpt lat="56.689064" lon="8.220562">
<ele>-1.962542</ele>
<time>2026-07-13T14:12:51.000Z</time>
</trkpt>
<trkpt lat="56.689060" lon="8.220579">
<ele>-1.957287</ele>
<time>2026-07-13T14:12:52.000Z</time>
</trkpt>
<trkpt lat="56.689064" lon="8.220606">
<ele>-1.949342</ele>
<time>2026-07-13T14:12:59.000Z</time>
</trkpt>
<trkpt lat="56.689072" lon="8.220627">
<ele>-1.942081</ele>
<time>2026-07-13T14:13:00.000Z</time>
</trkpt>
<trkpt lat="56.689072" lon="8.220662">
<ele>-1.932137</ele>
<time>2026-07-13T14:13:01.000Z</time>
</trkpt>
<trkpt lat="56.689075" lon="8.220693">
<ele>-1.923194</ele>
<time>2026-07-13T14:13:02.000Z</time>
</trkpt>
<trkpt lat="56.689087" lon="8.220738">
<ele>-1.908982</ele>
<time>2026-07-13T14:13:03.000Z</time>
</trkpt>
<trkpt lat="56.689102" lon="8.220778">
<ele>-1.895221</ele>
<time>2026-07-13T14:13:04.000Z</time>
</trkpt>
<trkpt lat="56.689114" lon="8.220817">
<ele>-1.882521</ele>
<time>2026-07-13T14:13:05.000Z</time>
</trkpt>
<trkpt lat="56.689133" lon="8.220873">
<ele>-1.863820</ele>
<time>2026-07-13T14:13:06.000Z</time>
</trkpt>
<trkpt lat="56.689148" lon="8.220919">
<ele>-1.848621</ele>
<time>2026-07-13T14:13:07.000Z</time>
</trkpt>
<trkpt lat="56.689159" lon="8.220966">
<ele>-1.834106</ele>
<time>2026-07-13T14:13:08.000Z</time>
</trkpt>
<trkpt lat="56.689167" lon="8.221016">
<ele>-1.819310</ele>
<time>2026-07-13T14:13:09.000Z</time>
</trkpt>
<trkpt lat="56.689163" lon="8.221066">
<ele>-1.804955</ele>
<time>2026-07-13T14:13:10.000Z</time>
</trkpt>
<trkpt lat="56.689152" lon="8.221098">
<ele>-1.794230</ele>
<time>2026-07-13T14:13:11.000Z</time>
</trkpt>
<trkpt lat="56.689133" lon="8.221105">
<ele>-1.784201</ele>
<time>2026-07-13T14:13:12.000Z</time>
</trkpt>
<trkpt lat="56.689110" lon="8.221093">
<ele>-1.771824</ele>
<time>2026-07-13T14:13:13.000Z</time>
</trkpt>
<trkpt lat="56.689091" lon="8.221068">
<ele>-1.759697</ele>
<time>2026-07-13T14:13:14.000Z</time>
</trkpt>
<trkpt lat="56.689068" lon="8.221042">
<ele>-1.745692</ele>
<time>2026-07-13T14:13:15.000Z</time>
</trkpt>
<trkpt lat="56.689045" lon="8.221022">
<ele>-1.732507</ele>
<time>2026-07-13T14:13:16.000Z</time>
</trkpt>
<trkpt lat="56.688999" lon="8.221014">
<ele>-1.708602</ele>
<time>2026-07-13T14:13:17.000Z</time>
</trkpt>
<trkpt lat="56.688961" lon="8.221027">
<ele>-1.688599</ele>
<time>2026-07-13T14:13:18.000Z</time>
</trkpt>
<trkpt lat="56.688923" lon="8.221045">
<ele>-1.668287</ele>
<time>2026-07-13T14:13:19.000Z</time>
</trkpt>
<trkpt lat="56.688885" lon="8.221070">
<ele>-1.647385</ele>
<time>2026-07-13T14:13:20.000Z</time>
</trkpt>
<trkpt lat="56.688843" lon="8.221091">
<ele>-1.624853</ele>
<time>2026-07-13T14:13:21.000Z</time>
</trkpt>
<trkpt lat="56.688801" lon="8.221109">
<ele>-1.602532</ele>
<time>2026-07-13T14:13:22.000Z</time>
</trkpt>
<trkpt lat="56.688755" lon="8.221129">
<ele>-1.578066</ele>
<time>2026-07-13T14:13:23.000Z</time>
</trkpt>
<trkpt lat="56.688709" lon="8.221152">
<ele>-1.553388</ele>
<time>2026-07-13T14:13:24.000Z</time>
</trkpt>
<trkpt lat="56.688660" lon="8.221178">
<ele>-1.526985</ele>
<time>2026-07-13T14:13:25.000Z</time>
</trkpt>
<trkpt lat="56.688614" lon="8.221204">
<ele>-1.502068</ele>
<time>2026-07-13T14:13:26.000Z</time>
</trkpt>
<trkpt lat="56.688564" lon="8.221230">
<ele>-1.485753</ele>
<time>2026-07-13T14:13:27.000Z</time>
</trkpt>
<trkpt lat="56.688511" lon="8.221255">
<ele>-1.491030</ele>
<time>2026-07-13T14:13:28.000Z</time>
</trkpt>
<trkpt lat="56.688458" lon="8.221275">
<ele>-1.496248</ele>
<time>2026-07-13T14:13:29.000Z</time>
</trkpt>
<trkpt lat="56.688404" lon="8.221290">
<ele>-1.501513</ele>
<time>2026-07-13T14:13:30.000Z</time>
</trkpt>
<trkpt lat="56.688347" lon="8.221302">
<ele>-1.507044</ele>
<time>2026-07-13T14:13:31.000Z</time>
</trkpt>
<trkpt lat="56.688286" lon="8.221318">
<ele>-1.512984</ele>
<time>2026-07-13T14:13:32.000Z</time>
</trkpt>
<trkpt lat="56.688229" lon="8.221340">
<ele>-1.518600</ele>
<time>2026-07-13T14:13:33.000Z</time>
</trkpt>
<trkpt lat="56.688179" lon="8.221364">
<ele>-1.523584</ele>
<time>2026-07-13T14:13:34.000Z</time>
</trkpt>
<trkpt lat="56.688122" lon="8.221389">
<ele>-1.529236</ele>
<time>2026-07-13T14:13:35.000Z</time>
</trkpt>
<trkpt lat="56.688068" lon="8.221413">
<ele>-1.534593</ele>
<time>2026-07-13T14:13:36.000Z</time>
</trkpt>
<trkpt lat="56.688015" lon="8.221436">
<ele>-1.539845</ele>
<time>2026-07-13T14:13:37.000Z</time>
</trkpt>
<trkpt lat="56.687954" lon="8.221461">
<ele>-1.545872</ele>
<time>2026-07-13T14:13:38.000Z</time>
</trkpt>
<trkpt lat="56.687897" lon="8.221487">
<ele>-1.551536</ele>
<time>2026-07-13T14:13:39.000Z</time>
</trkpt>
<trkpt lat="56.687840" lon="8.221512">
<ele>-1.557187</ele>
<time>2026-07-13T14:13:40.000Z</time>
</trkpt>
<trkpt lat="56.687782" lon="8.221538">
<ele>-1.562945</ele>
<time>2026-07-13T14:13:41.000Z</time>
</trkpt>
<trkpt lat="56.687725" lon="8.221567">
<ele>-1.568649</ele>
<time>2026-07-13T14:13:42.000Z</time>
</trkpt>
<trkpt lat="56.687668" lon="8.221598">
<ele>-1.574383</ele>
<time>2026-07-13T14:13:43.000Z</time>
</trkpt>
<trkpt lat="56.687611" lon="8.221625">
<ele>-1.580060</ele>
<time>2026-07-13T14:13:44.000Z</time>
</trkpt>
<trkpt lat="56.687553" lon="8.221652">
<ele>-1.585831</ele>
<time>2026-07-13T14:13:45.000Z</time>
</trkpt>
<trkpt lat="56.687496" lon="8.221679">
<ele>-1.591508</ele>
<time>2026-07-13T14:13:46.000Z</time>
</trkpt>
<trkpt lat="56.687443" lon="8.221706">
<ele>-1.596813</ele>
<time>2026-07-13T14:13:47.000Z</time>
</trkpt>
<trkpt lat="56.687397" lon="8.221730">
<ele>-1.601425</ele>
<time>2026-07-13T14:13:48.000Z</time>
</trkpt>
<trkpt lat="56.687325" lon="8.221769">
<ele>-1.608666</ele>
<time>2026-07-13T14:13:49.000Z</time>
</trkpt>
<trkpt lat="56.687264" lon="8.221799">
<ele>-1.614756</ele>
<time>2026-07-13T14:13:50.000Z</time>
</trkpt>
<trkpt lat="56.687206" lon="8.221828">
<ele>-1.620553</ele>
<time>2026-07-13T14:13:51.000Z</time>
</trkpt>
<trkpt lat="56.687145" lon="8.221856">
<ele>-1.626617</ele>
<time>2026-07-13T14:13:52.000Z</time>
</trkpt>
<trkpt lat="56.687088" lon="8.221886">
<ele>-1.632336</ele>
<time>2026-07-13T14:13:53.000Z</time>
</trkpt>
<trkpt lat="56.687027" lon="8.221916">
<ele>-1.638427</ele>
<time>2026-07-13T14:13:54.000Z</time>
</trkpt>
<trkpt lat="56.686966" lon="8.221948">
<ele>-1.644546</ele>
<time>2026-07-13T14:13:55.000Z</time>
</trkpt>
<trkpt lat="56.686905" lon="8.221980">
<ele>-1.650664</ele>
<time>2026-07-13T14:13:56.000Z</time>
</trkpt>
<trkpt lat="56.686848" lon="8.222013">
<ele>-1.656430</ele>
<time>2026-07-13T14:13:57.000Z</time>
</trkpt>
<trkpt lat="56.686787" lon="8.222045">
<ele>-1.649880</ele>
<time>2026-07-13T14:13:58.000Z</time>
</trkpt>
<trkpt lat="56.686729" lon="8.222077">
<ele>-1.641179</ele>
<time>2026-07-13T14:13:59.000Z</time>
</trkpt>
<trkpt lat="56.686672" lon="8.222107">
<ele>-1.632661</ele>
<time>2026-07-13T14:14:00.000Z</time>
</trkpt>
<trkpt lat="56.686611" lon="8.222136">
<ele>-1.623609</ele>
<time>2026-07-13T14:14:01.000Z</time>
</trkpt>
<trkpt lat="56.686550" lon="8.222163">
<ele>-1.614596</ele>
<time>2026-07-13T14:14:02.000Z</time>
</trkpt>
<trkpt lat="56.686493" lon="8.222190">
<ele>-1.606140</ele>
<time>2026-07-13T14:14:03.000Z</time>
</trkpt>
<trkpt lat="56.686436" lon="8.222219">
<ele>-1.597643</ele>
<time>2026-07-13T14:14:04.000Z</time>
</trkpt>
<trkpt lat="56.686375" lon="8.222249">
<ele>-1.588571</ele>
<time>2026-07-13T14:14:05.000Z</time>
</trkpt>
<trkpt lat="56.686317" lon="8.222283">
<ele>-1.579823</ele>
<time>2026-07-13T14:14:06.000Z</time>
</trkpt>
<trkpt lat="56.686256" lon="8.222315">
<ele>-1.570709</ele>
<time>2026-07-13T14:14:07.000Z</time>
</trkpt>
<trkpt lat="56.686199" lon="8.222349">
<ele>-1.562097</ele>
<time>2026-07-13T14:14:08.000Z</time>
</trkpt>
<trkpt lat="56.686138" lon="8.222383">
<ele>-1.552938</ele>
<time>2026-07-13T14:14:09.000Z</time>
</trkpt>
<trkpt lat="56.686085" lon="8.222414">
<ele>-1.544946</ele>
<time>2026-07-13T14:14:10.000Z</time>
</trkpt>
<trkpt lat="56.686024" lon="8.222446">
<ele>-1.535832</ele>
<time>2026-07-13T14:14:11.000Z</time>
</trkpt>
<trkpt lat="56.685963" lon="8.222479">
<ele>-1.526696</ele>
<time>2026-07-13T14:14:12.000Z</time>
</trkpt>
<trkpt lat="56.685902" lon="8.222512">
<ele>-1.517559</ele>
<time>2026-07-13T14:14:13.000Z</time>
</trkpt>
<trkpt lat="56.685844" lon="8.222546">
<ele>-1.508811</ele>
<time>2026-07-13T14:14:14.000Z</time>
</trkpt>
<trkpt lat="56.685787" lon="8.222578">
<ele>-1.500247</ele>
<time>2026-07-13T14:14:15.000Z</time>
</trkpt>
<trkpt lat="56.685726" lon="8.222610">
<ele>-1.491133</ele>
<time>2026-07-13T14:14:16.000Z</time>
</trkpt>
<trkpt lat="56.685673" lon="8.222638">
<ele>-1.483210</ele>
<time>2026-07-13T14:14:17.000Z</time>
</trkpt>
<trkpt lat="56.685616" lon="8.222669">
<ele>-1.474669</ele>
<time>2026-07-13T14:14:18.000Z</time>
</trkpt>
<trkpt lat="56.685558" lon="8.222697">
<ele>-1.466054</ele>
<time>2026-07-13T14:14:19.000Z</time>
</trkpt>
<trkpt lat="56.685505" lon="8.222726">
<ele>-1.458109</ele>
<time>2026-07-13T14:14:20.000Z</time>
</trkpt>
<trkpt lat="56.685448" lon="8.222756">
<ele>-1.449590</ele>
<time>2026-07-13T14:14:21.000Z</time>
</trkpt>
<trkpt lat="56.685391" lon="8.222787">
<ele>-1.441049</ele>
<time>2026-07-13T14:14:22.000Z</time>
</trkpt>
<trkpt lat="56.685333" lon="8.222817">
<ele>-1.432392</ele>
<time>2026-07-13T14:14:23.000Z</time>
</trkpt>
<trkpt lat="56.685276" lon="8.222849">
<ele>-1.423829</ele>
<time>2026-07-13T14:14:24.000Z</time>
</trkpt>
<trkpt lat="56.685219" lon="8.222879">
<ele>-1.415310</ele>
<time>2026-07-13T14:14:25.000Z</time>
</trkpt>
<trkpt lat="56.685162" lon="8.222912">
<ele>-1.406723</ele>
<time>2026-07-13T14:14:26.000Z</time>
</trkpt>
<trkpt lat="56.685101" lon="8.222942">
<ele>-1.399062</ele>
<time>2026-07-13T14:14:27.000Z</time>
</trkpt>
<trkpt lat="56.685043" lon="8.222973">
<ele>-1.398166</ele>
<time>2026-07-13T14:14:28.000Z</time>
</trkpt>
<trkpt lat="56.684986" lon="8.223005">
<ele>-1.397281</ele>
<time>2026-07-13T14:14:29.000Z</time>
</trkpt>
<trkpt lat="56.684925" lon="8.223038">
<ele>-1.396337</ele>
<time>2026-07-13T14:14:30.000Z</time>
</trkpt>
<trkpt lat="56.684872" lon="8.223066">
<ele>-1.395519</ele>
<time>2026-07-13T14:14:31.000Z</time>
</trkpt>
<trkpt lat="56.684822" lon="8.223091">
<ele>-1.394750</ele>
<time>2026-07-13T14:14:32.000Z</time>
</trkpt>
<trkpt lat="56.684784" lon="8.223109">
<ele>-1.394168</ele>
<time>2026-07-13T14:14:33.000Z</time>
</trkpt>
<trkpt lat="56.684746" lon="8.223128">
<ele>-1.393583</ele>
<time>2026-07-13T14:14:34.000Z</time>
</trkpt>
<trkpt lat="56.684719" lon="8.223157">
<ele>-1.393118</ele>
<time>2026-07-13T14:14:35.000Z</time>
</trkpt>
<trkpt lat="56.684704" lon="8.223193">
<ele>-1.392750</ele>
<time>2026-07-13T14:14:36.000Z</time>
</trkpt>
<trkpt lat="56.684708" lon="8.223238">
<ele>-1.392379</ele>
<time>2026-07-13T14:14:37.000Z</time>
</trkpt>
<trkpt lat="56.684711" lon="8.223285">
<ele>-1.391993</ele>
<time>2026-07-13T14:14:38.000Z</time>
</trkpt>
<trkpt lat="56.684723" lon="8.223334">
<ele>-1.391556</ele>
<time>2026-07-13T14:14:39.000Z</time>
</trkpt>
<trkpt lat="56.684727" lon="8.223381">
<ele>-1.391169</ele>
<time>2026-07-13T14:14:40.000Z</time>
</trkpt>
<trkpt lat="56.684738" lon="8.223425">
<ele>-1.390775</ele>
<time>2026-07-13T14:14:41.000Z</time>
</trkpt>
<trkpt lat="56.684746" lon="8.223464">
<ele>-1.390436</ele>
<time>2026-07-13T14:14:42.000Z</time>
</trkpt>
<trkpt lat="56.684757" lon="8.223500">
<ele>-1.390100</ele>
<time>2026-07-13T14:14:43.000Z</time>
</trkpt>
<trkpt lat="56.684765" lon="8.223531">
<ele>-1.389821</ele>
<time>2026-07-13T14:14:44.000Z</time>
</trkpt>
<trkpt lat="56.684765" lon="8.223557">
<ele>-1.389610</ele>
<time>2026-07-13T14:14:45.000Z</time>
</trkpt>
<trkpt lat="56.684761" lon="8.223577">
<ele>-1.389436</ele>
<time>2026-07-13T14:14:46.000Z</time>
</trkpt>
<trkpt lat="56.684757" lon="8.223596">
<ele>-1.389271</ele>
<time>2026-07-13T14:14:47.000Z</time>
</trkpt>
<trkpt lat="56.684757" lon="8.223620">
<ele>-1.389075</ele>
<time>2026-07-13T14:14:48.000Z</time>
</trkpt>
<trkpt lat="56.684761" lon="8.223650">
<ele>-1.388824</ele>
<time>2026-07-13T14:14:49.000Z</time>
</trkpt>
<trkpt lat="56.684769" lon="8.223686">
<ele>-1.388507</ele>
<time>2026-07-13T14:14:50.000Z</time>
</trkpt>
<trkpt lat="56.684776" lon="8.223733">
<ele>-1.388110</ele>
<time>2026-07-13T14:14:51.000Z</time>
</trkpt>
<trkpt lat="56.684780" lon="8.223792">
<ele>-1.387626</ele>
<time>2026-07-13T14:14:52.000Z</time>
</trkpt>
<trkpt lat="56.684780" lon="8.223856">
<ele>-1.387105</ele>
<time>2026-07-13T14:14:53.000Z</time>
</trkpt>
<trkpt lat="56.684776" lon="8.223920">
<ele>-1.386580</ele>
<time>2026-07-13T14:14:54.000Z</time>
</trkpt>
<trkpt lat="56.684773" lon="8.223979">
<ele>-1.386098</ele>
<time>2026-07-13T14:14:55.000Z</time>
</trkpt>
<trkpt lat="56.684769" lon="8.224041">
<ele>-1.385589</ele>
<time>2026-07-13T14:14:56.000Z</time>
</trkpt>
<trkpt lat="56.684761" lon="8.224105">
<ele>-1.385054</ele>
<time>2026-07-13T14:14:57.000Z</time>
</trkpt>
<trkpt lat="56.684753" lon="8.224164">
<ele>-1.384559</ele>
<time>2026-07-13T14:14:58.000Z</time>
</trkpt>
<trkpt lat="56.684746" lon="8.224216">
<ele>-1.384123</ele>
<time>2026-07-13T14:14:59.000Z</time>
</trkpt>
<trkpt lat="56.684742" lon="8.224267">
<ele>-1.383704</ele>
<time>2026-07-13T14:15:00.000Z</time>
</trkpt>
<trkpt lat="56.684734" lon="8.224300">
<ele>-1.383410</ele>
<time>2026-07-13T14:15:01.000Z</time>
</trkpt>
<trkpt lat="56.684731" lon="8.224329">
<ele>-1.383169</ele>
<time>2026-07-13T14:15:02.000Z</time>
</trkpt>
<trkpt lat="56.684731" lon="8.224342">
<ele>-1.383063</ele>
<time>2026-07-13T14:15:03.000Z</time>
</trkpt>
<trkpt lat="56.684734" lon="8.224351">
<ele>-1.382978</ele>
<time>2026-07-13T14:15:04.000Z</time>
</trkpt>
<trkpt lat="56.684734" lon="8.224365">
<ele>-1.382864</ele>
<time>2026-07-13T14:15:05.000Z</time>
</trkpt>
<trkpt lat="56.684734" lon="8.224383">
<ele>-1.382717</ele>
<time>2026-07-13T14:15:06.000Z</time>
</trkpt>
<trkpt lat="56.684734" lon="8.224401">
<ele>-1.382570</ele>
<time>2026-07-13T14:15:07.000Z</time>
</trkpt>
<trkpt lat="56.684734" lon="8.224421">
<ele>-1.382407</ele>
<time>2026-07-13T14:15:08.000Z</time>
</trkpt>
<trkpt lat="56.684727" lon="8.224449">
<ele>-1.382157</ele>
<time>2026-07-13T14:15:09.000Z</time>
</trkpt>
<trkpt lat="56.684727" lon="8.224474">
<ele>-1.381953</ele>
<time>2026-07-13T14:15:10.000Z</time>
</trkpt>
<trkpt lat="56.684723" lon="8.224497">
<ele>-1.381757</ele>
<time>2026-07-13T14:15:11.000Z</time>
</trkpt>
<trkpt lat="56.684715" lon="8.224518">
<ele>-1.381549</ele>
<time>2026-07-13T14:15:12.000Z</time>
</trkpt>
<trkpt lat="56.684704" lon="8.224536">
<ele>-1.381329</ele>
<time>2026-07-13T14:15:13.000Z</time>
</trkpt>
<trkpt lat="56.684692" lon="8.224550">
<ele>-1.381118</ele>
<time>2026-07-13T14:15:14.000Z</time>
</trkpt>
<trkpt lat="56.684681" lon="8.224564">
<ele>-1.380919</ele>
<time>2026-07-13T14:15:15.000Z</time>
</trkpt>
<trkpt lat="56.684669" lon="8.224568">
<ele>-1.380738</ele>
<time>2026-07-13T14:15:16.000Z</time>
</trkpt>
<trkpt lat="56.684650" lon="8.224566">
<ele>-1.380456</ele>
<time>2026-07-13T14:15:17.000Z</time>
</trkpt>
<trkpt lat="56.684631" lon="8.224558">
<ele>-1.380166</ele>
<time>2026-07-13T14:15:18.000Z</time>
</trkpt>
<trkpt lat="56.684616" lon="8.224541">
<ele>-1.379904</ele>
<time>2026-07-13T14:15:19.000Z</time>
</trkpt>
<trkpt lat="56.684597" lon="8.224525">
<ele>-1.379594</ele>
<time>2026-07-13T14:15:20.000Z</time>
</trkpt>
<trkpt lat="56.684589" lon="8.224514">
<ele>-1.379445</ele>
<time>2026-07-13T14:15:21.000Z</time>
</trkpt>
<trkpt lat="56.684586" lon="8.224510">
<ele>-1.379390</ele>
<time>2026-07-13T14:15:22.000Z</time>
</trkpt>
<trkpt lat="56.684582" lon="8.224509">
<ele>-1.379330</ele>
<time>2026-07-13T14:15:23.000Z</time>
</trkpt>
<trkpt lat="56.684582" lon="8.224505">
<ele>-1.379298</ele>
<time>2026-07-13T14:15:24.000Z</time>
</trkpt>
<trkpt lat="56.684578" lon="8.224501">
<ele>-1.379230</ele>
<time>2026-07-13T14:15:31.000Z</time>
</trkpt>
<trkpt lat="56.684559" lon="8.224483">
<ele>-1.378912</ele>
<time>2026-07-13T14:15:32.000Z</time>
</trkpt>
<trkpt lat="56.684559" lon="8.224474">
<ele>-1.378839</ele>
<time>2026-07-13T14:15:33.000Z</time>
</trkpt>
<trkpt lat="56.684559" lon="8.224470">
<ele>-1.378806</ele>
<time>2026-07-13T14:15:34.000Z</time>
</trkpt>
<trkpt lat="56.684559" lon="8.224472">
<ele>-1.378790</ele>
<time>2026-07-13T14:15:35.000Z</time>
</trkpt>
<trkpt lat="56.684559" lon="8.224480">
<ele>-1.378725</ele>
<time>2026-07-13T14:15:36.000Z</time>
</trkpt>
<trkpt lat="56.684563" lon="8.224482">
<ele>-1.378663</ele>
<time>2026-07-13T14:15:37.000Z</time>
</trkpt>
<trkpt lat="56.684566" lon="8.224484">
<ele>-1.378616</ele>
<time>2026-07-13T14:15:38.000Z</time>
</trkpt>
<trkpt lat="56.684574" lon="8.224494">
<ele>-1.378472</ele>
<time>2026-07-13T14:15:39.000Z</time>
</trkpt>
<trkpt lat="56.684578" lon="8.224498">
<ele>-1.378404</ele>
<time>2026-07-13T14:15:40.000Z</time>
</trkpt>
<trkpt lat="56.684582" lon="8.224495">
<ele>-1.378340</ele>
<time>2026-07-13T14:15:41.000Z</time>
</trkpt>
<trkpt lat="56.703690" lon="8.245278">
<ele>5.443214</ele>
<time>2026-07-13T14:48:12.000Z</time>
</trkpt>
<trkpt lat="56.703732" lon="8.245306">
<ele>5.454360</ele>
<time>2026-07-13T14:48:13.000Z</time>
</trkpt>
<trkpt lat="56.703774" lon="8.245330">
<ele>5.465330</ele>
<time>2026-07-13T14:48:14.000Z</time>
</trkpt>
<trkpt lat="56.703812" lon="8.245356">
<ele>5.475447</ele>
<time>2026-07-13T14:48:15.000Z</time>
</trkpt>
<trkpt lat="56.703850" lon="8.245381">
<ele>5.485516</ele>
<time>2026-07-13T14:48:16.000Z</time>
</trkpt>
<trkpt lat="56.703888" lon="8.245410">
<ele>5.495784</ele>
<time>2026-07-13T14:48:17.000Z</time>
</trkpt>
<trkpt lat="56.703918" lon="8.245435">
<ele>5.504006</ele>
<time>2026-07-13T14:48:18.000Z</time>
</trkpt>
<trkpt lat="56.703949" lon="8.245459">
<ele>5.512400</ele>
<time>2026-07-13T14:48:19.000Z</time>
</trkpt>
<trkpt lat="56.703991" lon="8.245485">
<ele>5.523455</ele>
<time>2026-07-13T14:48:20.000Z</time>
</trkpt>
<trkpt lat="56.704021" lon="8.245508">
<ele>5.531567</ele>
<time>2026-07-13T14:48:21.000Z</time>
</trkpt>
<trkpt lat="56.704060" lon="8.245532">
<ele>5.541826</ele>
<time>2026-07-13T14:48:22.000Z</time>
</trkpt>
<trkpt lat="56.704098" lon="8.245557">
<ele>5.551895</ele>
<time>2026-07-13T14:48:23.000Z</time>
</trkpt>
<trkpt lat="56.704136" lon="8.245582">
<ele>5.561965</ele>
<time>2026-07-13T14:48:24.000Z</time>
</trkpt>
<trkpt lat="56.704174" lon="8.245606">
<ele>5.571988</ele>
<time>2026-07-13T14:48:25.000Z</time>
</trkpt>
<trkpt lat="56.704212" lon="8.245631">
<ele>5.582057</ele>
<time>2026-07-13T14:48:26.000Z</time>
</trkpt>
<trkpt lat="56.704247" lon="8.245656">
<ele>5.591426</ele>
<time>2026-07-13T14:48:27.000Z</time>
</trkpt>
<trkpt lat="56.704289" lon="8.245684">
<ele>5.602573</ele>
<time>2026-07-13T14:48:28.000Z</time>
</trkpt>
<trkpt lat="56.704327" lon="8.245708">
<ele>5.612596</ele>
<time>2026-07-13T14:48:29.000Z</time>
</trkpt>
<trkpt lat="56.704365" lon="8.245732">
<ele>5.622619</ele>
<time>2026-07-13T14:48:30.000Z</time>
</trkpt>
<trkpt lat="56.704407" lon="8.245760">
<ele>5.633766</ele>
<time>2026-07-13T14:48:31.000Z</time>
</trkpt>
<trkpt lat="56.704441" lon="8.245783">
<ele>5.642804</ele>
<time>2026-07-13T14:48:32.000Z</time>
</trkpt>
<trkpt lat="56.704475" lon="8.245808">
<ele>5.651942</ele>
<time>2026-07-13T14:48:33.000Z</time>
</trkpt>
<trkpt lat="56.704498" lon="8.245827">
<ele>5.658236</ele>
<time>2026-07-13T14:48:34.000Z</time>
</trkpt>
<trkpt lat="56.704514" lon="8.245839">
<ele>5.662548</ele>
<time>2026-07-13T14:48:35.000Z</time>
</trkpt>
<trkpt lat="56.704514" lon="8.245842">
<ele>5.662959</ele>
<time>2026-07-13T14:48:48.000Z</time>
</trkpt>
<trkpt lat="56.704525" lon="8.245845">
<ele>5.665731</ele>
<time>2026-07-13T14:48:49.000Z</time>
</trkpt>
<trkpt lat="56.704536" lon="8.245854">
<ele>5.668736</ele>
<time>2026-07-13T14:48:50.000Z</time>
</trkpt>
<trkpt lat="56.704544" lon="8.245864">
<ele>5.671154</ele>
<time>2026-07-13T14:48:51.000Z</time>
</trkpt>
<trkpt lat="56.704555" lon="8.245869">
<ele>5.673979</ele>
<time>2026-07-13T14:48:52.000Z</time>
</trkpt>
<trkpt lat="56.704578" lon="8.245869">
<ele>5.679712</ele>
<time>2026-07-13T14:48:53.000Z</time>
</trkpt>
<trkpt lat="56.704594" lon="8.245867">
<ele>5.683708</ele>
<time>2026-07-13T14:48:54.000Z</time>
</trkpt>
<trkpt lat="56.704624" lon="8.245877">
<ele>5.691309</ele>
<time>2026-07-13T14:48:55.000Z</time>
</trkpt>
<trkpt lat="56.704639" lon="8.245890">
<ele>5.695449</ele>
<time>2026-07-13T14:48:56.000Z</time>
</trkpt>
<trkpt lat="56.704666" lon="8.245908">
<ele>5.702614</ele>
<time>2026-07-13T14:48:57.000Z</time>
</trkpt>
<trkpt lat="56.704697" lon="8.245932">
<ele>5.711009</ele>
<time>2026-07-13T14:48:58.000Z</time>
</trkpt>
<trkpt lat="56.704727" lon="8.245953">
<ele>5.719019</ele>
<time>2026-07-13T14:48:59.000Z</time>
</trkpt>
<trkpt lat="56.704765" lon="8.245976">
<ele>5.728998</ele>
<time>2026-07-13T14:49:00.000Z</time>
</trkpt>
<trkpt lat="56.704800" lon="8.245999">
<ele>5.738271</ele>
<time>2026-07-13T14:49:01.000Z</time>
</trkpt>
<trkpt lat="56.704842" lon="8.246028">
<ele>5.749465</ele>
<time>2026-07-13T14:49:02.000Z</time>
</trkpt>
<trkpt lat="56.704884" lon="8.246054">
<ele>5.760520</ele>
<time>2026-07-13T14:49:03.000Z</time>
</trkpt>
<trkpt lat="56.704922" lon="8.246078">
<ele>5.770543</ele>
<time>2026-07-13T14:49:04.000Z</time>
</trkpt>
<trkpt lat="56.704964" lon="8.246106">
<ele>5.781690</ele>
<time>2026-07-13T14:49:05.000Z</time>
</trkpt>
<trkpt lat="56.705002" lon="8.246135">
<ele>5.791957</ele>
<time>2026-07-13T14:49:06.000Z</time>
</trkpt>
<trkpt lat="56.705070" lon="8.246182">
<ele>5.810083</ele>
<time>2026-07-13T14:49:07.000Z</time>
</trkpt>
<trkpt lat="56.705109" lon="8.246211">
<ele>5.820581</ele>
<time>2026-07-13T14:49:08.000Z</time>
</trkpt>
<trkpt lat="56.705147" lon="8.246239">
<ele>5.817623</ele>
<time>2026-07-13T14:49:09.000Z</time>
</trkpt>
<trkpt lat="56.705185" lon="8.246263">
<ele>5.814015</ele>
<time>2026-07-13T14:49:10.000Z</time>
</trkpt>
<trkpt lat="56.705219" lon="8.246283">
<ele>5.810810</ele>
<time>2026-07-13T14:49:11.000Z</time>
</trkpt>
<trkpt lat="56.705273" lon="8.246311">
<ele>5.805773</ele>
<time>2026-07-13T14:49:12.000Z</time>
</trkpt>
<trkpt lat="56.705311" lon="8.246337">
<ele>5.802132</ele>
<time>2026-07-13T14:49:13.000Z</time>
</trkpt>
<trkpt lat="56.705353" lon="8.246365">
<ele>5.798120</ele>
<time>2026-07-13T14:49:14.000Z</time>
</trkpt>
<trkpt lat="56.705395" lon="8.246394">
<ele>5.794091</ele>
<time>2026-07-13T14:49:15.000Z</time>
</trkpt>
<trkpt lat="56.705437" lon="8.246427">
<ele>5.789988</ele>
<time>2026-07-13T14:49:16.000Z</time>
</trkpt>
<trkpt lat="56.705475" lon="8.246455">
<ele>5.786310</ele>
<time>2026-07-13T14:49:17.000Z</time>
</trkpt>
<trkpt lat="56.705532" lon="8.246498">
<ele>5.780776</ele>
<time>2026-07-13T14:49:18.000Z</time>
</trkpt>
<trkpt lat="56.705574" lon="8.246536">
<ele>5.776569</ele>
<time>2026-07-13T14:49:19.000Z</time>
</trkpt>
<trkpt lat="56.705620" lon="8.246575">
<ele>5.772018</ele>
<time>2026-07-13T14:49:20.000Z</time>
</trkpt>
<trkpt lat="56.705658" lon="8.246613">
<ele>5.768129</ele>
<time>2026-07-13T14:49:21.000Z</time>
</trkpt>
<trkpt lat="56.705700" lon="8.246651">
<ele>5.763922</ele>
<time>2026-07-13T14:49:22.000Z</time>
</trkpt>
<trkpt lat="56.705749" lon="8.246688">
<ele>5.759164</ele>
<time>2026-07-13T14:49:23.000Z</time>
</trkpt>
<trkpt lat="56.705791" lon="8.246725">
<ele>5.754979</ele>
<time>2026-07-13T14:49:24.000Z</time>
</trkpt>
<trkpt lat="56.705837" lon="8.246761">
<ele>5.750488</ele>
<time>2026-07-13T14:49:25.000Z</time>
</trkpt>
<trkpt lat="56.705887" lon="8.246796">
<ele>5.745683</ele>
<time>2026-07-13T14:49:26.000Z</time>
</trkpt>
<trkpt lat="56.705929" lon="8.246828">
<ele>5.741599</ele>
<time>2026-07-13T14:49:27.000Z</time>
</trkpt>
<trkpt lat="56.705978" lon="8.246860">
<ele>5.736929</ele>
<time>2026-07-13T14:49:28.000Z</time>
</trkpt>
<trkpt lat="56.706028" lon="8.246891">
<ele>5.732191</ele>
<time>2026-07-13T14:49:29.000Z</time>
</trkpt>
<trkpt lat="56.706078" lon="8.246923">
<ele>5.727437</ele>
<time>2026-07-13T14:49:30.000Z</time>
</trkpt>
<trkpt lat="56.706127" lon="8.246953">
<ele>5.722800</ele>
<time>2026-07-13T14:49:31.000Z</time>
</trkpt>
<trkpt lat="56.706177" lon="8.246984">
<ele>5.718062</ele>
<time>2026-07-13T14:49:32.000Z</time>
</trkpt>
<trkpt lat="56.706223" lon="8.247013">
<ele>5.713695</ele>
<time>2026-07-13T14:49:33.000Z</time>
</trkpt>
<trkpt lat="56.706272" lon="8.247045">
<ele>5.709026</ele>
<time>2026-07-13T14:49:34.000Z</time>
</trkpt>
<trkpt lat="56.706322" lon="8.247073">
<ele>5.704333</ele>
<time>2026-07-13T14:49:35.000Z</time>
</trkpt>
<trkpt lat="56.706371" lon="8.247102">
<ele>5.699712</ele>
<time>2026-07-13T14:49:36.000Z</time>
</trkpt>
<trkpt lat="56.706417" lon="8.247128">
<ele>5.695391</ele>
<time>2026-07-13T14:49:37.000Z</time>
</trkpt>
<trkpt lat="56.706463" lon="8.247156">
<ele>5.691040</ele>
<time>2026-07-13T14:49:38.000Z</time>
</trkpt>
<trkpt lat="56.706520" lon="8.247190">
<ele>5.685660</ele>
<time>2026-07-13T14:49:39.000Z</time>
</trkpt>
<trkpt lat="56.706573" lon="8.247218">
<ele>5.680710</ele>
<time>2026-07-13T14:49:40.000Z</time>
</trkpt>
<trkpt lat="56.706623" lon="8.247245">
<ele>5.676031</ele>
<time>2026-07-13T14:49:41.000Z</time>
</trkpt>
<trkpt lat="56.706677" lon="8.247274">
<ele>5.670981</ele>
<time>2026-07-13T14:49:42.000Z</time>
</trkpt>
<trkpt lat="56.706726" lon="8.247302">
<ele>5.666374</ele>
<time>2026-07-13T14:49:43.000Z</time>
</trkpt>
<trkpt lat="56.706776" lon="8.247328">
<ele>5.661710</ele>
<time>2026-07-13T14:49:44.000Z</time>
</trkpt>
<trkpt lat="56.706829" lon="8.247352">
<ele>5.665313</ele>
<time>2026-07-13T14:49:45.000Z</time>
</trkpt>
<trkpt lat="56.706875" lon="8.247375">
<ele>5.673371</ele>
<time>2026-07-13T14:49:46.000Z</time>
</trkpt>
<trkpt lat="56.706924" lon="8.247399">
<ele>5.681942</ele>
<time>2026-07-13T14:49:47.000Z</time>
</trkpt>
<trkpt lat="56.706970" lon="8.247423">
<ele>5.690024</ele>
<time>2026-07-13T14:49:48.000Z</time>
</trkpt>
<trkpt lat="56.707016" lon="8.247449">
<ele>5.698160</ele>
<time>2026-07-13T14:49:49.000Z</time>
</trkpt>
<trkpt lat="56.707058" lon="8.247473">
<ele>5.705595</ele>
<time>2026-07-13T14:49:50.000Z</time>
</trkpt>
<trkpt lat="56.707108" lon="8.247494">
<ele>5.714263</ele>
<time>2026-07-13T14:49:51.000Z</time>
</trkpt>
<trkpt lat="56.707153" lon="8.247517">
<ele>5.722158</ele>
<time>2026-07-13T14:49:52.000Z</time>
</trkpt>
<trkpt lat="56.707203" lon="8.247541">
<ele>5.730892</ele>
<time>2026-07-13T14:49:53.000Z</time>
</trkpt>
<trkpt lat="56.707253" lon="8.247564">
<ele>5.739603</ele>
<time>2026-07-13T14:49:54.000Z</time>
</trkpt>
<trkpt lat="56.707306" lon="8.247586">
<ele>5.748785</ele>
<time>2026-07-13T14:49:55.000Z</time>
</trkpt>
<trkpt lat="56.707356" lon="8.247610">
<ele>5.757519</ele>
<time>2026-07-13T14:49:56.000Z</time>
</trkpt>
<trkpt lat="56.707401" lon="8.247634">
<ele>5.765440</ele>
<time>2026-07-13T14:49:57.000Z</time>
</trkpt>
<trkpt lat="56.707451" lon="8.247657">
<ele>5.774151</ele>
<time>2026-07-13T14:49:58.000Z</time>
</trkpt>
<trkpt lat="56.707500" lon="8.247676">
<ele>5.782613</ele>
<time>2026-07-13T14:49:59.000Z</time>
</trkpt>
<trkpt lat="56.707554" lon="8.247696">
<ele>5.791922</ele>
<time>2026-07-13T14:50:00.000Z</time>
</trkpt>
<trkpt lat="56.707603" lon="8.247717">
<ele>5.800425</ele>
<time>2026-07-13T14:50:01.000Z</time>
</trkpt>
<trkpt lat="56.707657" lon="8.247739">
<ele>5.809771</ele>
<time>2026-07-13T14:50:02.000Z</time>
</trkpt>
<trkpt lat="56.707706" lon="8.247759">
<ele>5.818254</ele>
<time>2026-07-13T14:50:03.000Z</time>
</trkpt>
<trkpt lat="56.707760" lon="8.247778">
<ele>5.827544</ele>
<time>2026-07-13T14:50:04.000Z</time>
</trkpt>
<trkpt lat="56.707809" lon="8.247796">
<ele>5.835988</ele>
<time>2026-07-13T14:50:05.000Z</time>
</trkpt>
<trkpt lat="56.707863" lon="8.247813">
<ele>5.845244</ele>
<time>2026-07-13T14:50:06.000Z</time>
</trkpt>
<trkpt lat="56.707916" lon="8.247831">
<ele>5.854351</ele>
<time>2026-07-13T14:50:07.000Z</time>
</trkpt>
<trkpt lat="56.707970" lon="8.247849">
<ele>5.863624</ele>
<time>2026-07-13T14:50:08.000Z</time>
</trkpt>
<trkpt lat="56.708019" lon="8.247868">
<ele>5.872087</ele>
<time>2026-07-13T14:50:09.000Z</time>
</trkpt>
<trkpt lat="56.708073" lon="8.247886">
<ele>5.881360</ele>
<time>2026-07-13T14:50:10.000Z</time>
</trkpt>
<trkpt lat="56.708126" lon="8.247905">
<ele>5.890484</ele>
<time>2026-07-13T14:50:11.000Z</time>
</trkpt>
<trkpt lat="56.708179" lon="8.247923">
<ele>5.899591</ele>
<time>2026-07-13T14:50:12.000Z</time>
</trkpt>
<trkpt lat="56.708233" lon="8.247938">
<ele>5.908818</ele>
<time>2026-07-13T14:50:13.000Z</time>
</trkpt>
<trkpt lat="56.708286" lon="8.247953">
<ele>5.917878</ele>
<time>2026-07-13T14:50:14.000Z</time>
</trkpt>
<trkpt lat="56.708336" lon="8.247968">
<ele>5.926438</ele>
<time>2026-07-13T14:50:15.000Z</time>
</trkpt>
<trkpt lat="56.708389" lon="8.247982">
<ele>5.935484</ele>
<time>2026-07-13T14:50:16.000Z</time>
</trkpt>
<trkpt lat="56.708443" lon="8.247995">
<ele>5.944685</ele>
<time>2026-07-13T14:50:17.000Z</time>
</trkpt>
<trkpt lat="56.708496" lon="8.248010">
<ele>5.953745</ele>
<time>2026-07-13T14:50:18.000Z</time>
</trkpt>
<trkpt lat="56.708550" lon="8.248025">
<ele>5.962972</ele>
<time>2026-07-13T14:50:19.000Z</time>
</trkpt>
<trkpt lat="56.708603" lon="8.248039">
<ele>5.977062</ele>
<time>2026-07-13T14:50:20.000Z</time>
</trkpt>
<trkpt lat="56.708656" lon="8.248051">
<ele>5.991479</ele>
<time>2026-07-13T14:50:21.000Z</time>
</trkpt>
<trkpt lat="56.708714" lon="8.248062">
<ele>6.007219</ele>
<time>2026-07-13T14:50:22.000Z</time>
</trkpt>
<trkpt lat="56.708763" lon="8.248074">
<ele>6.020565</ele>
<time>2026-07-13T14:50:23.000Z</time>
</trkpt>
<trkpt lat="56.708816" lon="8.248084">
<ele>6.034948</ele>
<time>2026-07-13T14:50:24.000Z</time>
</trkpt>
<trkpt lat="56.708870" lon="8.248095">
<ele>6.049615</ele>
<time>2026-07-13T14:50:25.000Z</time>
</trkpt>
<trkpt lat="56.708923" lon="8.248107">
<ele>6.064032</ele>
<time>2026-07-13T14:50:26.000Z</time>
</trkpt>
<trkpt lat="56.708973" lon="8.248118">
<ele>6.077626</ele>
<time>2026-07-13T14:50:27.000Z</time>
</trkpt>
<trkpt lat="56.709030" lon="8.248130">
<ele>6.093115</ele>
<time>2026-07-13T14:50:28.000Z</time>
</trkpt>
<trkpt lat="56.709084" lon="8.248139">
<ele>6.107752</ele>
<time>2026-07-13T14:50:29.000Z</time>
</trkpt>
<trkpt lat="56.709137" lon="8.248149">
<ele>6.122135</ele>
<time>2026-07-13T14:50:30.000Z</time>
</trkpt>
<trkpt lat="56.709190" lon="8.248157">
<ele>6.136490</ele>
<time>2026-07-13T14:50:31.000Z</time>
</trkpt>
<trkpt lat="56.709244" lon="8.248163">
<ele>6.151094</ele>
<time>2026-07-13T14:50:32.000Z</time>
</trkpt>
<trkpt lat="56.709293" lon="8.248171">
<ele>6.164374</ele>
<time>2026-07-13T14:50:33.000Z</time>
</trkpt>
<trkpt lat="56.709351" lon="8.248179">
<ele>6.180075</ele>
<time>2026-07-13T14:50:34.000Z</time>
</trkpt>
<trkpt lat="56.709408" lon="8.248187">
<ele>6.195506</ele>
<time>2026-07-13T14:50:35.000Z</time>
</trkpt>
<trkpt lat="56.709461" lon="8.248194">
<ele>6.209850</ele>
<time>2026-07-13T14:50:36.000Z</time>
</trkpt>
<trkpt lat="56.709515" lon="8.248201">
<ele>6.224463</ele>
<time>2026-07-13T14:50:37.000Z</time>
</trkpt>
<trkpt lat="56.709568" lon="8.248209">
<ele>6.238819</ele>
<time>2026-07-13T14:50:38.000Z</time>
</trkpt>
<trkpt lat="56.709621" lon="8.248217">
<ele>6.253174</ele>
<time>2026-07-13T14:50:39.000Z</time>
</trkpt>
<trkpt lat="56.709675" lon="8.248223">
<ele>6.267778</ele>
<time>2026-07-13T14:50:40.000Z</time>
</trkpt>
<trkpt lat="56.709728" lon="8.248228">
<ele>6.282103</ele>
<time>2026-07-13T14:50:41.000Z</time>
</trkpt>
<trkpt lat="56.709782" lon="8.248233">
<ele>6.296699</ele>
<time>2026-07-13T14:50:42.000Z</time>
</trkpt>
<trkpt lat="56.709839" lon="8.248236">
<ele>6.312091</ele>
<time>2026-07-13T14:50:43.000Z</time>
</trkpt>
<trkpt lat="56.709892" lon="8.248239">
<ele>6.326404</ele>
<time>2026-07-13T14:50:44.000Z</time>
</trkpt>
<trkpt lat="56.709949" lon="8.248242">
<ele>6.341797</ele>
<time>2026-07-13T14:50:45.000Z</time>
</trkpt>
<trkpt lat="56.709999" lon="8.248245">
<ele>6.355301</ele>
<time>2026-07-13T14:50:46.000Z</time>
</trkpt>
<trkpt lat="56.710052" lon="8.248250">
<ele>6.369627</ele>
<time>2026-07-13T14:50:47.000Z</time>
</trkpt>
<trkpt lat="56.710106" lon="8.248254">
<ele>6.384215</ele>
<time>2026-07-13T14:50:48.000Z</time>
</trkpt>
<trkpt lat="56.710163" lon="8.248259">
<ele>6.399619</ele>
<time>2026-07-13T14:50:49.000Z</time>
</trkpt>
<trkpt lat="56.710220" lon="8.248262">
<ele>6.415012</ele>
<time>2026-07-13T14:50:50.000Z</time>
</trkpt>
<trkpt lat="56.710274" lon="8.248264">
<ele>6.429591</ele>
<time>2026-07-13T14:50:51.000Z</time>
</trkpt>
<trkpt lat="56.710327" lon="8.248267">
<ele>6.443904</ele>
<time>2026-07-13T14:50:52.000Z</time>
</trkpt>
<trkpt lat="56.710381" lon="8.248272">
<ele>6.465168</ele>
<time>2026-07-13T14:50:53.000Z</time>
</trkpt>
<trkpt lat="56.710434" lon="8.248276">
<ele>6.489643</ele>
<time>2026-07-13T14:50:54.000Z</time>
</trkpt>
<trkpt lat="56.710484" lon="8.248279">
<ele>6.512724</ele>
<time>2026-07-13T14:50:55.000Z</time>
</trkpt>
<trkpt lat="56.710529" lon="8.248283">
<ele>6.533511</ele>
<time>2026-07-13T14:50:56.000Z</time>
</trkpt>
<trkpt lat="56.710579" lon="8.248290">
<ele>6.556649</ele>
<time>2026-07-13T14:50:57.000Z</time>
</trkpt>
<trkpt lat="56.710628" lon="8.248294">
<ele>6.579279</ele>
<time>2026-07-13T14:50:58.000Z</time>
</trkpt>
<trkpt lat="56.710682" lon="8.248296">
<ele>6.604200</ele>
<time>2026-07-13T14:50:59.000Z</time>
</trkpt>
<trkpt lat="56.710732" lon="8.248298">
<ele>6.627274</ele>
<time>2026-07-13T14:51:00.000Z</time>
</trkpt>
<trkpt lat="56.710785" lon="8.248300">
<ele>6.651733</ele>
<time>2026-07-13T14:51:01.000Z</time>
</trkpt>
<trkpt lat="56.710835" lon="8.248302">
<ele>6.674808</ele>
<time>2026-07-13T14:51:02.000Z</time>
</trkpt>
<trkpt lat="56.710888" lon="8.248304">
<ele>6.699267</ele>
<time>2026-07-13T14:51:03.000Z</time>
</trkpt>
<trkpt lat="56.710941" lon="8.248308">
<ele>6.723741</ele>
<time>2026-07-13T14:51:04.000Z</time>
</trkpt>
<trkpt lat="56.710995" lon="8.248313">
<ele>6.748688</ele>
<time>2026-07-13T14:51:05.000Z</time>
</trkpt>
<trkpt lat="56.711044" lon="8.248316">
<ele>6.771309</ele>
<time>2026-07-13T14:51:06.000Z</time>
</trkpt>
<trkpt lat="56.711094" lon="8.248321">
<ele>6.794413</ele>
<time>2026-07-13T14:51:07.000Z</time>
</trkpt>
<trkpt lat="56.711147" lon="8.248324">
<ele>6.818878</ele>
<time>2026-07-13T14:51:08.000Z</time>
</trkpt>
<trkpt lat="56.711204" lon="8.248327">
<ele>6.845188</ele>
<time>2026-07-13T14:51:09.000Z</time>
</trkpt>
<trkpt lat="56.711258" lon="8.248332">
<ele>6.870136</ele>
<time>2026-07-13T14:51:10.000Z</time>
</trkpt>
<trkpt lat="56.711311" lon="8.248336">
<ele>6.894610</ele>
<time>2026-07-13T14:51:11.000Z</time>
</trkpt>
<trkpt lat="56.711361" lon="8.248339">
<ele>6.917692</ele>
<time>2026-07-13T14:51:12.000Z</time>
</trkpt>
<trkpt lat="56.711411" lon="8.248342">
<ele>6.940774</ele>
<time>2026-07-13T14:51:13.000Z</time>
</trkpt>
<trkpt lat="56.711468" lon="8.248346">
<ele>6.967092</ele>
<time>2026-07-13T14:51:14.000Z</time>
</trkpt>
<trkpt lat="56.711521" lon="8.248348">
<ele>6.991551</ele>
<time>2026-07-13T14:51:15.000Z</time>
</trkpt>
<trkpt lat="56.711575" lon="8.248349">
<ele>7.016467</ele>
<time>2026-07-13T14:51:16.000Z</time>
</trkpt>
<trkpt lat="56.711624" lon="8.248353">
<ele>7.039098</ele>
<time>2026-07-13T14:51:17.000Z</time>
</trkpt>
<trkpt lat="56.711678" lon="8.248357">
<ele>7.064033</ele>
<time>2026-07-13T14:51:18.000Z</time>
</trkpt>
<trkpt lat="56.711727" lon="8.248364">
<ele>7.086711</ele>
<time>2026-07-13T14:51:19.000Z</time>
</trkpt>
<trkpt lat="56.711777" lon="8.248367">
<ele>7.109793</ele>
<time>2026-07-13T14:51:20.000Z</time>
</trkpt>
<trkpt lat="56.711826" lon="8.248368">
<ele>7.132402</ele>
<time>2026-07-13T14:51:21.000Z</time>
</trkpt>
<trkpt lat="56.711872" lon="8.248369">
<ele>7.153627</ele>
<time>2026-07-13T14:51:22.000Z</time>
</trkpt>
<trkpt lat="56.711922" lon="8.248372">
<ele>7.176709</ele>
<time>2026-07-13T14:51:23.000Z</time>
</trkpt>
<trkpt lat="56.711971" lon="8.248374">
<ele>7.199323</ele>
<time>2026-07-13T14:51:24.000Z</time>
</trkpt>
<trkpt lat="56.712025" lon="8.248376">
<ele>7.224243</ele>
<time>2026-07-13T14:51:25.000Z</time>
</trkpt>
<trkpt lat="56.712074" lon="8.248378">
<ele>7.246856</ele>
<time>2026-07-13T14:51:26.000Z</time>
</trkpt>
<trkpt lat="56.712124" lon="8.248379">
<ele>7.269927</ele>
<time>2026-07-13T14:51:27.000Z</time>
</trkpt>
<trkpt lat="56.712173" lon="8.248380">
<ele>7.289044</ele>
<time>2026-07-13T14:51:28.000Z</time>
</trkpt>
<trkpt lat="56.712227" lon="8.248384">
<ele>7.307562</ele>
<time>2026-07-13T14:51:29.000Z</time>
</trkpt>
<trkpt lat="56.712276" lon="8.248388">
<ele>7.324369</ele>
<time>2026-07-13T14:51:30.000Z</time>
</trkpt>
<trkpt lat="56.712330" lon="8.248393">
<ele>7.342895</ele>
<time>2026-07-13T14:51:31.000Z</time>
</trkpt>
<trkpt lat="56.712379" lon="8.248396">
<ele>7.359695</ele>
<time>2026-07-13T14:51:32.000Z</time>
</trkpt>
<trkpt lat="56.712429" lon="8.248401">
<ele>7.376852</ele>
<time>2026-07-13T14:51:33.000Z</time>
</trkpt>
<trkpt lat="56.712482" lon="8.248405">
<ele>7.395028</ele>
<time>2026-07-13T14:51:34.000Z</time>
</trkpt>
<trkpt lat="56.712536" lon="8.248405">
<ele>7.413531</ele>
<time>2026-07-13T14:51:35.000Z</time>
</trkpt>
<trkpt lat="56.712585" lon="8.248408">
<ele>7.430330</ele>
<time>2026-07-13T14:51:36.000Z</time>
</trkpt>
<trkpt lat="56.712639" lon="8.248412">
<ele>7.448848</ele>
<time>2026-07-13T14:51:37.000Z</time>
</trkpt>
<trkpt lat="56.712688" lon="8.248414">
<ele>7.465642</ele>
<time>2026-07-13T14:51:38.000Z</time>
</trkpt>
<trkpt lat="56.712738" lon="8.248418">
<ele>7.482790</ele>
<time>2026-07-13T14:51:39.000Z</time>
</trkpt>
<trkpt lat="56.712791" lon="8.248421">
<ele>7.500959</ele>
<time>2026-07-13T14:51:40.000Z</time>
</trkpt>
<trkpt lat="56.712837" lon="8.248425">
<ele>7.516739</ele>
<time>2026-07-13T14:51:41.000Z</time>
</trkpt>
<trkpt lat="56.712891" lon="8.248431">
<ele>7.535276</ele>
<time>2026-07-13T14:51:42.000Z</time>
</trkpt>
<trkpt lat="56.712944" lon="8.248434">
<ele>7.553445</ele>
<time>2026-07-13T14:51:43.000Z</time>
</trkpt>
<trkpt lat="56.712997" lon="8.248437">
<ele>7.571614</ele>
<time>2026-07-13T14:51:44.000Z</time>
</trkpt>
<trkpt lat="56.713047" lon="8.248439">
<ele>7.588750</ele>
<time>2026-07-13T14:51:45.000Z</time>
</trkpt>
<trkpt lat="56.713097" lon="8.248443">
<ele>7.605899</ele>
<time>2026-07-13T14:51:46.000Z</time>
</trkpt>
<trkpt lat="56.713150" lon="8.248447">
<ele>7.624074</ele>
<time>2026-07-13T14:51:47.000Z</time>
</trkpt>
<trkpt lat="56.713203" lon="8.248451">
<ele>7.642250</ele>
<time>2026-07-13T14:51:48.000Z</time>
</trkpt>
<trkpt lat="56.713253" lon="8.248453">
<ele>7.659386</ele>
<time>2026-07-13T14:51:49.000Z</time>
</trkpt>
<trkpt lat="56.713303" lon="8.248454">
<ele>7.676520</ele>
<time>2026-07-13T14:51:50.000Z</time>
</trkpt>
<trkpt lat="56.713352" lon="8.248456">
<ele>7.693313</ele>
<time>2026-07-13T14:51:51.000Z</time>
</trkpt>
<trkpt lat="56.713402" lon="8.248456">
<ele>7.710445</ele>
<time>2026-07-13T14:51:52.000Z</time>
</trkpt>
<trkpt lat="56.713455" lon="8.248455">
<ele>7.728607</ele>
<time>2026-07-13T14:51:53.000Z</time>
</trkpt>
<trkpt lat="56.713505" lon="8.248455">
<ele>7.745739</ele>
<time>2026-07-13T14:51:54.000Z</time>
</trkpt>
<trkpt lat="56.713551" lon="8.248456">
<ele>7.761501</ele>
<time>2026-07-13T14:51:55.000Z</time>
</trkpt>
<trkpt lat="56.713600" lon="8.248459">
<ele>7.778301</ele>
<time>2026-07-13T14:51:56.000Z</time>
</trkpt>
<trkpt lat="56.713646" lon="8.248460">
<ele>7.794063</ele>
<time>2026-07-13T14:51:57.000Z</time>
</trkpt>
<trkpt lat="56.713699" lon="8.248461">
<ele>7.812224</ele>
<time>2026-07-13T14:51:58.000Z</time>
</trkpt>
<trkpt lat="56.713749" lon="8.248463">
<ele>7.829361</ele>
<time>2026-07-13T14:51:59.000Z</time>
</trkpt>
<trkpt lat="56.713802" lon="8.248466">
<ele>7.847529</ele>
<time>2026-07-13T14:52:00.000Z</time>
</trkpt>
<trkpt lat="56.713856" lon="8.248471">
<ele>7.866056</ele>
<time>2026-07-13T14:52:01.000Z</time>
</trkpt>
<trkpt lat="56.713905" lon="8.248474">
<ele>7.882855</ele>
<time>2026-07-13T14:52:02.000Z</time>
</trkpt>
<trkpt lat="56.713955" lon="8.248478">
<ele>7.894575</ele>
<time>2026-07-13T14:52:03.000Z</time>
</trkpt>
<trkpt lat="56.714005" lon="8.248481">
<ele>7.892094</ele>
<time>2026-07-13T14:52:04.000Z</time>
</trkpt>
<trkpt lat="56.714054" lon="8.248485">
<ele>7.889661</ele>
<time>2026-07-13T14:52:05.000Z</time>
</trkpt>
<trkpt lat="56.714107" lon="8.248489">
<ele>7.887030</ele>
<time>2026-07-13T14:52:06.000Z</time>
</trkpt>
<trkpt lat="56.714153" lon="8.248494">
<ele>7.884744</ele>
<time>2026-07-13T14:52:07.000Z</time>
</trkpt>
<trkpt lat="56.714214" lon="8.248498">
<ele>7.881716</ele>
<time>2026-07-13T14:52:08.000Z</time>
</trkpt>
<trkpt lat="56.714264" lon="8.248501">
<ele>7.879235</ele>
<time>2026-07-13T14:52:09.000Z</time>
</trkpt>
<trkpt lat="56.714317" lon="8.248506">
<ele>7.876602</ele>
<time>2026-07-13T14:52:10.000Z</time>
</trkpt>
<trkpt lat="56.714371" lon="8.248509">
<ele>7.873923</ele>
<time>2026-07-13T14:52:11.000Z</time>
</trkpt>
<trkpt lat="56.714420" lon="8.248512">
<ele>7.871491</ele>
<time>2026-07-13T14:52:12.000Z</time>
</trkpt>
<trkpt lat="56.714474" lon="8.248514">
<ele>7.868812</ele>
<time>2026-07-13T14:52:13.000Z</time>
</trkpt>
<trkpt lat="56.714523" lon="8.248516">
<ele>7.866381</ele>
<time>2026-07-13T14:52:14.000Z</time>
</trkpt>
<trkpt lat="56.714573" lon="8.248519">
<ele>7.863899</ele>
<time>2026-07-13T14:52:15.000Z</time>
</trkpt>
<trkpt lat="56.714626" lon="8.248524">
<ele>7.861267</ele>
<time>2026-07-13T14:52:16.000Z</time>
</trkpt>
<trkpt lat="56.714676" lon="8.248528">
<ele>7.858784</ele>
<time>2026-07-13T14:52:17.000Z</time>
</trkpt>
<trkpt lat="56.714729" lon="8.248530">
<ele>7.856155</ele>
<time>2026-07-13T14:52:18.000Z</time>
</trkpt>
<trkpt lat="56.714779" lon="8.248533">
<ele>7.853673</ele>
<time>2026-07-13T14:52:19.000Z</time>
</trkpt>
<trkpt lat="56.714828" lon="8.248539">
<ele>7.851238</ele>
<time>2026-07-13T14:52:20.000Z</time>
</trkpt>
<trkpt lat="56.714882" lon="8.248543">
<ele>7.848557</ele>
<time>2026-07-13T14:52:21.000Z</time>
</trkpt>
<trkpt lat="56.714935" lon="8.248546">
<ele>7.845927</ele>
<time>2026-07-13T14:52:22.000Z</time>
</trkpt>
<trkpt lat="56.714985" lon="8.248549">
<ele>7.843445</ele>
<time>2026-07-13T14:52:23.000Z</time>
</trkpt>
<trkpt lat="56.715038" lon="8.248550">
<ele>7.840816</ele>
<time>2026-07-13T14:52:24.000Z</time>
</trkpt>
<trkpt lat="56.715088" lon="8.248552">
<ele>7.838336</ele>
<time>2026-07-13T14:52:25.000Z</time>
</trkpt>
<trkpt lat="56.715141" lon="8.248557">
<ele>7.835703</ele>
<time>2026-07-13T14:52:26.000Z</time>
</trkpt>
<trkpt lat="56.715191" lon="8.248564">
<ele>7.833216</ele>
<time>2026-07-13T14:52:27.000Z</time>
</trkpt>
<trkpt lat="56.715244" lon="8.248569">
<ele>7.830583</ele>
<time>2026-07-13T14:52:28.000Z</time>
</trkpt>
<trkpt lat="56.715298" lon="8.248572">
<ele>7.827904</ele>
<time>2026-07-13T14:52:29.000Z</time>
</trkpt>
<trkpt lat="56.715347" lon="8.248576">
<ele>7.825471</ele>
<time>2026-07-13T14:52:30.000Z</time>
</trkpt>
<trkpt lat="56.715397" lon="8.248578">
<ele>7.822990</ele>
<time>2026-07-13T14:52:31.000Z</time>
</trkpt>
<trkpt lat="56.715450" lon="8.248579">
<ele>7.820361</ele>
<time>2026-07-13T14:52:32.000Z</time>
</trkpt>
<trkpt lat="56.715500" lon="8.248581">
<ele>7.817880</ele>
<time>2026-07-13T14:52:33.000Z</time>
</trkpt>
<trkpt lat="56.715550" lon="8.248583">
<ele>7.815400</ele>
<time>2026-07-13T14:52:34.000Z</time>
</trkpt>
<trkpt lat="56.715599" lon="8.248584">
<ele>7.812969</ele>
<time>2026-07-13T14:52:35.000Z</time>
</trkpt>
<trkpt lat="56.715649" lon="8.248584">
<ele>7.810489</ele>
<time>2026-07-13T14:52:36.000Z</time>
</trkpt>
<trkpt lat="56.715698" lon="8.248587">
<ele>7.808057</ele>
<time>2026-07-13T14:52:37.000Z</time>
</trkpt>
<trkpt lat="56.715744" lon="8.248592">
<ele>7.804826</ele>
<time>2026-07-13T14:52:38.000Z</time>
</trkpt>
<trkpt lat="56.715794" lon="8.248596">
<ele>7.793800</ele>
<time>2026-07-13T14:52:39.000Z</time>
</trkpt>
<trkpt lat="56.715847" lon="8.248601">
<ele>7.782107</ele>
<time>2026-07-13T14:52:40.000Z</time>
</trkpt>
<trkpt lat="56.715900" lon="8.248604">
<ele>7.770425</ele>
<time>2026-07-13T14:52:41.000Z</time>
</trkpt>
<trkpt lat="56.715954" lon="8.248608">
<ele>7.758518</ele>
<time>2026-07-13T14:52:42.000Z</time>
</trkpt>
<trkpt lat="56.716007" lon="8.248610">
<ele>7.746839</ele>
<time>2026-07-13T14:52:43.000Z</time>
</trkpt>
<trkpt lat="56.716061" lon="8.248614">
<ele>7.734932</ele>
<time>2026-07-13T14:52:44.000Z</time>
</trkpt>
<trkpt lat="56.716114" lon="8.248616">
<ele>7.723253</ele>
<time>2026-07-13T14:52:45.000Z</time>
</trkpt>
<trkpt lat="56.716167" lon="8.248620">
<ele>7.711566</ele>
<time>2026-07-13T14:52:46.000Z</time>
</trkpt>
<trkpt lat="56.716217" lon="8.248625">
<ele>7.700534</ele>
<time>2026-07-13T14:52:47.000Z</time>
</trkpt>
<trkpt lat="56.716270" lon="8.248629">
<ele>7.688847</ele>
<time>2026-07-13T14:52:48.000Z</time>
</trkpt>
<trkpt lat="56.716320" lon="8.248630">
<ele>7.677831</ele>
<time>2026-07-13T14:52:49.000Z</time>
</trkpt>
<trkpt lat="56.716373" lon="8.248632">
<ele>7.666151</ele>
<time>2026-07-13T14:52:50.000Z</time>
</trkpt>
<trkpt lat="56.716431" lon="8.248636">
<ele>7.653364</ele>
<time>2026-07-13T14:52:51.000Z</time>
</trkpt>
<trkpt lat="56.716480" lon="8.248639">
<ele>7.642563</ele>
<time>2026-07-13T14:52:52.000Z</time>
</trkpt>
<trkpt lat="56.716534" lon="8.248644">
<ele>7.630650</ele>
<time>2026-07-13T14:52:53.000Z</time>
</trkpt>
<trkpt lat="56.716579" lon="8.248648">
<ele>7.620724</ele>
<time>2026-07-13T14:52:54.000Z</time>
</trkpt>
<trkpt lat="56.716625" lon="8.248651">
<ele>7.610583</ele>
<time>2026-07-13T14:52:55.000Z</time>
</trkpt>
<trkpt lat="56.716671" lon="8.248653">
<ele>7.600446</ele>
<time>2026-07-13T14:52:56.000Z</time>
</trkpt>
<trkpt lat="56.716709" lon="8.248653">
<ele>7.592074</ele>
<time>2026-07-13T14:52:57.000Z</time>
</trkpt>
<trkpt lat="56.716770" lon="8.248656">
<ele>7.578630</ele>
<time>2026-07-13T14:52:58.000Z</time>
</trkpt>
<trkpt lat="56.716820" lon="8.248659">
<ele>7.567608</ele>
<time>2026-07-13T14:52:59.000Z</time>
</trkpt>
<trkpt lat="56.716866" lon="8.248664">
<ele>7.557455</ele>
<time>2026-07-13T14:53:00.000Z</time>
</trkpt>
<trkpt lat="56.716919" lon="8.248668">
<ele>7.545769</ele>
<time>2026-07-13T14:53:01.000Z</time>
</trkpt>
<trkpt lat="56.716969" lon="8.248671">
<ele>7.534747</ele>
<time>2026-07-13T14:53:02.000Z</time>
</trkpt>
<trkpt lat="56.717018" lon="8.248672">
<ele>7.523951</ele>
<time>2026-07-13T14:53:03.000Z</time>
</trkpt>
<trkpt lat="56.717071" lon="8.248676">
<ele>7.512264</ele>
<time>2026-07-13T14:53:04.000Z</time>
</trkpt>
<trkpt lat="56.717121" lon="8.248681">
<ele>7.501232</ele>
<time>2026-07-13T14:53:05.000Z</time>
</trkpt>
<trkpt lat="56.717171" lon="8.248685">
<ele>7.490205</ele>
<time>2026-07-13T14:53:06.000Z</time>
</trkpt>
<trkpt lat="56.717224" lon="8.248691">
<ele>7.478506</ele>
<time>2026-07-13T14:53:07.000Z</time>
</trkpt>
<trkpt lat="56.717274" lon="8.248694">
<ele>7.467484</ele>
<time>2026-07-13T14:53:08.000Z</time>
</trkpt>
<trkpt lat="56.717327" lon="8.248698">
<ele>7.455798</ele>
<time>2026-07-13T14:53:09.000Z</time>
</trkpt>
<trkpt lat="56.717377" lon="8.248704">
<ele>7.444758</ele>
<time>2026-07-13T14:53:10.000Z</time>
</trkpt>
<trkpt lat="56.717426" lon="8.248709">
<ele>7.433946</ele>
<time>2026-07-13T14:53:11.000Z</time>
</trkpt>
<trkpt lat="56.717476" lon="8.248713">
<ele>7.422919</ele>
<time>2026-07-13T14:53:12.000Z</time>
</trkpt>
<trkpt lat="56.717525" lon="8.248714">
<ele>7.412123</ele>
<time>2026-07-13T14:53:13.000Z</time>
</trkpt>
<trkpt lat="56.717575" lon="8.248717">
<ele>7.407862</ele>
<time>2026-07-13T14:53:14.000Z</time>
</trkpt>
<trkpt lat="56.717628" lon="8.248721">
<ele>7.405282</ele>
<time>2026-07-13T14:53:15.000Z</time>
</trkpt>
<trkpt lat="56.717678" lon="8.248724">
<ele>7.402849</ele>
<time>2026-07-13T14:53:16.000Z</time>
</trkpt>
<trkpt lat="56.717728" lon="8.248728">
<ele>7.400415</ele>
<time>2026-07-13T14:53:17.000Z</time>
</trkpt>
<trkpt lat="56.717777" lon="8.248731">
<ele>7.398030</ele>
<time>2026-07-13T14:53:18.000Z</time>
</trkpt>
<trkpt lat="56.717827" lon="8.248733">
<ele>7.395598</ele>
<time>2026-07-13T14:53:19.000Z</time>
</trkpt>
<trkpt lat="56.717876" lon="8.248736">
<ele>7.393213</ele>
<time>2026-07-13T14:53:20.000Z</time>
</trkpt>
<trkpt lat="56.717926" lon="8.248739">
<ele>7.390780</ele>
<time>2026-07-13T14:53:21.000Z</time>
</trkpt>
<trkpt lat="56.717976" lon="8.248744">
<ele>7.388344</ele>
<time>2026-07-13T14:53:22.000Z</time>
</trkpt>
<trkpt lat="56.718025" lon="8.248747">
<ele>7.385960</ele>
<time>2026-07-13T14:53:23.000Z</time>
</trkpt>
<trkpt lat="56.718071" lon="8.248752">
<ele>7.383719</ele>
<time>2026-07-13T14:53:24.000Z</time>
</trkpt>
<trkpt lat="56.718113" lon="8.248756">
<ele>7.381673</ele>
<time>2026-07-13T14:53:25.000Z</time>
</trkpt>
<trkpt lat="56.718163" lon="8.248761">
<ele>7.379237</ele>
<time>2026-07-13T14:53:26.000Z</time>
</trkpt>
<trkpt lat="56.718212" lon="8.248763">
<ele>7.376854</ele>
<time>2026-07-13T14:53:27.000Z</time>
</trkpt>
<trkpt lat="56.718258" lon="8.248766">
<ele>7.374615</ele>
<time>2026-07-13T14:53:28.000Z</time>
</trkpt>
<trkpt lat="56.718307" lon="8.248770">
<ele>7.372229</ele>
<time>2026-07-13T14:53:29.000Z</time>
</trkpt>
<trkpt lat="56.718357" lon="8.248773">
<ele>7.369796</ele>
<time>2026-07-13T14:53:30.000Z</time>
</trkpt>
<trkpt lat="56.718407" lon="8.248775">
<ele>7.367364</ele>
<time>2026-07-13T14:53:31.000Z</time>
</trkpt>
<trkpt lat="56.718456" lon="8.248777">
<ele>7.364980</ele>
<time>2026-07-13T14:53:32.000Z</time>
</trkpt>
<trkpt lat="56.718506" lon="8.248779">
<ele>7.362547</ele>
<time>2026-07-13T14:53:33.000Z</time>
</trkpt>
<trkpt lat="56.718555" lon="8.248783">
<ele>7.360162</ele>
<time>2026-07-13T14:53:34.000Z</time>
</trkpt>
<trkpt lat="56.718605" lon="8.248787">
<ele>7.357728</ele>
<time>2026-07-13T14:53:35.000Z</time>
</trkpt>
<trkpt lat="56.718655" lon="8.248789">
<ele>7.355295</ele>
<time>2026-07-13T14:53:36.000Z</time>
</trkpt>
<trkpt lat="56.718704" lon="8.248791">
<ele>7.352911</ele>
<time>2026-07-13T14:53:37.000Z</time>
</trkpt>
<trkpt lat="56.718754" lon="8.248796">
<ele>7.350476</ele>
<time>2026-07-13T14:53:38.000Z</time>
</trkpt>
<trkpt lat="56.718803" lon="8.248802">
<ele>7.348087</ele>
<time>2026-07-13T14:53:39.000Z</time>
</trkpt>
<trkpt lat="56.718857" lon="8.248809">
<ele>7.345454</ele>
<time>2026-07-13T14:53:40.000Z</time>
</trkpt>
<trkpt lat="56.718906" lon="8.248813">
<ele>7.343069</ele>
<time>2026-07-13T14:53:41.000Z</time>
</trkpt>
<trkpt lat="56.718960" lon="8.248816">
<ele>7.340441</ele>
<time>2026-07-13T14:53:42.000Z</time>
</trkpt>
<trkpt lat="56.719009" lon="8.248817">
<ele>7.338058</ele>
<time>2026-07-13T14:53:43.000Z</time>
</trkpt>
<trkpt lat="56.719059" lon="8.248822">
<ele>7.335622</ele>
<time>2026-07-13T14:53:44.000Z</time>
</trkpt>
<trkpt lat="56.719112" lon="8.248827">
<ele>7.333041</ele>
<time>2026-07-13T14:53:45.000Z</time>
</trkpt>
<trkpt lat="56.719162" lon="8.248830">
<ele>7.330608</ele>
<time>2026-07-13T14:53:46.000Z</time>
</trkpt>
<trkpt lat="56.719208" lon="8.248832">
<ele>7.328370</ele>
<time>2026-07-13T14:53:47.000Z</time>
</trkpt>
<trkpt lat="56.719265" lon="8.248835">
<ele>7.325596</ele>
<time>2026-07-13T14:53:48.000Z</time>
</trkpt>
<trkpt lat="56.719318" lon="8.248837">
<ele>7.323018</ele>
<time>2026-07-13T14:53:49.000Z</time>
</trkpt>
<trkpt lat="56.719372" lon="8.248839">
<ele>7.323936</ele>
<time>2026-07-13T14:53:50.000Z</time>
</trkpt>
<trkpt lat="56.719421" lon="8.248843">
<ele>7.325989</ele>
<time>2026-07-13T14:53:51.000Z</time>
</trkpt>
<trkpt lat="56.719475" lon="8.248848">
<ele>7.328251</ele>
<time>2026-07-13T14:53:52.000Z</time>
</trkpt>
<trkpt lat="56.719532" lon="8.248853">
<ele>7.330639</ele>
<time>2026-07-13T14:53:53.000Z</time>
</trkpt>
<trkpt lat="56.719585" lon="8.248856">
<ele>7.332859</ele>
<time>2026-07-13T14:53:54.000Z</time>
</trkpt>
<trkpt lat="56.719635" lon="8.248858">
<ele>7.334951</ele>
<time>2026-07-13T14:53:55.000Z</time>
</trkpt>
<trkpt lat="56.719688" lon="8.248863">
<ele>7.337172</ele>
<time>2026-07-13T14:53:56.000Z</time>
</trkpt>
<trkpt lat="56.719742" lon="8.248868">
<ele>7.339435</ele>
<time>2026-07-13T14:53:57.000Z</time>
</trkpt>
<trkpt lat="56.719795" lon="8.248871">
<ele>7.341654</ele>
<time>2026-07-13T14:53:58.000Z</time>
</trkpt>
<trkpt lat="56.719849" lon="8.248874">
<ele>7.343915</ele>
<time>2026-07-13T14:53:59.000Z</time>
</trkpt>
<trkpt lat="56.719902" lon="8.248875">
<ele>7.346133</ele>
<time>2026-07-13T14:54:00.000Z</time>
</trkpt>
<trkpt lat="56.719952" lon="8.248879">
<ele>7.348228</ele>
<time>2026-07-13T14:54:01.000Z</time>
</trkpt>
<trkpt lat="56.720005" lon="8.248882">
<ele>7.350447</ele>
<time>2026-07-13T14:54:02.000Z</time>
</trkpt>
<trkpt lat="56.720055" lon="8.248887">
<ele>7.352542</ele>
<time>2026-07-13T14:54:03.000Z</time>
</trkpt>
<trkpt lat="56.720104" lon="8.248891">
<ele>7.354595</ele>
<time>2026-07-13T14:54:04.000Z</time>
</trkpt>
<trkpt lat="56.720154" lon="8.248893">
<ele>7.356688</ele>
<time>2026-07-13T14:54:05.000Z</time>
</trkpt>
<trkpt lat="56.720207" lon="8.248896">
<ele>7.358907</ele>
<time>2026-07-13T14:54:06.000Z</time>
</trkpt>
<trkpt lat="56.720257" lon="8.248899">
<ele>7.361001</ele>
<time>2026-07-13T14:54:07.000Z</time>
</trkpt>
<trkpt lat="56.720310" lon="8.248902">
<ele>7.363220</ele>
<time>2026-07-13T14:54:08.000Z</time>
</trkpt>
<trkpt lat="56.720360" lon="8.248906">
<ele>7.365314</ele>
<time>2026-07-13T14:54:09.000Z</time>
</trkpt>
<trkpt lat="56.720409" lon="8.248907">
<ele>7.367365</ele>
<time>2026-07-13T14:54:10.000Z</time>
</trkpt>
<trkpt lat="56.720463" lon="8.248908">
<ele>7.369625</ele>
<time>2026-07-13T14:54:11.000Z</time>
</trkpt>
<trkpt lat="56.720509" lon="8.248911">
<ele>7.371551</ele>
<time>2026-07-13T14:54:12.000Z</time>
</trkpt>
<trkpt lat="56.720562" lon="8.248917">
<ele>7.373773</ele>
<time>2026-07-13T14:54:13.000Z</time>
</trkpt>
<trkpt lat="56.720612" lon="8.248921">
<ele>7.375868</ele>
<time>2026-07-13T14:54:14.000Z</time>
</trkpt>
<trkpt lat="56.720669" lon="8.248925">
<ele>7.378255</ele>
<time>2026-07-13T14:54:15.000Z</time>
</trkpt>
<trkpt lat="56.720718" lon="8.248929">
<ele>7.380308</ele>
<time>2026-07-13T14:54:16.000Z</time>
</trkpt>
<trkpt lat="56.720772" lon="8.248934">
<ele>7.382570</ele>
<time>2026-07-13T14:54:17.000Z</time>
</trkpt>
<trkpt lat="56.720821" lon="8.248938">
<ele>7.384623</ele>
<time>2026-07-13T14:54:18.000Z</time>
</trkpt>
<trkpt lat="56.720875" lon="8.248940">
<ele>7.386883</ele>
<time>2026-07-13T14:54:19.000Z</time>
</trkpt>
<trkpt lat="56.720924" lon="8.248942">
<ele>7.388934</ele>
<time>2026-07-13T14:54:20.000Z</time>
</trkpt>
<trkpt lat="56.720978" lon="8.248945">
<ele>7.391195</ele>
<time>2026-07-13T14:54:21.000Z</time>
</trkpt>
<trkpt lat="56.721031" lon="8.248947">
<ele>7.393414</ele>
<time>2026-07-13T14:54:22.000Z</time>
</trkpt>
<trkpt lat="56.721081" lon="8.248952">
<ele>7.395509</ele>
<time>2026-07-13T14:54:23.000Z</time>
</trkpt>
<trkpt lat="56.721134" lon="8.248956">
<ele>7.397742</ele>
<time>2026-07-13T14:54:24.000Z</time>
</trkpt>
<trkpt lat="56.721188" lon="8.248960">
<ele>7.400182</ele>
<time>2026-07-13T14:54:25.000Z</time>
</trkpt>
<trkpt lat="56.721237" lon="8.248963">
<ele>7.402396</ele>
<time>2026-07-13T14:54:26.000Z</time>
</trkpt>
<trkpt lat="56.721291" lon="8.248968">
<ele>7.404837</ele>
<time>2026-07-13T14:54:27.000Z</time>
</trkpt>
<trkpt lat="56.721340" lon="8.248973">
<ele>7.407053</ele>
<time>2026-07-13T14:54:28.000Z</time>
</trkpt>
<trkpt lat="56.721394" lon="8.248975">
<ele>7.409492</ele>
<time>2026-07-13T14:54:29.000Z</time>
</trkpt>
<trkpt lat="56.721447" lon="8.248978">
<ele>7.411887</ele>
<time>2026-07-13T14:54:30.000Z</time>
</trkpt>
<trkpt lat="56.721497" lon="8.248979">
<ele>7.414144</ele>
<time>2026-07-13T14:54:31.000Z</time>
</trkpt>
<trkpt lat="56.721550" lon="8.248981">
<ele>7.416538</ele>
<time>2026-07-13T14:54:32.000Z</time>
</trkpt>
<trkpt lat="56.721600" lon="8.248986">
<ele>7.418799</ele>
<time>2026-07-13T14:54:33.000Z</time>
</trkpt>
<trkpt lat="56.721649" lon="8.248990">
<ele>7.421014</ele>
<time>2026-07-13T14:54:34.000Z</time>
</trkpt>
<trkpt lat="56.721703" lon="8.248994">
<ele>7.423454</ele>
<time>2026-07-13T14:54:35.000Z</time>
</trkpt>
<trkpt lat="56.721756" lon="8.248998">
<ele>7.425849</ele>
<time>2026-07-13T14:54:36.000Z</time>
</trkpt>
<trkpt lat="56.721809" lon="8.249001">
<ele>7.428244</ele>
<time>2026-07-13T14:54:37.000Z</time>
</trkpt>
<trkpt lat="56.721859" lon="8.249003">
<ele>7.430502</ele>
<time>2026-07-13T14:54:38.000Z</time>
</trkpt>
<trkpt lat="56.721912" lon="8.249004">
<ele>7.432895</ele>
<time>2026-07-13T14:54:39.000Z</time>
</trkpt>
<trkpt lat="56.721962" lon="8.249007">
<ele>7.435154</ele>
<time>2026-07-13T14:54:40.000Z</time>
</trkpt>
<trkpt lat="56.722012" lon="8.249011">
<ele>7.437414</ele>
<time>2026-07-13T14:54:41.000Z</time>
</trkpt>
<trkpt lat="56.722057" lon="8.249015">
<ele>7.439448</ele>
<time>2026-07-13T14:54:42.000Z</time>
</trkpt>
<trkpt lat="56.722115" lon="8.249018">
<ele>7.442068</ele>
<time>2026-07-13T14:54:43.000Z</time>
</trkpt>
<trkpt lat="56.722160" lon="8.249021">
<ele>7.444101</ele>
<time>2026-07-13T14:54:44.000Z</time>
</trkpt>
<trkpt lat="56.722202" lon="8.249024">
<ele>7.445999</ele>
<time>2026-07-13T14:54:45.000Z</time>
</trkpt>
<trkpt lat="56.722248" lon="8.249027">
<ele>7.448078</ele>
<time>2026-07-13T14:54:46.000Z</time>
</trkpt>
<trkpt lat="56.722290" lon="8.249031">
<ele>7.449977</ele>
<time>2026-07-13T14:54:47.000Z</time>
</trkpt>
<trkpt lat="56.722332" lon="8.249033">
<ele>7.451874</ele>
<time>2026-07-13T14:54:48.000Z</time>
</trkpt>
<trkpt lat="56.722374" lon="8.249034">
<ele>7.453770</ele>
<time>2026-07-13T14:54:49.000Z</time>
</trkpt>
<trkpt lat="56.722412" lon="8.249039">
<ele>7.455491</ele>
<time>2026-07-13T14:54:50.000Z</time>
</trkpt>
<trkpt lat="56.722450" lon="8.249043">
<ele>7.457209</ele>
<time>2026-07-13T14:54:51.000Z</time>
</trkpt>
<trkpt lat="56.722496" lon="8.249046">
<ele>7.459288</ele>
<time>2026-07-13T14:54:52.000Z</time>
</trkpt>
<trkpt lat="56.722538" lon="8.249049">
<ele>7.461186</ele>
<time>2026-07-13T14:54:53.000Z</time>
</trkpt>
<trkpt lat="56.722584" lon="8.249052">
<ele>7.463264</ele>
<time>2026-07-13T14:54:54.000Z</time>
</trkpt>
<trkpt lat="56.722630" lon="8.249054">
<ele>7.465342</ele>
<time>2026-07-13T14:54:55.000Z</time>
</trkpt>
<trkpt lat="56.722687" lon="8.249060">
<ele>7.467920</ele>
<time>2026-07-13T14:54:56.000Z</time>
</trkpt>
<trkpt lat="56.722736" lon="8.249063">
<ele>7.470133</ele>
<time>2026-07-13T14:54:57.000Z</time>
</trkpt>
<trkpt lat="56.722786" lon="8.249065">
<ele>7.472392</ele>
<time>2026-07-13T14:54:58.000Z</time>
</trkpt>
<trkpt lat="56.722836" lon="8.249067">
<ele>7.474650</ele>
<time>2026-07-13T14:54:59.000Z</time>
</trkpt>
<trkpt lat="56.722885" lon="8.249071">
<ele>7.476865</ele>
<time>2026-07-13T14:55:00.000Z</time>
</trkpt>
<trkpt lat="56.722939" lon="8.249074">
<ele>7.479256</ele>
<time>2026-07-13T14:55:01.000Z</time>
</trkpt>
<trkpt lat="56.722988" lon="8.249076">
<ele>7.481268</ele>
<time>2026-07-13T14:55:02.000Z</time>
</trkpt>
<trkpt lat="56.723038" lon="8.249081">
<ele>7.483323</ele>
<time>2026-07-13T14:55:03.000Z</time>
</trkpt>
<trkpt lat="56.723091" lon="8.249085">
<ele>7.485500</ele>
<time>2026-07-13T14:55:04.000Z</time>
</trkpt>
<trkpt lat="56.723141" lon="8.249092">
<ele>7.487558</ele>
<time>2026-07-13T14:55:05.000Z</time>
</trkpt>
<trkpt lat="56.723190" lon="8.249097">
<ele>7.489572</ele>
<time>2026-07-13T14:55:06.000Z</time>
</trkpt>
<trkpt lat="56.723240" lon="8.249102">
<ele>7.491627</ele>
<time>2026-07-13T14:55:07.000Z</time>
</trkpt>
<trkpt lat="56.723290" lon="8.249105">
<ele>7.493680</ele>
<time>2026-07-13T14:55:08.000Z</time>
</trkpt>
<trkpt lat="56.723339" lon="8.249106">
<ele>7.495691</ele>
<time>2026-07-13T14:55:09.000Z</time>
</trkpt>
<trkpt lat="56.723389" lon="8.249104">
<ele>7.497744</ele>
<time>2026-07-13T14:55:10.000Z</time>
</trkpt>
<trkpt lat="56.723431" lon="8.249096">
<ele>7.499477</ele>
<time>2026-07-13T14:55:11.000Z</time>
</trkpt>
<trkpt lat="56.723469" lon="8.249075">
<ele>7.501106</ele>
<time>2026-07-13T14:55:12.000Z</time>
</trkpt>
<trkpt lat="56.723507" lon="8.249048">
<ele>7.502780</ele>
<time>2026-07-13T14:55:13.000Z</time>
</trkpt>
<trkpt lat="56.723541" lon="8.249031">
<ele>7.504227</ele>
<time>2026-07-13T14:55:14.000Z</time>
</trkpt>
<trkpt lat="56.723576" lon="8.249028">
<ele>7.505665</ele>
<time>2026-07-13T14:55:15.000Z</time>
</trkpt>
<trkpt lat="56.723606" lon="8.249033">
<ele>7.506901</ele>
<time>2026-07-13T14:55:16.000Z</time>
</trkpt>
<trkpt lat="56.723637" lon="8.249037">
<ele>7.508177</ele>
<time>2026-07-13T14:55:17.000Z</time>
</trkpt>
<trkpt lat="56.723663" lon="8.249045">
<ele>7.509259</ele>
<time>2026-07-13T14:55:18.000Z</time>
</trkpt>
<trkpt lat="56.723694" lon="8.249066">
<ele>7.510616</ele>
<time>2026-07-13T14:55:19.000Z</time>
</trkpt>
<trkpt lat="56.723721" lon="8.249087">
<ele>7.511821</ele>
<time>2026-07-13T14:55:20.000Z</time>
</trkpt>
<trkpt lat="56.723755" lon="8.249105">
<ele>7.513274</ele>
<time>2026-07-13T14:55:21.000Z</time>
</trkpt>
<trkpt lat="56.723789" lon="8.249116">
<ele>7.514691</ele>
<time>2026-07-13T14:55:22.000Z</time>
</trkpt>
<trkpt lat="56.723831" lon="8.249121">
<ele>7.516418</ele>
<time>2026-07-13T14:55:23.000Z</time>
</trkpt>
<trkpt lat="56.723873" lon="8.249123">
<ele>7.518142</ele>
<time>2026-07-13T14:55:24.000Z</time>
</trkpt>
<trkpt lat="56.723911" lon="8.249125">
<ele>7.519702</ele>
<time>2026-07-13T14:55:25.000Z</time>
</trkpt>
<trkpt lat="56.723953" lon="8.249127">
<ele>7.521427</ele>
<time>2026-07-13T14:55:26.000Z</time>
</trkpt>
<trkpt lat="56.723991" lon="8.249133">
<ele>7.522992</ele>
<time>2026-07-13T14:55:27.000Z</time>
</trkpt>
<trkpt lat="56.724033" lon="8.249138">
<ele>7.524719</ele>
<time>2026-07-13T14:55:28.000Z</time>
</trkpt>
<trkpt lat="56.724079" lon="8.249141">
<ele>7.526608</ele>
<time>2026-07-13T14:55:29.000Z</time>
</trkpt>
<trkpt lat="56.724121" lon="8.249145">
<ele>7.528334</ele>
<time>2026-07-13T14:55:30.000Z</time>
</trkpt>
<trkpt lat="56.724163" lon="8.249146">
<ele>7.530058</ele>
<time>2026-07-13T14:55:31.000Z</time>
</trkpt>
<trkpt lat="56.724201" lon="8.249146">
<ele>7.531618</ele>
<time>2026-07-13T14:55:32.000Z</time>
</trkpt>
<trkpt lat="56.724255" lon="8.249149">
<ele>7.533835</ele>
<time>2026-07-13T14:55:33.000Z</time>
</trkpt>
<trkpt lat="56.724297" lon="8.249153">
<ele>7.535561</ele>
<time>2026-07-13T14:55:34.000Z</time>
</trkpt>
<trkpt lat="56.724339" lon="8.249158">
<ele>7.537288</ele>
<time>2026-07-13T14:55:35.000Z</time>
</trkpt>
<trkpt lat="56.724388" lon="8.249161">
<ele>7.539300</ele>
<time>2026-07-13T14:55:36.000Z</time>
</trkpt>
<trkpt lat="56.724430" lon="8.249166">
<ele>7.541028</ele>
<time>2026-07-13T14:55:37.000Z</time>
</trkpt>
<trkpt lat="56.724480" lon="8.249169">
<ele>7.543081</ele>
<time>2026-07-13T14:55:38.000Z</time>
</trkpt>
<trkpt lat="56.724525" lon="8.249172">
<ele>7.544929</ele>
<time>2026-07-13T14:55:39.000Z</time>
</trkpt>
<trkpt lat="56.724567" lon="8.249177">
<ele>7.546656</ele>
<time>2026-07-13T14:55:40.000Z</time>
</trkpt>
<trkpt lat="56.724613" lon="8.249181">
<ele>7.548546</ele>
<time>2026-07-13T14:55:41.000Z</time>
</trkpt>
<trkpt lat="56.724655" lon="8.249185">
<ele>7.550272</ele>
<time>2026-07-13T14:55:42.000Z</time>
</trkpt>
<trkpt lat="56.724705" lon="8.249187">
<ele>7.552324</ele>
<time>2026-07-13T14:55:43.000Z</time>
</trkpt>
<trkpt lat="56.724754" lon="8.249190">
<ele>7.551689</ele>
<time>2026-07-13T14:55:44.000Z</time>
</trkpt>
<trkpt lat="56.724800" lon="8.249191">
<ele>7.550702</ele>
<time>2026-07-13T14:55:45.000Z</time>
</trkpt>
<trkpt lat="56.724850" lon="8.249195">
<ele>7.549629</ele>
<time>2026-07-13T14:55:46.000Z</time>
</trkpt>
<trkpt lat="56.724899" lon="8.249200">
<ele>7.548577</ele>
<time>2026-07-13T14:55:47.000Z</time>
</trkpt>
<trkpt lat="56.724949" lon="8.249204">
<ele>7.547504</ele>
<time>2026-07-13T14:55:48.000Z</time>
</trkpt>
<trkpt lat="56.724999" lon="8.249206">
<ele>7.546431</ele>
<time>2026-07-13T14:55:49.000Z</time>
</trkpt>
<trkpt lat="56.725048" lon="8.249210">
<ele>7.545380</ele>
<time>2026-07-13T14:55:50.000Z</time>
</trkpt>
<trkpt lat="56.725094" lon="8.249214">
<ele>7.544392</ele>
<time>2026-07-13T14:55:51.000Z</time>
</trkpt>
<trkpt lat="56.725143" lon="8.249217">
<ele>7.543341</ele>
<time>2026-07-13T14:55:52.000Z</time>
</trkpt>
<trkpt lat="56.725193" lon="8.249219">
<ele>7.542269</ele>
<time>2026-07-13T14:55:53.000Z</time>
</trkpt>
<trkpt lat="56.725243" lon="8.249221">
<ele>7.541197</ele>
<time>2026-07-13T14:55:54.000Z</time>
</trkpt>
<trkpt lat="56.725292" lon="8.249225">
<ele>7.540145</ele>
<time>2026-07-13T14:55:55.000Z</time>
</trkpt>
<trkpt lat="56.725342" lon="8.249228">
<ele>7.539072</ele>
<time>2026-07-13T14:55:56.000Z</time>
</trkpt>
<trkpt lat="56.725384" lon="8.249230">
<ele>7.538171</ele>
<time>2026-07-13T14:55:57.000Z</time>
</trkpt>
<trkpt lat="56.725445" lon="8.249234">
<ele>7.536863</ele>
<time>2026-07-13T14:55:58.000Z</time>
</trkpt>
<trkpt lat="56.725494" lon="8.249237">
<ele>7.535811</ele>
<time>2026-07-13T14:55:59.000Z</time>
</trkpt>
<trkpt lat="56.725544" lon="8.249242">
<ele>7.534738</ele>
<time>2026-07-13T14:56:00.000Z</time>
</trkpt>
<trkpt lat="56.725594" lon="8.249246">
<ele>7.533665</ele>
<time>2026-07-13T14:56:01.000Z</time>
</trkpt>
<trkpt lat="56.725643" lon="8.249248">
<ele>7.532614</ele>
<time>2026-07-13T14:56:02.000Z</time>
</trkpt>
<trkpt lat="56.725693" lon="8.249249">
<ele>7.531542</ele>
<time>2026-07-13T14:56:03.000Z</time>
</trkpt>
<trkpt lat="56.725742" lon="8.249253">
<ele>7.530490</ele>
<time>2026-07-13T14:56:04.000Z</time>
</trkpt>
<trkpt lat="56.725792" lon="8.249258">
<ele>7.529416</ele>
<time>2026-07-13T14:56:05.000Z</time>
</trkpt>
<trkpt lat="56.725841" lon="8.249261">
<ele>7.528365</ele>
<time>2026-07-13T14:56:06.000Z</time>
</trkpt>
<trkpt lat="56.725891" lon="8.249263">
<ele>7.527293</ele>
<time>2026-07-13T14:56:07.000Z</time>
</trkpt>
<trkpt lat="56.725944" lon="8.249267">
<ele>7.526155</ele>
<time>2026-07-13T14:56:08.000Z</time>
</trkpt>
<trkpt lat="56.725994" lon="8.249271">
<ele>7.525082</ele>
<time>2026-07-13T14:56:09.000Z</time>
</trkpt>
<trkpt lat="56.726044" lon="8.249276">
<ele>7.524008</ele>
<time>2026-07-13T14:56:10.000Z</time>
</trkpt>
<trkpt lat="56.726090" lon="8.249277">
<ele>7.523022</ele>
<time>2026-07-13T14:56:11.000Z</time>
</trkpt>
<trkpt lat="56.726143" lon="8.249279">
<ele>7.521885</ele>
<time>2026-07-13T14:56:12.000Z</time>
</trkpt>
<trkpt lat="56.726189" lon="8.249283">
<ele>7.520898</ele>
<time>2026-07-13T14:56:13.000Z</time>
</trkpt>
<trkpt lat="56.726242" lon="8.249286">
<ele>7.519761</ele>
<time>2026-07-13T14:56:14.000Z</time>
</trkpt>
<trkpt lat="56.726292" lon="8.249289">
<ele>7.518688</ele>
<time>2026-07-13T14:56:15.000Z</time>
</trkpt>
<trkpt lat="56.726341" lon="8.249292">
<ele>7.517637</ele>
<time>2026-07-13T14:56:16.000Z</time>
</trkpt>
<trkpt lat="56.726391" lon="8.249297">
<ele>7.516563</ele>
<time>2026-07-13T14:56:17.000Z</time>
</trkpt>
<trkpt lat="56.726440" lon="8.249304">
<ele>7.515510</ele>
<time>2026-07-13T14:56:18.000Z</time>
</trkpt>
<trkpt lat="56.726490" lon="8.249308">
<ele>7.514437</ele>
<time>2026-07-13T14:56:19.000Z</time>
</trkpt>
<trkpt lat="56.726543" lon="8.249309">
<ele>7.517102</ele>
<time>2026-07-13T14:56:20.000Z</time>
</trkpt>
<trkpt lat="56.726593" lon="8.249311">
<ele>7.521601</ele>
<time>2026-07-13T14:56:21.000Z</time>
</trkpt>
<trkpt lat="56.726639" lon="8.249314">
<ele>7.525743</ele>
<time>2026-07-13T14:56:22.000Z</time>
</trkpt>
<trkpt lat="56.726692" lon="8.249317">
<ele>7.530513</ele>
<time>2026-07-13T14:56:23.000Z</time>
</trkpt>
<trkpt lat="56.726746" lon="8.249321">
<ele>7.535375</ele>
<time>2026-07-13T14:56:24.000Z</time>
</trkpt>
<trkpt lat="56.726795" lon="8.249322">
<ele>7.539784</ele>
<time>2026-07-13T14:56:25.000Z</time>
</trkpt>
<trkpt lat="56.726849" lon="8.249324">
<ele>7.544643</ele>
<time>2026-07-13T14:56:26.000Z</time>
</trkpt>
<trkpt lat="56.726898" lon="8.249326">
<ele>7.549053</ele>
<time>2026-07-13T14:56:27.000Z</time>
</trkpt>
<trkpt lat="56.726944" lon="8.249331">
<ele>7.553198</ele>
<time>2026-07-13T14:56:28.000Z</time>
</trkpt>
<trkpt lat="56.726994" lon="8.249337">
<ele>7.557706</ele>
<time>2026-07-13T14:56:29.000Z</time>
</trkpt>
<trkpt lat="56.727047" lon="8.249344">
<ele>7.562487</ele>
<time>2026-07-13T14:56:30.000Z</time>
</trkpt>
<trkpt lat="56.727100" lon="8.249348">
<ele>7.567259</ele>
<time>2026-07-13T14:56:31.000Z</time>
</trkpt>
<trkpt lat="56.727150" lon="8.249351">
<ele>7.571760</ele>
<time>2026-07-13T14:56:32.000Z</time>
</trkpt>
<trkpt lat="56.727200" lon="8.249354">
<ele>7.576261</ele>
<time>2026-07-13T14:56:33.000Z</time>
</trkpt>
<trkpt lat="56.727249" lon="8.249357">
<ele>7.580672</ele>
<time>2026-07-13T14:56:34.000Z</time>
</trkpt>
<trkpt lat="56.727303" lon="8.249361">
<ele>7.585534</ele>
<time>2026-07-13T14:56:35.000Z</time>
</trkpt>
<trkpt lat="56.727352" lon="8.249364">
<ele>7.589945</ele>
<time>2026-07-13T14:56:36.000Z</time>
</trkpt>
<trkpt lat="56.727402" lon="8.249368">
<ele>7.594447</ele>
<time>2026-07-13T14:56:37.000Z</time>
</trkpt>
<trkpt lat="56.727455" lon="8.249371">
<ele>7.599218</ele>
<time>2026-07-13T14:56:38.000Z</time>
</trkpt>
<trkpt lat="56.727509" lon="8.249372">
<ele>7.604076</ele>
<time>2026-07-13T14:56:39.000Z</time>
</trkpt>
<trkpt lat="56.727562" lon="8.249374">
<ele>7.608846</ele>
<time>2026-07-13T14:56:40.000Z</time>
</trkpt>
<trkpt lat="56.727615" lon="8.249376">
<ele>7.613615</ele>
<time>2026-07-13T14:56:41.000Z</time>
</trkpt>
<trkpt lat="56.727665" lon="8.249379">
<ele>7.618116</ele>
<time>2026-07-13T14:56:42.000Z</time>
</trkpt>
<trkpt lat="56.727715" lon="8.249383">
<ele>7.622618</ele>
<time>2026-07-13T14:56:43.000Z</time>
</trkpt>
<trkpt lat="56.727768" lon="8.249386">
<ele>7.627389</ele>
<time>2026-07-13T14:56:44.000Z</time>
</trkpt>
<trkpt lat="56.727821" lon="8.249388">
<ele>7.632158</ele>
<time>2026-07-13T14:56:45.000Z</time>
</trkpt>
<trkpt lat="56.727875" lon="8.249390">
<ele>7.637017</ele>
<time>2026-07-13T14:56:46.000Z</time>
</trkpt>
<trkpt lat="56.727928" lon="8.249393">
<ele>7.641788</ele>
<time>2026-07-13T14:56:47.000Z</time>
</trkpt>
<trkpt lat="56.727978" lon="8.249397">
<ele>7.646290</ele>
<time>2026-07-13T14:56:48.000Z</time>
</trkpt>
<trkpt lat="56.728031" lon="8.249401">
<ele>7.651063</ele>
<time>2026-07-13T14:56:49.000Z</time>
</trkpt>
<trkpt lat="56.728081" lon="8.249402">
<ele>7.655561</ele>
<time>2026-07-13T14:56:50.000Z</time>
</trkpt>
<trkpt lat="56.728130" lon="8.249404">
<ele>7.659971</ele>
<time>2026-07-13T14:56:51.000Z</time>
</trkpt>
<trkpt lat="56.728184" lon="8.249408">
<ele>7.664833</ele>
<time>2026-07-13T14:56:52.000Z</time>
</trkpt>
<trkpt lat="56.728237" lon="8.249411">
<ele>7.669603</ele>
<time>2026-07-13T14:56:53.000Z</time>
</trkpt>
<trkpt lat="56.728287" lon="8.249413">
<ele>7.674103</ele>
<time>2026-07-13T14:56:54.000Z</time>
</trkpt>
<trkpt lat="56.728340" lon="8.249415">
<ele>7.676459</ele>
<time>2026-07-13T14:56:55.000Z</time>
</trkpt>
<trkpt lat="56.728390" lon="8.249417">
<ele>7.677366</ele>
<time>2026-07-13T14:56:56.000Z</time>
</trkpt>
<trkpt lat="56.728443" lon="8.249421">
<ele>7.678328</ele>
<time>2026-07-13T14:56:57.000Z</time>
</trkpt>
<trkpt lat="56.728493" lon="8.249424">
<ele>7.679236</ele>
<time>2026-07-13T14:56:58.000Z</time>
</trkpt>
<trkpt lat="56.728542" lon="8.249427">
<ele>7.680125</ele>
<time>2026-07-13T14:56:59.000Z</time>
</trkpt>
<trkpt lat="56.728592" lon="8.249428">
<ele>7.681032</ele>
<time>2026-07-13T14:57:00.000Z</time>
</trkpt>
<trkpt lat="56.728645" lon="8.249429">
<ele>7.681994</ele>
<time>2026-07-13T14:57:01.000Z</time>
</trkpt>
<trkpt lat="56.728695" lon="8.249431">
<ele>7.682901</ele>
<time>2026-07-13T14:57:02.000Z</time>
</trkpt>
<trkpt lat="56.728744" lon="8.249434">
<ele>7.683791</ele>
<time>2026-07-13T14:57:03.000Z</time>
</trkpt>
<trkpt lat="56.728794" lon="8.249437">
<ele>7.684698</ele>
<time>2026-07-13T14:57:04.000Z</time>
</trkpt>
<trkpt lat="56.728844" lon="8.249441">
<ele>7.685606</ele>
<time>2026-07-13T14:57:05.000Z</time>
</trkpt>
<trkpt lat="56.728897" lon="8.249444">
<ele>7.686568</ele>
<time>2026-07-13T14:57:06.000Z</time>
</trkpt>
<trkpt lat="56.728947" lon="8.249446">
<ele>7.687475</ele>
<time>2026-07-13T14:57:07.000Z</time>
</trkpt>
<trkpt lat="56.729000" lon="8.249448">
<ele>7.688437</ele>
<time>2026-07-13T14:57:08.000Z</time>
</trkpt>
<trkpt lat="56.729054" lon="8.249451">
<ele>7.689417</ele>
<time>2026-07-13T14:57:09.000Z</time>
</trkpt>
<trkpt lat="56.729107" lon="8.249455">
<ele>7.690379</ele>
<time>2026-07-13T14:57:10.000Z</time>
</trkpt>
<trkpt lat="56.729157" lon="8.249458">
<ele>7.691287</ele>
<time>2026-07-13T14:57:11.000Z</time>
</trkpt>
<trkpt lat="56.729210" lon="8.249463">
<ele>7.692250</ele>
<time>2026-07-13T14:57:12.000Z</time>
</trkpt>
<trkpt lat="56.729256" lon="8.249466">
<ele>7.693085</ele>
<time>2026-07-13T14:57:13.000Z</time>
</trkpt>
<trkpt lat="56.729313" lon="8.249470">
<ele>7.694120</ele>
<time>2026-07-13T14:57:14.000Z</time>
</trkpt>
<trkpt lat="56.729351" lon="8.249472">
<ele>7.694809</ele>
<time>2026-07-13T14:57:15.000Z</time>
</trkpt>
<trkpt lat="56.729408" lon="8.249474">
<ele>7.695844</ele>
<time>2026-07-13T14:57:16.000Z</time>
</trkpt>
<trkpt lat="56.729473" lon="8.249477">
<ele>7.697023</ele>
<time>2026-07-13T14:57:17.000Z</time>
</trkpt>
<trkpt lat="56.729523" lon="8.249481">
<ele>7.697931</ele>
<time>2026-07-13T14:57:18.000Z</time>
</trkpt>
<trkpt lat="56.729576" lon="8.249484">
<ele>7.698893</ele>
<time>2026-07-13T14:57:19.000Z</time>
</trkpt>
<trkpt lat="56.729626" lon="8.249488">
<ele>7.699801</ele>
<time>2026-07-13T14:57:20.000Z</time>
</trkpt>
<trkpt lat="56.729679" lon="8.249491">
<ele>7.700763</ele>
<time>2026-07-13T14:57:21.000Z</time>
</trkpt>
<trkpt lat="56.729729" lon="8.249495">
<ele>7.701671</ele>
<time>2026-07-13T14:57:22.000Z</time>
</trkpt>
<trkpt lat="56.729782" lon="8.249497">
<ele>7.702633</ele>
<time>2026-07-13T14:57:23.000Z</time>
</trkpt>
<trkpt lat="56.729832" lon="8.249501">
<ele>7.703541</ele>
<time>2026-07-13T14:57:24.000Z</time>
</trkpt>
<trkpt lat="56.729881" lon="8.249505">
<ele>7.704430</ele>
<time>2026-07-13T14:57:25.000Z</time>
</trkpt>
<trkpt lat="56.729931" lon="8.249511">
<ele>7.705339</ele>
<time>2026-07-13T14:57:26.000Z</time>
</trkpt>
<trkpt lat="56.729984" lon="8.249516">
<ele>7.706302</ele>
<time>2026-07-13T14:57:27.000Z</time>
</trkpt>
<trkpt lat="56.730034" lon="8.249523">
<ele>7.707212</ele>
<time>2026-07-13T14:57:28.000Z</time>
</trkpt>
<trkpt lat="56.730083" lon="8.249530">
<ele>7.708104</ele>
<time>2026-07-13T14:57:29.000Z</time>
</trkpt>
<trkpt lat="56.730133" lon="8.249535">
<ele>7.712785</ele>
<time>2026-07-13T14:57:30.000Z</time>
</trkpt>
<trkpt lat="56.730186" lon="8.249539">
<ele>7.720560</ele>
<time>2026-07-13T14:57:31.000Z</time>
</trkpt>
<trkpt lat="56.730236" lon="8.249542">
<ele>7.727892</ele>
<time>2026-07-13T14:57:32.000Z</time>
</trkpt>
<trkpt lat="56.730289" lon="8.249546">
<ele>7.735667</ele>
<time>2026-07-13T14:57:33.000Z</time>
</trkpt>
<trkpt lat="56.730339" lon="8.249549">
<ele>7.742999</ele>
<time>2026-07-13T14:57:34.000Z</time>
</trkpt>
<trkpt lat="56.730392" lon="8.249553">
<ele>7.750774</ele>
<time>2026-07-13T14:57:35.000Z</time>
</trkpt>
<trkpt lat="56.730446" lon="8.249556">
<ele>7.758692</ele>
<time>2026-07-13T14:57:36.000Z</time>
</trkpt>
<trkpt lat="56.730495" lon="8.249558">
<ele>7.765875</ele>
<time>2026-07-13T14:57:37.000Z</time>
</trkpt>
<trkpt lat="56.730553" lon="8.249561">
<ele>7.774379</ele>
<time>2026-07-13T14:57:38.000Z</time>
</trkpt>
<trkpt lat="56.730606" lon="8.249566">
<ele>7.782158</ele>
<time>2026-07-13T14:57:39.000Z</time>
</trkpt>
<trkpt lat="56.730656" lon="8.249569">
<ele>7.789490</ele>
<time>2026-07-13T14:57:40.000Z</time>
</trkpt>
<trkpt lat="56.730709" lon="8.249573">
<ele>7.797264</ele>
<time>2026-07-13T14:57:41.000Z</time>
</trkpt>
<trkpt lat="56.730759" lon="8.249576">
<ele>7.804597</ele>
<time>2026-07-13T14:57:42.000Z</time>
</trkpt>
<trkpt lat="56.730812" lon="8.249579">
<ele>7.812368</ele>
<time>2026-07-13T14:57:43.000Z</time>
</trkpt>
<trkpt lat="56.730866" lon="8.249581">
<ele>7.820284</ele>
<time>2026-07-13T14:57:44.000Z</time>
</trkpt>
<trkpt lat="56.730919" lon="8.249586">
<ele>7.828063</ele>
<time>2026-07-13T14:57:45.000Z</time>
</trkpt>
<trkpt lat="56.730968" lon="8.249589">
<ele>7.835249</ele>
<time>2026-07-13T14:57:46.000Z</time>
</trkpt>
<trkpt lat="56.731018" lon="8.249593">
<ele>7.842584</ele>
<time>2026-07-13T14:57:47.000Z</time>
</trkpt>
<trkpt lat="56.731068" lon="8.249594">
<ele>7.849912</ele>
<time>2026-07-13T14:57:48.000Z</time>
</trkpt>
<trkpt lat="56.731121" lon="8.249597">
<ele>7.857684</ele>
<time>2026-07-13T14:57:49.000Z</time>
</trkpt>
<trkpt lat="56.731174" lon="8.249603">
<ele>7.865467</ele>
<time>2026-07-13T14:57:50.000Z</time>
</trkpt>
<trkpt lat="56.731224" lon="8.249609">
<ele>7.872811</ele>
<time>2026-07-13T14:57:51.000Z</time>
</trkpt>
<trkpt lat="56.731274" lon="8.249613">
<ele>7.880146</ele>
<time>2026-07-13T14:57:52.000Z</time>
</trkpt>
<trkpt lat="56.731327" lon="8.249616">
<ele>7.887918</ele>
<time>2026-07-13T14:57:53.000Z</time>
</trkpt>
<trkpt lat="56.731377" lon="8.249618">
<ele>7.895248</ele>
<time>2026-07-13T14:57:54.000Z</time>
</trkpt>
<trkpt lat="56.731430" lon="8.249621">
<ele>7.903020</ele>
<time>2026-07-13T14:57:55.000Z</time>
</trkpt>
<trkpt lat="56.731480" lon="8.249624">
<ele>7.910352</ele>
<time>2026-07-13T14:57:56.000Z</time>
</trkpt>
<trkpt lat="56.731529" lon="8.249628">
<ele>7.917541</ele>
<time>2026-07-13T14:57:57.000Z</time>
</trkpt>
<trkpt lat="56.731579" lon="8.249631">
<ele>7.924873</ele>
<time>2026-07-13T14:57:58.000Z</time>
</trkpt>
<trkpt lat="56.731632" lon="8.249634">
<ele>7.932645</ele>
<time>2026-07-13T14:57:59.000Z</time>
</trkpt>
<trkpt lat="56.731682" lon="8.249636">
<ele>7.939975</ele>
<time>2026-07-13T14:58:00.000Z</time>
</trkpt>
<trkpt lat="56.731735" lon="8.249640">
<ele>7.947749</ele>
<time>2026-07-13T14:58:01.000Z</time>
</trkpt>
<trkpt lat="56.731789" lon="8.249644">
<ele>7.955670</ele>
<time>2026-07-13T14:58:02.000Z</time>
</trkpt>
<trkpt lat="56.731842" lon="8.249646">
<ele>7.963440</ele>
<time>2026-07-13T14:58:03.000Z</time>
</trkpt>
<trkpt lat="56.731892" lon="8.249648">
<ele>7.970770</ele>
<time>2026-07-13T14:58:04.000Z</time>
</trkpt>
<trkpt lat="56.731941" lon="8.249651">
<ele>7.977151</ele>
<time>2026-07-13T14:58:05.000Z</time>
</trkpt>
<trkpt lat="56.731983" lon="8.249656">
<ele>7.982472</ele>
<time>2026-07-13T14:58:06.000Z</time>
</trkpt>
<trkpt lat="56.732040" lon="8.249660">
<ele>7.989683</ele>
<time>2026-07-13T14:58:07.000Z</time>
</trkpt>
<trkpt lat="56.732094" lon="8.249662">
<ele>7.996512</ele>
<time>2026-07-13T14:58:08.000Z</time>
</trkpt>
<trkpt lat="56.732143" lon="8.249667">
<ele>8.002716</ele>
<time>2026-07-13T14:58:09.000Z</time>
</trkpt>
<trkpt lat="56.732193" lon="8.249671">
<ele>8.009044</ele>
<time>2026-07-13T14:58:10.000Z</time>
</trkpt>
<trkpt lat="56.732243" lon="8.249674">
<ele>8.015369</ele>
<time>2026-07-13T14:58:11.000Z</time>
</trkpt>
<trkpt lat="56.732296" lon="8.249678">
<ele>8.022075</ele>
<time>2026-07-13T14:58:12.000Z</time>
</trkpt>
<trkpt lat="56.732346" lon="8.249680">
<ele>8.028398</ele>
<time>2026-07-13T14:58:13.000Z</time>
</trkpt>
<trkpt lat="56.732395" lon="8.249682">
<ele>8.034594</ele>
<time>2026-07-13T14:58:14.000Z</time>
</trkpt>
<trkpt lat="56.732449" lon="8.249687">
<ele>8.041430</ele>
<time>2026-07-13T14:58:15.000Z</time>
</trkpt>
<trkpt lat="56.732502" lon="8.249692">
<ele>8.048139</ele>
<time>2026-07-13T14:58:16.000Z</time>
</trkpt>
<trkpt lat="56.732552" lon="8.249697">
<ele>8.054470</ele>
<time>2026-07-13T14:58:17.000Z</time>
</trkpt>
<trkpt lat="56.732601" lon="8.249702">
<ele>8.060675</ele>
<time>2026-07-13T14:58:18.000Z</time>
</trkpt>
<trkpt lat="56.732655" lon="8.249705">
<ele>8.067505</ele>
<time>2026-07-13T14:58:19.000Z</time>
</trkpt>
<trkpt lat="56.732708" lon="8.249707">
<ele>8.074207</ele>
<time>2026-07-13T14:58:20.000Z</time>
</trkpt>
<trkpt lat="56.732758" lon="8.249709">
<ele>8.080530</ele>
<time>2026-07-13T14:58:21.000Z</time>
</trkpt>
<trkpt lat="56.732807" lon="8.249713">
<ele>8.086731</ele>
<time>2026-07-13T14:58:22.000Z</time>
</trkpt>
<trkpt lat="56.732861" lon="8.249716">
<ele>8.093561</ele>
<time>2026-07-13T14:58:23.000Z</time>
</trkpt>
<trkpt lat="56.732910" lon="8.249719">
<ele>8.099759</ele>
<time>2026-07-13T14:58:24.000Z</time>
</trkpt>
<trkpt lat="56.732960" lon="8.249721">
<ele>8.106082</ele>
<time>2026-07-13T14:58:25.000Z</time>
</trkpt>
<trkpt lat="56.733013" lon="8.249722">
<ele>8.112783</ele>
<time>2026-07-13T14:58:26.000Z</time>
</trkpt>
<trkpt lat="56.733067" lon="8.249726">
<ele>8.119616</ele>
<time>2026-07-13T14:58:27.000Z</time>
</trkpt>
<trkpt lat="56.733120" lon="8.249731">
<ele>8.126325</ele>
<time>2026-07-13T14:58:28.000Z</time>
</trkpt>
<trkpt lat="56.733173" lon="8.249734">
<ele>8.133029</ele>
<time>2026-07-13T14:58:29.000Z</time>
</trkpt>
<trkpt lat="56.733223" lon="8.249738">
<ele>8.139357</ele>
<time>2026-07-13T14:58:30.000Z</time>
</trkpt>
<trkpt lat="56.733276" lon="8.249740">
<ele>8.146059</ele>
<time>2026-07-13T14:58:31.000Z</time>
</trkpt>
<trkpt lat="56.733330" lon="8.249745">
<ele>8.152894</ele>
<time>2026-07-13T14:58:32.000Z</time>
</trkpt>
<trkpt lat="56.733383" lon="8.249751">
<ele>8.159608</ele>
<time>2026-07-13T14:58:33.000Z</time>
</trkpt>
<trkpt lat="56.733433" lon="8.249756">
<ele>8.165939</ele>
<time>2026-07-13T14:58:34.000Z</time>
</trkpt>
<trkpt lat="56.733479" lon="8.249758">
<ele>8.171756</ele>
<time>2026-07-13T14:58:35.000Z</time>
</trkpt>
<trkpt lat="56.733528" lon="8.249762">
<ele>8.177957</ele>
<time>2026-07-13T14:58:36.000Z</time>
</trkpt>
<trkpt lat="56.733578" lon="8.249766">
<ele>8.184284</ele>
<time>2026-07-13T14:58:37.000Z</time>
</trkpt>
<trkpt lat="56.733631" lon="8.249771">
<ele>8.190994</ele>
<time>2026-07-13T14:58:38.000Z</time>
</trkpt>
<trkpt lat="56.733677" lon="8.249772">
<ele>8.196810</ele>
<time>2026-07-13T14:58:39.000Z</time>
</trkpt>
<trkpt lat="56.733727" lon="8.249774">
<ele>8.201263</ele>
<time>2026-07-13T14:58:40.000Z</time>
</trkpt>
<trkpt lat="56.733776" lon="8.249778">
<ele>8.204279</ele>
<time>2026-07-13T14:58:41.000Z</time>
</trkpt>
<trkpt lat="56.733822" lon="8.249781">
<ele>8.207110</ele>
<time>2026-07-13T14:58:42.000Z</time>
</trkpt>
<trkpt lat="56.733871" lon="8.249784">
<ele>8.210125</ele>
<time>2026-07-13T14:58:43.000Z</time>
</trkpt>
<trkpt lat="56.733921" lon="8.249787">
<ele>8.213201</ele>
<time>2026-07-13T14:58:44.000Z</time>
</trkpt>
<trkpt lat="56.733974" lon="8.249789">
<ele>8.216461</ele>
<time>2026-07-13T14:58:45.000Z</time>
</trkpt>
<trkpt lat="56.734024" lon="8.249792">
<ele>8.219537</ele>
<time>2026-07-13T14:58:46.000Z</time>
</trkpt>
<trkpt lat="56.734074" lon="8.249798">
<ele>8.222619</ele>
<time>2026-07-13T14:58:47.000Z</time>
</trkpt>
<trkpt lat="56.734127" lon="8.249800">
<ele>8.225879</ele>
<time>2026-07-13T14:58:48.000Z</time>
</trkpt>
<trkpt lat="56.734180" lon="8.249801">
<ele>8.229138</ele>
<time>2026-07-13T14:58:49.000Z</time>
</trkpt>
<trkpt lat="56.734230" lon="8.249804">
<ele>8.232214</ele>
<time>2026-07-13T14:58:50.000Z</time>
</trkpt>
<trkpt lat="56.734283" lon="8.249808">
<ele>8.235476</ele>
<time>2026-07-13T14:58:51.000Z</time>
</trkpt>
<trkpt lat="56.734337" lon="8.249815">
<ele>8.238806</ele>
<time>2026-07-13T14:58:52.000Z</time>
</trkpt>
<trkpt lat="56.734386" lon="8.249821">
<ele>8.241826</ele>
<time>2026-07-13T14:58:53.000Z</time>
</trkpt>
<trkpt lat="56.734436" lon="8.249824">
<ele>8.244902</ele>
<time>2026-07-13T14:58:54.000Z</time>
</trkpt>
<trkpt lat="56.734486" lon="8.249827">
<ele>8.247978</ele>
<time>2026-07-13T14:58:55.000Z</time>
</trkpt>
<trkpt lat="56.734539" lon="8.249829">
<ele>8.251238</ele>
<time>2026-07-13T14:58:56.000Z</time>
</trkpt>
<trkpt lat="56.734589" lon="8.249833">
<ele>8.254316</ele>
<time>2026-07-13T14:58:57.000Z</time>
</trkpt>
<trkpt lat="56.734642" lon="8.249838">
<ele>8.257579</ele>
<time>2026-07-13T14:58:58.000Z</time>
</trkpt>
<trkpt lat="56.734692" lon="8.249841">
<ele>8.260656</ele>
<time>2026-07-13T14:58:59.000Z</time>
</trkpt>
<trkpt lat="56.734745" lon="8.249844">
<ele>8.263917</ele>
<time>2026-07-13T14:59:00.000Z</time>
</trkpt>
<trkpt lat="56.734795" lon="8.249846">
<ele>8.266992</ele>
<time>2026-07-13T14:59:01.000Z</time>
</trkpt>
<trkpt lat="56.734848" lon="8.249850">
<ele>8.270254</ele>
<time>2026-07-13T14:59:02.000Z</time>
</trkpt>
<trkpt lat="56.734898" lon="8.249854">
<ele>8.273332</ele>
<time>2026-07-13T14:59:03.000Z</time>
</trkpt>
<trkpt lat="56.734943" lon="8.249858">
<ele>8.276102</ele>
<time>2026-07-13T14:59:04.000Z</time>
</trkpt>
<trkpt lat="56.734997" lon="8.249863">
<ele>8.279427</ele>
<time>2026-07-13T14:59:05.000Z</time>
</trkpt>
<trkpt lat="56.735050" lon="8.249865">
<ele>8.282687</ele>
<time>2026-07-13T14:59:06.000Z</time>
</trkpt>
<trkpt lat="56.735100" lon="8.249867">
<ele>8.285763</ele>
<time>2026-07-13T14:59:07.000Z</time>
</trkpt>
<trkpt lat="56.735149" lon="8.249871">
<ele>8.288779</ele>
<time>2026-07-13T14:59:08.000Z</time>
</trkpt>
<trkpt lat="56.735199" lon="8.249874">
<ele>8.291855</ele>
<time>2026-07-13T14:59:09.000Z</time>
</trkpt>
<trkpt lat="56.735252" lon="8.249880">
<ele>8.295121</ele>
<time>2026-07-13T14:59:10.000Z</time>
</trkpt>
<trkpt lat="56.735302" lon="8.249886">
<ele>8.298202</ele>
<time>2026-07-13T14:59:11.000Z</time>
</trkpt>
<trkpt lat="56.735355" lon="8.249889">
<ele>8.301463</ele>
<time>2026-07-13T14:59:12.000Z</time>
</trkpt>
<trkpt lat="56.735405" lon="8.249892">
<ele>8.304539</ele>
<time>2026-07-13T14:59:13.000Z</time>
</trkpt>
<trkpt lat="56.735458" lon="8.249896">
<ele>8.307801</ele>
<time>2026-07-13T14:59:14.000Z</time>
</trkpt>
<trkpt lat="56.735508" lon="8.249898">
<ele>8.310247</ele>
<time>2026-07-13T14:59:15.000Z</time>
</trkpt>
<trkpt lat="56.735558" lon="8.249901">
<ele>8.310832</ele>
<time>2026-07-13T14:59:16.000Z</time>
</trkpt>
<trkpt lat="56.735607" lon="8.249905">
<ele>8.311406</ele>
<time>2026-07-13T14:59:17.000Z</time>
</trkpt>
<trkpt lat="56.735657" lon="8.249909">
<ele>8.311991</ele>
<time>2026-07-13T14:59:18.000Z</time>
</trkpt>
<trkpt lat="56.735706" lon="8.249911">
<ele>8.312565</ele>
<time>2026-07-13T14:59:19.000Z</time>
</trkpt>
<trkpt lat="56.735756" lon="8.249911">
<ele>8.313150</ele>
<time>2026-07-13T14:59:20.000Z</time>
</trkpt>
<trkpt lat="56.735806" lon="8.249911">
<ele>8.313735</ele>
<time>2026-07-13T14:59:21.000Z</time>
</trkpt>
<trkpt lat="56.735855" lon="8.249913">
<ele>8.314308</ele>
<time>2026-07-13T14:59:22.000Z</time>
</trkpt>
<trkpt lat="56.735901" lon="8.249918">
<ele>8.314847</ele>
<time>2026-07-13T14:59:23.000Z</time>
</trkpt>
<trkpt lat="56.735947" lon="8.249921">
<ele>8.315386</ele>
<time>2026-07-13T14:59:24.000Z</time>
</trkpt>
<trkpt lat="56.735996" lon="8.249925">
<ele>8.315959</ele>
<time>2026-07-13T14:59:25.000Z</time>
</trkpt>
<trkpt lat="56.736046" lon="8.249929">
<ele>8.316545</ele>
<time>2026-07-13T14:59:26.000Z</time>
</trkpt>
<trkpt lat="56.736095" lon="8.249932">
<ele>8.317118</ele>
<time>2026-07-13T14:59:27.000Z</time>
</trkpt>
<trkpt lat="56.736149" lon="8.249936">
<ele>8.317751</ele>
<time>2026-07-13T14:59:28.000Z</time>
</trkpt>
<trkpt lat="56.736198" lon="8.249940">
<ele>8.318324</ele>
<time>2026-07-13T14:59:29.000Z</time>
</trkpt>
<trkpt lat="56.736252" lon="8.249946">
<ele>8.318957</ele>
<time>2026-07-13T14:59:30.000Z</time>
</trkpt>
<trkpt lat="56.736305" lon="8.249949">
<ele>8.319578</ele>
<time>2026-07-13T14:59:31.000Z</time>
</trkpt>
<trkpt lat="56.736359" lon="8.249952">
<ele>8.320210</ele>
<time>2026-07-13T14:59:32.000Z</time>
</trkpt>
<trkpt lat="56.736412" lon="8.249956">
<ele>8.320830</ele>
<time>2026-07-13T14:59:33.000Z</time>
</trkpt>
<trkpt lat="56.736465" lon="8.249958">
<ele>8.321450</ele>
<time>2026-07-13T14:59:34.000Z</time>
</trkpt>
<trkpt lat="56.736515" lon="8.249961">
<ele>8.322036</ele>
<time>2026-07-13T14:59:35.000Z</time>
</trkpt>
<trkpt lat="56.736568" lon="8.249963">
<ele>8.322656</ele>
<time>2026-07-13T14:59:36.000Z</time>
</trkpt>
<trkpt lat="56.736618" lon="8.249965">
<ele>8.323241</ele>
<time>2026-07-13T14:59:37.000Z</time>
</trkpt>
<trkpt lat="56.736671" lon="8.249968">
<ele>8.323861</ele>
<time>2026-07-13T14:59:38.000Z</time>
</trkpt>
<trkpt lat="56.736721" lon="8.249971">
<ele>8.324446</ele>
<time>2026-07-13T14:59:39.000Z</time>
</trkpt>
<trkpt lat="56.736774" lon="8.249976">
<ele>8.325067</ele>
<time>2026-07-13T14:59:40.000Z</time>
</trkpt>
<trkpt lat="56.736828" lon="8.249981">
<ele>8.325700</ele>
<time>2026-07-13T14:59:41.000Z</time>
</trkpt>
<trkpt lat="56.736874" lon="8.249987">
<ele>8.326239</ele>
<time>2026-07-13T14:59:42.000Z</time>
</trkpt>
<trkpt lat="56.736927" lon="8.249992">
<ele>8.326860</ele>
<time>2026-07-13T14:59:43.000Z</time>
</trkpt>
<trkpt lat="56.736980" lon="8.249996">
<ele>8.327481</ele>
<time>2026-07-13T14:59:44.000Z</time>
</trkpt>
<trkpt lat="56.737034" lon="8.249999">
<ele>8.328113</ele>
<time>2026-07-13T14:59:45.000Z</time>
</trkpt>
<trkpt lat="56.737083" lon="8.250002">
<ele>8.328686</ele>
<time>2026-07-13T14:59:46.000Z</time>
</trkpt>
<trkpt lat="56.737137" lon="8.250004">
<ele>8.329318</ele>
<time>2026-07-13T14:59:47.000Z</time>
</trkpt>
<trkpt lat="56.737190" lon="8.250006">
<ele>8.329938</ele>
<time>2026-07-13T14:59:48.000Z</time>
</trkpt>
<trkpt lat="56.737240" lon="8.250010">
<ele>8.330524</ele>
<time>2026-07-13T14:59:49.000Z</time>
</trkpt>
<trkpt lat="56.737286" lon="8.250012">
<ele>8.331062</ele>
<time>2026-07-13T14:59:50.000Z</time>
</trkpt>
<trkpt lat="56.737347" lon="8.250018">
<ele>8.336054</ele>
<time>2026-07-13T14:59:51.000Z</time>
</trkpt>
<trkpt lat="56.737396" lon="8.250024">
<ele>8.340489</ele>
<time>2026-07-13T14:59:52.000Z</time>
</trkpt>
<trkpt lat="56.737446" lon="8.250028">
<ele>8.345010</ele>
<time>2026-07-13T14:59:53.000Z</time>
</trkpt>
<trkpt lat="56.737499" lon="8.250031">
<ele>8.349799</ele>
<time>2026-07-13T14:59:54.000Z</time>
</trkpt>
<trkpt lat="56.737549" lon="8.250034">
<ele>8.354317</ele>
<time>2026-07-13T14:59:55.000Z</time>
</trkpt>
<trkpt lat="56.737602" lon="8.250035">
<ele>8.359105</ele>
<time>2026-07-13T14:59:56.000Z</time>
</trkpt>
<trkpt lat="56.737652" lon="8.250038">
<ele>8.363623</ele>
<time>2026-07-13T14:59:57.000Z</time>
</trkpt>
<trkpt lat="56.737705" lon="8.250045">
<ele>8.368422</ele>
<time>2026-07-13T14:59:58.000Z</time>
</trkpt>
<trkpt lat="56.737755" lon="8.250050">
<ele>8.372945</ele>
<time>2026-07-13T14:59:59.000Z</time>
</trkpt>
<trkpt lat="56.737804" lon="8.250052">
<ele>8.377372</ele>
<time>2026-07-13T15:00:00.000Z</time>
</trkpt>
<trkpt lat="56.737854" lon="8.250056">
<ele>8.381892</ele>
<time>2026-07-13T15:00:01.000Z</time>
</trkpt>
<trkpt lat="56.737904" lon="8.250059">
<ele>8.386411</ele>
<time>2026-07-13T15:00:02.000Z</time>
</trkpt>
<trkpt lat="56.737957" lon="8.250061">
<ele>8.391199</ele>
<time>2026-07-13T15:00:03.000Z</time>
</trkpt>
<trkpt lat="56.738010" lon="8.250062">
<ele>8.395986</ele>
<time>2026-07-13T15:00:04.000Z</time>
</trkpt>
<trkpt lat="56.738060" lon="8.250064">
<ele>8.400503</ele>
<time>2026-07-13T15:00:05.000Z</time>
</trkpt>
<trkpt lat="56.738113" lon="8.250068">
<ele>8.405294</ele>
<time>2026-07-13T15:00:06.000Z</time>
</trkpt>
<trkpt lat="56.738163" lon="8.250071">
<ele>8.409813</ele>
<time>2026-07-13T15:00:07.000Z</time>
</trkpt>
<trkpt lat="56.738216" lon="8.250074">
<ele>8.414602</ele>
<time>2026-07-13T15:00:08.000Z</time>
</trkpt>
<trkpt lat="56.738270" lon="8.250080">
<ele>8.419488</ele>
<time>2026-07-13T15:00:09.000Z</time>
</trkpt>
<trkpt lat="56.738319" lon="8.250084">
<ele>8.423918</ele>
<time>2026-07-13T15:00:10.000Z</time>
</trkpt>
<trkpt lat="56.738369" lon="8.250088">
<ele>8.428439</ele>
<time>2026-07-13T15:00:11.000Z</time>
</trkpt>
<trkpt lat="56.738419" lon="8.250092">
<ele>8.432959</ele>
<time>2026-07-13T15:00:12.000Z</time>
</trkpt>
<trkpt lat="56.738468" lon="8.250095">
<ele>8.437387</ele>
<time>2026-07-13T15:00:13.000Z</time>
</trkpt>
<trkpt lat="56.738522" lon="8.250098">
<ele>8.442267</ele>
<time>2026-07-13T15:00:14.000Z</time>
</trkpt>
<trkpt lat="56.738567" lon="8.250103">
<ele>8.446339</ele>
<time>2026-07-13T15:00:15.000Z</time>
</trkpt>
<trkpt lat="56.738625" lon="8.250106">
<ele>8.451579</ele>
<time>2026-07-13T15:00:16.000Z</time>
</trkpt>
<trkpt lat="56.738670" lon="8.250111">
<ele>8.455651</ele>
<time>2026-07-13T15:00:17.000Z</time>
</trkpt>
<trkpt lat="56.738724" lon="8.250115">
<ele>8.460533</ele>
<time>2026-07-13T15:00:18.000Z</time>
</trkpt>
<trkpt lat="56.738770" lon="8.250121">
<ele>8.464698</ele>
<time>2026-07-13T15:00:19.000Z</time>
</trkpt>
<trkpt lat="56.738815" lon="8.250124">
<ele>8.468765</ele>
<time>2026-07-13T15:00:20.000Z</time>
</trkpt>
<trkpt lat="56.738869" lon="8.250126">
<ele>8.473643</ele>
<time>2026-07-13T15:00:21.000Z</time>
</trkpt>
<trkpt lat="56.738922" lon="8.250130">
<ele>8.478434</ele>
<time>2026-07-13T15:00:22.000Z</time>
</trkpt>
<trkpt lat="56.738972" lon="8.250134">
<ele>8.482955</ele>
<time>2026-07-13T15:00:23.000Z</time>
</trkpt>
<trkpt lat="56.739017" lon="8.250137">
<ele>8.487022</ele>
<time>2026-07-13T15:00:24.000Z</time>
</trkpt>
<trkpt lat="56.739071" lon="8.250139">
<ele>8.491900</ele>
<time>2026-07-13T15:00:25.000Z</time>
</trkpt>
<trkpt lat="56.739121" lon="8.250143">
<ele>8.499752</ele>
<time>2026-07-13T15:00:26.000Z</time>
</trkpt>
<trkpt lat="56.739170" lon="8.250148">
<ele>8.509409</ele>
<time>2026-07-13T15:00:27.000Z</time>
</trkpt>
<trkpt lat="56.739220" lon="8.250151">
<ele>8.519253</ele>
<time>2026-07-13T15:00:28.000Z</time>
</trkpt>
<trkpt lat="56.739269" lon="8.250154">
<ele>8.528900</ele>
<time>2026-07-13T15:00:29.000Z</time>
</trkpt>
<trkpt lat="56.739323" lon="8.250156">
<ele>8.539527</ele>
<time>2026-07-13T15:00:30.000Z</time>
</trkpt>
<trkpt lat="56.739372" lon="8.250159">
<ele>8.549174</ele>
<time>2026-07-13T15:00:31.000Z</time>
</trkpt>
<trkpt lat="56.739422" lon="8.250161">
<ele>8.559015</ele>
<time>2026-07-13T15:00:32.000Z</time>
</trkpt>
<trkpt lat="56.739475" lon="8.250165">
<ele>8.569453</ele>
<time>2026-07-13T15:00:33.000Z</time>
</trkpt>
<trkpt lat="56.739525" lon="8.250170">
<ele>8.579306</ele>
<time>2026-07-13T15:00:34.000Z</time>
</trkpt>
<trkpt lat="56.739571" lon="8.250175">
<ele>8.588373</ele>
<time>2026-07-13T15:00:35.000Z</time>
</trkpt>
<trkpt lat="56.739624" lon="8.250178">
<ele>8.598807</ele>
<time>2026-07-13T15:00:36.000Z</time>
</trkpt>
<trkpt lat="56.739674" lon="8.250182">
<ele>8.608655</ele>
<time>2026-07-13T15:00:37.000Z</time>
</trkpt>
<trkpt lat="56.739723" lon="8.250186">
<ele>8.618306</ele>
<time>2026-07-13T15:00:38.000Z</time>
</trkpt>
<trkpt lat="56.739765" lon="8.250187">
<ele>8.626571</ele>
<time>2026-07-13T15:00:39.000Z</time>
</trkpt>
<trkpt lat="56.739826" lon="8.250189">
<ele>8.638576</ele>
<time>2026-07-13T15:00:40.000Z</time>
</trkpt>
<trkpt lat="56.739872" lon="8.250192">
<ele>8.647633</ele>
<time>2026-07-13T15:00:41.000Z</time>
</trkpt>
<trkpt lat="56.739929" lon="8.250195">
<ele>8.658854</ele>
<time>2026-07-13T15:00:42.000Z</time>
</trkpt>
<trkpt lat="56.739983" lon="8.250199">
<ele>8.669488</ele>
<time>2026-07-13T15:00:43.000Z</time>
</trkpt>
<trkpt lat="56.740032" lon="8.250204">
<ele>8.679145</ele>
<time>2026-07-13T15:00:44.000Z</time>
</trkpt>
<trkpt lat="56.740082" lon="8.250209">
<ele>8.688998</ele>
<time>2026-07-13T15:00:45.000Z</time>
</trkpt>
<trkpt lat="56.740131" lon="8.250210">
<ele>8.698640</ele>
<time>2026-07-13T15:00:46.000Z</time>
</trkpt>
<trkpt lat="56.740181" lon="8.250212">
<ele>8.708481</ele>
<time>2026-07-13T15:00:47.000Z</time>
</trkpt>
<trkpt lat="56.740227" lon="8.250216">
<ele>8.717542</ele>
<time>2026-07-13T15:00:48.000Z</time>
</trkpt>
<trkpt lat="56.740280" lon="8.250217">
<ele>8.727972</ele>
<time>2026-07-13T15:00:49.000Z</time>
</trkpt>
<trkpt lat="56.740330" lon="8.250220">
<ele>8.737816</ele>
<time>2026-07-13T15:00:50.000Z</time>
</trkpt>
<trkpt lat="56.740383" lon="8.250222">
<ele>8.748246</ele>
<time>2026-07-13T15:00:51.000Z</time>
</trkpt>
<trkpt lat="56.740433" lon="8.250224">
<ele>8.758087</ele>
<time>2026-07-13T15:00:52.000Z</time>
</trkpt>
<trkpt lat="56.740482" lon="8.250226">
<ele>8.767731</ele>
<time>2026-07-13T15:00:53.000Z</time>
</trkpt>
<trkpt lat="56.740536" lon="8.250228">
<ele>8.778359</ele>
<time>2026-07-13T15:00:54.000Z</time>
</trkpt>
<trkpt lat="56.740585" lon="8.250231">
<ele>8.788006</ele>
<time>2026-07-13T15:00:55.000Z</time>
</trkpt>
<trkpt lat="56.740635" lon="8.250236">
<ele>8.797859</ele>
<time>2026-07-13T15:00:56.000Z</time>
</trkpt>
<trkpt lat="56.740681" lon="8.250238">
<ele>8.806913</ele>
<time>2026-07-13T15:00:57.000Z</time>
</trkpt>
<trkpt lat="56.740723" lon="8.250240">
<ele>8.815180</ele>
<time>2026-07-13T15:00:58.000Z</time>
</trkpt>
<trkpt lat="56.740780" lon="8.250241">
<ele>8.826397</ele>
<time>2026-07-13T15:00:59.000Z</time>
</trkpt>
<trkpt lat="56.740833" lon="8.250244">
<ele>8.836830</ele>
<time>2026-07-13T15:01:00.000Z</time>
</trkpt>
<trkpt lat="56.740883" lon="8.250249">
<ele>8.846683</ele>
<time>2026-07-13T15:01:01.000Z</time>
</trkpt>
<trkpt lat="56.740932" lon="8.250253">
<ele>8.844914</ele>
<time>2026-07-13T15:01:02.000Z</time>
</trkpt>
<trkpt lat="56.740982" lon="8.250256">
<ele>8.842018</ele>
<time>2026-07-13T15:01:03.000Z</time>
</trkpt>
<trkpt lat="56.741035" lon="8.250262">
<ele>8.838945</ele>
<time>2026-07-13T15:01:04.000Z</time>
</trkpt>
<trkpt lat="56.741085" lon="8.250267">
<ele>8.836047</ele>
<time>2026-07-13T15:01:05.000Z</time>
</trkpt>
<trkpt lat="56.741131" lon="8.250273">
<ele>8.833377</ele>
<time>2026-07-13T15:01:06.000Z</time>
</trkpt>
<trkpt lat="56.741188" lon="8.250278">
<ele>8.830074</ele>
<time>2026-07-13T15:01:07.000Z</time>
</trkpt>
<trkpt lat="56.741241" lon="8.250279">
<ele>8.827007</ele>
<time>2026-07-13T15:01:08.000Z</time>
</trkpt>
<trkpt lat="56.741291" lon="8.250279">
<ele>8.824113</ele>
<time>2026-07-13T15:01:09.000Z</time>
</trkpt>
<trkpt lat="56.741344" lon="8.250280">
<ele>8.821045</ele>
<time>2026-07-13T15:01:10.000Z</time>
</trkpt>
<trkpt lat="56.741394" lon="8.250282">
<ele>8.818151</ele>
<time>2026-07-13T15:01:11.000Z</time>
</trkpt>
<trkpt lat="56.741447" lon="8.250287">
<ele>8.815079</ele>
<time>2026-07-13T15:01:12.000Z</time>
</trkpt>
<trkpt lat="56.741497" lon="8.250291">
<ele>8.812182</ele>
<time>2026-07-13T15:01:13.000Z</time>
</trkpt>
<trkpt lat="56.741550" lon="8.250295">
<ele>8.809112</ele>
<time>2026-07-13T15:01:14.000Z</time>
</trkpt>
<trkpt lat="56.741600" lon="8.250298">
<ele>8.806217</ele>
<time>2026-07-13T15:01:15.000Z</time>
</trkpt>
<trkpt lat="56.741653" lon="8.250304">
<ele>8.803143</ele>
<time>2026-07-13T15:01:16.000Z</time>
</trkpt>
<trkpt lat="56.741707" lon="8.250312">
<ele>8.800007</ele>
<time>2026-07-13T15:01:17.000Z</time>
</trkpt>
<trkpt lat="56.741756" lon="8.250317">
<ele>8.797167</ele>
<time>2026-07-13T15:01:18.000Z</time>
</trkpt>
<trkpt lat="56.741810" lon="8.250321">
<ele>8.794039</ele>
<time>2026-07-13T15:01:19.000Z</time>
</trkpt>
<trkpt lat="56.741859" lon="8.250323">
<ele>8.791202</ele>
<time>2026-07-13T15:01:20.000Z</time>
</trkpt>
<trkpt lat="56.741913" lon="8.250324">
<ele>8.788077</ele>
<time>2026-07-13T15:01:21.000Z</time>
</trkpt>
<trkpt lat="56.741962" lon="8.250327">
<ele>8.785239</ele>
<time>2026-07-13T15:01:22.000Z</time>
</trkpt>
<trkpt lat="56.742016" lon="8.250332">
<ele>8.782110</ele>
<time>2026-07-13T15:01:23.000Z</time>
</trkpt>
<trkpt lat="56.742069" lon="8.250336">
<ele>8.779040</ele>
<time>2026-07-13T15:01:24.000Z</time>
</trkpt>
<trkpt lat="56.742119" lon="8.250339">
<ele>8.776144</ele>
<time>2026-07-13T15:01:25.000Z</time>
</trkpt>
<trkpt lat="56.742172" lon="8.250342">
<ele>8.773075</ele>
<time>2026-07-13T15:01:26.000Z</time>
</trkpt>
<trkpt lat="56.742222" lon="8.250346">
<ele>8.770178</ele>
<time>2026-07-13T15:01:27.000Z</time>
</trkpt>
<trkpt lat="56.742275" lon="8.250349">
<ele>8.767109</ele>
<time>2026-07-13T15:01:28.000Z</time>
</trkpt>
<trkpt lat="56.742329" lon="8.250351">
<ele>8.763983</ele>
<time>2026-07-13T15:01:29.000Z</time>
</trkpt>
<trkpt lat="56.742382" lon="8.250353">
<ele>8.760915</ele>
<time>2026-07-13T15:01:30.000Z</time>
</trkpt>
<trkpt lat="56.742435" lon="8.250356">
<ele>8.757846</ele>
<time>2026-07-13T15:01:31.000Z</time>
</trkpt>
<trkpt lat="56.742485" lon="8.250360">
<ele>8.754949</ele>
<time>2026-07-13T15:01:32.000Z</time>
</trkpt>
<trkpt lat="56.742531" lon="8.250364">
<ele>8.752284</ele>
<time>2026-07-13T15:01:33.000Z</time>
</trkpt>
<trkpt lat="56.742588" lon="8.250367">
<ele>8.748984</ele>
<time>2026-07-13T15:01:34.000Z</time>
</trkpt>
<trkpt lat="56.742641" lon="8.250369">
<ele>8.745915</ele>
<time>2026-07-13T15:01:35.000Z</time>
</trkpt>
<trkpt lat="56.742691" lon="8.250371">
<ele>8.743745</ele>
<time>2026-07-13T15:01:36.000Z</time>
</trkpt>
<trkpt lat="56.742741" lon="8.250372">
<ele>8.746268</ele>
<time>2026-07-13T15:01:37.000Z</time>
</trkpt>
<trkpt lat="56.742790" lon="8.250375">
<ele>8.748742</ele>
<time>2026-07-13T15:01:38.000Z</time>
</trkpt>
<trkpt lat="56.742844" lon="8.250381">
<ele>8.751472</ele>
<time>2026-07-13T15:01:39.000Z</time>
</trkpt>
<trkpt lat="56.742893" lon="8.250387">
<ele>8.753949</ele>
<time>2026-07-13T15:01:40.000Z</time>
</trkpt>
<trkpt lat="56.742943" lon="8.250393">
<ele>8.756478</ele>
<time>2026-07-13T15:01:41.000Z</time>
</trkpt>
<trkpt lat="56.742992" lon="8.250396">
<ele>8.758952</ele>
<time>2026-07-13T15:01:42.000Z</time>
</trkpt>
<trkpt lat="56.743046" lon="8.250398">
<ele>8.761677</ele>
<time>2026-07-13T15:01:43.000Z</time>
</trkpt>
<trkpt lat="56.743095" lon="8.250401">
<ele>8.764151</ele>
<time>2026-07-13T15:01:44.000Z</time>
</trkpt>
<trkpt lat="56.743141" lon="8.250404">
<ele>8.766473</ele>
<time>2026-07-13T15:01:45.000Z</time>
</trkpt>
<trkpt lat="56.743195" lon="8.250407">
<ele>8.769199</ele>
<time>2026-07-13T15:01:46.000Z</time>
</trkpt>
<trkpt lat="56.743248" lon="8.250409">
<ele>8.771874</ele>
<time>2026-07-13T15:01:47.000Z</time>
</trkpt>
<trkpt lat="56.743298" lon="8.250413">
<ele>8.774399</ele>
<time>2026-07-13T15:01:48.000Z</time>
</trkpt>
<trkpt lat="56.743351" lon="8.250416">
<ele>8.777075</ele>
<time>2026-07-13T15:01:49.000Z</time>
</trkpt>
<trkpt lat="56.743401" lon="8.250422">
<ele>8.779603</ele>
<time>2026-07-13T15:01:50.000Z</time>
</trkpt>
<trkpt lat="56.743450" lon="8.250426">
<ele>8.782078</ele>
<time>2026-07-13T15:01:51.000Z</time>
</trkpt>
<trkpt lat="56.743504" lon="8.250429">
<ele>8.784804</ele>
<time>2026-07-13T15:01:52.000Z</time>
</trkpt>
<trkpt lat="56.743553" lon="8.250432">
<ele>8.787278</ele>
<time>2026-07-13T15:01:53.000Z</time>
</trkpt>
<trkpt lat="56.743603" lon="8.250435">
<ele>8.789802</ele>
<time>2026-07-13T15:01:54.000Z</time>
</trkpt>
<trkpt lat="56.743656" lon="8.250440">
<ele>8.792480</ele>
<time>2026-07-13T15:01:55.000Z</time>
</trkpt>
<trkpt lat="56.743702" lon="8.250444">
<ele>8.794803</ele>
<time>2026-07-13T15:01:56.000Z</time>
</trkpt>
<trkpt lat="56.743748" lon="8.250448">
<ele>8.797127</ele>
<time>2026-07-13T15:01:57.000Z</time>
</trkpt>
<trkpt lat="56.743809" lon="8.250453">
<ele>8.800208</ele>
<time>2026-07-13T15:01:58.000Z</time>
</trkpt>
<trkpt lat="56.743862" lon="8.250458">
<ele>8.802886</ele>
<time>2026-07-13T15:01:59.000Z</time>
</trkpt>
<trkpt lat="56.743912" lon="8.250459">
<ele>8.805409</ele>
<time>2026-07-13T15:02:00.000Z</time>
</trkpt>
<trkpt lat="56.743961" lon="8.250461">
<ele>8.807882</ele>
<time>2026-07-13T15:02:01.000Z</time>
</trkpt>
<trkpt lat="56.744015" lon="8.250464">
<ele>8.810608</ele>
<time>2026-07-13T15:02:02.000Z</time>
</trkpt>
<trkpt lat="56.744064" lon="8.250468">
<ele>8.813083</ele>
<time>2026-07-13T15:02:03.000Z</time>
</trkpt>
<trkpt lat="56.744114" lon="8.250473">
<ele>8.815609</ele>
<time>2026-07-13T15:02:04.000Z</time>
</trkpt>
<trkpt lat="56.744163" lon="8.250476">
<ele>8.818083</ele>
<time>2026-07-13T15:02:05.000Z</time>
</trkpt>
<trkpt lat="56.744217" lon="8.250480">
<ele>8.820810</ele>
<time>2026-07-13T15:02:06.000Z</time>
</trkpt>
<trkpt lat="56.744270" lon="8.250483">
<ele>8.823486</ele>
<time>2026-07-13T15:02:07.000Z</time>
</trkpt>
<trkpt lat="56.744320" lon="8.250485">
<ele>8.826009</ele>
<time>2026-07-13T15:02:08.000Z</time>
</trkpt>
<trkpt lat="56.744370" lon="8.250489">
<ele>8.828534</ele>
<time>2026-07-13T15:02:09.000Z</time>
</trkpt>
<trkpt lat="56.744423" lon="8.250493">
<ele>8.831211</ele>
<time>2026-07-13T15:02:10.000Z</time>
</trkpt>
<trkpt lat="56.744473" lon="8.250496">
<ele>8.833735</ele>
<time>2026-07-13T15:02:11.000Z</time>
</trkpt>
<trkpt lat="56.744526" lon="8.250498">
<ele>8.837435</ele>
<time>2026-07-13T15:02:12.000Z</time>
</trkpt>
<trkpt lat="56.744579" lon="8.250501">
<ele>8.841330</ele>
<time>2026-07-13T15:02:13.000Z</time>
</trkpt>
<trkpt lat="56.744633" lon="8.250505">
<ele>8.845301</ele>
<time>2026-07-13T15:02:14.000Z</time>
</trkpt>
<trkpt lat="56.744682" lon="8.250507">
<ele>8.848901</ele>
<time>2026-07-13T15:02:15.000Z</time>
</trkpt>
<trkpt lat="56.744736" lon="8.250511">
<ele>8.852872</ele>
<time>2026-07-13T15:02:16.000Z</time>
</trkpt>
<trkpt lat="56.744789" lon="8.250511">
<ele>8.856765</ele>
<time>2026-07-13T15:02:17.000Z</time>
</trkpt>
<trkpt lat="56.744839" lon="8.250509">
<ele>8.860439</ele>
<time>2026-07-13T15:02:18.000Z</time>
</trkpt>
<trkpt lat="56.744892" lon="8.250505">
<ele>8.864336</ele>
<time>2026-07-13T15:02:19.000Z</time>
</trkpt>
<trkpt lat="56.744942" lon="8.250502">
<ele>8.868012</ele>
<time>2026-07-13T15:02:20.000Z</time>
</trkpt>
<trkpt lat="56.744988" lon="8.250499">
<ele>8.871393</ele>
<time>2026-07-13T15:02:21.000Z</time>
</trkpt>
<trkpt lat="56.745022" lon="8.250497">
<ele>8.873892</ele>
<time>2026-07-13T15:02:22.000Z</time>
</trkpt>
<trkpt lat="56.745091" lon="8.250498">
<ele>8.878961</ele>
<time>2026-07-13T15:02:23.000Z</time>
</trkpt>
<trkpt lat="56.745140" lon="8.250502">
<ele>8.882565</ele>
<time>2026-07-13T15:02:24.000Z</time>
</trkpt>
<trkpt lat="56.745193" lon="8.250509">
<ele>8.886469</ele>
<time>2026-07-13T15:02:25.000Z</time>
</trkpt>
<trkpt lat="56.745243" lon="8.250519">
<ele>8.890164</ele>
<time>2026-07-13T15:02:26.000Z</time>
</trkpt>
<trkpt lat="56.745293" lon="8.250529">
<ele>8.893859</ele>
<time>2026-07-13T15:02:27.000Z</time>
</trkpt>
<trkpt lat="56.745342" lon="8.250540">
<ele>8.897486</ele>
<time>2026-07-13T15:02:28.000Z</time>
</trkpt>
<trkpt lat="56.745396" lon="8.250547">
<ele>8.901463</ele>
<time>2026-07-13T15:02:29.000Z</time>
</trkpt>
<trkpt lat="56.745445" lon="8.250554">
<ele>8.905074</ele>
<time>2026-07-13T15:02:30.000Z</time>
</trkpt>
<trkpt lat="56.745499" lon="8.250560">
<ele>8.909048</ele>
<time>2026-07-13T15:02:31.000Z</time>
</trkpt>
<trkpt lat="56.745548" lon="8.250566">
<ele>8.912656</ele>
<time>2026-07-13T15:02:32.000Z</time>
</trkpt>
<trkpt lat="56.745598" lon="8.250569">
<ele>8.916332</ele>
<time>2026-07-13T15:02:33.000Z</time>
</trkpt>
<trkpt lat="56.745647" lon="8.250572">
<ele>8.919933</ele>
<time>2026-07-13T15:02:34.000Z</time>
</trkpt>
<trkpt lat="56.745697" lon="8.250576">
<ele>8.923610</ele>
<time>2026-07-13T15:02:35.000Z</time>
</trkpt>
<trkpt lat="56.745743" lon="8.250579">
<ele>8.926992</ele>
<time>2026-07-13T15:02:36.000Z</time>
</trkpt>
<trkpt lat="56.745789" lon="8.250583">
<ele>8.930375</ele>
<time>2026-07-13T15:02:37.000Z</time>
</trkpt>
<trkpt lat="56.745838" lon="8.250586">
<ele>8.933977</ele>
<time>2026-07-13T15:02:38.000Z</time>
</trkpt>
<trkpt lat="56.745888" lon="8.250589">
<ele>8.937652</ele>
<time>2026-07-13T15:02:39.000Z</time>
</trkpt>
<trkpt lat="56.745937" lon="8.250592">
<ele>8.941254</ele>
<time>2026-07-13T15:02:40.000Z</time>
</trkpt>
<trkpt lat="56.745991" lon="8.250596">
<ele>8.945224</ele>
<time>2026-07-13T15:02:41.000Z</time>
</trkpt>
<trkpt lat="56.746040" lon="8.250597">
<ele>8.948824</ele>
<time>2026-07-13T15:02:42.000Z</time>
</trkpt>
<trkpt lat="56.746094" lon="8.250600">
<ele>8.952793</ele>
<time>2026-07-13T15:02:43.000Z</time>
</trkpt>
<trkpt lat="56.746143" lon="8.250605">
<ele>8.956398</ele>
<time>2026-07-13T15:02:44.000Z</time>
</trkpt>
<trkpt lat="56.746193" lon="8.250609">
<ele>8.960075</ele>
<time>2026-07-13T15:02:45.000Z</time>
</trkpt>
<trkpt lat="56.746243" lon="8.250611">
<ele>8.963749</ele>
<time>2026-07-13T15:02:46.000Z</time>
</trkpt>
<trkpt lat="56.746292" lon="8.250614">
<ele>8.966567</ele>
<time>2026-07-13T15:02:47.000Z</time>
</trkpt>
<trkpt lat="56.746342" lon="8.250617">
<ele>8.967505</ele>
<time>2026-07-13T15:02:48.000Z</time>
</trkpt>
<trkpt lat="56.746399" lon="8.250619">
<ele>8.968573</ele>
<time>2026-07-13T15:02:49.000Z</time>
</trkpt>
<trkpt lat="56.746449" lon="8.250623">
<ele>8.969511</ele>
<time>2026-07-13T15:02:50.000Z</time>
</trkpt>
<trkpt lat="56.746502" lon="8.250627">
<ele>8.970504</ele>
<time>2026-07-13T15:02:51.000Z</time>
</trkpt>
<trkpt lat="56.746555" lon="8.250630">
<ele>8.971498</ele>
<time>2026-07-13T15:02:52.000Z</time>
</trkpt>
<trkpt lat="56.746605" lon="8.250632">
<ele>8.972435</ele>
<time>2026-07-13T15:02:53.000Z</time>
</trkpt>
<trkpt lat="56.746658" lon="8.250634">
<ele>8.973428</ele>
<time>2026-07-13T15:02:54.000Z</time>
</trkpt>
<trkpt lat="56.746708" lon="8.250639">
<ele>8.974367</ele>
<time>2026-07-13T15:02:55.000Z</time>
</trkpt>
<trkpt lat="56.746758" lon="8.250643">
<ele>8.975304</ele>
<time>2026-07-13T15:02:56.000Z</time>
</trkpt>
<trkpt lat="56.746815" lon="8.250646">
<ele>8.976373</ele>
<time>2026-07-13T15:02:57.000Z</time>
</trkpt>
<trkpt lat="56.746864" lon="8.250649">
<ele>8.977291</ele>
<time>2026-07-13T15:02:58.000Z</time>
</trkpt>
<trkpt lat="56.746918" lon="8.250654">
<ele>8.978305</ele>
<time>2026-07-13T15:02:59.000Z</time>
</trkpt>
<trkpt lat="56.746971" lon="8.250660">
<ele>8.979300</ele>
<time>2026-07-13T15:03:00.000Z</time>
</trkpt>
<trkpt lat="56.747025" lon="8.250666">
<ele>8.980313</ele>
<time>2026-07-13T15:03:01.000Z</time>
</trkpt>
<trkpt lat="56.747078" lon="8.250669">
<ele>8.981307</ele>
<time>2026-07-13T15:03:02.000Z</time>
</trkpt>
<trkpt lat="56.747127" lon="8.250670">
<ele>8.982225</ele>
<time>2026-07-13T15:03:03.000Z</time>
</trkpt>
<trkpt lat="56.747177" lon="8.250672">
<ele>8.983162</ele>
<time>2026-07-13T15:03:04.000Z</time>
</trkpt>
<trkpt lat="56.747227" lon="8.250674">
<ele>8.984099</ele>
<time>2026-07-13T15:03:05.000Z</time>
</trkpt>
<trkpt lat="56.747280" lon="8.250678">
<ele>8.985093</ele>
<time>2026-07-13T15:03:06.000Z</time>
</trkpt>
<trkpt lat="56.747330" lon="8.250680">
<ele>8.986030</ele>
<time>2026-07-13T15:03:07.000Z</time>
</trkpt>
<trkpt lat="56.747383" lon="8.250681">
<ele>8.987023</ele>
<time>2026-07-13T15:03:08.000Z</time>
</trkpt>
<trkpt lat="56.747433" lon="8.250684">
<ele>8.987960</ele>
<time>2026-07-13T15:03:09.000Z</time>
</trkpt>
<trkpt lat="56.747479" lon="8.250687">
<ele>8.988823</ele>
<time>2026-07-13T15:03:10.000Z</time>
</trkpt>
<trkpt lat="56.747528" lon="8.250690">
<ele>8.989742</ele>
<time>2026-07-13T15:03:11.000Z</time>
</trkpt>
<trkpt lat="56.747585" lon="8.250691">
<ele>8.990810</ele>
<time>2026-07-13T15:03:12.000Z</time>
</trkpt>
<trkpt lat="56.747635" lon="8.250692">
<ele>8.991747</ele>
<time>2026-07-13T15:03:13.000Z</time>
</trkpt>
<trkpt lat="56.747684" lon="8.250697">
<ele>8.992666</ele>
<time>2026-07-13T15:03:14.000Z</time>
</trkpt>
<trkpt lat="56.747734" lon="8.250703">
<ele>8.993605</ele>
<time>2026-07-13T15:03:15.000Z</time>
</trkpt>
<trkpt lat="56.747787" lon="8.250706">
<ele>8.994598</ele>
<time>2026-07-13T15:03:16.000Z</time>
</trkpt>
<trkpt lat="56.747837" lon="8.250707">
<ele>8.995535</ele>
<time>2026-07-13T15:03:17.000Z</time>
</trkpt>
<trkpt lat="56.747890" lon="8.250708">
<ele>8.996529</ele>
<time>2026-07-13T15:03:18.000Z</time>
</trkpt>
<trkpt lat="56.747936" lon="8.250710">
<ele>8.997391</ele>
<time>2026-07-13T15:03:19.000Z</time>
</trkpt>
<trkpt lat="56.747990" lon="8.250711">
<ele>8.998402</ele>
<time>2026-07-13T15:03:20.000Z</time>
</trkpt>
<trkpt lat="56.748043" lon="8.250714">
<ele>8.999396</ele>
<time>2026-07-13T15:03:21.000Z</time>
</trkpt>
<trkpt lat="56.748093" lon="8.250717">
<ele>9.001506</ele>
<time>2026-07-13T15:03:22.000Z</time>
</trkpt>
<trkpt lat="56.748142" lon="8.250721">
<ele>9.005658</ele>
<time>2026-07-13T15:03:23.000Z</time>
</trkpt>
<trkpt lat="56.748196" lon="8.250725">
<ele>9.010233</ele>
<time>2026-07-13T15:03:24.000Z</time>
</trkpt>
<trkpt lat="56.748245" lon="8.250730">
<ele>9.014387</ele>
<time>2026-07-13T15:03:25.000Z</time>
</trkpt>
<trkpt lat="56.748299" lon="8.250734">
<ele>9.018962</ele>
<time>2026-07-13T15:03:26.000Z</time>
</trkpt>
<trkpt lat="56.748352" lon="8.250737">
<ele>9.023451</ele>
<time>2026-07-13T15:03:27.000Z</time>
</trkpt>
<trkpt lat="56.748402" lon="8.250741">
<ele>9.027687</ele>
<time>2026-07-13T15:03:28.000Z</time>
</trkpt>
<trkpt lat="56.748455" lon="8.250743">
<ele>9.032175</ele>
<time>2026-07-13T15:03:29.000Z</time>
</trkpt>
<trkpt lat="56.748505" lon="8.250746">
<ele>9.036409</ele>
<time>2026-07-13T15:03:30.000Z</time>
</trkpt>
<trkpt lat="56.748554" lon="8.250750">
<ele>9.040561</ele>
<time>2026-07-13T15:03:31.000Z</time>
</trkpt>
<trkpt lat="56.748608" lon="8.250752">
<ele>9.045133</ele>
<time>2026-07-13T15:03:32.000Z</time>
</trkpt>
<trkpt lat="56.748657" lon="8.250754">
<ele>9.049282</ele>
<time>2026-07-13T15:03:33.000Z</time>
</trkpt>
<trkpt lat="56.748707" lon="8.250758">
<ele>9.053519</ele>
<time>2026-07-13T15:03:34.000Z</time>
</trkpt>
<trkpt lat="56.748760" lon="8.250765">
<ele>9.058017</ele>
<time>2026-07-13T15:03:35.000Z</time>
</trkpt>
<trkpt lat="56.748810" lon="8.250771">
<ele>9.062258</ele>
<time>2026-07-13T15:03:36.000Z</time>
</trkpt>
<trkpt lat="56.748863" lon="8.250772">
<ele>9.066745</ele>
<time>2026-07-13T15:03:37.000Z</time>
</trkpt>
<trkpt lat="56.748913" lon="8.250777">
<ele>9.070984</ele>
<time>2026-07-13T15:03:38.000Z</time>
</trkpt>
<trkpt lat="56.748962" lon="8.250782">
<ele>9.075138</ele>
<time>2026-07-13T15:03:39.000Z</time>
</trkpt>
<trkpt lat="56.749016" lon="8.250786">
<ele>9.079713</ele>
<time>2026-07-13T15:03:40.000Z</time>
</trkpt>
<trkpt lat="56.749069" lon="8.250792">
<ele>9.084208</ele>
<time>2026-07-13T15:03:41.000Z</time>
</trkpt>
<trkpt lat="56.749119" lon="8.250797">
<ele>9.088447</ele>
<time>2026-07-13T15:03:42.000Z</time>
</trkpt>
<trkpt lat="56.749172" lon="8.250802">
<ele>9.092939</ele>
<time>2026-07-13T15:03:43.000Z</time>
</trkpt>
<trkpt lat="56.749226" lon="8.250806">
<ele>9.097514</ele>
<time>2026-07-13T15:03:44.000Z</time>
</trkpt>
<trkpt lat="56.749275" lon="8.250811">
<ele>9.101668</ele>
<time>2026-07-13T15:03:45.000Z</time>
</trkpt>
<trkpt lat="56.749329" lon="8.250817">
<ele>9.106248</ele>
<time>2026-07-13T15:03:46.000Z</time>
</trkpt>
<trkpt lat="56.749382" lon="8.250823">
<ele>9.110743</ele>
<time>2026-07-13T15:03:47.000Z</time>
</trkpt>
<trkpt lat="56.749435" lon="8.250826">
<ele>9.115231</ele>
<time>2026-07-13T15:03:48.000Z</time>
</trkpt>
<trkpt lat="56.749485" lon="8.250828">
<ele>9.119465</ele>
<time>2026-07-13T15:03:49.000Z</time>
</trkpt>
<trkpt lat="56.749538" lon="8.250830">
<ele>9.123952</ele>
<time>2026-07-13T15:03:50.000Z</time>
</trkpt>
<trkpt lat="56.749592" lon="8.250833">
<ele>9.128525</ele>
<time>2026-07-13T15:03:51.000Z</time>
</trkpt>
<trkpt lat="56.749641" lon="8.250837">
<ele>9.132677</ele>
<time>2026-07-13T15:03:52.000Z</time>
</trkpt>
<trkpt lat="56.749687" lon="8.250841">
<ele>9.136576</ele>
<time>2026-07-13T15:03:53.000Z</time>
</trkpt>
<trkpt lat="56.749741" lon="8.250846">
<ele>9.141153</ele>
<time>2026-07-13T15:03:54.000Z</time>
</trkpt>
<trkpt lat="56.749786" lon="8.250849">
<ele>9.144964</ele>
<time>2026-07-13T15:03:55.000Z</time>
</trkpt>
<trkpt lat="56.749828" lon="8.250851">
<ele>9.148521</ele>
<time>2026-07-13T15:03:56.000Z</time>
</trkpt>
<trkpt lat="56.749870" lon="8.250854">
<ele>9.152079</ele>
<time>2026-07-13T15:03:57.000Z</time>
</trkpt>
<trkpt lat="56.749912" lon="8.250856">
<ele>9.154754</ele>
<time>2026-07-13T15:03:58.000Z</time>
</trkpt>
<trkpt lat="56.749954" lon="8.250860">
<ele>9.157387</ele>
<time>2026-07-13T15:03:59.000Z</time>
</trkpt>
<trkpt lat="56.749996" lon="8.250864">
<ele>9.160020</ele>
<time>2026-07-13T15:04:00.000Z</time>
</trkpt>
<trkpt lat="56.750038" lon="8.250868">
<ele>9.162652</ele>
<time>2026-07-13T15:04:01.000Z</time>
</trkpt>
<trkpt lat="56.750080" lon="8.250870">
<ele>9.165282</ele>
<time>2026-07-13T15:04:02.000Z</time>
</trkpt>
<trkpt lat="56.750126" lon="8.250872">
<ele>9.168163</ele>
<time>2026-07-13T15:04:03.000Z</time>
</trkpt>
<trkpt lat="56.750172" lon="8.250872">
<ele>9.171042</ele>
<time>2026-07-13T15:04:04.000Z</time>
</trkpt>
<trkpt lat="56.750214" lon="8.250872">
<ele>9.173671</ele>
<time>2026-07-13T15:04:05.000Z</time>
</trkpt>
<trkpt lat="56.750275" lon="8.250872">
<ele>9.177489</ele>
<time>2026-07-13T15:04:06.000Z</time>
</trkpt>
<trkpt lat="56.750324" lon="8.250872">
<ele>9.180557</ele>
<time>2026-07-13T15:04:07.000Z</time>
</trkpt>
<trkpt lat="56.750378" lon="8.250874">
<ele>9.183938</ele>
<time>2026-07-13T15:04:08.000Z</time>
</trkpt>
<trkpt lat="56.750431" lon="8.250877">
<ele>9.187257</ele>
<time>2026-07-13T15:04:09.000Z</time>
</trkpt>
<trkpt lat="56.750484" lon="8.250880">
<ele>9.190576</ele>
<time>2026-07-13T15:04:10.000Z</time>
</trkpt>
<trkpt lat="56.750534" lon="8.250884">
<ele>9.193709</ele>
<time>2026-07-13T15:04:11.000Z</time>
</trkpt>
<trkpt lat="56.750587" lon="8.250888">
<ele>9.197029</ele>
<time>2026-07-13T15:04:12.000Z</time>
</trkpt>
<trkpt lat="56.750645" lon="8.250893">
<ele>9.200664</ele>
<time>2026-07-13T15:04:13.000Z</time>
</trkpt>
<trkpt lat="56.750698" lon="8.250900">
<ele>9.203990</ele>
<time>2026-07-13T15:04:14.000Z</time>
</trkpt>
<trkpt lat="56.750751" lon="8.250909">
<ele>9.207322</ele>
<time>2026-07-13T15:04:15.000Z</time>
</trkpt>
<trkpt lat="56.750805" lon="8.250916">
<ele>9.210711</ele>
<time>2026-07-13T15:04:16.000Z</time>
</trkpt>
<trkpt lat="56.750858" lon="8.250921">
<ele>9.214033</ele>
<time>2026-07-13T15:04:17.000Z</time>
</trkpt>
<trkpt lat="56.750912" lon="8.250926">
<ele>9.217418</ele>
<time>2026-07-13T15:04:18.000Z</time>
</trkpt>
<trkpt lat="56.750965" lon="8.250929">
<ele>9.220737</ele>
<time>2026-07-13T15:04:19.000Z</time>
</trkpt>
<trkpt lat="56.751019" lon="8.250933">
<ele>9.224120</ele>
<time>2026-07-13T15:04:20.000Z</time>
</trkpt>
<trkpt lat="56.751072" lon="8.250936">
<ele>9.227439</ele>
<time>2026-07-13T15:04:21.000Z</time>
</trkpt>
<trkpt lat="56.751122" lon="8.250939">
<ele>9.230571</ele>
<time>2026-07-13T15:04:22.000Z</time>
</trkpt>
<trkpt lat="56.751175" lon="8.250944">
<ele>9.233893</ele>
<time>2026-07-13T15:04:23.000Z</time>
</trkpt>
<trkpt lat="56.751224" lon="8.250947">
<ele>9.236962</ele>
<time>2026-07-13T15:04:24.000Z</time>
</trkpt>
<trkpt lat="56.751278" lon="8.250948">
<ele>9.240342</ele>
<time>2026-07-13T15:04:25.000Z</time>
</trkpt>
<trkpt lat="56.751327" lon="8.250949">
<ele>9.243410</ele>
<time>2026-07-13T15:04:26.000Z</time>
</trkpt>
<trkpt lat="56.751381" lon="8.250953">
<ele>9.246793</ele>
<time>2026-07-13T15:04:27.000Z</time>
</trkpt>
<trkpt lat="56.751431" lon="8.250957">
<ele>9.249926</ele>
<time>2026-07-13T15:04:28.000Z</time>
</trkpt>
<trkpt lat="56.751484" lon="8.250962">
<ele>9.253248</ele>
<time>2026-07-13T15:04:29.000Z</time>
</trkpt>
<trkpt lat="56.751534" lon="8.250966">
<ele>9.256381</ele>
<time>2026-07-13T15:04:30.000Z</time>
</trkpt>
<trkpt lat="56.751587" lon="8.250969">
<ele>9.259700</ele>
<time>2026-07-13T15:04:31.000Z</time>
</trkpt>
<trkpt lat="56.751640" lon="8.250973">
<ele>9.263020</ele>
<time>2026-07-13T15:04:32.000Z</time>
</trkpt>
<trkpt lat="56.751694" lon="8.250975">
<ele>9.268096</ele>
<time>2026-07-13T15:04:33.000Z</time>
</trkpt>
<trkpt lat="56.751743" lon="8.250978">
<ele>9.274502</ele>
<time>2026-07-13T15:04:34.000Z</time>
</trkpt>
<trkpt lat="56.751797" lon="8.250983">
<ele>9.281567</ele>
<time>2026-07-13T15:04:35.000Z</time>
</trkpt>
<trkpt lat="56.751842" lon="8.250988">
<ele>9.287458</ele>
<time>2026-07-13T15:04:36.000Z</time>
</trkpt>
<trkpt lat="56.751900" lon="8.250994">
<ele>9.295049</ele>
<time>2026-07-13T15:04:37.000Z</time>
</trkpt>
<trkpt lat="56.751953" lon="8.250998">
<ele>9.301980</ele>
<time>2026-07-13T15:04:38.000Z</time>
</trkpt>
<trkpt lat="56.752007" lon="8.251001">
<ele>9.309040</ele>
<time>2026-07-13T15:04:39.000Z</time>
</trkpt>
<trkpt lat="56.752060" lon="8.251004">
<ele>9.315968</ele>
<time>2026-07-13T15:04:40.000Z</time>
</trkpt>
<trkpt lat="56.752113" lon="8.251008">
<ele>9.322900</ele>
<time>2026-07-13T15:04:41.000Z</time>
</trkpt>
<trkpt lat="56.752167" lon="8.251013">
<ele>9.329965</ele>
<time>2026-07-13T15:04:42.000Z</time>
</trkpt>
<trkpt lat="56.752216" lon="8.251016">
<ele>9.336371</ele>
<time>2026-07-13T15:04:43.000Z</time>
</trkpt>
<trkpt lat="56.752270" lon="8.251020">
<ele>9.343433</ele>
<time>2026-07-13T15:04:44.000Z</time>
</trkpt>
<trkpt lat="56.752319" lon="8.251020">
<ele>9.349836</ele>
<time>2026-07-13T15:04:45.000Z</time>
</trkpt>
<trkpt lat="56.752369" lon="8.251022">
<ele>9.356371</ele>
<time>2026-07-13T15:04:46.000Z</time>
</trkpt>
<trkpt lat="56.752422" lon="8.251027">
<ele>9.363305</ele>
<time>2026-07-13T15:04:47.000Z</time>
</trkpt>
<trkpt lat="56.752472" lon="8.251031">
<ele>9.369845</ele>
<time>2026-07-13T15:04:48.000Z</time>
</trkpt>
<trkpt lat="56.752521" lon="8.251035">
<ele>9.376254</ele>
<time>2026-07-13T15:04:49.000Z</time>
</trkpt>
<trkpt lat="56.752571" lon="8.251038">
<ele>9.382791</ele>
<time>2026-07-13T15:04:50.000Z</time>
</trkpt>
<trkpt lat="56.752621" lon="8.251041">
<ele>9.389328</ele>
<time>2026-07-13T15:04:51.000Z</time>
</trkpt>
<trkpt lat="56.752670" lon="8.251044">
<ele>9.395735</ele>
<time>2026-07-13T15:04:52.000Z</time>
</trkpt>
<trkpt lat="56.752720" lon="8.251047">
<ele>9.402271</ele>
<time>2026-07-13T15:04:53.000Z</time>
</trkpt>
<trkpt lat="56.752769" lon="8.251049">
<ele>9.408676</ele>
<time>2026-07-13T15:04:54.000Z</time>
</trkpt>
<trkpt lat="56.752819" lon="8.251054">
<ele>9.415219</ele>
<time>2026-07-13T15:04:55.000Z</time>
</trkpt>
<trkpt lat="56.752869" lon="8.251057">
<ele>9.421756</ele>
<time>2026-07-13T15:04:56.000Z</time>
</trkpt>
<trkpt lat="56.752922" lon="8.251058">
<ele>9.428682</ele>
<time>2026-07-13T15:04:57.000Z</time>
</trkpt>
<trkpt lat="56.752972" lon="8.251060">
<ele>9.435217</ele>
<time>2026-07-13T15:04:58.000Z</time>
</trkpt>
<trkpt lat="56.753021" lon="8.251063">
<ele>9.441623</ele>
<time>2026-07-13T15:04:59.000Z</time>
</trkpt>
<trkpt lat="56.753071" lon="8.251068">
<ele>9.448166</ele>
<time>2026-07-13T15:05:00.000Z</time>
</trkpt>
<trkpt lat="56.753124" lon="8.251072">
<ele>9.455098</ele>
<time>2026-07-13T15:05:01.000Z</time>
</trkpt>
<trkpt lat="56.753178" lon="8.251073">
<ele>9.462154</ele>
<time>2026-07-13T15:05:02.000Z</time>
</trkpt>
<trkpt lat="56.753231" lon="8.251074">
<ele>9.469080</ele>
<time>2026-07-13T15:05:03.000Z</time>
</trkpt>
<trkpt lat="56.753284" lon="8.251079">
<ele>9.476014</ele>
<time>2026-07-13T15:05:04.000Z</time>
</trkpt>
<trkpt lat="56.753334" lon="8.251084">
<ele>9.482558</ele>
<time>2026-07-13T15:05:05.000Z</time>
</trkpt>
<trkpt lat="56.753387" lon="8.251089">
<ele>9.489492</ele>
<time>2026-07-13T15:05:06.000Z</time>
</trkpt>
<trkpt lat="56.753445" lon="8.251094">
<ele>9.497080</ele>
<time>2026-07-13T15:05:07.000Z</time>
</trkpt>
<trkpt lat="56.753498" lon="8.251098">
<ele>9.499531</ele>
<time>2026-07-13T15:05:08.000Z</time>
</trkpt>
<trkpt lat="56.753551" lon="8.251101">
<ele>9.498967</ele>
<time>2026-07-13T15:05:09.000Z</time>
</trkpt>
<trkpt lat="56.753605" lon="8.251106">
<ele>9.498391</ele>
<time>2026-07-13T15:05:10.000Z</time>
</trkpt>
<trkpt lat="56.753658" lon="8.251109">
<ele>9.497827</ele>
<time>2026-07-13T15:05:11.000Z</time>
</trkpt>
<trkpt lat="56.753712" lon="8.251112">
<ele>9.497252</ele>
<time>2026-07-13T15:05:12.000Z</time>
</trkpt>
<trkpt lat="56.753765" lon="8.251117">
<ele>9.496687</ele>
<time>2026-07-13T15:05:13.000Z</time>
</trkpt>
<trkpt lat="56.753815" lon="8.251121">
<ele>9.496155</ele>
<time>2026-07-13T15:05:14.000Z</time>
</trkpt>
<trkpt lat="56.753868" lon="8.251124">
<ele>9.495590</ele>
<time>2026-07-13T15:05:15.000Z</time>
</trkpt>
<trkpt lat="56.753918" lon="8.251125">
<ele>9.495058</ele>
<time>2026-07-13T15:05:16.000Z</time>
</trkpt>
<trkpt lat="56.753971" lon="8.251127">
<ele>9.494494</ele>
<time>2026-07-13T15:05:17.000Z</time>
</trkpt>
<trkpt lat="56.754021" lon="8.251131">
<ele>9.493962</ele>
<time>2026-07-13T15:05:18.000Z</time>
</trkpt>
<trkpt lat="56.754070" lon="8.251134">
<ele>9.493440</ele>
<time>2026-07-13T15:05:19.000Z</time>
</trkpt>
<trkpt lat="56.754127" lon="8.251136">
<ele>9.492833</ele>
<time>2026-07-13T15:05:20.000Z</time>
</trkpt>
<trkpt lat="56.754177" lon="8.251139">
<ele>9.492301</ele>
<time>2026-07-13T15:05:21.000Z</time>
</trkpt>
<trkpt lat="56.754227" lon="8.251143">
<ele>9.491768</ele>
<time>2026-07-13T15:05:22.000Z</time>
</trkpt>
<trkpt lat="56.754280" lon="8.251148">
<ele>9.491204</ele>
<time>2026-07-13T15:05:23.000Z</time>
</trkpt>
<trkpt lat="56.754330" lon="8.251152">
<ele>9.490671</ele>
<time>2026-07-13T15:05:24.000Z</time>
</trkpt>
<trkpt lat="56.754383" lon="8.251154">
<ele>9.490107</ele>
<time>2026-07-13T15:05:25.000Z</time>
</trkpt>
<trkpt lat="56.754433" lon="8.251156">
<ele>9.489575</ele>
<time>2026-07-13T15:05:26.000Z</time>
</trkpt>
<trkpt lat="56.754486" lon="8.251161">
<ele>9.489010</ele>
<time>2026-07-13T15:05:27.000Z</time>
</trkpt>
<trkpt lat="56.754540" lon="8.251164">
<ele>9.488435</ele>
<time>2026-07-13T15:05:28.000Z</time>
</trkpt>
<trkpt lat="56.754589" lon="8.251167">
<ele>9.487913</ele>
<time>2026-07-13T15:05:29.000Z</time>
</trkpt>
<trkpt lat="56.754639" lon="8.251169">
<ele>9.487381</ele>
<time>2026-07-13T15:05:30.000Z</time>
</trkpt>
<trkpt lat="56.754692" lon="8.251174">
<ele>9.486816</ele>
<time>2026-07-13T15:05:31.000Z</time>
</trkpt>
<trkpt lat="56.754745" lon="8.251179">
<ele>9.486252</ele>
<time>2026-07-13T15:05:32.000Z</time>
</trkpt>
<trkpt lat="56.754799" lon="8.251184">
<ele>9.485676</ele>
<time>2026-07-13T15:05:33.000Z</time>
</trkpt>
<trkpt lat="56.754852" lon="8.251187">
<ele>9.485112</ele>
<time>2026-07-13T15:05:34.000Z</time>
</trkpt>
<trkpt lat="56.754906" lon="8.251191">
<ele>9.484537</ele>
<time>2026-07-13T15:05:35.000Z</time>
</trkpt>
<trkpt lat="56.754959" lon="8.251192">
<ele>9.483973</ele>
<time>2026-07-13T15:05:36.000Z</time>
</trkpt>
<trkpt lat="56.755013" lon="8.251193">
<ele>9.483398</ele>
<time>2026-07-13T15:05:37.000Z</time>
</trkpt>
<trkpt lat="56.755066" lon="8.251194">
<ele>9.482834</ele>
<time>2026-07-13T15:05:38.000Z</time>
</trkpt>
<trkpt lat="56.755116" lon="8.251199">
<ele>9.482301</ele>
<time>2026-07-13T15:05:39.000Z</time>
</trkpt>
<trkpt lat="56.755169" lon="8.251203">
<ele>9.481737</ele>
<time>2026-07-13T15:05:40.000Z</time>
</trkpt>
<trkpt lat="56.755222" lon="8.251206">
<ele>9.481173</ele>
<time>2026-07-13T15:05:41.000Z</time>
</trkpt>
<trkpt lat="56.755276" lon="8.251209">
<ele>9.480968</ele>
<time>2026-07-13T15:05:42.000Z</time>
</trkpt>
<trkpt lat="56.755325" lon="8.251211">
<ele>9.481927</ele>
<time>2026-07-13T15:05:43.000Z</time>
</trkpt>
<trkpt lat="56.755379" lon="8.251212">
<ele>9.482983</ele>
<time>2026-07-13T15:05:44.000Z</time>
</trkpt>
<trkpt lat="56.755432" lon="8.251212">
<ele>9.484020</ele>
<time>2026-07-13T15:05:45.000Z</time>
</trkpt>
<trkpt lat="56.755486" lon="8.251214">
<ele>9.485076</ele>
<time>2026-07-13T15:05:46.000Z</time>
</trkpt>
<trkpt lat="56.755539" lon="8.251216">
<ele>9.486113</ele>
<time>2026-07-13T15:05:47.000Z</time>
</trkpt>
<trkpt lat="56.755592" lon="8.251220">
<ele>9.487150</ele>
<time>2026-07-13T15:05:48.000Z</time>
</trkpt>
<trkpt lat="56.755646" lon="8.251223">
<ele>9.488207</ele>
<time>2026-07-13T15:05:49.000Z</time>
</trkpt>
<trkpt lat="56.755699" lon="8.251227">
<ele>9.489245</ele>
<time>2026-07-13T15:05:50.000Z</time>
</trkpt>
<trkpt lat="56.755756" lon="8.251232">
<ele>9.490361</ele>
<time>2026-07-13T15:05:51.000Z</time>
</trkpt>
<trkpt lat="56.755814" lon="8.251240">
<ele>9.491499</ele>
<time>2026-07-13T15:05:52.000Z</time>
</trkpt>
<trkpt lat="56.755867" lon="8.251245">
<ele>9.492537</ele>
<time>2026-07-13T15:05:53.000Z</time>
</trkpt>
<trkpt lat="56.755920" lon="8.251249">
<ele>9.493574</ele>
<time>2026-07-13T15:05:54.000Z</time>
</trkpt>
<trkpt lat="56.755970" lon="8.251252">
<ele>9.494553</ele>
<time>2026-07-13T15:05:55.000Z</time>
</trkpt>
<trkpt lat="56.756023" lon="8.251256">
<ele>9.495590</ele>
<time>2026-07-13T15:05:56.000Z</time>
</trkpt>
<trkpt lat="56.756084" lon="8.251262">
<ele>9.496785</ele>
<time>2026-07-13T15:05:57.000Z</time>
</trkpt>
<trkpt lat="56.756142" lon="8.251266">
<ele>9.497920</ele>
<time>2026-07-13T15:05:58.000Z</time>
</trkpt>
<trkpt lat="56.756199" lon="8.251270">
<ele>9.499036</ele>
<time>2026-07-13T15:05:59.000Z</time>
</trkpt>
<trkpt lat="56.756252" lon="8.251274">
<ele>9.500073</ele>
<time>2026-07-13T15:06:00.000Z</time>
</trkpt>
<trkpt lat="56.756310" lon="8.251277">
<ele>9.501208</ele>
<time>2026-07-13T15:06:01.000Z</time>
</trkpt>
<trkpt lat="56.756367" lon="8.251277">
<ele>9.502323</ele>
<time>2026-07-13T15:06:02.000Z</time>
</trkpt>
<trkpt lat="56.756424" lon="8.251278">
<ele>9.503438</ele>
<time>2026-07-13T15:06:03.000Z</time>
</trkpt>
<trkpt lat="56.756481" lon="8.251282">
<ele>9.504554</ele>
<time>2026-07-13T15:06:04.000Z</time>
</trkpt>
<trkpt lat="56.756538" lon="8.251286">
<ele>9.505670</ele>
<time>2026-07-13T15:06:05.000Z</time>
</trkpt>
<trkpt lat="56.756596" lon="8.251292">
<ele>9.506806</ele>
<time>2026-07-13T15:06:06.000Z</time>
</trkpt>
<trkpt lat="56.756649" lon="8.251296">
<ele>9.507843</ele>
<time>2026-07-13T15:06:07.000Z</time>
</trkpt>
<trkpt lat="56.756706" lon="8.251300">
<ele>9.508959</ele>
<time>2026-07-13T15:06:08.000Z</time>
</trkpt>
<trkpt lat="56.756763" lon="8.251306">
<ele>9.510076</ele>
<time>2026-07-13T15:06:09.000Z</time>
</trkpt>
<trkpt lat="56.756817" lon="8.251313">
<ele>9.511135</ele>
<time>2026-07-13T15:06:10.000Z</time>
</trkpt>
<trkpt lat="56.756874" lon="8.251318">
<ele>9.512251</ele>
<time>2026-07-13T15:06:11.000Z</time>
</trkpt>
<trkpt lat="56.756928" lon="8.251321">
<ele>9.513308</ele>
<time>2026-07-13T15:06:12.000Z</time>
</trkpt>
<trkpt lat="56.756985" lon="8.251325">
<ele>9.514423</ele>
<time>2026-07-13T15:06:13.000Z</time>
</trkpt>
<trkpt lat="56.757042" lon="8.251328">
<ele>9.515539</ele>
<time>2026-07-13T15:06:14.000Z</time>
</trkpt>
<trkpt lat="56.757099" lon="8.251328">
<ele>9.511470</ele>
<time>2026-07-13T15:06:15.000Z</time>
</trkpt>
<trkpt lat="56.757153" lon="8.251330">
<ele>9.505176</ele>
<time>2026-07-13T15:06:16.000Z</time>
</trkpt>
<trkpt lat="56.757206" lon="8.251335">
<ele>9.498992</ele>
<time>2026-07-13T15:06:17.000Z</time>
</trkpt>
<trkpt lat="56.757263" lon="8.251339">
<ele>9.492345</ele>
<time>2026-07-13T15:06:18.000Z</time>
</trkpt>
<trkpt lat="56.757317" lon="8.251342">
<ele>9.486049</ele>
<time>2026-07-13T15:06:19.000Z</time>
</trkpt>
<trkpt lat="56.757370" lon="8.251344">
<ele>9.479872</ele>
<time>2026-07-13T15:06:20.000Z</time>
</trkpt>
<trkpt lat="56.757423" lon="8.251348">
<ele>9.473691</ele>
<time>2026-07-13T15:06:21.000Z</time>
</trkpt>
<trkpt lat="56.757473" lon="8.251352">
<ele>9.467859</ele>
<time>2026-07-13T15:06:22.000Z</time>
</trkpt>
<trkpt lat="56.757526" lon="8.251356">
<ele>9.461677</ele>
<time>2026-07-13T15:06:23.000Z</time>
</trkpt>
<trkpt lat="56.757576" lon="8.251357">
<ele>9.455851</ele>
<time>2026-07-13T15:06:24.000Z</time>
</trkpt>
<trkpt lat="56.757633" lon="8.251359">
<ele>9.449207</ele>
<time>2026-07-13T15:06:25.000Z</time>
</trkpt>
<trkpt lat="56.757687" lon="8.251362">
<ele>9.442912</ele>
<time>2026-07-13T15:06:26.000Z</time>
</trkpt>
<trkpt lat="56.757736" lon="8.251369">
<ele>9.437184</ele>
<time>2026-07-13T15:06:27.000Z</time>
</trkpt>
<trkpt lat="56.757786" lon="8.251375">
<ele>9.431345</ele>
<time>2026-07-13T15:06:28.000Z</time>
</trkpt>
<trkpt lat="56.757839" lon="8.251379">
<ele>9.425164</ele>
<time>2026-07-13T15:06:29.000Z</time>
</trkpt>
<trkpt lat="56.757889" lon="8.251382">
<ele>9.419335</ele>
<time>2026-07-13T15:06:30.000Z</time>
</trkpt>
<trkpt lat="56.757938" lon="8.251383">
<ele>9.413624</ele>
<time>2026-07-13T15:06:31.000Z</time>
</trkpt>
<trkpt lat="56.757992" lon="8.251385">
<ele>9.407330</ele>
<time>2026-07-13T15:06:32.000Z</time>
</trkpt>
<trkpt lat="56.758041" lon="8.251388">
<ele>9.401617</ele>
<time>2026-07-13T15:06:33.000Z</time>
</trkpt>
<trkpt lat="56.758091" lon="8.251390">
<ele>9.395790</ele>
<time>2026-07-13T15:06:34.000Z</time>
</trkpt>
<trkpt lat="56.758144" lon="8.251392">
<ele>9.389612</ele>
<time>2026-07-13T15:06:35.000Z</time>
</trkpt>
<trkpt lat="56.758194" lon="8.251395">
<ele>9.383783</ele>
<time>2026-07-13T15:06:36.000Z</time>
</trkpt>
<trkpt lat="56.758247" lon="8.251400">
<ele>9.377598</ele>
<time>2026-07-13T15:06:37.000Z</time>
</trkpt>
<trkpt lat="56.758297" lon="8.251406">
<ele>9.371759</ele>
<time>2026-07-13T15:06:38.000Z</time>
</trkpt>
<trkpt lat="56.758350" lon="8.251410">
<ele>9.365578</ele>
<time>2026-07-13T15:06:39.000Z</time>
</trkpt>
<trkpt lat="56.758400" lon="8.251412">
<ele>9.359750</ele>
<time>2026-07-13T15:06:40.000Z</time>
</trkpt>
<trkpt lat="56.758453" lon="8.251415">
<ele>9.353571</ele>
<time>2026-07-13T15:06:41.000Z</time>
</trkpt>
<trkpt lat="56.758503" lon="8.251417">
<ele>9.347743</ele>
<time>2026-07-13T15:06:42.000Z</time>
</trkpt>
<trkpt lat="56.758553" lon="8.251422">
<ele>9.341908</ele>
<time>2026-07-13T15:06:43.000Z</time>
</trkpt>
<trkpt lat="56.758606" lon="8.251428">
<ele>9.335720</ele>
<time>2026-07-13T15:06:44.000Z</time>
</trkpt>
<trkpt lat="56.758656" lon="8.251431">
<ele>9.329891</ele>
<time>2026-07-13T15:06:45.000Z</time>
</trkpt>
<trkpt lat="56.758705" lon="8.251436">
<ele>9.324172</ele>
<time>2026-07-13T15:06:46.000Z</time>
</trkpt>
<trkpt lat="56.758759" lon="8.251439">
<ele>9.317877</ele>
<time>2026-07-13T15:06:47.000Z</time>
</trkpt>
<trkpt lat="56.758816" lon="8.251441">
<ele>9.311233</ele>
<time>2026-07-13T15:06:48.000Z</time>
</trkpt>
<trkpt lat="56.758869" lon="8.251444">
<ele>9.306295</ele>
<time>2026-07-13T15:06:49.000Z</time>
</trkpt>
<trkpt lat="56.758926" lon="8.251449">
<ele>9.306187</ele>
<time>2026-07-13T15:06:50.000Z</time>
</trkpt>
<trkpt lat="56.758980" lon="8.251452">
<ele>9.306085</ele>
<time>2026-07-13T15:06:51.000Z</time>
</trkpt>
<trkpt lat="56.759033" lon="8.251457">
<ele>9.305985</ele>
<time>2026-07-13T15:06:52.000Z</time>
</trkpt>
<trkpt lat="56.759090" lon="8.251461">
<ele>9.305877</ele>
<time>2026-07-13T15:06:53.000Z</time>
</trkpt>
<trkpt lat="56.759140" lon="8.251463">
<ele>9.305783</ele>
<time>2026-07-13T15:06:54.000Z</time>
</trkpt>
<trkpt lat="56.759197" lon="8.251466">
<ele>9.305675</ele>
<time>2026-07-13T15:06:55.000Z</time>
</trkpt>
<trkpt lat="56.759254" lon="8.251470">
<ele>9.305567</ele>
<time>2026-07-13T15:06:56.000Z</time>
</trkpt>
<trkpt lat="56.759308" lon="8.251472">
<ele>9.305465</ele>
<time>2026-07-13T15:06:57.000Z</time>
</trkpt>
<trkpt lat="56.759365" lon="8.251475">
<ele>9.305357</ele>
<time>2026-07-13T15:06:58.000Z</time>
</trkpt>
<trkpt lat="56.759418" lon="8.251477">
<ele>9.305257</ele>
<time>2026-07-13T15:06:59.000Z</time>
</trkpt>
<trkpt lat="56.759468" lon="8.251479">
<ele>9.305163</ele>
<time>2026-07-13T15:07:00.000Z</time>
</trkpt>
<trkpt lat="56.759521" lon="8.251483">
<ele>9.305063</ele>
<time>2026-07-13T15:07:01.000Z</time>
</trkpt>
<trkpt lat="56.759579" lon="8.251486">
<ele>9.304953</ele>
<time>2026-07-13T15:07:02.000Z</time>
</trkpt>
<trkpt lat="56.759632" lon="8.251491">
<ele>9.304853</ele>
<time>2026-07-13T15:07:03.000Z</time>
</trkpt>
<trkpt lat="56.759686" lon="8.251494">
<ele>9.304751</ele>
<time>2026-07-13T15:07:04.000Z</time>
</trkpt>
<trkpt lat="56.759739" lon="8.251497">
<ele>9.304651</ele>
<time>2026-07-13T15:07:05.000Z</time>
</trkpt>
<trkpt lat="56.759792" lon="8.251501">
<ele>9.304550</ele>
<time>2026-07-13T15:07:06.000Z</time>
</trkpt>
<trkpt lat="56.759846" lon="8.251505">
<ele>9.304448</ele>
<time>2026-07-13T15:07:07.000Z</time>
</trkpt>
<trkpt lat="56.759899" lon="8.251509">
<ele>9.304348</ele>
<time>2026-07-13T15:07:08.000Z</time>
</trkpt>
<trkpt lat="56.759953" lon="8.251511">
<ele>9.304246</ele>
<time>2026-07-13T15:07:09.000Z</time>
</trkpt>
<trkpt lat="56.760002" lon="8.251514">
<ele>9.304153</ele>
<time>2026-07-13T15:07:10.000Z</time>
</trkpt>
<trkpt lat="56.760056" lon="8.251517">
<ele>9.304051</ele>
<time>2026-07-13T15:07:11.000Z</time>
</trkpt>
<trkpt lat="56.760109" lon="8.251521">
<ele>9.303951</ele>
<time>2026-07-13T15:07:12.000Z</time>
</trkpt>
<trkpt lat="56.760162" lon="8.251525">
<ele>9.303851</ele>
<time>2026-07-13T15:07:13.000Z</time>
</trkpt>
<trkpt lat="56.760220" lon="8.251530">
<ele>9.303741</ele>
<time>2026-07-13T15:07:14.000Z</time>
</trkpt>
<trkpt lat="56.760273" lon="8.251533">
<ele>9.303641</ele>
<time>2026-07-13T15:07:15.000Z</time>
</trkpt>
<trkpt lat="56.760326" lon="8.251539">
<ele>9.303541</ele>
<time>2026-07-13T15:07:16.000Z</time>
</trkpt>
<trkpt lat="56.760384" lon="8.251543">
<ele>9.303431</ele>
<time>2026-07-13T15:07:17.000Z</time>
</trkpt>
<trkpt lat="56.760437" lon="8.251546">
<ele>9.303331</ele>
<time>2026-07-13T15:07:18.000Z</time>
</trkpt>
<trkpt lat="56.760490" lon="8.251548">
<ele>9.303231</ele>
<time>2026-07-13T15:07:19.000Z</time>
</trkpt>
<trkpt lat="56.760544" lon="8.251550">
<ele>9.303129</ele>
<time>2026-07-13T15:07:20.000Z</time>
</trkpt>
<trkpt lat="56.760597" lon="8.251553">
<ele>9.303029</ele>
<time>2026-07-13T15:07:21.000Z</time>
</trkpt>
<trkpt lat="56.760647" lon="8.251557">
<ele>9.302934</ele>
<time>2026-07-13T15:07:22.000Z</time>
</trkpt>
<trkpt lat="56.760700" lon="8.251562">
<ele>9.305163</ele>
<time>2026-07-13T15:07:23.000Z</time>
</trkpt>
<trkpt lat="56.760750" lon="8.251567">
<ele>9.307694</ele>
<time>2026-07-13T15:07:24.000Z</time>
</trkpt>
<trkpt lat="56.760803" lon="8.251571">
<ele>9.310375</ele>
<time>2026-07-13T15:07:25.000Z</time>
</trkpt>
<trkpt lat="56.760857" lon="8.251575">
<ele>9.313107</ele>
<time>2026-07-13T15:07:26.000Z</time>
</trkpt>
<trkpt lat="56.760910" lon="8.251577">
<ele>9.315786</ele>
<time>2026-07-13T15:07:27.000Z</time>
</trkpt>
<trkpt lat="56.760960" lon="8.251580">
<ele>9.318314</ele>
<time>2026-07-13T15:07:28.000Z</time>
</trkpt>
<trkpt lat="56.761013" lon="8.251585">
<ele>9.320997</ele>
<time>2026-07-13T15:07:29.000Z</time>
</trkpt>
<trkpt lat="56.761066" lon="8.251589">
<ele>9.323678</ele>
<time>2026-07-13T15:07:30.000Z</time>
</trkpt>
<trkpt lat="56.761120" lon="8.251591">
<ele>9.326408</ele>
<time>2026-07-13T15:07:31.000Z</time>
</trkpt>
<trkpt lat="56.761169" lon="8.251596">
<ele>9.328888</ele>
<time>2026-07-13T15:07:32.000Z</time>
</trkpt>
<trkpt lat="56.761223" lon="8.251600">
<ele>9.331620</ele>
<time>2026-07-13T15:07:33.000Z</time>
</trkpt>
<trkpt lat="56.761276" lon="8.251604">
<ele>9.334301</ele>
<time>2026-07-13T15:07:34.000Z</time>
</trkpt>
<trkpt lat="56.761330" lon="8.251607">
<ele>9.337031</ele>
<time>2026-07-13T15:07:35.000Z</time>
</trkpt>
<trkpt lat="56.761383" lon="8.251612">
<ele>9.339714</ele>
<time>2026-07-13T15:07:36.000Z</time>
</trkpt>
<trkpt lat="56.761436" lon="8.251618">
<ele>9.342397</ele>
<time>2026-07-13T15:07:37.000Z</time>
</trkpt>
<trkpt lat="56.761490" lon="8.251624">
<ele>9.345132</ele>
<time>2026-07-13T15:07:38.000Z</time>
</trkpt>
<trkpt lat="56.761543" lon="8.251627">
<ele>9.347812</ele>
<time>2026-07-13T15:07:39.000Z</time>
</trkpt>
<trkpt lat="56.761601" lon="8.251630">
<ele>9.350745</ele>
<time>2026-07-13T15:07:40.000Z</time>
</trkpt>
<trkpt lat="56.761654" lon="8.251636">
<ele>9.353428</ele>
<time>2026-07-13T15:07:41.000Z</time>
</trkpt>
<trkpt lat="56.761707" lon="8.251639">
<ele>9.356108</ele>
<time>2026-07-13T15:07:42.000Z</time>
</trkpt>
<trkpt lat="56.761761" lon="8.251642">
<ele>9.358839</ele>
<time>2026-07-13T15:07:43.000Z</time>
</trkpt>
<trkpt lat="56.761814" lon="8.251646">
<ele>9.361520</ele>
<time>2026-07-13T15:07:44.000Z</time>
</trkpt>
<trkpt lat="56.761867" lon="8.251649">
<ele>9.364200</ele>
<time>2026-07-13T15:07:45.000Z</time>
</trkpt>
<trkpt lat="56.761921" lon="8.251653">
<ele>9.366932</ele>
<time>2026-07-13T15:07:46.000Z</time>
</trkpt>
<trkpt lat="56.761974" lon="8.251654">
<ele>9.369611</ele>
<time>2026-07-13T15:07:47.000Z</time>
</trkpt>
<trkpt lat="56.762032" lon="8.251656">
<ele>9.372543</ele>
<time>2026-07-13T15:07:48.000Z</time>
</trkpt>
<trkpt lat="56.762085" lon="8.251660">
<ele>9.375224</ele>
<time>2026-07-13T15:07:49.000Z</time>
</trkpt>
<trkpt lat="56.762135" lon="8.251665">
<ele>9.377754</ele>
<time>2026-07-13T15:07:50.000Z</time>
</trkpt>
<trkpt lat="56.762188" lon="8.251669">
<ele>9.380436</ele>
<time>2026-07-13T15:07:51.000Z</time>
</trkpt>
<trkpt lat="56.762241" lon="8.251671">
<ele>9.383115</ele>
<time>2026-07-13T15:07:52.000Z</time>
</trkpt>
<trkpt lat="56.762295" lon="8.251675">
<ele>9.385846</ele>
<time>2026-07-13T15:07:53.000Z</time>
</trkpt>
<trkpt lat="56.762352" lon="8.251677">
<ele>9.388728</ele>
<time>2026-07-13T15:07:54.000Z</time>
</trkpt>
<trkpt lat="56.762405" lon="8.251682">
<ele>9.391410</ele>
<time>2026-07-13T15:07:55.000Z</time>
</trkpt>
<trkpt lat="56.762459" lon="8.251687">
<ele>9.393849</ele>
<time>2026-07-13T15:07:56.000Z</time>
</trkpt>
<trkpt lat="56.762512" lon="8.251691">
<ele>9.394045</ele>
<time>2026-07-13T15:07:57.000Z</time>
</trkpt>
<trkpt lat="56.762566" lon="8.251693">
<ele>9.394246</ele>
<time>2026-07-13T15:07:58.000Z</time>
</trkpt>
<trkpt lat="56.762619" lon="8.251694">
<ele>9.394442</ele>
<time>2026-07-13T15:07:59.000Z</time>
</trkpt>
<trkpt lat="56.762672" lon="8.251694">
<ele>9.394639</ele>
<time>2026-07-13T15:08:00.000Z</time>
</trkpt>
<trkpt lat="56.762726" lon="8.251693">
<ele>9.394839</ele>
<time>2026-07-13T15:08:01.000Z</time>
</trkpt>
<trkpt lat="56.762779" lon="8.251689">
<ele>9.395035</ele>
<time>2026-07-13T15:08:02.000Z</time>
</trkpt>
<trkpt lat="56.762833" lon="8.251686">
<ele>9.395236</ele>
<time>2026-07-13T15:08:03.000Z</time>
</trkpt>
<trkpt lat="56.762890" lon="8.251683">
<ele>9.395447</ele>
<time>2026-07-13T15:08:04.000Z</time>
</trkpt>
<trkpt lat="56.762943" lon="8.251684">
<ele>9.395643</ele>
<time>2026-07-13T15:08:05.000Z</time>
</trkpt>
<trkpt lat="56.763000" lon="8.251686">
<ele>9.395855</ele>
<time>2026-07-13T15:08:06.000Z</time>
</trkpt>
<trkpt lat="56.763054" lon="8.251690">
<ele>9.396055</ele>
<time>2026-07-13T15:08:07.000Z</time>
</trkpt>
<trkpt lat="56.763107" lon="8.251698">
<ele>9.396252</ele>
<time>2026-07-13T15:08:08.000Z</time>
</trkpt>
<trkpt lat="56.763161" lon="8.251706">
<ele>9.396453</ele>
<time>2026-07-13T15:08:09.000Z</time>
</trkpt>
<trkpt lat="56.763218" lon="8.251715">
<ele>9.396665</ele>
<time>2026-07-13T15:08:10.000Z</time>
</trkpt>
<trkpt lat="56.763268" lon="8.251724">
<ele>9.396851</ele>
<time>2026-07-13T15:08:11.000Z</time>
</trkpt>
<trkpt lat="56.763321" lon="8.251732">
<ele>9.397048</ele>
<time>2026-07-13T15:08:12.000Z</time>
</trkpt>
<trkpt lat="56.763371" lon="8.251740">
<ele>9.397234</ele>
<time>2026-07-13T15:08:13.000Z</time>
</trkpt>
<trkpt lat="56.763420" lon="8.251747">
<ele>9.397416</ele>
<time>2026-07-13T15:08:14.000Z</time>
</trkpt>
<trkpt lat="56.763466" lon="8.251754">
<ele>9.397588</ele>
<time>2026-07-13T15:08:15.000Z</time>
</trkpt>
<trkpt lat="56.763515" lon="8.251758">
<ele>9.397769</ele>
<time>2026-07-13T15:08:16.000Z</time>
</trkpt>
<trkpt lat="56.763561" lon="8.251760">
<ele>9.397940</ele>
<time>2026-07-13T15:08:17.000Z</time>
</trkpt>
<trkpt lat="56.763603" lon="8.251763">
<ele>9.398096</ele>
<time>2026-07-13T15:08:18.000Z</time>
</trkpt>
<trkpt lat="56.763645" lon="8.251762">
<ele>9.398251</ele>
<time>2026-07-13T15:08:19.000Z</time>
</trkpt>
<trkpt lat="56.763691" lon="8.251761">
<ele>9.398422</ele>
<time>2026-07-13T15:08:20.000Z</time>
</trkpt>
<trkpt lat="56.763737" lon="8.251762">
<ele>9.398592</ele>
<time>2026-07-13T15:08:21.000Z</time>
</trkpt>
<trkpt lat="56.763779" lon="8.251767">
<ele>9.398748</ele>
<time>2026-07-13T15:08:22.000Z</time>
</trkpt>
<trkpt lat="56.763828" lon="8.251772">
<ele>9.398930</ele>
<time>2026-07-13T15:08:23.000Z</time>
</trkpt>
<trkpt lat="56.763874" lon="8.251779">
<ele>9.399101</ele>
<time>2026-07-13T15:08:24.000Z</time>
</trkpt>
<trkpt lat="56.763927" lon="8.251783">
<ele>9.399298</ele>
<time>2026-07-13T15:08:25.000Z</time>
</trkpt>
<trkpt lat="56.763981" lon="8.251787">
<ele>9.399498</ele>
<time>2026-07-13T15:08:26.000Z</time>
</trkpt>
<trkpt lat="56.764030" lon="8.251788">
<ele>9.399680</ele>
<time>2026-07-13T15:08:27.000Z</time>
</trkpt>
<trkpt lat="56.764084" lon="8.251789">
<ele>9.399880</ele>
<time>2026-07-13T15:08:28.000Z</time>
</trkpt>
<trkpt lat="56.764137" lon="8.251793">
<ele>9.400077</ele>
<time>2026-07-13T15:08:29.000Z</time>
</trkpt>
<trkpt lat="56.764191" lon="8.251797">
<ele>9.400277</ele>
<time>2026-07-13T15:08:30.000Z</time>
</trkpt>
<trkpt lat="56.764244" lon="8.251802">
<ele>9.400474</ele>
<time>2026-07-13T15:08:31.000Z</time>
</trkpt>
<trkpt lat="56.764297" lon="8.251806">
<ele>9.397195</ele>
<time>2026-07-13T15:08:32.000Z</time>
</trkpt>
<trkpt lat="56.764351" lon="8.251810">
<ele>9.393489</ele>
<time>2026-07-13T15:08:33.000Z</time>
</trkpt>
<trkpt lat="56.764408" lon="8.251814">
<ele>9.389578</ele>
<time>2026-07-13T15:08:34.000Z</time>
</trkpt>
<trkpt lat="56.764462" lon="8.251818">
<ele>9.385872</ele>
<time>2026-07-13T15:08:35.000Z</time>
</trkpt>
<trkpt lat="56.764511" lon="8.251821">
<ele>9.382510</ele>
<time>2026-07-13T15:08:36.000Z</time>
</trkpt>
<trkpt lat="56.764565" lon="8.251827">
<ele>9.378800</ele>
<time>2026-07-13T15:08:37.000Z</time>
</trkpt>
<trkpt lat="56.764618" lon="8.251833">
<ele>9.375159</ele>
<time>2026-07-13T15:08:38.000Z</time>
</trkpt>
<trkpt lat="56.764675" lon="8.251836">
<ele>9.371249</ele>
<time>2026-07-13T15:08:39.000Z</time>
</trkpt>
<trkpt lat="56.764732" lon="8.251839">
<ele>9.367339</ele>
<time>2026-07-13T15:08:40.000Z</time>
</trkpt>
<trkpt lat="56.764786" lon="8.251841">
<ele>9.363635</ele>
<time>2026-07-13T15:08:41.000Z</time>
</trkpt>
<trkpt lat="56.764839" lon="8.251843">
<ele>9.360000</ele>
<time>2026-07-13T15:08:42.000Z</time>
</trkpt>
<trkpt lat="56.764889" lon="8.251848">
<ele>9.356567</ele>
<time>2026-07-13T15:08:43.000Z</time>
</trkpt>
<trkpt lat="56.764946" lon="8.251854">
<ele>9.352652</ele>
<time>2026-07-13T15:08:44.000Z</time>
</trkpt>
<trkpt lat="56.764999" lon="8.251858">
<ele>9.349014</ele>
<time>2026-07-13T15:08:45.000Z</time>
</trkpt>
<trkpt lat="56.765053" lon="8.251859">
<ele>9.345311</ele>
<time>2026-07-13T15:08:46.000Z</time>
</trkpt>
<trkpt lat="56.765106" lon="8.251861">
<ele>9.341676</ele>
<time>2026-07-13T15:08:47.000Z</time>
</trkpt>
<trkpt lat="56.765160" lon="8.251865">
<ele>9.337970</ele>
<time>2026-07-13T15:08:48.000Z</time>
</trkpt>
<trkpt lat="56.765213" lon="8.251870">
<ele>9.334331</ele>
<time>2026-07-13T15:08:49.000Z</time>
</trkpt>
<trkpt lat="56.765266" lon="8.251874">
<ele>9.330694</ele>
<time>2026-07-13T15:08:50.000Z</time>
</trkpt>
<trkpt lat="56.765320" lon="8.251876">
<ele>9.326990</ele>
<time>2026-07-13T15:08:51.000Z</time>
</trkpt>
<trkpt lat="56.765377" lon="8.251881">
<ele>9.323077</ele>
<time>2026-07-13T15:08:52.000Z</time>
</trkpt>
<trkpt lat="56.765430" lon="8.251885">
<ele>9.319440</ele>
<time>2026-07-13T15:08:53.000Z</time>
</trkpt>
<trkpt lat="56.765480" lon="8.251890">
<ele>9.316006</ele>
<time>2026-07-13T15:08:54.000Z</time>
</trkpt>
<trkpt lat="56.765537" lon="8.251894">
<ele>9.312095</ele>
<time>2026-07-13T15:08:55.000Z</time>
</trkpt>
<trkpt lat="56.765591" lon="8.251897">
<ele>9.308390</ele>
<time>2026-07-13T15:08:56.000Z</time>
</trkpt>
<trkpt lat="56.765644" lon="8.251901">
<ele>9.304753</ele>
<time>2026-07-13T15:08:57.000Z</time>
</trkpt>
<trkpt lat="56.765698" lon="8.251904">
<ele>9.301048</ele>
<time>2026-07-13T15:08:58.000Z</time>
</trkpt>
<trkpt lat="56.765755" lon="8.251908">
<ele>9.297137</ele>
<time>2026-07-13T15:08:59.000Z</time>
</trkpt>
<trkpt lat="56.765808" lon="8.251913">
<ele>9.293498</ele>
<time>2026-07-13T15:09:00.000Z</time>
</trkpt>
<trkpt lat="56.765858" lon="8.251916">
<ele>9.290067</ele>
<time>2026-07-13T15:09:01.000Z</time>
</trkpt>
<trkpt lat="56.765907" lon="8.251918">
<ele>9.286707</ele>
<time>2026-07-13T15:09:02.000Z</time>
</trkpt>
<trkpt lat="56.765961" lon="8.251921">
<ele>9.283002</ele>
<time>2026-07-13T15:09:03.000Z</time>
</trkpt>
<trkpt lat="56.766014" lon="8.251924">
<ele>9.279366</ele>
<time>2026-07-13T15:09:04.000Z</time>
</trkpt>
<trkpt lat="56.766067" lon="8.251927">
<ele>9.276864</ele>
<time>2026-07-13T15:09:05.000Z</time>
</trkpt>
<trkpt lat="56.766121" lon="8.251931">
<ele>9.276102</ele>
<time>2026-07-13T15:09:06.000Z</time>
</trkpt>
<trkpt lat="56.766174" lon="8.251935">
<ele>9.275354</ele>
<time>2026-07-13T15:09:07.000Z</time>
</trkpt>
<trkpt lat="56.766228" lon="8.251940">
<ele>9.274592</ele>
<time>2026-07-13T15:09:08.000Z</time>
</trkpt>
<trkpt lat="56.766281" lon="8.251944">
<ele>9.273844</ele>
<time>2026-07-13T15:09:09.000Z</time>
</trkpt>
<trkpt lat="56.766335" lon="8.251946">
<ele>9.273083</ele>
<time>2026-07-13T15:09:10.000Z</time>
</trkpt>
<trkpt lat="56.766388" lon="8.251947">
<ele>9.272336</ele>
<time>2026-07-13T15:09:11.000Z</time>
</trkpt>
<trkpt lat="56.766441" lon="8.251951">
<ele>9.271588</ele>
<time>2026-07-13T15:09:12.000Z</time>
</trkpt>
<trkpt lat="56.766495" lon="8.251955">
<ele>9.270826</ele>
<time>2026-07-13T15:09:13.000Z</time>
</trkpt>
<trkpt lat="56.766548" lon="8.251959">
<ele>9.270078</ele>
<time>2026-07-13T15:09:14.000Z</time>
</trkpt>
<trkpt lat="56.766602" lon="8.251964">
<ele>9.269316</ele>
<time>2026-07-13T15:09:15.000Z</time>
</trkpt>
<trkpt lat="56.766655" lon="8.251967">
<ele>9.268568</ele>
<time>2026-07-13T15:09:16.000Z</time>
</trkpt>
<trkpt lat="56.766708" lon="8.251970">
<ele>9.267821</ele>
<time>2026-07-13T15:09:17.000Z</time>
</trkpt>
<trkpt lat="56.766762" lon="8.251972">
<ele>9.267059</ele>
<time>2026-07-13T15:09:18.000Z</time>
</trkpt>
<trkpt lat="56.766815" lon="8.251976">
<ele>9.266312</ele>
<time>2026-07-13T15:09:19.000Z</time>
</trkpt>
<trkpt lat="56.766869" lon="8.251979">
<ele>9.265550</ele>
<time>2026-07-13T15:09:20.000Z</time>
</trkpt>
<trkpt lat="56.766922" lon="8.251983">
<ele>9.264802</ele>
<time>2026-07-13T15:09:21.000Z</time>
</trkpt>
<trkpt lat="56.766975" lon="8.251986">
<ele>9.264055</ele>
<time>2026-07-13T15:09:22.000Z</time>
</trkpt>
<trkpt lat="56.767029" lon="8.251987">
<ele>9.263293</ele>
<time>2026-07-13T15:09:23.000Z</time>
</trkpt>
<trkpt lat="56.767078" lon="8.251991">
<ele>9.262602</ele>
<time>2026-07-13T15:09:24.000Z</time>
</trkpt>
<trkpt lat="56.767132" lon="8.251995">
<ele>9.261840</ele>
<time>2026-07-13T15:09:25.000Z</time>
</trkpt>
<trkpt lat="56.767189" lon="8.251999">
<ele>9.261036</ele>
<time>2026-07-13T15:09:26.000Z</time>
</trkpt>
<trkpt lat="56.767242" lon="8.252003">
<ele>9.260288</ele>
<time>2026-07-13T15:09:27.000Z</time>
</trkpt>
<trkpt lat="56.767296" lon="8.252006">
<ele>9.259526</ele>
<time>2026-07-13T15:09:28.000Z</time>
</trkpt>
<trkpt lat="56.767345" lon="8.252009">
<ele>9.258835</ele>
<time>2026-07-13T15:09:29.000Z</time>
</trkpt>
<trkpt lat="56.767399" lon="8.252012">
<ele>9.258074</ele>
<time>2026-07-13T15:09:30.000Z</time>
</trkpt>
<trkpt lat="56.767452" lon="8.252014">
<ele>9.257326</ele>
<time>2026-07-13T15:09:31.000Z</time>
</trkpt>
<trkpt lat="56.767506" lon="8.252017">
<ele>9.256565</ele>
<time>2026-07-13T15:09:32.000Z</time>
</trkpt>
<trkpt lat="56.767555" lon="8.252020">
<ele>9.255873</ele>
<time>2026-07-13T15:09:33.000Z</time>
</trkpt>
<trkpt lat="56.767605" lon="8.252026">
<ele>9.255167</ele>
<time>2026-07-13T15:09:34.000Z</time>
</trkpt>
<trkpt lat="56.767658" lon="8.252032">
<ele>9.254418</ele>
<time>2026-07-13T15:09:35.000Z</time>
</trkpt>
<trkpt lat="56.767712" lon="8.252036">
<ele>9.253657</ele>
<time>2026-07-13T15:09:36.000Z</time>
</trkpt>
<trkpt lat="56.767761" lon="8.252039">
<ele>9.252965</ele>
<time>2026-07-13T15:09:37.000Z</time>
</trkpt>
<trkpt lat="56.767811" lon="8.252043">
<ele>9.252260</ele>
<time>2026-07-13T15:09:38.000Z</time>
</trkpt>
<trkpt lat="56.767864" lon="8.252046">
<ele>9.253968</ele>
<time>2026-07-13T15:09:39.000Z</time>
</trkpt>
<trkpt lat="56.767914" lon="8.252049">
<ele>9.259259</ele>
<time>2026-07-13T15:09:40.000Z</time>
</trkpt>
<trkpt lat="56.767967" lon="8.252052">
<ele>9.264868</ele>
<time>2026-07-13T15:09:41.000Z</time>
</trkpt>
<trkpt lat="56.768017" lon="8.252056">
<ele>9.270161</ele>
<time>2026-07-13T15:09:42.000Z</time>
</trkpt>
<trkpt lat="56.768070" lon="8.252059">
<ele>9.275770</ele>
<time>2026-07-13T15:09:43.000Z</time>
</trkpt>
<trkpt lat="56.768120" lon="8.252063">
<ele>9.281064</ele>
<time>2026-07-13T15:09:44.000Z</time>
</trkpt>
<trkpt lat="56.768169" lon="8.252066">
<ele>9.286249</ele>
<time>2026-07-13T15:09:45.000Z</time>
</trkpt>
<trkpt lat="56.768223" lon="8.252070">
<ele>9.291966</ele>
<time>2026-07-13T15:09:46.000Z</time>
</trkpt>
<trkpt lat="56.768272" lon="8.252071">
<ele>9.297149</ele>
<time>2026-07-13T15:09:47.000Z</time>
</trkpt>
<trkpt lat="56.768326" lon="8.252075">
<ele>9.302865</ele>
<time>2026-07-13T15:09:48.000Z</time>
</trkpt>
<trkpt lat="56.768375" lon="8.252079">
<ele>9.308054</ele>
<time>2026-07-13T15:09:49.000Z</time>
</trkpt>
<trkpt lat="56.768429" lon="8.252083">
<ele>9.313770</ele>
<time>2026-07-13T15:09:50.000Z</time>
</trkpt>
<trkpt lat="56.768478" lon="8.252086">
<ele>9.318956</ele>
<time>2026-07-13T15:09:51.000Z</time>
</trkpt>
<trkpt lat="56.768532" lon="8.252090">
<ele>9.324672</ele>
<time>2026-07-13T15:09:52.000Z</time>
</trkpt>
<trkpt lat="56.768585" lon="8.252091">
<ele>9.330278</ele>
<time>2026-07-13T15:09:53.000Z</time>
</trkpt>
<trkpt lat="56.768635" lon="8.252092">
<ele>9.335567</ele>
<time>2026-07-13T15:09:54.000Z</time>
</trkpt>
<trkpt lat="56.768684" lon="8.252096">
<ele>9.340755</ele>
<time>2026-07-13T15:09:55.000Z</time>
</trkpt>
<trkpt lat="56.768742" lon="8.252099">
<ele>9.346893</ele>
<time>2026-07-13T15:09:56.000Z</time>
</trkpt>
<trkpt lat="56.768795" lon="8.252103">
<ele>9.352503</ele>
<time>2026-07-13T15:09:57.000Z</time>
</trkpt>
<trkpt lat="56.768848" lon="8.252106">
<ele>9.358112</ele>
<time>2026-07-13T15:09:58.000Z</time>
</trkpt>
<trkpt lat="56.768898" lon="8.252110">
<ele>9.363406</ele>
<time>2026-07-13T15:09:59.000Z</time>
</trkpt>
<trkpt lat="56.768951" lon="8.252114">
<ele>9.369016</ele>
<time>2026-07-13T15:10:00.000Z</time>
</trkpt>
<trkpt lat="56.769005" lon="8.252117">
<ele>9.374731</ele>
<time>2026-07-13T15:10:01.000Z</time>
</trkpt>
<trkpt lat="56.769054" lon="8.252122">
<ele>9.379922</ele>
<time>2026-07-13T15:10:02.000Z</time>
</trkpt>
<trkpt lat="56.769104" lon="8.252127">
<ele>9.385218</ele>
<time>2026-07-13T15:10:03.000Z</time>
</trkpt>
<trkpt lat="56.769154" lon="8.252132">
<ele>9.390515</ele>
<time>2026-07-13T15:10:04.000Z</time>
</trkpt>
<trkpt lat="56.769207" lon="8.252135">
<ele>9.396123</ele>
<time>2026-07-13T15:10:05.000Z</time>
</trkpt>
<trkpt lat="56.769257" lon="8.252137">
<ele>9.401413</ele>
<time>2026-07-13T15:10:06.000Z</time>
</trkpt>
<trkpt lat="56.769306" lon="8.252139">
<ele>9.406597</ele>
<time>2026-07-13T15:10:07.000Z</time>
</trkpt>
<trkpt lat="56.769356" lon="8.252141">
<ele>9.411887</ele>
<time>2026-07-13T15:10:08.000Z</time>
</trkpt>
<trkpt lat="56.769409" lon="8.252143">
<ele>9.417494</ele>
<time>2026-07-13T15:10:09.000Z</time>
</trkpt>
<trkpt lat="56.769459" lon="8.252147">
<ele>9.422788</ele>
<time>2026-07-13T15:10:10.000Z</time>
</trkpt>
<trkpt lat="56.769508" lon="8.252151">
<ele>9.427976</ele>
<time>2026-07-13T15:10:11.000Z</time>
</trkpt>
<trkpt lat="56.769558" lon="8.252154">
<ele>9.433268</ele>
<time>2026-07-13T15:10:12.000Z</time>
</trkpt>
<trkpt lat="56.769608" lon="8.252156">
<ele>9.438558</ele>
<time>2026-07-13T15:10:13.000Z</time>
</trkpt>
<trkpt lat="56.769657" lon="8.252160">
<ele>9.443210</ele>
<time>2026-07-13T15:10:14.000Z</time>
</trkpt>
<trkpt lat="56.769707" lon="8.252165">
<ele>9.446835</ele>
<time>2026-07-13T15:10:15.000Z</time>
</trkpt>
<trkpt lat="56.769756" lon="8.252169">
<ele>9.450386</ele>
<time>2026-07-13T15:10:16.000Z</time>
</trkpt>
<trkpt lat="56.769806" lon="8.252171">
<ele>9.454006</ele>
<time>2026-07-13T15:10:17.000Z</time>
</trkpt>
<trkpt lat="56.769856" lon="8.252172">
<ele>9.457626</ele>
<time>2026-07-13T15:10:18.000Z</time>
</trkpt>
<trkpt lat="56.769901" lon="8.252175">
<ele>9.460886</ele>
<time>2026-07-13T15:10:19.000Z</time>
</trkpt>
<trkpt lat="56.769947" lon="8.252180">
<ele>9.464222</ele>
<time>2026-07-13T15:10:20.000Z</time>
</trkpt>
<trkpt lat="56.769997" lon="8.252184">
<ele>9.467845</ele>
<time>2026-07-13T15:10:21.000Z</time>
</trkpt>
<trkpt lat="56.770046" lon="8.252189">
<ele>9.471398</ele>
<time>2026-07-13T15:10:22.000Z</time>
</trkpt>
<trkpt lat="56.770092" lon="8.252192">
<ele>9.474730</ele>
<time>2026-07-13T15:10:23.000Z</time>
</trkpt>
<trkpt lat="56.770138" lon="8.252195">
<ele>9.478062</ele>
<time>2026-07-13T15:10:24.000Z</time>
</trkpt>
<trkpt lat="56.770184" lon="8.252197">
<ele>9.481393</ele>
<time>2026-07-13T15:10:25.000Z</time>
</trkpt>
<trkpt lat="56.770229" lon="8.252201">
<ele>9.484655</ele>
<time>2026-07-13T15:10:26.000Z</time>
</trkpt>
<trkpt lat="56.770275" lon="8.252203">
<ele>9.487986</ele>
<time>2026-07-13T15:10:27.000Z</time>
</trkpt>
<trkpt lat="56.770321" lon="8.252206">
<ele>9.491318</ele>
<time>2026-07-13T15:10:28.000Z</time>
</trkpt>
<trkpt lat="56.770367" lon="8.252208">
<ele>9.494649</ele>
<time>2026-07-13T15:10:29.000Z</time>
</trkpt>
<trkpt lat="56.770412" lon="8.252211">
<ele>9.497909</ele>
<time>2026-07-13T15:10:30.000Z</time>
</trkpt>
<trkpt lat="56.770458" lon="8.252212">
<ele>9.501239</ele>
<time>2026-07-13T15:10:31.000Z</time>
</trkpt>
<trkpt lat="56.770504" lon="8.252215">
<ele>9.504572</ele>
<time>2026-07-13T15:10:32.000Z</time>
</trkpt>
<trkpt lat="56.770554" lon="8.252217">
<ele>9.508192</ele>
<time>2026-07-13T15:10:33.000Z</time>
</trkpt>
<trkpt lat="56.770599" lon="8.252221">
<ele>9.511454</ele>
<time>2026-07-13T15:10:34.000Z</time>
</trkpt>
<trkpt lat="56.770645" lon="8.252225">
<ele>9.514788</ele>
<time>2026-07-13T15:10:35.000Z</time>
</trkpt>
<trkpt lat="56.770691" lon="8.252230">
<ele>9.518124</ele>
<time>2026-07-13T15:10:36.000Z</time>
</trkpt>
<trkpt lat="56.770737" lon="8.252233">
<ele>9.521456</ele>
<time>2026-07-13T15:10:37.000Z</time>
</trkpt>
<trkpt lat="56.770782" lon="8.252235">
<ele>9.524714</ele>
<time>2026-07-13T15:10:38.000Z</time>
</trkpt>
<trkpt lat="56.770828" lon="8.252237">
<ele>9.528045</ele>
<time>2026-07-13T15:10:39.000Z</time>
</trkpt>
<trkpt lat="56.770874" lon="8.252241">
<ele>9.531379</ele>
<time>2026-07-13T15:10:40.000Z</time>
</trkpt>
<trkpt lat="56.770920" lon="8.252243">
<ele>9.534710</ele>
<time>2026-07-13T15:10:41.000Z</time>
</trkpt>
<trkpt lat="56.770969" lon="8.252249">
<ele>9.538266</ele>
<time>2026-07-13T15:10:42.000Z</time>
</trkpt>
<trkpt lat="56.771015" lon="8.252253">
<ele>9.541599</ele>
<time>2026-07-13T15:10:43.000Z</time>
</trkpt>
<trkpt lat="56.771065" lon="8.252254">
<ele>9.545219</ele>
<time>2026-07-13T15:10:44.000Z</time>
</trkpt>
<trkpt lat="56.771114" lon="8.252254">
<ele>9.548767</ele>
<time>2026-07-13T15:10:45.000Z</time>
</trkpt>
<trkpt lat="56.771164" lon="8.252253">
<ele>9.552386</ele>
<time>2026-07-13T15:10:46.000Z</time>
</trkpt>
<trkpt lat="56.771214" lon="8.252251">
<ele>9.556007</ele>
<time>2026-07-13T15:10:47.000Z</time>
</trkpt>
<trkpt lat="56.771263" lon="8.252249">
<ele>9.559555</ele>
<time>2026-07-13T15:10:48.000Z</time>
</trkpt>
<trkpt lat="56.771313" lon="8.252244">
<ele>9.563180</ele>
<time>2026-07-13T15:10:49.000Z</time>
</trkpt>
<trkpt lat="56.771362" lon="8.252241">
<ele>9.566729</ele>
<time>2026-07-13T15:10:50.000Z</time>
</trkpt>
<trkpt lat="56.771412" lon="8.252241">
<ele>9.570349</ele>
<time>2026-07-13T15:10:51.000Z</time>
</trkpt>
<trkpt lat="56.771465" lon="8.252245">
<ele>9.580425</ele>
<time>2026-07-13T15:10:52.000Z</time>
</trkpt>
<trkpt lat="56.771515" lon="8.252251">
<ele>9.595761</ele>
<time>2026-07-13T15:10:53.000Z</time>
</trkpt>
<trkpt lat="56.771565" lon="8.252255">
<ele>9.611078</ele>
<time>2026-07-13T15:10:54.000Z</time>
</trkpt>
<trkpt lat="56.771618" lon="8.252263">
<ele>9.627354</ele>
<time>2026-07-13T15:10:55.000Z</time>
</trkpt>
<trkpt lat="56.771667" lon="8.252273">
<ele>9.642444</ele>
<time>2026-07-13T15:10:56.000Z</time>
</trkpt>
<trkpt lat="56.771721" lon="8.252281">
<ele>9.659025</ele>
<time>2026-07-13T15:10:57.000Z</time>
</trkpt>
<trkpt lat="56.771770" lon="8.252290">
<ele>9.674098</ele>
<time>2026-07-13T15:10:58.000Z</time>
</trkpt>
<trkpt lat="56.771820" lon="8.252297">
<ele>9.689445</ele>
<time>2026-07-13T15:10:59.000Z</time>
</trkpt>
<trkpt lat="56.771870" lon="8.252304">
<ele>9.704793</ele>
<time>2026-07-13T15:11:00.000Z</time>
</trkpt>
<trkpt lat="56.771919" lon="8.252309">
<ele>9.719813</ele>
<time>2026-07-13T15:11:01.000Z</time>
</trkpt>
<trkpt lat="56.771969" lon="8.252314">
<ele>9.735139</ele>
<time>2026-07-13T15:11:02.000Z</time>
</trkpt>
<trkpt lat="56.772018" lon="8.252318">
<ele>9.750150</ele>
<time>2026-07-13T15:11:03.000Z</time>
</trkpt>
<trkpt lat="56.772072" lon="8.252321">
<ele>9.766685</ele>
<time>2026-07-13T15:11:04.000Z</time>
</trkpt>
<trkpt lat="56.772121" lon="8.252319">
<ele>9.781685</ele>
<time>2026-07-13T15:11:05.000Z</time>
</trkpt>
<trkpt lat="56.772171" lon="8.252314">
<ele>9.797011</ele>
<time>2026-07-13T15:11:06.000Z</time>
</trkpt>
<trkpt lat="56.772221" lon="8.252301">
<ele>9.812468</ele>
<time>2026-07-13T15:11:07.000Z</time>
</trkpt>
<trkpt lat="56.772266" lon="8.252278">
<ele>9.826770</ele>
<time>2026-07-13T15:11:08.000Z</time>
</trkpt>
<trkpt lat="56.772316" lon="8.252245">
<ele>9.843043</ele>
<time>2026-07-13T15:11:09.000Z</time>
</trkpt>
<trkpt lat="56.772362" lon="8.252208">
<ele>9.858428</ele>
<time>2026-07-13T15:11:10.000Z</time>
</trkpt>
<trkpt lat="56.772408" lon="8.252168">
<ele>9.874023</ele>
<time>2026-07-13T15:11:11.000Z</time>
</trkpt>
<trkpt lat="56.772453" lon="8.252127">
<ele>9.889417</ele>
<time>2026-07-13T15:11:12.000Z</time>
</trkpt>
<trkpt lat="56.772499" lon="8.252089">
<ele>9.904870</ele>
<time>2026-07-13T15:11:13.000Z</time>
</trkpt>
<trkpt lat="56.772545" lon="8.252052">
<ele>9.920255</ele>
<time>2026-07-13T15:11:14.000Z</time>
</trkpt>
<trkpt lat="56.772587" lon="8.252013">
<ele>9.934678</ele>
<time>2026-07-13T15:11:15.000Z</time>
</trkpt>
<trkpt lat="56.772629" lon="8.251974">
<ele>9.949100</ele>
<time>2026-07-13T15:11:16.000Z</time>
</trkpt>
<trkpt lat="56.772671" lon="8.251934">
<ele>9.963600</ele>
<time>2026-07-13T15:11:17.000Z</time>
</trkpt>
<trkpt lat="56.772709" lon="8.251896">
<ele>9.976861</ele>
<time>2026-07-13T15:11:18.000Z</time>
</trkpt>
<trkpt lat="56.772747" lon="8.251858">
<ele>9.990123</ele>
<time>2026-07-13T15:11:19.000Z</time>
</trkpt>
<trkpt lat="56.772793" lon="8.251820">
<ele>10.005577</ele>
<time>2026-07-13T15:11:20.000Z</time>
</trkpt>
<trkpt lat="56.772835" lon="8.251780">
<ele>10.020076</ele>
<time>2026-07-13T15:11:21.000Z</time>
</trkpt>
<trkpt lat="56.772881" lon="8.251743">
<ele>10.035461</ele>
<time>2026-07-13T15:11:22.000Z</time>
</trkpt>
<trkpt lat="56.772919" lon="8.251710">
<ele>10.048341</ele>
<time>2026-07-13T15:11:23.000Z</time>
</trkpt>
<trkpt lat="56.772961" lon="8.251678">
<ele>10.062270</ele>
<time>2026-07-13T15:11:24.000Z</time>
</trkpt>
<trkpt lat="56.773006" lon="8.251646">
<ele>10.077051</ele>
<time>2026-07-13T15:11:25.000Z</time>
</trkpt>
<trkpt lat="56.773052" lon="8.251607">
<ele>10.092575</ele>
<time>2026-07-13T15:11:26.000Z</time>
</trkpt>
<trkpt lat="56.773094" lon="8.251563">
<ele>10.107396</ele>
<time>2026-07-13T15:11:27.000Z</time>
</trkpt>
<trkpt lat="56.773140" lon="8.251515">
<ele>10.123490</ele>
<time>2026-07-13T15:11:28.000Z</time>
</trkpt>
<trkpt lat="56.773186" lon="8.251467">
<ele>10.137409</ele>
<time>2026-07-13T15:11:29.000Z</time>
</trkpt>
<trkpt lat="56.773232" lon="8.251417">
<ele>10.151474</ele>
<time>2026-07-13T15:11:30.000Z</time>
</trkpt>
<trkpt lat="56.773273" lon="8.251368">
<ele>10.164348</ele>
<time>2026-07-13T15:11:31.000Z</time>
</trkpt>
<trkpt lat="56.773319" lon="8.251317">
<ele>10.178487</ele>
<time>2026-07-13T15:11:32.000Z</time>
</trkpt>
<trkpt lat="56.773361" lon="8.251265">
<ele>10.191819</ele>
<time>2026-07-13T15:11:33.000Z</time>
</trkpt>
<trkpt lat="56.773407" lon="8.251211">
<ele>10.206187</ele>
<time>2026-07-13T15:11:34.000Z</time>
</trkpt>
<trkpt lat="56.773453" lon="8.251154">
<ele>10.220793</ele>
<time>2026-07-13T15:11:35.000Z</time>
</trkpt>
<trkpt lat="56.773499" lon="8.251096">
<ele>10.235480</ele>
<time>2026-07-13T15:11:36.000Z</time>
</trkpt>
<trkpt lat="56.773544" lon="8.251037">
<ele>10.250036</ele>
<time>2026-07-13T15:11:37.000Z</time>
</trkpt>
<trkpt lat="56.773590" lon="8.250975">
<ele>10.265058</ele>
<time>2026-07-13T15:11:38.000Z</time>
</trkpt>
<trkpt lat="56.773632" lon="8.250911">
<ele>10.279431</ele>
<time>2026-07-13T15:11:39.000Z</time>
</trkpt>
<trkpt lat="56.773678" lon="8.250845">
<ele>10.294802</ele>
<time>2026-07-13T15:11:40.000Z</time>
</trkpt>
<trkpt lat="56.773720" lon="8.250780">
<ele>10.309268</ele>
<time>2026-07-13T15:11:41.000Z</time>
</trkpt>
<trkpt lat="56.773762" lon="8.250713">
<ele>10.323922</ele>
<time>2026-07-13T15:11:42.000Z</time>
</trkpt>
<trkpt lat="56.773800" lon="8.250645">
<ele>10.337902</ele>
<time>2026-07-13T15:11:43.000Z</time>
</trkpt>
<trkpt lat="56.773838" lon="8.250575">
<ele>10.352085</ele>
<time>2026-07-13T15:11:44.000Z</time>
</trkpt>
<trkpt lat="56.773880" lon="8.250507">
<ele>10.366834</ele>
<time>2026-07-13T15:11:45.000Z</time>
</trkpt>
<trkpt lat="56.773918" lon="8.250433">
<ele>10.381432</ele>
<time>2026-07-13T15:11:46.000Z</time>
</trkpt>
<trkpt lat="56.773956" lon="8.250360">
<ele>10.395925</ele>
<time>2026-07-13T15:11:47.000Z</time>
</trkpt>
<trkpt lat="56.773994" lon="8.250285">
<ele>10.410629</ele>
<time>2026-07-13T15:11:48.000Z</time>
</trkpt>
<trkpt lat="56.774029" lon="8.250212">
<ele>10.424591</ele>
<time>2026-07-13T15:11:49.000Z</time>
</trkpt>
<trkpt lat="56.774067" lon="8.250136">
<ele>10.439400</ele>
<time>2026-07-13T15:11:50.000Z</time>
</trkpt>
<trkpt lat="56.774101" lon="8.250058">
<ele>10.453746</ele>
<time>2026-07-13T15:11:51.000Z</time>
</trkpt>
<trkpt lat="56.774136" lon="8.249983">
<ele>10.467926</ele>
<time>2026-07-13T15:11:52.000Z</time>
</trkpt>
<trkpt lat="56.774170" lon="8.249906">
<ele>10.482161</ele>
<time>2026-07-13T15:11:53.000Z</time>
</trkpt>
<trkpt lat="56.774204" lon="8.249828">
<ele>10.496507</ele>
<time>2026-07-13T15:11:54.000Z</time>
</trkpt>
<trkpt lat="56.774239" lon="8.249752">
<ele>10.510797</ele>
<time>2026-07-13T15:11:55.000Z</time>
</trkpt>
<trkpt lat="56.774273" lon="8.249673">
<ele>10.525256</ele>
<time>2026-07-13T15:11:56.000Z</time>
</trkpt>
<trkpt lat="56.774300" lon="8.249592">
<ele>10.538903</ele>
<time>2026-07-13T15:11:57.000Z</time>
</trkpt>
<trkpt lat="56.774330" lon="8.249511">
<ele>10.552976</ele>
<time>2026-07-13T15:11:58.000Z</time>
</trkpt>
<trkpt lat="56.774361" lon="8.249431">
<ele>10.567079</ele>
<time>2026-07-13T15:11:59.000Z</time>
</trkpt>
<trkpt lat="56.774387" lon="8.249353">
<ele>10.580221</ele>
<time>2026-07-13T15:12:00.000Z</time>
</trkpt>
<trkpt lat="56.774414" lon="8.249276">
<ele>10.593379</ele>
<time>2026-07-13T15:12:01.000Z</time>
</trkpt>
<trkpt lat="56.774441" lon="8.249198">
<ele>10.608768</ele>
<time>2026-07-13T15:12:02.000Z</time>
</trkpt>
<trkpt lat="56.774464" lon="8.249119">
<ele>10.624019</ele>
<time>2026-07-13T15:12:03.000Z</time>
</trkpt>
<trkpt lat="56.774487" lon="8.249040">
<ele>10.639270</ele>
<time>2026-07-13T15:12:04.000Z</time>
</trkpt>
<trkpt lat="56.774509" lon="8.248959">
<ele>10.654682</ele>
<time>2026-07-13T15:12:05.000Z</time>
</trkpt>
<trkpt lat="56.774532" lon="8.248876">
<ele>10.670539</ele>
<time>2026-07-13T15:12:06.000Z</time>
</trkpt>
<trkpt lat="56.774559" lon="8.248792">
<ele>10.687141</ele>
<time>2026-07-13T15:12:07.000Z</time>
</trkpt>
<trkpt lat="56.774582" lon="8.248706">
<ele>10.703456</ele>
<time>2026-07-13T15:12:08.000Z</time>
</trkpt>
<trkpt lat="56.774609" lon="8.248618">
<ele>10.720650</ele>
<time>2026-07-13T15:12:09.000Z</time>
</trkpt>
<trkpt lat="56.774632" lon="8.248528">
<ele>10.737580</ele>
<time>2026-07-13T15:12:10.000Z</time>
</trkpt>
<trkpt lat="56.774654" lon="8.248438">
<ele>10.754380</ele>
<time>2026-07-13T15:12:11.000Z</time>
</trkpt>
<trkpt lat="56.774681" lon="8.248347">
<ele>10.772022</ele>
<time>2026-07-13T15:12:12.000Z</time>
</trkpt>
<trkpt lat="56.774704" lon="8.248257">
<ele>10.788952</ele>
<time>2026-07-13T15:12:13.000Z</time>
</trkpt>
<trkpt lat="56.774727" lon="8.248167">
<ele>10.805882</ele>
<time>2026-07-13T15:12:14.000Z</time>
</trkpt>
<trkpt lat="56.774754" lon="8.248078">
<ele>10.823225</ele>
<time>2026-07-13T15:12:15.000Z</time>
</trkpt>
<trkpt lat="56.774776" lon="8.247989">
<ele>10.839870</ele>
<time>2026-07-13T15:12:16.000Z</time>
</trkpt>
<trkpt lat="56.774799" lon="8.247898">
<ele>10.856955</ele>
<time>2026-07-13T15:12:17.000Z</time>
</trkpt>
<trkpt lat="56.774826" lon="8.247807">
<ele>10.874597</ele>
<time>2026-07-13T15:12:18.000Z</time>
</trkpt>
<trkpt lat="56.774849" lon="8.247719">
<ele>10.891218</ele>
<time>2026-07-13T15:12:19.000Z</time>
</trkpt>
<trkpt lat="56.774876" lon="8.247630">
<ele>10.908561</ele>
<time>2026-07-13T15:12:20.000Z</time>
</trkpt>
<trkpt lat="56.774902" lon="8.247544">
<ele>10.925306</ele>
<time>2026-07-13T15:12:21.000Z</time>
</trkpt>
<trkpt lat="56.774925" lon="8.247458">
<ele>10.941620</ele>
<time>2026-07-13T15:12:22.000Z</time>
</trkpt>
<trkpt lat="56.774948" lon="8.247370">
<ele>10.958242</ele>
<time>2026-07-13T15:12:23.000Z</time>
</trkpt>
<trkpt lat="56.774971" lon="8.247283">
<ele>10.974710</ele>
<time>2026-07-13T15:12:24.000Z</time>
</trkpt>
<trkpt lat="56.774994" lon="8.247194">
<ele>10.991485</ele>
<time>2026-07-13T15:12:25.000Z</time>
</trkpt>
<trkpt lat="56.775017" lon="8.247106">
<ele>11.008106</ele>
<time>2026-07-13T15:12:26.000Z</time>
</trkpt>
<trkpt lat="56.775040" lon="8.247018">
<ele>11.024728</ele>
<time>2026-07-13T15:12:27.000Z</time>
</trkpt>
<trkpt lat="56.775063" lon="8.246931">
<ele>11.041196</ele>
<time>2026-07-13T15:12:28.000Z</time>
</trkpt>
<trkpt lat="56.775089" lon="8.246845">
<ele>11.057940</ele>
<time>2026-07-13T15:12:29.000Z</time>
</trkpt>
<trkpt lat="56.775112" lon="8.246759">
<ele>11.074255</ele>
<time>2026-07-13T15:12:30.000Z</time>
</trkpt>
<trkpt lat="56.775135" lon="8.246673">
<ele>11.090569</ele>
<time>2026-07-13T15:12:31.000Z</time>
</trkpt>
<trkpt lat="56.775158" lon="8.246588">
<ele>11.106730</ele>
<time>2026-07-13T15:12:32.000Z</time>
</trkpt>
<trkpt lat="56.775181" lon="8.246500">
<ele>11.123351</ele>
<time>2026-07-13T15:12:33.000Z</time>
</trkpt>
<trkpt lat="56.775208" lon="8.246411">
<ele>11.140694</ele>
<time>2026-07-13T15:12:34.000Z</time>
</trkpt>
<trkpt lat="56.775230" lon="8.246322">
<ele>11.152757</ele>
<time>2026-07-13T15:12:35.000Z</time>
</trkpt>
<trkpt lat="56.775253" lon="8.246232">
<ele>11.138670</ele>
<time>2026-07-13T15:12:36.000Z</time>
</trkpt>
<trkpt lat="56.775276" lon="8.246144">
<ele>11.124840</ele>
<time>2026-07-13T15:12:37.000Z</time>
</trkpt>
<trkpt lat="56.775299" lon="8.246057">
<ele>11.111137</ele>
<time>2026-07-13T15:12:38.000Z</time>
</trkpt>
<trkpt lat="56.775322" lon="8.245970">
<ele>11.097434</ele>
<time>2026-07-13T15:12:39.000Z</time>
</trkpt>
<trkpt lat="56.775341" lon="8.245881">
<ele>11.083885</ele>
<time>2026-07-13T15:12:40.000Z</time>
</trkpt>
<trkpt lat="56.775368" lon="8.245795">
<ele>11.069824</ele>
<time>2026-07-13T15:12:41.000Z</time>
</trkpt>
<trkpt lat="56.775391" lon="8.245708">
<ele>11.056122</ele>
<time>2026-07-13T15:12:42.000Z</time>
</trkpt>
<trkpt lat="56.775413" lon="8.245623">
<ele>11.042786</ele>
<time>2026-07-13T15:12:43.000Z</time>
</trkpt>
<trkpt lat="56.775433" lon="8.245538">
<ele>11.029664</ele>
<time>2026-07-13T15:12:44.000Z</time>
</trkpt>
<trkpt lat="56.775455" lon="8.245451">
<ele>11.016072</ele>
<time>2026-07-13T15:12:45.000Z</time>
</trkpt>
<trkpt lat="56.775478" lon="8.245364">
<ele>11.002369</ele>
<time>2026-07-13T15:12:46.000Z</time>
</trkpt>
<trkpt lat="56.775501" lon="8.245276">
<ele>10.988539</ele>
<time>2026-07-13T15:12:47.000Z</time>
</trkpt>
<trkpt lat="56.775524" lon="8.245188">
<ele>10.974708</ele>
<time>2026-07-13T15:12:48.000Z</time>
</trkpt>
<trkpt lat="56.775547" lon="8.245098">
<ele>10.960621</ele>
<time>2026-07-13T15:12:49.000Z</time>
</trkpt>
<trkpt lat="56.775570" lon="8.245009">
<ele>10.946662</ele>
<time>2026-07-13T15:12:50.000Z</time>
</trkpt>
<trkpt lat="56.775593" lon="8.244918">
<ele>10.932446</ele>
<time>2026-07-13T15:12:51.000Z</time>
</trkpt>
<trkpt lat="56.775620" lon="8.244828">
<ele>10.917891</ele>
<time>2026-07-13T15:12:52.000Z</time>
</trkpt>
<trkpt lat="56.775642" lon="8.244738">
<ele>10.903911</ele>
<time>2026-07-13T15:12:53.000Z</time>
</trkpt>
<trkpt lat="56.775665" lon="8.244647">
<ele>10.889696</ele>
<time>2026-07-13T15:12:54.000Z</time>
</trkpt>
<trkpt lat="56.775688" lon="8.244557">
<ele>10.875608</ele>
<time>2026-07-13T15:12:55.000Z</time>
</trkpt>
<trkpt lat="56.775711" lon="8.244467">
<ele>10.861521</ele>
<time>2026-07-13T15:12:56.000Z</time>
</trkpt>
<trkpt lat="56.775734" lon="8.244378">
<ele>10.847563</ele>
<time>2026-07-13T15:12:57.000Z</time>
</trkpt>
<trkpt lat="56.775757" lon="8.244286">
<ele>10.833218</ele>
<time>2026-07-13T15:12:58.000Z</time>
</trkpt>
<trkpt lat="56.775780" lon="8.244195">
<ele>10.819002</ele>
<time>2026-07-13T15:12:59.000Z</time>
</trkpt>
<trkpt lat="56.775803" lon="8.244106">
<ele>10.805043</ele>
<time>2026-07-13T15:13:00.000Z</time>
</trkpt>
<trkpt lat="56.775829" lon="8.244018">
<ele>10.790861</ele>
<time>2026-07-13T15:13:01.000Z</time>
</trkpt>
<trkpt lat="56.775856" lon="8.243928">
<ele>10.776306</ele>
<time>2026-07-13T15:13:02.000Z</time>
</trkpt>
<trkpt lat="56.775883" lon="8.243838">
<ele>10.761751</ele>
<time>2026-07-13T15:13:03.000Z</time>
</trkpt>
<trkpt lat="56.775906" lon="8.243750">
<ele>10.747920</ele>
<time>2026-07-13T15:13:04.000Z</time>
</trkpt>
<trkpt lat="56.775928" lon="8.243663">
<ele>10.734328</ele>
<time>2026-07-13T15:13:05.000Z</time>
</trkpt>
<trkpt lat="56.775948" lon="8.243572">
<ele>10.720420</ele>
<time>2026-07-13T15:13:06.000Z</time>
</trkpt>
<trkpt lat="56.775974" lon="8.243485">
<ele>10.706363</ele>
<time>2026-07-13T15:13:07.000Z</time>
</trkpt>
<trkpt lat="56.775997" lon="8.243397">
<ele>10.692532</ele>
<time>2026-07-13T15:13:08.000Z</time>
</trkpt>
<trkpt lat="56.776020" lon="8.243303">
<ele>10.683647</ele>
<time>2026-07-13T15:13:09.000Z</time>
</trkpt>
<trkpt lat="56.776043" lon="8.243211">
<ele>10.676592</ele>
<time>2026-07-13T15:13:10.000Z</time>
</trkpt>
<trkpt lat="56.776066" lon="8.243118">
<ele>10.669475</ele>
<time>2026-07-13T15:13:11.000Z</time>
</trkpt>
<trkpt lat="56.776089" lon="8.243026">
<ele>10.662420</ele>
<time>2026-07-13T15:13:12.000Z</time>
</trkpt>
<trkpt lat="56.776112" lon="8.242934">
<ele>10.655366</ele>
<time>2026-07-13T15:13:13.000Z</time>
</trkpt>
<trkpt lat="56.776138" lon="8.242845">
<ele>10.648330</ele>
<time>2026-07-13T15:13:14.000Z</time>
</trkpt>
<trkpt lat="56.776161" lon="8.242755">
<ele>10.641402</ele>
<time>2026-07-13T15:13:15.000Z</time>
</trkpt>
<trkpt lat="56.776184" lon="8.242665">
<ele>10.634475</ele>
<time>2026-07-13T15:13:16.000Z</time>
</trkpt>
<trkpt lat="56.776207" lon="8.242578">
<ele>10.627736</ele>
<time>2026-07-13T15:13:17.000Z</time>
</trkpt>
<trkpt lat="56.776226" lon="8.242487">
<ele>10.620943</ele>
<time>2026-07-13T15:13:18.000Z</time>
</trkpt>
<trkpt lat="56.776253" lon="8.242397">
<ele>10.613785</ele>
<time>2026-07-13T15:13:19.000Z</time>
</trkpt>
<trkpt lat="56.776276" lon="8.242308">
<ele>10.606920</ele>
<time>2026-07-13T15:13:20.000Z</time>
</trkpt>
<trkpt lat="56.776299" lon="8.242219">
<ele>10.600056</ele>
<time>2026-07-13T15:13:21.000Z</time>
</trkpt>
<trkpt lat="56.776318" lon="8.242130">
<ele>10.593393</ele>
<time>2026-07-13T15:13:22.000Z</time>
</trkpt>
<trkpt lat="56.776344" lon="8.242046">
<ele>10.586663</ele>
<time>2026-07-13T15:13:23.000Z</time>
</trkpt>
<trkpt lat="56.776367" lon="8.241959">
<ele>10.579924</ele>
<time>2026-07-13T15:13:24.000Z</time>
</trkpt>
<trkpt lat="56.776390" lon="8.241866">
<ele>10.572806</ele>
<time>2026-07-13T15:13:25.000Z</time>
</trkpt>
<trkpt lat="56.776413" lon="8.241776">
<ele>10.565879</ele>
<time>2026-07-13T15:13:26.000Z</time>
</trkpt>
<trkpt lat="56.776436" lon="8.241687">
<ele>10.559014</ele>
<time>2026-07-13T15:13:27.000Z</time>
</trkpt>
<trkpt lat="56.776463" lon="8.241597">
<ele>10.551856</ele>
<time>2026-07-13T15:13:28.000Z</time>
</trkpt>
<trkpt lat="56.776485" lon="8.241506">
<ele>10.544918</ele>
<time>2026-07-13T15:13:29.000Z</time>
</trkpt>
<trkpt lat="56.776508" lon="8.241415">
<ele>10.537927</ele>
<time>2026-07-13T15:13:30.000Z</time>
</trkpt>
<trkpt lat="56.776535" lon="8.241324">
<ele>10.530708</ele>
<time>2026-07-13T15:13:31.000Z</time>
</trkpt>
<trkpt lat="56.776558" lon="8.241235">
<ele>10.523843</ele>
<time>2026-07-13T15:13:32.000Z</time>
</trkpt>
<trkpt lat="56.776581" lon="8.241149">
<ele>10.517168</ele>
<time>2026-07-13T15:13:33.000Z</time>
</trkpt>
<trkpt lat="56.776604" lon="8.241063">
<ele>10.510492</ele>
<time>2026-07-13T15:13:34.000Z</time>
</trkpt>
<trkpt lat="56.776627" lon="8.240973">
<ele>10.503564</ele>
<time>2026-07-13T15:13:35.000Z</time>
</trkpt>
<trkpt lat="56.776646" lon="8.240883">
<ele>10.496836</ele>
<time>2026-07-13T15:13:36.000Z</time>
</trkpt>
<trkpt lat="56.776669" lon="8.240792">
<ele>10.489845</ele>
<time>2026-07-13T15:13:37.000Z</time>
</trkpt>
<trkpt lat="56.776691" lon="8.240702">
<ele>10.482971</ele>
<time>2026-07-13T15:13:38.000Z</time>
</trkpt>
<trkpt lat="56.776714" lon="8.240610">
<ele>10.475916</ele>
<time>2026-07-13T15:13:39.000Z</time>
</trkpt>
<trkpt lat="56.776741" lon="8.240520">
<ele>10.468759</ele>
<time>2026-07-13T15:13:40.000Z</time>
</trkpt>
<trkpt lat="56.776768" lon="8.240430">
<ele>10.461601</ele>
<time>2026-07-13T15:13:41.000Z</time>
</trkpt>
<trkpt lat="56.776791" lon="8.240338">
<ele>10.465674</ele>
<time>2026-07-13T15:13:42.000Z</time>
</trkpt>
<trkpt lat="56.776817" lon="8.240250">
<ele>10.472478</ele>
<time>2026-07-13T15:13:43.000Z</time>
</trkpt>
<trkpt lat="56.776840" lon="8.240160">
<ele>10.479236</ele>
<time>2026-07-13T15:13:44.000Z</time>
</trkpt>
<trkpt lat="56.776867" lon="8.240068">
<ele>10.486339</ele>
<time>2026-07-13T15:13:45.000Z</time>
</trkpt>
<trkpt lat="56.776890" lon="8.239975">
<ele>10.493282</ele>
<time>2026-07-13T15:13:46.000Z</time>
</trkpt>
<trkpt lat="56.776913" lon="8.239883">
<ele>10.500164</ele>
<time>2026-07-13T15:13:47.000Z</time>
</trkpt>
<trkpt lat="56.776939" lon="8.239794">
<ele>10.507028</ele>
<time>2026-07-13T15:13:48.000Z</time>
</trkpt>
<trkpt lat="56.776962" lon="8.239704">
<ele>10.513786</ele>
<time>2026-07-13T15:13:49.000Z</time>
</trkpt>
<trkpt lat="56.776989" lon="8.239613">
<ele>10.520828</ele>
<time>2026-07-13T15:13:50.000Z</time>
</trkpt>
<trkpt lat="56.777012" lon="8.239519">
<ele>10.527834</ele>
<time>2026-07-13T15:13:51.000Z</time>
</trkpt>
<trkpt lat="56.777035" lon="8.239427">
<ele>10.534716</ele>
<time>2026-07-13T15:13:52.000Z</time>
</trkpt>
<trkpt lat="56.777058" lon="8.239335">
<ele>10.541597</ele>
<time>2026-07-13T15:13:53.000Z</time>
</trkpt>
<trkpt lat="56.777081" lon="8.239240">
<ele>10.548665</ele>
<time>2026-07-13T15:13:54.000Z</time>
</trkpt>
<trkpt lat="56.777103" lon="8.239146">
<ele>10.555621</ele>
<time>2026-07-13T15:13:55.000Z</time>
</trkpt>
<trkpt lat="56.777126" lon="8.239053">
<ele>10.562565</ele>
<time>2026-07-13T15:13:56.000Z</time>
</trkpt>
<trkpt lat="56.777153" lon="8.238960">
<ele>10.569727</ele>
<time>2026-07-13T15:13:57.000Z</time>
</trkpt>
<trkpt lat="56.777176" lon="8.238868">
<ele>10.576609</ele>
<time>2026-07-13T15:13:58.000Z</time>
</trkpt>
<trkpt lat="56.777203" lon="8.238773">
<ele>10.583892</ele>
<time>2026-07-13T15:13:59.000Z</time>
</trkpt>
<trkpt lat="56.777225" lon="8.238682">
<ele>10.590661</ele>
<time>2026-07-13T15:14:00.000Z</time>
</trkpt>
<trkpt lat="56.777252" lon="8.238589">
<ele>10.597823</ele>
<time>2026-07-13T15:14:01.000Z</time>
</trkpt>
<trkpt lat="56.777279" lon="8.238493">
<ele>10.605166</ele>
<time>2026-07-13T15:14:02.000Z</time>
</trkpt>
<trkpt lat="56.777306" lon="8.238399">
<ele>10.612389</ele>
<time>2026-07-13T15:14:03.000Z</time>
</trkpt>
<trkpt lat="56.777328" lon="8.238308">
<ele>10.619158</ele>
<time>2026-07-13T15:14:04.000Z</time>
</trkpt>
<trkpt lat="56.777351" lon="8.238220">
<ele>10.625792</ele>
<time>2026-07-13T15:14:05.000Z</time>
</trkpt>
<trkpt lat="56.777374" lon="8.238131">
<ele>10.632489</ele>
<time>2026-07-13T15:14:06.000Z</time>
</trkpt>
<trkpt lat="56.777401" lon="8.238041">
<ele>10.639472</ele>
<time>2026-07-13T15:14:07.000Z</time>
</trkpt>
<trkpt lat="56.777424" lon="8.237952">
<ele>10.646168</ele>
<time>2026-07-13T15:14:08.000Z</time>
</trkpt>
<trkpt lat="56.777447" lon="8.237865">
<ele>10.652742</ele>
<time>2026-07-13T15:14:09.000Z</time>
</trkpt>
<trkpt lat="56.777470" lon="8.237778">
<ele>10.659315</ele>
<time>2026-07-13T15:14:10.000Z</time>
</trkpt>
<trkpt lat="56.777493" lon="8.237689">
<ele>10.666012</ele>
<time>2026-07-13T15:14:11.000Z</time>
</trkpt>
<trkpt lat="56.777515" lon="8.237598">
<ele>10.672780</ele>
<time>2026-07-13T15:14:12.000Z</time>
</trkpt>
<trkpt lat="56.777538" lon="8.237509">
<ele>10.679477</ele>
<time>2026-07-13T15:14:13.000Z</time>
</trkpt>
<trkpt lat="56.777561" lon="8.237419">
<ele>10.685740</ele>
<time>2026-07-13T15:14:14.000Z</time>
</trkpt>
<trkpt lat="56.777584" lon="8.237329">
<ele>10.691238</ele>
<time>2026-07-13T15:14:15.000Z</time>
</trkpt>
<trkpt lat="56.777611" lon="8.237240">
<ele>10.696870</ele>
<time>2026-07-13T15:14:16.000Z</time>
</trkpt>
<trkpt lat="56.777634" lon="8.237151">
<ele>10.702318</ele>
<time>2026-07-13T15:14:17.000Z</time>
</trkpt>
<trkpt lat="56.777657" lon="8.237063">
<ele>10.707716</ele>
<time>2026-07-13T15:14:18.000Z</time>
</trkpt>
<trkpt lat="56.777679" lon="8.236979">
<ele>10.712870</ele>
<time>2026-07-13T15:14:19.000Z</time>
</trkpt>
<trkpt lat="56.777702" lon="8.236894">
<ele>10.718119</ele>
<time>2026-07-13T15:14:20.000Z</time>
</trkpt>
<trkpt lat="56.777725" lon="8.236810">
<ele>10.723318</ele>
<time>2026-07-13T15:14:21.000Z</time>
</trkpt>
<trkpt lat="56.777748" lon="8.236726">
<ele>10.728517</ele>
<time>2026-07-13T15:14:22.000Z</time>
</trkpt>
<trkpt lat="56.777771" lon="8.236640">
<ele>10.733815</ele>
<time>2026-07-13T15:14:23.000Z</time>
</trkpt>
<trkpt lat="56.777798" lon="8.236553">
<ele>10.739351</ele>
<time>2026-07-13T15:14:24.000Z</time>
</trkpt>
<trkpt lat="56.777821" lon="8.236466">
<ele>10.744699</ele>
<time>2026-07-13T15:14:25.000Z</time>
</trkpt>
<trkpt lat="56.777843" lon="8.236379">
<ele>10.750004</ele>
<time>2026-07-13T15:14:26.000Z</time>
</trkpt>
<trkpt lat="56.777866" lon="8.236288">
<ele>10.755552</ele>
<time>2026-07-13T15:14:27.000Z</time>
</trkpt>
<trkpt lat="56.777889" lon="8.236200">
<ele>10.760950</ele>
<time>2026-07-13T15:14:28.000Z</time>
</trkpt>
<trkpt lat="56.777916" lon="8.236113">
<ele>10.766485</ele>
<time>2026-07-13T15:14:29.000Z</time>
</trkpt>
<trkpt lat="56.777939" lon="8.236022">
<ele>10.772034</ele>
<time>2026-07-13T15:14:30.000Z</time>
</trkpt>
<trkpt lat="56.777962" lon="8.235932">
<ele>10.777532</ele>
<time>2026-07-13T15:14:31.000Z</time>
</trkpt>
<trkpt lat="56.777985" lon="8.235844">
<ele>10.782930</ele>
<time>2026-07-13T15:14:32.000Z</time>
</trkpt>
<trkpt lat="56.778008" lon="8.235756">
<ele>10.788328</ele>
<time>2026-07-13T15:14:33.000Z</time>
</trkpt>
<trkpt lat="56.778030" lon="8.235669">
<ele>10.793632</ele>
<time>2026-07-13T15:14:34.000Z</time>
</trkpt>
<trkpt lat="56.778053" lon="8.235579">
<ele>10.799130</ele>
<time>2026-07-13T15:14:35.000Z</time>
</trkpt>
<trkpt lat="56.778076" lon="8.235492">
<ele>10.804478</ele>
<time>2026-07-13T15:14:36.000Z</time>
</trkpt>
<trkpt lat="56.778099" lon="8.235403">
<ele>10.809926</ele>
<time>2026-07-13T15:14:37.000Z</time>
</trkpt>
<trkpt lat="56.778122" lon="8.235313">
<ele>10.815424</ele>
<time>2026-07-13T15:14:38.000Z</time>
</trkpt>
<trkpt lat="56.778145" lon="8.235224">
<ele>10.820872</ele>
<time>2026-07-13T15:14:39.000Z</time>
</trkpt>
<trkpt lat="56.778168" lon="8.235134">
<ele>10.826370</ele>
<time>2026-07-13T15:14:40.000Z</time>
</trkpt>
<trkpt lat="56.778194" lon="8.235044">
<ele>10.832003</ele>
<time>2026-07-13T15:14:41.000Z</time>
</trkpt>
<trkpt lat="56.778217" lon="8.234954">
<ele>10.837501</ele>
<time>2026-07-13T15:14:42.000Z</time>
</trkpt>
<trkpt lat="56.778240" lon="8.234864">
<ele>10.842999</ele>
<time>2026-07-13T15:14:43.000Z</time>
</trkpt>
<trkpt lat="56.778263" lon="8.234776">
<ele>10.848397</ele>
<time>2026-07-13T15:14:44.000Z</time>
</trkpt>
<trkpt lat="56.778286" lon="8.234680">
<ele>10.854198</ele>
<time>2026-07-13T15:14:45.000Z</time>
</trkpt>
<trkpt lat="56.778309" lon="8.234591">
<ele>10.859646</ele>
<time>2026-07-13T15:14:46.000Z</time>
</trkpt>
<trkpt lat="56.778332" lon="8.234506">
<ele>10.864894</ele>
<time>2026-07-13T15:14:47.000Z</time>
</trkpt>
<trkpt lat="56.778355" lon="8.234417">
<ele>10.855840</ele>
<time>2026-07-13T15:14:48.000Z</time>
</trkpt>
<trkpt lat="56.778378" lon="8.234326">
<ele>10.845337</ele>
<time>2026-07-13T15:14:49.000Z</time>
</trkpt>
<trkpt lat="56.778404" lon="8.234237">
<ele>10.834767</ele>
<time>2026-07-13T15:14:50.000Z</time>
</trkpt>
<trkpt lat="56.778427" lon="8.234148">
<ele>10.824454</ele>
<time>2026-07-13T15:14:51.000Z</time>
</trkpt>
<trkpt lat="56.778454" lon="8.234058">
<ele>10.813700</ele>
<time>2026-07-13T15:14:52.000Z</time>
</trkpt>
<trkpt lat="56.778477" lon="8.233967">
<ele>10.803197</ele>
<time>2026-07-13T15:14:53.000Z</time>
</trkpt>
<trkpt lat="56.778500" lon="8.233877">
<ele>10.792789</ele>
<time>2026-07-13T15:14:54.000Z</time>
</trkpt>
<trkpt lat="56.778522" lon="8.233788">
<ele>10.782556</ele>
<time>2026-07-13T15:14:55.000Z</time>
</trkpt>
<trkpt lat="56.778545" lon="8.233700">
<ele>10.772337</ele>
<time>2026-07-13T15:14:56.000Z</time>
</trkpt>
<trkpt lat="56.778568" lon="8.233613">
<ele>10.762213</ele>
<time>2026-07-13T15:14:57.000Z</time>
</trkpt>
<trkpt lat="56.778595" lon="8.233525">
<ele>10.751643</ele>
<time>2026-07-13T15:14:58.000Z</time>
</trkpt>
<trkpt lat="56.778618" lon="8.233437">
<ele>10.741424</ele>
<time>2026-07-13T15:14:59.000Z</time>
</trkpt>
<trkpt lat="56.778641" lon="8.233349">
<ele>10.731206</ele>
<time>2026-07-13T15:15:00.000Z</time>
</trkpt>
<trkpt lat="56.778664" lon="8.233261">
<ele>10.720988</ele>
<time>2026-07-13T15:15:01.000Z</time>
</trkpt>
<trkpt lat="56.778690" lon="8.233172">
<ele>10.710417</ele>
<time>2026-07-13T15:15:02.000Z</time>
</trkpt>
<trkpt lat="56.778713" lon="8.233084">
<ele>10.700199</ele>
<time>2026-07-13T15:15:03.000Z</time>
</trkpt>
<trkpt lat="56.778740" lon="8.232998">
<ele>10.689811</ele>
<time>2026-07-13T15:15:04.000Z</time>
</trkpt>
<trkpt lat="56.778770" lon="8.232913">
<ele>10.679214</ele>
<time>2026-07-13T15:15:05.000Z</time>
</trkpt>
<trkpt lat="56.778797" lon="8.232831">
<ele>10.669187</ele>
<time>2026-07-13T15:15:06.000Z</time>
</trkpt>
<trkpt lat="56.778828" lon="8.232747">
<ele>10.658573</ele>
<time>2026-07-13T15:15:07.000Z</time>
</trkpt>
<trkpt lat="56.778858" lon="8.232663">
<ele>10.648064</ele>
<time>2026-07-13T15:15:08.000Z</time>
</trkpt>
<trkpt lat="56.778889" lon="8.232583">
<ele>10.637795</ele>
<time>2026-07-13T15:15:09.000Z</time>
</trkpt>
<trkpt lat="56.778923" lon="8.232505">
<ele>10.627349</ele>
<time>2026-07-13T15:15:10.000Z</time>
</trkpt>
<trkpt lat="56.778957" lon="8.232428">
<ele>10.616984</ele>
<time>2026-07-13T15:15:11.000Z</time>
</trkpt>
<trkpt lat="56.778995" lon="8.232356">
<ele>10.606507</ele>
<time>2026-07-13T15:15:12.000Z</time>
</trkpt>
<trkpt lat="56.779034" lon="8.232286">
<ele>10.596044</ele>
<time>2026-07-13T15:15:13.000Z</time>
</trkpt>
<trkpt lat="56.779068" lon="8.232219">
<ele>10.586473</ele>
<time>2026-07-13T15:15:14.000Z</time>
</trkpt>
<trkpt lat="56.779110" lon="8.232152">
<ele>10.575802</ele>
<time>2026-07-13T15:15:15.000Z</time>
</trkpt>
<trkpt lat="56.779148" lon="8.232088">
<ele>10.565912</ele>
<time>2026-07-13T15:15:16.000Z</time>
</trkpt>
<trkpt lat="56.779190" lon="8.232026">
<ele>10.555579</ele>
<time>2026-07-13T15:15:17.000Z</time>
</trkpt>
<trkpt lat="56.779232" lon="8.231964">
<ele>10.545246</ele>
<time>2026-07-13T15:15:18.000Z</time>
</trkpt>
<trkpt lat="56.779274" lon="8.231903">
<ele>10.534978</ele>
<time>2026-07-13T15:15:19.000Z</time>
</trkpt>
<trkpt lat="56.779316" lon="8.231844">
<ele>10.524840</ele>
<time>2026-07-13T15:15:20.000Z</time>
</trkpt>
<trkpt lat="56.779362" lon="8.231788">
<ele>10.494411</ele>
<time>2026-07-13T15:15:21.000Z</time>
</trkpt>
<trkpt lat="56.779408" lon="8.231733">
<ele>10.454070</ele>
<time>2026-07-13T15:15:22.000Z</time>
</trkpt>
<trkpt lat="56.779453" lon="8.231680">
<ele>10.414782</ele>
<time>2026-07-13T15:15:23.000Z</time>
</trkpt>
<trkpt lat="56.779503" lon="8.231625">
<ele>10.371956</ele>
<time>2026-07-13T15:15:24.000Z</time>
</trkpt>
<trkpt lat="56.779549" lon="8.231571">
<ele>10.331833</ele>
<time>2026-07-13T15:15:25.000Z</time>
</trkpt>
<trkpt lat="56.779598" lon="8.231523">
<ele>10.291037</ele>
<time>2026-07-13T15:15:26.000Z</time>
</trkpt>
<trkpt lat="56.779652" lon="8.231481">
<ele>10.247976</ele>
<time>2026-07-13T15:15:27.000Z</time>
</trkpt>
<trkpt lat="56.779701" lon="8.231441">
<ele>10.208598</ele>
<time>2026-07-13T15:15:28.000Z</time>
</trkpt>
<trkpt lat="56.779751" lon="8.231404">
<ele>10.169018</ele>
<time>2026-07-13T15:15:29.000Z</time>
</trkpt>
<trkpt lat="56.779800" lon="8.231365">
<ele>10.129802</ele>
<time>2026-07-13T15:15:30.000Z</time>
</trkpt>
<trkpt lat="56.779846" lon="8.231326">
<ele>10.092594</ele>
<time>2026-07-13T15:15:31.000Z</time>
</trkpt>
<trkpt lat="56.779892" lon="8.231290">
<ele>10.055877</ele>
<time>2026-07-13T15:15:32.000Z</time>
</trkpt>
<trkpt lat="56.779934" lon="8.231257">
<ele>10.022332</ele>
<time>2026-07-13T15:15:33.000Z</time>
</trkpt>
<trkpt lat="56.779972" lon="8.231225">
<ele>9.991631</ele>
<time>2026-07-13T15:15:34.000Z</time>
</trkpt>
<trkpt lat="56.780014" lon="8.231194">
<ele>9.958396</ele>
<time>2026-07-13T15:15:35.000Z</time>
</trkpt>
<trkpt lat="56.780052" lon="8.231171">
<ele>9.929027</ele>
<time>2026-07-13T15:15:36.000Z</time>
</trkpt>
<trkpt lat="56.780090" lon="8.231155">
<ele>9.900418</ele>
<time>2026-07-13T15:15:37.000Z</time>
</trkpt>
<trkpt lat="56.780125" lon="8.231151">
<ele>9.874691</ele>
<time>2026-07-13T15:15:38.000Z</time>
</trkpt>
<trkpt lat="56.780167" lon="8.231157">
<ele>9.843786</ele>
<time>2026-07-13T15:15:39.000Z</time>
</trkpt>
<trkpt lat="56.780201" lon="8.231169">
<ele>9.818381</ele>
<time>2026-07-13T15:15:40.000Z</time>
</trkpt>
<trkpt lat="56.780235" lon="8.231180">
<ele>9.793050</ele>
<time>2026-07-13T15:15:41.000Z</time>
</trkpt>
<trkpt lat="56.780270" lon="8.231194">
<ele>9.766764</ele>
<time>2026-07-13T15:15:42.000Z</time>
</trkpt>
<trkpt lat="56.780300" lon="8.231205">
<ele>9.744316</ele>
<time>2026-07-13T15:15:43.000Z</time>
</trkpt>
<trkpt lat="56.780323" lon="8.231214">
<ele>9.727060</ele>
<time>2026-07-13T15:15:44.000Z</time>
</trkpt>
<trkpt lat="56.780300" lon="8.231185">
<ele>9.706553</ele>
<time>2026-07-13T15:16:41.000Z</time>
</trkpt>
<trkpt lat="56.780289" lon="8.231182">
<ele>9.698394</ele>
<time>2026-07-13T15:16:42.000Z</time>
</trkpt>
<trkpt lat="56.780270" lon="8.231183">
<ele>9.684450</ele>
<time>2026-07-13T15:16:43.000Z</time>
</trkpt>
<trkpt lat="56.780251" lon="8.231186">
<ele>9.670459</ele>
<time>2026-07-13T15:16:44.000Z</time>
</trkpt>
<trkpt lat="56.780231" lon="8.231186">
<ele>9.655787</ele>
<time>2026-07-13T15:16:45.000Z</time>
</trkpt>
<trkpt lat="56.780205" lon="8.231180">
<ele>9.636561</ele>
<time>2026-07-13T15:16:46.000Z</time>
</trkpt>
<trkpt lat="56.780174" lon="8.231172">
<ele>9.613593</ele>
<time>2026-07-13T15:16:47.000Z</time>
</trkpt>
<trkpt lat="56.780144" lon="8.231161">
<ele>9.591146</ele>
<time>2026-07-13T15:16:48.000Z</time>
</trkpt>
<trkpt lat="56.780113" lon="8.231157">
<ele>9.568347</ele>
<time>2026-07-13T15:16:49.000Z</time>
</trkpt>
<trkpt lat="56.780079" lon="8.231163">
<ele>9.543288</ele>
<time>2026-07-13T15:16:50.000Z</time>
</trkpt>
<trkpt lat="56.780045" lon="8.231175">
<ele>9.517884</ele>
<time>2026-07-13T15:16:51.000Z</time>
</trkpt>
<trkpt lat="56.780014" lon="8.231191">
<ele>9.494250</ele>
<time>2026-07-13T15:16:52.000Z</time>
</trkpt>
<trkpt lat="56.779984" lon="8.231208">
<ele>9.471206</ele>
<time>2026-07-13T15:16:53.000Z</time>
</trkpt>
<trkpt lat="56.779949" lon="8.231227">
<ele>9.444418</ele>
<time>2026-07-13T15:16:54.000Z</time>
</trkpt>
<trkpt lat="56.779923" lon="8.231248">
<ele>9.423561</ele>
<time>2026-07-13T15:16:55.000Z</time>
</trkpt>
<trkpt lat="56.779900" lon="8.231277">
<ele>9.403053</ele>
<time>2026-07-13T15:16:56.000Z</time>
</trkpt>
<trkpt lat="56.779888" lon="8.231308">
<ele>9.387798</ele>
<time>2026-07-13T15:16:57.000Z</time>
</trkpt>
<trkpt lat="56.779884" lon="8.231342">
<ele>9.373821</ele>
<time>2026-07-13T15:16:58.000Z</time>
</trkpt>
<trkpt lat="56.779892" lon="8.231373">
<ele>9.360049</ele>
<time>2026-07-13T15:16:59.000Z</time>
</trkpt>
<trkpt lat="56.779900" lon="8.231399">
<ele>9.348064</ele>
<time>2026-07-13T15:17:00.000Z</time>
</trkpt>
<trkpt lat="56.779923" lon="8.231431">
<ele>9.326849</ele>
<time>2026-07-13T15:17:01.000Z</time>
</trkpt>
<trkpt lat="56.779942" lon="8.231453">
<ele>9.310342</ele>
<time>2026-07-13T15:17:02.000Z</time>
</trkpt>
<trkpt lat="56.779957" lon="8.231471">
<ele>9.297173</ele>
<time>2026-07-13T15:17:03.000Z</time>
</trkpt>
<trkpt lat="56.779968" lon="8.231485">
<ele>9.287335</ele>
<time>2026-07-13T15:17:04.000Z</time>
</trkpt>
<trkpt lat="56.779976" lon="8.231493">
<ele>9.280644</ele>
<time>2026-07-13T15:17:05.000Z</time>
</trkpt>
<trkpt lat="56.779976" lon="8.231494">
<ele>9.280242</ele>
<time>2026-07-13T15:17:06.000Z</time>
</trkpt>
<trkpt lat="56.779976" lon="8.231495">
<ele>9.279840</ele>
<time>2026-07-13T15:17:07.000Z</time>
</trkpt>
<trkpt lat="56.779976" lon="8.231490">
<ele>9.277830</ele>
<time>2026-07-13T15:17:08.000Z</time>
</trkpt>
<trkpt lat="56.779995" lon="8.231491">
<ele>9.263886</ele>
<time>2026-07-13T15:17:20.000Z</time>
</trkpt>
<trkpt lat="56.780010" lon="8.231498">
<ele>9.252528</ele>
<time>2026-07-13T15:17:21.000Z</time>
</trkpt>
<trkpt lat="56.780018" lon="8.231507">
<ele>9.245634</ele>
<time>2026-07-13T15:17:22.000Z</time>
</trkpt>
<trkpt lat="56.780037" lon="8.231518">
<ele>9.231011</ele>
<time>2026-07-13T15:17:23.000Z</time>
</trkpt>
<trkpt lat="56.780056" lon="8.231526">
<ele>9.216707</ele>
<time>2026-07-13T15:17:24.000Z</time>
</trkpt>
<trkpt lat="56.780075" lon="8.231534">
<ele>9.202402</ele>
<time>2026-07-13T15:17:25.000Z</time>
</trkpt>
<trkpt lat="56.780102" lon="8.231541">
<ele>9.185120</ele>
<time>2026-07-13T15:17:26.000Z</time>
</trkpt>
<trkpt lat="56.780132" lon="8.231548">
<ele>9.166052</ele>
<time>2026-07-13T15:17:27.000Z</time>
</trkpt>
<trkpt lat="56.780163" lon="8.231556">
<ele>9.146313</ele>
<time>2026-07-13T15:17:28.000Z</time>
</trkpt>
<trkpt lat="56.780193" lon="8.231560">
<ele>9.127349</ele>
<time>2026-07-13T15:17:29.000Z</time>
</trkpt>
<trkpt lat="56.780228" lon="8.231563">
<ele>9.105258</ele>
<time>2026-07-13T15:17:30.000Z</time>
</trkpt>
<trkpt lat="56.780266" lon="8.231568">
<ele>9.081238</ele>
<time>2026-07-13T15:17:31.000Z</time>
</trkpt>
<trkpt lat="56.780304" lon="8.231576">
<ele>9.057121</ele>
<time>2026-07-13T15:17:32.000Z</time>
</trkpt>
<trkpt lat="56.780350" lon="8.231585">
<ele>9.027954</ele>
<time>2026-07-13T15:17:33.000Z</time>
</trkpt>
<trkpt lat="56.780392" lon="8.231592">
<ele>9.001364</ele>
<time>2026-07-13T15:17:34.000Z</time>
</trkpt>
<trkpt lat="56.780438" lon="8.231600">
<ele>8.972231</ele>
<time>2026-07-13T15:17:35.000Z</time>
</trkpt>
<trkpt lat="56.780479" lon="8.231610">
<ele>8.946152</ele>
<time>2026-07-13T15:17:36.000Z</time>
</trkpt>
<trkpt lat="56.780525" lon="8.231624">
<ele>8.916750</ele>
<time>2026-07-13T15:17:37.000Z</time>
</trkpt>
<trkpt lat="56.780571" lon="8.231634">
<ele>8.887543</ele>
<time>2026-07-13T15:17:38.000Z</time>
</trkpt>
<trkpt lat="56.780617" lon="8.231644">
<ele>8.858337</ele>
<time>2026-07-13T15:17:39.000Z</time>
</trkpt>
<trkpt lat="56.780659" lon="8.231654">
<ele>8.831633</ele>
<time>2026-07-13T15:17:40.000Z</time>
</trkpt>
<trkpt lat="56.780697" lon="8.231665">
<ele>8.807376</ele>
<time>2026-07-13T15:17:41.000Z</time>
</trkpt>
<trkpt lat="56.780739" lon="8.231674">
<ele>8.780714</ele>
<time>2026-07-13T15:17:42.000Z</time>
</trkpt>
<trkpt lat="56.780781" lon="8.231682">
<ele>8.754091</ele>
<time>2026-07-13T15:17:43.000Z</time>
</trkpt>
<trkpt lat="56.780819" lon="8.231689">
<ele>8.730011</ele>
<time>2026-07-13T15:17:44.000Z</time>
</trkpt>
<trkpt lat="56.780857" lon="8.231698">
<ele>8.705852</ele>
<time>2026-07-13T15:17:45.000Z</time>
</trkpt>
<trkpt lat="56.780891" lon="8.231707">
<ele>8.684192</ele>
<time>2026-07-13T15:17:46.000Z</time>
</trkpt>
<trkpt lat="56.780937" lon="8.231717">
<ele>8.654986</ele>
<time>2026-07-13T15:17:47.000Z</time>
</trkpt>
<trkpt lat="56.780975" lon="8.231728">
<ele>8.630729</ele>
<time>2026-07-13T15:17:48.000Z</time>
</trkpt>
<trkpt lat="56.781017" lon="8.231738">
<ele>8.604025</ele>
<time>2026-07-13T15:17:49.000Z</time>
</trkpt>
<trkpt lat="56.781055" lon="8.231747">
<ele>8.579866</ele>
<time>2026-07-13T15:17:50.000Z</time>
</trkpt>
<trkpt lat="56.781097" lon="8.231754">
<ele>8.553276</ele>
<time>2026-07-13T15:17:51.000Z</time>
</trkpt>
<trkpt lat="56.781132" lon="8.231762">
<ele>8.531037</ele>
<time>2026-07-13T15:17:52.000Z</time>
</trkpt>
<trkpt lat="56.781174" lon="8.231772">
<ele>8.504333</ele>
<time>2026-07-13T15:17:53.000Z</time>
</trkpt>
<trkpt lat="56.781212" lon="8.231783">
<ele>8.480076</ele>
<time>2026-07-13T15:17:54.000Z</time>
</trkpt>
<trkpt lat="56.781246" lon="8.231794">
<ele>8.458306</ele>
<time>2026-07-13T15:17:55.000Z</time>
</trkpt>
<trkpt lat="56.781288" lon="8.231809">
<ele>8.431324</ele>
<time>2026-07-13T15:17:56.000Z</time>
</trkpt>
<trkpt lat="56.781326" lon="8.231819">
<ele>8.407119</ele>
<time>2026-07-13T15:17:57.000Z</time>
</trkpt>
<trkpt lat="56.781364" lon="8.231829">
<ele>8.382913</ele>
<time>2026-07-13T15:17:58.000Z</time>
</trkpt>
<trkpt lat="56.781403" lon="8.231838">
<ele>8.358129</ele>
<time>2026-07-13T15:17:59.000Z</time>
</trkpt>
<trkpt lat="56.781437" lon="8.231849">
<ele>8.336359</ele>
<time>2026-07-13T15:18:00.000Z</time>
</trkpt>
<trkpt lat="56.781475" lon="8.231864">
<ele>8.311848</ele>
<time>2026-07-13T15:18:01.000Z</time>
</trkpt>
<trkpt lat="56.781513" lon="8.231882">
<ele>8.287096</ele>
<time>2026-07-13T15:18:02.000Z</time>
</trkpt>
<trkpt lat="56.781551" lon="8.231901">
<ele>8.262256</ele>
<time>2026-07-13T15:18:03.000Z</time>
</trkpt>
<trkpt lat="56.781586" lon="8.231923">
<ele>8.238918</ele>
<time>2026-07-13T15:18:04.000Z</time>
</trkpt>
<trkpt lat="56.781620" lon="8.231948">
<ele>8.215808</ele>
<time>2026-07-13T15:18:05.000Z</time>
</trkpt>
<trkpt lat="56.781654" lon="8.231972">
<ele>8.192825</ele>
<time>2026-07-13T15:18:06.000Z</time>
</trkpt>
<trkpt lat="56.781681" lon="8.231997">
<ele>8.173738</ele>
<time>2026-07-13T15:18:07.000Z</time>
</trkpt>
<trkpt lat="56.781712" lon="8.232023">
<ele>8.152229</ele>
<time>2026-07-13T15:18:08.000Z</time>
</trkpt>
<trkpt lat="56.781738" lon="8.232051">
<ele>8.133197</ele>
<time>2026-07-13T15:18:09.000Z</time>
</trkpt>
<trkpt lat="56.781765" lon="8.232080">
<ele>8.113446</ele>
<time>2026-07-13T15:18:10.000Z</time>
</trkpt>
<trkpt lat="56.781795" lon="8.232108">
<ele>8.092203</ele>
<time>2026-07-13T15:18:11.000Z</time>
</trkpt>
<trkpt lat="56.781822" lon="8.232136">
<ele>8.072625</ele>
<time>2026-07-13T15:18:12.000Z</time>
</trkpt>
<trkpt lat="56.781845" lon="8.232164">
<ele>8.072728</ele>
<time>2026-07-13T15:18:13.000Z</time>
</trkpt>
<trkpt lat="56.781872" lon="8.232197">
<ele>8.080775</ele>
<time>2026-07-13T15:18:14.000Z</time>
</trkpt>
<trkpt lat="56.781898" lon="8.232230">
<ele>8.088617</ele>
<time>2026-07-13T15:18:15.000Z</time>
</trkpt>
<trkpt lat="56.781921" lon="8.232264">
<ele>8.095945</ele>
<time>2026-07-13T15:18:16.000Z</time>
</trkpt>
<trkpt lat="56.781952" lon="8.232297">
<ele>8.104832</ele>
<time>2026-07-13T15:18:17.000Z</time>
</trkpt>
<trkpt lat="56.781979" lon="8.232328">
<ele>8.112731</ele>
<time>2026-07-13T15:18:18.000Z</time>
</trkpt>
<trkpt lat="56.782001" lon="8.232360">
<ele>8.119697</ele>
<time>2026-07-13T15:18:19.000Z</time>
</trkpt>
<trkpt lat="56.782028" lon="8.232391">
<ele>8.127595</ele>
<time>2026-07-13T15:18:20.000Z</time>
</trkpt>
<trkpt lat="56.782051" lon="8.232424">
<ele>8.134839</ele>
<time>2026-07-13T15:18:21.000Z</time>
</trkpt>
<trkpt lat="56.782078" lon="8.232455">
<ele>8.142738</ele>
<time>2026-07-13T15:18:22.000Z</time>
</trkpt>
<trkpt lat="56.782105" lon="8.232489">
<ele>8.150861</ele>
<time>2026-07-13T15:18:23.000Z</time>
</trkpt>
<trkpt lat="56.782124" lon="8.232520">
<ele>8.157171</ele>
<time>2026-07-13T15:18:24.000Z</time>
</trkpt>
<trkpt lat="56.782146" lon="8.232552">
<ele>8.164137</ele>
<time>2026-07-13T15:18:25.000Z</time>
</trkpt>
<trkpt lat="56.782166" lon="8.232587">
<ele>8.170998</ele>
<time>2026-07-13T15:18:26.000Z</time>
</trkpt>
<trkpt lat="56.782181" lon="8.232622">
<ele>8.177026</ele>
<time>2026-07-13T15:18:27.000Z</time>
</trkpt>
<trkpt lat="56.782188" lon="8.232653">
<ele>8.181575</ele>
<time>2026-07-13T15:18:28.000Z</time>
</trkpt>
<trkpt lat="56.782185" lon="8.232680">
<ele>8.185312</ele>
<time>2026-07-13T15:18:29.000Z</time>
</trkpt>
<trkpt lat="56.782173" lon="8.232707">
<ele>8.190029</ele>
<time>2026-07-13T15:18:30.000Z</time>
</trkpt>
<trkpt lat="56.782154" lon="8.232738">
<ele>8.196339</ele>
<time>2026-07-13T15:18:31.000Z</time>
</trkpt>
<trkpt lat="56.782135" lon="8.232773">
<ele>8.203024</ele>
<time>2026-07-13T15:18:32.000Z</time>
</trkpt>
<trkpt lat="56.782120" lon="8.232809">
<ele>8.209159</ele>
<time>2026-07-13T15:18:33.000Z</time>
</trkpt>
<trkpt lat="56.782097" lon="8.232848">
<ele>8.216933</ele>
<time>2026-07-13T15:18:34.000Z</time>
</trkpt>
<trkpt lat="56.782078" lon="8.232887">
<ele>8.224013</ele>
<time>2026-07-13T15:18:35.000Z</time>
</trkpt>
<trkpt lat="56.782059" lon="8.232927">
<ele>8.231195</ele>
<time>2026-07-13T15:18:36.000Z</time>
</trkpt>
<trkpt lat="56.782036" lon="8.232966">
<ele>8.238969</ele>
<time>2026-07-13T15:18:37.000Z</time>
</trkpt>
<trkpt lat="56.782017" lon="8.233003">
<ele>8.245849</ele>
<time>2026-07-13T15:18:38.000Z</time>
</trkpt>
<trkpt lat="56.782001" lon="8.233038">
<ele>8.252033</ele>
<time>2026-07-13T15:18:39.000Z</time>
</trkpt>
<trkpt lat="56.781986" lon="8.233077">
<ele>8.258497</ele>
<time>2026-07-13T15:18:40.000Z</time>
</trkpt>
<trkpt lat="56.781967" lon="8.233116">
<ele>8.265577</ele>
<time>2026-07-13T15:18:41.000Z</time>
</trkpt>
<trkpt lat="56.781948" lon="8.233154">
<ele>8.272556</ele>
<time>2026-07-13T15:18:42.000Z</time>
</trkpt>
<trkpt lat="56.781929" lon="8.233183">
<ele>8.278689</ele>
<time>2026-07-13T15:18:43.000Z</time>
</trkpt>
<trkpt lat="56.781914" lon="8.233202">
<ele>8.283211</ele>
<time>2026-07-13T15:18:44.000Z</time>
</trkpt>
<trkpt lat="56.781902" lon="8.233212">
<ele>8.286477</ele>
<time>2026-07-13T15:18:45.000Z</time>
</trkpt>
<trkpt lat="56.781891" lon="8.233250">
<ele>8.292308</ele>
<time>2026-07-13T15:19:05.000Z</time>
</trkpt>
<trkpt lat="56.781887" lon="8.233271">
<ele>8.295324</ele>
<time>2026-07-13T15:19:06.000Z</time>
</trkpt>
<trkpt lat="56.781883" lon="8.233306">
<ele>8.300174</ele>
<time>2026-07-13T15:19:07.000Z</time>
</trkpt>
<trkpt lat="56.781876" lon="8.233337">
<ele>8.304723</ele>
<time>2026-07-13T15:19:08.000Z</time>
</trkpt>
<trkpt lat="56.781868" lon="8.233372">
<ele>8.309867</ele>
<time>2026-07-13T15:19:09.000Z</time>
</trkpt>
<trkpt lat="56.781853" lon="8.233410">
<ele>8.316221</ele>
<time>2026-07-13T15:19:10.000Z</time>
</trkpt>
<trkpt lat="56.781841" lon="8.233446">
<ele>8.321938</ele>
<time>2026-07-13T15:19:11.000Z</time>
</trkpt>
<trkpt lat="56.781826" lon="8.233495">
<ele>8.329553</ele>
<time>2026-07-13T15:19:12.000Z</time>
</trkpt>
<trkpt lat="56.781811" lon="8.233541">
<ele>8.336815</ele>
<time>2026-07-13T15:19:13.000Z</time>
</trkpt>
<trkpt lat="56.781795" lon="8.233587">
<ele>8.344207</ele>
<time>2026-07-13T15:19:14.000Z</time>
</trkpt>
<trkpt lat="56.781780" lon="8.233633">
<ele>8.351469</ele>
<time>2026-07-13T15:19:15.000Z</time>
</trkpt>
<trkpt lat="56.781765" lon="8.233675">
<ele>8.358270</ele>
<time>2026-07-13T15:19:16.000Z</time>
</trkpt>
<trkpt lat="56.781750" lon="8.233720">
<ele>8.365416</ele>
<time>2026-07-13T15:19:17.000Z</time>
</trkpt>
<trkpt lat="56.781734" lon="8.233768">
<ele>8.373038</ele>
<time>2026-07-13T15:19:18.000Z</time>
</trkpt>
<trkpt lat="56.781715" lon="8.233822">
<ele>8.381745</ele>
<time>2026-07-13T15:19:19.000Z</time>
</trkpt>
<trkpt lat="56.781700" lon="8.233873">
<ele>8.389598</ele>
<time>2026-07-13T15:19:20.000Z</time>
</trkpt>
<trkpt lat="56.781685" lon="8.233922">
<ele>8.397212</ele>
<time>2026-07-13T15:19:21.000Z</time>
</trkpt>
<trkpt lat="56.781670" lon="8.233968">
<ele>8.404474</ele>
<time>2026-07-13T15:19:22.000Z</time>
</trkpt>
<trkpt lat="56.781658" lon="8.234013">
<ele>8.411264</ele>
<time>2026-07-13T15:19:23.000Z</time>
</trkpt>
<trkpt lat="56.781651" lon="8.234056">
<ele>8.417349</ele>
<time>2026-07-13T15:19:24.000Z</time>
</trkpt>
<trkpt lat="56.781639" lon="8.234100">
<ele>8.424017</ele>
<time>2026-07-13T15:19:25.000Z</time>
</trkpt>
<trkpt lat="56.781628" lon="8.234143">
<ele>8.430455</ele>
<time>2026-07-13T15:19:26.000Z</time>
</trkpt>
<trkpt lat="56.781612" lon="8.234191">
<ele>8.438077</ele>
<time>2026-07-13T15:19:27.000Z</time>
</trkpt>
<trkpt lat="56.781605" lon="8.234241">
<ele>8.445078</ele>
<time>2026-07-13T15:19:28.000Z</time>
</trkpt>
<trkpt lat="56.781593" lon="8.234296">
<ele>8.453110</ele>
<time>2026-07-13T15:19:29.000Z</time>
</trkpt>
<trkpt lat="56.781586" lon="8.234349">
<ele>8.460506</ele>
<time>2026-07-13T15:19:30.000Z</time>
</trkpt>
<trkpt lat="56.781578" lon="8.234403">
<ele>8.468094</ele>
<time>2026-07-13T15:19:31.000Z</time>
</trkpt>
<trkpt lat="56.781570" lon="8.234453">
<ele>8.475161</ele>
<time>2026-07-13T15:19:32.000Z</time>
</trkpt>
<trkpt lat="56.781563" lon="8.234502">
<ele>8.482030</ele>
<time>2026-07-13T15:19:33.000Z</time>
</trkpt>
<trkpt lat="56.781551" lon="8.234545">
<ele>8.488577</ele>
<time>2026-07-13T15:19:34.000Z</time>
</trkpt>
<trkpt lat="56.781548" lon="8.234590">
<ele>8.494727</ele>
<time>2026-07-13T15:19:35.000Z</time>
</trkpt>
<trkpt lat="56.781544" lon="8.234635">
<ele>8.500911</ele>
<time>2026-07-13T15:19:36.000Z</time>
</trkpt>
<trkpt lat="56.781540" lon="8.234681">
<ele>8.507230</ele>
<time>2026-07-13T15:19:37.000Z</time>
</trkpt>
<trkpt lat="56.781536" lon="8.234720">
<ele>8.512612</ele>
<time>2026-07-13T15:19:38.000Z</time>
</trkpt>
<trkpt lat="56.781525" lon="8.234755">
<ele>8.436236</ele>
<time>2026-07-13T15:19:39.000Z</time>
</trkpt>
<trkpt lat="56.781521" lon="8.234772">
<ele>8.396856</ele>
<time>2026-07-13T15:19:40.000Z</time>
</trkpt>
<trkpt lat="56.779886" lon="8.231360">
<ele>0.175180</ele>
<time>2026-07-13T16:02:20.000Z</time>
</trkpt>
<trkpt lat="56.779879" lon="8.231341">
<ele>0.151486</ele>
<time>2026-07-13T16:02:21.000Z</time>
</trkpt>
<trkpt lat="56.779877" lon="8.231317">
<ele>0.126364</ele>
<time>2026-07-13T16:02:22.000Z</time>
</trkpt>
<trkpt lat="56.779880" lon="8.231293">
<ele>0.100889</ele>
<time>2026-07-13T16:02:23.000Z</time>
</trkpt>
<trkpt lat="56.779893" lon="8.231274">
<ele>0.069432</ele>
<time>2026-07-13T16:02:24.000Z</time>
</trkpt>
<trkpt lat="56.779907" lon="8.231264">
<ele>0.041034</ele>
<time>2026-07-13T16:02:25.000Z</time>
</trkpt>
<trkpt lat="56.779920" lon="8.231258">
<ele>0.015706</ele>
<time>2026-07-13T16:02:26.000Z</time>
</trkpt>
<trkpt lat="56.779934" lon="8.231249">
<ele>-0.012331</ele>
<time>2026-07-13T16:02:27.000Z</time>
</trkpt>
<trkpt lat="56.779943" lon="8.231242">
<ele>-0.030810</ele>
<time>2026-07-13T16:02:28.000Z</time>
</trkpt>
<trkpt lat="56.779947" lon="8.231240">
<ele>-0.038644</ele>
<time>2026-07-13T16:02:29.000Z</time>
</trkpt>
<trkpt lat="56.779949" lon="8.231240">
<ele>-0.042422</ele>
<time>2026-07-13T16:02:30.000Z</time>
</trkpt>
<trkpt lat="56.779979" lon="8.231221">
<ele>-0.102403</ele>
<time>2026-07-13T16:02:50.000Z</time>
</trkpt>
<trkpt lat="56.780000" lon="8.231209">
<ele>-0.143968</ele>
<time>2026-07-13T16:02:51.000Z</time>
</trkpt>
<trkpt lat="56.780015" lon="8.231200">
<ele>-0.173793</ele>
<time>2026-07-13T16:02:52.000Z</time>
</trkpt>
<trkpt lat="56.780045" lon="8.231184">
<ele>-0.232830</ele>
<time>2026-07-13T16:02:53.000Z</time>
</trkpt>
<trkpt lat="56.780081" lon="8.231168">
<ele>-0.302817</ele>
<time>2026-07-13T16:02:54.000Z</time>
</trkpt>
<trkpt lat="56.780109" lon="8.231164">
<ele>-0.355868</ele>
<time>2026-07-13T16:02:55.000Z</time>
</trkpt>
<trkpt lat="56.780136" lon="8.231164">
<ele>-0.406868</ele>
<time>2026-07-13T16:02:56.000Z</time>
</trkpt>
<trkpt lat="56.780171" lon="8.231169">
<ele>-0.473182</ele>
<time>2026-07-13T16:02:57.000Z</time>
</trkpt>
<trkpt lat="56.780203" lon="8.231178">
<ele>-0.534340</ele>
<time>2026-07-13T16:02:58.000Z</time>
</trkpt>
<trkpt lat="56.780240" lon="8.231189">
<ele>-0.605150</ele>
<time>2026-07-13T16:02:59.000Z</time>
</trkpt>
<trkpt lat="56.780280" lon="8.231199">
<ele>-0.681412</ele>
<time>2026-07-13T16:03:00.000Z</time>
</trkpt>
<trkpt lat="56.780316" lon="8.231210">
<ele>-0.750358</ele>
<time>2026-07-13T16:03:01.000Z</time>
</trkpt>
<trkpt lat="56.780357" lon="8.231222">
<ele>-0.828793</ele>
<time>2026-07-13T16:03:02.000Z</time>
</trkpt>
<trkpt lat="56.780402" lon="8.231234">
<ele>-0.914695</ele>
<time>2026-07-13T16:03:03.000Z</time>
</trkpt>
<trkpt lat="56.780444" lon="8.231242">
<ele>-0.994460</ele>
<time>2026-07-13T16:03:04.000Z</time>
</trkpt>
<trkpt lat="56.780493" lon="8.231249">
<ele>-1.087299</ele>
<time>2026-07-13T16:03:05.000Z</time>
</trkpt>
<trkpt lat="56.780535" lon="8.231257">
<ele>-1.167064</ele>
<time>2026-07-13T16:03:06.000Z</time>
</trkpt>
<trkpt lat="56.780577" lon="8.231267">
<ele>-1.247070</ele>
<time>2026-07-13T16:03:07.000Z</time>
</trkpt>
<trkpt lat="56.780618" lon="8.231276">
<ele>-1.325072</ele>
<time>2026-07-13T16:03:08.000Z</time>
</trkpt>
<trkpt lat="56.780657" lon="8.231283">
<ele>-1.399095</ele>
<time>2026-07-13T16:03:09.000Z</time>
</trkpt>
<trkpt lat="56.780702" lon="8.231289">
<ele>-1.484322</ele>
<time>2026-07-13T16:03:10.000Z</time>
</trkpt>
<trkpt lat="56.780749" lon="8.231295">
<ele>-1.573317</ele>
<time>2026-07-13T16:03:11.000Z</time>
</trkpt>
<trkpt lat="56.780793" lon="8.231303">
<ele>-1.656840</ele>
<time>2026-07-13T16:03:12.000Z</time>
</trkpt>
<trkpt lat="56.780843" lon="8.231312">
<ele>-1.751743</ele>
<time>2026-07-13T16:03:13.000Z</time>
</trkpt>
<trkpt lat="56.780892" lon="8.231325">
<ele>-1.845272</ele>
<time>2026-07-13T16:03:14.000Z</time>
</trkpt>
<trkpt lat="56.780943" lon="8.231339">
<ele>-1.887242</ele>
<time>2026-07-13T16:03:15.000Z</time>
</trkpt>
<trkpt lat="56.780995" lon="8.231351">
<ele>-1.908291</ele>
<time>2026-07-13T16:03:16.000Z</time>
</trkpt>
<trkpt lat="56.781046" lon="8.231362">
<ele>-1.928915</ele>
<time>2026-07-13T16:03:17.000Z</time>
</trkpt>
<trkpt lat="56.781099" lon="8.231371">
<ele>-1.950291</ele>
<time>2026-07-13T16:03:18.000Z</time>
</trkpt>
<trkpt lat="56.781149" lon="8.231382">
<ele>-1.970516</ele>
<time>2026-07-13T16:03:19.000Z</time>
</trkpt>
<trkpt lat="56.781203" lon="8.231394">
<ele>-1.992362</ele>
<time>2026-07-13T16:03:20.000Z</time>
</trkpt>
<trkpt lat="56.781255" lon="8.231407">
<ele>-2.013439</ele>
<time>2026-07-13T16:03:21.000Z</time>
</trkpt>
<trkpt lat="56.781306" lon="8.231419">
<ele>-2.034090</ele>
<time>2026-07-13T16:03:22.000Z</time>
</trkpt>
<trkpt lat="56.781359" lon="8.231431">
<ele>-2.055537</ele>
<time>2026-07-13T16:03:23.000Z</time>
</trkpt>
<trkpt lat="56.781411" lon="8.231444">
<ele>-2.076615</ele>
<time>2026-07-13T16:03:24.000Z</time>
</trkpt>
<trkpt lat="56.781462" lon="8.231456">
<ele>-2.097265</ele>
<time>2026-07-13T16:03:25.000Z</time>
</trkpt>
<trkpt lat="56.781515" lon="8.231467">
<ele>-2.118686</ele>
<time>2026-07-13T16:03:26.000Z</time>
</trkpt>
<trkpt lat="56.781568" lon="8.231478">
<ele>-2.140108</ele>
<time>2026-07-13T16:03:27.000Z</time>
</trkpt>
<trkpt lat="56.781618" lon="8.231489">
<ele>-2.160333</ele>
<time>2026-07-13T16:03:28.000Z</time>
</trkpt>
<trkpt lat="56.781672" lon="8.231501">
<ele>-2.182179</ele>
<time>2026-07-13T16:03:29.000Z</time>
</trkpt>
<trkpt lat="56.781723" lon="8.231514">
<ele>-2.202858</ele>
<time>2026-07-13T16:03:30.000Z</time>
</trkpt>
<trkpt lat="56.781773" lon="8.231527">
<ele>-2.223140</ele>
<time>2026-07-13T16:03:31.000Z</time>
</trkpt>
<trkpt lat="56.781827" lon="8.231538">
<ele>-2.244961</ele>
<time>2026-07-13T16:03:32.000Z</time>
</trkpt>
<trkpt lat="56.781876" lon="8.231547">
<ele>-2.264738</ele>
<time>2026-07-13T16:03:33.000Z</time>
</trkpt>
<trkpt lat="56.781926" lon="8.231558">
<ele>-2.284963</ele>
<time>2026-07-13T16:03:34.000Z</time>
</trkpt>
<trkpt lat="56.781977" lon="8.231567">
<ele>-2.305539</ele>
<time>2026-07-13T16:03:35.000Z</time>
</trkpt>
<trkpt lat="56.782030" lon="8.231573">
<ele>-2.326865</ele>
<time>2026-07-13T16:03:36.000Z</time>
</trkpt>
<trkpt lat="56.782083" lon="8.231582">
<ele>-2.348241</ele>
<time>2026-07-13T16:03:37.000Z</time>
</trkpt>
<trkpt lat="56.782135" lon="8.231594">
<ele>-2.369290</ele>
<time>2026-07-13T16:03:38.000Z</time>
</trkpt>
<trkpt lat="56.782191" lon="8.231605">
<ele>-2.391908</ele>
<time>2026-07-13T16:03:39.000Z</time>
</trkpt>
<trkpt lat="56.782244" lon="8.231615">
<ele>-2.413306</ele>
<time>2026-07-13T16:03:40.000Z</time>
</trkpt>
<trkpt lat="56.782298" lon="8.231626">
<ele>-2.435126</ele>
<time>2026-07-13T16:03:41.000Z</time>
</trkpt>
<trkpt lat="56.782351" lon="8.231636">
<ele>-2.456524</ele>
<time>2026-07-13T16:03:42.000Z</time>
</trkpt>
<trkpt lat="56.782404" lon="8.231645">
<ele>-2.477900</ele>
<time>2026-07-13T16:03:43.000Z</time>
</trkpt>
<trkpt lat="56.782458" lon="8.231657">
<ele>-2.499746</ele>
<time>2026-07-13T16:03:44.000Z</time>
</trkpt>
<trkpt lat="56.782509" lon="8.231667">
<ele>-2.520345</ele>
<time>2026-07-13T16:03:45.000Z</time>
</trkpt>
<trkpt lat="56.782557" lon="8.231676">
<ele>-2.539723</ele>
<time>2026-07-13T16:03:46.000Z</time>
</trkpt>
<trkpt lat="56.782610" lon="8.231685">
<ele>-2.561099</ele>
<time>2026-07-13T16:03:47.000Z</time>
</trkpt>
<trkpt lat="56.782662" lon="8.231695">
<ele>-2.582097</ele>
<time>2026-07-13T16:03:48.000Z</time>
</trkpt>
<trkpt lat="56.782712" lon="8.231705">
<ele>-2.592406</ele>
<time>2026-07-13T16:03:49.000Z</time>
</trkpt>
<trkpt lat="56.782761" lon="8.231714">
<ele>-2.586810</ele>
<time>2026-07-13T16:03:50.000Z</time>
</trkpt>
<trkpt lat="56.782812" lon="8.231727">
<ele>-2.580959</ele>
<time>2026-07-13T16:03:51.000Z</time>
</trkpt>
<trkpt lat="56.782863" lon="8.231744">
<ele>-2.575068</ele>
<time>2026-07-13T16:03:52.000Z</time>
</trkpt>
<trkpt lat="56.782909" lon="8.231758">
<ele>-2.569769</ele>
<time>2026-07-13T16:03:53.000Z</time>
</trkpt>
<trkpt lat="56.782955" lon="8.231766">
<ele>-2.564519</ele>
<time>2026-07-13T16:03:54.000Z</time>
</trkpt>
<trkpt lat="56.783001" lon="8.231771">
<ele>-2.559283</ele>
<time>2026-07-13T16:03:55.000Z</time>
</trkpt>
<trkpt lat="56.783047" lon="8.231778">
<ele>-2.554038</ele>
<time>2026-07-13T16:03:56.000Z</time>
</trkpt>
<trkpt lat="56.783097" lon="8.231787">
<ele>-2.548329</ele>
<time>2026-07-13T16:03:57.000Z</time>
</trkpt>
<trkpt lat="56.783146" lon="8.231799">
<ele>-2.542712</ele>
<time>2026-07-13T16:03:58.000Z</time>
</trkpt>
<trkpt lat="56.783193" lon="8.231810">
<ele>-2.537328</ele>
<time>2026-07-13T16:03:59.000Z</time>
</trkpt>
<trkpt lat="56.783242" lon="8.231820">
<ele>-2.531726</ele>
<time>2026-07-13T16:04:00.000Z</time>
</trkpt>
<trkpt lat="56.783292" lon="8.231833">
<ele>-2.525987</ele>
<time>2026-07-13T16:04:01.000Z</time>
</trkpt>
<trkpt lat="56.783342" lon="8.231847">
<ele>-2.520239</ele>
<time>2026-07-13T16:04:02.000Z</time>
</trkpt>
<trkpt lat="56.783392" lon="8.231860">
<ele>-2.514501</ele>
<time>2026-07-13T16:04:03.000Z</time>
</trkpt>
<trkpt lat="56.783445" lon="8.231871">
<ele>-2.508440</ele>
<time>2026-07-13T16:04:04.000Z</time>
</trkpt>
<trkpt lat="56.783495" lon="8.231880">
<ele>-2.502731</ele>
<time>2026-07-13T16:04:05.000Z</time>
</trkpt>
<trkpt lat="56.783548" lon="8.231893">
<ele>-2.496655</ele>
<time>2026-07-13T16:04:06.000Z</time>
</trkpt>
<trkpt lat="56.783603" lon="8.231906">
<ele>-2.490353</ele>
<time>2026-07-13T16:04:07.000Z</time>
</trkpt>
<trkpt lat="56.783659" lon="8.231918">
<ele>-2.483947</ele>
<time>2026-07-13T16:04:08.000Z</time>
</trkpt>
<trkpt lat="56.783713" lon="8.231930">
<ele>-2.477766</ele>
<time>2026-07-13T16:04:09.000Z</time>
</trkpt>
<trkpt lat="56.783766" lon="8.231939">
<ele>-2.471718</ele>
<time>2026-07-13T16:04:10.000Z</time>
</trkpt>
<trkpt lat="56.783820" lon="8.231949">
<ele>-2.465550</ele>
<time>2026-07-13T16:04:11.000Z</time>
</trkpt>
<trkpt lat="56.783873" lon="8.231960">
<ele>-2.459490</ele>
<time>2026-07-13T16:04:12.000Z</time>
</trkpt>
<trkpt lat="56.783926" lon="8.231972">
<ele>-2.453421</ele>
<time>2026-07-13T16:04:13.000Z</time>
</trkpt>
<trkpt lat="56.783980" lon="8.231984">
<ele>-2.447240</ele>
<time>2026-07-13T16:04:14.000Z</time>
</trkpt>
<trkpt lat="56.784033" lon="8.231994">
<ele>-2.441186</ele>
<time>2026-07-13T16:04:15.000Z</time>
</trkpt>
<trkpt lat="56.784088" lon="8.232001">
<ele>-2.434922</ele>
<time>2026-07-13T16:04:16.000Z</time>
</trkpt>
<trkpt lat="56.784144" lon="8.232011">
<ele>-2.428528</ele>
<time>2026-07-13T16:04:17.000Z</time>
</trkpt>
<trkpt lat="56.784197" lon="8.232023">
<ele>-2.422460</ele>
<time>2026-07-13T16:04:18.000Z</time>
</trkpt>
<trkpt lat="56.784251" lon="8.232036">
<ele>-2.416271</ele>
<time>2026-07-13T16:04:19.000Z</time>
</trkpt>
<trkpt lat="56.784304" lon="8.232048">
<ele>-2.410203</ele>
<time>2026-07-13T16:04:20.000Z</time>
</trkpt>
<trkpt lat="56.784357" lon="8.232061">
<ele>-2.404127</ele>
<time>2026-07-13T16:04:21.000Z</time>
</trkpt>
<trkpt lat="56.784411" lon="8.232074">
<ele>-2.397938</ele>
<time>2026-07-13T16:04:22.000Z</time>
</trkpt>
<trkpt lat="56.784467" lon="8.232086">
<ele>-2.391531</ele>
<time>2026-07-13T16:04:23.000Z</time>
</trkpt>
<trkpt lat="56.784522" lon="8.232099">
<ele>-2.384300</ele>
<time>2026-07-13T16:04:24.000Z</time>
</trkpt>
<trkpt lat="56.784575" lon="8.232113">
<ele>-2.377080</ele>
<time>2026-07-13T16:04:25.000Z</time>
</trkpt>
<trkpt lat="56.784629" lon="8.232128">
<ele>-2.369716</ele>
<time>2026-07-13T16:04:26.000Z</time>
</trkpt>
<trkpt lat="56.784685" lon="8.232140">
<ele>-2.362115</ele>
<time>2026-07-13T16:04:27.000Z</time>
</trkpt>
<trkpt lat="56.784739" lon="8.232152">
<ele>-2.354781</ele>
<time>2026-07-13T16:04:28.000Z</time>
</trkpt>
<trkpt lat="56.784792" lon="8.232164">
<ele>-2.347581</ele>
<time>2026-07-13T16:04:29.000Z</time>
</trkpt>
<trkpt lat="56.784846" lon="8.232175">
<ele>-2.340256</ele>
<time>2026-07-13T16:04:30.000Z</time>
</trkpt>
<trkpt lat="56.784899" lon="8.232185">
<ele>-2.333073</ele>
<time>2026-07-13T16:04:31.000Z</time>
</trkpt>
<trkpt lat="56.784953" lon="8.232197">
<ele>-2.325739</ele>
<time>2026-07-13T16:04:32.000Z</time>
</trkpt>
<trkpt lat="56.785006" lon="8.232210">
<ele>-2.318530</ele>
<time>2026-07-13T16:04:33.000Z</time>
</trkpt>
<trkpt lat="56.785059" lon="8.232224">
<ele>-2.311311</ele>
<time>2026-07-13T16:04:34.000Z</time>
</trkpt>
<trkpt lat="56.785111" lon="8.232236">
<ele>-2.304245</ele>
<time>2026-07-13T16:04:35.000Z</time>
</trkpt>
<trkpt lat="56.785162" lon="8.232250">
<ele>-2.297292</ele>
<time>2026-07-13T16:04:36.000Z</time>
</trkpt>
<trkpt lat="56.785216" lon="8.232264">
<ele>-2.289939</ele>
<time>2026-07-13T16:04:37.000Z</time>
</trkpt>
<trkpt lat="56.785268" lon="8.232277">
<ele>-2.282863</ele>
<time>2026-07-13T16:04:38.000Z</time>
</trkpt>
<trkpt lat="56.785318" lon="8.232292">
<ele>-2.276032</ele>
<time>2026-07-13T16:04:39.000Z</time>
</trkpt>
<trkpt lat="56.785371" lon="8.232308">
<ele>-2.268790</ele>
<time>2026-07-13T16:04:40.000Z</time>
</trkpt>
<trkpt lat="56.785422" lon="8.232323">
<ele>-2.261826</ele>
<time>2026-07-13T16:04:41.000Z</time>
</trkpt>
<trkpt lat="56.785474" lon="8.232337">
<ele>-2.254739</ele>
<time>2026-07-13T16:04:42.000Z</time>
</trkpt>
<trkpt lat="56.785524" lon="8.232349">
<ele>-2.247941</ele>
<time>2026-07-13T16:04:43.000Z</time>
</trkpt>
<trkpt lat="56.785578" lon="8.232362">
<ele>-2.240598</ele>
<time>2026-07-13T16:04:44.000Z</time>
</trkpt>
<trkpt lat="56.785631" lon="8.232375">
<ele>-2.233389</ele>
<time>2026-07-13T16:04:45.000Z</time>
</trkpt>
<trkpt lat="56.785685" lon="8.232387">
<ele>-2.226055</ele>
<time>2026-07-13T16:04:46.000Z</time>
</trkpt>
<trkpt lat="56.785738" lon="8.232398">
<ele>-2.218864</ele>
<time>2026-07-13T16:04:47.000Z</time>
</trkpt>
<trkpt lat="56.785790" lon="8.232409">
<ele>-2.211806</ele>
<time>2026-07-13T16:04:48.000Z</time>
</trkpt>
<trkpt lat="56.785841" lon="8.232421">
<ele>-2.204874</ele>
<time>2026-07-13T16:04:49.000Z</time>
</trkpt>
<trkpt lat="56.785895" lon="8.232432">
<ele>-2.197549</ele>
<time>2026-07-13T16:04:50.000Z</time>
</trkpt>
<trkpt lat="56.785948" lon="8.232442">
<ele>-2.190366</ele>
<time>2026-07-13T16:04:51.000Z</time>
</trkpt>
<trkpt lat="56.786001" lon="8.232455">
<ele>-2.183156</ele>
<time>2026-07-13T16:04:52.000Z</time>
</trkpt>
<trkpt lat="56.786055" lon="8.232464">
<ele>-2.175846</ele>
<time>2026-07-13T16:04:53.000Z</time>
</trkpt>
<trkpt lat="56.786108" lon="8.232473">
<ele>-2.168670</ele>
<time>2026-07-13T16:04:54.000Z</time>
</trkpt>
<trkpt lat="56.786160" lon="8.232483">
<ele>-2.161621</ele>
<time>2026-07-13T16:04:55.000Z</time>
</trkpt>
<trkpt lat="56.786211" lon="8.232493">
<ele>-2.154706</ele>
<time>2026-07-13T16:04:56.000Z</time>
</trkpt>
<trkpt lat="56.786265" lon="8.232503">
<ele>-2.147861</ele>
<time>2026-07-13T16:04:57.000Z</time>
</trkpt>
<trkpt lat="56.786318" lon="8.232512">
<ele>-2.150462</ele>
<time>2026-07-13T16:04:58.000Z</time>
</trkpt>
<trkpt lat="56.786371" lon="8.232521">
<ele>-2.153063</ele>
<time>2026-07-13T16:04:59.000Z</time>
</trkpt>
<trkpt lat="56.786425" lon="8.232530">
<ele>-2.155712</ele>
<time>2026-07-13T16:05:00.000Z</time>
</trkpt>
<trkpt lat="56.786477" lon="8.232538">
<ele>-2.158262</ele>
<time>2026-07-13T16:05:01.000Z</time>
</trkpt>
<trkpt lat="56.786528" lon="8.232546">
<ele>-2.160763</ele>
<time>2026-07-13T16:05:02.000Z</time>
</trkpt>
<trkpt lat="56.786581" lon="8.232554">
<ele>-2.163361</ele>
<time>2026-07-13T16:05:03.000Z</time>
</trkpt>
<trkpt lat="56.786633" lon="8.232563">
<ele>-2.165914</ele>
<time>2026-07-13T16:05:04.000Z</time>
</trkpt>
<trkpt lat="56.786683" lon="8.232570">
<ele>-2.168364</ele>
<time>2026-07-13T16:05:05.000Z</time>
</trkpt>
<trkpt lat="56.786733" lon="8.232572">
<ele>-2.170807</ele>
<time>2026-07-13T16:05:06.000Z</time>
</trkpt>
<trkpt lat="56.786783" lon="8.232571">
<ele>-2.173250</ele>
<time>2026-07-13T16:05:07.000Z</time>
</trkpt>
<trkpt lat="56.786835" lon="8.232567">
<ele>-2.175793</ele>
<time>2026-07-13T16:05:08.000Z</time>
</trkpt>
<trkpt lat="56.786886" lon="8.232563">
<ele>-2.178288</ele>
<time>2026-07-13T16:05:09.000Z</time>
</trkpt>
<trkpt lat="56.786940" lon="8.232561">
<ele>-2.180927</ele>
<time>2026-07-13T16:05:10.000Z</time>
</trkpt>
<trkpt lat="56.786994" lon="8.232557">
<ele>-2.183567</ele>
<time>2026-07-13T16:05:11.000Z</time>
</trkpt>
<trkpt lat="56.787047" lon="8.232551">
<ele>-2.186162</ele>
<time>2026-07-13T16:05:12.000Z</time>
</trkpt>
<trkpt lat="56.787100" lon="8.232543">
<ele>-2.188760</ele>
<time>2026-07-13T16:05:13.000Z</time>
</trkpt>
<trkpt lat="56.787152" lon="8.232540">
<ele>-2.191302</ele>
<time>2026-07-13T16:05:14.000Z</time>
</trkpt>
<trkpt lat="56.787203" lon="8.232538">
<ele>-2.193794</ele>
<time>2026-07-13T16:05:15.000Z</time>
</trkpt>
<trkpt lat="56.787254" lon="8.232538">
<ele>-2.196286</ele>
<time>2026-07-13T16:05:16.000Z</time>
</trkpt>
<trkpt lat="56.787301" lon="8.232537">
<ele>-2.198583</ele>
<time>2026-07-13T16:05:17.000Z</time>
</trkpt>
<trkpt lat="56.787351" lon="8.232531">
<ele>-2.201031</ele>
<time>2026-07-13T16:05:18.000Z</time>
</trkpt>
<trkpt lat="56.787399" lon="8.232524">
<ele>-2.203384</ele>
<time>2026-07-13T16:05:19.000Z</time>
</trkpt>
<trkpt lat="56.787443" lon="8.232524">
<ele>-2.205534</ele>
<time>2026-07-13T16:05:20.000Z</time>
</trkpt>
<trkpt lat="56.787485" lon="8.232530">
<ele>-2.207592</ele>
<time>2026-07-13T16:05:21.000Z</time>
</trkpt>
<trkpt lat="56.787528" lon="8.232540">
<ele>-2.209710</ele>
<time>2026-07-13T16:05:22.000Z</time>
</trkpt>
<trkpt lat="56.787572" lon="8.232556">
<ele>-2.211902</ele>
<time>2026-07-13T16:05:23.000Z</time>
</trkpt>
<trkpt lat="56.787610" lon="8.232576">
<ele>-2.213834</ele>
<time>2026-07-13T16:05:24.000Z</time>
</trkpt>
<trkpt lat="56.787648" lon="8.232598">
<ele>-2.215782</ele>
<time>2026-07-13T16:05:25.000Z</time>
</trkpt>
<trkpt lat="56.787689" lon="8.232622">
<ele>-2.217886</ele>
<time>2026-07-13T16:05:26.000Z</time>
</trkpt>
<trkpt lat="56.787733" lon="8.232641">
<ele>-2.220095</ele>
<time>2026-07-13T16:05:27.000Z</time>
</trkpt>
<trkpt lat="56.787778" lon="8.232661">
<ele>-2.222358</ele>
<time>2026-07-13T16:05:28.000Z</time>
</trkpt>
<trkpt lat="56.787827" lon="8.232681">
<ele>-2.224811</ele>
<time>2026-07-13T16:05:29.000Z</time>
</trkpt>
<trkpt lat="56.787877" lon="8.232704">
<ele>-2.227331</ele>
<time>2026-07-13T16:05:30.000Z</time>
</trkpt>
<trkpt lat="56.787928" lon="8.232726">
<ele>-2.229891</ele>
<time>2026-07-13T16:05:31.000Z</time>
</trkpt>
<trkpt lat="56.787980" lon="8.232749">
<ele>-2.232505</ele>
<time>2026-07-13T16:05:32.000Z</time>
</trkpt>
<trkpt lat="56.788031" lon="8.232771">
<ele>-2.235066</ele>
<time>2026-07-13T16:05:33.000Z</time>
</trkpt>
<trkpt lat="56.788083" lon="8.232792">
<ele>-2.246672</ele>
<time>2026-07-13T16:05:34.000Z</time>
</trkpt>
<trkpt lat="56.788134" lon="8.232812">
<ele>-2.260411</ele>
<time>2026-07-13T16:05:35.000Z</time>
</trkpt>
<trkpt lat="56.788188" lon="8.232832">
<ele>-2.274923</ele>
<time>2026-07-13T16:05:36.000Z</time>
</trkpt>
<trkpt lat="56.788240" lon="8.232852">
<ele>-2.288920</ele>
<time>2026-07-13T16:05:37.000Z</time>
</trkpt>
<trkpt lat="56.788289" lon="8.232873">
<ele>-2.302177</ele>
<time>2026-07-13T16:05:38.000Z</time>
</trkpt>
<trkpt lat="56.788340" lon="8.232893">
<ele>-2.315916</ele>
<time>2026-07-13T16:05:39.000Z</time>
</trkpt>
<trkpt lat="56.788393" lon="8.232912">
<ele>-2.330142</ele>
<time>2026-07-13T16:05:40.000Z</time>
</trkpt>
<trkpt lat="56.788445" lon="8.232932">
<ele>-2.344139</ele>
<time>2026-07-13T16:05:41.000Z</time>
</trkpt>
<trkpt lat="56.788497" lon="8.232952">
<ele>-2.358135</ele>
<time>2026-07-13T16:05:42.000Z</time>
</trkpt>
<trkpt lat="56.788550" lon="8.232972">
<ele>-2.372390</ele>
<time>2026-07-13T16:05:43.000Z</time>
</trkpt>
<trkpt lat="56.788602" lon="8.232992">
<ele>-2.386387</ele>
<time>2026-07-13T16:05:44.000Z</time>
</trkpt>
<trkpt lat="56.788653" lon="8.233012">
<ele>-2.400126</ele>
<time>2026-07-13T16:05:45.000Z</time>
</trkpt>
<trkpt lat="56.788705" lon="8.233031">
<ele>-2.414093</ele>
<time>2026-07-13T16:05:46.000Z</time>
</trkpt>
<trkpt lat="56.788756" lon="8.233050">
<ele>-2.427803</ele>
<time>2026-07-13T16:05:47.000Z</time>
</trkpt>
<trkpt lat="56.788809" lon="8.233067">
<ele>-2.441976</ele>
<time>2026-07-13T16:05:48.000Z</time>
</trkpt>
<trkpt lat="56.788863" lon="8.233085">
<ele>-2.456434</ele>
<time>2026-07-13T16:05:49.000Z</time>
</trkpt>
<trkpt lat="56.788914" lon="8.233106">
<ele>-2.470204</ele>
<time>2026-07-13T16:05:50.000Z</time>
</trkpt>
<trkpt lat="56.788961" lon="8.233128">
<ele>-2.482984</ele>
<time>2026-07-13T16:05:51.000Z</time>
</trkpt>
<trkpt lat="56.789010" lon="8.233151">
<ele>-2.496309</ele>
<time>2026-07-13T16:05:52.000Z</time>
</trkpt>
<trkpt lat="56.789060" lon="8.233171">
<ele>-2.509791</ele>
<time>2026-07-13T16:05:53.000Z</time>
</trkpt>
<trkpt lat="56.789111" lon="8.233189">
<ele>-2.523472</ele>
<time>2026-07-13T16:05:54.000Z</time>
</trkpt>
<trkpt lat="56.789163" lon="8.233205">
<ele>-2.537361</ele>
<time>2026-07-13T16:05:55.000Z</time>
</trkpt>
<trkpt lat="56.789212" lon="8.233223">
<ele>-2.550526</ele>
<time>2026-07-13T16:05:56.000Z</time>
</trkpt>
<trkpt lat="56.789263" lon="8.233242">
<ele>-2.564235</ele>
<time>2026-07-13T16:05:57.000Z</time>
</trkpt>
<trkpt lat="56.789317" lon="8.233262">
<ele>-2.578748</ele>
<time>2026-07-13T16:05:58.000Z</time>
</trkpt>
<trkpt lat="56.789369" lon="8.233281">
<ele>-2.592716</ele>
<time>2026-07-13T16:05:59.000Z</time>
</trkpt>
<trkpt lat="56.789418" lon="8.233301">
<ele>-2.605940</ele>
<time>2026-07-13T16:06:00.000Z</time>
</trkpt>
<trkpt lat="56.789468" lon="8.233321">
<ele>-2.619422</ele>
<time>2026-07-13T16:06:01.000Z</time>
</trkpt>
<trkpt lat="56.789517" lon="8.233338">
<ele>-2.632559</ele>
<time>2026-07-13T16:06:02.000Z</time>
</trkpt>
<trkpt lat="56.789568" lon="8.233356">
<ele>-2.646240</ele>
<time>2026-07-13T16:06:03.000Z</time>
</trkpt>
<trkpt lat="56.789619" lon="8.233374">
<ele>-2.659921</ele>
<time>2026-07-13T16:06:04.000Z</time>
</trkpt>
<trkpt lat="56.789666" lon="8.233391">
<ele>-2.672541</ele>
<time>2026-07-13T16:06:05.000Z</time>
</trkpt>
<trkpt lat="56.789716" lon="8.233409">
<ele>-2.685964</ele>
<time>2026-07-13T16:06:06.000Z</time>
</trkpt>
<trkpt lat="56.789765" lon="8.233425">
<ele>-2.699075</ele>
<time>2026-07-13T16:06:07.000Z</time>
</trkpt>
<trkpt lat="56.789816" lon="8.233441">
<ele>-2.711708</ele>
<time>2026-07-13T16:06:08.000Z</time>
</trkpt>
<trkpt lat="56.789869" lon="8.233461">
<ele>-2.721724</ele>
<time>2026-07-13T16:06:09.000Z</time>
</trkpt>
<trkpt lat="56.789921" lon="8.233483">
<ele>-2.731602</ele>
<time>2026-07-13T16:06:10.000Z</time>
</trkpt>
<trkpt lat="56.789976" lon="8.233505">
<ele>-2.742022</ele>
<time>2026-07-13T16:06:11.000Z</time>
</trkpt>
<trkpt lat="56.790030" lon="8.233526">
<ele>-2.752239</ele>
<time>2026-07-13T16:06:12.000Z</time>
</trkpt>
<trkpt lat="56.790083" lon="8.233545">
<ele>-2.762235</ele>
<time>2026-07-13T16:06:13.000Z</time>
</trkpt>
<trkpt lat="56.790137" lon="8.233562">
<ele>-2.772376</ele>
<time>2026-07-13T16:06:14.000Z</time>
</trkpt>
<trkpt lat="56.790192" lon="8.233577">
<ele>-2.782667</ele>
<time>2026-07-13T16:06:15.000Z</time>
</trkpt>
<trkpt lat="56.790247" lon="8.233594">
<ele>-2.792990</ele>
<time>2026-07-13T16:06:16.000Z</time>
</trkpt>
<trkpt lat="56.790301" lon="8.233611">
<ele>-2.803131</ele>
<time>2026-07-13T16:06:17.000Z</time>
</trkpt>
<trkpt lat="56.790354" lon="8.233630">
<ele>-2.813127</ele>
<time>2026-07-13T16:06:18.000Z</time>
</trkpt>
<trkpt lat="56.790408" lon="8.233651">
<ele>-2.823344</ele>
<time>2026-07-13T16:06:19.000Z</time>
</trkpt>
<trkpt lat="56.790461" lon="8.233674">
<ele>-2.833426</ele>
<time>2026-07-13T16:06:20.000Z</time>
</trkpt>
<trkpt lat="56.790514" lon="8.233698">
<ele>-2.843531</ele>
<time>2026-07-13T16:06:21.000Z</time>
</trkpt>
<trkpt lat="56.790568" lon="8.233722">
<ele>-2.853816</ele>
<time>2026-07-13T16:06:22.000Z</time>
</trkpt>
<trkpt lat="56.790621" lon="8.233744">
<ele>-2.863875</ele>
<time>2026-07-13T16:06:23.000Z</time>
</trkpt>
<trkpt lat="56.790676" lon="8.233763">
<ele>-2.874234</ele>
<time>2026-07-13T16:06:24.000Z</time>
</trkpt>
<trkpt lat="56.790732" lon="8.233781">
<ele>-2.884757</ele>
<time>2026-07-13T16:06:25.000Z</time>
</trkpt>
<trkpt lat="56.790785" lon="8.233801">
<ele>-2.894772</ele>
<time>2026-07-13T16:06:26.000Z</time>
</trkpt>
<trkpt lat="56.790839" lon="8.233823">
<ele>-2.905011</ele>
<time>2026-07-13T16:06:27.000Z</time>
</trkpt>
<trkpt lat="56.790892" lon="8.233843">
<ele>-2.915027</ele>
<time>2026-07-13T16:06:28.000Z</time>
</trkpt>
<trkpt lat="56.790945" lon="8.233862">
<ele>-2.925022</ele>
<time>2026-07-13T16:06:29.000Z</time>
</trkpt>
<trkpt lat="56.791000" lon="8.233881">
<ele>-2.935381</ele>
<time>2026-07-13T16:06:30.000Z</time>
</trkpt>
<trkpt lat="56.791055" lon="8.233900">
<ele>-2.945740</ele>
<time>2026-07-13T16:06:31.000Z</time>
</trkpt>
<trkpt lat="56.791107" lon="8.233921">
<ele>-2.955596</ele>
<time>2026-07-13T16:06:32.000Z</time>
</trkpt>
<trkpt lat="56.791163" lon="8.233942">
<ele>-2.966176</ele>
<time>2026-07-13T16:06:33.000Z</time>
</trkpt>
<trkpt lat="56.791216" lon="8.233962">
<ele>-2.976192</ele>
<time>2026-07-13T16:06:34.000Z</time>
</trkpt>
<trkpt lat="56.791269" lon="8.233983">
<ele>-2.986228</ele>
<time>2026-07-13T16:06:35.000Z</time>
</trkpt>
<trkpt lat="56.791323" lon="8.234003">
<ele>-2.996425</ele>
<time>2026-07-13T16:06:36.000Z</time>
</trkpt>
<trkpt lat="56.791376" lon="8.234021">
<ele>-3.006402</ele>
<time>2026-07-13T16:06:37.000Z</time>
</trkpt>
<trkpt lat="56.791430" lon="8.234040">
<ele>-3.016579</ele>
<time>2026-07-13T16:06:38.000Z</time>
</trkpt>
<trkpt lat="56.791483" lon="8.234060">
<ele>-3.026594</ele>
<time>2026-07-13T16:06:39.000Z</time>
</trkpt>
<trkpt lat="56.791537" lon="8.234080">
<ele>-3.036791</ele>
<time>2026-07-13T16:06:40.000Z</time>
</trkpt>
<trkpt lat="56.791591" lon="8.234100">
<ele>-3.046358</ele>
<time>2026-07-13T16:06:41.000Z</time>
</trkpt>
<trkpt lat="56.791647" lon="8.234118">
<ele>-3.055493</ele>
<time>2026-07-13T16:06:42.000Z</time>
</trkpt>
<trkpt lat="56.791700" lon="8.234139">
<ele>-3.064206</ele>
<time>2026-07-13T16:06:43.000Z</time>
</trkpt>
<trkpt lat="56.791754" lon="8.234160">
<ele>-3.073075</ele>
<time>2026-07-13T16:06:44.000Z</time>
</trkpt>
<trkpt lat="56.791807" lon="8.234181">
<ele>-3.081788</ele>
<time>2026-07-13T16:06:45.000Z</time>
</trkpt>
<trkpt lat="56.791861" lon="8.234201">
<ele>-3.090640</ele>
<time>2026-07-13T16:06:46.000Z</time>
</trkpt>
<trkpt lat="56.791914" lon="8.234221">
<ele>-3.099334</ele>
<time>2026-07-13T16:06:47.000Z</time>
</trkpt>
<trkpt lat="56.791967" lon="8.234241">
<ele>-3.108029</ele>
<time>2026-07-13T16:06:48.000Z</time>
</trkpt>
<trkpt lat="56.792021" lon="8.234259">
<ele>-3.116847</ele>
<time>2026-07-13T16:06:49.000Z</time>
</trkpt>
<trkpt lat="56.792080" lon="8.234279">
<ele>-3.126487</ele>
<time>2026-07-13T16:06:50.000Z</time>
</trkpt>
<trkpt lat="56.792136" lon="8.234299">
<ele>-3.135654</ele>
<time>2026-07-13T16:06:51.000Z</time>
</trkpt>
<trkpt lat="56.792190" lon="8.234319">
<ele>-3.144506</ele>
<time>2026-07-13T16:06:52.000Z</time>
</trkpt>
<trkpt lat="56.792247" lon="8.234339">
<ele>-3.153831</ele>
<time>2026-07-13T16:06:53.000Z</time>
</trkpt>
<trkpt lat="56.792305" lon="8.234359">
<ele>-3.163313</ele>
<time>2026-07-13T16:06:54.000Z</time>
</trkpt>
<trkpt lat="56.792362" lon="8.234380">
<ele>-3.172655</ele>
<time>2026-07-13T16:06:55.000Z</time>
</trkpt>
<trkpt lat="56.792417" lon="8.234402">
<ele>-3.181700</ele>
<time>2026-07-13T16:06:56.000Z</time>
</trkpt>
<trkpt lat="56.792472" lon="8.234423">
<ele>-3.190727</ele>
<time>2026-07-13T16:06:57.000Z</time>
</trkpt>
<trkpt lat="56.792530" lon="8.234442">
<ele>-3.200193</ele>
<time>2026-07-13T16:06:58.000Z</time>
</trkpt>
<trkpt lat="56.792586" lon="8.234462">
<ele>-3.209360</ele>
<time>2026-07-13T16:06:59.000Z</time>
</trkpt>
<trkpt lat="56.792639" lon="8.234482">
<ele>-3.218054</ele>
<time>2026-07-13T16:07:00.000Z</time>
</trkpt>
<trkpt lat="56.792693" lon="8.234502">
<ele>-3.226906</ele>
<time>2026-07-13T16:07:01.000Z</time>
</trkpt>
<trkpt lat="56.792746" lon="8.234522">
<ele>-3.235601</ele>
<time>2026-07-13T16:07:02.000Z</time>
</trkpt>
<trkpt lat="56.792798" lon="8.234542">
<ele>-3.244138</ele>
<time>2026-07-13T16:07:03.000Z</time>
</trkpt>
<trkpt lat="56.792849" lon="8.234561">
<ele>-3.252500</ele>
<time>2026-07-13T16:07:04.000Z</time>
</trkpt>
<trkpt lat="56.792902" lon="8.234579">
<ele>-3.261160</ele>
<time>2026-07-13T16:07:05.000Z</time>
</trkpt>
<trkpt lat="56.792957" lon="8.234599">
<ele>-3.270169</ele>
<time>2026-07-13T16:07:06.000Z</time>
</trkpt>
<trkpt lat="56.793014" lon="8.234621">
<ele>-3.279529</ele>
<time>2026-07-13T16:07:07.000Z</time>
</trkpt>
<trkpt lat="56.793071" lon="8.234642">
<ele>-3.288870</ele>
<time>2026-07-13T16:07:08.000Z</time>
</trkpt>
<trkpt lat="56.793129" lon="8.234663">
<ele>-3.298369</ele>
<time>2026-07-13T16:07:09.000Z</time>
</trkpt>
<trkpt lat="56.793184" lon="8.234683">
<ele>-3.307379</ele>
<time>2026-07-13T16:07:10.000Z</time>
</trkpt>
<trkpt lat="56.793239" lon="8.234701">
<ele>-3.316355</ele>
<time>2026-07-13T16:07:11.000Z</time>
</trkpt>
<trkpt lat="56.793296" lon="8.234720">
<ele>-3.325664</ele>
<time>2026-07-13T16:07:12.000Z</time>
</trkpt>
<trkpt lat="56.793353" lon="8.234741">
<ele>-3.325718</ele>
<time>2026-07-13T16:07:13.000Z</time>
</trkpt>
<trkpt lat="56.793406" lon="8.234764">
<ele>-3.313297</ele>
<time>2026-07-13T16:07:14.000Z</time>
</trkpt>
<trkpt lat="56.793459" lon="8.234785">
<ele>-3.300930</ele>
<time>2026-07-13T16:07:15.000Z</time>
</trkpt>
<trkpt lat="56.793513" lon="8.234806">
<ele>-3.288341</ele>
<time>2026-07-13T16:07:16.000Z</time>
</trkpt>
<trkpt lat="56.793566" lon="8.234827">
<ele>-3.275974</ele>
<time>2026-07-13T16:07:17.000Z</time>
</trkpt>
<trkpt lat="56.793619" lon="8.234849">
<ele>-3.263581</ele>
<time>2026-07-13T16:07:18.000Z</time>
</trkpt>
<trkpt lat="56.793673" lon="8.234870">
<ele>-3.250991</ele>
<time>2026-07-13T16:07:19.000Z</time>
</trkpt>
<trkpt lat="56.793726" lon="8.234889">
<ele>-3.238675</ele>
<time>2026-07-13T16:07:20.000Z</time>
</trkpt>
<trkpt lat="56.793780" lon="8.234909">
<ele>-3.226111</ele>
<time>2026-07-13T16:07:21.000Z</time>
</trkpt>
<trkpt lat="56.793833" lon="8.234931">
<ele>-3.213718</ele>
<time>2026-07-13T16:07:22.000Z</time>
</trkpt>
<trkpt lat="56.793886" lon="8.234952">
<ele>-3.201351</ele>
<time>2026-07-13T16:07:23.000Z</time>
</trkpt>
<trkpt lat="56.793940" lon="8.234973">
<ele>-3.188762</ele>
<time>2026-07-13T16:07:24.000Z</time>
</trkpt>
<trkpt lat="56.793992" lon="8.234993">
<ele>-3.176644</ele>
<time>2026-07-13T16:07:25.000Z</time>
</trkpt>
<trkpt lat="56.794042" lon="8.235012">
<ele>-3.164999</ele>
<time>2026-07-13T16:07:26.000Z</time>
</trkpt>
<trkpt lat="56.794096" lon="8.235033">
<ele>-3.152410</ele>
<time>2026-07-13T16:07:27.000Z</time>
</trkpt>
<trkpt lat="56.794148" lon="8.235054">
<ele>-3.140266</ele>
<time>2026-07-13T16:07:28.000Z</time>
</trkpt>
<trkpt lat="56.794199" lon="8.235077">
<ele>-3.128287</ele>
<time>2026-07-13T16:07:29.000Z</time>
</trkpt>
<trkpt lat="56.794253" lon="8.235098">
<ele>-3.115698</ele>
<time>2026-07-13T16:07:30.000Z</time>
</trkpt>
<trkpt lat="56.794306" lon="8.235118">
<ele>-3.103357</ele>
<time>2026-07-13T16:07:31.000Z</time>
</trkpt>
<trkpt lat="56.794361" lon="8.235138">
<ele>-3.090570</ele>
<time>2026-07-13T16:07:32.000Z</time>
</trkpt>
<trkpt lat="56.794417" lon="8.235160">
<ele>-3.077508</ele>
<time>2026-07-13T16:07:33.000Z</time>
</trkpt>
<trkpt lat="56.794470" lon="8.235181">
<ele>-3.065142</ele>
<time>2026-07-13T16:07:34.000Z</time>
</trkpt>
<trkpt lat="56.794523" lon="8.235199">
<ele>-3.052849</ele>
<time>2026-07-13T16:07:35.000Z</time>
</trkpt>
<trkpt lat="56.794578" lon="8.235218">
<ele>-3.040086</ele>
<time>2026-07-13T16:07:36.000Z</time>
</trkpt>
<trkpt lat="56.794634" lon="8.235238">
<ele>-3.027074</ele>
<time>2026-07-13T16:07:37.000Z</time>
</trkpt>
<trkpt lat="56.794688" lon="8.235258">
<ele>-3.014510</ele>
<time>2026-07-13T16:07:38.000Z</time>
</trkpt>
<trkpt lat="56.794741" lon="8.235278">
<ele>-3.002170</ele>
<time>2026-07-13T16:07:39.000Z</time>
</trkpt>
<trkpt lat="56.794795" lon="8.235299">
<ele>-2.989580</ele>
<time>2026-07-13T16:07:40.000Z</time>
</trkpt>
<trkpt lat="56.794852" lon="8.235321">
<ele>-2.976296</ele>
<time>2026-07-13T16:07:41.000Z</time>
</trkpt>
<trkpt lat="56.794906" lon="8.235343">
<ele>-2.963680</ele>
<time>2026-07-13T16:07:42.000Z</time>
</trkpt>
<trkpt lat="56.794962" lon="8.235365">
<ele>-2.950618</ele>
<time>2026-07-13T16:07:43.000Z</time>
</trkpt>
<trkpt lat="56.795015" lon="8.235387">
<ele>-2.938225</ele>
<time>2026-07-13T16:07:44.000Z</time>
</trkpt>
<trkpt lat="56.795069" lon="8.235407">
<ele>-2.925661</ele>
<time>2026-07-13T16:07:45.000Z</time>
</trkpt>
<trkpt lat="56.795123" lon="8.235430">
<ele>-2.917307</ele>
<time>2026-07-13T16:07:46.000Z</time>
</trkpt>
<trkpt lat="56.795176" lon="8.235452">
<ele>-2.911544</ele>
<time>2026-07-13T16:07:47.000Z</time>
</trkpt>
<trkpt lat="56.795229" lon="8.235474">
<ele>-2.905781</ele>
<time>2026-07-13T16:07:48.000Z</time>
</trkpt>
<trkpt lat="56.795283" lon="8.235496">
<ele>-2.899915</ele>
<time>2026-07-13T16:07:49.000Z</time>
</trkpt>
<trkpt lat="56.795336" lon="8.235519">
<ele>-2.894139</ele>
<time>2026-07-13T16:07:50.000Z</time>
</trkpt>
<trkpt lat="56.795389" lon="8.235542">
<ele>-2.888364</ele>
<time>2026-07-13T16:07:51.000Z</time>
</trkpt>
<trkpt lat="56.795443" lon="8.235566">
<ele>-2.882471</ele>
<time>2026-07-13T16:07:52.000Z</time>
</trkpt>
<trkpt lat="56.795496" lon="8.235589">
<ele>-2.876695</ele>
<time>2026-07-13T16:07:53.000Z</time>
</trkpt>
<trkpt lat="56.795550" lon="8.235611">
<ele>-2.870829</ele>
<time>2026-07-13T16:07:54.000Z</time>
</trkpt>
<trkpt lat="56.795603" lon="8.235633">
<ele>-2.865066</ele>
<time>2026-07-13T16:07:55.000Z</time>
</trkpt>
<trkpt lat="56.795658" lon="8.235656">
<ele>-2.859084</ele>
<time>2026-07-13T16:07:56.000Z</time>
</trkpt>
<trkpt lat="56.795714" lon="8.235679">
<ele>-2.852998</ele>
<time>2026-07-13T16:07:57.000Z</time>
</trkpt>
<trkpt lat="56.795766" lon="8.235700">
<ele>-2.847352</ele>
<time>2026-07-13T16:07:58.000Z</time>
</trkpt>
<trkpt lat="56.795816" lon="8.235723">
<ele>-2.841885</ele>
<time>2026-07-13T16:07:59.000Z</time>
</trkpt>
<trkpt lat="56.795870" lon="8.235746">
<ele>-2.836006</ele>
<time>2026-07-13T16:08:00.000Z</time>
</trkpt>
<trkpt lat="56.795924" lon="8.235769">
<ele>-2.830127</ele>
<time>2026-07-13T16:08:01.000Z</time>
</trkpt>
<trkpt lat="56.795976" lon="8.235790">
<ele>-2.824481</ele>
<time>2026-07-13T16:08:02.000Z</time>
</trkpt>
<trkpt lat="56.796026" lon="8.235812">
<ele>-2.819028</ele>
<time>2026-07-13T16:08:03.000Z</time>
</trkpt>
<trkpt lat="56.796080" lon="8.235836">
<ele>-2.813135</ele>
<time>2026-07-13T16:08:04.000Z</time>
</trkpt>
<trkpt lat="56.796133" lon="8.235857">
<ele>-2.807385</ele>
<time>2026-07-13T16:08:05.000Z</time>
</trkpt>
<trkpt lat="56.796186" lon="8.235879">
<ele>-2.801622</ele>
<time>2026-07-13T16:08:06.000Z</time>
</trkpt>
<trkpt lat="56.796240" lon="8.235902">
<ele>-2.795743</ele>
<time>2026-07-13T16:08:07.000Z</time>
</trkpt>
<trkpt lat="56.796292" lon="8.235924">
<ele>-2.790084</ele>
<time>2026-07-13T16:08:08.000Z</time>
</trkpt>
<trkpt lat="56.796343" lon="8.235943">
<ele>-2.784565</ele>
<time>2026-07-13T16:08:09.000Z</time>
</trkpt>
<trkpt lat="56.796397" lon="8.235962">
<ele>-2.778735</ele>
<time>2026-07-13T16:08:10.000Z</time>
</trkpt>
<trkpt lat="56.796450" lon="8.235982">
<ele>-2.772997</ele>
<time>2026-07-13T16:08:11.000Z</time>
</trkpt>
<trkpt lat="56.796503" lon="8.236001">
<ele>-2.767270</ele>
<time>2026-07-13T16:08:12.000Z</time>
</trkpt>
<trkpt lat="56.796557" lon="8.236019">
<ele>-2.761450</ele>
<time>2026-07-13T16:08:13.000Z</time>
</trkpt>
<trkpt lat="56.796610" lon="8.236039">
<ele>-2.755712</ele>
<time>2026-07-13T16:08:14.000Z</time>
</trkpt>
<trkpt lat="56.796664" lon="8.236060">
<ele>-2.749858</ele>
<time>2026-07-13T16:08:15.000Z</time>
</trkpt>
<trkpt lat="56.796717" lon="8.236080">
<ele>-2.744120</ele>
<time>2026-07-13T16:08:16.000Z</time>
</trkpt>
<trkpt lat="56.796771" lon="8.236100">
<ele>-2.738278</ele>
<time>2026-07-13T16:08:17.000Z</time>
</trkpt>
<trkpt lat="56.796824" lon="8.236120">
<ele>-2.732540</ele>
<time>2026-07-13T16:08:18.000Z</time>
</trkpt>
<trkpt lat="56.796876" lon="8.236141">
<ele>-2.733652</ele>
<time>2026-07-13T16:08:19.000Z</time>
</trkpt>
<trkpt lat="56.796927" lon="8.236162">
<ele>-2.738999</ele>
<time>2026-07-13T16:08:20.000Z</time>
</trkpt>
<trkpt lat="56.796980" lon="8.236182">
<ele>-2.744534</ele>
<time>2026-07-13T16:08:21.000Z</time>
</trkpt>
<trkpt lat="56.797034" lon="8.236200">
<ele>-2.750148</ele>
<time>2026-07-13T16:08:22.000Z</time>
</trkpt>
<trkpt lat="56.797087" lon="8.236215">
<ele>-2.755633</ele>
<time>2026-07-13T16:08:23.000Z</time>
</trkpt>
<trkpt lat="56.797141" lon="8.236233">
<ele>-2.761247</ele>
<time>2026-07-13T16:08:24.000Z</time>
</trkpt>
<trkpt lat="56.797194" lon="8.236253">
<ele>-2.766782</ele>
<time>2026-07-13T16:08:25.000Z</time>
</trkpt>
<trkpt lat="56.797248" lon="8.236274">
<ele>-2.772429</ele>
<time>2026-07-13T16:08:26.000Z</time>
</trkpt>
<trkpt lat="56.797301" lon="8.236296">
<ele>-2.777988</ele>
<time>2026-07-13T16:08:27.000Z</time>
</trkpt>
<trkpt lat="56.797354" lon="8.236322">
<ele>-2.783601</ele>
<time>2026-07-13T16:08:28.000Z</time>
</trkpt>
<trkpt lat="56.797409" lon="8.236351">
<ele>-2.789456</ele>
<time>2026-07-13T16:08:29.000Z</time>
</trkpt>
<trkpt lat="56.797464" lon="8.236380">
<ele>-2.795310</ele>
<time>2026-07-13T16:08:30.000Z</time>
</trkpt>
<trkpt lat="56.797515" lon="8.236408">
<ele>-2.800757</ele>
<time>2026-07-13T16:08:31.000Z</time>
</trkpt>
<trkpt lat="56.797566" lon="8.236433">
<ele>-2.806158</ele>
<time>2026-07-13T16:08:32.000Z</time>
</trkpt>
<trkpt lat="56.797616" lon="8.236455">
<ele>-2.811418</ele>
<time>2026-07-13T16:08:33.000Z</time>
</trkpt>
<trkpt lat="56.797667" lon="8.236474">
<ele>-2.816741</ele>
<time>2026-07-13T16:08:34.000Z</time>
</trkpt>
<trkpt lat="56.797719" lon="8.236492">
<ele>-2.822154</ele>
<time>2026-07-13T16:08:35.000Z</time>
</trkpt>
<trkpt lat="56.797772" lon="8.236512">
<ele>-2.827689</ele>
<time>2026-07-13T16:08:36.000Z</time>
</trkpt>
<trkpt lat="56.797826" lon="8.236533">
<ele>-2.833336</ele>
<time>2026-07-13T16:08:37.000Z</time>
</trkpt>
<trkpt lat="56.797879" lon="8.236555">
<ele>-2.838895</ele>
<time>2026-07-13T16:08:38.000Z</time>
</trkpt>
<trkpt lat="56.797932" lon="8.236577">
<ele>-2.844454</ele>
<time>2026-07-13T16:08:39.000Z</time>
</trkpt>
<trkpt lat="56.797982" lon="8.236596">
<ele>-2.849677</ele>
<time>2026-07-13T16:08:40.000Z</time>
</trkpt>
<trkpt lat="56.798036" lon="8.236617">
<ele>-2.855324</ele>
<time>2026-07-13T16:08:41.000Z</time>
</trkpt>
<trkpt lat="56.798089" lon="8.236640">
<ele>-2.860895</ele>
<time>2026-07-13T16:08:42.000Z</time>
</trkpt>
<trkpt lat="56.798142" lon="8.236665">
<ele>-2.866493</ele>
<time>2026-07-13T16:08:43.000Z</time>
</trkpt>
<trkpt lat="56.798197" lon="8.236689">
<ele>-2.872277</ele>
<time>2026-07-13T16:08:44.000Z</time>
</trkpt>
<trkpt lat="56.798250" lon="8.236708">
<ele>-2.877801</ele>
<time>2026-07-13T16:08:45.000Z</time>
</trkpt>
<trkpt lat="56.798304" lon="8.236727">
<ele>-2.883425</ele>
<time>2026-07-13T16:08:46.000Z</time>
</trkpt>
<trkpt lat="56.798359" lon="8.236749">
<ele>-2.889184</ele>
<time>2026-07-13T16:08:47.000Z</time>
</trkpt>
<trkpt lat="56.798414" lon="8.236770">
<ele>-2.894931</ele>
<time>2026-07-13T16:08:48.000Z</time>
</trkpt>
<trkpt lat="56.798468" lon="8.236791">
<ele>-2.900577</ele>
<time>2026-07-13T16:08:49.000Z</time>
</trkpt>
<trkpt lat="56.798521" lon="8.236811">
<ele>-2.906112</ele>
<time>2026-07-13T16:08:50.000Z</time>
</trkpt>
<trkpt lat="56.798574" lon="8.236829">
<ele>-2.911626</ele>
<time>2026-07-13T16:08:51.000Z</time>
</trkpt>
<trkpt lat="56.798630" lon="8.236848">
<ele>-2.913009</ele>
<time>2026-07-13T16:08:52.000Z</time>
</trkpt>
<trkpt lat="56.798685" lon="8.236871">
<ele>-2.910673</ele>
<time>2026-07-13T16:08:53.000Z</time>
</trkpt>
<trkpt lat="56.798739" lon="8.236894">
<ele>-2.908378</ele>
<time>2026-07-13T16:08:54.000Z</time>
</trkpt>
<trkpt lat="56.798792" lon="8.236917">
<ele>-2.906122</ele>
<time>2026-07-13T16:08:55.000Z</time>
</trkpt>
<trkpt lat="56.798846" lon="8.236939">
<ele>-2.903831</ele>
<time>2026-07-13T16:08:56.000Z</time>
</trkpt>
<trkpt lat="56.798899" lon="8.236961">
<ele>-2.901581</ele>
<time>2026-07-13T16:08:57.000Z</time>
</trkpt>
<trkpt lat="56.798952" lon="8.236985">
<ele>-2.899320</ele>
<time>2026-07-13T16:08:58.000Z</time>
</trkpt>
<trkpt lat="56.799006" lon="8.237009">
<ele>-2.897019</ele>
<time>2026-07-13T16:08:59.000Z</time>
</trkpt>
<trkpt lat="56.799059" lon="8.237033">
<ele>-2.894759</ele>
<time>2026-07-13T16:09:00.000Z</time>
</trkpt>
<trkpt lat="56.799113" lon="8.237055">
<ele>-2.892468</ele>
<time>2026-07-13T16:09:01.000Z</time>
</trkpt>
<trkpt lat="56.799164" lon="8.237076">
<ele>-2.890303</ele>
<time>2026-07-13T16:09:02.000Z</time>
</trkpt>
<trkpt lat="56.799214" lon="8.237095">
<ele>-2.888189</ele>
<time>2026-07-13T16:09:03.000Z</time>
</trkpt>
<trkpt lat="56.799273" lon="8.237121">
<ele>-2.885676</ele>
<time>2026-07-13T16:09:04.000Z</time>
</trkpt>
<trkpt lat="56.799326" lon="8.237143">
<ele>-2.883426</ele>
<time>2026-07-13T16:09:05.000Z</time>
</trkpt>
<trkpt lat="56.799379" lon="8.237164">
<ele>-2.881180</ele>
<time>2026-07-13T16:09:06.000Z</time>
</trkpt>
<trkpt lat="56.799435" lon="8.237186">
<ele>-2.878809</ele>
<time>2026-07-13T16:09:07.000Z</time>
</trkpt>
<trkpt lat="56.799490" lon="8.237208">
<ele>-2.876478</ele>
<time>2026-07-13T16:09:08.000Z</time>
</trkpt>
<trkpt lat="56.799545" lon="8.237231">
<ele>-2.874142</ele>
<time>2026-07-13T16:09:09.000Z</time>
</trkpt>
<trkpt lat="56.799601" lon="8.237254">
<ele>-2.871765</ele>
<time>2026-07-13T16:09:10.000Z</time>
</trkpt>
<trkpt lat="56.799655" lon="8.237274">
<ele>-2.869484</ele>
<time>2026-07-13T16:09:11.000Z</time>
</trkpt>
<trkpt lat="56.799709" lon="8.237293">
<ele>-2.867207</ele>
<time>2026-07-13T16:09:12.000Z</time>
</trkpt>
<trkpt lat="56.799765" lon="8.237312">
<ele>-2.864849</ele>
<time>2026-07-13T16:09:13.000Z</time>
</trkpt>
<trkpt lat="56.799818" lon="8.237334">
<ele>-2.862599</ele>
<time>2026-07-13T16:09:14.000Z</time>
</trkpt>
<trkpt lat="56.799871" lon="8.237357">
<ele>-2.860343</ele>
<time>2026-07-13T16:09:15.000Z</time>
</trkpt>
<trkpt lat="56.799921" lon="8.237377">
<ele>-2.858224</ele>
<time>2026-07-13T16:09:16.000Z</time>
</trkpt>
<trkpt lat="56.799975" lon="8.237397">
<ele>-2.855943</ele>
<time>2026-07-13T16:09:17.000Z</time>
</trkpt>
<trkpt lat="56.800028" lon="8.237416">
<ele>-2.853707</ele>
<time>2026-07-13T16:09:18.000Z</time>
</trkpt>
<trkpt lat="56.800080" lon="8.237435">
<ele>-2.851511</ele>
<time>2026-07-13T16:09:19.000Z</time>
</trkpt>
<trkpt lat="56.800131" lon="8.237454">
<ele>-2.849356</ele>
<time>2026-07-13T16:09:20.000Z</time>
</trkpt>
<trkpt lat="56.800184" lon="8.237476">
<ele>-2.847106</ele>
<time>2026-07-13T16:09:21.000Z</time>
</trkpt>
<trkpt lat="56.800234" lon="8.237496">
<ele>-2.844987</ele>
<time>2026-07-13T16:09:22.000Z</time>
</trkpt>
<trkpt lat="56.800288" lon="8.237516">
<ele>-2.842705</ele>
<time>2026-07-13T16:09:23.000Z</time>
</trkpt>
<trkpt lat="56.800340" lon="8.237535">
<ele>-2.840510</ele>
<time>2026-07-13T16:09:24.000Z</time>
</trkpt>
<trkpt lat="56.800390" lon="8.237553">
<ele>-2.831175</ele>
<time>2026-07-13T16:09:25.000Z</time>
</trkpt>
<trkpt lat="56.800439" lon="8.237570">
<ele>-2.818614</ele>
<time>2026-07-13T16:09:26.000Z</time>
</trkpt>
<trkpt lat="56.800487" lon="8.237587">
<ele>-2.806300</ele>
<time>2026-07-13T16:09:27.000Z</time>
</trkpt>
<trkpt lat="56.800533" lon="8.237604">
<ele>-2.794481</ele>
<time>2026-07-13T16:09:28.000Z</time>
</trkpt>
<trkpt lat="56.800579" lon="8.237619">
<ele>-2.782713</ele>
<time>2026-07-13T16:09:29.000Z</time>
</trkpt>
<trkpt lat="56.800623" lon="8.237634">
<ele>-2.771441</ele>
<time>2026-07-13T16:09:30.000Z</time>
</trkpt>
<trkpt lat="56.800665" lon="8.237650">
<ele>-2.760636</ele>
<time>2026-07-13T16:09:31.000Z</time>
</trkpt>
<trkpt lat="56.800709" lon="8.237668">
<ele>-2.749280</ele>
<time>2026-07-13T16:09:32.000Z</time>
</trkpt>
<trkpt lat="56.800753" lon="8.237689">
<ele>-2.737827</ele>
<time>2026-07-13T16:09:33.000Z</time>
</trkpt>
<trkpt lat="56.800796" lon="8.237711">
<ele>-2.726581</ele>
<time>2026-07-13T16:09:34.000Z</time>
</trkpt>
<trkpt lat="56.800843" lon="8.237733">
<ele>-2.714362</ele>
<time>2026-07-13T16:09:35.000Z</time>
</trkpt>
<trkpt lat="56.800894" lon="8.237755">
<ele>-2.701165</ele>
<time>2026-07-13T16:09:36.000Z</time>
</trkpt>
<trkpt lat="56.800948" lon="8.237777">
<ele>-2.687232</ele>
<time>2026-07-13T16:09:37.000Z</time>
</trkpt>
<trkpt lat="56.801000" lon="8.237799">
<ele>-2.673789</ele>
<time>2026-07-13T16:09:38.000Z</time>
</trkpt>
<trkpt lat="56.801055" lon="8.237820">
<ele>-2.659639</ele>
<time>2026-07-13T16:09:39.000Z</time>
</trkpt>
<trkpt lat="56.801111" lon="8.237844">
<ele>-2.645153</ele>
<time>2026-07-13T16:09:40.000Z</time>
</trkpt>
<trkpt lat="56.801166" lon="8.237867">
<ele>-2.630943</ele>
<time>2026-07-13T16:09:41.000Z</time>
</trkpt>
<trkpt lat="56.801222" lon="8.237890">
<ele>-2.616488</ele>
<time>2026-07-13T16:09:42.000Z</time>
</trkpt>
<trkpt lat="56.801279" lon="8.237910">
<ele>-2.601871</ele>
<time>2026-07-13T16:09:43.000Z</time>
</trkpt>
<trkpt lat="56.801333" lon="8.237930">
<ele>-2.587995</ele>
<time>2026-07-13T16:09:44.000Z</time>
</trkpt>
<trkpt lat="56.801386" lon="8.237952">
<ele>-2.574307</ele>
<time>2026-07-13T16:09:45.000Z</time>
</trkpt>
<trkpt lat="56.801439" lon="8.237974">
<ele>-2.560619</ele>
<time>2026-07-13T16:09:46.000Z</time>
</trkpt>
<trkpt lat="56.801494" lon="8.237996">
<ele>-2.546439</ele>
<time>2026-07-13T16:09:47.000Z</time>
</trkpt>
<trkpt lat="56.801550" lon="8.238018">
<ele>-2.532014</ele>
<time>2026-07-13T16:09:48.000Z</time>
</trkpt>
<trkpt lat="56.801603" lon="8.238040">
<ele>-2.518326</ele>
<time>2026-07-13T16:09:49.000Z</time>
</trkpt>
<trkpt lat="56.801655" lon="8.238060">
<ele>-2.504943</ele>
<time>2026-07-13T16:09:50.000Z</time>
</trkpt>
<trkpt lat="56.801706" lon="8.238079">
<ele>-2.491835</ele>
<time>2026-07-13T16:09:51.000Z</time>
</trkpt>
<trkpt lat="56.801759" lon="8.238099">
<ele>-2.478206</ele>
<time>2026-07-13T16:09:52.000Z</time>
</trkpt>
<trkpt lat="56.801808" lon="8.238122">
<ele>-2.465464</ele>
<time>2026-07-13T16:09:53.000Z</time>
</trkpt>
<trkpt lat="56.801857" lon="8.238143">
<ele>-2.452789</ele>
<time>2026-07-13T16:09:54.000Z</time>
</trkpt>
<trkpt lat="56.801907" lon="8.238164">
<ele>-2.439868</ele>
<time>2026-07-13T16:09:55.000Z</time>
</trkpt>
<trkpt lat="56.801957" lon="8.238185">
<ele>-2.426948</ele>
<time>2026-07-13T16:09:56.000Z</time>
</trkpt>
<trkpt lat="56.802006" lon="8.238207">
<ele>-2.414240</ele>
<time>2026-07-13T16:09:57.000Z</time>
</trkpt>
<trkpt lat="56.802057" lon="8.238228">
<ele>-2.401074</ele>
<time>2026-07-13T16:09:58.000Z</time>
</trkpt>
<trkpt lat="56.802109" lon="8.238247">
<ele>-2.387719</ele>
<time>2026-07-13T16:09:59.000Z</time>
</trkpt>
<trkpt lat="56.802160" lon="8.238267">
<ele>-2.427995</ele>
<time>2026-07-13T16:10:00.000Z</time>
</trkpt>
<trkpt lat="56.802213" lon="8.238287">
<ele>-2.473692</ele>
<time>2026-07-13T16:10:01.000Z</time>
</trkpt>
<trkpt lat="56.802267" lon="8.238308">
<ele>-2.520309</ele>
<time>2026-07-13T16:10:02.000Z</time>
</trkpt>
<trkpt lat="56.802320" lon="8.238327">
<ele>-2.565915</ele>
<time>2026-07-13T16:10:03.000Z</time>
</trkpt>
<trkpt lat="56.802371" lon="8.238347">
<ele>-2.609958</ele>
<time>2026-07-13T16:10:04.000Z</time>
</trkpt>
<trkpt lat="56.802421" lon="8.238366">
<ele>-2.653081</ele>
<time>2026-07-13T16:10:05.000Z</time>
</trkpt>
<trkpt lat="56.802471" lon="8.238386">
<ele>-2.696299</ele>
<time>2026-07-13T16:10:06.000Z</time>
</trkpt>
<trkpt lat="56.802519" lon="8.238408">
<ele>-2.738086</ele>
<time>2026-07-13T16:10:07.000Z</time>
</trkpt>
<trkpt lat="56.802570" lon="8.238432">
<ele>-2.782554</ele>
<time>2026-07-13T16:10:08.000Z</time>
</trkpt>
<trkpt lat="56.802621" lon="8.238453">
<ele>-2.826698</ele>
<time>2026-07-13T16:10:09.000Z</time>
</trkpt>
<trkpt lat="56.802671" lon="8.238474">
<ele>-2.870018</ele>
<time>2026-07-13T16:10:10.000Z</time>
</trkpt>
<trkpt lat="56.802724" lon="8.238494">
<ele>-2.915714</ele>
<time>2026-07-13T16:10:11.000Z</time>
</trkpt>
<trkpt lat="56.802773" lon="8.238511">
<ele>-2.957828</ele>
<time>2026-07-13T16:10:12.000Z</time>
</trkpt>
<trkpt lat="56.802822" lon="8.238529">
<ele>-3.000030</ele>
<time>2026-07-13T16:10:13.000Z</time>
</trkpt>
<trkpt lat="56.802873" lon="8.238546">
<ele>-3.043804</ele>
<time>2026-07-13T16:10:14.000Z</time>
</trkpt>
<trkpt lat="56.802921" lon="8.238564">
<ele>-3.085179</ele>
<time>2026-07-13T16:10:15.000Z</time>
</trkpt>
<trkpt lat="56.802965" lon="8.238580">
<ele>-3.123060</ele>
<time>2026-07-13T16:10:16.000Z</time>
</trkpt>
<trkpt lat="56.803007" lon="8.238595">
<ele>-3.159195</ele>
<time>2026-07-13T16:10:17.000Z</time>
</trkpt>
<trkpt lat="56.803047" lon="8.238610">
<ele>-3.193674</ele>
<time>2026-07-13T16:10:18.000Z</time>
</trkpt>
<trkpt lat="56.803086" lon="8.238626">
<ele>-3.227424</ele>
<time>2026-07-13T16:10:19.000Z</time>
</trkpt>
<trkpt lat="56.803128" lon="8.238642">
<ele>-3.263651</ele>
<time>2026-07-13T16:10:20.000Z</time>
</trkpt>
<trkpt lat="56.803166" lon="8.238654">
<ele>-3.296212</ele>
<time>2026-07-13T16:10:21.000Z</time>
</trkpt>
<trkpt lat="56.803202" lon="8.238661">
<ele>-3.326781</ele>
<time>2026-07-13T16:10:22.000Z</time>
</trkpt>
<trkpt lat="56.803228" lon="8.238666">
<ele>-3.348856</ele>
<time>2026-07-13T16:10:23.000Z</time>
</trkpt>
<trkpt lat="56.803243" lon="8.238670">
<ele>-3.361656</ele>
<time>2026-07-13T16:10:24.000Z</time>
</trkpt>
<trkpt lat="56.803168" lon="8.238636">
<ele>-3.426904</ele>
<time>2026-07-13T16:12:40.000Z</time>
</trkpt>
<trkpt lat="56.803164" lon="8.238658">
<ele>-3.437621</ele>
<time>2026-07-13T16:12:41.000Z</time>
</trkpt>
<trkpt lat="56.803162" lon="8.238686">
<ele>-3.450675</ele>
<time>2026-07-13T16:12:42.000Z</time>
</trkpt>
<trkpt lat="56.803161" lon="8.238712">
<ele>-3.462725</ele>
<time>2026-07-13T16:12:43.000Z</time>
</trkpt>
<trkpt lat="56.803158" lon="8.238737">
<ele>-3.474557</ele>
<time>2026-07-13T16:12:44.000Z</time>
</trkpt>
<trkpt lat="56.803159" lon="8.238772">
<ele>-3.490759</ele>
<time>2026-07-13T16:12:45.000Z</time>
</trkpt>
<trkpt lat="56.803164" lon="8.238809">
<ele>-3.508378</ele>
<time>2026-07-13T16:12:46.000Z</time>
</trkpt>
<trkpt lat="56.803171" lon="8.238852">
<ele>-3.529117</ele>
<time>2026-07-13T16:12:47.000Z</time>
</trkpt>
<trkpt lat="56.803180" lon="8.238900">
<ele>-3.552573</ele>
<time>2026-07-13T16:12:48.000Z</time>
</trkpt>
<trkpt lat="56.803193" lon="8.238950">
<ele>-3.578162</ele>
<time>2026-07-13T16:12:49.000Z</time>
</trkpt>
<trkpt lat="56.803210" lon="8.239004">
<ele>-3.606958</ele>
<time>2026-07-13T16:12:50.000Z</time>
</trkpt>
<trkpt lat="56.803231" lon="8.239064">
<ele>-3.639880</ele>
<time>2026-07-13T16:12:51.000Z</time>
</trkpt>
<trkpt lat="56.803251" lon="8.239132">
<ele>-3.675565</ele>
<time>2026-07-13T16:12:52.000Z</time>
</trkpt>
<trkpt lat="56.803271" lon="8.239193">
<ele>-3.708435</ele>
<time>2026-07-13T16:12:53.000Z</time>
</trkpt>
<trkpt lat="56.803302" lon="8.239285">
<ele>-3.758376</ele>
<time>2026-07-13T16:12:54.000Z</time>
</trkpt>
<trkpt lat="56.803328" lon="8.239356">
<ele>-3.797864</ele>
<time>2026-07-13T16:12:55.000Z</time>
</trkpt>
<trkpt lat="56.803365" lon="8.239445">
<ele>-3.849526</ele>
<time>2026-07-13T16:12:56.000Z</time>
</trkpt>
<trkpt lat="56.803398" lon="8.239525">
<ele>-3.895831</ele>
<time>2026-07-13T16:12:57.000Z</time>
</trkpt>
<trkpt lat="56.803435" lon="8.239605">
<ele>-3.949364</ele>
<time>2026-07-13T16:12:58.000Z</time>
</trkpt>
<trkpt lat="56.803468" lon="8.239679">
<ele>-3.999325</ele>
<time>2026-07-13T16:12:59.000Z</time>
</trkpt>
<trkpt lat="56.803501" lon="8.239756">
<ele>-4.050513</ele>
<time>2026-07-13T16:13:00.000Z</time>
</trkpt>
<trkpt lat="56.803528" lon="8.239829">
<ele>-4.096629</ele>
<time>2026-07-13T16:13:01.000Z</time>
</trkpt>
<trkpt lat="56.803559" lon="8.239903">
<ele>-4.145405</ele>
<time>2026-07-13T16:13:02.000Z</time>
</trkpt>
<trkpt lat="56.803586" lon="8.239968">
<ele>-4.188115</ele>
<time>2026-07-13T16:13:03.000Z</time>
</trkpt>
<trkpt lat="56.803616" lon="8.240031">
<ele>-4.231822</ele>
<time>2026-07-13T16:13:04.000Z</time>
</trkpt>
<trkpt lat="56.803642" lon="8.240093">
<ele>-4.272704</ele>
<time>2026-07-13T16:13:05.000Z</time>
</trkpt>
<trkpt lat="56.803668" lon="8.240154">
<ele>-4.313171</ele>
<time>2026-07-13T16:13:06.000Z</time>
</trkpt>
<trkpt lat="56.803696" lon="8.240222">
<ele>-4.357711</ele>
<time>2026-07-13T16:13:07.000Z</time>
</trkpt>
<trkpt lat="56.803723" lon="8.240286">
<ele>-4.400005</ele>
<time>2026-07-13T16:13:08.000Z</time>
</trkpt>
<trkpt lat="56.803752" lon="8.240354">
<ele>-4.445126</ele>
<time>2026-07-13T16:13:09.000Z</time>
</trkpt>
<trkpt lat="56.803785" lon="8.240422">
<ele>-4.492693</ele>
<time>2026-07-13T16:13:10.000Z</time>
</trkpt>
<trkpt lat="56.803816" lon="8.240493">
<ele>-4.540231</ele>
<time>2026-07-13T16:13:11.000Z</time>
</trkpt>
<trkpt lat="56.803846" lon="8.240562">
<ele>-4.586354</ele>
<time>2026-07-13T16:13:12.000Z</time>
</trkpt>
<trkpt lat="56.803876" lon="8.240630">
<ele>-4.632068</ele>
<time>2026-07-13T16:13:13.000Z</time>
</trkpt>
<trkpt lat="56.803907" lon="8.240699">
<ele>-4.678792</ele>
<time>2026-07-13T16:13:14.000Z</time>
</trkpt>
<trkpt lat="56.803938" lon="8.240765">
<ele>-4.724313</ele>
<time>2026-07-13T16:13:15.000Z</time>
</trkpt>
<trkpt lat="56.803968" lon="8.240833">
<ele>-4.770027</ele>
<time>2026-07-13T16:13:16.000Z</time>
</trkpt>
<trkpt lat="56.803998" lon="8.240898">
<ele>-4.814529</ele>
<time>2026-07-13T16:13:17.000Z</time>
</trkpt>
<trkpt lat="56.804028" lon="8.240959">
<ele>-4.857452</ele>
<time>2026-07-13T16:13:18.000Z</time>
</trkpt>
<trkpt lat="56.804062" lon="8.241025">
<ele>-4.904890</ele>
<time>2026-07-13T16:13:19.000Z</time>
</trkpt>
<trkpt lat="56.804091" lon="8.241081">
<ele>-4.945240</ele>
<time>2026-07-13T16:13:20.000Z</time>
</trkpt>
<trkpt lat="56.804124" lon="8.241145">
<ele>-4.991261</ele>
<time>2026-07-13T16:13:21.000Z</time>
</trkpt>
<trkpt lat="56.804155" lon="8.241203">
<ele>-5.033690</ele>
<time>2026-07-13T16:13:22.000Z</time>
</trkpt>
<trkpt lat="56.804189" lon="8.241262">
<ele>-5.078530</ele>
<time>2026-07-13T16:13:23.000Z</time>
</trkpt>
<trkpt lat="56.804220" lon="8.241319">
<ele>-5.120587</ele>
<time>2026-07-13T16:13:24.000Z</time>
</trkpt>
<trkpt lat="56.804255" lon="8.241376">
<ele>-5.165421</ele>
<time>2026-07-13T16:13:25.000Z</time>
</trkpt>
<trkpt lat="56.804288" lon="8.241434">
<ele>-5.209208</ele>
<time>2026-07-13T16:13:26.000Z</time>
</trkpt>
<trkpt lat="56.804321" lon="8.241491">
<ele>-5.252633</ele>
<time>2026-07-13T16:13:27.000Z</time>
</trkpt>
<trkpt lat="56.804354" lon="8.241546">
<ele>-5.295346</ele>
<time>2026-07-13T16:13:28.000Z</time>
</trkpt>
<trkpt lat="56.804389" lon="8.241604">
<ele>-5.340530</ele>
<time>2026-07-13T16:13:29.000Z</time>
</trkpt>
<trkpt lat="56.804424" lon="8.241662">
<ele>-5.385714</ele>
<time>2026-07-13T16:13:30.000Z</time>
</trkpt>
<trkpt lat="56.804457" lon="8.241719">
<ele>-5.429140</ele>
<time>2026-07-13T16:13:31.000Z</time>
</trkpt>
<trkpt lat="56.804489" lon="8.241772">
<ele>-5.470441</ele>
<time>2026-07-13T16:13:32.000Z</time>
</trkpt>
<trkpt lat="56.804524" lon="8.241823">
<ele>-5.513249</ele>
<time>2026-07-13T16:13:33.000Z</time>
</trkpt>
<trkpt lat="56.804560" lon="8.241873">
<ele>-5.556490</ele>
<time>2026-07-13T16:13:34.000Z</time>
</trkpt>
<trkpt lat="56.804595" lon="8.241926">
<ele>-5.599958</ele>
<time>2026-07-13T16:13:35.000Z</time>
</trkpt>
<trkpt lat="56.804632" lon="8.241978">
<ele>-5.615472</ele>
<time>2026-07-13T16:13:36.000Z</time>
</trkpt>
<trkpt lat="56.804670" lon="8.242029">
<ele>-5.592689</ele>
<time>2026-07-13T16:13:37.000Z</time>
</trkpt>
<trkpt lat="56.804710" lon="8.242080">
<ele>-5.569120</ele>
<time>2026-07-13T16:13:38.000Z</time>
</trkpt>
<trkpt lat="56.804750" lon="8.242128">
<ele>-5.545996</ele>
<time>2026-07-13T16:13:39.000Z</time>
</trkpt>
<trkpt lat="56.804788" lon="8.242174">
<ele>-5.523971</ele>
<time>2026-07-13T16:13:40.000Z</time>
</trkpt>
<trkpt lat="56.804828" lon="8.242220">
<ele>-5.501133</ele>
<time>2026-07-13T16:13:41.000Z</time>
</trkpt>
<trkpt lat="56.804869" lon="8.242265">
<ele>-5.478023</ele>
<time>2026-07-13T16:13:42.000Z</time>
</trkpt>
<trkpt lat="56.804910" lon="8.242311">
<ele>-5.454775</ele>
<time>2026-07-13T16:13:43.000Z</time>
</trkpt>
<trkpt lat="56.804950" lon="8.242358">
<ele>-5.431796</ele>
<time>2026-07-13T16:13:44.000Z</time>
</trkpt>
<trkpt lat="56.804990" lon="8.242403">
<ele>-5.409098</ele>
<time>2026-07-13T16:13:45.000Z</time>
</trkpt>
<trkpt lat="56.805030" lon="8.242446">
<ele>-5.386674</ele>
<time>2026-07-13T16:13:46.000Z</time>
</trkpt>
<trkpt lat="56.805070" lon="8.242488">
<ele>-5.364382</ele>
<time>2026-07-13T16:13:47.000Z</time>
</trkpt>
<trkpt lat="56.805109" lon="8.242529">
<ele>-5.342641</ele>
<time>2026-07-13T16:13:48.000Z</time>
</trkpt>
<trkpt lat="56.805148" lon="8.242569">
<ele>-5.321031</ele>
<time>2026-07-13T16:13:49.000Z</time>
</trkpt>
<trkpt lat="56.805190" lon="8.242607">
<ele>-5.298386</ele>
<time>2026-07-13T16:13:50.000Z</time>
</trkpt>
<trkpt lat="56.805230" lon="8.242646">
<ele>-5.276479</ele>
<time>2026-07-13T16:13:51.000Z</time>
</trkpt>
<trkpt lat="56.805269" lon="8.242683">
<ele>-5.255246</ele>
<time>2026-07-13T16:13:52.000Z</time>
</trkpt>
<trkpt lat="56.805310" lon="8.242718">
<ele>-5.233380</ele>
<time>2026-07-13T16:13:53.000Z</time>
</trkpt>
<trkpt lat="56.805349" lon="8.242753">
<ele>-5.212386</ele>
<time>2026-07-13T16:13:54.000Z</time>
</trkpt>
<trkpt lat="56.805389" lon="8.242787">
<ele>-5.191070</ele>
<time>2026-07-13T16:13:55.000Z</time>
</trkpt>
<trkpt lat="56.805428" lon="8.242821">
<ele>-5.170191</ele>
<time>2026-07-13T16:13:56.000Z</time>
</trkpt>
<trkpt lat="56.805466" lon="8.242854">
<ele>-5.149862</ele>
<time>2026-07-13T16:13:57.000Z</time>
</trkpt>
<trkpt lat="56.805508" lon="8.242889">
<ele>-5.127558</ele>
<time>2026-07-13T16:13:58.000Z</time>
</trkpt>
<trkpt lat="56.805547" lon="8.242925">
<ele>-5.106446</ele>
<time>2026-07-13T16:13:59.000Z</time>
</trkpt>
<trkpt lat="56.805589" lon="8.242961">
<ele>-5.084030</ele>
<time>2026-07-13T16:14:00.000Z</time>
</trkpt>
<trkpt lat="56.805627" lon="8.242992">
<ele>-5.063923</ele>
<time>2026-07-13T16:14:01.000Z</time>
</trkpt>
<trkpt lat="56.805670" lon="8.243023">
<ele>-5.041588</ele>
<time>2026-07-13T16:14:02.000Z</time>
</trkpt>
<trkpt lat="56.805712" lon="8.243055">
<ele>-5.019601</ele>
<time>2026-07-13T16:14:03.000Z</time>
</trkpt>
<trkpt lat="56.805754" lon="8.243091">
<ele>-4.997186</ele>
<time>2026-07-13T16:14:04.000Z</time>
</trkpt>
<trkpt lat="56.805793" lon="8.243131">
<ele>-4.975575</ele>
<time>2026-07-13T16:14:05.000Z</time>
</trkpt>
<trkpt lat="56.805832" lon="8.243172">
<ele>-4.953835</ele>
<time>2026-07-13T16:14:06.000Z</time>
</trkpt>
<trkpt lat="56.805871" lon="8.243216">
<ele>-4.931687</ele>
<time>2026-07-13T16:14:07.000Z</time>
</trkpt>
<trkpt lat="56.805911" lon="8.243263">
<ele>-4.908708</ele>
<time>2026-07-13T16:14:08.000Z</time>
</trkpt>
<trkpt lat="56.805945" lon="8.243313">
<ele>-4.887619</ele>
<time>2026-07-13T16:14:09.000Z</time>
</trkpt>
<trkpt lat="56.805984" lon="8.243370">
<ele>-4.863486</ele>
<time>2026-07-13T16:14:10.000Z</time>
</trkpt>
<trkpt lat="56.806017" lon="8.243428">
<ele>-4.841360</ele>
<time>2026-07-13T16:14:11.000Z</time>
</trkpt>
<trkpt lat="56.806052" lon="8.243493">
<ele>-4.817245</ele>
<time>2026-07-13T16:14:12.000Z</time>
</trkpt>
<trkpt lat="56.806082" lon="8.243557">
<ele>-4.794959</ele>
<time>2026-07-13T16:14:13.000Z</time>
</trkpt>
<trkpt lat="56.806111" lon="8.243626">
<ele>-4.771949</ele>
<time>2026-07-13T16:14:14.000Z</time>
</trkpt>
<trkpt lat="56.806138" lon="8.243698">
<ele>-4.761690</ele>
<time>2026-07-13T16:14:15.000Z</time>
</trkpt>
<trkpt lat="56.806166" lon="8.243772">
<ele>-4.779278</ele>
<time>2026-07-13T16:14:16.000Z</time>
</trkpt>
<trkpt lat="56.806195" lon="8.243845">
<ele>-4.796913</ele>
<time>2026-07-13T16:14:17.000Z</time>
</trkpt>
<trkpt lat="56.806221" lon="8.243918">
<ele>-4.813940</ele>
<time>2026-07-13T16:14:18.000Z</time>
</trkpt>
<trkpt lat="56.806244" lon="8.243993">
<ele>-4.830748</ele>
<time>2026-07-13T16:14:19.000Z</time>
</trkpt>
<trkpt lat="56.806267" lon="8.244070">
<ele>-4.847898</ele>
<time>2026-07-13T16:14:20.000Z</time>
</trkpt>
<trkpt lat="56.806289" lon="8.244146">
<ele>-4.864707</ele>
<time>2026-07-13T16:14:21.000Z</time>
</trkpt>
<trkpt lat="56.806314" lon="8.244222">
<ele>-4.882043</ele>
<time>2026-07-13T16:14:22.000Z</time>
</trkpt>
<trkpt lat="56.806339" lon="8.244295">
<ele>-4.898878</ele>
<time>2026-07-13T16:14:23.000Z</time>
</trkpt>
<trkpt lat="56.806362" lon="8.244368">
<ele>-4.915346</ele>
<time>2026-07-13T16:14:24.000Z</time>
</trkpt>
<trkpt lat="56.806384" lon="8.244440">
<ele>-4.931467</ele>
<time>2026-07-13T16:14:25.000Z</time>
</trkpt>
<trkpt lat="56.806408" lon="8.244515">
<ele>-4.948452</ele>
<time>2026-07-13T16:14:26.000Z</time>
</trkpt>
<trkpt lat="56.806431" lon="8.244589">
<ele>-4.965090</ele>
<time>2026-07-13T16:14:27.000Z</time>
</trkpt>
<trkpt lat="56.806452" lon="8.244662">
<ele>-4.981213</ele>
<time>2026-07-13T16:14:28.000Z</time>
</trkpt>
<trkpt lat="56.806473" lon="8.244733">
<ele>-4.996991</ele>
<time>2026-07-13T16:14:29.000Z</time>
</trkpt>
<trkpt lat="56.806495" lon="8.244804">
<ele>-5.012942</ele>
<time>2026-07-13T16:14:30.000Z</time>
</trkpt>
<trkpt lat="56.806516" lon="8.244873">
<ele>-5.028378</ele>
<time>2026-07-13T16:14:31.000Z</time>
</trkpt>
<trkpt lat="56.806538" lon="8.244946">
<ele>-5.044670</ele>
<time>2026-07-13T16:14:32.000Z</time>
</trkpt>
<trkpt lat="56.806562" lon="8.245020">
<ele>-5.061487</ele>
<time>2026-07-13T16:14:33.000Z</time>
</trkpt>
<trkpt lat="56.806583" lon="8.245095">
<ele>-5.077957</ele>
<time>2026-07-13T16:14:34.000Z</time>
</trkpt>
<trkpt lat="56.806606" lon="8.245169">
<ele>-5.094595</ele>
<time>2026-07-13T16:14:35.000Z</time>
</trkpt>
<trkpt lat="56.806628" lon="8.245238">
<ele>-5.110207</ele>
<time>2026-07-13T16:14:36.000Z</time>
</trkpt>
<trkpt lat="56.806650" lon="8.245310">
<ele>-5.126328</ele>
<time>2026-07-13T16:14:37.000Z</time>
</trkpt>
<trkpt lat="56.806668" lon="8.245375">
<ele>-5.140570</ele>
<time>2026-07-13T16:14:38.000Z</time>
</trkpt>
<trkpt lat="56.806693" lon="8.245457">
<ele>-5.158921</ele>
<time>2026-07-13T16:14:39.000Z</time>
</trkpt>
<trkpt lat="56.806714" lon="8.245528">
<ele>-5.174699</ele>
<time>2026-07-13T16:14:40.000Z</time>
</trkpt>
<trkpt lat="56.806736" lon="8.245597">
<ele>-5.190311</ele>
<time>2026-07-13T16:14:41.000Z</time>
</trkpt>
<trkpt lat="56.806759" lon="8.245665">
<ele>-5.205939</ele>
<time>2026-07-13T16:14:42.000Z</time>
</trkpt>
<trkpt lat="56.806780" lon="8.245734">
<ele>-5.221374</ele>
<time>2026-07-13T16:14:43.000Z</time>
</trkpt>
<trkpt lat="56.806800" lon="8.245804">
<ele>-5.236812</ele>
<time>2026-07-13T16:14:44.000Z</time>
</trkpt>
<trkpt lat="56.806823" lon="8.245874">
<ele>-5.252774</ele>
<time>2026-07-13T16:14:45.000Z</time>
</trkpt>
<trkpt lat="56.806846" lon="8.245943">
<ele>-5.268568</ele>
<time>2026-07-13T16:14:46.000Z</time>
</trkpt>
<trkpt lat="56.806869" lon="8.246014">
<ele>-5.284698</ele>
<time>2026-07-13T16:14:47.000Z</time>
</trkpt>
<trkpt lat="56.806891" lon="8.246084">
<ele>-5.300479</ele>
<time>2026-07-13T16:14:48.000Z</time>
</trkpt>
<trkpt lat="56.806910" lon="8.246152">
<ele>-5.315406</ele>
<time>2026-07-13T16:14:49.000Z</time>
</trkpt>
<trkpt lat="56.806933" lon="8.246217">
<ele>-5.330538</ele>
<time>2026-07-13T16:14:50.000Z</time>
</trkpt>
<trkpt lat="56.806961" lon="8.246291">
<ele>-5.348125</ele>
<time>2026-07-13T16:14:51.000Z</time>
</trkpt>
<trkpt lat="56.806983" lon="8.246359">
<ele>-5.363568</ele>
<time>2026-07-13T16:14:52.000Z</time>
</trkpt>
<trkpt lat="56.807005" lon="8.246430">
<ele>-5.379519</ele>
<time>2026-07-13T16:14:53.000Z</time>
</trkpt>
<trkpt lat="56.807025" lon="8.246495">
<ele>-5.394098</ele>
<time>2026-07-13T16:14:54.000Z</time>
</trkpt>
<trkpt lat="56.807047" lon="8.246560">
<ele>-5.397594</ele>
<time>2026-07-13T16:14:55.000Z</time>
</trkpt>
<trkpt lat="56.807066" lon="8.246619">
<ele>-5.396314</ele>
<time>2026-07-13T16:14:56.000Z</time>
</trkpt>
<trkpt lat="56.807090" lon="8.246684">
<ele>-5.394848</ele>
<time>2026-07-13T16:14:57.000Z</time>
</trkpt>
<trkpt lat="56.807112" lon="8.246743">
<ele>-5.393513</ele>
<time>2026-07-13T16:14:58.000Z</time>
</trkpt>
<trkpt lat="56.807131" lon="8.246800">
<ele>-5.392265</ele>
<time>2026-07-13T16:14:59.000Z</time>
</trkpt>
<trkpt lat="56.807151" lon="8.246853">
<ele>-5.391062</ele>
<time>2026-07-13T16:15:00.000Z</time>
</trkpt>
<trkpt lat="56.807179" lon="8.246926">
<ele>-5.389395</ele>
<time>2026-07-13T16:15:01.000Z</time>
</trkpt>
<trkpt lat="56.807201" lon="8.246986">
<ele>-5.388045</ele>
<time>2026-07-13T16:15:02.000Z</time>
</trkpt>
<trkpt lat="56.807224" lon="8.247047">
<ele>-5.386660</ele>
<time>2026-07-13T16:15:03.000Z</time>
</trkpt>
<trkpt lat="56.807246" lon="8.247112">
<ele>-5.385231</ele>
<time>2026-07-13T16:15:04.000Z</time>
</trkpt>
<trkpt lat="56.807266" lon="8.247178">
<ele>-5.383821</ele>
<time>2026-07-13T16:15:05.000Z</time>
</trkpt>
<trkpt lat="56.807287" lon="8.247244">
<ele>-5.382393</ele>
<time>2026-07-13T16:15:06.000Z</time>
</trkpt>
<trkpt lat="56.807308" lon="8.247311">
<ele>-5.380950</ele>
<time>2026-07-13T16:15:07.000Z</time>
</trkpt>
<trkpt lat="56.807329" lon="8.247377">
<ele>-5.379522</ele>
<time>2026-07-13T16:15:08.000Z</time>
</trkpt>
<trkpt lat="56.807349" lon="8.247445">
<ele>-5.378079</ele>
<time>2026-07-13T16:15:09.000Z</time>
</trkpt>
<trkpt lat="56.807367" lon="8.247512">
<ele>-5.376684</ele>
<time>2026-07-13T16:15:10.000Z</time>
</trkpt>
<trkpt lat="56.807387" lon="8.247581">
<ele>-5.375224</ele>
<time>2026-07-13T16:15:11.000Z</time>
</trkpt>
<trkpt lat="56.807405" lon="8.247648">
<ele>-5.373828</ele>
<time>2026-07-13T16:15:12.000Z</time>
</trkpt>
<trkpt lat="56.807420" lon="8.247714">
<ele>-5.372492</ele>
<time>2026-07-13T16:15:13.000Z</time>
</trkpt>
<trkpt lat="56.807434" lon="8.247778">
<ele>-5.371203</ele>
<time>2026-07-13T16:15:14.000Z</time>
</trkpt>
<trkpt lat="56.807445" lon="8.247846">
<ele>-5.369878</ele>
<time>2026-07-13T16:15:15.000Z</time>
</trkpt>
<trkpt lat="56.807457" lon="8.247915">
<ele>-5.368524</ele>
<time>2026-07-13T16:15:16.000Z</time>
</trkpt>
<trkpt lat="56.807467" lon="8.247986">
<ele>-5.367153</ele>
<time>2026-07-13T16:15:17.000Z</time>
</trkpt>
<trkpt lat="56.807475" lon="8.248058">
<ele>-5.365780</ele>
<time>2026-07-13T16:15:18.000Z</time>
</trkpt>
<trkpt lat="56.807482" lon="8.248130">
<ele>-5.364412</ele>
<time>2026-07-13T16:15:19.000Z</time>
</trkpt>
<trkpt lat="56.807490" lon="8.248202">
<ele>-5.363039</ele>
<time>2026-07-13T16:15:20.000Z</time>
</trkpt>
<trkpt lat="56.807497" lon="8.248276">
<ele>-5.361634</ele>
<time>2026-07-13T16:15:21.000Z</time>
</trkpt>
<trkpt lat="56.807504" lon="8.248350">
<ele>-5.360230</ele>
<time>2026-07-13T16:15:22.000Z</time>
</trkpt>
<trkpt lat="56.807507" lon="8.248427">
<ele>-5.358787</ele>
<time>2026-07-13T16:15:23.000Z</time>
</trkpt>
<trkpt lat="56.807507" lon="8.248501">
<ele>-5.357403</ele>
<time>2026-07-13T16:15:24.000Z</time>
</trkpt>
<trkpt lat="56.807507" lon="8.248574">
<ele>-5.356038</ele>
<time>2026-07-13T16:15:25.000Z</time>
</trkpt>
<trkpt lat="56.807508" lon="8.248644">
<ele>-5.354729</ele>
<time>2026-07-13T16:15:26.000Z</time>
</trkpt>
<trkpt lat="56.807510" lon="8.248716">
<ele>-5.353381</ele>
<time>2026-07-13T16:15:27.000Z</time>
</trkpt>
<trkpt lat="56.807511" lon="8.248782">
<ele>-5.352147</ele>
<time>2026-07-13T16:15:28.000Z</time>
</trkpt>
<trkpt lat="56.807517" lon="8.248856">
<ele>-5.350748</ele>
<time>2026-07-13T16:15:29.000Z</time>
</trkpt>
<trkpt lat="56.807523" lon="8.248923">
<ele>-5.349478</ele>
<time>2026-07-13T16:15:30.000Z</time>
</trkpt>
<trkpt lat="56.807528" lon="8.248994">
<ele>-5.348140</ele>
<time>2026-07-13T16:15:31.000Z</time>
</trkpt>
<trkpt lat="56.807536" lon="8.249062">
<ele>-5.346840</ele>
<time>2026-07-13T16:15:32.000Z</time>
</trkpt>
<trkpt lat="56.807543" lon="8.249129">
<ele>-5.345564</ele>
<time>2026-07-13T16:15:33.000Z</time>
</trkpt>
<trkpt lat="56.807552" lon="8.249196">
<ele>-5.344274</ele>
<time>2026-07-13T16:15:34.000Z</time>
</trkpt>
<trkpt lat="56.807564" lon="8.249265">
<ele>-5.342921</ele>
<time>2026-07-13T16:15:35.000Z</time>
</trkpt>
<trkpt lat="56.807575" lon="8.249332">
<ele>-5.341613</ele>
<time>2026-07-13T16:15:36.000Z</time>
</trkpt>
<trkpt lat="56.807588" lon="8.249402">
<ele>-5.340231</ele>
<time>2026-07-13T16:15:37.000Z</time>
</trkpt>
<trkpt lat="56.807603" lon="8.249475">
<ele>-5.338773</ele>
<time>2026-07-13T16:15:38.000Z</time>
</trkpt>
<trkpt lat="56.807618" lon="8.249551">
<ele>-5.337262</ele>
<time>2026-07-13T16:15:39.000Z</time>
</trkpt>
<trkpt lat="56.807633" lon="8.249623">
<ele>-5.342287</ele>
<time>2026-07-13T16:15:40.000Z</time>
</trkpt>
<trkpt lat="56.807650" lon="8.249696">
<ele>-5.347959</ele>
<time>2026-07-13T16:15:41.000Z</time>
</trkpt>
<trkpt lat="56.807667" lon="8.249767">
<ele>-5.353500</ele>
<time>2026-07-13T16:15:42.000Z</time>
</trkpt>
<trkpt lat="56.807685" lon="8.249837">
<ele>-5.359030</ele>
<time>2026-07-13T16:15:43.000Z</time>
</trkpt>
<trkpt lat="56.807705" lon="8.249905">
<ele>-5.364549</ele>
<time>2026-07-13T16:15:44.000Z</time>
</trkpt>
<trkpt lat="56.807723" lon="8.249981">
<ele>-5.370470</ele>
<time>2026-07-13T16:15:45.000Z</time>
</trkpt>
<trkpt lat="56.807742" lon="8.250051">
<ele>-5.376057</ele>
<time>2026-07-13T16:15:46.000Z</time>
</trkpt>
<trkpt lat="56.807759" lon="8.250122">
<ele>-5.381597</ele>
<time>2026-07-13T16:15:47.000Z</time>
</trkpt>
<trkpt lat="56.807776" lon="8.250193">
<ele>-5.387138</ele>
<time>2026-07-13T16:15:48.000Z</time>
</trkpt>
<trkpt lat="56.807795" lon="8.250264">
<ele>-5.392789</ele>
<time>2026-07-13T16:15:49.000Z</time>
</trkpt>
<trkpt lat="56.807813" lon="8.250337">
<ele>-5.398514</ele>
<time>2026-07-13T16:15:50.000Z</time>
</trkpt>
<trkpt lat="56.807829" lon="8.250409">
<ele>-5.404070</ele>
<time>2026-07-13T16:15:51.000Z</time>
</trkpt>
<trkpt lat="56.807846" lon="8.250475">
<ele>-5.409285</ele>
<time>2026-07-13T16:15:52.000Z</time>
</trkpt>
<trkpt lat="56.807866" lon="8.250549">
<ele>-5.415186</ele>
<time>2026-07-13T16:15:53.000Z</time>
</trkpt>
<trkpt lat="56.807880" lon="8.250611">
<ele>-5.419981</ele>
<time>2026-07-13T16:15:54.000Z</time>
</trkpt>
<trkpt lat="56.807902" lon="8.250687">
<ele>-5.426128</ele>
<time>2026-07-13T16:15:55.000Z</time>
</trkpt>
<trkpt lat="56.807919" lon="8.250753">
<ele>-5.431344</ele>
<time>2026-07-13T16:15:56.000Z</time>
</trkpt>
<trkpt lat="56.807935" lon="8.250824">
<ele>-5.436833</ele>
<time>2026-07-13T16:15:57.000Z</time>
</trkpt>
<trkpt lat="56.807951" lon="8.250890">
<ele>-5.441995</ele>
<time>2026-07-13T16:15:58.000Z</time>
</trkpt>
<trkpt lat="56.807969" lon="8.250960">
<ele>-5.447524</ele>
<time>2026-07-13T16:15:59.000Z</time>
</trkpt>
<trkpt lat="56.807984" lon="8.251028">
<ele>-5.452766</ele>
<time>2026-07-13T16:16:00.000Z</time>
</trkpt>
<trkpt lat="56.808001" lon="8.251096">
<ele>-5.458111</ele>
<time>2026-07-13T16:16:01.000Z</time>
</trkpt>
<trkpt lat="56.808018" lon="8.251161">
<ele>-5.463262</ele>
<time>2026-07-13T16:16:02.000Z</time>
</trkpt>
<trkpt lat="56.808035" lon="8.251232">
<ele>-5.468803</ele>
<time>2026-07-13T16:16:03.000Z</time>
</trkpt>
<trkpt lat="56.808053" lon="8.251300">
<ele>-5.474203</ele>
<time>2026-07-13T16:16:04.000Z</time>
</trkpt>
<trkpt lat="56.808068" lon="8.251369">
<ele>-5.479512</ele>
<time>2026-07-13T16:16:05.000Z</time>
</trkpt>
<trkpt lat="56.808085" lon="8.251435">
<ele>-5.484727</ele>
<time>2026-07-13T16:16:06.000Z</time>
</trkpt>
<trkpt lat="56.808103" lon="8.251501">
<ele>-5.489999</ele>
<time>2026-07-13T16:16:07.000Z</time>
</trkpt>
<trkpt lat="56.808118" lon="8.251566">
<ele>-5.495043</ele>
<time>2026-07-13T16:16:08.000Z</time>
</trkpt>
<trkpt lat="56.808133" lon="8.251635">
<ele>-5.500351</ele>
<time>2026-07-13T16:16:09.000Z</time>
</trkpt>
<trkpt lat="56.808147" lon="8.251701">
<ele>-5.505412</ele>
<time>2026-07-13T16:16:10.000Z</time>
</trkpt>
<trkpt lat="56.808160" lon="8.251768">
<ele>-5.510495</ele>
<time>2026-07-13T16:16:11.000Z</time>
</trkpt>
<trkpt lat="56.808175" lon="8.251833">
<ele>-5.515538</ele>
<time>2026-07-13T16:16:12.000Z</time>
</trkpt>
<trkpt lat="56.808190" lon="8.251898">
<ele>-5.520582</ele>
<time>2026-07-13T16:16:13.000Z</time>
</trkpt>
<trkpt lat="56.808205" lon="8.251961">
<ele>-5.525494</ele>
<time>2026-07-13T16:16:14.000Z</time>
</trkpt>
<trkpt lat="56.808221" lon="8.252027">
<ele>-5.530655</ele>
<time>2026-07-13T16:16:15.000Z</time>
</trkpt>
<trkpt lat="56.808236" lon="8.252090">
<ele>-5.535567</ele>
<time>2026-07-13T16:16:16.000Z</time>
</trkpt>
<trkpt lat="56.808251" lon="8.252150">
<ele>-5.540283</ele>
<time>2026-07-13T16:16:17.000Z</time>
</trkpt>
<trkpt lat="56.808265" lon="8.252206">
<ele>-5.544685</ele>
<time>2026-07-13T16:16:18.000Z</time>
</trkpt>
<trkpt lat="56.808282" lon="8.252273">
<ele>-5.549965</ele>
<time>2026-07-13T16:16:19.000Z</time>
</trkpt>
<trkpt lat="56.808296" lon="8.252331">
<ele>-5.554498</ele>
<time>2026-07-13T16:16:20.000Z</time>
</trkpt>
<trkpt lat="56.808312" lon="8.252397">
<ele>-5.559659</ele>
<time>2026-07-13T16:16:21.000Z</time>
</trkpt>
<trkpt lat="56.808324" lon="8.252449">
<ele>-5.563693</ele>
<time>2026-07-13T16:16:22.000Z</time>
</trkpt>
<trkpt lat="56.808343" lon="8.252529">
<ele>-5.569929</ele>
<time>2026-07-13T16:16:23.000Z</time>
</trkpt>
<trkpt lat="56.808359" lon="8.252597">
<ele>-5.562920</ele>
<time>2026-07-13T16:16:24.000Z</time>
</trkpt>
<trkpt lat="56.808377" lon="8.252666">
<ele>-5.546983</ele>
<time>2026-07-13T16:16:25.000Z</time>
</trkpt>
<trkpt lat="56.808393" lon="8.252735">
<ele>-5.531358</ele>
<time>2026-07-13T16:16:26.000Z</time>
</trkpt>
<trkpt lat="56.808412" lon="8.252810">
<ele>-5.514127</ele>
<time>2026-07-13T16:16:27.000Z</time>
</trkpt>
<trkpt lat="56.808428" lon="8.252880">
<ele>-5.498310</ele>
<time>2026-07-13T16:16:28.000Z</time>
</trkpt>
<trkpt lat="56.808447" lon="8.252951">
<ele>-5.481832</ele>
<time>2026-07-13T16:16:29.000Z</time>
</trkpt>
<trkpt lat="56.808467" lon="8.253021">
<ele>-5.465368</ele>
<time>2026-07-13T16:16:30.000Z</time>
</trkpt>
<trkpt lat="56.808490" lon="8.253094">
<ele>-5.447806</ele>
<time>2026-07-13T16:16:31.000Z</time>
</trkpt>
<trkpt lat="56.808512" lon="8.253167">
<ele>-5.430431</ele>
<time>2026-07-13T16:16:32.000Z</time>
</trkpt>
<trkpt lat="56.808531" lon="8.253242">
<ele>-5.413200</ele>
<time>2026-07-13T16:16:33.000Z</time>
</trkpt>
<trkpt lat="56.808550" lon="8.253315">
<ele>-5.396346</ele>
<time>2026-07-13T16:16:34.000Z</time>
</trkpt>
<trkpt lat="56.808568" lon="8.253387">
<ele>-5.379842</ele>
<time>2026-07-13T16:16:35.000Z</time>
</trkpt>
<trkpt lat="56.808583" lon="8.253458">
<ele>-5.363974</ele>
<time>2026-07-13T16:16:36.000Z</time>
</trkpt>
<trkpt lat="56.808600" lon="8.253532">
<ele>-5.347241</ele>
<time>2026-07-13T16:16:37.000Z</time>
</trkpt>
<trkpt lat="56.808617" lon="8.253605">
<ele>-5.330700</ele>
<time>2026-07-13T16:16:38.000Z</time>
</trkpt>
<trkpt lat="56.808633" lon="8.253681">
<ele>-5.313722</ele>
<time>2026-07-13T16:16:39.000Z</time>
</trkpt>
<trkpt lat="56.808649" lon="8.253753">
<ele>-5.297520</ele>
<time>2026-07-13T16:16:40.000Z</time>
</trkpt>
<trkpt lat="56.808668" lon="8.253826">
<ele>-5.280666</ele>
<time>2026-07-13T16:16:41.000Z</time>
</trkpt>
<trkpt lat="56.808686" lon="8.253897">
<ele>-5.264352</ele>
<time>2026-07-13T16:16:42.000Z</time>
</trkpt>
<trkpt lat="56.808702" lon="8.253970">
<ele>-5.247956</ele>
<time>2026-07-13T16:16:43.000Z</time>
</trkpt>
<trkpt lat="56.808717" lon="8.254042">
<ele>-5.231893</ele>
<time>2026-07-13T16:16:44.000Z</time>
</trkpt>
<trkpt lat="56.808732" lon="8.254115">
<ele>-5.215636</ele>
<time>2026-07-13T16:16:45.000Z</time>
</trkpt>
<trkpt lat="56.808746" lon="8.254185">
<ele>-5.200097</ele>
<time>2026-07-13T16:16:46.000Z</time>
</trkpt>
<trkpt lat="56.808761" lon="8.254256">
<ele>-5.184229</ele>
<time>2026-07-13T16:16:47.000Z</time>
</trkpt>
<trkpt lat="56.808770" lon="8.254312">
<ele>-5.172059</ele>
<time>2026-07-13T16:16:48.000Z</time>
</trkpt>
<trkpt lat="56.808788" lon="8.254395">
<ele>-5.153445</ele>
<time>2026-07-13T16:16:49.000Z</time>
</trkpt>
<trkpt lat="56.808801" lon="8.254462">
<ele>-5.138623</ele>
<time>2026-07-13T16:16:50.000Z</time>
</trkpt>
<trkpt lat="56.808816" lon="8.254532">
<ele>-5.122950</ele>
<time>2026-07-13T16:16:51.000Z</time>
</trkpt>
<trkpt lat="56.808830" lon="8.254599">
<ele>-5.107997</ele>
<time>2026-07-13T16:16:52.000Z</time>
</trkpt>
<trkpt lat="56.808842" lon="8.254667">
<ele>-5.093100</ele>
<time>2026-07-13T16:16:53.000Z</time>
</trkpt>
<trkpt lat="56.808854" lon="8.254732">
<ele>-5.078797</ele>
<time>2026-07-13T16:16:54.000Z</time>
</trkpt>
<trkpt lat="56.808869" lon="8.254798">
<ele>-5.063897</ele>
<time>2026-07-13T16:16:55.000Z</time>
</trkpt>
<trkpt lat="56.808885" lon="8.254862">
<ele>-5.049227</ele>
<time>2026-07-13T16:16:56.000Z</time>
</trkpt>
<trkpt lat="56.808899" lon="8.254928">
<ele>-5.034469</ele>
<time>2026-07-13T16:16:57.000Z</time>
</trkpt>
<trkpt lat="56.808911" lon="8.254996">
<ele>-5.019572</ele>
<time>2026-07-13T16:16:58.000Z</time>
</trkpt>
<trkpt lat="56.808926" lon="8.255063">
<ele>-5.004479</ele>
<time>2026-07-13T16:16:59.000Z</time>
</trkpt>
<trkpt lat="56.808938" lon="8.255130">
<ele>-4.989780</ele>
<time>2026-07-13T16:17:00.000Z</time>
</trkpt>
<trkpt lat="56.808952" lon="8.255198">
<ele>-4.974632</ele>
<time>2026-07-13T16:17:01.000Z</time>
</trkpt>
<trkpt lat="56.808965" lon="8.255264">
<ele>-4.960007</ele>
<time>2026-07-13T16:17:02.000Z</time>
</trkpt>
<trkpt lat="56.808978" lon="8.255327">
<ele>-4.945969</ele>
<time>2026-07-13T16:17:03.000Z</time>
</trkpt>
<trkpt lat="56.808989" lon="8.255387">
<ele>-4.932776</ele>
<time>2026-07-13T16:17:04.000Z</time>
</trkpt>
<trkpt lat="56.809005" lon="8.255457">
<ele>-4.916960</ele>
<time>2026-07-13T16:17:05.000Z</time>
</trkpt>
<trkpt lat="56.809017" lon="8.255526">
<ele>-4.901864</ele>
<time>2026-07-13T16:17:06.000Z</time>
</trkpt>
<trkpt lat="56.809030" lon="8.255591">
<ele>-4.887435</ele>
<time>2026-07-13T16:17:07.000Z</time>
</trkpt>
<trkpt lat="56.809044" lon="8.255654">
<ele>-4.825400</ele>
<time>2026-07-13T16:17:08.000Z</time>
</trkpt>
<trkpt lat="56.809056" lon="8.255716">
<ele>-4.763989</ele>
<time>2026-07-13T16:17:09.000Z</time>
</trkpt>
<trkpt lat="56.809071" lon="8.255778">
<ele>-4.700688</ele>
<time>2026-07-13T16:17:10.000Z</time>
</trkpt>
<trkpt lat="56.809086" lon="8.255837">
<ele>-4.639939</ele>
<time>2026-07-13T16:17:11.000Z</time>
</trkpt>
<trkpt lat="56.809098" lon="8.255887">
<ele>-4.588957</ele>
<time>2026-07-13T16:17:12.000Z</time>
</trkpt>
<trkpt lat="56.809117" lon="8.255962">
<ele>-4.511783</ele>
<time>2026-07-13T16:17:13.000Z</time>
</trkpt>
<trkpt lat="56.809131" lon="8.256020">
<ele>-4.452588</ele>
<time>2026-07-13T16:17:14.000Z</time>
</trkpt>
<trkpt lat="56.809147" lon="8.256083">
<ele>-4.387733</ele>
<time>2026-07-13T16:17:15.000Z</time>
</trkpt>
<trkpt lat="56.809161" lon="8.256138">
<ele>-4.331091</ele>
<time>2026-07-13T16:17:16.000Z</time>
</trkpt>
<trkpt lat="56.809183" lon="8.256203">
<ele>-4.259726</ele>
<time>2026-07-13T16:17:17.000Z</time>
</trkpt>
<trkpt lat="56.809201" lon="8.256259">
<ele>-4.199082</ele>
<time>2026-07-13T16:17:18.000Z</time>
</trkpt>
<trkpt lat="56.809223" lon="8.256324">
<ele>-4.127718</ele>
<time>2026-07-13T16:17:19.000Z</time>
</trkpt>
<trkpt lat="56.809245" lon="8.256385">
<ele>-4.059502</ele>
<time>2026-07-13T16:17:20.000Z</time>
</trkpt>
<trkpt lat="56.809264" lon="8.256446">
<ele>-3.993963</ele>
<time>2026-07-13T16:17:21.000Z</time>
</trkpt>
<trkpt lat="56.809283" lon="8.256505">
<ele>-3.930040</ele>
<time>2026-07-13T16:17:22.000Z</time>
</trkpt>
<trkpt lat="56.809307" lon="8.256565">
<ele>-3.860645</ele>
<time>2026-07-13T16:17:23.000Z</time>
</trkpt>
<trkpt lat="56.809328" lon="8.256624">
<ele>-3.794927</ele>
<time>2026-07-13T16:17:24.000Z</time>
</trkpt>
<trkpt lat="56.809348" lon="8.256684">
<ele>-3.729326</ele>
<time>2026-07-13T16:17:25.000Z</time>
</trkpt>
<trkpt lat="56.809368" lon="8.256742">
<ele>-3.665314</ele>
<time>2026-07-13T16:17:26.000Z</time>
</trkpt>
<trkpt lat="56.809390" lon="8.256797">
<ele>-3.601702</ele>
<time>2026-07-13T16:17:27.000Z</time>
</trkpt>
<trkpt lat="56.809411" lon="8.256854">
<ele>-3.537542</ele>
<time>2026-07-13T16:17:28.000Z</time>
</trkpt>
<trkpt lat="56.809429" lon="8.256913">
<ele>-3.474467</ele>
<time>2026-07-13T16:17:29.000Z</time>
</trkpt>
<trkpt lat="56.809450" lon="8.256971">
<ele>-3.409529</ele>
<time>2026-07-13T16:17:30.000Z</time>
</trkpt>
<trkpt lat="56.809468" lon="8.257032">
<ele>-3.344816</ele>
<time>2026-07-13T16:17:31.000Z</time>
</trkpt>
<trkpt lat="56.809486" lon="8.257090">
<ele>-3.282555</ele>
<time>2026-07-13T16:17:32.000Z</time>
</trkpt>
<trkpt lat="56.809508" lon="8.257150">
<ele>-3.215118</ele>
<time>2026-07-13T16:17:33.000Z</time>
</trkpt>
<trkpt lat="56.809527" lon="8.257210">
<ele>-3.150389</ele>
<time>2026-07-13T16:17:34.000Z</time>
</trkpt>
<trkpt lat="56.809547" lon="8.257271">
<ele>-3.083989</ele>
<time>2026-07-13T16:17:35.000Z</time>
</trkpt>
<trkpt lat="56.809568" lon="8.257330">
<ele>-3.018271</ele>
<time>2026-07-13T16:17:36.000Z</time>
</trkpt>
<trkpt lat="56.809588" lon="8.257391">
<ele>-2.951871</ele>
<time>2026-07-13T16:17:37.000Z</time>
</trkpt>
<trkpt lat="56.809609" lon="8.257446">
<ele>-2.889252</ele>
<time>2026-07-13T16:17:38.000Z</time>
</trkpt>
<trkpt lat="56.809630" lon="8.257514">
<ele>-2.816343</ele>
<time>2026-07-13T16:17:39.000Z</time>
</trkpt>
<trkpt lat="56.809649" lon="8.257574">
<ele>-2.751614</ele>
<time>2026-07-13T16:17:40.000Z</time>
</trkpt>
<trkpt lat="56.809668" lon="8.257635">
<ele>-2.686075</ele>
<time>2026-07-13T16:17:41.000Z</time>
</trkpt>
<trkpt lat="56.809686" lon="8.257691">
<ele>-2.625432</ele>
<time>2026-07-13T16:17:42.000Z</time>
</trkpt>
<trkpt lat="56.809705" lon="8.257750">
<ele>-2.561510</ele>
<time>2026-07-13T16:17:43.000Z</time>
</trkpt>
<trkpt lat="56.809720" lon="8.257803">
<ele>-2.505793</ele>
<time>2026-07-13T16:17:44.000Z</time>
</trkpt>
<trkpt lat="56.809735" lon="8.257851">
<ele>-2.454180</ele>
<time>2026-07-13T16:17:45.000Z</time>
</trkpt>
<trkpt lat="56.809749" lon="8.257895">
<ele>-2.406655</ele>
<time>2026-07-13T16:17:46.000Z</time>
</trkpt>
<trkpt lat="56.809762" lon="8.257934">
<ele>-2.364015</ele>
<time>2026-07-13T16:17:47.000Z</time>
</trkpt>
<trkpt lat="56.809777" lon="8.257966">
<ele>-2.324674</ele>
<time>2026-07-13T16:17:48.000Z</time>
</trkpt>
<trkpt lat="56.809794" lon="8.257984">
<ele>-2.291155</ele>
<time>2026-07-13T16:17:49.000Z</time>
</trkpt>
<trkpt lat="56.809814" lon="8.257989">
<ele>-2.256720</ele>
<time>2026-07-13T16:17:50.000Z</time>
</trkpt>
<trkpt lat="56.809836" lon="8.257984">
<ele>-2.218901</ele>
<time>2026-07-13T16:17:51.000Z</time>
</trkpt>
<trkpt lat="56.809856" lon="8.257971">
<ele>-2.182688</ele>
<time>2026-07-13T16:17:52.000Z</time>
</trkpt>
<trkpt lat="56.809878" lon="8.257954">
<ele>-2.141940</ele>
<time>2026-07-13T16:17:53.000Z</time>
</trkpt>
<trkpt lat="56.809898" lon="8.257931">
<ele>-2.101624</ele>
<time>2026-07-13T16:17:54.000Z</time>
</trkpt>
<trkpt lat="56.809922" lon="8.257907">
<ele>-2.054951</ele>
<time>2026-07-13T16:17:55.000Z</time>
</trkpt>
<trkpt lat="56.809949" lon="8.257887">
<ele>-2.005250</ele>
<time>2026-07-13T16:17:56.000Z</time>
</trkpt>
<trkpt lat="56.809976" lon="8.257869">
<ele>-1.956220</ele>
<time>2026-07-13T16:17:57.000Z</time>
</trkpt>
<trkpt lat="56.810001" lon="8.257858">
<ele>-1.912353</ele>
<time>2026-07-13T16:17:58.000Z</time>
</trkpt>
<trkpt lat="56.810029" lon="8.257852">
<ele>-1.864261</ele>
<time>2026-07-13T16:17:59.000Z</time>
</trkpt>
<trkpt lat="56.810060" lon="8.257846">
<ele>-1.810707</ele>
<time>2026-07-13T16:18:00.000Z</time>
</trkpt>
<trkpt lat="56.810087" lon="8.257839">
<ele>-1.761905</ele>
<time>2026-07-13T16:18:01.000Z</time>
</trkpt>
<trkpt lat="56.810115" lon="8.257834">
<ele>-1.711559</ele>
<time>2026-07-13T16:18:02.000Z</time>
</trkpt>
<trkpt lat="56.810143" lon="8.257828">
<ele>-1.661109</ele>
<time>2026-07-13T16:18:03.000Z</time>
</trkpt>
<trkpt lat="56.810172" lon="8.257821">
<ele>-1.608761</ele>
<time>2026-07-13T16:18:04.000Z</time>
</trkpt>
<trkpt lat="56.810202" lon="8.257814">
<ele>-1.554639</ele>
<time>2026-07-13T16:18:05.000Z</time>
</trkpt>
<trkpt lat="56.810233" lon="8.257805">
<ele>-1.498467</ele>
<time>2026-07-13T16:18:06.000Z</time>
</trkpt>
<trkpt lat="56.810269" lon="8.257795">
<ele>-1.433303</ele>
<time>2026-07-13T16:18:07.000Z</time>
</trkpt>
<trkpt lat="56.810305" lon="8.257784">
<ele>-1.367985</ele>
<time>2026-07-13T16:18:08.000Z</time>
</trkpt>
<trkpt lat="56.810342" lon="8.257773">
<ele>-1.300901</ele>
<time>2026-07-13T16:18:09.000Z</time>
</trkpt>
<trkpt lat="56.810380" lon="8.257765">
<ele>-1.232449</ele>
<time>2026-07-13T16:18:10.000Z</time>
</trkpt>
<trkpt lat="56.810417" lon="8.257758">
<ele>-1.165882</ele>
<time>2026-07-13T16:18:11.000Z</time>
</trkpt>
<trkpt lat="56.810452" lon="8.257753">
<ele>-1.103057</ele>
<time>2026-07-13T16:18:12.000Z</time>
</trkpt>
<trkpt lat="56.810491" lon="8.257746">
<ele>-1.032929</ele>
<time>2026-07-13T16:18:13.000Z</time>
</trkpt>
<trkpt lat="56.810531" lon="8.257738">
<ele>-0.960920</ele>
<time>2026-07-13T16:18:14.000Z</time>
</trkpt>
<trkpt lat="56.810569" lon="8.257729">
<ele>-0.892348</ele>
<time>2026-07-13T16:18:15.000Z</time>
</trkpt>
<trkpt lat="56.810605" lon="8.257722">
<ele>-0.827561</ele>
<time>2026-07-13T16:18:16.000Z</time>
</trkpt>
<trkpt lat="56.810642" lon="8.257715">
<ele>-0.760994</ele>
<time>2026-07-13T16:18:17.000Z</time>
</trkpt>
<trkpt lat="56.810678" lon="8.257707">
<ele>-0.696096</ele>
<time>2026-07-13T16:18:18.000Z</time>
</trkpt>
<trkpt lat="56.810717" lon="8.257699">
<ele>-0.625865</ele>
<time>2026-07-13T16:18:19.000Z</time>
</trkpt>
<trkpt lat="56.810757" lon="8.257691">
<ele>-0.553856</ele>
<time>2026-07-13T16:18:20.000Z</time>
</trkpt>
<trkpt lat="56.810793" lon="8.257683">
<ele>-0.488958</ele>
<time>2026-07-13T16:18:21.000Z</time>
</trkpt>
<trkpt lat="56.810825" lon="8.257679">
<ele>-0.431559</ele>
<time>2026-07-13T16:18:22.000Z</time>
</trkpt>
<trkpt lat="56.810866" lon="8.257676">
<ele>-0.358129</ele>
<time>2026-07-13T16:18:23.000Z</time>
</trkpt>
<trkpt lat="56.810899" lon="8.257673">
<ele>-0.299001</ele>
<time>2026-07-13T16:18:24.000Z</time>
</trkpt>
<trkpt lat="56.810939" lon="8.257672">
<ele>-0.227413</ele>
<time>2026-07-13T16:18:25.000Z</time>
</trkpt>
<trkpt lat="56.810974" lon="8.257675">
<ele>-0.164710</ele>
<time>2026-07-13T16:18:26.000Z</time>
</trkpt>
<trkpt lat="56.811013" lon="8.257684">
<ele>-0.094364</ele>
<time>2026-07-13T16:18:27.000Z</time>
</trkpt>
<trkpt lat="56.811050" lon="8.257695">
<ele>-0.027280</ele>
<time>2026-07-13T16:18:28.000Z</time>
</trkpt>
<trkpt lat="56.811090" lon="8.257708">
<ele>0.045425</ele>
<time>2026-07-13T16:18:29.000Z</time>
</trkpt>
<trkpt lat="56.811132" lon="8.257721">
<ele>0.121657</ele>
<time>2026-07-13T16:18:30.000Z</time>
</trkpt>
<trkpt lat="56.811173" lon="8.257732">
<ele>0.195815</ele>
<time>2026-07-13T16:18:31.000Z</time>
</trkpt>
<trkpt lat="56.811211" lon="8.257744">
<ele>0.264826</ele>
<time>2026-07-13T16:18:32.000Z</time>
</trkpt>
<trkpt lat="56.811249" lon="8.257755">
<ele>0.333677</ele>
<time>2026-07-13T16:18:33.000Z</time>
</trkpt>
<trkpt lat="56.811287" lon="8.257767">
<ele>0.402688</ele>
<time>2026-07-13T16:18:34.000Z</time>
</trkpt>
<trkpt lat="56.811326" lon="8.257781">
<ele>0.473814</ele>
<time>2026-07-13T16:18:35.000Z</time>
</trkpt>
<trkpt lat="56.811364" lon="8.257796">
<ele>0.543386</ele>
<time>2026-07-13T16:18:36.000Z</time>
</trkpt>
<trkpt lat="56.811402" lon="8.257808">
<ele>0.612397</ele>
<time>2026-07-13T16:18:37.000Z</time>
</trkpt>
<trkpt lat="56.811438" lon="8.257820">
<ele>0.677884</ele>
<time>2026-07-13T16:18:38.000Z</time>
</trkpt>
<trkpt lat="56.811475" lon="8.257833">
<ele>0.745310</ele>
<time>2026-07-13T16:18:39.000Z</time>
</trkpt>
<trkpt lat="56.811512" lon="8.257846">
<ele>0.812737</ele>
<time>2026-07-13T16:18:40.000Z</time>
</trkpt>
<trkpt lat="56.811551" lon="8.257860">
<ele>0.883863</ele>
<time>2026-07-13T16:18:41.000Z</time>
</trkpt>
<trkpt lat="56.811589" lon="8.257873">
<ele>0.953048</ele>
<time>2026-07-13T16:18:42.000Z</time>
</trkpt>
<trkpt lat="56.811632" lon="8.257886">
<ele>1.031044</ele>
<time>2026-07-13T16:18:43.000Z</time>
</trkpt>
<trkpt lat="56.811672" lon="8.257899">
<ele>1.103750</ele>
<time>2026-07-13T16:18:44.000Z</time>
</trkpt>
<trkpt lat="56.811716" lon="8.257910">
<ele>1.183223</ele>
<time>2026-07-13T16:18:45.000Z</time>
</trkpt>
<trkpt lat="56.811756" lon="8.257920">
<ele>1.255472</ele>
<time>2026-07-13T16:18:46.000Z</time>
</trkpt>
<trkpt lat="56.811793" lon="8.257931">
<ele>1.322556</ele>
<time>2026-07-13T16:18:47.000Z</time>
</trkpt>
<trkpt lat="56.811826" lon="8.257942">
<ele>1.382585</ele>
<time>2026-07-13T16:18:48.000Z</time>
</trkpt>
<trkpt lat="56.811873" lon="8.257954">
<ele>1.434779</ele>
<time>2026-07-13T16:18:49.000Z</time>
</trkpt>
<trkpt lat="56.811913" lon="8.257965">
<ele>1.472083</ele>
<time>2026-07-13T16:18:50.000Z</time>
</trkpt>
<trkpt lat="56.811951" lon="8.257978">
<ele>1.507736</ele>
<time>2026-07-13T16:18:51.000Z</time>
</trkpt>
<trkpt lat="56.811989" lon="8.257991">
<ele>1.543389</ele>
<time>2026-07-13T16:18:52.000Z</time>
</trkpt>
<trkpt lat="56.812027" lon="8.258004">
<ele>1.579043</ele>
<time>2026-07-13T16:18:53.000Z</time>
</trkpt>
<trkpt lat="56.812063" lon="8.258016">
<ele>1.612791</ele>
<time>2026-07-13T16:18:54.000Z</time>
</trkpt>
<trkpt lat="56.812106" lon="8.258026">
<ele>1.652766</ele>
<time>2026-07-13T16:18:55.000Z</time>
</trkpt>
<trkpt lat="56.812147" lon="8.258035">
<ele>1.690849</ele>
<time>2026-07-13T16:18:56.000Z</time>
</trkpt>
<trkpt lat="56.812188" lon="8.258047">
<ele>1.729142</ele>
<time>2026-07-13T16:18:57.000Z</time>
</trkpt>
<trkpt lat="56.812229" lon="8.258059">
<ele>1.767435</ele>
<time>2026-07-13T16:18:58.000Z</time>
</trkpt>
<trkpt lat="56.812277" lon="8.258071">
<ele>1.812114</ele>
<time>2026-07-13T16:18:59.000Z</time>
</trkpt>
<trkpt lat="56.812319" lon="8.258082">
<ele>1.851243</ele>
<time>2026-07-13T16:19:00.000Z</time>
</trkpt>
<trkpt lat="56.812361" lon="8.258092">
<ele>1.890303</ele>
<time>2026-07-13T16:19:01.000Z</time>
</trkpt>
<trkpt lat="56.812401" lon="8.258103">
<ele>1.927607</ele>
<time>2026-07-13T16:19:02.000Z</time>
</trkpt>
<trkpt lat="56.812440" lon="8.258114">
<ele>1.964000</ele>
<time>2026-07-13T16:19:03.000Z</time>
</trkpt>
<trkpt lat="56.812479" lon="8.258124">
<ele>2.000319</ele>
<time>2026-07-13T16:19:04.000Z</time>
</trkpt>
<trkpt lat="56.812519" lon="8.258136">
<ele>2.037702</ele>
<time>2026-07-13T16:19:05.000Z</time>
</trkpt>
<trkpt lat="56.812556" lon="8.258146">
<ele>2.072195</ele>
<time>2026-07-13T16:19:06.000Z</time>
</trkpt>
<trkpt lat="56.812597" lon="8.258156">
<ele>2.110341</ele>
<time>2026-07-13T16:19:07.000Z</time>
</trkpt>
<trkpt lat="56.812637" lon="8.258164">
<ele>2.147450</ele>
<time>2026-07-13T16:19:08.000Z</time>
</trkpt>
<trkpt lat="56.812676" lon="8.258176">
<ele>2.183923</ele>
<time>2026-07-13T16:19:09.000Z</time>
</trkpt>
<trkpt lat="56.812715" lon="8.258188">
<ele>2.220396</ele>
<time>2026-07-13T16:19:10.000Z</time>
</trkpt>
<trkpt lat="56.812761" lon="8.258202">
<ele>2.263403</ele>
<time>2026-07-13T16:19:11.000Z</time>
</trkpt>
<trkpt lat="56.812804" lon="8.258214">
<ele>2.303518</ele>
<time>2026-07-13T16:19:12.000Z</time>
</trkpt>
<trkpt lat="56.812847" lon="8.258225">
<ele>2.343560</ele>
<time>2026-07-13T16:19:13.000Z</time>
</trkpt>
<trkpt lat="56.812883" lon="8.258237">
<ele>2.377308</ele>
<time>2026-07-13T16:19:14.000Z</time>
</trkpt>
<trkpt lat="56.812929" lon="8.258253">
<ele>2.420492</ele>
<time>2026-07-13T16:19:15.000Z</time>
</trkpt>
<trkpt lat="56.812961" lon="8.258261">
<ele>2.450278</ele>
<time>2026-07-13T16:19:16.000Z</time>
</trkpt>
<trkpt lat="56.813012" lon="8.258278">
<ele>2.498087</ele>
<time>2026-07-13T16:19:17.000Z</time>
</trkpt>
<trkpt lat="56.813050" lon="8.258294">
<ele>2.534050</ele>
<time>2026-07-13T16:19:18.000Z</time>
</trkpt>
<trkpt lat="56.813095" lon="8.258310">
<ele>2.576328</ele>
<time>2026-07-13T16:19:19.000Z</time>
</trkpt>
<trkpt lat="56.813141" lon="8.258328">
<ele>2.619712</ele>
<time>2026-07-13T16:19:20.000Z</time>
</trkpt>
<trkpt lat="56.813185" lon="8.258346">
<ele>2.661295</ele>
<time>2026-07-13T16:19:21.000Z</time>
</trkpt>
<trkpt lat="56.813227" lon="8.258366">
<ele>2.701322</ele>
<time>2026-07-13T16:19:22.000Z</time>
</trkpt>
<trkpt lat="56.813269" lon="8.258384">
<ele>2.741106</ele>
<time>2026-07-13T16:19:23.000Z</time>
</trkpt>
<trkpt lat="56.813309" lon="8.258403">
<ele>2.779221</ele>
<time>2026-07-13T16:19:24.000Z</time>
</trkpt>
<trkpt lat="56.813348" lon="8.258423">
<ele>2.816578</ele>
<time>2026-07-13T16:19:25.000Z</time>
</trkpt>
<trkpt lat="56.813385" lon="8.258441">
<ele>2.851889</ele>
<time>2026-07-13T16:19:26.000Z</time>
</trkpt>
<trkpt lat="56.813419" lon="8.258459">
<ele>2.884534</ele>
<time>2026-07-13T16:19:27.000Z</time>
</trkpt>
<trkpt lat="56.813452" lon="8.258477">
<ele>2.916295</ele>
<time>2026-07-13T16:19:28.000Z</time>
</trkpt>
<trkpt lat="56.813489" lon="8.258496">
<ele>2.951739</ele>
<time>2026-07-13T16:19:29.000Z</time>
</trkpt>
<trkpt lat="56.813526" lon="8.258514">
<ele>2.987050</ele>
<time>2026-07-13T16:19:30.000Z</time>
</trkpt>
<trkpt lat="56.813565" lon="8.258533">
<ele>3.024273</ele>
<time>2026-07-13T16:19:31.000Z</time>
</trkpt>
<trkpt lat="56.813601" lon="8.258553">
<ele>3.058847</ele>
<time>2026-07-13T16:19:32.000Z</time>
</trkpt>
<trkpt lat="56.813642" lon="8.258574">
<ele>3.079105</ele>
<time>2026-07-13T16:19:33.000Z</time>
</trkpt>
<trkpt lat="56.813681" lon="8.258589">
<ele>3.098066</ele>
<time>2026-07-13T16:19:34.000Z</time>
</trkpt>
<trkpt lat="56.813726" lon="8.258611">
<ele>3.120228</ele>
<time>2026-07-13T16:19:35.000Z</time>
</trkpt>
<trkpt lat="56.813767" lon="8.258635">
<ele>3.140711</ele>
<time>2026-07-13T16:19:36.000Z</time>
</trkpt>
<trkpt lat="56.813804" lon="8.258658">
<ele>3.159305</ele>
<time>2026-07-13T16:19:37.000Z</time>
</trkpt>
<trkpt lat="56.813837" lon="8.258675">
<ele>3.175617</ele>
<time>2026-07-13T16:19:38.000Z</time>
</trkpt>
<trkpt lat="56.813894" lon="8.258703">
<ele>3.203699</ele>
<time>2026-07-13T16:19:39.000Z</time>
</trkpt>
<trkpt lat="56.813932" lon="8.258721">
<ele>3.222375</ele>
<time>2026-07-13T16:19:40.000Z</time>
</trkpt>
<trkpt lat="56.813960" lon="8.258734">
<ele>3.236120</ele>
<time>2026-07-13T16:19:41.000Z</time>
</trkpt>
<trkpt lat="56.814016" lon="8.258759">
<ele>3.263546</ele>
<time>2026-07-13T16:19:42.000Z</time>
</trkpt>
<trkpt lat="56.814057" lon="8.258777">
<ele>3.283607</ele>
<time>2026-07-13T16:19:43.000Z</time>
</trkpt>
<trkpt lat="56.814100" lon="8.258794">
<ele>3.304538</ele>
<time>2026-07-13T16:19:44.000Z</time>
</trkpt>
<trkpt lat="56.814142" lon="8.258806">
<ele>3.324763</ele>
<time>2026-07-13T16:19:45.000Z</time>
</trkpt>
<trkpt lat="56.814189" lon="8.258816">
<ele>3.347275</ele>
<time>2026-07-13T16:19:46.000Z</time>
</trkpt>
<trkpt lat="56.814232" lon="8.258823">
<ele>3.367813</ele>
<time>2026-07-13T16:19:47.000Z</time>
</trkpt>
<trkpt lat="56.814277" lon="8.258829">
<ele>3.389279</ele>
<time>2026-07-13T16:19:48.000Z</time>
</trkpt>
<trkpt lat="56.814321" lon="8.258830">
<ele>3.410214</ele>
<time>2026-07-13T16:19:49.000Z</time>
</trkpt>
<trkpt lat="56.814364" lon="8.258827">
<ele>3.430687</ele>
<time>2026-07-13T16:19:50.000Z</time>
</trkpt>
<trkpt lat="56.814410" lon="8.258821">
<ele>3.452627</ele>
<time>2026-07-13T16:19:51.000Z</time>
</trkpt>
<trkpt lat="56.814455" lon="8.258817">
<ele>3.474062</ele>
<time>2026-07-13T16:19:52.000Z</time>
</trkpt>
<trkpt lat="56.814500" lon="8.258816">
<ele>3.495472</ele>
<time>2026-07-13T16:19:53.000Z</time>
</trkpt>
<trkpt lat="56.814544" lon="8.258811">
<ele>3.516446</ele>
<time>2026-07-13T16:19:54.000Z</time>
</trkpt>
<trkpt lat="56.814590" lon="8.258808">
<ele>3.538345</ele>
<time>2026-07-13T16:19:55.000Z</time>
</trkpt>
<trkpt lat="56.814633" lon="8.258806">
<ele>3.558809</ele>
<time>2026-07-13T16:19:56.000Z</time>
</trkpt>
<trkpt lat="56.814674" lon="8.258807">
<ele>3.578317</ele>
<time>2026-07-13T16:19:57.000Z</time>
</trkpt>
<trkpt lat="56.814719" lon="8.258809">
<ele>3.599732</ele>
<time>2026-07-13T16:19:58.000Z</time>
</trkpt>
<trkpt lat="56.814765" lon="8.258813">
<ele>3.621642</ele>
<time>2026-07-13T16:19:59.000Z</time>
</trkpt>
<trkpt lat="56.814811" lon="8.258819">
<ele>3.643582</ele>
<time>2026-07-13T16:20:00.000Z</time>
</trkpt>
<trkpt lat="56.814857" lon="8.258825">
<ele>3.665523</ele>
<time>2026-07-13T16:20:01.000Z</time>
</trkpt>
<trkpt lat="56.814901" lon="8.258833">
<ele>3.686560</ele>
<time>2026-07-13T16:20:02.000Z</time>
</trkpt>
<trkpt lat="56.814943" lon="8.258841">
<ele>3.706650</ele>
<time>2026-07-13T16:20:03.000Z</time>
</trkpt>
<trkpt lat="56.814985" lon="8.258850">
<ele>3.726768</ele>
<time>2026-07-13T16:20:04.000Z</time>
</trkpt>
<trkpt lat="56.815026" lon="8.258862">
<ele>3.746523</ele>
<time>2026-07-13T16:20:05.000Z</time>
</trkpt>
<trkpt lat="56.815063" lon="8.258875">
<ele>3.764449</ele>
<time>2026-07-13T16:20:06.000Z</time>
</trkpt>
<trkpt lat="56.815105" lon="8.258896">
<ele>3.785165</ele>
<time>2026-07-13T16:20:07.000Z</time>
</trkpt>
<trkpt lat="56.815137" lon="8.258913">
<ele>3.801020</ele>
<time>2026-07-13T16:20:08.000Z</time>
</trkpt>
<trkpt lat="56.815191" lon="8.258946">
<ele>3.828110</ele>
<time>2026-07-13T16:20:09.000Z</time>
</trkpt>
<trkpt lat="56.815233" lon="8.258978">
<ele>3.849760</ele>
<time>2026-07-13T16:20:10.000Z</time>
</trkpt>
<trkpt lat="56.815275" lon="8.259015">
<ele>3.871943</ele>
<time>2026-07-13T16:20:11.000Z</time>
</trkpt>
<trkpt lat="56.815315" lon="8.259048">
<ele>3.892824</ele>
<time>2026-07-13T16:20:12.000Z</time>
</trkpt>
<trkpt lat="56.815359" lon="8.259078">
<ele>3.914210</ele>
<time>2026-07-13T16:20:13.000Z</time>
</trkpt>
<trkpt lat="56.815400" lon="8.259100">
<ele>3.908240</ele>
<time>2026-07-13T16:20:14.000Z</time>
</trkpt>
<trkpt lat="56.815441" lon="8.259119">
<ele>3.902331</ele>
<time>2026-07-13T16:20:15.000Z</time>
</trkpt>
<trkpt lat="56.815486" lon="8.259134">
<ele>3.895940</ele>
<time>2026-07-13T16:20:16.000Z</time>
</trkpt>
<trkpt lat="56.815532" lon="8.259146">
<ele>3.889448</ele>
<time>2026-07-13T16:20:17.000Z</time>
</trkpt>
<trkpt lat="56.815577" lon="8.259154">
<ele>3.883132</ele>
<time>2026-07-13T16:20:18.000Z</time>
</trkpt>
<trkpt lat="56.815622" lon="8.259161">
<ele>3.876822</ele>
<time>2026-07-13T16:20:19.000Z</time>
</trkpt>
<trkpt lat="56.815669" lon="8.259166">
<ele>3.870244</ele>
<time>2026-07-13T16:20:20.000Z</time>
</trkpt>
<trkpt lat="56.815715" lon="8.259170">
<ele>3.863811</ele>
<time>2026-07-13T16:20:21.000Z</time>
</trkpt>
<trkpt lat="56.815760" lon="8.259172">
<ele>3.857522</ele>
<time>2026-07-13T16:20:22.000Z</time>
</trkpt>
<trkpt lat="56.815803" lon="8.259174">
<ele>3.851512</ele>
<time>2026-07-13T16:20:23.000Z</time>
</trkpt>
<trkpt lat="56.815847" lon="8.259176">
<ele>3.845363</ele>
<time>2026-07-13T16:20:24.000Z</time>
</trkpt>
<trkpt lat="56.815889" lon="8.259179">
<ele>3.839491</ele>
<time>2026-07-13T16:20:25.000Z</time>
</trkpt>
<trkpt lat="56.815934" lon="8.259181">
<ele>3.833202</ele>
<time>2026-07-13T16:20:26.000Z</time>
</trkpt>
<trkpt lat="56.815976" lon="8.259183">
<ele>3.827332</ele>
<time>2026-07-13T16:20:27.000Z</time>
</trkpt>
<trkpt lat="56.816022" lon="8.259185">
<ele>3.820904</ele>
<time>2026-07-13T16:20:28.000Z</time>
</trkpt>
<trkpt lat="56.816061" lon="8.259187">
<ele>3.815453</ele>
<time>2026-07-13T16:20:29.000Z</time>
</trkpt>
<trkpt lat="56.816109" lon="8.259187">
<ele>3.808747</ele>
<time>2026-07-13T16:20:30.000Z</time>
</trkpt>
<trkpt lat="56.816149" lon="8.259190">
<ele>3.803154</ele>
<time>2026-07-13T16:20:31.000Z</time>
</trkpt>
<trkpt lat="56.816180" lon="8.259193">
<ele>3.798817</ele>
<time>2026-07-13T16:20:32.000Z</time>
</trkpt>
<trkpt lat="56.816222" lon="8.259196">
<ele>3.792944</ele>
<time>2026-07-13T16:20:33.000Z</time>
</trkpt>
<trkpt lat="56.816242" lon="8.259198">
<ele>3.790146</ele>
<time>2026-07-13T16:20:34.000Z</time>
</trkpt>
<trkpt lat="56.816281" lon="8.259204">
<ele>3.784678</ele>
<time>2026-07-13T16:20:35.000Z</time>
</trkpt>
<trkpt lat="56.816308" lon="8.259209">
<ele>3.780887</ele>
<time>2026-07-13T16:20:36.000Z</time>
</trkpt>
<trkpt lat="56.816336" lon="8.259216">
<ele>3.776938</ele>
<time>2026-07-13T16:20:37.000Z</time>
</trkpt>
<trkpt lat="56.816366" lon="8.259226">
<ele>3.772678</ele>
<time>2026-07-13T16:20:38.000Z</time>
</trkpt>
<trkpt lat="56.816401" lon="8.259241">
<ele>3.767655</ele>
<time>2026-07-13T16:20:39.000Z</time>
</trkpt>
<trkpt lat="56.816436" lon="8.259258">
<ele>3.762595</ele>
<time>2026-07-13T16:20:40.000Z</time>
</trkpt>
<trkpt lat="56.816474" lon="8.259275">
<ele>3.757130</ele>
<time>2026-07-13T16:20:41.000Z</time>
</trkpt>
<trkpt lat="56.816510" lon="8.259290">
<ele>3.751971</ele>
<time>2026-07-13T16:20:42.000Z</time>
</trkpt>
<trkpt lat="56.816553" lon="8.259309">
<ele>3.745790</ele>
<time>2026-07-13T16:20:43.000Z</time>
</trkpt>
<trkpt lat="56.816595" lon="8.259330">
<ele>3.739707</ele>
<time>2026-07-13T16:20:44.000Z</time>
</trkpt>
<trkpt lat="56.816641" lon="8.259352">
<ele>3.733064</ele>
<time>2026-07-13T16:20:45.000Z</time>
</trkpt>
<trkpt lat="56.816686" lon="8.259374">
<ele>3.726555</ele>
<time>2026-07-13T16:20:46.000Z</time>
</trkpt>
<trkpt lat="56.816734" lon="8.259397">
<ele>3.719623</ele>
<time>2026-07-13T16:20:47.000Z</time>
</trkpt>
<trkpt lat="56.816779" lon="8.259417">
<ele>3.713152</ele>
<time>2026-07-13T16:20:48.000Z</time>
</trkpt>
<trkpt lat="56.816824" lon="8.259435">
<ele>3.706716</ele>
<time>2026-07-13T16:20:49.000Z</time>
</trkpt>
<trkpt lat="56.816864" lon="8.259450">
<ele>3.701012</ele>
<time>2026-07-13T16:20:50.000Z</time>
</trkpt>
<trkpt lat="56.816904" lon="8.259467">
<ele>3.695274</ele>
<time>2026-07-13T16:20:51.000Z</time>
</trkpt>
<trkpt lat="56.816944" lon="8.259483">
<ele>3.689553</ele>
<time>2026-07-13T16:20:52.000Z</time>
</trkpt>
<trkpt lat="56.816984" lon="8.259501">
<ele>3.683798</ele>
<time>2026-07-13T16:20:53.000Z</time>
</trkpt>
<trkpt lat="56.817025" lon="8.259522">
<ele>3.677849</ele>
<time>2026-07-13T16:20:54.000Z</time>
</trkpt>
<trkpt lat="56.817067" lon="8.259545">
<ele>3.671723</ele>
<time>2026-07-13T16:20:55.000Z</time>
</trkpt>
<trkpt lat="56.817107" lon="8.259565">
<ele>3.665929</ele>
<time>2026-07-13T16:20:56.000Z</time>
</trkpt>
<trkpt lat="56.817150" lon="8.259589">
<ele>3.668302</ele>
<time>2026-07-13T16:20:57.000Z</time>
</trkpt>
<trkpt lat="56.817190" lon="8.259614">
<ele>3.677035</ele>
<time>2026-07-13T16:20:58.000Z</time>
</trkpt>
<trkpt lat="56.817242" lon="8.259644">
<ele>3.688299</ele>
<time>2026-07-13T16:20:59.000Z</time>
</trkpt>
<trkpt lat="56.817281" lon="8.259669">
<ele>3.696837</ele>
<time>2026-07-13T16:21:00.000Z</time>
</trkpt>
<trkpt lat="56.817328" lon="8.259696">
<ele>3.707014</ele>
<time>2026-07-13T16:21:01.000Z</time>
</trkpt>
<trkpt lat="56.817371" lon="8.259723">
<ele>3.716407</ele>
<time>2026-07-13T16:21:02.000Z</time>
</trkpt>
<trkpt lat="56.817414" lon="8.259752">
<ele>3.725875</ele>
<time>2026-07-13T16:21:03.000Z</time>
</trkpt>
<trkpt lat="56.817451" lon="8.259781">
<ele>3.734192</ele>
<time>2026-07-13T16:21:04.000Z</time>
</trkpt>
<trkpt lat="56.817490" lon="8.259809">
<ele>3.742848</ele>
<time>2026-07-13T16:21:05.000Z</time>
</trkpt>
<trkpt lat="56.817532" lon="8.259837">
<ele>3.752083</ele>
<time>2026-07-13T16:21:06.000Z</time>
</trkpt>
<trkpt lat="56.817576" lon="8.259866">
<ele>3.761746</ele>
<time>2026-07-13T16:21:07.000Z</time>
</trkpt>
<trkpt lat="56.817617" lon="8.259894">
<ele>3.770787</ele>
<time>2026-07-13T16:21:08.000Z</time>
</trkpt>
<trkpt lat="56.817660" lon="8.259925">
<ele>3.780336</ele>
<time>2026-07-13T16:21:09.000Z</time>
</trkpt>
<trkpt lat="56.817699" lon="8.259956">
<ele>3.789122</ele>
<time>2026-07-13T16:21:10.000Z</time>
</trkpt>
<trkpt lat="56.817736" lon="8.259985">
<ele>3.797439</ele>
<time>2026-07-13T16:21:11.000Z</time>
</trkpt>
<trkpt lat="56.817781" lon="8.260013">
<ele>3.807259</ele>
<time>2026-07-13T16:21:12.000Z</time>
</trkpt>
<trkpt lat="56.817820" lon="8.260036">
<ele>3.815724</ele>
<time>2026-07-13T16:21:13.000Z</time>
</trkpt>
<trkpt lat="56.817855" lon="8.260064">
<ele>3.823617</ele>
<time>2026-07-13T16:21:14.000Z</time>
</trkpt>
<trkpt lat="56.817889" lon="8.260093">
<ele>3.831368</ele>
<time>2026-07-13T16:21:15.000Z</time>
</trkpt>
<trkpt lat="56.817932" lon="8.260125">
<ele>3.840959</ele>
<time>2026-07-13T16:21:16.000Z</time>
</trkpt>
<trkpt lat="56.817970" lon="8.260152">
<ele>3.849381</ele>
<time>2026-07-13T16:21:17.000Z</time>
</trkpt>
<trkpt lat="56.818006" lon="8.260180">
<ele>3.857463</ele>
<time>2026-07-13T16:21:18.000Z</time>
</trkpt>
<trkpt lat="56.818033" lon="8.260200">
<ele>3.863482</ele>
<time>2026-07-13T16:21:19.000Z</time>
</trkpt>
<trkpt lat="56.818078" lon="8.260242">
<ele>3.873920</ele>
<time>2026-07-13T16:21:20.000Z</time>
</trkpt>
<trkpt lat="56.818107" lon="8.260277">
<ele>3.881099</ele>
<time>2026-07-13T16:21:21.000Z</time>
</trkpt>
<trkpt lat="56.818141" lon="8.260317">
<ele>3.889453</ele>
<time>2026-07-13T16:21:22.000Z</time>
</trkpt>
<trkpt lat="56.818174" lon="8.260356">
<ele>3.897571</ele>
<time>2026-07-13T16:21:23.000Z</time>
</trkpt>
<trkpt lat="56.818206" lon="8.260398">
<ele>3.905710</ele>
<time>2026-07-13T16:21:24.000Z</time>
</trkpt>
<trkpt lat="56.818238" lon="8.260443">
<ele>3.914052</ele>
<time>2026-07-13T16:21:25.000Z</time>
</trkpt>
<trkpt lat="56.818272" lon="8.260493">
<ele>3.923067</ele>
<time>2026-07-13T16:21:26.000Z</time>
</trkpt>
<trkpt lat="56.818309" lon="8.260540">
<ele>3.932376</ele>
<time>2026-07-13T16:21:27.000Z</time>
</trkpt>
<trkpt lat="56.818346" lon="8.260589">
<ele>3.941816</ele>
<time>2026-07-13T16:21:28.000Z</time>
</trkpt>
<trkpt lat="56.818378" lon="8.260637">
<ele>3.950368</ele>
<time>2026-07-13T16:21:29.000Z</time>
</trkpt>
<trkpt lat="56.818412" lon="8.260683">
<ele>3.959107</ele>
<time>2026-07-13T16:21:30.000Z</time>
</trkpt>
<trkpt lat="56.818446" lon="8.260729">
<ele>3.967847</ele>
<time>2026-07-13T16:21:31.000Z</time>
</trkpt>
<trkpt lat="56.818481" lon="8.260773">
<ele>3.976623</ele>
<time>2026-07-13T16:21:32.000Z</time>
</trkpt>
<trkpt lat="56.818520" lon="8.260815">
<ele>3.985974</ele>
<time>2026-07-13T16:21:33.000Z</time>
</trkpt>
<trkpt lat="56.818561" lon="8.260853">
<ele>3.995471</ele>
<time>2026-07-13T16:21:34.000Z</time>
</trkpt>
<trkpt lat="56.818601" lon="8.260889">
<ele>4.004682</ele>
<time>2026-07-13T16:21:35.000Z</time>
</trkpt>
<trkpt lat="56.818643" lon="8.260919">
<ele>4.013997</ele>
<time>2026-07-13T16:21:36.000Z</time>
</trkpt>
<trkpt lat="56.818685" lon="8.260941">
<ele>4.023022</ele>
<time>2026-07-13T16:21:37.000Z</time>
</trkpt>
<trkpt lat="56.818726" lon="8.260963">
<ele>4.031849</ele>
<time>2026-07-13T16:21:38.000Z</time>
</trkpt>
<trkpt lat="56.818763" lon="8.260981">
<ele>4.048953</ele>
<time>2026-07-13T16:21:39.000Z</time>
</trkpt>
<trkpt lat="56.818800" lon="8.260994">
<ele>4.070846</ele>
<time>2026-07-13T16:21:40.000Z</time>
</trkpt>
<trkpt lat="56.818833" lon="8.261007">
<ele>4.090462</ele>
<time>2026-07-13T16:21:41.000Z</time>
</trkpt>
<trkpt lat="56.818873" lon="8.261015">
<ele>4.113843</ele>
<time>2026-07-13T16:21:42.000Z</time>
</trkpt>
<trkpt lat="56.818906" lon="8.261021">
<ele>4.133112</ele>
<time>2026-07-13T16:21:43.000Z</time>
</trkpt>
<trkpt lat="56.818940" lon="8.261024">
<ele>4.152891</ele>
<time>2026-07-13T16:21:44.000Z</time>
</trkpt>
<trkpt lat="56.818968" lon="8.261026">
<ele>4.169173</ele>
<time>2026-07-13T16:21:45.000Z</time>
</trkpt>
<trkpt lat="56.819001" lon="8.261028">
<ele>4.188359</ele>
<time>2026-07-13T16:21:46.000Z</time>
</trkpt>
<trkpt lat="56.819028" lon="8.261034">
<ele>4.204163</ele>
<time>2026-07-13T16:21:47.000Z</time>
</trkpt>
<trkpt lat="56.819063" lon="8.261040">
<ele>4.224589</ele>
<time>2026-07-13T16:21:48.000Z</time>
</trkpt>
<trkpt lat="56.819094" lon="8.261046">
<ele>4.242703</ele>
<time>2026-07-13T16:21:49.000Z</time>
</trkpt>
<trkpt lat="56.819128" lon="8.261053">
<ele>4.262584</ele>
<time>2026-07-13T16:21:50.000Z</time>
</trkpt>
<trkpt lat="56.819159" lon="8.261063">
<ele>4.280875</ele>
<time>2026-07-13T16:21:51.000Z</time>
</trkpt>
<trkpt lat="56.819195" lon="8.261074">
<ele>4.302084</ele>
<time>2026-07-13T16:21:52.000Z</time>
</trkpt>
<trkpt lat="56.819231" lon="8.261083">
<ele>4.323197</ele>
<time>2026-07-13T16:21:53.000Z</time>
</trkpt>
<trkpt lat="56.819267" lon="8.261089">
<ele>4.344201</ele>
<time>2026-07-13T16:21:54.000Z</time>
</trkpt>
<trkpt lat="56.819305" lon="8.261099">
<ele>4.366509</ele>
<time>2026-07-13T16:21:55.000Z</time>
</trkpt>
<trkpt lat="56.819344" lon="8.261116">
<ele>4.389807</ele>
<time>2026-07-13T16:21:56.000Z</time>
</trkpt>
<trkpt lat="56.819383" lon="8.261135">
<ele>4.413260</ele>
<time>2026-07-13T16:21:57.000Z</time>
</trkpt>
<trkpt lat="56.819423" lon="8.261158">
<ele>4.437625</ele>
<time>2026-07-13T16:21:58.000Z</time>
</trkpt>
<trkpt lat="56.819462" lon="8.261183">
<ele>4.461641</ele>
<time>2026-07-13T16:21:59.000Z</time>
</trkpt>
<trkpt lat="56.819503" lon="8.261210">
<ele>4.486964</ele>
<time>2026-07-13T16:22:00.000Z</time>
</trkpt>
<trkpt lat="56.819543" lon="8.261238">
<ele>4.511854</ele>
<time>2026-07-13T16:22:01.000Z</time>
</trkpt>
<trkpt lat="56.819587" lon="8.261273">
<ele>4.539738</ele>
<time>2026-07-13T16:22:02.000Z</time>
</trkpt>
<trkpt lat="56.819631" lon="8.261306">
<ele>4.567374</ele>
<time>2026-07-13T16:22:03.000Z</time>
</trkpt>
<trkpt lat="56.819673" lon="8.261340">
<ele>4.594066</ele>
<time>2026-07-13T16:22:04.000Z</time>
</trkpt>
<trkpt lat="56.819715" lon="8.261374">
<ele>4.620758</ele>
<time>2026-07-13T16:22:05.000Z</time>
</trkpt>
<trkpt lat="56.819757" lon="8.261409">
<ele>4.647581</ele>
<time>2026-07-13T16:22:06.000Z</time>
</trkpt>
<trkpt lat="56.819799" lon="8.261444">
<ele>4.674404</ele>
<time>2026-07-13T16:22:07.000Z</time>
</trkpt>
<trkpt lat="56.819841" lon="8.261477">
<ele>4.700969</ele>
<time>2026-07-13T16:22:08.000Z</time>
</trkpt>
<trkpt lat="56.819882" lon="8.261512">
<ele>4.727264</ele>
<time>2026-07-13T16:22:09.000Z</time>
</trkpt>
<trkpt lat="56.819921" lon="8.261547">
<ele>4.752511</ele>
<time>2026-07-13T16:22:10.000Z</time>
</trkpt>
<trkpt lat="56.819963" lon="8.261583">
<ele>4.779467</ele>
<time>2026-07-13T16:22:11.000Z</time>
</trkpt>
<trkpt lat="56.820003" lon="8.261617">
<ele>4.805101</ele>
<time>2026-07-13T16:22:12.000Z</time>
</trkpt>
<trkpt lat="56.820045" lon="8.261649">
<ele>4.831542</ele>
<time>2026-07-13T16:22:13.000Z</time>
</trkpt>
<trkpt lat="56.820092" lon="8.261683">
<ele>4.860914</ele>
<time>2026-07-13T16:22:14.000Z</time>
</trkpt>
<trkpt lat="56.820133" lon="8.261717">
<ele>4.887075</ele>
<time>2026-07-13T16:22:15.000Z</time>
</trkpt>
<trkpt lat="56.820172" lon="8.261754">
<ele>4.912609</ele>
<time>2026-07-13T16:22:16.000Z</time>
</trkpt>
<trkpt lat="56.820214" lon="8.261790">
<ele>4.939565</ele>
<time>2026-07-13T16:22:17.000Z</time>
</trkpt>
<trkpt lat="56.820256" lon="8.261825">
<ele>4.966388</ele>
<time>2026-07-13T16:22:18.000Z</time>
</trkpt>
<trkpt lat="56.820299" lon="8.261857">
<ele>4.993366</ele>
<time>2026-07-13T16:22:19.000Z</time>
</trkpt>
<trkpt lat="56.820344" lon="8.261886">
<ele>5.021092</ele>
<time>2026-07-13T16:22:20.000Z</time>
</trkpt>
<trkpt lat="56.820386" lon="8.261915">
<ele>5.047181</ele>
<time>2026-07-13T16:22:21.000Z</time>
</trkpt>
<trkpt lat="56.820429" lon="8.261943">
<ele>5.073705</ele>
<time>2026-07-13T16:22:22.000Z</time>
</trkpt>
<trkpt lat="56.820474" lon="8.261973">
<ele>5.109706</ele>
<time>2026-07-13T16:22:23.000Z</time>
</trkpt>
<trkpt lat="56.820515" lon="8.262004">
<ele>5.145177</ele>
<time>2026-07-13T16:22:24.000Z</time>
</trkpt>
<trkpt lat="56.820555" lon="8.262030">
<ele>5.179116</ele>
<time>2026-07-13T16:22:25.000Z</time>
</trkpt>
<trkpt lat="56.820595" lon="8.262061">
<ele>5.213849</ele>
<time>2026-07-13T16:22:26.000Z</time>
</trkpt>
<trkpt lat="56.820632" lon="8.262098">
<ele>5.247566</ele>
<time>2026-07-13T16:22:27.000Z</time>
</trkpt>
<trkpt lat="56.820666" lon="8.262133">
<ele>5.278762</ele>
<time>2026-07-13T16:22:28.000Z</time>
</trkpt>
<trkpt lat="56.820704" lon="8.262171">
<ele>5.313391</ele>
<time>2026-07-13T16:22:29.000Z</time>
</trkpt>
<trkpt lat="56.820745" lon="8.262209">
<ele>5.350141</ele>
<time>2026-07-13T16:22:30.000Z</time>
</trkpt>
<trkpt lat="56.820787" lon="8.262247">
<ele>5.387606</ele>
<time>2026-07-13T16:22:31.000Z</time>
</trkpt>
<trkpt lat="56.820829" lon="8.262287">
<ele>5.425467</ele>
<time>2026-07-13T16:22:32.000Z</time>
</trkpt>
<trkpt lat="56.820868" lon="8.262325">
<ele>5.460799</ele>
<time>2026-07-13T16:22:33.000Z</time>
</trkpt>
<trkpt lat="56.820904" lon="8.262362">
<ele>5.493818</ele>
<time>2026-07-13T16:22:34.000Z</time>
</trkpt>
<trkpt lat="56.820949" lon="8.262402">
<ele>5.533821</ele>
<time>2026-07-13T16:22:35.000Z</time>
</trkpt>
<trkpt lat="56.820991" lon="8.262438">
<ele>5.570906</ele>
<time>2026-07-13T16:22:36.000Z</time>
</trkpt>
<trkpt lat="56.821026" lon="8.262468">
<ele>5.601810</ele>
<time>2026-07-13T16:22:37.000Z</time>
</trkpt>
<trkpt lat="56.821056" lon="8.262492">
<ele>5.627990</ele>
<time>2026-07-13T16:22:38.000Z</time>
</trkpt>
<trkpt lat="56.821106" lon="8.262536">
<ele>5.672353</ele>
<time>2026-07-13T16:22:39.000Z</time>
</trkpt>
<trkpt lat="56.821143" lon="8.262569">
<ele>5.705266</ele>
<time>2026-07-13T16:22:40.000Z</time>
</trkpt>
<trkpt lat="56.821178" lon="8.262601">
<ele>5.736552</ele>
<time>2026-07-13T16:22:41.000Z</time>
</trkpt>
<trkpt lat="56.821216" lon="8.262635">
<ele>5.770375</ele>
<time>2026-07-13T16:22:42.000Z</time>
</trkpt>
<trkpt lat="56.821256" lon="8.262673">
<ele>5.806415</ele>
<time>2026-07-13T16:22:43.000Z</time>
</trkpt>
<trkpt lat="56.821297" lon="8.262710">
<ele>5.842969</ele>
<time>2026-07-13T16:22:44.000Z</time>
</trkpt>
<trkpt lat="56.821338" lon="8.262746">
<ele>5.879332</ele>
<time>2026-07-13T16:22:45.000Z</time>
</trkpt>
<trkpt lat="56.821373" lon="8.262778">
<ele>5.910618</ele>
<time>2026-07-13T16:22:46.000Z</time>
</trkpt>
<trkpt lat="56.821409" lon="8.262808">
<ele>5.942247</ele>
<time>2026-07-13T16:22:47.000Z</time>
</trkpt>
<trkpt lat="56.821442" lon="8.262838">
<ele>5.971712</ele>
<time>2026-07-13T16:22:48.000Z</time>
</trkpt>
<trkpt lat="56.821478" lon="8.262865">
<ele>6.002820</ele>
<time>2026-07-13T16:22:49.000Z</time>
</trkpt>
<trkpt lat="56.821513" lon="8.262888">
<ele>6.032553</ele>
<time>2026-07-13T16:22:50.000Z</time>
</trkpt>
<trkpt lat="56.821547" lon="8.262911">
<ele>6.061535</ele>
<time>2026-07-13T16:22:51.000Z</time>
</trkpt>
<trkpt lat="56.821580" lon="8.262937">
<ele>6.090263</ele>
<time>2026-07-13T16:22:52.000Z</time>
</trkpt>
<trkpt lat="56.821615" lon="8.262964">
<ele>6.120633</ele>
<time>2026-07-13T16:22:53.000Z</time>
</trkpt>
<trkpt lat="56.821648" lon="8.262991">
<ele>6.149537</ele>
<time>2026-07-13T16:22:54.000Z</time>
</trkpt>
<trkpt lat="56.821678" lon="8.263021">
<ele>6.176875</ele>
<time>2026-07-13T16:22:55.000Z</time>
</trkpt>
<trkpt lat="56.821708" lon="8.263049">
<ele>6.203804</ele>
<time>2026-07-13T16:22:56.000Z</time>
</trkpt>
<trkpt lat="56.821733" lon="8.263075">
<ele>6.226799</ele>
<time>2026-07-13T16:22:57.000Z</time>
</trkpt>
<trkpt lat="56.821760" lon="8.263104">
<ele>6.251836</ele>
<time>2026-07-13T16:22:58.000Z</time>
</trkpt>
<trkpt lat="56.821779" lon="8.263135">
<ele>6.272198</ele>
<time>2026-07-13T16:22:59.000Z</time>
</trkpt>
<trkpt lat="56.821795" lon="8.263171">
<ele>6.292486</ele>
<time>2026-07-13T16:23:00.000Z</time>
</trkpt>
<trkpt lat="56.821804" lon="8.263202">
<ele>6.307838</ele>
<time>2026-07-13T16:23:01.000Z</time>
</trkpt>
<trkpt lat="56.821813" lon="8.263255">
<ele>6.332114</ele>
<time>2026-07-13T16:23:02.000Z</time>
</trkpt>
<trkpt lat="56.821817" lon="8.263293">
<ele>6.349043</ele>
<time>2026-07-13T16:23:03.000Z</time>
</trkpt>
<trkpt lat="56.821824" lon="8.263333">
<ele>6.367414</ele>
<time>2026-07-13T16:23:04.000Z</time>
</trkpt>
<trkpt lat="56.821828" lon="8.263369">
<ele>6.383484</ele>
<time>2026-07-13T16:23:05.000Z</time>
</trkpt>
<trkpt lat="56.821831" lon="8.263407">
<ele>6.400280</ele>
<time>2026-07-13T16:23:06.000Z</time>
</trkpt>
<trkpt lat="56.821836" lon="8.263466">
<ele>6.426398</ele>
<time>2026-07-13T16:23:07.000Z</time>
</trkpt>
<trkpt lat="56.821841" lon="8.263520">
<ele>6.450357</ele>
<time>2026-07-13T16:23:08.000Z</time>
</trkpt>
<trkpt lat="56.821849" lon="8.263576">
<ele>6.475676</ele>
<time>2026-07-13T16:23:09.000Z</time>
</trkpt>
<trkpt lat="56.821860" lon="8.263628">
<ele>6.500065</ele>
<time>2026-07-13T16:23:10.000Z</time>
</trkpt>
<trkpt lat="56.821867" lon="8.263676">
<ele>6.528670</ele>
<time>2026-07-13T16:23:11.000Z</time>
</trkpt>
<trkpt lat="56.821875" lon="8.263721">
<ele>6.583575</ele>
<time>2026-07-13T16:23:12.000Z</time>
</trkpt>
<trkpt lat="56.821881" lon="8.263765">
<ele>6.636195</ele>
<time>2026-07-13T16:23:13.000Z</time>
</trkpt>
<trkpt lat="56.821886" lon="8.263806">
<ele>6.684939</ele>
<time>2026-07-13T16:23:14.000Z</time>
</trkpt>
<trkpt lat="56.821894" lon="8.263843">
<ele>6.731104</ele>
<time>2026-07-13T16:23:15.000Z</time>
</trkpt>
<trkpt lat="56.821901" lon="8.263874">
<ele>6.770019</ele>
<time>2026-07-13T16:23:16.000Z</time>
</trkpt>
<trkpt lat="56.821905" lon="8.263898">
<ele>6.799132</ele>
<time>2026-07-13T16:23:17.000Z</time>
</trkpt>
<trkpt lat="56.821914" lon="8.263921">
<ele>6.831943</ele>
<time>2026-07-13T16:23:18.000Z</time>
</trkpt>
<trkpt lat="56.821928" lon="8.263943">
<ele>6.871097</ele>
<time>2026-07-13T16:23:19.000Z</time>
</trkpt>
<trkpt lat="56.821946" lon="8.263956">
<ele>6.912138</ele>
<time>2026-07-13T16:23:20.000Z</time>
</trkpt>
<trkpt lat="56.821961" lon="8.263955">
<ele>6.943967</ele>
<time>2026-07-13T16:23:21.000Z</time>
</trkpt>
<trkpt lat="56.821976" lon="8.263941">
<ele>6.979683</ele>
<time>2026-07-13T16:23:22.000Z</time>
</trkpt>
<trkpt lat="56.821990" lon="8.263918">
<ele>7.019603</ele>
<time>2026-07-13T16:23:23.000Z</time>
</trkpt>
<trkpt lat="56.822000" lon="8.263894">
<ele>7.054607</ele>
<time>2026-07-13T16:23:24.000Z</time>
</trkpt>
<trkpt lat="56.822013" lon="8.263858">
<ele>7.104657</ele>
<time>2026-07-13T16:23:25.000Z</time>
</trkpt>
<trkpt lat="56.822024" lon="8.263831">
<ele>7.143717</ele>
<time>2026-07-13T16:23:26.000Z</time>
</trkpt>
<trkpt lat="56.822037" lon="8.263800">
<ele>7.189038</ele>
<time>2026-07-13T16:23:27.000Z</time>
</trkpt>
<trkpt lat="56.822048" lon="8.263774">
<ele>7.227173</ele>
<time>2026-07-13T16:23:28.000Z</time>
</trkpt>
<trkpt lat="56.822070" lon="8.263733">
<ele>7.293805</ele>
<time>2026-07-13T16:23:29.000Z</time>
</trkpt>
<trkpt lat="56.822089" lon="8.263699">
<ele>7.350195</ele>
<time>2026-07-13T16:23:30.000Z</time>
</trkpt>
<trkpt lat="56.822107" lon="8.263667">
<ele>7.403447</ele>
<time>2026-07-13T16:23:31.000Z</time>
</trkpt>
<trkpt lat="56.822127" lon="8.263637">
<ele>7.458314</ele>
<time>2026-07-13T16:23:32.000Z</time>
</trkpt>
<trkpt lat="56.822151" lon="8.263605">
<ele>7.521313</ele>
<time>2026-07-13T16:23:33.000Z</time>
</trkpt>
<trkpt lat="56.822173" lon="8.263579">
<ele>7.576869</ele>
<time>2026-07-13T16:23:34.000Z</time>
</trkpt>
<trkpt lat="56.822194" lon="8.263558">
<ele>7.627631</ele>
<time>2026-07-13T16:23:35.000Z</time>
</trkpt>
<trkpt lat="56.822219" lon="8.263535">
<ele>7.686982</ele>
<time>2026-07-13T16:23:36.000Z</time>
</trkpt>
<trkpt lat="56.822243" lon="8.263516">
<ele>7.742444</ele>
<time>2026-07-13T16:23:37.000Z</time>
</trkpt>
<trkpt lat="56.822270" lon="8.263498">
<ele>7.803388</ele>
<time>2026-07-13T16:23:38.000Z</time>
</trkpt>
<trkpt lat="56.822297" lon="8.263481">
<ele>7.863944</ele>
<time>2026-07-13T16:23:39.000Z</time>
</trkpt>
<trkpt lat="56.822322" lon="8.263466">
<ele>7.919741</ele>
<time>2026-07-13T16:23:40.000Z</time>
</trkpt>
<trkpt lat="56.822348" lon="8.263453">
<ele>7.976900</ele>
<time>2026-07-13T16:23:41.000Z</time>
</trkpt>
<trkpt lat="56.822380" lon="8.263438">
<ele>8.046952</ele>
<time>2026-07-13T16:23:42.000Z</time>
</trkpt>
<trkpt lat="56.822406" lon="8.263425">
<ele>8.104111</ele>
<time>2026-07-13T16:23:43.000Z</time>
</trkpt>
<trkpt lat="56.822434" lon="8.263408">
<ele>8.166676</ele>
<time>2026-07-13T16:23:44.000Z</time>
</trkpt>
<trkpt lat="56.822462" lon="8.263390">
<ele>8.229616</ele>
<time>2026-07-13T16:23:45.000Z</time>
</trkpt>
<trkpt lat="56.822490" lon="8.263374">
<ele>8.291824</ele>
<time>2026-07-13T16:23:46.000Z</time>
</trkpt>
<trkpt lat="56.822517" lon="8.263360">
<ele>8.351337</ele>
<time>2026-07-13T16:23:47.000Z</time>
</trkpt>
<trkpt lat="56.822549" lon="8.263348">
<ele>8.420607</ele>
<time>2026-07-13T16:23:48.000Z</time>
</trkpt>
<trkpt lat="56.822574" lon="8.263337">
<ele>8.475134</ele>
<time>2026-07-13T16:23:49.000Z</time>
</trkpt>
<trkpt lat="56.822598" lon="8.263322">
<ele>8.528919</ele>
<time>2026-07-13T16:23:50.000Z</time>
</trkpt>
<trkpt lat="56.822624" lon="8.263307">
<ele>8.586734</ele>
<time>2026-07-13T16:23:51.000Z</time>
</trkpt>
<trkpt lat="56.822649" lon="8.263295">
<ele>8.641544</ele>
<time>2026-07-13T16:23:52.000Z</time>
</trkpt>
<trkpt lat="56.822678" lon="8.263281">
<ele>8.705148</ele>
<time>2026-07-13T16:23:53.000Z</time>
</trkpt>
<trkpt lat="56.822709" lon="8.263266">
<ele>8.773148</ele>
<time>2026-07-13T16:23:54.000Z</time>
</trkpt>
<trkpt lat="56.822742" lon="8.263252">
<ele>8.844985</ele>
<time>2026-07-13T16:23:55.000Z</time>
</trkpt>
<trkpt lat="56.822768" lon="8.263241">
<ele>8.901575</ele>
<time>2026-07-13T16:23:56.000Z</time>
</trkpt>
<trkpt lat="56.822795" lon="8.263229">
<ele>8.960497</ele>
<time>2026-07-13T16:23:57.000Z</time>
</trkpt>
<trkpt lat="56.822825" lon="8.263219">
<ele>9.025161</ele>
<time>2026-07-13T16:23:58.000Z</time>
</trkpt>
<trkpt lat="56.822858" lon="8.263215">
<ele>9.095291</ele>
<time>2026-07-13T16:23:59.000Z</time>
</trkpt>
<trkpt lat="56.822887" lon="8.263215">
<ele>9.156784</ele>
<time>2026-07-13T16:24:00.000Z</time>
</trkpt>
<trkpt lat="56.822915" lon="8.263221">
<ele>9.216565</ele>
<time>2026-07-13T16:24:01.000Z</time>
</trkpt>
<trkpt lat="56.822943" lon="8.263231">
<ele>9.277061</ele>
<time>2026-07-13T16:24:02.000Z</time>
</trkpt>
<trkpt lat="56.822970" lon="8.263244">
<ele>9.336268</ele>
<time>2026-07-13T16:24:03.000Z</time>
</trkpt>
<trkpt lat="56.822996" lon="8.263253">
<ele>9.392381</ele>
<time>2026-07-13T16:24:04.000Z</time>
</trkpt>
<trkpt lat="56.823025" lon="8.263259">
<ele>9.454267</ele>
<time>2026-07-13T16:24:05.000Z</time>
</trkpt>
<trkpt lat="56.823051" lon="8.263263">
<ele>9.509595</ele>
<time>2026-07-13T16:24:06.000Z</time>
</trkpt>
<trkpt lat="56.823078" lon="8.263270">
<ele>9.567421</ele>
<time>2026-07-13T16:24:07.000Z</time>
</trkpt>
<trkpt lat="56.823104" lon="8.263280">
<ele>9.623761</ele>
<time>2026-07-13T16:24:08.000Z</time>
</trkpt>
<trkpt lat="56.823127" lon="8.263289">
<ele>9.673638</ele>
<time>2026-07-13T16:24:09.000Z</time>
</trkpt>
<trkpt lat="56.823147" lon="8.263297">
<ele>9.717052</ele>
<time>2026-07-13T16:24:10.000Z</time>
</trkpt>
<trkpt lat="56.823169" lon="8.263304">
<ele>9.764404</ele>
<time>2026-07-13T16:24:11.000Z</time>
</trkpt>
<trkpt lat="56.823189" lon="8.263313">
<ele>9.808080</ele>
<time>2026-07-13T16:24:12.000Z</time>
</trkpt>
<trkpt lat="56.823210" lon="8.263322">
<ele>9.853819</ele>
<time>2026-07-13T16:24:13.000Z</time>
</trkpt>
<trkpt lat="56.823229" lon="8.263329">
<ele>9.894918</ele>
<time>2026-07-13T16:24:14.000Z</time>
</trkpt>
<trkpt lat="56.823256" lon="8.263339">
<ele>9.953335</ele>
<time>2026-07-13T16:24:15.000Z</time>
</trkpt>
<trkpt lat="56.823275" lon="8.263345">
<ele>9.994221</ele>
<time>2026-07-13T16:24:16.000Z</time>
</trkpt>
<trkpt lat="56.823297" lon="8.263355">
<ele>10.042293</ele>
<time>2026-07-13T16:24:17.000Z</time>
</trkpt>
<trkpt lat="56.823314" lon="8.263365">
<ele>10.080163</ele>
<time>2026-07-13T16:24:18.000Z</time>
</trkpt>
<trkpt lat="56.823335" lon="8.263380">
<ele>10.127974</ele>
<time>2026-07-13T16:24:19.000Z</time>
</trkpt>
<trkpt lat="56.823349" lon="8.263393">
<ele>10.161273</ele>
<time>2026-07-13T16:24:20.000Z</time>
</trkpt>
<trkpt lat="56.823362" lon="8.263403">
<ele>10.191182</ele>
<time>2026-07-13T16:24:21.000Z</time>
</trkpt>
<trkpt lat="56.823379" lon="8.263411">
<ele>10.228406</ele>
<time>2026-07-13T16:24:22.000Z</time>
</trkpt>
<trkpt lat="56.823397" lon="8.263417">
<ele>10.267205</ele>
<time>2026-07-13T16:24:23.000Z</time>
</trkpt>
<trkpt lat="56.823414" lon="8.263421">
<ele>10.303550</ele>
<time>2026-07-13T16:24:24.000Z</time>
</trkpt>
<trkpt lat="56.823434" lon="8.263424">
<ele>10.331617</ele>
<time>2026-07-13T16:24:25.000Z</time>
</trkpt>
<trkpt lat="56.823450" lon="8.263423">
<ele>10.331617</ele>
<time>2026-07-13T16:24:26.000Z</time>
</trkpt>
<trkpt lat="56.823469" lon="8.263417">
<ele>10.331617</ele>
<time>2026-07-13T16:24:27.000Z</time>
</trkpt>
<trkpt lat="56.823487" lon="8.263415">
<ele>10.331617</ele>
<time>2026-07-13T16:24:28.000Z</time>
</trkpt>
<trkpt lat="56.823503" lon="8.263420">
<ele>10.331617</ele>
<time>2026-07-13T16:24:29.000Z</time>
</trkpt>
<trkpt lat="56.823519" lon="8.263424">
<ele>10.331617</ele>
<time>2026-07-13T16:24:30.000Z</time>
</trkpt>
<trkpt lat="56.823538" lon="8.263435">
<ele>10.331617</ele>
<time>2026-07-13T16:24:31.000Z</time>
</trkpt>
<trkpt lat="56.823556" lon="8.263445">
<ele>10.331617</ele>
<time>2026-07-13T16:24:32.000Z</time>
</trkpt>
<trkpt lat="56.823569" lon="8.263459">
<ele>10.331617</ele>
<time>2026-07-13T16:24:33.000Z</time>
</trkpt>
<trkpt lat="56.823577" lon="8.263477">
<ele>10.331617</ele>
<time>2026-07-13T16:24:34.000Z</time>
</trkpt>
<trkpt lat="56.823588" lon="8.263497">
<ele>10.331617</ele>
<time>2026-07-13T16:24:35.000Z</time>
</trkpt>
<trkpt lat="56.823595" lon="8.263513">
<ele>10.331617</ele>
<time>2026-07-13T16:24:36.000Z</time>
</trkpt>
<trkpt lat="56.823602" lon="8.263524">
<ele>10.331617</ele>
<time>2026-07-13T16:24:37.000Z</time>
</trkpt>
<trkpt lat="56.823605" lon="8.263531">
<ele>10.331617</ele>
<time>2026-07-13T16:24:38.000Z</time>
</trkpt>
<trkpt lat="56.823606" lon="8.263535">
<ele>10.331617</ele>
<time>2026-07-13T16:24:39.000Z</time>
</trkpt>
<trkpt lat="56.823634" lon="8.263545">
<ele>10.331617</ele>
<time>2026-07-13T16:25:42.000Z</time>
</trkpt>
<trkpt lat="56.823643" lon="8.263557">
<ele>10.331617</ele>
<time>2026-07-13T16:25:43.000Z</time>
</trkpt>
<trkpt lat="56.823655" lon="8.263569">
<ele>10.331617</ele>
<time>2026-07-13T16:25:44.000Z</time>
</trkpt>
<trkpt lat="56.823672" lon="8.263582">
<ele>10.331617</ele>
<time>2026-07-13T16:25:45.000Z</time>
</trkpt>
<trkpt lat="56.823691" lon="8.263593">
<ele>10.331617</ele>
<time>2026-07-13T16:25:46.000Z</time>
</trkpt>
<trkpt lat="56.823713" lon="8.263599">
<ele>10.331617</ele>
<time>2026-07-13T16:25:47.000Z</time>
</trkpt>
<trkpt lat="56.823739" lon="8.263604">
<ele>10.331617</ele>
<time>2026-07-13T16:25:48.000Z</time>
</trkpt>
<trkpt lat="56.823766" lon="8.263607">
<ele>10.331617</ele>
<time>2026-07-13T16:25:49.000Z</time>
</trkpt>
<trkpt lat="56.823793" lon="8.263613">
<ele>10.331617</ele>
<time>2026-07-13T16:25:50.000Z</time>
</trkpt>
<trkpt lat="56.823819" lon="8.263615">
<ele>10.331617</ele>
<time>2026-07-13T16:25:51.000Z</time>
</trkpt>
<trkpt lat="56.823845" lon="8.263615">
<ele>10.331617</ele>
<time>2026-07-13T16:25:52.000Z</time>
</trkpt>
<trkpt lat="56.823870" lon="8.263614">
<ele>10.331617</ele>
<time>2026-07-13T16:25:53.000Z</time>
</trkpt>
<trkpt lat="56.823900" lon="8.263609">
<ele>10.331617</ele>
<time>2026-07-13T16:25:54.000Z</time>
</trkpt>
<trkpt lat="56.823931" lon="8.263599">
<ele>10.331617</ele>
<time>2026-07-13T16:25:55.000Z</time>
</trkpt>
<trkpt lat="56.823962" lon="8.263586">
<ele>10.331617</ele>
<time>2026-07-13T16:25:56.000Z</time>
</trkpt>
<trkpt lat="56.823990" lon="8.263567">
<ele>10.331617</ele>
<time>2026-07-13T16:25:57.000Z</time>
</trkpt>
<trkpt lat="56.824013" lon="8.263542">
<ele>10.331617</ele>
<time>2026-07-13T16:25:58.000Z</time>
</trkpt>
<trkpt lat="56.824034" lon="8.263512">
<ele>10.331617</ele>
<time>2026-07-13T16:25:59.000Z</time>
</trkpt>
<trkpt lat="56.824051" lon="8.263476">
<ele>10.331617</ele>
<time>2026-07-13T16:26:00.000Z</time>
</trkpt>
<trkpt lat="56.824062" lon="8.263441">
<ele>10.331617</ele>
<time>2026-07-13T16:26:01.000Z</time>
</trkpt>
<trkpt lat="56.824073" lon="8.263408">
<ele>10.331617</ele>
<time>2026-07-13T16:26:02.000Z</time>
</trkpt>
<trkpt lat="56.824081" lon="8.263376">
<ele>10.331617</ele>
<time>2026-07-13T16:26:03.000Z</time>
</trkpt>
<trkpt lat="56.824091" lon="8.263343">
<ele>10.331617</ele>
<time>2026-07-13T16:26:04.000Z</time>
</trkpt>
<trkpt lat="56.824100" lon="8.263308">
<ele>10.331617</ele>
<time>2026-07-13T16:26:05.000Z</time>
</trkpt>
<trkpt lat="56.824111" lon="8.263272">
<ele>10.331617</ele>
<time>2026-07-13T16:26:06.000Z</time>
</trkpt>
<trkpt lat="56.824119" lon="8.263235">
<ele>10.331617</ele>
<time>2026-07-13T16:26:07.000Z</time>
</trkpt>
<trkpt lat="56.824130" lon="8.263200">
<ele>10.331617</ele>
<time>2026-07-13T16:26:08.000Z</time>
</trkpt>
<trkpt lat="56.824138" lon="8.263167">
<ele>10.331617</ele>
<time>2026-07-13T16:26:09.000Z</time>
</trkpt>
<trkpt lat="56.824149" lon="8.263134">
<ele>10.331617</ele>
<time>2026-07-13T16:26:10.000Z</time>
</trkpt>
<trkpt lat="56.824158" lon="8.263096">
<ele>10.331617</ele>
<time>2026-07-13T16:26:11.000Z</time>
</trkpt>
<trkpt lat="56.824168" lon="8.263061">
<ele>10.331617</ele>
<time>2026-07-13T16:26:12.000Z</time>
</trkpt>
<trkpt lat="56.824175" lon="8.263025">
<ele>10.331617</ele>
<time>2026-07-13T16:26:13.000Z</time>
</trkpt>
<trkpt lat="56.824183" lon="8.262988">
<ele>10.331617</ele>
<time>2026-07-13T16:26:14.000Z</time>
</trkpt>
<trkpt lat="56.824191" lon="8.262955">
<ele>10.331617</ele>
<time>2026-07-13T16:26:15.000Z</time>
</trkpt>
<trkpt lat="56.824198" lon="8.262923">
<ele>10.331617</ele>
<time>2026-07-13T16:26:16.000Z</time>
</trkpt>
<trkpt lat="56.824207" lon="8.262894">
<ele>10.331617</ele>
<time>2026-07-13T16:26:17.000Z</time>
</trkpt>
<trkpt lat="56.824219" lon="8.262869">
<ele>10.331617</ele>
<time>2026-07-13T16:26:18.000Z</time>
</trkpt>
<trkpt lat="56.824229" lon="8.262847">
<ele>10.331617</ele>
<time>2026-07-13T16:26:19.000Z</time>
</trkpt>
<trkpt lat="56.824237" lon="8.262830">
<ele>10.331617</ele>
<time>2026-07-13T16:26:20.000Z</time>
</trkpt>
<trkpt lat="56.824266" lon="8.262779">
<ele>10.331617</ele>
<time>2026-07-13T16:26:26.000Z</time>
</trkpt>
<trkpt lat="56.824269" lon="8.262765">
<ele>10.331617</ele>
<time>2026-07-13T16:26:27.000Z</time>
</trkpt>
<trkpt lat="56.824275" lon="8.262748">
<ele>10.331617</ele>
<time>2026-07-13T16:26:28.000Z</time>
</trkpt>
<trkpt lat="56.824282" lon="8.262731">
<ele>10.331617</ele>
<time>2026-07-13T16:26:29.000Z</time>
</trkpt>
<trkpt lat="56.824290" lon="8.262715">
<ele>10.331617</ele>
<time>2026-07-13T16:26:30.000Z</time>
</trkpt>
<trkpt lat="56.824296" lon="8.262700">
<ele>10.331617</ele>
<time>2026-07-13T16:26:31.000Z</time>
</trkpt>
<trkpt lat="56.824301" lon="8.262684">
<ele>10.331617</ele>
<time>2026-07-13T16:26:32.000Z</time>
</trkpt>
<trkpt lat="56.824309" lon="8.262668">
<ele>10.331617</ele>
<time>2026-07-13T16:26:33.000Z</time>
</trkpt>
<trkpt lat="56.824316" lon="8.262652">
<ele>10.331617</ele>
<time>2026-07-13T16:26:34.000Z</time>
</trkpt>
<trkpt lat="56.824323" lon="8.262638">
<ele>10.331617</ele>
<time>2026-07-13T16:26:35.000Z</time>
</trkpt>
<trkpt lat="56.824332" lon="8.262625">
<ele>10.331617</ele>
<time>2026-07-13T16:26:36.000Z</time>
</trkpt>
<trkpt lat="56.824339" lon="8.262616">
<ele>10.331617</ele>
<time>2026-07-13T16:26:37.000Z</time>
</trkpt>
<trkpt lat="56.824346" lon="8.262609">
<ele>10.331617</ele>
<time>2026-07-13T16:26:38.000Z</time>
</trkpt>
<trkpt lat="56.824350" lon="8.262602">
<ele>10.331617</ele>
<time>2026-07-13T16:26:39.000Z</time>
</trkpt>
<trkpt lat="56.824353" lon="8.262594">
<ele>10.331617</ele>
<time>2026-07-13T16:26:40.000Z</time>
</trkpt>
<trkpt lat="56.824357" lon="8.262586">
<ele>10.331617</ele>
<time>2026-07-13T16:26:41.000Z</time>
</trkpt>
<trkpt lat="56.824361" lon="8.262580">
<ele>10.331617</ele>
<time>2026-07-13T16:26:42.000Z</time>
</trkpt>
</trkseg>
</trk>
</gpx>